<?xml version="1.0" encoding="UTF-8"?>
<gpx version="1.1" creator="https://www.youtrack.es" xsi:schemaLocation="http://www.topografix.com/GPX/1/1 http://www.topografix.com/GPX/1/1/gpx.xsd http://www.garmin.com/xmlschemas/GpxExtensions/v3 http://www.garmin.com/xmlschemas/GpxExtensionsv3.xsd http://www.garmin.com/xmlschemas/TrackPointExtension/v1 http://www.garmin.com/xmlschemas/TrackPointExtensionv1.xsd" xmlns:gpxtpx="http://www.garmin.com/xmlschemas/TrackPointExtension/v1" xmlns:gpxx="http://www.garmin.com/xmlschemas/GpxExtensions/v3" xmlns:xsi="http://www.w3.org/2001/XMLSchema-instance">
  <metadata>
    <link href="https://www.youtrack.es">
      <text>YouTrack.es</text>
    </link>
    <time>2026-05-10T19:18:31Z</time>
  </metadata>
  <trk>
    <src>https://www.youtrack.es</src>
    <link href="https://www.youtrack.es/ruta/8141-tpr1">
      <text>YouTrack.es</text>
    </link>
    <trkseg>
      <trkpt lat="43.46164000" lon="-1.53907000">
        <ele>38.900000</ele>
        <time>2010-01-01T00:00:00Z</time>
      </trkpt>
      <trkpt lat="43.46026300" lon="-1.53866200">
        <ele>42.100000</ele>
        <time>2010-01-01T00:00:56Z</time>
      </trkpt>
      <trkpt lat="43.45972700" lon="-1.54619400">
        <ele>46.700000</ele>
        <time>2010-01-01T00:04:36Z</time>
      </trkpt>
      <trkpt lat="43.46018800" lon="-1.54746000">
        <ele>51.200000</ele>
        <time>2010-01-01T00:05:17Z</time>
      </trkpt>
      <trkpt lat="43.45853100" lon="-1.54722400">
        <ele>49.300000</ele>
        <time>2010-01-01T00:06:24Z</time>
      </trkpt>
      <trkpt lat="43.45867000" lon="-1.54690000">
        <ele>48.800000</ele>
        <time>2010-01-01T00:06:35Z</time>
      </trkpt>
      <trkpt lat="43.45941000" lon="-1.54262000">
        <ele>44.800000</ele>
        <time>2010-01-01T00:08:42Z</time>
      </trkpt>
      <trkpt lat="43.45948000" lon="-1.54188000">
        <ele>45.400000</ele>
        <time>2010-01-01T00:09:04Z</time>
      </trkpt>
      <trkpt lat="43.45939000" lon="-1.53829000">
        <ele>46.600000</ele>
        <time>2010-01-01T00:10:48Z</time>
      </trkpt>
      <trkpt lat="43.45928000" lon="-1.53732000">
        <ele>47.200000</ele>
        <time>2010-01-01T00:11:17Z</time>
      </trkpt>
      <trkpt lat="43.45916000" lon="-1.53688000">
        <ele>48.800000</ele>
        <time>2010-01-01T00:11:31Z</time>
      </trkpt>
      <trkpt lat="43.45890000" lon="-1.53647000">
        <ele>51.400000</ele>
        <time>2010-01-01T00:11:46Z</time>
      </trkpt>
      <trkpt lat="43.45752000" lon="-1.53506000">
        <ele>66.200000</ele>
        <time>2010-01-01T00:12:55Z</time>
      </trkpt>
      <trkpt lat="43.45728000" lon="-1.53492000">
        <ele>67.400000</ele>
        <time>2010-01-01T00:13:06Z</time>
      </trkpt>
      <trkpt lat="43.45670000" lon="-1.53499000">
        <ele>72.700000</ele>
        <time>2010-01-01T00:13:29Z</time>
      </trkpt>
      <trkpt lat="43.45651000" lon="-1.53492000">
        <ele>73.700000</ele>
        <time>2010-01-01T00:13:37Z</time>
      </trkpt>
      <trkpt lat="43.45490000" lon="-1.53336000">
        <ele>82.200000</ele>
        <time>2010-01-01T00:14:56Z</time>
      </trkpt>
      <trkpt lat="43.45479000" lon="-1.53343000">
        <ele>82.400000</ele>
        <time>2010-01-01T00:15:00Z</time>
      </trkpt>
      <trkpt lat="43.45473000" lon="-1.53328000">
        <ele>82.600000</ele>
        <time>2010-01-01T00:15:05Z</time>
      </trkpt>
      <trkpt lat="43.45480000" lon="-1.53321000">
        <ele>82.400000</ele>
        <time>2010-01-01T00:15:09Z</time>
      </trkpt>
      <trkpt lat="43.45454000" lon="-1.53278000">
        <ele>82.700000</ele>
        <time>2010-01-01T00:15:25Z</time>
      </trkpt>
      <trkpt lat="43.45276000" lon="-1.53090000">
        <ele>83.000000</ele>
        <time>2010-01-01T00:16:55Z</time>
      </trkpt>
      <trkpt lat="43.45255000" lon="-1.53058990">
        <ele>82.700000</ele>
        <time>2010-01-01T00:17:07Z</time>
      </trkpt>
      <trkpt lat="43.45249000" lon="-1.53029000">
        <ele>82.300000</ele>
        <time>2010-01-01T00:17:16Z</time>
      </trkpt>
      <trkpt lat="43.45249000" lon="-1.52936990">
        <ele>83.500000</ele>
        <time>2010-01-01T00:17:43Z</time>
      </trkpt>
      <trkpt lat="43.45243000" lon="-1.52887000">
        <ele>83.900000</ele>
        <time>2010-01-01T00:17:58Z</time>
      </trkpt>
      <trkpt lat="43.45186000" lon="-1.52726990">
        <ele>82.800000</ele>
        <time>2010-01-01T00:18:50Z</time>
      </trkpt>
      <trkpt lat="43.45173000" lon="-1.52667000">
        <ele>81.800000</ele>
        <time>2010-01-01T00:19:08Z</time>
      </trkpt>
      <trkpt lat="43.45164000" lon="-1.52508000">
        <ele>80.100000</ele>
        <time>2010-01-01T00:19:54Z</time>
      </trkpt>
      <trkpt lat="43.45150000" lon="-1.52423000">
        <ele>81.800000</ele>
        <time>2010-01-01T00:20:19Z</time>
      </trkpt>
      <trkpt lat="43.45116000" lon="-1.52333000">
        <ele>81.400000</ele>
        <time>2010-01-01T00:20:49Z</time>
      </trkpt>
      <trkpt lat="43.45056000" lon="-1.52260000">
        <ele>81.000000</ele>
        <time>2010-01-01T00:21:21Z</time>
      </trkpt>
      <trkpt lat="43.45015990" lon="-1.52234000">
        <ele>82.500000</ele>
        <time>2010-01-01T00:21:39Z</time>
      </trkpt>
      <trkpt lat="43.44966000" lon="-1.52170990">
        <ele>81.000000</ele>
        <time>2010-01-01T00:22:06Z</time>
      </trkpt>
      <trkpt lat="43.44925000" lon="-1.52013000">
        <ele>79.600000</ele>
        <time>2010-01-01T00:22:55Z</time>
      </trkpt>
      <trkpt lat="43.44833000" lon="-1.51821000">
        <ele>81.800000</ele>
        <time>2010-01-01T00:24:01Z</time>
      </trkpt>
      <trkpt lat="43.44844000" lon="-1.51741000">
        <ele>80.500000</ele>
        <time>2010-01-01T00:24:25Z</time>
      </trkpt>
      <trkpt lat="43.44798000" lon="-1.51673000">
        <ele>77.300000</ele>
        <time>2010-01-01T00:24:52Z</time>
      </trkpt>
      <trkpt lat="43.44710000" lon="-1.51621000">
        <ele>75.300000</ele>
        <time>2010-01-01T00:25:30Z</time>
      </trkpt>
      <trkpt lat="43.44686990" lon="-1.51617000">
        <ele>74.900000</ele>
        <time>2010-01-01T00:25:40Z</time>
      </trkpt>
      <trkpt lat="43.44520000" lon="-1.51653000">
        <ele>71.900000</ele>
        <time>2010-01-01T00:26:47Z</time>
      </trkpt>
      <trkpt lat="43.44395000" lon="-1.51668000">
        <ele>69.200000</ele>
        <time>2010-01-01T00:27:38Z</time>
      </trkpt>
      <trkpt lat="43.44306000" lon="-1.51719000">
        <ele>68.500000</ele>
        <time>2010-01-01T00:28:16Z</time>
      </trkpt>
      <trkpt lat="43.44176000" lon="-1.51760990">
        <ele>66.500000</ele>
        <time>2010-01-01T00:29:10Z</time>
      </trkpt>
      <trkpt lat="43.44152000" lon="-1.51780000">
        <ele>66.800000</ele>
        <time>2010-01-01T00:29:21Z</time>
      </trkpt>
      <trkpt lat="43.44082000" lon="-1.51859000">
        <ele>70.700000</ele>
        <time>2010-01-01T00:29:57Z</time>
      </trkpt>
      <trkpt lat="43.44048000" lon="-1.51911000">
        <ele>66.900000</ele>
        <time>2010-01-01T00:30:17Z</time>
      </trkpt>
      <trkpt lat="43.44030000" lon="-1.51929000">
        <ele>66.300000</ele>
        <time>2010-01-01T00:30:26Z</time>
      </trkpt>
      <trkpt lat="43.43972000" lon="-1.51970000">
        <ele>63.600000</ele>
        <time>2010-01-01T00:30:52Z</time>
      </trkpt>
      <trkpt lat="43.43838000" lon="-1.52050000">
        <ele>61.800000</ele>
        <time>2010-01-01T00:31:51Z</time>
      </trkpt>
      <trkpt lat="43.43803000" lon="-1.52060000">
        <ele>64.300000</ele>
        <time>2010-01-01T00:32:05Z</time>
      </trkpt>
      <trkpt lat="43.43551000" lon="-1.51934000">
        <ele>72.700000</ele>
        <time>2010-01-01T00:33:52Z</time>
      </trkpt>
      <trkpt lat="43.43531000" lon="-1.51932000">
        <ele>71.300000</ele>
        <time>2010-01-01T00:34:00Z</time>
      </trkpt>
      <trkpt lat="43.43520000" lon="-1.51946000">
        <ele>69.900000</ele>
        <time>2010-01-01T00:34:06Z</time>
      </trkpt>
      <trkpt lat="43.43503000" lon="-1.51936000">
        <ele>69.100000</ele>
        <time>2010-01-01T00:34:14Z</time>
      </trkpt>
      <trkpt lat="43.43501000" lon="-1.51915000">
        <ele>70.100000</ele>
        <time>2010-01-01T00:34:20Z</time>
      </trkpt>
      <trkpt lat="43.43510000" lon="-1.51906000">
        <ele>70.900000</ele>
        <time>2010-01-01T00:34:24Z</time>
      </trkpt>
      <trkpt lat="43.43503000" lon="-1.51848990">
        <ele>71.800000</ele>
        <time>2010-01-01T00:34:41Z</time>
      </trkpt>
      <trkpt lat="43.43464000" lon="-1.51678000">
        <ele>75.000000</ele>
        <time>2010-01-01T00:35:33Z</time>
      </trkpt>
      <trkpt lat="43.43410990" lon="-1.51516990">
        <ele>73.900000</ele>
        <time>2010-01-01T00:36:25Z</time>
      </trkpt>
      <trkpt lat="43.43363990" lon="-1.51421990">
        <ele>74.600000</ele>
        <time>2010-01-01T00:36:58Z</time>
      </trkpt>
      <trkpt lat="43.43338000" lon="-1.51383000">
        <ele>72.900000</ele>
        <time>2010-01-01T00:37:14Z</time>
      </trkpt>
      <trkpt lat="43.43307000" lon="-1.51356000">
        <ele>71.100000</ele>
        <time>2010-01-01T00:37:28Z</time>
      </trkpt>
      <trkpt lat="43.43282000" lon="-1.51343990">
        <ele>70.400000</ele>
        <time>2010-01-01T00:37:39Z</time>
      </trkpt>
      <trkpt lat="43.43260990" lon="-1.51343000">
        <ele>70.600000</ele>
        <time>2010-01-01T00:37:47Z</time>
      </trkpt>
      <trkpt lat="43.43195000" lon="-1.51363000">
        <ele>70.600000</ele>
        <time>2010-01-01T00:38:14Z</time>
      </trkpt>
      <trkpt lat="43.43160000" lon="-1.51364000">
        <ele>70.200000</ele>
        <time>2010-01-01T00:38:28Z</time>
      </trkpt>
      <trkpt lat="43.43063990" lon="-1.51332000">
        <ele>71.800000</ele>
        <time>2010-01-01T00:39:08Z</time>
      </trkpt>
      <trkpt lat="43.42981000" lon="-1.51326990">
        <ele>72.100000</ele>
        <time>2010-01-01T00:39:41Z</time>
      </trkpt>
      <trkpt lat="43.42960000" lon="-1.51336000">
        <ele>72.800000</ele>
        <time>2010-01-01T00:39:50Z</time>
      </trkpt>
      <trkpt lat="43.42940000" lon="-1.51355000">
        <ele>72.000000</ele>
        <time>2010-01-01T00:40:00Z</time>
      </trkpt>
      <trkpt lat="43.42909000" lon="-1.51416000">
        <ele>68.100000</ele>
        <time>2010-01-01T00:40:21Z</time>
      </trkpt>
      <trkpt lat="43.42892000" lon="-1.51434000">
        <ele>67.500000</ele>
        <time>2010-01-01T00:40:30Z</time>
      </trkpt>
      <trkpt lat="43.42866990" lon="-1.51445000">
        <ele>67.700000</ele>
        <time>2010-01-01T00:40:40Z</time>
      </trkpt>
      <trkpt lat="43.42816000" lon="-1.51440000">
        <ele>68.800000</ele>
        <time>2010-01-01T00:41:01Z</time>
      </trkpt>
      <trkpt lat="43.42777000" lon="-1.51416000">
        <ele>69.000000</ele>
        <time>2010-01-01T00:41:18Z</time>
      </trkpt>
      <trkpt lat="43.42742000" lon="-1.51381000">
        <ele>68.200000</ele>
        <time>2010-01-01T00:41:35Z</time>
      </trkpt>
      <trkpt lat="43.42725000" lon="-1.51336000">
        <ele>67.600000</ele>
        <time>2010-01-01T00:41:50Z</time>
      </trkpt>
      <trkpt lat="43.42695000" lon="-1.51179000">
        <ele>60.600000</ele>
        <time>2010-01-01T00:42:37Z</time>
      </trkpt>
      <trkpt lat="43.42688000" lon="-1.51156000">
        <ele>59.500000</ele>
        <time>2010-01-01T00:42:44Z</time>
      </trkpt>
      <trkpt lat="43.42668000" lon="-1.51135000">
        <ele>58.900000</ele>
        <time>2010-01-01T00:42:54Z</time>
      </trkpt>
      <trkpt lat="43.42654000" lon="-1.51133990">
        <ele>58.000000</ele>
        <time>2010-01-01T00:43:00Z</time>
      </trkpt>
      <trkpt lat="43.42638000" lon="-1.51143000">
        <ele>57.700000</ele>
        <time>2010-01-01T00:43:07Z</time>
      </trkpt>
      <trkpt lat="43.42575990" lon="-1.51221990">
        <ele>57.300000</ele>
        <time>2010-01-01T00:43:41Z</time>
      </trkpt>
      <trkpt lat="43.42559000" lon="-1.51233000">
        <ele>56.900000</ele>
        <time>2010-01-01T00:43:48Z</time>
      </trkpt>
      <trkpt lat="43.42541000" lon="-1.51234000">
        <ele>56.000000</ele>
        <time>2010-01-01T00:43:56Z</time>
      </trkpt>
      <trkpt lat="43.42525000" lon="-1.51224000">
        <ele>54.900000</ele>
        <time>2010-01-01T00:44:03Z</time>
      </trkpt>
      <trkpt lat="43.42355000" lon="-1.51057000">
        <ele>58.200000</ele>
        <time>2010-01-01T00:45:26Z</time>
      </trkpt>
      <trkpt lat="43.42235000" lon="-1.51004990">
        <ele>60.700000</ele>
        <time>2010-01-01T00:46:17Z</time>
      </trkpt>
      <trkpt lat="43.42201000" lon="-1.50980000">
        <ele>60.800000</ele>
        <time>2010-01-01T00:46:32Z</time>
      </trkpt>
      <trkpt lat="43.42160000" lon="-1.50931000">
        <ele>61.000000</ele>
        <time>2010-01-01T00:46:54Z</time>
      </trkpt>
      <trkpt lat="43.42096000" lon="-1.50782000">
        <ele>60.700000</ele>
        <time>2010-01-01T00:47:44Z</time>
      </trkpt>
      <trkpt lat="43.42073000" lon="-1.50760000">
        <ele>60.400000</ele>
        <time>2010-01-01T00:47:55Z</time>
      </trkpt>
      <trkpt lat="43.42049000" lon="-1.50760000">
        <ele>60.300000</ele>
        <time>2010-01-01T00:48:05Z</time>
      </trkpt>
      <trkpt lat="43.41975000" lon="-1.50816000">
        <ele>66.200000</ele>
        <time>2010-01-01T00:48:39Z</time>
      </trkpt>
      <trkpt lat="43.41955000" lon="-1.50825000">
        <ele>67.200000</ele>
        <time>2010-01-01T00:48:47Z</time>
      </trkpt>
      <trkpt lat="43.41941000" lon="-1.50823000">
        <ele>67.000000</ele>
        <time>2010-01-01T00:48:53Z</time>
      </trkpt>
      <trkpt lat="43.41918000" lon="-1.50806000">
        <ele>65.400000</ele>
        <time>2010-01-01T00:49:03Z</time>
      </trkpt>
      <trkpt lat="43.41851000" lon="-1.50706000">
        <ele>65.700000</ele>
        <time>2010-01-01T00:49:43Z</time>
      </trkpt>
      <trkpt lat="43.41830000" lon="-1.50685000">
        <ele>66.500000</ele>
        <time>2010-01-01T00:49:53Z</time>
      </trkpt>
      <trkpt lat="43.41749990" lon="-1.50647000">
        <ele>67.300000</ele>
        <time>2010-01-01T00:50:27Z</time>
      </trkpt>
      <trkpt lat="43.41730000" lon="-1.50644000">
        <ele>66.800000</ele>
        <time>2010-01-01T00:50:35Z</time>
      </trkpt>
      <trkpt lat="43.41677000" lon="-1.50651000">
        <ele>66.400000</ele>
        <time>2010-01-01T00:50:56Z</time>
      </trkpt>
      <trkpt lat="43.41637000" lon="-1.50618000">
        <ele>65.300000</ele>
        <time>2010-01-01T00:51:15Z</time>
      </trkpt>
      <trkpt lat="43.41618000" lon="-1.50614000">
        <ele>65.500000</ele>
        <time>2010-01-01T00:51:23Z</time>
      </trkpt>
      <trkpt lat="43.41550000" lon="-1.50644000">
        <ele>67.900000</ele>
        <time>2010-01-01T00:51:51Z</time>
      </trkpt>
      <trkpt lat="43.41466000" lon="-1.50624000">
        <ele>67.300000</ele>
        <time>2010-01-01T00:52:25Z</time>
      </trkpt>
      <trkpt lat="43.41384000" lon="-1.50615000">
        <ele>70.200000</ele>
        <time>2010-01-01T00:52:58Z</time>
      </trkpt>
      <trkpt lat="43.41355990" lon="-1.50593000">
        <ele>70.400000</ele>
        <time>2010-01-01T00:53:11Z</time>
      </trkpt>
      <trkpt lat="43.41323000" lon="-1.50554000">
        <ele>70.500000</ele>
        <time>2010-01-01T00:53:29Z</time>
      </trkpt>
      <trkpt lat="43.41265000" lon="-1.50466000">
        <ele>73.600000</ele>
        <time>2010-01-01T00:54:03Z</time>
      </trkpt>
      <trkpt lat="43.41234000" lon="-1.50436000">
        <ele>75.200000</ele>
        <time>2010-01-01T00:54:18Z</time>
      </trkpt>
      <trkpt lat="43.41214990" lon="-1.50436000">
        <ele>74.500000</ele>
        <time>2010-01-01T00:54:26Z</time>
      </trkpt>
      <trkpt lat="43.41196990" lon="-1.50447000">
        <ele>73.700000</ele>
        <time>2010-01-01T00:54:34Z</time>
      </trkpt>
      <trkpt lat="43.41163000" lon="-1.50503000">
        <ele>71.800000</ele>
        <time>2010-01-01T00:54:55Z</time>
      </trkpt>
      <trkpt lat="43.41111990" lon="-1.50522000">
        <ele>70.300000</ele>
        <time>2010-01-01T00:55:16Z</time>
      </trkpt>
      <trkpt lat="43.41002000" lon="-1.50586000">
        <ele>70.900000</ele>
        <time>2010-01-01T00:56:04Z</time>
      </trkpt>
      <trkpt lat="43.40958000" lon="-1.50645000">
        <ele>73.100000</ele>
        <time>2010-01-01T00:56:29Z</time>
      </trkpt>
      <trkpt lat="43.40941000" lon="-1.50655990">
        <ele>74.600000</ele>
        <time>2010-01-01T00:56:36Z</time>
      </trkpt>
      <trkpt lat="43.40925000" lon="-1.50658000">
        <ele>75.900000</ele>
        <time>2010-01-01T00:56:43Z</time>
      </trkpt>
      <trkpt lat="43.40911000" lon="-1.50655990">
        <ele>76.800000</ele>
        <time>2010-01-01T00:56:48Z</time>
      </trkpt>
      <trkpt lat="43.40900000" lon="-1.50645000">
        <ele>76.900000</ele>
        <time>2010-01-01T00:56:54Z</time>
      </trkpt>
      <trkpt lat="43.40849990" lon="-1.50577990">
        <ele>77.700000</ele>
        <time>2010-01-01T00:57:22Z</time>
      </trkpt>
      <trkpt lat="43.40791000" lon="-1.50543000">
        <ele>80.800000</ele>
        <time>2010-01-01T00:57:47Z</time>
      </trkpt>
      <trkpt lat="43.40782000" lon="-1.50521000">
        <ele>81.500000</ele>
        <time>2010-01-01T00:57:55Z</time>
      </trkpt>
      <trkpt lat="43.40778000" lon="-1.50478000">
        <ele>80.700000</ele>
        <time>2010-01-01T00:58:07Z</time>
      </trkpt>
      <trkpt lat="43.40764990" lon="-1.50451000">
        <ele>80.200000</ele>
        <time>2010-01-01T00:58:17Z</time>
      </trkpt>
      <trkpt lat="43.40696000" lon="-1.50408000">
        <ele>83.700000</ele>
        <time>2010-01-01T00:58:47Z</time>
      </trkpt>
      <trkpt lat="43.40648000" lon="-1.50390000">
        <ele>87.000000</ele>
        <time>2010-01-01T00:59:07Z</time>
      </trkpt>
      <trkpt lat="43.40574000" lon="-1.50400000">
        <ele>90.400000</ele>
        <time>2010-01-01T00:59:37Z</time>
      </trkpt>
      <trkpt lat="43.40549000" lon="-1.50417000">
        <ele>90.600000</ele>
        <time>2010-01-01T00:59:48Z</time>
      </trkpt>
      <trkpt lat="43.40522000" lon="-1.50462000">
        <ele>88.800000</ele>
        <time>2010-01-01T01:00:05Z</time>
      </trkpt>
      <trkpt lat="43.40501000" lon="-1.50478000">
        <ele>89.200000</ele>
        <time>2010-01-01T01:00:14Z</time>
      </trkpt>
      <trkpt lat="43.40478000" lon="-1.50474000">
        <ele>89.200000</ele>
        <time>2010-01-01T01:00:24Z</time>
      </trkpt>
      <trkpt lat="43.40440000" lon="-1.50427000">
        <ele>92.200000</ele>
        <time>2010-01-01T01:00:44Z</time>
      </trkpt>
      <trkpt lat="43.40417990" lon="-1.50418000">
        <ele>92.900000</ele>
        <time>2010-01-01T01:00:53Z</time>
      </trkpt>
      <trkpt lat="43.40394000" lon="-1.50428990">
        <ele>92.900000</ele>
        <time>2010-01-01T01:01:03Z</time>
      </trkpt>
      <trkpt lat="43.40343000" lon="-1.50480000">
        <ele>93.000000</ele>
        <time>2010-01-01T01:01:29Z</time>
      </trkpt>
      <trkpt lat="43.40278000" lon="-1.50642000">
        <ele>86.500000</ele>
        <time>2010-01-01T01:02:23Z</time>
      </trkpt>
      <trkpt lat="43.40160000" lon="-1.50739000">
        <ele>84.600000</ele>
        <time>2010-01-01T01:03:18Z</time>
      </trkpt>
      <trkpt lat="43.40137000" lon="-1.50742000">
        <ele>83.700000</ele>
        <time>2010-01-01T01:03:27Z</time>
      </trkpt>
      <trkpt lat="43.40115000" lon="-1.50732000">
        <ele>83.100000</ele>
        <time>2010-01-01T01:03:36Z</time>
      </trkpt>
      <trkpt lat="43.39932000" lon="-1.50604000">
        <ele>84.400000</ele>
        <time>2010-01-01T01:04:58Z</time>
      </trkpt>
      <trkpt lat="43.39905000" lon="-1.50596000">
        <ele>85.400000</ele>
        <time>2010-01-01T01:05:09Z</time>
      </trkpt>
      <trkpt lat="43.39878000" lon="-1.50597000">
        <ele>86.300000</ele>
        <time>2010-01-01T01:05:20Z</time>
      </trkpt>
      <trkpt lat="43.39841000" lon="-1.50615000">
        <ele>86.400000</ele>
        <time>2010-01-01T01:05:36Z</time>
      </trkpt>
      <trkpt lat="43.39666000" lon="-1.50787000">
        <ele>92.100000</ele>
        <time>2010-01-01T01:07:02Z</time>
      </trkpt>
      <trkpt lat="43.39553990" lon="-1.50874000">
        <ele>92.600000</ele>
        <time>2010-01-01T01:07:53Z</time>
      </trkpt>
      <trkpt lat="43.39406000" lon="-1.50921000">
        <ele>96.900000</ele>
        <time>2010-01-01T01:08:54Z</time>
      </trkpt>
      <trkpt lat="43.39349000" lon="-1.50931000">
        <ele>97.600000</ele>
        <time>2010-01-01T01:09:17Z</time>
      </trkpt>
      <trkpt lat="43.39227000" lon="-1.50923000">
        <ele>101.70000</ele>
        <time>2010-01-01T01:10:06Z</time>
      </trkpt>
      <trkpt lat="43.39031000" lon="-1.50928000">
        <ele>104.00000</ele>
        <time>2010-01-01T01:11:25Z</time>
      </trkpt>
      <trkpt lat="43.38915000" lon="-1.50896000">
        <ele>105.50000</ele>
        <time>2010-01-01T01:12:12Z</time>
      </trkpt>
      <trkpt lat="43.38882000" lon="-1.50867000">
        <ele>106.20000</ele>
        <time>2010-01-01T01:12:28Z</time>
      </trkpt>
      <trkpt lat="43.38782000" lon="-1.50689990">
        <ele>117.20000</ele>
        <time>2010-01-01T01:13:33Z</time>
      </trkpt>
      <trkpt lat="43.38749000" lon="-1.50648000">
        <ele>118.40000</ele>
        <time>2010-01-01T01:13:51Z</time>
      </trkpt>
      <trkpt lat="43.38727000" lon="-1.50634000">
        <ele>118.30000</ele>
        <time>2010-01-01T01:14:01Z</time>
      </trkpt>
      <trkpt lat="43.38665000" lon="-1.50611000">
        <ele>121.10000</ele>
        <time>2010-01-01T01:14:26Z</time>
      </trkpt>
      <trkpt lat="43.38613000" lon="-1.50576000">
        <ele>120.50000</ele>
        <time>2010-01-01T01:14:49Z</time>
      </trkpt>
      <trkpt lat="43.38592000" lon="-1.50573000">
        <ele>121.40000</ele>
        <time>2010-01-01T01:14:58Z</time>
      </trkpt>
      <trkpt lat="43.38538000" lon="-1.50586000">
        <ele>125.30000</ele>
        <time>2010-01-01T01:15:20Z</time>
      </trkpt>
      <trkpt lat="43.38501000" lon="-1.50577000">
        <ele>126.30000</ele>
        <time>2010-01-01T01:15:35Z</time>
      </trkpt>
      <trkpt lat="43.38308000" lon="-1.50471000">
        <ele>126.50000</ele>
        <time>2010-01-01T01:16:58Z</time>
      </trkpt>
      <trkpt lat="43.38142000" lon="-1.50430000">
        <ele>127.10000</ele>
        <time>2010-01-01T01:18:06Z</time>
      </trkpt>
      <trkpt lat="43.38003000" lon="-1.50436000">
        <ele>127.50000</ele>
        <time>2010-01-01T01:19:01Z</time>
      </trkpt>
      <trkpt lat="43.37948990" lon="-1.50455990">
        <ele>129.20000</ele>
        <time>2010-01-01T01:19:24Z</time>
      </trkpt>
      <trkpt lat="43.37900000" lon="-1.50438000">
        <ele>128.80000</ele>
        <time>2010-01-01T01:19:44Z</time>
      </trkpt>
      <trkpt lat="43.37876000" lon="-1.50441000">
        <ele>127.70000</ele>
        <time>2010-01-01T01:19:54Z</time>
      </trkpt>
      <trkpt lat="43.37864000" lon="-1.50471000">
        <ele>127.20000</ele>
        <time>2010-01-01T01:20:03Z</time>
      </trkpt>
      <trkpt lat="43.37873000" lon="-1.50567000">
        <ele>127.50000</ele>
        <time>2010-01-01T01:20:32Z</time>
      </trkpt>
      <trkpt lat="43.37849000" lon="-1.50817000">
        <ele>132.30000</ele>
        <time>2010-01-01T01:21:45Z</time>
      </trkpt>
      <trkpt lat="43.37788000" lon="-1.50960000">
        <ele>133.70000</ele>
        <time>2010-01-01T01:22:33Z</time>
      </trkpt>
      <trkpt lat="43.37731000" lon="-1.51041000">
        <ele>136.40000</ele>
        <time>2010-01-01T01:23:06Z</time>
      </trkpt>
      <trkpt lat="43.37697000" lon="-1.51121000">
        <ele>136.40000</ele>
        <time>2010-01-01T01:23:33Z</time>
      </trkpt>
      <trkpt lat="43.37670000" lon="-1.51150000">
        <ele>135.90000</ele>
        <time>2010-01-01T01:23:47Z</time>
      </trkpt>
      <trkpt lat="43.37642000" lon="-1.51153000">
        <ele>135.10000</ele>
        <time>2010-01-01T01:23:58Z</time>
      </trkpt>
      <trkpt lat="43.37603000" lon="-1.51135000">
        <ele>135.80000</ele>
        <time>2010-01-01T01:24:14Z</time>
      </trkpt>
      <trkpt lat="43.37551000" lon="-1.51128000">
        <ele>136.30000</ele>
        <time>2010-01-01T01:24:35Z</time>
      </trkpt>
      <trkpt lat="43.37513000" lon="-1.51142000">
        <ele>135.70000</ele>
        <time>2010-01-01T01:24:51Z</time>
      </trkpt>
      <trkpt lat="43.37496000" lon="-1.51162000">
        <ele>135.10000</ele>
        <time>2010-01-01T01:25:00Z</time>
      </trkpt>
      <trkpt lat="43.37470000" lon="-1.51204000">
        <ele>132.80000</ele>
        <time>2010-01-01T01:25:16Z</time>
      </trkpt>
      <trkpt lat="43.37455000" lon="-1.51248990">
        <ele>131.80000</ele>
        <time>2010-01-01T01:25:31Z</time>
      </trkpt>
      <trkpt lat="43.37430000" lon="-1.51520000">
        <ele>134.10000</ele>
        <time>2010-01-01T01:26:50Z</time>
      </trkpt>
      <trkpt lat="43.37418000" lon="-1.51577000">
        <ele>134.90000</ele>
        <time>2010-01-01T01:27:07Z</time>
      </trkpt>
      <trkpt lat="43.37404990" lon="-1.51598000">
        <ele>134.20000</ele>
        <time>2010-01-01T01:27:15Z</time>
      </trkpt>
      <trkpt lat="43.37386990" lon="-1.51611000">
        <ele>134.10000</ele>
        <time>2010-01-01T01:27:23Z</time>
      </trkpt>
      <trkpt lat="43.37310990" lon="-1.51637000">
        <ele>136.80000</ele>
        <time>2010-01-01T01:27:55Z</time>
      </trkpt>
      <trkpt lat="43.37286000" lon="-1.51651000">
        <ele>137.10000</ele>
        <time>2010-01-01T01:28:06Z</time>
      </trkpt>
      <trkpt lat="43.37259000" lon="-1.51691000">
        <ele>137.90000</ele>
        <time>2010-01-01T01:28:21Z</time>
      </trkpt>
      <trkpt lat="43.37230000" lon="-1.51801000">
        <ele>139.30000</ele>
        <time>2010-01-01T01:28:56Z</time>
      </trkpt>
      <trkpt lat="43.37229000" lon="-1.51845000">
        <ele>139.40000</ele>
        <time>2010-01-01T01:29:08Z</time>
      </trkpt>
      <trkpt lat="43.37267000" lon="-1.51960000">
        <ele>137.80000</ele>
        <time>2010-01-01T01:29:45Z</time>
      </trkpt>
      <trkpt lat="43.37290000" lon="-1.52072000">
        <ele>137.80000</ele>
        <time>2010-01-01T01:30:19Z</time>
      </trkpt>
      <trkpt lat="43.37288000" lon="-1.52105000">
        <ele>137.90000</ele>
        <time>2010-01-01T01:30:29Z</time>
      </trkpt>
      <trkpt lat="43.37263990" lon="-1.52168000">
        <ele>139.00000</ele>
        <time>2010-01-01T01:30:49Z</time>
      </trkpt>
      <trkpt lat="43.37254000" lon="-1.52187000">
        <ele>138.00000</ele>
        <time>2010-01-01T01:30:56Z</time>
      </trkpt>
      <trkpt lat="43.37180000" lon="-1.52275990">
        <ele>134.20000</ele>
        <time>2010-01-01T01:31:35Z</time>
      </trkpt>
      <trkpt lat="43.37135000" lon="-1.52309990">
        <ele>137.30000</ele>
        <time>2010-01-01T01:31:56Z</time>
      </trkpt>
      <trkpt lat="43.37092000" lon="-1.52331000">
        <ele>141.90000</ele>
        <time>2010-01-01T01:32:14Z</time>
      </trkpt>
      <trkpt lat="43.37078000" lon="-1.52345000">
        <ele>143.10000</ele>
        <time>2010-01-01T01:32:21Z</time>
      </trkpt>
      <trkpt lat="43.37072000" lon="-1.52372000">
        <ele>142.80000</ele>
        <time>2010-01-01T01:32:29Z</time>
      </trkpt>
      <trkpt lat="43.37066000" lon="-1.52495000">
        <ele>141.10000</ele>
        <time>2010-01-01T01:33:05Z</time>
      </trkpt>
      <trkpt lat="43.37051000" lon="-1.52541000">
        <ele>140.90000</ele>
        <time>2010-01-01T01:33:20Z</time>
      </trkpt>
      <trkpt lat="43.37038000" lon="-1.52558000">
        <ele>140.90000</ele>
        <time>2010-01-01T01:33:27Z</time>
      </trkpt>
      <trkpt lat="43.37010990" lon="-1.52582000">
        <ele>140.80000</ele>
        <time>2010-01-01T01:33:40Z</time>
      </trkpt>
      <trkpt lat="43.36945000" lon="-1.52614990">
        <ele>141.20000</ele>
        <time>2010-01-01T01:34:08Z</time>
      </trkpt>
      <trkpt lat="43.36903000" lon="-1.52654000">
        <ele>140.20000</ele>
        <time>2010-01-01T01:34:28Z</time>
      </trkpt>
      <trkpt lat="43.36885000" lon="-1.52658000">
        <ele>139.30000</ele>
        <time>2010-01-01T01:34:36Z</time>
      </trkpt>
      <trkpt lat="43.36860990" lon="-1.52648000">
        <ele>138.80000</ele>
        <time>2010-01-01T01:34:46Z</time>
      </trkpt>
      <trkpt lat="43.36845000" lon="-1.52634000">
        <ele>138.70000</ele>
        <time>2010-01-01T01:34:53Z</time>
      </trkpt>
      <trkpt lat="43.36835000" lon="-1.52613000">
        <ele>139.00000</ele>
        <time>2010-01-01T01:35:01Z</time>
      </trkpt>
      <trkpt lat="43.36841000" lon="-1.52536000">
        <ele>140.80000</ele>
        <time>2010-01-01T01:35:23Z</time>
      </trkpt>
      <trkpt lat="43.36831000" lon="-1.52464000">
        <ele>140.90000</ele>
        <time>2010-01-01T01:35:45Z</time>
      </trkpt>
      <trkpt lat="43.36777000" lon="-1.52328000">
        <ele>142.90000</ele>
        <time>2010-01-01T01:36:30Z</time>
      </trkpt>
      <trkpt lat="43.36765000" lon="-1.52325000">
        <ele>141.60000</ele>
        <time>2010-01-01T01:36:34Z</time>
      </trkpt>
      <trkpt lat="43.36708000" lon="-1.52363000">
        <ele>136.80000</ele>
        <time>2010-01-01T01:37:00Z</time>
      </trkpt>
      <trkpt lat="43.36671000" lon="-1.52369000">
        <ele>137.80000</ele>
        <time>2010-01-01T01:37:15Z</time>
      </trkpt>
      <trkpt lat="43.36635000" lon="-1.52397000">
        <ele>133.90000</ele>
        <time>2010-01-01T01:37:31Z</time>
      </trkpt>
      <trkpt lat="43.36613000" lon="-1.52399000">
        <ele>132.50000</ele>
        <time>2010-01-01T01:37:40Z</time>
      </trkpt>
      <trkpt lat="43.36595000" lon="-1.52379000">
        <ele>132.60000</ele>
        <time>2010-01-01T01:37:49Z</time>
      </trkpt>
      <trkpt lat="43.36550000" lon="-1.52284000">
        <ele>134.10000</ele>
        <time>2010-01-01T01:38:22Z</time>
      </trkpt>
      <trkpt lat="43.36522000" lon="-1.52273000">
        <ele>132.70000</ele>
        <time>2010-01-01T01:38:34Z</time>
      </trkpt>
      <trkpt lat="43.36555000" lon="-1.52089000">
        <ele>135.90000</ele>
        <time>2010-01-01T01:39:29Z</time>
      </trkpt>
      <trkpt lat="43.36560990" lon="-1.52036000">
        <ele>136.30000</ele>
        <time>2010-01-01T01:39:45Z</time>
      </trkpt>
      <trkpt lat="43.36558000" lon="-1.52006000">
        <ele>135.60000</ele>
        <time>2010-01-01T01:39:54Z</time>
      </trkpt>
      <trkpt lat="43.36547000" lon="-1.51983000">
        <ele>133.80000</ele>
        <time>2010-01-01T01:40:02Z</time>
      </trkpt>
      <trkpt lat="43.36469000" lon="-1.51892990">
        <ele>126.50000</ele>
        <time>2010-01-01T01:40:42Z</time>
      </trkpt>
      <trkpt lat="43.36368000" lon="-1.51686000">
        <ele>114.10000</ele>
        <time>2010-01-01T01:41:55Z</time>
      </trkpt>
      <trkpt lat="43.36320000" lon="-1.51614000">
        <ele>112.30000</ele>
        <time>2010-01-01T01:42:23Z</time>
      </trkpt>
      <trkpt lat="43.36181000" lon="-1.51472000">
        <ele>104.60000</ele>
        <time>2010-01-01T01:43:33Z</time>
      </trkpt>
      <trkpt lat="43.36031000" lon="-1.51352000">
        <ele>116.60000</ele>
        <time>2010-01-01T01:44:42Z</time>
      </trkpt>
      <trkpt lat="43.36009000" lon="-1.51353000">
        <ele>116.40000</ele>
        <time>2010-01-01T01:44:51Z</time>
      </trkpt>
      <trkpt lat="43.35947000" lon="-1.51377990">
        <ele>113.70000</ele>
        <time>2010-01-01T01:45:17Z</time>
      </trkpt>
      <trkpt lat="43.35927000" lon="-1.51377000">
        <ele>113.50000</ele>
        <time>2010-01-01T01:45:25Z</time>
      </trkpt>
      <trkpt lat="43.35884990" lon="-1.51338000">
        <ele>114.10000</ele>
        <time>2010-01-01T01:45:45Z</time>
      </trkpt>
      <trkpt lat="43.35850000" lon="-1.51326000">
        <ele>113.10000</ele>
        <time>2010-01-01T01:46:00Z</time>
      </trkpt>
      <trkpt lat="43.35828000" lon="-1.51336000">
        <ele>111.10000</ele>
        <time>2010-01-01T01:46:09Z</time>
      </trkpt>
      <trkpt lat="43.35802000" lon="-1.51360990">
        <ele>106.00000</ele>
        <time>2010-01-01T01:46:22Z</time>
      </trkpt>
      <trkpt lat="43.35799990" lon="-1.51305000">
        <ele>110.70000</ele>
        <time>2010-01-01T01:46:38Z</time>
      </trkpt>
      <trkpt lat="43.35785000" lon="-1.51257000">
        <ele>113.20000</ele>
        <time>2010-01-01T01:46:53Z</time>
      </trkpt>
      <trkpt lat="43.35676000" lon="-1.51028000">
        <ele>105.50000</ele>
        <time>2010-01-01T01:48:13Z</time>
      </trkpt>
      <trkpt lat="43.35655000" lon="-1.50994990">
        <ele>106.30000</ele>
        <time>2010-01-01T01:48:25Z</time>
      </trkpt>
      <trkpt lat="43.35626000" lon="-1.50964000">
        <ele>106.70000</ele>
        <time>2010-01-01T01:48:40Z</time>
      </trkpt>
      <trkpt lat="43.35535000" lon="-1.50916990">
        <ele>114.70000</ele>
        <time>2010-01-01T01:49:19Z</time>
      </trkpt>
      <trkpt lat="43.35501000" lon="-1.50881000">
        <ele>116.00000</ele>
        <time>2010-01-01T01:49:36Z</time>
      </trkpt>
      <trkpt lat="43.35481000" lon="-1.50823000">
        <ele>113.40000</ele>
        <time>2010-01-01T01:49:55Z</time>
      </trkpt>
      <trkpt lat="43.35474000" lon="-1.50777000">
        <ele>110.60000</ele>
        <time>2010-01-01T01:50:09Z</time>
      </trkpt>
      <trkpt lat="43.35493000" lon="-1.50518000">
        <ele>110.60000</ele>
        <time>2010-01-01T01:51:24Z</time>
      </trkpt>
      <trkpt lat="43.35486000" lon="-1.50417000">
        <ele>108.10000</ele>
        <time>2010-01-01T01:51:54Z</time>
      </trkpt>
      <trkpt lat="43.35452000" lon="-1.50289990">
        <ele>105.50000</ele>
        <time>2010-01-01T01:52:33Z</time>
      </trkpt>
      <trkpt lat="43.35428000" lon="-1.50112000">
        <ele>105.40000</ele>
        <time>2010-01-01T01:53:26Z</time>
      </trkpt>
      <trkpt lat="43.35416000" lon="-1.50065000">
        <ele>106.00000</ele>
        <time>2010-01-01T01:53:41Z</time>
      </trkpt>
      <trkpt lat="43.35392000" lon="-1.50008000">
        <ele>106.40000</ele>
        <time>2010-01-01T01:54:00Z</time>
      </trkpt>
      <trkpt lat="43.35362000" lon="-1.49975000">
        <ele>106.40000</ele>
        <time>2010-01-01T01:54:15Z</time>
      </trkpt>
      <trkpt lat="43.35335000" lon="-1.49919000">
        <ele>108.10000</ele>
        <time>2010-01-01T01:54:35Z</time>
      </trkpt>
      <trkpt lat="43.35305000" lon="-1.49893000">
        <ele>109.90000</ele>
        <time>2010-01-01T01:54:49Z</time>
      </trkpt>
      <trkpt lat="43.35214000" lon="-1.49841000">
        <ele>111.60000</ele>
        <time>2010-01-01T01:55:28Z</time>
      </trkpt>
      <trkpt lat="43.35105990" lon="-1.49827000">
        <ele>112.20000</ele>
        <time>2010-01-01T01:56:12Z</time>
      </trkpt>
      <trkpt lat="43.35056000" lon="-1.49797000">
        <ele>109.60000</ele>
        <time>2010-01-01T01:56:34Z</time>
      </trkpt>
      <trkpt lat="43.34997000" lon="-1.49722000">
        <ele>107.60000</ele>
        <time>2010-01-01T01:57:06Z</time>
      </trkpt>
      <trkpt lat="43.34786000" lon="-1.49420000">
        <ele>94.800000</ele>
        <time>2010-01-01T01:59:08Z</time>
      </trkpt>
      <trkpt lat="43.34758000" lon="-1.49394000">
        <ele>94.400000</ele>
        <time>2010-01-01T01:59:21Z</time>
      </trkpt>
      <trkpt lat="43.34603000" lon="-1.49311000">
        <ele>103.20000</ele>
        <time>2010-01-01T02:00:28Z</time>
      </trkpt>
      <trkpt lat="43.34467990" lon="-1.49096990">
        <ele>98.900000</ele>
        <time>2010-01-01T02:01:50Z</time>
      </trkpt>
      <trkpt lat="43.34404000" lon="-1.49017000">
        <ele>96.500000</ele>
        <time>2010-01-01T02:02:25Z</time>
      </trkpt>
      <trkpt lat="43.34362000" lon="-1.48980000">
        <ele>93.900000</ele>
        <time>2010-01-01T02:02:45Z</time>
      </trkpt>
      <trkpt lat="43.34302000" lon="-1.48635990">
        <ele>75.400000</ele>
        <time>2010-01-01T02:04:28Z</time>
      </trkpt>
      <trkpt lat="43.34223000" lon="-1.48299000">
        <ele>88.600000</ele>
        <time>2010-01-01T02:06:11Z</time>
      </trkpt>
      <trkpt lat="43.34182000" lon="-1.48052000">
        <ele>95.300000</ele>
        <time>2010-01-01T02:07:25Z</time>
      </trkpt>
      <trkpt lat="43.34180000" lon="-1.48011000">
        <ele>97.300000</ele>
        <time>2010-01-01T02:07:37Z</time>
      </trkpt>
      <trkpt lat="43.34172000" lon="-1.48000000">
        <ele>97.900000</ele>
        <time>2010-01-01T02:07:41Z</time>
      </trkpt>
      <trkpt lat="43.34176000" lon="-1.47990000">
        <ele>97.500000</ele>
        <time>2010-01-01T02:07:44Z</time>
      </trkpt>
      <trkpt lat="43.34167990" lon="-1.47966000">
        <ele>96.700000</ele>
        <time>2010-01-01T02:07:52Z</time>
      </trkpt>
      <trkpt lat="43.34165000" lon="-1.47913000">
        <ele>94.600000</ele>
        <time>2010-01-01T02:08:08Z</time>
      </trkpt>
      <trkpt lat="43.34150000" lon="-1.47867000">
        <ele>90.200000</ele>
        <time>2010-01-01T02:08:22Z</time>
      </trkpt>
      <trkpt lat="43.34117000" lon="-1.47811000">
        <ele>84.400000</ele>
        <time>2010-01-01T02:08:43Z</time>
      </trkpt>
      <trkpt lat="43.34106000" lon="-1.47702000">
        <ele>73.700000</ele>
        <time>2010-01-01T02:09:15Z</time>
      </trkpt>
      <trkpt lat="43.34103000" lon="-1.47546000">
        <ele>66.800000</ele>
        <time>2010-01-01T02:10:01Z</time>
      </trkpt>
      <trkpt lat="43.34088000" lon="-1.47540000">
        <ele>65.700000</ele>
        <time>2010-01-01T02:10:07Z</time>
      </trkpt>
      <trkpt lat="43.34078000" lon="-1.47544000">
        <ele>66.000000</ele>
        <time>2010-01-01T02:10:11Z</time>
      </trkpt>
      <trkpt lat="43.34071000" lon="-1.47533000">
        <ele>66.100000</ele>
        <time>2010-01-01T02:10:15Z</time>
      </trkpt>
      <trkpt lat="43.34082000" lon="-1.47503000">
        <ele>63.400000</ele>
        <time>2010-01-01T02:10:25Z</time>
      </trkpt>
      <trkpt lat="43.34086000" lon="-1.47450000">
        <ele>64.400000</ele>
        <time>2010-01-01T02:10:41Z</time>
      </trkpt>
      <trkpt lat="43.34072000" lon="-1.47303000">
        <ele>65.400000</ele>
        <time>2010-01-01T02:11:24Z</time>
      </trkpt>
      <trkpt lat="43.34063000" lon="-1.47289000">
        <ele>66.300000</ele>
        <time>2010-01-01T02:11:29Z</time>
      </trkpt>
      <trkpt lat="43.34069000" lon="-1.47272000">
        <ele>64.500000</ele>
        <time>2010-01-01T02:11:35Z</time>
      </trkpt>
      <trkpt lat="43.34033000" lon="-1.47183000">
        <ele>64.600000</ele>
        <time>2010-01-01T02:12:04Z</time>
      </trkpt>
      <trkpt lat="43.33965000" lon="-1.47046000">
        <ele>63.200000</ele>
        <time>2010-01-01T02:12:53Z</time>
      </trkpt>
      <trkpt lat="43.33885990" lon="-1.46959000">
        <ele>64.500000</ele>
        <time>2010-01-01T02:13:33Z</time>
      </trkpt>
      <trkpt lat="43.33766000" lon="-1.46880000">
        <ele>67.200000</ele>
        <time>2010-01-01T02:14:26Z</time>
      </trkpt>
      <trkpt lat="43.33737000" lon="-1.46841000">
        <ele>67.100000</ele>
        <time>2010-01-01T02:14:43Z</time>
      </trkpt>
      <trkpt lat="43.33721000" lon="-1.46805000">
        <ele>66.800000</ele>
        <time>2010-01-01T02:14:55Z</time>
      </trkpt>
      <trkpt lat="43.33697990" lon="-1.46705000">
        <ele>65.700000</ele>
        <time>2010-01-01T02:15:26Z</time>
      </trkpt>
      <trkpt lat="43.33700000" lon="-1.46557000">
        <ele>63.600000</ele>
        <time>2010-01-01T02:16:09Z</time>
      </trkpt>
      <trkpt lat="43.33657000" lon="-1.46288000">
        <ele>56.000000</ele>
        <time>2010-01-01T02:17:29Z</time>
      </trkpt>
      <trkpt lat="43.33632000" lon="-1.46191000">
        <ele>56.400000</ele>
        <time>2010-01-01T02:17:59Z</time>
      </trkpt>
      <trkpt lat="43.33580000" lon="-1.46092000">
        <ele>56.900000</ele>
        <time>2010-01-01T02:18:34Z</time>
      </trkpt>
      <trkpt lat="43.33554000" lon="-1.45987000">
        <ele>59.000000</ele>
        <time>2010-01-01T02:19:07Z</time>
      </trkpt>
      <trkpt lat="43.33553000" lon="-1.45933000">
        <ele>63.200000</ele>
        <time>2010-01-01T02:19:22Z</time>
      </trkpt>
      <trkpt lat="43.33559000" lon="-1.45900000">
        <ele>65.600000</ele>
        <time>2010-01-01T02:19:32Z</time>
      </trkpt>
      <trkpt lat="43.33578000" lon="-1.45856000">
        <ele>66.900000</ele>
        <time>2010-01-01T02:19:47Z</time>
      </trkpt>
      <trkpt lat="43.33763000" lon="-1.45583000">
        <ele>61.800000</ele>
        <time>2010-01-01T02:21:36Z</time>
      </trkpt>
      <trkpt lat="43.33804000" lon="-1.45498000">
        <ele>61.700000</ele>
        <time>2010-01-01T02:22:06Z</time>
      </trkpt>
      <trkpt lat="43.33840000" lon="-1.45405000">
        <ele>59.100000</ele>
        <time>2010-01-01T02:22:36Z</time>
      </trkpt>
      <trkpt lat="43.33867990" lon="-1.45367000">
        <ele>59.600000</ele>
        <time>2010-01-01T02:22:52Z</time>
      </trkpt>
      <trkpt lat="43.33958000" lon="-1.45279000">
        <ele>59.600000</ele>
        <time>2010-01-01T02:23:36Z</time>
      </trkpt>
      <trkpt lat="43.33975000" lon="-1.45255000">
        <ele>59.600000</ele>
        <time>2010-01-01T02:23:46Z</time>
      </trkpt>
      <trkpt lat="43.33998000" lon="-1.45174000">
        <ele>60.000000</ele>
        <time>2010-01-01T02:24:11Z</time>
      </trkpt>
      <trkpt lat="43.33986000" lon="-1.45117000">
        <ele>63.400000</ele>
        <time>2010-01-01T02:24:28Z</time>
      </trkpt>
      <trkpt lat="43.33866000" lon="-1.44910000">
        <ele>72.000000</ele>
        <time>2010-01-01T02:25:46Z</time>
      </trkpt>
      <trkpt lat="43.33849000" lon="-1.44868000">
        <ele>73.200000</ele>
        <time>2010-01-01T02:26:00Z</time>
      </trkpt>
      <trkpt lat="43.33842000" lon="-1.44832000">
        <ele>73.500000</ele>
        <time>2010-01-01T02:26:10Z</time>
      </trkpt>
      <trkpt lat="43.33840000" lon="-1.44707000">
        <ele>78.000000</ele>
        <time>2010-01-01T02:26:47Z</time>
      </trkpt>
      <trkpt lat="43.33827000" lon="-1.44656000">
        <ele>78.900000</ele>
        <time>2010-01-01T02:27:03Z</time>
      </trkpt>
      <trkpt lat="43.33834000" lon="-1.44647000">
        <ele>79.000000</ele>
        <time>2010-01-01T02:27:06Z</time>
      </trkpt>
      <trkpt lat="43.33845000" lon="-1.44595000">
        <ele>78.400000</ele>
        <time>2010-01-01T02:27:22Z</time>
      </trkpt>
      <trkpt lat="43.33857000" lon="-1.44567000">
        <ele>76.200000</ele>
        <time>2010-01-01T02:27:32Z</time>
      </trkpt>
      <trkpt lat="43.33878000" lon="-1.44543000">
        <ele>72.700000</ele>
        <time>2010-01-01T02:27:43Z</time>
      </trkpt>
      <trkpt lat="43.33920000" lon="-1.44517000">
        <ele>67.600000</ele>
        <time>2010-01-01T02:28:01Z</time>
      </trkpt>
      <trkpt lat="43.33939000" lon="-1.44497000">
        <ele>65.800000</ele>
        <time>2010-01-01T02:28:11Z</time>
      </trkpt>
      <trkpt lat="43.33969000" lon="-1.44417000">
        <ele>61.000000</ele>
        <time>2010-01-01T02:28:37Z</time>
      </trkpt>
      <trkpt lat="43.33993000" lon="-1.44381000">
        <ele>61.900000</ele>
        <time>2010-01-01T02:28:51Z</time>
      </trkpt>
      <trkpt lat="43.34019000" lon="-1.44358000">
        <ele>62.100000</ele>
        <time>2010-01-01T02:29:03Z</time>
      </trkpt>
      <trkpt lat="43.34101000" lon="-1.44323000">
        <ele>63.700000</ele>
        <time>2010-01-01T02:29:38Z</time>
      </trkpt>
      <trkpt lat="43.34129990" lon="-1.44300990">
        <ele>65.300000</ele>
        <time>2010-01-01T02:29:51Z</time>
      </trkpt>
      <trkpt lat="43.34178000" lon="-1.44237000">
        <ele>69.600000</ele>
        <time>2010-01-01T02:30:18Z</time>
      </trkpt>
      <trkpt lat="43.34209000" lon="-1.44151000">
        <ele>73.300000</ele>
        <time>2010-01-01T02:30:46Z</time>
      </trkpt>
      <trkpt lat="43.34231000" lon="-1.44110000">
        <ele>75.100000</ele>
        <time>2010-01-01T02:31:01Z</time>
      </trkpt>
      <trkpt lat="43.34334000" lon="-1.43970000">
        <ele>81.900000</ele>
        <time>2010-01-01T02:31:58Z</time>
      </trkpt>
      <trkpt lat="43.34396000" lon="-1.43804000">
        <ele>90.900000</ele>
        <time>2010-01-01T02:32:53Z</time>
      </trkpt>
      <trkpt lat="43.34426000" lon="-1.43764000">
        <ele>93.400000</ele>
        <time>2010-01-01T02:33:10Z</time>
      </trkpt>
      <trkpt lat="43.34451000" lon="-1.43744990">
        <ele>95.200000</ele>
        <time>2010-01-01T02:33:21Z</time>
      </trkpt>
      <trkpt lat="43.34406000" lon="-1.43693000">
        <ele>94.300000</ele>
        <time>2010-01-01T02:33:45Z</time>
      </trkpt>
      <trkpt lat="43.34375000" lon="-1.43634000">
        <ele>95.500000</ele>
        <time>2010-01-01T02:34:06Z</time>
      </trkpt>
      <trkpt lat="43.34354000" lon="-1.43433000">
        <ele>100.50000</ele>
        <time>2010-01-01T02:35:05Z</time>
      </trkpt>
      <trkpt lat="43.34364000" lon="-1.43408000">
        <ele>99.600000</ele>
        <time>2010-01-01T02:35:13Z</time>
      </trkpt>
      <trkpt lat="43.34463000" lon="-1.43259000">
        <ele>92.100000</ele>
        <time>2010-01-01T02:36:12Z</time>
      </trkpt>
      <trkpt lat="43.34485000" lon="-1.43176000">
        <ele>91.600000</ele>
        <time>2010-01-01T02:36:38Z</time>
      </trkpt>
      <trkpt lat="43.34586000" lon="-1.42939000">
        <ele>82.900000</ele>
        <time>2010-01-01T02:37:58Z</time>
      </trkpt>
      <trkpt lat="43.34608000" lon="-1.42906000">
        <ele>80.700000</ele>
        <time>2010-01-01T02:38:11Z</time>
      </trkpt>
      <trkpt lat="43.34690000" lon="-1.42818000">
        <ele>77.300000</ele>
        <time>2010-01-01T02:38:52Z</time>
      </trkpt>
      <trkpt lat="43.34707000" lon="-1.42785000">
        <ele>76.800000</ele>
        <time>2010-01-01T02:39:04Z</time>
      </trkpt>
      <trkpt lat="43.34702990" lon="-1.42664000">
        <ele>73.700000</ele>
        <time>2010-01-01T02:39:39Z</time>
      </trkpt>
      <trkpt lat="43.34716000" lon="-1.42589000">
        <ele>72.900000</ele>
        <time>2010-01-01T02:40:02Z</time>
      </trkpt>
      <trkpt lat="43.34700000" lon="-1.42531000">
        <ele>74.800000</ele>
        <time>2010-01-01T02:40:20Z</time>
      </trkpt>
      <trkpt lat="43.34695000" lon="-1.42428000">
        <ele>74.200000</ele>
        <time>2010-01-01T02:40:50Z</time>
      </trkpt>
      <trkpt lat="43.34683000" lon="-1.42359000">
        <ele>72.900000</ele>
        <time>2010-01-01T02:41:10Z</time>
      </trkpt>
      <trkpt lat="43.34650000" lon="-1.42278000">
        <ele>70.300000</ele>
        <time>2010-01-01T02:41:38Z</time>
      </trkpt>
      <trkpt lat="43.34634000" lon="-1.42118000">
        <ele>62.300000</ele>
        <time>2010-01-01T02:42:25Z</time>
      </trkpt>
      <trkpt lat="43.34599990" lon="-1.42038000">
        <ele>63.900000</ele>
        <time>2010-01-01T02:42:51Z</time>
      </trkpt>
      <trkpt lat="43.34604000" lon="-1.41978000">
        <ele>65.600000</ele>
        <time>2010-01-01T02:43:09Z</time>
      </trkpt>
      <trkpt lat="43.34591000" lon="-1.41912000">
        <ele>70.500000</ele>
        <time>2010-01-01T02:43:29Z</time>
      </trkpt>
      <trkpt lat="43.34552990" lon="-1.41849000">
        <ele>71.700000</ele>
        <time>2010-01-01T02:43:53Z</time>
      </trkpt>
      <trkpt lat="43.34471000" lon="-1.41751000">
        <ele>75.700000</ele>
        <time>2010-01-01T02:44:36Z</time>
      </trkpt>
      <trkpt lat="43.34456000" lon="-1.41724990">
        <ele>76.600000</ele>
        <time>2010-01-01T02:44:46Z</time>
      </trkpt>
      <trkpt lat="43.34387000" lon="-1.41511000">
        <ele>80.800000</ele>
        <time>2010-01-01T02:45:54Z</time>
      </trkpt>
      <trkpt lat="43.34362000" lon="-1.41385000">
        <ele>85.500000</ele>
        <time>2010-01-01T02:46:32Z</time>
      </trkpt>
      <trkpt lat="43.34321000" lon="-1.41285000">
        <ele>92.400000</ele>
        <time>2010-01-01T02:47:06Z</time>
      </trkpt>
      <trkpt lat="43.34292000" lon="-1.41240000">
        <ele>94.500000</ele>
        <time>2010-01-01T02:47:23Z</time>
      </trkpt>
      <trkpt lat="43.34252000" lon="-1.41195000">
        <ele>97.400000</ele>
        <time>2010-01-01T02:47:44Z</time>
      </trkpt>
      <trkpt lat="43.34205990" lon="-1.41156000">
        <ele>101.00000</ele>
        <time>2010-01-01T02:48:05Z</time>
      </trkpt>
      <trkpt lat="43.34111990" lon="-1.41091000">
        <ele>106.10000</ele>
        <time>2010-01-01T02:48:47Z</time>
      </trkpt>
      <trkpt lat="43.34022000" lon="-1.40991000">
        <ele>110.20000</ele>
        <time>2010-01-01T02:49:34Z</time>
      </trkpt>
      <trkpt lat="43.33970990" lon="-1.40903000">
        <ele>109.40000</ele>
        <time>2010-01-01T02:50:07Z</time>
      </trkpt>
      <trkpt lat="43.33941990" lon="-1.40886000">
        <ele>108.30000</ele>
        <time>2010-01-01T02:50:19Z</time>
      </trkpt>
      <trkpt lat="43.33954000" lon="-1.40848000">
        <ele>103.50000</ele>
        <time>2010-01-01T02:50:31Z</time>
      </trkpt>
      <trkpt lat="43.33943000" lon="-1.40714000">
        <ele>93.500000</ele>
        <time>2010-01-01T02:51:10Z</time>
      </trkpt>
      <trkpt lat="43.33926000" lon="-1.40689000">
        <ele>91.500000</ele>
        <time>2010-01-01T02:51:20Z</time>
      </trkpt>
      <trkpt lat="43.33908000" lon="-1.40639000">
        <ele>89.600000</ele>
        <time>2010-01-01T02:51:37Z</time>
      </trkpt>
      <trkpt lat="43.33838990" lon="-1.40534000">
        <ele>85.800000</ele>
        <time>2010-01-01T02:52:18Z</time>
      </trkpt>
      <trkpt lat="43.33845000" lon="-1.40493000">
        <ele>84.200000</ele>
        <time>2010-01-01T02:52:30Z</time>
      </trkpt>
      <trkpt lat="43.33873000" lon="-1.40409990">
        <ele>81.300000</ele>
        <time>2010-01-01T02:52:57Z</time>
      </trkpt>
      <trkpt lat="43.33866000" lon="-1.40336000">
        <ele>80.000000</ele>
        <time>2010-01-01T02:53:18Z</time>
      </trkpt>
      <trkpt lat="43.33849000" lon="-1.40293000">
        <ele>79.900000</ele>
        <time>2010-01-01T02:53:33Z</time>
      </trkpt>
      <trkpt lat="43.33782990" lon="-1.40333000">
        <ele>81.200000</ele>
        <time>2010-01-01T02:54:02Z</time>
      </trkpt>
      <trkpt lat="43.33662000" lon="-1.40371000">
        <ele>81.100000</ele>
        <time>2010-01-01T02:54:51Z</time>
      </trkpt>
      <trkpt lat="43.33652000" lon="-1.40381000">
        <ele>80.900000</ele>
        <time>2010-01-01T02:54:56Z</time>
      </trkpt>
      <trkpt lat="43.33641990" lon="-1.40380000">
        <ele>80.900000</ele>
        <time>2010-01-01T02:55:00Z</time>
      </trkpt>
      <trkpt lat="43.33632000" lon="-1.40360000">
        <ele>81.200000</ele>
        <time>2010-01-01T02:55:07Z</time>
      </trkpt>
      <trkpt lat="43.33529000" lon="-1.40307000">
        <ele>78.400000</ele>
        <time>2010-01-01T02:55:51Z</time>
      </trkpt>
      <trkpt lat="43.33490000" lon="-1.40280000">
        <ele>76.500000</ele>
        <time>2010-01-01T02:56:09Z</time>
      </trkpt>
      <trkpt lat="43.33374000" lon="-1.40191000">
        <ele>75.900000</ele>
        <time>2010-01-01T02:57:02Z</time>
      </trkpt>
      <trkpt lat="43.33335000" lon="-1.40154000">
        <ele>74.200000</ele>
        <time>2010-01-01T02:57:21Z</time>
      </trkpt>
      <trkpt lat="43.33301000" lon="-1.40118000">
        <ele>72.200000</ele>
        <time>2010-01-01T02:57:38Z</time>
      </trkpt>
      <trkpt lat="43.33258000" lon="-1.40057000">
        <ele>68.800000</ele>
        <time>2010-01-01T02:58:03Z</time>
      </trkpt>
      <trkpt lat="43.33221000" lon="-1.39994000">
        <ele>64.500000</ele>
        <time>2010-01-01T02:58:26Z</time>
      </trkpt>
      <trkpt lat="43.33173000" lon="-1.39893000">
        <ele>57.700000</ele>
        <time>2010-01-01T02:59:02Z</time>
      </trkpt>
      <trkpt lat="43.33088990" lon="-1.39647000">
        <ele>47.100000</ele>
        <time>2010-01-01T03:00:21Z</time>
      </trkpt>
      <trkpt lat="43.32830000" lon="-1.38807000">
        <ele>49.300000</ele>
        <time>2010-01-01T03:04:46Z</time>
      </trkpt>
      <trkpt lat="43.32761000" lon="-1.38662000">
        <ele>56.900000</ele>
        <time>2010-01-01T03:05:37Z</time>
      </trkpt>
      <trkpt lat="43.32659000" lon="-1.38511990">
        <ele>64.000000</ele>
        <time>2010-01-01T03:06:37Z</time>
      </trkpt>
      <trkpt lat="43.32524990" lon="-1.38260990">
        <ele>70.500000</ele>
        <time>2010-01-01T03:08:07Z</time>
      </trkpt>
      <trkpt lat="43.32449000" lon="-1.38063000">
        <ele>79.600000</ele>
        <time>2010-01-01T03:09:12Z</time>
      </trkpt>
      <trkpt lat="43.32347000" lon="-1.37684000">
        <ele>88.000000</ele>
        <time>2010-01-01T03:11:10Z</time>
      </trkpt>
      <trkpt lat="43.32271000" lon="-1.37560000">
        <ele>90.800000</ele>
        <time>2010-01-01T03:11:57Z</time>
      </trkpt>
      <trkpt lat="43.32231000" lon="-1.37467000">
        <ele>95.700000</ele>
        <time>2010-01-01T03:12:29Z</time>
      </trkpt>
      <trkpt lat="43.32181000" lon="-1.37326000">
        <ele>100.90000</ele>
        <time>2010-01-01T03:13:14Z</time>
      </trkpt>
      <trkpt lat="43.32108000" lon="-1.37186000">
        <ele>112.90000</ele>
        <time>2010-01-01T03:14:05Z</time>
      </trkpt>
      <trkpt lat="43.32045000" lon="-1.37015000">
        <ele>124.00000</ele>
        <time>2010-01-01T03:15:00Z</time>
      </trkpt>
      <trkpt lat="43.32018000" lon="-1.36919000">
        <ele>129.60000</ele>
        <time>2010-01-01T03:15:30Z</time>
      </trkpt>
      <trkpt lat="43.31994000" lon="-1.36803000">
        <ele>132.40000</ele>
        <time>2010-01-01T03:16:06Z</time>
      </trkpt>
      <trkpt lat="43.31991000" lon="-1.36721000">
        <ele>134.30000</ele>
        <time>2010-01-01T03:16:29Z</time>
      </trkpt>
      <trkpt lat="43.32000000" lon="-1.36604000">
        <ele>138.50000</ele>
        <time>2010-01-01T03:17:04Z</time>
      </trkpt>
      <trkpt lat="43.31989000" lon="-1.36511000">
        <ele>145.10000</ele>
        <time>2010-01-01T03:17:31Z</time>
      </trkpt>
      <trkpt lat="43.31959000" lon="-1.36357000">
        <ele>151.60000</ele>
        <time>2010-01-01T03:18:18Z</time>
      </trkpt>
      <trkpt lat="43.31877990" lon="-1.36144000">
        <ele>139.90000</ele>
        <time>2010-01-01T03:19:28Z</time>
      </trkpt>
      <trkpt lat="43.31845000" lon="-1.36067000">
        <ele>135.80000</ele>
        <time>2010-01-01T03:19:54Z</time>
      </trkpt>
      <trkpt lat="43.31795000" lon="-1.35974000">
        <ele>131.10000</ele>
        <time>2010-01-01T03:20:27Z</time>
      </trkpt>
      <trkpt lat="43.31734000" lon="-1.35812000">
        <ele>124.80000</ele>
        <time>2010-01-01T03:21:20Z</time>
      </trkpt>
      <trkpt lat="43.31663000" lon="-1.35680000">
        <ele>123.20000</ele>
        <time>2010-01-01T03:22:08Z</time>
      </trkpt>
      <trkpt lat="43.31668000" lon="-1.35661000">
        <ele>122.00000</ele>
        <time>2010-01-01T03:22:14Z</time>
      </trkpt>
      <trkpt lat="43.31657000" lon="-1.35557000">
        <ele>120.10000</ele>
        <time>2010-01-01T03:22:45Z</time>
      </trkpt>
      <trkpt lat="43.31659000" lon="-1.35459000">
        <ele>116.40000</ele>
        <time>2010-01-01T03:23:13Z</time>
      </trkpt>
      <trkpt lat="43.31639000" lon="-1.35139000">
        <ele>109.50000</ele>
        <time>2010-01-01T03:24:47Z</time>
      </trkpt>
      <trkpt lat="43.31624990" lon="-1.35063000">
        <ele>107.60000</ele>
        <time>2010-01-01T03:25:10Z</time>
      </trkpt>
      <trkpt lat="43.31521000" lon="-1.34634000">
        <ele>112.00000</ele>
        <time>2010-01-01T03:27:21Z</time>
      </trkpt>
      <trkpt lat="43.31483000" lon="-1.34348000">
        <ele>111.90000</ele>
        <time>2010-01-01T03:28:46Z</time>
      </trkpt>
      <trkpt lat="43.31459000" lon="-1.34279000">
        <ele>115.10000</ele>
        <time>2010-01-01T03:29:08Z</time>
      </trkpt>
      <trkpt lat="43.31412000" lon="-1.34194000">
        <ele>120.10000</ele>
        <time>2010-01-01T03:29:39Z</time>
      </trkpt>
      <trkpt lat="43.31377000" lon="-1.34077000">
        <ele>120.80000</ele>
        <time>2010-01-01T03:30:16Z</time>
      </trkpt>
      <trkpt lat="43.31300000" lon="-1.33915990">
        <ele>129.60000</ele>
        <time>2010-01-01T03:31:12Z</time>
      </trkpt>
      <trkpt lat="43.31279000" lon="-1.33852000">
        <ele>136.10000</ele>
        <time>2010-01-01T03:31:33Z</time>
      </trkpt>
      <trkpt lat="43.31280000" lon="-1.33763000">
        <ele>134.50000</ele>
        <time>2010-01-01T03:31:59Z</time>
      </trkpt>
      <trkpt lat="43.31260000" lon="-1.33654000">
        <ele>130.90000</ele>
        <time>2010-01-01T03:32:31Z</time>
      </trkpt>
      <trkpt lat="43.31256000" lon="-1.33559990">
        <ele>125.60000</ele>
        <time>2010-01-01T03:32:59Z</time>
      </trkpt>
      <trkpt lat="43.31262000" lon="-1.33536000">
        <ele>123.40000</ele>
        <time>2010-01-01T03:33:06Z</time>
      </trkpt>
      <trkpt lat="43.31319000" lon="-1.33411000">
        <ele>118.30000</ele>
        <time>2010-01-01T03:33:49Z</time>
      </trkpt>
      <trkpt lat="43.31330000" lon="-1.33278000">
        <ele>121.30000</ele>
        <time>2010-01-01T03:34:28Z</time>
      </trkpt>
      <trkpt lat="43.31337000" lon="-1.33256000">
        <ele>122.10000</ele>
        <time>2010-01-01T03:34:35Z</time>
      </trkpt>
      <trkpt lat="43.31373000" lon="-1.33197000">
        <ele>126.10000</ele>
        <time>2010-01-01T03:34:58Z</time>
      </trkpt>
      <trkpt lat="43.31385000" lon="-1.33166000">
        <ele>128.00000</ele>
        <time>2010-01-01T03:35:08Z</time>
      </trkpt>
      <trkpt lat="43.31389000" lon="-1.33069000">
        <ele>129.80000</ele>
        <time>2010-01-01T03:35:36Z</time>
      </trkpt>
      <trkpt lat="43.31421000" lon="-1.32897000">
        <ele>131.80000</ele>
        <time>2010-01-01T03:36:28Z</time>
      </trkpt>
      <trkpt lat="43.31418000" lon="-1.32802000">
        <ele>132.10000</ele>
        <time>2010-01-01T03:36:56Z</time>
      </trkpt>
      <trkpt lat="43.31445000" lon="-1.32662000">
        <ele>138.30000</ele>
        <time>2010-01-01T03:37:38Z</time>
      </trkpt>
      <trkpt lat="43.31444000" lon="-1.32480000">
        <ele>134.50000</ele>
        <time>2010-01-01T03:38:31Z</time>
      </trkpt>
      <trkpt lat="43.31489000" lon="-1.32374000">
        <ele>137.10000</ele>
        <time>2010-01-01T03:39:07Z</time>
      </trkpt>
      <trkpt lat="43.31566000" lon="-1.32243000">
        <ele>140.50000</ele>
        <time>2010-01-01T03:39:56Z</time>
      </trkpt>
      <trkpt lat="43.31577000" lon="-1.32212000">
        <ele>142.60000</ele>
        <time>2010-01-01T03:40:06Z</time>
      </trkpt>
      <trkpt lat="43.31580000" lon="-1.32173000">
        <ele>144.60000</ele>
        <time>2010-01-01T03:40:17Z</time>
      </trkpt>
      <trkpt lat="43.31568990" lon="-1.32132000">
        <ele>149.30000</ele>
        <time>2010-01-01T03:40:30Z</time>
      </trkpt>
      <trkpt lat="43.31506000" lon="-1.32010000">
        <ele>150.10000</ele>
        <time>2010-01-01T03:41:13Z</time>
      </trkpt>
      <trkpt lat="43.31435000" lon="-1.31819000">
        <ele>150.70000</ele>
        <time>2010-01-01T03:42:16Z</time>
      </trkpt>
      <trkpt lat="43.31378000" lon="-1.31548000">
        <ele>159.70000</ele>
        <time>2010-01-01T03:43:38Z</time>
      </trkpt>
      <trkpt lat="43.31370000" lon="-1.31404000">
        <ele>165.50000</ele>
        <time>2010-01-01T03:44:20Z</time>
      </trkpt>
      <trkpt lat="43.31402000" lon="-1.31273000">
        <ele>180.50000</ele>
        <time>2010-01-01T03:45:00Z</time>
      </trkpt>
      <trkpt lat="43.31404000" lon="-1.31236000">
        <ele>183.70000</ele>
        <time>2010-01-01T03:45:11Z</time>
      </trkpt>
      <trkpt lat="43.31350000" lon="-1.31122990">
        <ele>178.70000</ele>
        <time>2010-01-01T03:45:50Z</time>
      </trkpt>
      <trkpt lat="43.31346000" lon="-1.31074000">
        <ele>182.30000</ele>
        <time>2010-01-01T03:46:05Z</time>
      </trkpt>
      <trkpt lat="43.31335000" lon="-1.31044990">
        <ele>180.80000</ele>
        <time>2010-01-01T03:46:14Z</time>
      </trkpt>
      <trkpt lat="43.31320000" lon="-1.31027000">
        <ele>179.70000</ele>
        <time>2010-01-01T03:46:22Z</time>
      </trkpt>
      <trkpt lat="43.31279000" lon="-1.31004000">
        <ele>176.80000</ele>
        <time>2010-01-01T03:46:40Z</time>
      </trkpt>
      <trkpt lat="43.31263000" lon="-1.30985000">
        <ele>177.40000</ele>
        <time>2010-01-01T03:46:49Z</time>
      </trkpt>
      <trkpt lat="43.31227000" lon="-1.30915000">
        <ele>183.90000</ele>
        <time>2010-01-01T03:47:14Z</time>
      </trkpt>
      <trkpt lat="43.31208000" lon="-1.30838000">
        <ele>188.00000</ele>
        <time>2010-01-01T03:47:37Z</time>
      </trkpt>
      <trkpt lat="43.31206000" lon="-1.30800000">
        <ele>190.50000</ele>
        <time>2010-01-01T03:47:48Z</time>
      </trkpt>
      <trkpt lat="43.31215000" lon="-1.30709000">
        <ele>199.60000</ele>
        <time>2010-01-01T03:48:15Z</time>
      </trkpt>
      <trkpt lat="43.31222000" lon="-1.30518000">
        <ele>216.20000</ele>
        <time>2010-01-01T03:49:11Z</time>
      </trkpt>
      <trkpt lat="43.31213000" lon="-1.30475000">
        <ele>218.00000</ele>
        <time>2010-01-01T03:49:24Z</time>
      </trkpt>
      <trkpt lat="43.31197000" lon="-1.30446000">
        <ele>217.60000</ele>
        <time>2010-01-01T03:49:34Z</time>
      </trkpt>
      <trkpt lat="43.31159000" lon="-1.30400990">
        <ele>216.70000</ele>
        <time>2010-01-01T03:49:54Z</time>
      </trkpt>
      <trkpt lat="43.31145000" lon="-1.30366000">
        <ele>218.40000</ele>
        <time>2010-01-01T03:50:06Z</time>
      </trkpt>
      <trkpt lat="43.31142000" lon="-1.30341000">
        <ele>220.00000</ele>
        <time>2010-01-01T03:50:13Z</time>
      </trkpt>
      <trkpt lat="43.31175000" lon="-1.30139000">
        <ele>236.30000</ele>
        <time>2010-01-01T03:51:14Z</time>
      </trkpt>
      <trkpt lat="43.31192000" lon="-1.30095000">
        <ele>242.40000</ele>
        <time>2010-01-01T03:51:28Z</time>
      </trkpt>
      <trkpt lat="43.31244000" lon="-1.30027000">
        <ele>253.20000</ele>
        <time>2010-01-01T03:51:57Z</time>
      </trkpt>
      <trkpt lat="43.31257000" lon="-1.29992000">
        <ele>256.20000</ele>
        <time>2010-01-01T03:52:08Z</time>
      </trkpt>
      <trkpt lat="43.31254000" lon="-1.29951000">
        <ele>257.90000</ele>
        <time>2010-01-01T03:52:20Z</time>
      </trkpt>
      <trkpt lat="43.31223000" lon="-1.29881000">
        <ele>258.30000</ele>
        <time>2010-01-01T03:52:44Z</time>
      </trkpt>
      <trkpt lat="43.31212000" lon="-1.29817990">
        <ele>261.70000</ele>
        <time>2010-01-01T03:53:03Z</time>
      </trkpt>
      <trkpt lat="43.31219000" lon="-1.29545000">
        <ele>265.10000</ele>
        <time>2010-01-01T03:54:23Z</time>
      </trkpt>
      <trkpt lat="43.31178000" lon="-1.29224000">
        <ele>266.20000</ele>
        <time>2010-01-01T03:55:58Z</time>
      </trkpt>
      <trkpt lat="43.31138000" lon="-1.29127000">
        <ele>267.40000</ele>
        <time>2010-01-01T03:56:30Z</time>
      </trkpt>
      <trkpt lat="43.31089990" lon="-1.28939000">
        <ele>274.70000</ele>
        <time>2010-01-01T03:57:28Z</time>
      </trkpt>
      <trkpt lat="43.31086000" lon="-1.28826000">
        <ele>281.40000</ele>
        <time>2010-01-01T03:58:01Z</time>
      </trkpt>
      <trkpt lat="43.31076000" lon="-1.28763990">
        <ele>281.10000</ele>
        <time>2010-01-01T03:58:20Z</time>
      </trkpt>
      <trkpt lat="43.30995000" lon="-1.28508000">
        <ele>289.70000</ele>
        <time>2010-01-01T03:59:41Z</time>
      </trkpt>
      <trkpt lat="43.30901990" lon="-1.28166000">
        <ele>300.20000</ele>
        <time>2010-01-01T04:01:27Z</time>
      </trkpt>
      <trkpt lat="43.30820000" lon="-1.27766000">
        <ele>294.50000</ele>
        <time>2010-01-01T04:03:28Z</time>
      </trkpt>
      <trkpt lat="43.30806000" lon="-1.27589000">
        <ele>295.00000</ele>
        <time>2010-01-01T04:04:20Z</time>
      </trkpt>
      <trkpt lat="43.30769000" lon="-1.27352000">
        <ele>289.70000</ele>
        <time>2010-01-01T04:05:31Z</time>
      </trkpt>
      <trkpt lat="43.30768000" lon="-1.26995000">
        <ele>271.70000</ele>
        <time>2010-01-01T04:07:15Z</time>
      </trkpt>
      <trkpt lat="43.30748000" lon="-1.26912000">
        <ele>272.20000</ele>
        <time>2010-01-01T04:07:40Z</time>
      </trkpt>
      <trkpt lat="43.30724000" lon="-1.26861000">
        <ele>273.40000</ele>
        <time>2010-01-01T04:07:58Z</time>
      </trkpt>
      <trkpt lat="43.30703000" lon="-1.26835000">
        <ele>274.00000</ele>
        <time>2010-01-01T04:08:09Z</time>
      </trkpt>
      <trkpt lat="43.30563000" lon="-1.26709000">
        <ele>271.70000</ele>
        <time>2010-01-01T04:09:16Z</time>
      </trkpt>
      <trkpt lat="43.30551000" lon="-1.26687000">
        <ele>271.30000</ele>
        <time>2010-01-01T04:09:24Z</time>
      </trkpt>
      <trkpt lat="43.30542000" lon="-1.26652000">
        <ele>270.20000</ele>
        <time>2010-01-01T04:09:35Z</time>
      </trkpt>
      <trkpt lat="43.30545000" lon="-1.26537000">
        <ele>271.20000</ele>
        <time>2010-01-01T04:10:09Z</time>
      </trkpt>
      <trkpt lat="43.30582000" lon="-1.26404000">
        <ele>278.80000</ele>
        <time>2010-01-01T04:10:50Z</time>
      </trkpt>
      <trkpt lat="43.30579000" lon="-1.26366000">
        <ele>281.00000</ele>
        <time>2010-01-01T04:11:01Z</time>
      </trkpt>
      <trkpt lat="43.30561000" lon="-1.26288000">
        <ele>282.70000</ele>
        <time>2010-01-01T04:11:25Z</time>
      </trkpt>
      <trkpt lat="43.30560000" lon="-1.26255000">
        <ele>282.70000</ele>
        <time>2010-01-01T04:11:35Z</time>
      </trkpt>
      <trkpt lat="43.30582000" lon="-1.26121000">
        <ele>277.20000</ele>
        <time>2010-01-01T04:12:15Z</time>
      </trkpt>
      <trkpt lat="43.30569000" lon="-1.25935000">
        <ele>268.80000</ele>
        <time>2010-01-01T04:13:09Z</time>
      </trkpt>
      <trkpt lat="43.30572990" lon="-1.25779000">
        <ele>264.70000</ele>
        <time>2010-01-01T04:13:55Z</time>
      </trkpt>
      <trkpt lat="43.30590000" lon="-1.25516990">
        <ele>255.30000</ele>
        <time>2010-01-01T04:15:11Z</time>
      </trkpt>
      <trkpt lat="43.30587000" lon="-1.25457000">
        <ele>253.80000</ele>
        <time>2010-01-01T04:15:29Z</time>
      </trkpt>
      <trkpt lat="43.30576000" lon="-1.25415000">
        <ele>252.50000</ele>
        <time>2010-01-01T04:15:42Z</time>
      </trkpt>
      <trkpt lat="43.30556000" lon="-1.25385000">
        <ele>250.50000</ele>
        <time>2010-01-01T04:15:54Z</time>
      </trkpt>
      <trkpt lat="43.30545000" lon="-1.25357000">
        <ele>248.90000</ele>
        <time>2010-01-01T04:16:03Z</time>
      </trkpt>
      <trkpt lat="43.30547000" lon="-1.25344000">
        <ele>248.70000</ele>
        <time>2010-01-01T04:16:07Z</time>
      </trkpt>
      <trkpt lat="43.30536000" lon="-1.25322000">
        <ele>247.00000</ele>
        <time>2010-01-01T04:16:15Z</time>
      </trkpt>
      <trkpt lat="43.30417000" lon="-1.25213000">
        <ele>240.60000</ele>
        <time>2010-01-01T04:17:12Z</time>
      </trkpt>
      <trkpt lat="43.30369000" lon="-1.25162000">
        <ele>245.00000</ele>
        <time>2010-01-01T04:17:36Z</time>
      </trkpt>
      <trkpt lat="43.30347000" lon="-1.25114000">
        <ele>246.30000</ele>
        <time>2010-01-01T04:17:53Z</time>
      </trkpt>
      <trkpt lat="43.30331000" lon="-1.25045000">
        <ele>246.90000</ele>
        <time>2010-01-01T04:18:14Z</time>
      </trkpt>
      <trkpt lat="43.30291000" lon="-1.24990000">
        <ele>251.50000</ele>
        <time>2010-01-01T04:18:36Z</time>
      </trkpt>
      <trkpt lat="43.30306000" lon="-1.24960000">
        <ele>249.30000</ele>
        <time>2010-01-01T04:18:47Z</time>
      </trkpt>
      <trkpt lat="43.30416000" lon="-1.24820000">
        <ele>245.70000</ele>
        <time>2010-01-01T04:19:47Z</time>
      </trkpt>
      <trkpt lat="43.30524000" lon="-1.24772000">
        <ele>248.70000</ele>
        <time>2010-01-01T04:20:32Z</time>
      </trkpt>
      <trkpt lat="43.30545000" lon="-1.24749000">
        <ele>248.00000</ele>
        <time>2010-01-01T04:20:43Z</time>
      </trkpt>
      <trkpt lat="43.30569000" lon="-1.24685000">
        <ele>251.10000</ele>
        <time>2010-01-01T04:21:04Z</time>
      </trkpt>
      <trkpt lat="43.30639000" lon="-1.24445000">
        <ele>264.40000</ele>
        <time>2010-01-01T04:22:19Z</time>
      </trkpt>
      <trkpt lat="43.30672000" lon="-1.24363000">
        <ele>260.30000</ele>
        <time>2010-01-01T04:22:47Z</time>
      </trkpt>
      <trkpt lat="43.30663000" lon="-1.24328000">
        <ele>261.40000</ele>
        <time>2010-01-01T04:22:58Z</time>
      </trkpt>
      <trkpt lat="43.30633000" lon="-1.24279000">
        <ele>262.70000</ele>
        <time>2010-01-01T04:23:16Z</time>
      </trkpt>
      <trkpt lat="43.30553000" lon="-1.24177000">
        <ele>262.00000</ele>
        <time>2010-01-01T04:24:00Z</time>
      </trkpt>
      <trkpt lat="43.30506000" lon="-1.24059000">
        <ele>268.80000</ele>
        <time>2010-01-01T04:24:39Z</time>
      </trkpt>
      <trkpt lat="43.30507000" lon="-1.24039000">
        <ele>268.50000</ele>
        <time>2010-01-01T04:24:45Z</time>
      </trkpt>
      <trkpt lat="43.30528000" lon="-1.23984000">
        <ele>264.80000</ele>
        <time>2010-01-01T04:25:03Z</time>
      </trkpt>
      <trkpt lat="43.30540000" lon="-1.23848000">
        <ele>272.20000</ele>
        <time>2010-01-01T04:25:43Z</time>
      </trkpt>
      <trkpt lat="43.30562000" lon="-1.23817000">
        <ele>271.70000</ele>
        <time>2010-01-01T04:25:56Z</time>
      </trkpt>
      <trkpt lat="43.30610990" lon="-1.23781000">
        <ele>269.20000</ele>
        <time>2010-01-01T04:26:18Z</time>
      </trkpt>
      <trkpt lat="43.30628000" lon="-1.23744000">
        <ele>269.10000</ele>
        <time>2010-01-01T04:26:31Z</time>
      </trkpt>
      <trkpt lat="43.30617000" lon="-1.23488000">
        <ele>258.00000</ele>
        <time>2010-01-01T04:27:45Z</time>
      </trkpt>
      <trkpt lat="43.30595000" lon="-1.23452000">
        <ele>258.60000</ele>
        <time>2010-01-01T04:27:59Z</time>
      </trkpt>
      <trkpt lat="43.30570000" lon="-1.23434000">
        <ele>259.60000</ele>
        <time>2010-01-01T04:28:10Z</time>
      </trkpt>
      <trkpt lat="43.30504000" lon="-1.23351000">
        <ele>257.30000</ele>
        <time>2010-01-01T04:28:46Z</time>
      </trkpt>
      <trkpt lat="43.30454000" lon="-1.23302000">
        <ele>251.90000</ele>
        <time>2010-01-01T04:29:11Z</time>
      </trkpt>
      <trkpt lat="43.30364000" lon="-1.23056000">
        <ele>239.60000</ele>
        <time>2010-01-01T04:30:31Z</time>
      </trkpt>
      <trkpt lat="43.30354000" lon="-1.23011000">
        <ele>242.50000</ele>
        <time>2010-01-01T04:30:45Z</time>
      </trkpt>
      <trkpt lat="43.30368000" lon="-1.22899000">
        <ele>245.90000</ele>
        <time>2010-01-01T04:31:18Z</time>
      </trkpt>
      <trkpt lat="43.30393000" lon="-1.22796000">
        <ele>241.80000</ele>
        <time>2010-01-01T04:31:49Z</time>
      </trkpt>
      <trkpt lat="43.30390000" lon="-1.22760000">
        <ele>243.00000</ele>
        <time>2010-01-01T04:32:00Z</time>
      </trkpt>
      <trkpt lat="43.30377000" lon="-1.22735000">
        <ele>245.60000</ele>
        <time>2010-01-01T04:32:09Z</time>
      </trkpt>
      <trkpt lat="43.30374000" lon="-1.22704000">
        <ele>245.90000</ele>
        <time>2010-01-01T04:32:18Z</time>
      </trkpt>
      <trkpt lat="43.30381000" lon="-1.22692000">
        <ele>244.90000</ele>
        <time>2010-01-01T04:32:22Z</time>
      </trkpt>
      <trkpt lat="43.30476000" lon="-1.22610000">
        <ele>240.00000</ele>
        <time>2010-01-01T04:33:07Z</time>
      </trkpt>
      <trkpt lat="43.30570000" lon="-1.22267000">
        <ele>233.30000</ele>
        <time>2010-01-01T04:34:54Z</time>
      </trkpt>
      <trkpt lat="43.30579000" lon="-1.22249000">
        <ele>232.50000</ele>
        <time>2010-01-01T04:35:00Z</time>
      </trkpt>
      <trkpt lat="43.30618000" lon="-1.22208990">
        <ele>233.10000</ele>
        <time>2010-01-01T04:35:20Z</time>
      </trkpt>
      <trkpt lat="43.30624000" lon="-1.22179000">
        <ele>232.40000</ele>
        <time>2010-01-01T04:35:29Z</time>
      </trkpt>
      <trkpt lat="43.30621000" lon="-1.22150000">
        <ele>232.00000</ele>
        <time>2010-01-01T04:35:37Z</time>
      </trkpt>
      <trkpt lat="43.30589000" lon="-1.22103990">
        <ele>229.70000</ele>
        <time>2010-01-01T04:35:56Z</time>
      </trkpt>
      <trkpt lat="43.30511000" lon="-1.22086990">
        <ele>222.00000</ele>
        <time>2010-01-01T04:36:28Z</time>
      </trkpt>
      <trkpt lat="43.30500000" lon="-1.22080000">
        <ele>221.30000</ele>
        <time>2010-01-01T04:36:32Z</time>
      </trkpt>
      <trkpt lat="43.30455000" lon="-1.22006000">
        <ele>221.00000</ele>
        <time>2010-01-01T04:37:01Z</time>
      </trkpt>
      <trkpt lat="43.30397000" lon="-1.21960000">
        <ele>216.00000</ele>
        <time>2010-01-01T04:37:27Z</time>
      </trkpt>
      <trkpt lat="43.30354000" lon="-1.21913000">
        <ele>214.40000</ele>
        <time>2010-01-01T04:37:49Z</time>
      </trkpt>
      <trkpt lat="43.30343000" lon="-1.21908000">
        <ele>212.90000</ele>
        <time>2010-01-01T04:37:54Z</time>
      </trkpt>
      <trkpt lat="43.30267000" lon="-1.21906000">
        <ele>204.20000</ele>
        <time>2010-01-01T04:38:24Z</time>
      </trkpt>
      <trkpt lat="43.30252000" lon="-1.21894000">
        <ele>203.00000</ele>
        <time>2010-01-01T04:38:31Z</time>
      </trkpt>
      <trkpt lat="43.30246000" lon="-1.21879000">
        <ele>203.20000</ele>
        <time>2010-01-01T04:38:36Z</time>
      </trkpt>
      <trkpt lat="43.30247000" lon="-1.21830000">
        <ele>204.60000</ele>
        <time>2010-01-01T04:38:51Z</time>
      </trkpt>
      <trkpt lat="43.30278000" lon="-1.21729000">
        <ele>203.40000</ele>
        <time>2010-01-01T04:39:23Z</time>
      </trkpt>
      <trkpt lat="43.30260000" lon="-1.21634000">
        <ele>194.50000</ele>
        <time>2010-01-01T04:39:51Z</time>
      </trkpt>
      <trkpt lat="43.30272990" lon="-1.21553000">
        <ele>193.30000</ele>
        <time>2010-01-01T04:40:15Z</time>
      </trkpt>
      <trkpt lat="43.30263990" lon="-1.21446000">
        <ele>188.80000</ele>
        <time>2010-01-01T04:40:47Z</time>
      </trkpt>
      <trkpt lat="43.30278000" lon="-1.21410000">
        <ele>188.90000</ele>
        <time>2010-01-01T04:40:59Z</time>
      </trkpt>
      <trkpt lat="43.30303000" lon="-1.21373000">
        <ele>187.90000</ele>
        <time>2010-01-01T04:41:13Z</time>
      </trkpt>
      <trkpt lat="43.30336000" lon="-1.21253000">
        <ele>177.40000</ele>
        <time>2010-01-01T04:41:51Z</time>
      </trkpt>
      <trkpt lat="43.30317000" lon="-1.21188000">
        <ele>175.80000</ele>
        <time>2010-01-01T04:42:11Z</time>
      </trkpt>
      <trkpt lat="43.30263000" lon="-1.21081000">
        <ele>176.60000</ele>
        <time>2010-01-01T04:42:49Z</time>
      </trkpt>
      <trkpt lat="43.30256000" lon="-1.20996000">
        <ele>180.10000</ele>
        <time>2010-01-01T04:43:14Z</time>
      </trkpt>
      <trkpt lat="43.30240000" lon="-1.20941000">
        <ele>180.30000</ele>
        <time>2010-01-01T04:43:31Z</time>
      </trkpt>
      <trkpt lat="43.30216990" lon="-1.20892000">
        <ele>180.30000</ele>
        <time>2010-01-01T04:43:48Z</time>
      </trkpt>
      <trkpt lat="43.30155000" lon="-1.20800000">
        <ele>180.10000</ele>
        <time>2010-01-01T04:44:25Z</time>
      </trkpt>
      <trkpt lat="43.30064000" lon="-1.20642000">
        <ele>181.50000</ele>
        <time>2010-01-01T04:45:23Z</time>
      </trkpt>
      <trkpt lat="43.30000000" lon="-1.20585000">
        <ele>183.00000</ele>
        <time>2010-01-01T04:45:54Z</time>
      </trkpt>
      <trkpt lat="43.29822000" lon="-1.20243000">
        <ele>187.30000</ele>
        <time>2010-01-01T04:47:56Z</time>
      </trkpt>
      <trkpt lat="43.29796000" lon="-1.20222000">
        <ele>185.50000</ele>
        <time>2010-01-01T04:48:09Z</time>
      </trkpt>
      <trkpt lat="43.29697000" lon="-1.20174000">
        <ele>183.40000</ele>
        <time>2010-01-01T04:48:51Z</time>
      </trkpt>
      <trkpt lat="43.29681990" lon="-1.20162000">
        <ele>183.50000</ele>
        <time>2010-01-01T04:48:57Z</time>
      </trkpt>
      <trkpt lat="43.29642000" lon="-1.20075000">
        <ele>182.80000</ele>
        <time>2010-01-01T04:49:27Z</time>
      </trkpt>
      <trkpt lat="43.29585000" lon="-1.19981000">
        <ele>181.70000</ele>
        <time>2010-01-01T04:50:03Z</time>
      </trkpt>
      <trkpt lat="43.29546000" lon="-1.19890000">
        <ele>182.50000</ele>
        <time>2010-01-01T04:50:34Z</time>
      </trkpt>
      <trkpt lat="43.29528000" lon="-1.19874000">
        <ele>183.00000</ele>
        <time>2010-01-01T04:50:42Z</time>
      </trkpt>
      <trkpt lat="43.29407000" lon="-1.19804000">
        <ele>191.10000</ele>
        <time>2010-01-01T04:51:35Z</time>
      </trkpt>
      <trkpt lat="43.29352000" lon="-1.19779000">
        <ele>190.40000</ele>
        <time>2010-01-01T04:51:58Z</time>
      </trkpt>
      <trkpt lat="43.29325990" lon="-1.19757000">
        <ele>190.50000</ele>
        <time>2010-01-01T04:52:10Z</time>
      </trkpt>
      <trkpt lat="43.29275000" lon="-1.19696000">
        <ele>191.50000</ele>
        <time>2010-01-01T04:52:37Z</time>
      </trkpt>
      <trkpt lat="43.29193000" lon="-1.19535000">
        <ele>179.60000</ele>
        <time>2010-01-01T04:53:35Z</time>
      </trkpt>
      <trkpt lat="43.29042000" lon="-1.19144000">
        <ele>167.40000</ele>
        <time>2010-01-01T04:55:44Z</time>
      </trkpt>
      <trkpt lat="43.28917000" lon="-1.18967000">
        <ele>175.20000</ele>
        <time>2010-01-01T04:56:56Z</time>
      </trkpt>
      <trkpt lat="43.28884000" lon="-1.18814000">
        <ele>181.40000</ele>
        <time>2010-01-01T04:57:42Z</time>
      </trkpt>
      <trkpt lat="43.28839000" lon="-1.18676000">
        <ele>187.60000</ele>
        <time>2010-01-01T04:58:26Z</time>
      </trkpt>
      <trkpt lat="43.28760000" lon="-1.18593000">
        <ele>190.30000</ele>
        <time>2010-01-01T04:59:06Z</time>
      </trkpt>
      <trkpt lat="43.28707000" lon="-1.18503000">
        <ele>193.50000</ele>
        <time>2010-01-01T04:59:40Z</time>
      </trkpt>
      <trkpt lat="43.28674000" lon="-1.18477000">
        <ele>194.80000</ele>
        <time>2010-01-01T04:59:55Z</time>
      </trkpt>
      <trkpt lat="43.28536000" lon="-1.18414000">
        <ele>190.10000</ele>
        <time>2010-01-01T05:00:53Z</time>
      </trkpt>
      <trkpt lat="43.28452990" lon="-1.18422990">
        <ele>186.20000</ele>
        <time>2010-01-01T05:01:26Z</time>
      </trkpt>
      <trkpt lat="43.28393000" lon="-1.18384000">
        <ele>180.80000</ele>
        <time>2010-01-01T05:01:53Z</time>
      </trkpt>
      <trkpt lat="43.28366000" lon="-1.18344990">
        <ele>178.10000</ele>
        <time>2010-01-01T05:02:09Z</time>
      </trkpt>
      <trkpt lat="43.28355000" lon="-1.18308000">
        <ele>175.40000</ele>
        <time>2010-01-01T05:02:20Z</time>
      </trkpt>
      <trkpt lat="43.28352000" lon="-1.18127000">
        <ele>167.10000</ele>
        <time>2010-01-01T05:03:13Z</time>
      </trkpt>
      <trkpt lat="43.28333000" lon="-1.18075000">
        <ele>164.40000</ele>
        <time>2010-01-01T05:03:30Z</time>
      </trkpt>
      <trkpt lat="43.28323000" lon="-1.18069000">
        <ele>163.20000</ele>
        <time>2010-01-01T05:03:34Z</time>
      </trkpt>
      <trkpt lat="43.28301000" lon="-1.18069000">
        <ele>161.50000</ele>
        <time>2010-01-01T05:03:43Z</time>
      </trkpt>
      <trkpt lat="43.28273990" lon="-1.18050000">
        <ele>158.80000</ele>
        <time>2010-01-01T05:03:55Z</time>
      </trkpt>
      <trkpt lat="43.28246000" lon="-1.17968000">
        <ele>154.30000</ele>
        <time>2010-01-01T05:04:22Z</time>
      </trkpt>
      <trkpt lat="43.28212000" lon="-1.17995000">
        <ele>154.00000</ele>
        <time>2010-01-01T05:04:37Z</time>
      </trkpt>
      <trkpt lat="43.28197000" lon="-1.18026000">
        <ele>154.10000</ele>
        <time>2010-01-01T05:04:48Z</time>
      </trkpt>
      <trkpt lat="43.28181000" lon="-1.18033000">
        <ele>153.50000</ele>
        <time>2010-01-01T05:04:55Z</time>
      </trkpt>
      <trkpt lat="43.28178000" lon="-1.17977000">
        <ele>151.70000</ele>
        <time>2010-01-01T05:05:11Z</time>
      </trkpt>
      <trkpt lat="43.28187000" lon="-1.17850000">
        <ele>146.10000</ele>
        <time>2010-01-01T05:05:49Z</time>
      </trkpt>
      <trkpt lat="43.28135000" lon="-1.17658000">
        <ele>141.00000</ele>
        <time>2010-01-01T05:06:48Z</time>
      </trkpt>
      <trkpt lat="43.28143000" lon="-1.17563000">
        <ele>137.70000</ele>
        <time>2010-01-01T05:07:16Z</time>
      </trkpt>
      <trkpt lat="43.28123990" lon="-1.17484000">
        <ele>137.00000</ele>
        <time>2010-01-01T05:07:40Z</time>
      </trkpt>
      <trkpt lat="43.28108000" lon="-1.17381000">
        <ele>135.80000</ele>
        <time>2010-01-01T05:08:11Z</time>
      </trkpt>
      <trkpt lat="43.28129000" lon="-1.17219000">
        <ele>138.90000</ele>
        <time>2010-01-01T05:08:59Z</time>
      </trkpt>
      <trkpt lat="43.28126000" lon="-1.17187000">
        <ele>141.40000</ele>
        <time>2010-01-01T05:09:08Z</time>
      </trkpt>
      <trkpt lat="43.28101000" lon="-1.17143000">
        <ele>146.70000</ele>
        <time>2010-01-01T05:09:25Z</time>
      </trkpt>
      <trkpt lat="43.28036000" lon="-1.17112000">
        <ele>146.70000</ele>
        <time>2010-01-01T05:09:52Z</time>
      </trkpt>
      <trkpt lat="43.27992000" lon="-1.17035000">
        <ele>147.50000</ele>
        <time>2010-01-01T05:10:21Z</time>
      </trkpt>
      <trkpt lat="43.27877000" lon="-1.16914000">
        <ele>145.80000</ele>
        <time>2010-01-01T05:11:19Z</time>
      </trkpt>
      <trkpt lat="43.27861990" lon="-1.16886000">
        <ele>144.90000</ele>
        <time>2010-01-01T05:11:29Z</time>
      </trkpt>
      <trkpt lat="43.27854000" lon="-1.16843000">
        <ele>144.30000</ele>
        <time>2010-01-01T05:11:42Z</time>
      </trkpt>
      <trkpt lat="43.27866000" lon="-1.16785000">
        <ele>144.50000</ele>
        <time>2010-01-01T05:11:59Z</time>
      </trkpt>
      <trkpt lat="43.27932000" lon="-1.16666000">
        <ele>146.40000</ele>
        <time>2010-01-01T05:12:43Z</time>
      </trkpt>
      <trkpt lat="43.28040000" lon="-1.16551000">
        <ele>146.00000</ele>
        <time>2010-01-01T05:13:38Z</time>
      </trkpt>
      <trkpt lat="43.28082000" lon="-1.16496000">
        <ele>142.60000</ele>
        <time>2010-01-01T05:14:01Z</time>
      </trkpt>
      <trkpt lat="43.28091000" lon="-1.16468000">
        <ele>142.90000</ele>
        <time>2010-01-01T05:14:10Z</time>
      </trkpt>
      <trkpt lat="43.28091000" lon="-1.16423000">
        <ele>140.20000</ele>
        <time>2010-01-01T05:14:23Z</time>
      </trkpt>
      <trkpt lat="43.28058000" lon="-1.16331000">
        <ele>138.30000</ele>
        <time>2010-01-01T05:14:53Z</time>
      </trkpt>
      <trkpt lat="43.28010000" lon="-1.16258000">
        <ele>133.80000</ele>
        <time>2010-01-01T05:15:22Z</time>
      </trkpt>
      <trkpt lat="43.27979000" lon="-1.16224000">
        <ele>134.70000</ele>
        <time>2010-01-01T05:15:37Z</time>
      </trkpt>
      <trkpt lat="43.27914000" lon="-1.16197000">
        <ele>134.30000</ele>
        <time>2010-01-01T05:16:05Z</time>
      </trkpt>
      <trkpt lat="43.27899000" lon="-1.16185000">
        <ele>134.20000</ele>
        <time>2010-01-01T05:16:12Z</time>
      </trkpt>
      <trkpt lat="43.27888000" lon="-1.16170000">
        <ele>134.10000</ele>
        <time>2010-01-01T05:16:18Z</time>
      </trkpt>
      <trkpt lat="43.27870000" lon="-1.16106000">
        <ele>134.70000</ele>
        <time>2010-01-01T05:16:38Z</time>
      </trkpt>
      <trkpt lat="43.27846000" lon="-1.16065000">
        <ele>132.10000</ele>
        <time>2010-01-01T05:16:53Z</time>
      </trkpt>
      <trkpt lat="43.27805000" lon="-1.16039000">
        <ele>131.10000</ele>
        <time>2010-01-01T05:17:11Z</time>
      </trkpt>
      <trkpt lat="43.27684000" lon="-1.16008000">
        <ele>127.30000</ele>
        <time>2010-01-01T05:18:00Z</time>
      </trkpt>
      <trkpt lat="43.27664000" lon="-1.15996000">
        <ele>126.20000</ele>
        <time>2010-01-01T05:18:09Z</time>
      </trkpt>
      <trkpt lat="43.27650000" lon="-1.15975990">
        <ele>126.60000</ele>
        <time>2010-01-01T05:18:17Z</time>
      </trkpt>
      <trkpt lat="43.27637000" lon="-1.15922000">
        <ele>126.50000</ele>
        <time>2010-01-01T05:18:34Z</time>
      </trkpt>
      <trkpt lat="43.27623000" lon="-1.15763000">
        <ele>128.90000</ele>
        <time>2010-01-01T05:19:21Z</time>
      </trkpt>
      <trkpt lat="43.27596000" lon="-1.15607000">
        <ele>122.60000</ele>
        <time>2010-01-01T05:20:07Z</time>
      </trkpt>
      <trkpt lat="43.27597990" lon="-1.15528000">
        <ele>120.70000</ele>
        <time>2010-01-01T05:20:30Z</time>
      </trkpt>
      <trkpt lat="43.27608000" lon="-1.15493000">
        <ele>120.40000</ele>
        <time>2010-01-01T05:20:41Z</time>
      </trkpt>
      <trkpt lat="43.27790000" lon="-1.15012000">
        <ele>117.80000</ele>
        <time>2010-01-01T05:23:19Z</time>
      </trkpt>
      <trkpt lat="43.28084000" lon="-1.14630000">
        <ele>116.70000</ele>
        <time>2010-01-01T05:26:01Z</time>
      </trkpt>
      <trkpt lat="43.28103000" lon="-1.14590000">
        <ele>120.40000</ele>
        <time>2010-01-01T05:26:15Z</time>
      </trkpt>
      <trkpt lat="43.28109000" lon="-1.14533000">
        <ele>119.40000</ele>
        <time>2010-01-01T05:26:32Z</time>
      </trkpt>
      <trkpt lat="43.28087000" lon="-1.14181000">
        <ele>121.80000</ele>
        <time>2010-01-01T05:28:15Z</time>
      </trkpt>
      <trkpt lat="43.28097000" lon="-1.14022000">
        <ele>115.60000</ele>
        <time>2010-01-01T05:29:01Z</time>
      </trkpt>
      <trkpt lat="43.28107000" lon="-1.13984000">
        <ele>114.60000</ele>
        <time>2010-01-01T05:29:13Z</time>
      </trkpt>
      <trkpt lat="43.28149000" lon="-1.13919000">
        <ele>113.90000</ele>
        <time>2010-01-01T05:29:39Z</time>
      </trkpt>
      <trkpt lat="43.28164000" lon="-1.13877000">
        <ele>111.60000</ele>
        <time>2010-01-01T05:29:52Z</time>
      </trkpt>
      <trkpt lat="43.28208000" lon="-1.13611000">
        <ele>117.60000</ele>
        <time>2010-01-01T05:31:12Z</time>
      </trkpt>
      <trkpt lat="43.28211000" lon="-1.13559000">
        <ele>117.40000</ele>
        <time>2010-01-01T05:31:27Z</time>
      </trkpt>
      <trkpt lat="43.28177000" lon="-1.13233990">
        <ele>113.00000</ele>
        <time>2010-01-01T05:33:03Z</time>
      </trkpt>
      <trkpt lat="43.28163000" lon="-1.13177000">
        <ele>110.80000</ele>
        <time>2010-01-01T05:33:20Z</time>
      </trkpt>
      <trkpt lat="43.28155000" lon="-1.13165000">
        <ele>110.90000</ele>
        <time>2010-01-01T05:33:25Z</time>
      </trkpt>
      <trkpt lat="43.28097000" lon="-1.13121000">
        <ele>110.30000</ele>
        <time>2010-01-01T05:33:51Z</time>
      </trkpt>
      <trkpt lat="43.28050000" lon="-1.13076000">
        <ele>113.60000</ele>
        <time>2010-01-01T05:34:14Z</time>
      </trkpt>
      <trkpt lat="43.27978000" lon="-1.13050000">
        <ele>120.90000</ele>
        <time>2010-01-01T05:34:44Z</time>
      </trkpt>
      <trkpt lat="43.27957000" lon="-1.13023000">
        <ele>121.70000</ele>
        <time>2010-01-01T05:34:56Z</time>
      </trkpt>
      <trkpt lat="43.27947000" lon="-1.12988000">
        <ele>119.70000</ele>
        <time>2010-01-01T05:35:07Z</time>
      </trkpt>
      <trkpt lat="43.27947000" lon="-1.12945000">
        <ele>116.00000</ele>
        <time>2010-01-01T05:35:19Z</time>
      </trkpt>
      <trkpt lat="43.27963000" lon="-1.12853000">
        <ele>113.00000</ele>
        <time>2010-01-01T05:35:47Z</time>
      </trkpt>
      <trkpt lat="43.27954000" lon="-1.12686000">
        <ele>114.10000</ele>
        <time>2010-01-01T05:36:35Z</time>
      </trkpt>
      <trkpt lat="43.27961000" lon="-1.12622000">
        <ele>115.00000</ele>
        <time>2010-01-01T05:36:54Z</time>
      </trkpt>
      <trkpt lat="43.28020990" lon="-1.12449000">
        <ele>109.50000</ele>
        <time>2010-01-01T05:37:50Z</time>
      </trkpt>
      <trkpt lat="43.28045000" lon="-1.12423000">
        <ele>108.20000</ele>
        <time>2010-01-01T05:38:02Z</time>
      </trkpt>
      <trkpt lat="43.28097000" lon="-1.12389000">
        <ele>105.50000</ele>
        <time>2010-01-01T05:38:25Z</time>
      </trkpt>
      <trkpt lat="43.28114990" lon="-1.12360000">
        <ele>105.20000</ele>
        <time>2010-01-01T05:38:37Z</time>
      </trkpt>
      <trkpt lat="43.28127000" lon="-1.12322000">
        <ele>105.30000</ele>
        <time>2010-01-01T05:38:49Z</time>
      </trkpt>
      <trkpt lat="43.28126000" lon="-1.12255000">
        <ele>107.70000</ele>
        <time>2010-01-01T05:39:08Z</time>
      </trkpt>
      <trkpt lat="43.28075000" lon="-1.11958000">
        <ele>104.70000</ele>
        <time>2010-01-01T05:40:37Z</time>
      </trkpt>
      <trkpt lat="43.28060000" lon="-1.11911990">
        <ele>105.00000</ele>
        <time>2010-01-01T05:40:52Z</time>
      </trkpt>
      <trkpt lat="43.28019000" lon="-1.11846000">
        <ele>104.70000</ele>
        <time>2010-01-01T05:41:17Z</time>
      </trkpt>
      <trkpt lat="43.27960000" lon="-1.11784000">
        <ele>110.60000</ele>
        <time>2010-01-01T05:41:47Z</time>
      </trkpt>
      <trkpt lat="43.27942000" lon="-1.11757000">
        <ele>111.60000</ele>
        <time>2010-01-01T05:41:57Z</time>
      </trkpt>
      <trkpt lat="43.27930000" lon="-1.11730000">
        <ele>111.80000</ele>
        <time>2010-01-01T05:42:07Z</time>
      </trkpt>
      <trkpt lat="43.27911000" lon="-1.11644000">
        <ele>110.30000</ele>
        <time>2010-01-01T05:42:33Z</time>
      </trkpt>
      <trkpt lat="43.27860000" lon="-1.11530000">
        <ele>114.40000</ele>
        <time>2010-01-01T05:43:12Z</time>
      </trkpt>
      <trkpt lat="43.27851000" lon="-1.11494000">
        <ele>113.80000</ele>
        <time>2010-01-01T05:43:23Z</time>
      </trkpt>
      <trkpt lat="43.27849000" lon="-1.11448000">
        <ele>112.00000</ele>
        <time>2010-01-01T05:43:36Z</time>
      </trkpt>
      <trkpt lat="43.27860000" lon="-1.11293000">
        <ele>115.40000</ele>
        <time>2010-01-01T05:44:22Z</time>
      </trkpt>
      <trkpt lat="43.27851000" lon="-1.11219000">
        <ele>116.00000</ele>
        <time>2010-01-01T05:44:44Z</time>
      </trkpt>
      <trkpt lat="43.27821000" lon="-1.11149000">
        <ele>116.40000</ele>
        <time>2010-01-01T05:45:07Z</time>
      </trkpt>
      <trkpt lat="43.27803000" lon="-1.11121000">
        <ele>118.80000</ele>
        <time>2010-01-01T05:45:18Z</time>
      </trkpt>
      <trkpt lat="43.27742000" lon="-1.11060000">
        <ele>123.10000</ele>
        <time>2010-01-01T05:45:48Z</time>
      </trkpt>
      <trkpt lat="43.27720990" lon="-1.11013990">
        <ele>119.30000</ele>
        <time>2010-01-01T05:46:04Z</time>
      </trkpt>
      <trkpt lat="43.27654000" lon="-1.10743000">
        <ele>94.900000</ele>
        <time>2010-01-01T05:47:28Z</time>
      </trkpt>
      <trkpt lat="43.27660000" lon="-1.10708000">
        <ele>93.000000</ele>
        <time>2010-01-01T05:47:38Z</time>
      </trkpt>
      <trkpt lat="43.27736000" lon="-1.10632000">
        <ele>93.500000</ele>
        <time>2010-01-01T05:48:16Z</time>
      </trkpt>
      <trkpt lat="43.27790000" lon="-1.10464000">
        <ele>97.800000</ele>
        <time>2010-01-01T05:49:09Z</time>
      </trkpt>
      <trkpt lat="43.27808000" lon="-1.10446000">
        <ele>99.000000</ele>
        <time>2010-01-01T05:49:18Z</time>
      </trkpt>
      <trkpt lat="43.27860000" lon="-1.10415000">
        <ele>103.40000</ele>
        <time>2010-01-01T05:49:41Z</time>
      </trkpt>
      <trkpt lat="43.27890000" lon="-1.10384000">
        <ele>104.80000</ele>
        <time>2010-01-01T05:49:56Z</time>
      </trkpt>
      <trkpt lat="43.27985000" lon="-1.10229000">
        <ele>100.80000</ele>
        <time>2010-01-01T05:50:55Z</time>
      </trkpt>
      <trkpt lat="43.28131000" lon="-1.10030990">
        <ele>97.800000</ele>
        <time>2010-01-01T05:52:17Z</time>
      </trkpt>
      <trkpt lat="43.28161000" lon="-1.10015000">
        <ele>98.000000</ele>
        <time>2010-01-01T05:52:30Z</time>
      </trkpt>
      <trkpt lat="43.28190000" lon="-1.10019000">
        <ele>96.900000</ele>
        <time>2010-01-01T05:52:42Z</time>
      </trkpt>
      <trkpt lat="43.28243000" lon="-1.10074990">
        <ele>97.300000</ele>
        <time>2010-01-01T05:53:08Z</time>
      </trkpt>
      <trkpt lat="43.28262000" lon="-1.10086000">
        <ele>96.500000</ele>
        <time>2010-01-01T05:53:17Z</time>
      </trkpt>
      <trkpt lat="43.28288000" lon="-1.10082000">
        <ele>94.700000</ele>
        <time>2010-01-01T05:53:27Z</time>
      </trkpt>
      <trkpt lat="43.28304000" lon="-1.10068000">
        <ele>94.000000</ele>
        <time>2010-01-01T05:53:35Z</time>
      </trkpt>
      <trkpt lat="43.28318000" lon="-1.10035000">
        <ele>95.000000</ele>
        <time>2010-01-01T05:53:46Z</time>
      </trkpt>
      <trkpt lat="43.28319000" lon="-1.10016000">
        <ele>95.900000</ele>
        <time>2010-01-01T05:53:51Z</time>
      </trkpt>
      <trkpt lat="43.28293000" lon="-1.09929000">
        <ele>96.300000</ele>
        <time>2010-01-01T05:54:19Z</time>
      </trkpt>
      <trkpt lat="43.28297000" lon="-1.09870000">
        <ele>98.100000</ele>
        <time>2010-01-01T05:54:36Z</time>
      </trkpt>
      <trkpt lat="43.28315000" lon="-1.09828000">
        <ele>101.10000</ele>
        <time>2010-01-01T05:54:50Z</time>
      </trkpt>
      <trkpt lat="43.28396000" lon="-1.09717000">
        <ele>101.90000</ele>
        <time>2010-01-01T05:55:36Z</time>
      </trkpt>
      <trkpt lat="43.28405000" lon="-1.09711000">
        <ele>102.50000</ele>
        <time>2010-01-01T05:55:40Z</time>
      </trkpt>
      <trkpt lat="43.28421000" lon="-1.09717000">
        <ele>103.00000</ele>
        <time>2010-01-01T05:55:47Z</time>
      </trkpt>
      <trkpt lat="43.28455000" lon="-1.09784000">
        <ele>104.90000</ele>
        <time>2010-01-01T05:56:10Z</time>
      </trkpt>
      <trkpt lat="43.28491000" lon="-1.09820000">
        <ele>105.90000</ele>
        <time>2010-01-01T05:56:28Z</time>
      </trkpt>
      <trkpt lat="43.28525000" lon="-1.09839000">
        <ele>104.00000</ele>
        <time>2010-01-01T05:56:43Z</time>
      </trkpt>
      <trkpt lat="43.28627000" lon="-1.09876000">
        <ele>97.500000</ele>
        <time>2010-01-01T05:57:25Z</time>
      </trkpt>
      <trkpt lat="43.28648000" lon="-1.09880000">
        <ele>96.100000</ele>
        <time>2010-01-01T05:57:34Z</time>
      </trkpt>
      <trkpt lat="43.28687990" lon="-1.09874990">
        <ele>92.100000</ele>
        <time>2010-01-01T05:57:50Z</time>
      </trkpt>
      <trkpt lat="43.28756000" lon="-1.09836000">
        <ele>83.100000</ele>
        <time>2010-01-01T05:58:19Z</time>
      </trkpt>
      <trkpt lat="43.28775000" lon="-1.09836000">
        <ele>82.300000</ele>
        <time>2010-01-01T05:58:27Z</time>
      </trkpt>
      <trkpt lat="43.28864000" lon="-1.09867000">
        <ele>87.100000</ele>
        <time>2010-01-01T05:59:04Z</time>
      </trkpt>
      <trkpt lat="43.28910000" lon="-1.09867000">
        <ele>89.000000</ele>
        <time>2010-01-01T05:59:22Z</time>
      </trkpt>
      <trkpt lat="43.28940000" lon="-1.09841000">
        <ele>87.700000</ele>
        <time>2010-01-01T05:59:36Z</time>
      </trkpt>
      <trkpt lat="43.28970000" lon="-1.09759000">
        <ele>83.400000</ele>
        <time>2010-01-01T06:00:03Z</time>
      </trkpt>
      <trkpt lat="43.29026000" lon="-1.09690000">
        <ele>83.900000</ele>
        <time>2010-01-01T06:00:33Z</time>
      </trkpt>
      <trkpt lat="43.29081990" lon="-1.09588000">
        <ele>79.500000</ele>
        <time>2010-01-01T06:01:10Z</time>
      </trkpt>
      <trkpt lat="43.29164000" lon="-1.09493000">
        <ele>76.600000</ele>
        <time>2010-01-01T06:01:53Z</time>
      </trkpt>
      <trkpt lat="43.29225000" lon="-1.09434000">
        <ele>79.400000</ele>
        <time>2010-01-01T06:02:23Z</time>
      </trkpt>
      <trkpt lat="43.29289000" lon="-1.09384000">
        <ele>83.400000</ele>
        <time>2010-01-01T06:02:53Z</time>
      </trkpt>
      <trkpt lat="43.29499000" lon="-1.09242000">
        <ele>77.200000</ele>
        <time>2010-01-01T06:04:26Z</time>
      </trkpt>
      <trkpt lat="43.29631000" lon="-1.09129000">
        <ele>81.900000</ele>
        <time>2010-01-01T06:05:29Z</time>
      </trkpt>
      <trkpt lat="43.29694000" lon="-1.09067000">
        <ele>79.000000</ele>
        <time>2010-01-01T06:06:00Z</time>
      </trkpt>
      <trkpt lat="43.29766990" lon="-1.08967000">
        <ele>83.100000</ele>
        <time>2010-01-01T06:06:41Z</time>
      </trkpt>
      <trkpt lat="43.29827000" lon="-1.08840000">
        <ele>83.700000</ele>
        <time>2010-01-01T06:07:25Z</time>
      </trkpt>
      <trkpt lat="43.29911000" lon="-1.08623000">
        <ele>84.400000</ele>
        <time>2010-01-01T06:08:37Z</time>
      </trkpt>
      <trkpt lat="43.29927000" lon="-1.08529000">
        <ele>85.500000</ele>
        <time>2010-01-01T06:09:05Z</time>
      </trkpt>
      <trkpt lat="43.29911000" lon="-1.08459000">
        <ele>88.900000</ele>
        <time>2010-01-01T06:09:26Z</time>
      </trkpt>
      <trkpt lat="43.29780000" lon="-1.08313000">
        <ele>85.300000</ele>
        <time>2010-01-01T06:10:34Z</time>
      </trkpt>
      <trkpt lat="43.29748000" lon="-1.08268000">
        <ele>80.600000</ele>
        <time>2010-01-01T06:10:52Z</time>
      </trkpt>
      <trkpt lat="43.29694000" lon="-1.08156000">
        <ele>76.900000</ele>
        <time>2010-01-01T06:11:31Z</time>
      </trkpt>
      <trkpt lat="43.29632000" lon="-1.07993990">
        <ele>71.600000</ele>
        <time>2010-01-01T06:12:24Z</time>
      </trkpt>
      <trkpt lat="43.29616000" lon="-1.07937000">
        <ele>71.700000</ele>
        <time>2010-01-01T06:12:42Z</time>
      </trkpt>
      <trkpt lat="43.29619000" lon="-1.07886000">
        <ele>71.400000</ele>
        <time>2010-01-01T06:12:57Z</time>
      </trkpt>
      <trkpt lat="43.29631000" lon="-1.07850000">
        <ele>70.700000</ele>
        <time>2010-01-01T06:13:09Z</time>
      </trkpt>
      <trkpt lat="43.29659000" lon="-1.07815000">
        <ele>69.300000</ele>
        <time>2010-01-01T06:13:24Z</time>
      </trkpt>
      <trkpt lat="43.29736000" lon="-1.07751000">
        <ele>68.900000</ele>
        <time>2010-01-01T06:14:00Z</time>
      </trkpt>
      <trkpt lat="43.29788000" lon="-1.07715000">
        <ele>69.800000</ele>
        <time>2010-01-01T06:14:23Z</time>
      </trkpt>
      <trkpt lat="43.29848000" lon="-1.07684000">
        <ele>68.500000</ele>
        <time>2010-01-01T06:14:49Z</time>
      </trkpt>
      <trkpt lat="43.29919000" lon="-1.07667000">
        <ele>68.000000</ele>
        <time>2010-01-01T06:15:18Z</time>
      </trkpt>
      <trkpt lat="43.30008000" lon="-1.07660000">
        <ele>68.500000</ele>
        <time>2010-01-01T06:15:53Z</time>
      </trkpt>
      <trkpt lat="43.30146000" lon="-1.07636000">
        <ele>71.000000</ele>
        <time>2010-01-01T06:16:49Z</time>
      </trkpt>
      <trkpt lat="43.30239000" lon="-1.07606000">
        <ele>67.600000</ele>
        <time>2010-01-01T06:17:27Z</time>
      </trkpt>
      <trkpt lat="43.30271000" lon="-1.07581000">
        <ele>68.200000</ele>
        <time>2010-01-01T06:17:42Z</time>
      </trkpt>
      <trkpt lat="43.30298000" lon="-1.07549000">
        <ele>69.200000</ele>
        <time>2010-01-01T06:17:56Z</time>
      </trkpt>
      <trkpt lat="43.30402000" lon="-1.07360000">
        <ele>67.100000</ele>
        <time>2010-01-01T06:19:05Z</time>
      </trkpt>
      <trkpt lat="43.30418000" lon="-1.07343000">
        <ele>65.800000</ele>
        <time>2010-01-01T06:19:13Z</time>
      </trkpt>
      <trkpt lat="43.30498990" lon="-1.07291000">
        <ele>66.900000</ele>
        <time>2010-01-01T06:19:49Z</time>
      </trkpt>
      <trkpt lat="43.30568000" lon="-1.07226000">
        <ele>68.500000</ele>
        <time>2010-01-01T06:20:23Z</time>
      </trkpt>
      <trkpt lat="43.30598000" lon="-1.07182000">
        <ele>69.000000</ele>
        <time>2010-01-01T06:20:40Z</time>
      </trkpt>
      <trkpt lat="43.30645000" lon="-1.07088000">
        <ele>65.700000</ele>
        <time>2010-01-01T06:21:13Z</time>
      </trkpt>
      <trkpt lat="43.30779000" lon="-1.06932000">
        <ele>68.500000</ele>
        <time>2010-01-01T06:22:24Z</time>
      </trkpt>
      <trkpt lat="43.31007000" lon="-1.06720000">
        <ele>81.500000</ele>
        <time>2010-01-01T06:24:14Z</time>
      </trkpt>
      <trkpt lat="43.31095000" lon="-1.06675000">
        <ele>86.700000</ele>
        <time>2010-01-01T06:24:51Z</time>
      </trkpt>
      <trkpt lat="43.31120000" lon="-1.06656000">
        <ele>86.700000</ele>
        <time>2010-01-01T06:25:03Z</time>
      </trkpt>
      <trkpt lat="43.31383000" lon="-1.06405000">
        <ele>83.300000</ele>
        <time>2010-01-01T06:27:11Z</time>
      </trkpt>
      <trkpt lat="43.31507000" lon="-1.06305000">
        <ele>73.600000</ele>
        <time>2010-01-01T06:28:09Z</time>
      </trkpt>
      <trkpt lat="43.31577990" lon="-1.06237000">
        <ele>68.100000</ele>
        <time>2010-01-01T06:28:43Z</time>
      </trkpt>
      <trkpt lat="43.31601000" lon="-1.06202000">
        <ele>67.600000</ele>
        <time>2010-01-01T06:28:57Z</time>
      </trkpt>
      <trkpt lat="43.31612000" lon="-1.06160000">
        <ele>67.600000</ele>
        <time>2010-01-01T06:29:10Z</time>
      </trkpt>
      <trkpt lat="43.31610000" lon="-1.06125000">
        <ele>67.100000</ele>
        <time>2010-01-01T06:29:20Z</time>
      </trkpt>
      <trkpt lat="43.31588000" lon="-1.06061000">
        <ele>64.500000</ele>
        <time>2010-01-01T06:29:41Z</time>
      </trkpt>
      <trkpt lat="43.31583000" lon="-1.06029000">
        <ele>62.100000</ele>
        <time>2010-01-01T06:29:50Z</time>
      </trkpt>
      <trkpt lat="43.31585000" lon="-1.05996000">
        <ele>60.100000</ele>
        <time>2010-01-01T06:30:00Z</time>
      </trkpt>
      <trkpt lat="43.31599000" lon="-1.05960000">
        <ele>60.500000</ele>
        <time>2010-01-01T06:30:12Z</time>
      </trkpt>
      <trkpt lat="43.31619000" lon="-1.05937000">
        <ele>60.700000</ele>
        <time>2010-01-01T06:30:22Z</time>
      </trkpt>
      <trkpt lat="43.31641000" lon="-1.05922990">
        <ele>60.800000</ele>
        <time>2010-01-01T06:30:32Z</time>
      </trkpt>
      <trkpt lat="43.31770000" lon="-1.05860000">
        <ele>63.000000</ele>
        <time>2010-01-01T06:31:27Z</time>
      </trkpt>
      <trkpt lat="43.31812000" lon="-1.05815000">
        <ele>64.100000</ele>
        <time>2010-01-01T06:31:48Z</time>
      </trkpt>
      <trkpt lat="43.31829000" lon="-1.05777000">
        <ele>63.400000</ele>
        <time>2010-01-01T06:32:01Z</time>
      </trkpt>
      <trkpt lat="43.31851000" lon="-1.05499000">
        <ele>62.900000</ele>
        <time>2010-01-01T06:33:23Z</time>
      </trkpt>
      <trkpt lat="43.31794000" lon="-1.05207000">
        <ele>67.900000</ele>
        <time>2010-01-01T06:34:51Z</time>
      </trkpt>
      <trkpt lat="43.31795000" lon="-1.05159000">
        <ele>68.400000</ele>
        <time>2010-01-01T06:35:05Z</time>
      </trkpt>
      <trkpt lat="43.31812000" lon="-1.05128000">
        <ele>67.500000</ele>
        <time>2010-01-01T06:35:16Z</time>
      </trkpt>
      <trkpt lat="43.31839000" lon="-1.05101000">
        <ele>66.700000</ele>
        <time>2010-01-01T06:35:29Z</time>
      </trkpt>
      <trkpt lat="43.31926000" lon="-1.05028000">
        <ele>66.300000</ele>
        <time>2010-01-01T06:36:10Z</time>
      </trkpt>
      <trkpt lat="43.31947000" lon="-1.04992000">
        <ele>60.700000</ele>
        <time>2010-01-01T06:36:24Z</time>
      </trkpt>
      <trkpt lat="43.31984000" lon="-1.04900000">
        <ele>50.500000</ele>
        <time>2010-01-01T06:36:54Z</time>
      </trkpt>
      <trkpt lat="43.31995000" lon="-1.04862000">
        <ele>50.900000</ele>
        <time>2010-01-01T06:37:06Z</time>
      </trkpt>
      <trkpt lat="43.32018000" lon="-1.04508000">
        <ele>54.100000</ele>
        <time>2010-01-01T06:38:50Z</time>
      </trkpt>
      <trkpt lat="43.32027000" lon="-1.04441990">
        <ele>54.500000</ele>
        <time>2010-01-01T06:39:09Z</time>
      </trkpt>
      <trkpt lat="43.32136000" lon="-1.04119990">
        <ele>48.200000</ele>
        <time>2010-01-01T06:40:53Z</time>
      </trkpt>
      <trkpt lat="43.32121000" lon="-1.04112000">
        <ele>49.000000</ele>
        <time>2010-01-01T06:40:59Z</time>
      </trkpt>
      <trkpt lat="43.32060000" lon="-1.04019000">
        <ele>52.100000</ele>
        <time>2010-01-01T06:41:36Z</time>
      </trkpt>
      <trkpt lat="43.32055000" lon="-1.03970000">
        <ele>52.600000</ele>
        <time>2010-01-01T06:41:50Z</time>
      </trkpt>
      <trkpt lat="43.32015000" lon="-1.03891000">
        <ele>53.300000</ele>
        <time>2010-01-01T06:42:18Z</time>
      </trkpt>
      <trkpt lat="43.31976000" lon="-1.03852000">
        <ele>58.400000</ele>
        <time>2010-01-01T06:42:37Z</time>
      </trkpt>
      <trkpt lat="43.31937000" lon="-1.03836000">
        <ele>64.300000</ele>
        <time>2010-01-01T06:42:54Z</time>
      </trkpt>
      <trkpt lat="43.31896000" lon="-1.03792000">
        <ele>72.300000</ele>
        <time>2010-01-01T06:43:14Z</time>
      </trkpt>
      <trkpt lat="43.31864000" lon="-1.03742000">
        <ele>78.800000</ele>
        <time>2010-01-01T06:43:34Z</time>
      </trkpt>
      <trkpt lat="43.31853000" lon="-1.03734000">
        <ele>80.400000</ele>
        <time>2010-01-01T06:43:39Z</time>
      </trkpt>
      <trkpt lat="43.31811000" lon="-1.03604000">
        <ele>75.300000</ele>
        <time>2010-01-01T06:44:20Z</time>
      </trkpt>
      <trkpt lat="43.31800000" lon="-1.03560000">
        <ele>71.900000</ele>
        <time>2010-01-01T06:44:34Z</time>
      </trkpt>
      <trkpt lat="43.31806000" lon="-1.03485000">
        <ele>68.200000</ele>
        <time>2010-01-01T06:44:56Z</time>
      </trkpt>
      <trkpt lat="43.31780000" lon="-1.03367000">
        <ele>69.100000</ele>
        <time>2010-01-01T06:45:32Z</time>
      </trkpt>
      <trkpt lat="43.31762000" lon="-1.03188000">
        <ele>67.400000</ele>
        <time>2010-01-01T06:46:24Z</time>
      </trkpt>
      <trkpt lat="43.31744000" lon="-1.03118000">
        <ele>66.800000</ele>
        <time>2010-01-01T06:46:46Z</time>
      </trkpt>
      <trkpt lat="43.31708000" lon="-1.03033000">
        <ele>68.700000</ele>
        <time>2010-01-01T06:47:15Z</time>
      </trkpt>
      <trkpt lat="43.31534000" lon="-1.02362000">
        <ele>65.500000</ele>
        <time>2010-01-01T06:50:42Z</time>
      </trkpt>
      <trkpt lat="43.31494000" lon="-1.02241000">
        <ele>63.300000</ele>
        <time>2010-01-01T06:51:21Z</time>
      </trkpt>
      <trkpt lat="43.31465000" lon="-1.02122000">
        <ele>61.000000</ele>
        <time>2010-01-01T06:51:57Z</time>
      </trkpt>
      <trkpt lat="43.31470000" lon="-1.02104000">
        <ele>59.600000</ele>
        <time>2010-01-01T06:52:03Z</time>
      </trkpt>
      <trkpt lat="43.31521000" lon="-1.02073000">
        <ele>55.600000</ele>
        <time>2010-01-01T06:52:25Z</time>
      </trkpt>
      <trkpt lat="43.31608000" lon="-1.02054000">
        <ele>54.800000</ele>
        <time>2010-01-01T06:53:00Z</time>
      </trkpt>
      <trkpt lat="43.31553000" lon="-1.01925000">
        <ele>55.300000</ele>
        <time>2010-01-01T06:53:44Z</time>
      </trkpt>
      <trkpt lat="43.31537000" lon="-1.01872000">
        <ele>53.900000</ele>
        <time>2010-01-01T06:54:01Z</time>
      </trkpt>
      <trkpt lat="43.31412000" lon="-1.01549000">
        <ele>59.800000</ele>
        <time>2010-01-01T06:55:47Z</time>
      </trkpt>
      <trkpt lat="43.31386000" lon="-1.01364000">
        <ele>62.100000</ele>
        <time>2010-01-01T06:56:42Z</time>
      </trkpt>
      <trkpt lat="43.31257000" lon="-1.00916000">
        <ele>65.300000</ele>
        <time>2010-01-01T06:59:02Z</time>
      </trkpt>
      <trkpt lat="43.31219000" lon="-1.00838000">
        <ele>66.800000</ele>
        <time>2010-01-01T06:59:30Z</time>
      </trkpt>
      <trkpt lat="43.31190000" lon="-1.00802000">
        <ele>66.400000</ele>
        <time>2010-01-01T06:59:45Z</time>
      </trkpt>
      <trkpt lat="43.31136000" lon="-1.00762000">
        <ele>66.400000</ele>
        <time>2010-01-01T07:00:10Z</time>
      </trkpt>
      <trkpt lat="43.31097000" lon="-1.00750990">
        <ele>68.700000</ele>
        <time>2010-01-01T07:00:26Z</time>
      </trkpt>
      <trkpt lat="43.31048000" lon="-1.00754000">
        <ele>71.000000</ele>
        <time>2010-01-01T07:00:46Z</time>
      </trkpt>
      <trkpt lat="43.30960000" lon="-1.00787000">
        <ele>77.500000</ele>
        <time>2010-01-01T07:01:22Z</time>
      </trkpt>
      <trkpt lat="43.30908000" lon="-1.00814000">
        <ele>77.800000</ele>
        <time>2010-01-01T07:01:44Z</time>
      </trkpt>
      <trkpt lat="43.30809000" lon="-1.00880000">
        <ele>76.200000</ele>
        <time>2010-01-01T07:02:28Z</time>
      </trkpt>
      <trkpt lat="43.30742000" lon="-1.00937000">
        <ele>78.600000</ele>
        <time>2010-01-01T07:03:00Z</time>
      </trkpt>
      <trkpt lat="43.30685000" lon="-1.00968000">
        <ele>74.500000</ele>
        <time>2010-01-01T07:03:24Z</time>
      </trkpt>
      <trkpt lat="43.30650000" lon="-1.00908000">
        <ele>60.700000</ele>
        <time>2010-01-01T07:03:47Z</time>
      </trkpt>
      <trkpt lat="43.30627000" lon="-1.00888000">
        <ele>63.500000</ele>
        <time>2010-01-01T07:03:58Z</time>
      </trkpt>
      <trkpt lat="43.30632000" lon="-1.00865990">
        <ele>63.400000</ele>
        <time>2010-01-01T07:04:04Z</time>
      </trkpt>
      <trkpt lat="43.30629000" lon="-1.00847000">
        <ele>64.200000</ele>
        <time>2010-01-01T07:04:10Z</time>
      </trkpt>
      <trkpt lat="43.30592000" lon="-1.00743990">
        <ele>72.300000</ele>
        <time>2010-01-01T07:04:44Z</time>
      </trkpt>
      <trkpt lat="43.30540000" lon="-1.00671000">
        <ele>74.200000</ele>
        <time>2010-01-01T07:05:13Z</time>
      </trkpt>
      <trkpt lat="43.30522000" lon="-1.00654000">
        <ele>74.500000</ele>
        <time>2010-01-01T07:05:22Z</time>
      </trkpt>
      <trkpt lat="43.30416000" lon="-1.00650000">
        <ele>77.200000</ele>
        <time>2010-01-01T07:06:05Z</time>
      </trkpt>
      <trkpt lat="43.30363000" lon="-1.00655990">
        <ele>76.100000</ele>
        <time>2010-01-01T07:06:26Z</time>
      </trkpt>
      <trkpt lat="43.30297000" lon="-1.00644000">
        <ele>74.500000</ele>
        <time>2010-01-01T07:06:52Z</time>
      </trkpt>
      <trkpt lat="43.30194000" lon="-1.00652000">
        <ele>76.600000</ele>
        <time>2010-01-01T07:07:34Z</time>
      </trkpt>
      <trkpt lat="43.30151990" lon="-1.00645000">
        <ele>80.900000</ele>
        <time>2010-01-01T07:07:51Z</time>
      </trkpt>
      <trkpt lat="43.30127000" lon="-1.00628000">
        <ele>84.200000</ele>
        <time>2010-01-01T07:08:02Z</time>
      </trkpt>
      <trkpt lat="43.30050000" lon="-1.00519000">
        <ele>81.100000</ele>
        <time>2010-01-01T07:08:46Z</time>
      </trkpt>
      <trkpt lat="43.30004000" lon="-1.00485000">
        <ele>81.500000</ele>
        <time>2010-01-01T07:09:07Z</time>
      </trkpt>
      <trkpt lat="43.29967000" lon="-1.00479000">
        <ele>81.200000</ele>
        <time>2010-01-01T07:09:22Z</time>
      </trkpt>
      <trkpt lat="43.29931000" lon="-1.00487000">
        <ele>81.900000</ele>
        <time>2010-01-01T07:09:37Z</time>
      </trkpt>
      <trkpt lat="43.29806000" lon="-1.00539000">
        <ele>86.300000</ele>
        <time>2010-01-01T07:10:29Z</time>
      </trkpt>
      <trkpt lat="43.29793990" lon="-1.00533990">
        <ele>85.600000</ele>
        <time>2010-01-01T07:10:34Z</time>
      </trkpt>
      <trkpt lat="43.29782000" lon="-1.00519000">
        <ele>83.900000</ele>
        <time>2010-01-01T07:10:40Z</time>
      </trkpt>
      <trkpt lat="43.29734000" lon="-1.00443000">
        <ele>89.200000</ele>
        <time>2010-01-01T07:11:10Z</time>
      </trkpt>
      <trkpt lat="43.29715000" lon="-1.00426000">
        <ele>89.700000</ele>
        <time>2010-01-01T07:11:19Z</time>
      </trkpt>
      <trkpt lat="43.29674000" lon="-1.00405000">
        <ele>90.000000</ele>
        <time>2010-01-01T07:11:36Z</time>
      </trkpt>
      <trkpt lat="43.29628000" lon="-1.00339000">
        <ele>97.200000</ele>
        <time>2010-01-01T07:12:03Z</time>
      </trkpt>
      <trkpt lat="43.29609000" lon="-1.00336000">
        <ele>94.700000</ele>
        <time>2010-01-01T07:12:11Z</time>
      </trkpt>
      <trkpt lat="43.29558000" lon="-1.00360990">
        <ele>89.000000</ele>
        <time>2010-01-01T07:12:32Z</time>
      </trkpt>
      <trkpt lat="43.29535000" lon="-1.00354000">
        <ele>88.900000</ele>
        <time>2010-01-01T07:12:42Z</time>
      </trkpt>
      <trkpt lat="43.29519000" lon="-1.00336000">
        <ele>88.700000</ele>
        <time>2010-01-01T07:12:50Z</time>
      </trkpt>
      <trkpt lat="43.29484990" lon="-1.00271000">
        <ele>92.500000</ele>
        <time>2010-01-01T07:13:13Z</time>
      </trkpt>
      <trkpt lat="43.29440000" lon="-1.00249000">
        <ele>90.700000</ele>
        <time>2010-01-01T07:13:32Z</time>
      </trkpt>
      <trkpt lat="43.29412000" lon="-1.00218000">
        <ele>89.500000</ele>
        <time>2010-01-01T07:13:47Z</time>
      </trkpt>
      <trkpt lat="43.29398000" lon="-1.00181000">
        <ele>89.800000</ele>
        <time>2010-01-01T07:13:59Z</time>
      </trkpt>
      <trkpt lat="43.29370000" lon="-1.00051000">
        <ele>89.700000</ele>
        <time>2010-01-01T07:14:38Z</time>
      </trkpt>
      <trkpt lat="43.29328000" lon="-0.99977000">
        <ele>87.800000</ele>
        <time>2010-01-01T07:15:06Z</time>
      </trkpt>
      <trkpt lat="43.29307000" lon="-0.99959000">
        <ele>87.500000</ele>
        <time>2010-01-01T07:15:16Z</time>
      </trkpt>
      <trkpt lat="43.29231990" lon="-0.99962000">
        <ele>86.300000</ele>
        <time>2010-01-01T07:15:46Z</time>
      </trkpt>
      <trkpt lat="43.29214000" lon="-0.99960000">
        <ele>86.700000</ele>
        <time>2010-01-01T07:15:53Z</time>
      </trkpt>
      <trkpt lat="43.29195000" lon="-0.99950000">
        <ele>86.600000</ele>
        <time>2010-01-01T07:16:01Z</time>
      </trkpt>
      <trkpt lat="43.29013000" lon="-0.99763000">
        <ele>90.500000</ele>
        <time>2010-01-01T07:17:32Z</time>
      </trkpt>
      <trkpt lat="43.28981000" lon="-0.99687000">
        <ele>90.900000</ele>
        <time>2010-01-01T07:17:58Z</time>
      </trkpt>
      <trkpt lat="43.28835000" lon="-0.99248000">
        <ele>93.400000</ele>
        <time>2010-01-01T07:20:18Z</time>
      </trkpt>
      <trkpt lat="43.28699000" lon="-0.99013000">
        <ele>99.400000</ele>
        <time>2010-01-01T07:21:46Z</time>
      </trkpt>
      <trkpt lat="43.28687990" lon="-0.99002000">
        <ele>98.700000</ele>
        <time>2010-01-01T07:21:51Z</time>
      </trkpt>
      <trkpt lat="43.28667990" lon="-0.98997000">
        <ele>96.400000</ele>
        <time>2010-01-01T07:21:59Z</time>
      </trkpt>
      <trkpt lat="43.28564000" lon="-0.99009000">
        <ele>102.10000</ele>
        <time>2010-01-01T07:22:41Z</time>
      </trkpt>
      <trkpt lat="43.28535000" lon="-0.99005000">
        <ele>100.80000</ele>
        <time>2010-01-01T07:22:53Z</time>
      </trkpt>
      <trkpt lat="43.28488000" lon="-0.98968000">
        <ele>104.00000</ele>
        <time>2010-01-01T07:23:14Z</time>
      </trkpt>
      <trkpt lat="43.28080000" lon="-0.98775000">
        <ele>111.10000</ele>
        <time>2010-01-01T07:26:07Z</time>
      </trkpt>
      <trkpt lat="43.28039000" lon="-0.98742000">
        <ele>111.70000</ele>
        <time>2010-01-01T07:26:26Z</time>
      </trkpt>
      <trkpt lat="43.27987000" lon="-0.98607000">
        <ele>116.80000</ele>
        <time>2010-01-01T07:27:11Z</time>
      </trkpt>
      <trkpt lat="43.27970000" lon="-0.98472000">
        <ele>119.20000</ele>
        <time>2010-01-01T07:27:51Z</time>
      </trkpt>
      <trkpt lat="43.27885000" lon="-0.98219000">
        <ele>127.50000</ele>
        <time>2010-01-01T07:29:12Z</time>
      </trkpt>
      <trkpt lat="43.27715000" lon="-0.97931000">
        <ele>143.40000</ele>
        <time>2010-01-01T07:31:00Z</time>
      </trkpt>
      <trkpt lat="43.27611000" lon="-0.97780000">
        <ele>155.20000</ele>
        <time>2010-01-01T07:32:00Z</time>
      </trkpt>
      <trkpt lat="43.27596000" lon="-0.97731000">
        <ele>156.60000</ele>
        <time>2010-01-01T07:32:16Z</time>
      </trkpt>
      <trkpt lat="43.27595000" lon="-0.97693000">
        <ele>156.80000</ele>
        <time>2010-01-01T07:32:27Z</time>
      </trkpt>
      <trkpt lat="43.27551000" lon="-0.97669000">
        <ele>154.40000</ele>
        <time>2010-01-01T07:32:46Z</time>
      </trkpt>
      <trkpt lat="43.27512000" lon="-0.97612000">
        <ele>154.90000</ele>
        <time>2010-01-01T07:33:09Z</time>
      </trkpt>
      <trkpt lat="43.27500000" lon="-0.97606000">
        <ele>154.90000</ele>
        <time>2010-01-01T07:33:14Z</time>
      </trkpt>
      <trkpt lat="43.27428000" lon="-0.97618000">
        <ele>158.80000</ele>
        <time>2010-01-01T07:33:43Z</time>
      </trkpt>
      <trkpt lat="43.27344990" lon="-0.97648000">
        <ele>162.90000</ele>
        <time>2010-01-01T07:34:17Z</time>
      </trkpt>
      <trkpt lat="43.27248000" lon="-0.97626000">
        <ele>169.00000</ele>
        <time>2010-01-01T07:34:57Z</time>
      </trkpt>
      <trkpt lat="43.27181000" lon="-0.97628000">
        <ele>169.70000</ele>
        <time>2010-01-01T07:35:24Z</time>
      </trkpt>
      <trkpt lat="43.27099000" lon="-0.97594000">
        <ele>166.60000</ele>
        <time>2010-01-01T07:35:58Z</time>
      </trkpt>
      <trkpt lat="43.27074000" lon="-0.97590000">
        <ele>165.40000</ele>
        <time>2010-01-01T07:36:08Z</time>
      </trkpt>
      <trkpt lat="43.27026990" lon="-0.97612000">
        <ele>162.00000</ele>
        <time>2010-01-01T07:36:28Z</time>
      </trkpt>
      <trkpt lat="43.27004000" lon="-0.97634000">
        <ele>159.00000</ele>
        <time>2010-01-01T07:36:39Z</time>
      </trkpt>
      <trkpt lat="43.26941990" lon="-0.97733000">
        <ele>149.50000</ele>
        <time>2010-01-01T07:37:17Z</time>
      </trkpt>
      <trkpt lat="43.26920000" lon="-0.97753000">
        <ele>146.60000</ele>
        <time>2010-01-01T07:37:28Z</time>
      </trkpt>
      <trkpt lat="43.26900000" lon="-0.97759000">
        <ele>145.10000</ele>
        <time>2010-01-01T07:37:36Z</time>
      </trkpt>
      <trkpt lat="43.26806000" lon="-0.97762000">
        <ele>136.80000</ele>
        <time>2010-01-01T07:38:13Z</time>
      </trkpt>
      <trkpt lat="43.26733000" lon="-0.97794000">
        <ele>134.30000</ele>
        <time>2010-01-01T07:38:44Z</time>
      </trkpt>
      <trkpt lat="43.26650990" lon="-0.97897000">
        <ele>132.90000</ele>
        <time>2010-01-01T07:39:29Z</time>
      </trkpt>
      <trkpt lat="43.26569000" lon="-0.97961000">
        <ele>130.50000</ele>
        <time>2010-01-01T07:40:06Z</time>
      </trkpt>
      <trkpt lat="43.26532000" lon="-0.98008000">
        <ele>130.40000</ele>
        <time>2010-01-01T07:40:27Z</time>
      </trkpt>
      <trkpt lat="43.26428000" lon="-0.98167000">
        <ele>129.20000</ele>
        <time>2010-01-01T07:41:29Z</time>
      </trkpt>
      <trkpt lat="43.26411000" lon="-0.98212000">
        <ele>126.80000</ele>
        <time>2010-01-01T07:41:44Z</time>
      </trkpt>
      <trkpt lat="43.26393000" lon="-0.98319000">
        <ele>125.70000</ele>
        <time>2010-01-01T07:42:16Z</time>
      </trkpt>
      <trkpt lat="43.26379000" lon="-0.98351000">
        <ele>125.30000</ele>
        <time>2010-01-01T07:42:26Z</time>
      </trkpt>
      <trkpt lat="43.26359000" lon="-0.98377000">
        <ele>124.00000</ele>
        <time>2010-01-01T07:42:38Z</time>
      </trkpt>
      <trkpt lat="43.26324000" lon="-0.98395000">
        <ele>121.10000</ele>
        <time>2010-01-01T07:42:52Z</time>
      </trkpt>
      <trkpt lat="43.26294990" lon="-0.98421000">
        <ele>121.20000</ele>
        <time>2010-01-01T07:43:06Z</time>
      </trkpt>
      <trkpt lat="43.26239000" lon="-0.98504000">
        <ele>116.10000</ele>
        <time>2010-01-01T07:43:39Z</time>
      </trkpt>
      <trkpt lat="43.26209990" lon="-0.98535000">
        <ele>116.00000</ele>
        <time>2010-01-01T07:43:54Z</time>
      </trkpt>
      <trkpt lat="43.26190000" lon="-0.98581000">
        <ele>111.40000</ele>
        <time>2010-01-01T07:44:10Z</time>
      </trkpt>
      <trkpt lat="43.26173000" lon="-0.98604000">
        <ele>110.90000</ele>
        <time>2010-01-01T07:44:19Z</time>
      </trkpt>
      <trkpt lat="43.26096000" lon="-0.98637000">
        <ele>110.50000</ele>
        <time>2010-01-01T07:44:51Z</time>
      </trkpt>
      <trkpt lat="43.26059990" lon="-0.98632000">
        <ele>111.20000</ele>
        <time>2010-01-01T07:45:06Z</time>
      </trkpt>
      <trkpt lat="43.26043000" lon="-0.98619000">
        <ele>112.10000</ele>
        <time>2010-01-01T07:45:14Z</time>
      </trkpt>
      <trkpt lat="43.25954000" lon="-0.98503000">
        <ele>119.20000</ele>
        <time>2010-01-01T07:46:03Z</time>
      </trkpt>
      <trkpt lat="43.25866000" lon="-0.98573000">
        <ele>113.20000</ele>
        <time>2010-01-01T07:46:44Z</time>
      </trkpt>
      <trkpt lat="43.25852000" lon="-0.98569000">
        <ele>114.30000</ele>
        <time>2010-01-01T07:46:49Z</time>
      </trkpt>
      <trkpt lat="43.25777000" lon="-0.98572000">
        <ele>123.60000</ele>
        <time>2010-01-01T07:47:19Z</time>
      </trkpt>
      <trkpt lat="43.25748000" lon="-0.98563000">
        <ele>127.20000</ele>
        <time>2010-01-01T07:47:31Z</time>
      </trkpt>
      <trkpt lat="43.25697000" lon="-0.98486000">
        <ele>133.10000</ele>
        <time>2010-01-01T07:48:02Z</time>
      </trkpt>
      <trkpt lat="43.25652000" lon="-0.98468000">
        <ele>138.30000</ele>
        <time>2010-01-01T07:48:20Z</time>
      </trkpt>
      <trkpt lat="43.25615000" lon="-0.98431000">
        <ele>140.90000</ele>
        <time>2010-01-01T07:48:39Z</time>
      </trkpt>
      <trkpt lat="43.25555000" lon="-0.98310000">
        <ele>152.10000</ele>
        <time>2010-01-01T07:49:21Z</time>
      </trkpt>
      <trkpt lat="43.25542000" lon="-0.98294000">
        <ele>153.00000</ele>
        <time>2010-01-01T07:49:28Z</time>
      </trkpt>
      <trkpt lat="43.25506000" lon="-0.98263000">
        <ele>154.60000</ele>
        <time>2010-01-01T07:49:45Z</time>
      </trkpt>
      <trkpt lat="43.25473000" lon="-0.98244000">
        <ele>153.10000</ele>
        <time>2010-01-01T07:50:00Z</time>
      </trkpt>
      <trkpt lat="43.25437000" lon="-0.98205000">
        <ele>149.80000</ele>
        <time>2010-01-01T07:50:18Z</time>
      </trkpt>
      <trkpt lat="43.25389000" lon="-0.98181000">
        <ele>150.30000</ele>
        <time>2010-01-01T07:50:38Z</time>
      </trkpt>
      <trkpt lat="43.25286000" lon="-0.98109000">
        <ele>156.20000</ele>
        <time>2010-01-01T07:51:25Z</time>
      </trkpt>
      <trkpt lat="43.25241000" lon="-0.98090000">
        <ele>160.10000</ele>
        <time>2010-01-01T07:51:44Z</time>
      </trkpt>
      <trkpt lat="43.25226000" lon="-0.98078000">
        <ele>161.80000</ele>
        <time>2010-01-01T07:51:51Z</time>
      </trkpt>
      <trkpt lat="43.25216000" lon="-0.98059000">
        <ele>161.70000</ele>
        <time>2010-01-01T07:51:57Z</time>
      </trkpt>
      <trkpt lat="43.25217000" lon="-0.98022000">
        <ele>158.80000</ele>
        <time>2010-01-01T07:52:08Z</time>
      </trkpt>
      <trkpt lat="43.25204990" lon="-0.97933000">
        <ele>151.90000</ele>
        <time>2010-01-01T07:52:35Z</time>
      </trkpt>
      <trkpt lat="43.25170000" lon="-0.97824000">
        <ele>145.20000</ele>
        <time>2010-01-01T07:53:09Z</time>
      </trkpt>
      <trkpt lat="43.25162000" lon="-0.97741000">
        <ele>143.70000</ele>
        <time>2010-01-01T07:53:34Z</time>
      </trkpt>
      <trkpt lat="43.25101000" lon="-0.97670000">
        <ele>148.00000</ele>
        <time>2010-01-01T07:54:06Z</time>
      </trkpt>
      <trkpt lat="43.25053000" lon="-0.97570000">
        <ele>149.20000</ele>
        <time>2010-01-01T07:54:41Z</time>
      </trkpt>
      <trkpt lat="43.25002000" lon="-0.97538000">
        <ele>152.10000</ele>
        <time>2010-01-01T07:55:03Z</time>
      </trkpt>
      <trkpt lat="43.24975000" lon="-0.97507000">
        <ele>153.50000</ele>
        <time>2010-01-01T07:55:17Z</time>
      </trkpt>
      <trkpt lat="43.24958000" lon="-0.97474000">
        <ele>152.90000</ele>
        <time>2010-01-01T07:55:29Z</time>
      </trkpt>
      <trkpt lat="43.24948000" lon="-0.97420000">
        <ele>149.50000</ele>
        <time>2010-01-01T07:55:45Z</time>
      </trkpt>
      <trkpt lat="43.24940000" lon="-0.97255000">
        <ele>150.30000</ele>
        <time>2010-01-01T07:56:33Z</time>
      </trkpt>
      <trkpt lat="43.24910000" lon="-0.97172000">
        <ele>153.80000</ele>
        <time>2010-01-01T07:57:00Z</time>
      </trkpt>
      <trkpt lat="43.24903000" lon="-0.97127000">
        <ele>154.10000</ele>
        <time>2010-01-01T07:57:14Z</time>
      </trkpt>
      <trkpt lat="43.24942000" lon="-0.96761000">
        <ele>139.60000</ele>
        <time>2010-01-01T07:59:02Z</time>
      </trkpt>
      <trkpt lat="43.24950000" lon="-0.96741000">
        <ele>139.40000</ele>
        <time>2010-01-01T07:59:08Z</time>
      </trkpt>
      <trkpt lat="43.24975000" lon="-0.96722000">
        <ele>140.20000</ele>
        <time>2010-01-01T07:59:20Z</time>
      </trkpt>
      <trkpt lat="43.25036990" lon="-0.96652000">
        <ele>139.20000</ele>
        <time>2010-01-01T07:59:52Z</time>
      </trkpt>
      <trkpt lat="43.25052000" lon="-0.96616000">
        <ele>140.80000</ele>
        <time>2010-01-01T08:00:04Z</time>
      </trkpt>
      <trkpt lat="43.25067000" lon="-0.96545000">
        <ele>141.10000</ele>
        <time>2010-01-01T08:00:26Z</time>
      </trkpt>
      <trkpt lat="43.25094000" lon="-0.96505000">
        <ele>138.50000</ele>
        <time>2010-01-01T08:00:41Z</time>
      </trkpt>
      <trkpt lat="43.25145000" lon="-0.96395000">
        <ele>132.60000</ele>
        <time>2010-01-01T08:01:19Z</time>
      </trkpt>
      <trkpt lat="43.25177990" lon="-0.96353000">
        <ele>129.20000</ele>
        <time>2010-01-01T08:01:38Z</time>
      </trkpt>
      <trkpt lat="43.25126000" lon="-0.96336000">
        <ele>129.10000</ele>
        <time>2010-01-01T08:01:59Z</time>
      </trkpt>
      <trkpt lat="43.25034000" lon="-0.96332000">
        <ele>131.30000</ele>
        <time>2010-01-01T08:02:36Z</time>
      </trkpt>
      <trkpt lat="43.24968000" lon="-0.96306000">
        <ele>133.50000</ele>
        <time>2010-01-01T08:03:03Z</time>
      </trkpt>
      <trkpt lat="43.24827000" lon="-0.96209000">
        <ele>131.50000</ele>
        <time>2010-01-01T08:04:06Z</time>
      </trkpt>
      <trkpt lat="43.24778000" lon="-0.96214000">
        <ele>131.40000</ele>
        <time>2010-01-01T08:04:26Z</time>
      </trkpt>
      <trkpt lat="43.24727000" lon="-0.96197000">
        <ele>131.40000</ele>
        <time>2010-01-01T08:04:47Z</time>
      </trkpt>
      <trkpt lat="43.24735000" lon="-0.96127000">
        <ele>132.20000</ele>
        <time>2010-01-01T08:05:08Z</time>
      </trkpt>
      <trkpt lat="43.24647000" lon="-0.96067000">
        <ele>139.10000</ele>
        <time>2010-01-01T08:05:47Z</time>
      </trkpt>
      <trkpt lat="43.24589000" lon="-0.96011000">
        <ele>139.50000</ele>
        <time>2010-01-01T08:06:15Z</time>
      </trkpt>
      <trkpt lat="43.24552000" lon="-0.95964000">
        <ele>140.20000</ele>
        <time>2010-01-01T08:06:36Z</time>
      </trkpt>
      <trkpt lat="43.24489000" lon="-0.95926000">
        <ele>139.70000</ele>
        <time>2010-01-01T08:07:03Z</time>
      </trkpt>
      <trkpt lat="43.24453000" lon="-0.95895000">
        <ele>139.00000</ele>
        <time>2010-01-01T08:07:20Z</time>
      </trkpt>
      <trkpt lat="43.24428000" lon="-0.95867000">
        <ele>137.70000</ele>
        <time>2010-01-01T08:07:33Z</time>
      </trkpt>
      <trkpt lat="43.24380000" lon="-0.95793000">
        <ele>141.10000</ele>
        <time>2010-01-01T08:08:02Z</time>
      </trkpt>
      <trkpt lat="43.24335000" lon="-0.95700000">
        <ele>137.40000</ele>
        <time>2010-01-01T08:08:35Z</time>
      </trkpt>
      <trkpt lat="43.24298000" lon="-0.95579000">
        <ele>136.70000</ele>
        <time>2010-01-01T08:09:13Z</time>
      </trkpt>
      <trkpt lat="43.24257990" lon="-0.95480000">
        <ele>135.70000</ele>
        <time>2010-01-01T08:09:46Z</time>
      </trkpt>
      <trkpt lat="43.24242000" lon="-0.95400000">
        <ele>139.10000</ele>
        <time>2010-01-01T08:10:10Z</time>
      </trkpt>
      <trkpt lat="43.24218000" lon="-0.95377000">
        <ele>142.20000</ele>
        <time>2010-01-01T08:10:22Z</time>
      </trkpt>
      <trkpt lat="43.24201990" lon="-0.95382000">
        <ele>143.60000</ele>
        <time>2010-01-01T08:10:28Z</time>
      </trkpt>
      <trkpt lat="43.24156000" lon="-0.95487000">
        <ele>140.10000</ele>
        <time>2010-01-01T08:11:04Z</time>
      </trkpt>
      <trkpt lat="43.24128000" lon="-0.95518000">
        <ele>139.20000</ele>
        <time>2010-01-01T08:11:18Z</time>
      </trkpt>
      <trkpt lat="43.24116990" lon="-0.95513000">
        <ele>139.50000</ele>
        <time>2010-01-01T08:11:23Z</time>
      </trkpt>
      <trkpt lat="43.24095000" lon="-0.95467000">
        <ele>143.60000</ele>
        <time>2010-01-01T08:11:39Z</time>
      </trkpt>
      <trkpt lat="43.24076000" lon="-0.95442000">
        <ele>146.70000</ele>
        <time>2010-01-01T08:11:50Z</time>
      </trkpt>
      <trkpt lat="43.23982000" lon="-0.95385000">
        <ele>148.50000</ele>
        <time>2010-01-01T08:12:31Z</time>
      </trkpt>
      <trkpt lat="43.23946000" lon="-0.95373000">
        <ele>148.00000</ele>
        <time>2010-01-01T08:12:46Z</time>
      </trkpt>
      <trkpt lat="43.23863990" lon="-0.95363000">
        <ele>146.40000</ele>
        <time>2010-01-01T08:13:19Z</time>
      </trkpt>
      <trkpt lat="43.23803000" lon="-0.95321000">
        <ele>148.10000</ele>
        <time>2010-01-01T08:13:46Z</time>
      </trkpt>
      <trkpt lat="43.23786000" lon="-0.95316000">
        <ele>147.30000</ele>
        <time>2010-01-01T08:13:53Z</time>
      </trkpt>
      <trkpt lat="43.23748000" lon="-0.95322000">
        <ele>144.50000</ele>
        <time>2010-01-01T08:14:08Z</time>
      </trkpt>
      <trkpt lat="43.23640000" lon="-0.95356000">
        <ele>145.80000</ele>
        <time>2010-01-01T08:14:52Z</time>
      </trkpt>
      <trkpt lat="43.23588000" lon="-0.95380000">
        <ele>152.80000</ele>
        <time>2010-01-01T08:15:14Z</time>
      </trkpt>
      <trkpt lat="43.23391000" lon="-0.95419000">
        <ele>163.00000</ele>
        <time>2010-01-01T08:16:34Z</time>
      </trkpt>
      <trkpt lat="43.23323000" lon="-0.95473000">
        <ele>164.10000</ele>
        <time>2010-01-01T08:17:06Z</time>
      </trkpt>
      <trkpt lat="43.23281000" lon="-0.95459000">
        <ele>163.10000</ele>
        <time>2010-01-01T08:17:23Z</time>
      </trkpt>
      <trkpt lat="43.23210000" lon="-0.95491000">
        <ele>164.80000</ele>
        <time>2010-01-01T08:17:53Z</time>
      </trkpt>
      <trkpt lat="43.23172000" lon="-0.95530000">
        <ele>166.80000</ele>
        <time>2010-01-01T08:18:12Z</time>
      </trkpt>
      <trkpt lat="43.23131000" lon="-0.95509000">
        <ele>163.10000</ele>
        <time>2010-01-01T08:18:29Z</time>
      </trkpt>
      <trkpt lat="43.23075000" lon="-0.95517000">
        <ele>161.80000</ele>
        <time>2010-01-01T08:18:52Z</time>
      </trkpt>
      <trkpt lat="43.23033000" lon="-0.95493000">
        <ele>160.50000</ele>
        <time>2010-01-01T08:19:10Z</time>
      </trkpt>
      <trkpt lat="43.23004000" lon="-0.95484000">
        <ele>160.80000</ele>
        <time>2010-01-01T08:19:22Z</time>
      </trkpt>
      <trkpt lat="43.22957000" lon="-0.95485000">
        <ele>163.20000</ele>
        <time>2010-01-01T08:19:41Z</time>
      </trkpt>
      <trkpt lat="43.22895000" lon="-0.95532000">
        <ele>168.70000</ele>
        <time>2010-01-01T08:20:09Z</time>
      </trkpt>
      <trkpt lat="43.22874000" lon="-0.95538000">
        <ele>169.50000</ele>
        <time>2010-01-01T08:20:18Z</time>
      </trkpt>
      <trkpt lat="43.22811000" lon="-0.95516000">
        <ele>168.30000</ele>
        <time>2010-01-01T08:20:44Z</time>
      </trkpt>
      <trkpt lat="43.22767000" lon="-0.95507000">
        <ele>166.70000</ele>
        <time>2010-01-01T08:21:02Z</time>
      </trkpt>
      <trkpt lat="43.22721000" lon="-0.95585000">
        <ele>169.50000</ele>
        <time>2010-01-01T08:21:31Z</time>
      </trkpt>
      <trkpt lat="43.22654000" lon="-0.95620000">
        <ele>173.40000</ele>
        <time>2010-01-01T08:22:00Z</time>
      </trkpt>
      <trkpt lat="43.22620000" lon="-0.95652000">
        <ele>174.40000</ele>
        <time>2010-01-01T08:22:16Z</time>
      </trkpt>
      <trkpt lat="43.22496000" lon="-0.95824000">
        <ele>176.70000</ele>
        <time>2010-01-01T08:23:27Z</time>
      </trkpt>
      <trkpt lat="43.22484000" lon="-0.95826000">
        <ele>177.00000</ele>
        <time>2010-01-01T08:23:31Z</time>
      </trkpt>
      <trkpt lat="43.22434000" lon="-0.95798000">
        <ele>178.50000</ele>
        <time>2010-01-01T08:23:53Z</time>
      </trkpt>
      <trkpt lat="43.22372000" lon="-0.95860000">
        <ele>188.30000</ele>
        <time>2010-01-01T08:24:24Z</time>
      </trkpt>
      <trkpt lat="43.22366000" lon="-0.95859000">
        <ele>189.80000</ele>
        <time>2010-01-01T08:24:26Z</time>
      </trkpt>
      <trkpt lat="43.22412000" lon="-0.95736000">
        <ele>182.70000</ele>
        <time>2010-01-01T08:25:07Z</time>
      </trkpt>
      <trkpt lat="43.22348000" lon="-0.95714000">
        <ele>197.70000</ele>
        <time>2010-01-01T08:25:33Z</time>
      </trkpt>
      <trkpt lat="43.22305000" lon="-0.95728000">
        <ele>211.20000</ele>
        <time>2010-01-01T08:25:51Z</time>
      </trkpt>
      <trkpt lat="43.22286000" lon="-0.95724000">
        <ele>217.10000</ele>
        <time>2010-01-01T08:25:58Z</time>
      </trkpt>
      <trkpt lat="43.22262000" lon="-0.95673000">
        <ele>223.70000</ele>
        <time>2010-01-01T08:26:16Z</time>
      </trkpt>
      <trkpt lat="43.22249000" lon="-0.95626000">
        <ele>224.50000</ele>
        <time>2010-01-01T08:26:31Z</time>
      </trkpt>
      <trkpt lat="43.22237000" lon="-0.95476000">
        <ele>215.80000</ele>
        <time>2010-01-01T08:27:15Z</time>
      </trkpt>
      <trkpt lat="43.22229000" lon="-0.95460000">
        <ele>217.60000</ele>
        <time>2010-01-01T08:27:20Z</time>
      </trkpt>
      <trkpt lat="43.22213000" lon="-0.95459000">
        <ele>223.60000</ele>
        <time>2010-01-01T08:27:27Z</time>
      </trkpt>
      <trkpt lat="43.22190000" lon="-0.95446000">
        <ele>230.50000</ele>
        <time>2010-01-01T08:27:37Z</time>
      </trkpt>
      <trkpt lat="43.22168000" lon="-0.95370000">
        <ele>231.40000</ele>
        <time>2010-01-01T08:28:01Z</time>
      </trkpt>
      <trkpt lat="43.22162000" lon="-0.95306000">
        <ele>232.40000</ele>
        <time>2010-01-01T08:28:19Z</time>
      </trkpt>
      <trkpt lat="43.22128000" lon="-0.95300000">
        <ele>244.90000</ele>
        <time>2010-01-01T08:28:33Z</time>
      </trkpt>
      <trkpt lat="43.22090000" lon="-0.95271000">
        <ele>255.00000</ele>
        <time>2010-01-01T08:28:51Z</time>
      </trkpt>
      <trkpt lat="43.22085000" lon="-0.95272000">
        <ele>256.60000</ele>
        <time>2010-01-01T08:28:53Z</time>
      </trkpt>
      <trkpt lat="43.22089000" lon="-0.95299000">
        <ele>259.00000</ele>
        <time>2010-01-01T08:29:01Z</time>
      </trkpt>
      <trkpt lat="43.22085000" lon="-0.95310000">
        <ele>262.00000</ele>
        <time>2010-01-01T08:29:04Z</time>
      </trkpt>
      <trkpt lat="43.22033000" lon="-0.95256000">
        <ele>269.00000</ele>
        <time>2010-01-01T08:29:30Z</time>
      </trkpt>
      <trkpt lat="43.21955000" lon="-0.95224000">
        <ele>281.00000</ele>
        <time>2010-01-01T08:30:03Z</time>
      </trkpt>
      <trkpt lat="43.21914000" lon="-0.95201000">
        <ele>285.20000</ele>
        <time>2010-01-01T08:30:21Z</time>
      </trkpt>
      <trkpt lat="43.21878000" lon="-0.95172000">
        <ele>289.30000</ele>
        <time>2010-01-01T08:30:37Z</time>
      </trkpt>
      <trkpt lat="43.21852000" lon="-0.95121000">
        <ele>288.50000</ele>
        <time>2010-01-01T08:30:55Z</time>
      </trkpt>
      <trkpt lat="43.21815000" lon="-0.95102000">
        <ele>296.90000</ele>
        <time>2010-01-01T08:31:11Z</time>
      </trkpt>
      <trkpt lat="43.21784000" lon="-0.95070000">
        <ele>302.20000</ele>
        <time>2010-01-01T08:31:27Z</time>
      </trkpt>
      <trkpt lat="43.21777000" lon="-0.95075000">
        <ele>305.10000</ele>
        <time>2010-01-01T08:31:30Z</time>
      </trkpt>
      <trkpt lat="43.21752990" lon="-0.95023000">
        <ele>304.70000</ele>
        <time>2010-01-01T08:31:48Z</time>
      </trkpt>
      <trkpt lat="43.21730000" lon="-0.94999000">
        <ele>307.20000</ele>
        <time>2010-01-01T08:31:59Z</time>
      </trkpt>
      <trkpt lat="43.21673000" lon="-0.94955000">
        <ele>311.30000</ele>
        <time>2010-01-01T08:32:26Z</time>
      </trkpt>
      <trkpt lat="43.21656000" lon="-0.94958000">
        <ele>316.10000</ele>
        <time>2010-01-01T08:32:33Z</time>
      </trkpt>
      <trkpt lat="43.21570000" lon="-0.94903000">
        <ele>323.10000</ele>
        <time>2010-01-01T08:33:11Z</time>
      </trkpt>
      <trkpt lat="43.21548000" lon="-0.94850000">
        <ele>321.80000</ele>
        <time>2010-01-01T08:33:28Z</time>
      </trkpt>
      <trkpt lat="43.21530000" lon="-0.94826000">
        <ele>324.00000</ele>
        <time>2010-01-01T08:33:38Z</time>
      </trkpt>
      <trkpt lat="43.21511000" lon="-0.94750000">
        <ele>326.90000</ele>
        <time>2010-01-01T08:34:02Z</time>
      </trkpt>
      <trkpt lat="43.21481000" lon="-0.94692000">
        <ele>330.50000</ele>
        <time>2010-01-01T08:34:23Z</time>
      </trkpt>
      <trkpt lat="43.21389000" lon="-0.94717000">
        <ele>331.20000</ele>
        <time>2010-01-01T08:35:00Z</time>
      </trkpt>
      <trkpt lat="43.21356000" lon="-0.94718000">
        <ele>331.80000</ele>
        <time>2010-01-01T08:35:13Z</time>
      </trkpt>
      <trkpt lat="43.21334000" lon="-0.94710000">
        <ele>330.00000</ele>
        <time>2010-01-01T08:35:22Z</time>
      </trkpt>
      <trkpt lat="43.21252000" lon="-0.94646000">
        <ele>317.70000</ele>
        <time>2010-01-01T08:36:00Z</time>
      </trkpt>
      <trkpt lat="43.21207000" lon="-0.94635000">
        <ele>312.40000</ele>
        <time>2010-01-01T08:36:18Z</time>
      </trkpt>
      <trkpt lat="43.21190000" lon="-0.94639000">
        <ele>312.20000</ele>
        <time>2010-01-01T08:36:25Z</time>
      </trkpt>
      <trkpt lat="43.21147000" lon="-0.94680000">
        <ele>312.40000</ele>
        <time>2010-01-01T08:36:46Z</time>
      </trkpt>
      <trkpt lat="43.21110000" lon="-0.94727000">
        <ele>306.00000</ele>
        <time>2010-01-01T08:37:07Z</time>
      </trkpt>
      <trkpt lat="43.21099000" lon="-0.94760000">
        <ele>304.30000</ele>
        <time>2010-01-01T08:37:17Z</time>
      </trkpt>
      <trkpt lat="43.21053000" lon="-0.95000000">
        <ele>291.70000</ele>
        <time>2010-01-01T08:38:30Z</time>
      </trkpt>
      <trkpt lat="43.21038990" lon="-0.95179000">
        <ele>290.00000</ele>
        <time>2010-01-01T08:39:22Z</time>
      </trkpt>
      <trkpt lat="43.21032000" lon="-0.95196000">
        <ele>290.90000</ele>
        <time>2010-01-01T08:39:28Z</time>
      </trkpt>
      <trkpt lat="43.21023000" lon="-0.95201000">
        <ele>289.80000</ele>
        <time>2010-01-01T08:39:32Z</time>
      </trkpt>
      <trkpt lat="43.21016000" lon="-0.95198000">
        <ele>287.90000</ele>
        <time>2010-01-01T08:39:35Z</time>
      </trkpt>
      <trkpt lat="43.20934000" lon="-0.95036000">
        <ele>274.10000</ele>
        <time>2010-01-01T08:40:32Z</time>
      </trkpt>
      <trkpt lat="43.20916000" lon="-0.94985000">
        <ele>267.50000</ele>
        <time>2010-01-01T08:40:49Z</time>
      </trkpt>
      <trkpt lat="43.20885000" lon="-0.94803000">
        <ele>255.90000</ele>
        <time>2010-01-01T08:41:43Z</time>
      </trkpt>
      <trkpt lat="43.20856000" lon="-0.94700000">
        <ele>250.70000</ele>
        <time>2010-01-01T08:42:15Z</time>
      </trkpt>
      <trkpt lat="43.20746000" lon="-0.94466000">
        <ele>240.60000</ele>
        <time>2010-01-01T08:43:37Z</time>
      </trkpt>
      <trkpt lat="43.20702000" lon="-0.94418000">
        <ele>238.80000</ele>
        <time>2010-01-01T08:43:59Z</time>
      </trkpt>
      <trkpt lat="43.20641000" lon="-0.94386000">
        <ele>238.40000</ele>
        <time>2010-01-01T08:44:25Z</time>
      </trkpt>
      <trkpt lat="43.20564000" lon="-0.94282000">
        <ele>235.10000</ele>
        <time>2010-01-01T08:45:09Z</time>
      </trkpt>
      <trkpt lat="43.20508000" lon="-0.94189000">
        <ele>229.60000</ele>
        <time>2010-01-01T08:45:44Z</time>
      </trkpt>
      <trkpt lat="43.20441000" lon="-0.94059000">
        <ele>221.50000</ele>
        <time>2010-01-01T08:46:30Z</time>
      </trkpt>
      <trkpt lat="43.20407000" lon="-0.93966000">
        <ele>220.80000</ele>
        <time>2010-01-01T08:47:01Z</time>
      </trkpt>
      <trkpt lat="43.20378000" lon="-0.93915000">
        <ele>220.80000</ele>
        <time>2010-01-01T08:47:19Z</time>
      </trkpt>
      <trkpt lat="43.20328000" lon="-0.93872000">
        <ele>221.40000</ele>
        <time>2010-01-01T08:47:43Z</time>
      </trkpt>
      <trkpt lat="43.20293000" lon="-0.93862000">
        <ele>221.00000</ele>
        <time>2010-01-01T08:47:57Z</time>
      </trkpt>
      <trkpt lat="43.20246000" lon="-0.93859000">
        <ele>220.80000</ele>
        <time>2010-01-01T08:48:16Z</time>
      </trkpt>
      <trkpt lat="43.20199000" lon="-0.93898000">
        <ele>219.50000</ele>
        <time>2010-01-01T08:48:38Z</time>
      </trkpt>
      <trkpt lat="43.20117000" lon="-0.93882000">
        <ele>214.40000</ele>
        <time>2010-01-01T08:49:11Z</time>
      </trkpt>
      <trkpt lat="43.20096000" lon="-0.93860000">
        <ele>213.20000</ele>
        <time>2010-01-01T08:49:22Z</time>
      </trkpt>
      <trkpt lat="43.20006000" lon="-0.93718000">
        <ele>206.30000</ele>
        <time>2010-01-01T08:50:17Z</time>
      </trkpt>
      <trkpt lat="43.19953000" lon="-0.93683000">
        <ele>203.90000</ele>
        <time>2010-01-01T08:50:40Z</time>
      </trkpt>
      <trkpt lat="43.19806000" lon="-0.93526000">
        <ele>197.20000</ele>
        <time>2010-01-01T08:51:55Z</time>
      </trkpt>
      <trkpt lat="43.19767000" lon="-0.93470000">
        <ele>196.50000</ele>
        <time>2010-01-01T08:52:18Z</time>
      </trkpt>
      <trkpt lat="43.19697000" lon="-0.93311000">
        <ele>188.40000</ele>
        <time>2010-01-01T08:53:12Z</time>
      </trkpt>
      <trkpt lat="43.19690000" lon="-0.93255000">
        <ele>186.40000</ele>
        <time>2010-01-01T08:53:28Z</time>
      </trkpt>
      <trkpt lat="43.19691000" lon="-0.93186000">
        <ele>182.80000</ele>
        <time>2010-01-01T08:53:48Z</time>
      </trkpt>
      <trkpt lat="43.19675000" lon="-0.93068000">
        <ele>180.20000</ele>
        <time>2010-01-01T08:54:23Z</time>
      </trkpt>
      <trkpt lat="43.19650000" lon="-0.93011000">
        <ele>179.30000</ele>
        <time>2010-01-01T08:54:43Z</time>
      </trkpt>
      <trkpt lat="43.19598000" lon="-0.92933000">
        <ele>178.40000</ele>
        <time>2010-01-01T08:55:14Z</time>
      </trkpt>
      <trkpt lat="43.19538000" lon="-0.92878000">
        <ele>178.50000</ele>
        <time>2010-01-01T08:55:43Z</time>
      </trkpt>
      <trkpt lat="43.19504000" lon="-0.92751000">
        <ele>176.90000</ele>
        <time>2010-01-01T08:56:22Z</time>
      </trkpt>
      <trkpt lat="43.19493000" lon="-0.92728000">
        <ele>175.50000</ele>
        <time>2010-01-01T08:56:30Z</time>
      </trkpt>
      <trkpt lat="43.19465000" lon="-0.92683000">
        <ele>171.70000</ele>
        <time>2010-01-01T08:56:47Z</time>
      </trkpt>
      <trkpt lat="43.19410000" lon="-0.92623000">
        <ele>168.80000</ele>
        <time>2010-01-01T08:57:16Z</time>
      </trkpt>
      <trkpt lat="43.19392000" lon="-0.92534000">
        <ele>167.80000</ele>
        <time>2010-01-01T08:57:42Z</time>
      </trkpt>
      <trkpt lat="43.19394000" lon="-0.92290000">
        <ele>163.20000</ele>
        <time>2010-01-01T08:58:54Z</time>
      </trkpt>
      <trkpt lat="43.19406000" lon="-0.92216000">
        <ele>163.40000</ele>
        <time>2010-01-01T08:59:16Z</time>
      </trkpt>
      <trkpt lat="43.19419000" lon="-0.92190000">
        <ele>163.40000</ele>
        <time>2010-01-01T08:59:25Z</time>
      </trkpt>
      <trkpt lat="43.19506000" lon="-0.92091000">
        <ele>163.60000</ele>
        <time>2010-01-01T09:00:10Z</time>
      </trkpt>
      <trkpt lat="43.19831000" lon="-0.91618000">
        <ele>169.60000</ele>
        <time>2010-01-01T09:03:20Z</time>
      </trkpt>
      <trkpt lat="43.19821000" lon="-0.91615000">
        <ele>168.00000</ele>
        <time>2010-01-01T09:03:24Z</time>
      </trkpt>
      <trkpt lat="43.19709000" lon="-0.91646000">
        <ele>159.40000</ele>
        <time>2010-01-01T09:04:10Z</time>
      </trkpt>
      <trkpt lat="43.19612990" lon="-0.91663000">
        <ele>156.30000</ele>
        <time>2010-01-01T09:04:49Z</time>
      </trkpt>
      <trkpt lat="43.19572000" lon="-0.91647000">
        <ele>156.80000</ele>
        <time>2010-01-01T09:05:06Z</time>
      </trkpt>
      <trkpt lat="43.19496000" lon="-0.91589000">
        <ele>161.10000</ele>
        <time>2010-01-01T09:05:40Z</time>
      </trkpt>
      <trkpt lat="43.19460000" lon="-0.91577000">
        <ele>161.60000</ele>
        <time>2010-01-01T09:05:55Z</time>
      </trkpt>
      <trkpt lat="43.19430000" lon="-0.91578000">
        <ele>162.40000</ele>
        <time>2010-01-01T09:06:07Z</time>
      </trkpt>
      <trkpt lat="43.19372000" lon="-0.91598000">
        <ele>164.40000</ele>
        <time>2010-01-01T09:06:31Z</time>
      </trkpt>
      <trkpt lat="43.19283990" lon="-0.91583000">
        <ele>161.00000</ele>
        <time>2010-01-01T09:07:07Z</time>
      </trkpt>
      <trkpt lat="43.19153000" lon="-0.91631000">
        <ele>164.70000</ele>
        <time>2010-01-01T09:08:01Z</time>
      </trkpt>
      <trkpt lat="43.19085000" lon="-0.91638000">
        <ele>162.40000</ele>
        <time>2010-01-01T09:08:28Z</time>
      </trkpt>
      <trkpt lat="43.18985000" lon="-0.91698000">
        <ele>161.60000</ele>
        <time>2010-01-01T09:09:12Z</time>
      </trkpt>
      <trkpt lat="43.18795990" lon="-0.91739000">
        <ele>160.70000</ele>
        <time>2010-01-01T09:10:29Z</time>
      </trkpt>
      <trkpt lat="43.18769000" lon="-0.91733000">
        <ele>160.50000</ele>
        <time>2010-01-01T09:10:39Z</time>
      </trkpt>
      <trkpt lat="43.18645000" lon="-0.91662000">
        <ele>163.00000</ele>
        <time>2010-01-01T09:11:33Z</time>
      </trkpt>
      <trkpt lat="43.18343000" lon="-0.91617000">
        <ele>165.20000</ele>
        <time>2010-01-01T09:13:35Z</time>
      </trkpt>
      <trkpt lat="43.18342000" lon="-0.91608000">
        <ele>165.10000</ele>
        <time>2010-01-01T09:13:38Z</time>
      </trkpt>
      <trkpt lat="43.18278000" lon="-0.91523000">
        <ele>166.90000</ele>
        <time>2010-01-01T09:14:13Z</time>
      </trkpt>
      <trkpt lat="43.18219000" lon="-0.91484000">
        <ele>167.80000</ele>
        <time>2010-01-01T09:14:39Z</time>
      </trkpt>
      <trkpt lat="43.18124000" lon="-0.91482000">
        <ele>168.40000</ele>
        <time>2010-01-01T09:15:17Z</time>
      </trkpt>
      <trkpt lat="43.18042000" lon="-0.91503000">
        <ele>169.00000</ele>
        <time>2010-01-01T09:15:51Z</time>
      </trkpt>
      <trkpt lat="43.18029000" lon="-0.91501000">
        <ele>169.30000</ele>
        <time>2010-01-01T09:15:56Z</time>
      </trkpt>
      <trkpt lat="43.17988000" lon="-0.91454000">
        <ele>169.60000</ele>
        <time>2010-01-01T09:16:17Z</time>
      </trkpt>
      <trkpt lat="43.17960000" lon="-0.91373000">
        <ele>167.70000</ele>
        <time>2010-01-01T09:16:44Z</time>
      </trkpt>
      <trkpt lat="43.17954000" lon="-0.91317000">
        <ele>166.40000</ele>
        <time>2010-01-01T09:17:00Z</time>
      </trkpt>
      <trkpt lat="43.17941000" lon="-0.91299000">
        <ele>166.40000</ele>
        <time>2010-01-01T09:17:08Z</time>
      </trkpt>
      <trkpt lat="43.17891000" lon="-0.91271000">
        <ele>166.90000</ele>
        <time>2010-01-01T09:17:29Z</time>
      </trkpt>
      <trkpt lat="43.17843000" lon="-0.91224000">
        <ele>166.90000</ele>
        <time>2010-01-01T09:17:53Z</time>
      </trkpt>
      <trkpt lat="43.17799000" lon="-0.91222000">
        <ele>166.70000</ele>
        <time>2010-01-01T09:18:10Z</time>
      </trkpt>
      <trkpt lat="43.17736000" lon="-0.91188000">
        <ele>165.80000</ele>
        <time>2010-01-01T09:18:38Z</time>
      </trkpt>
      <trkpt lat="43.17681000" lon="-0.91183000">
        <ele>166.70000</ele>
        <time>2010-01-01T09:19:00Z</time>
      </trkpt>
      <trkpt lat="43.17607000" lon="-0.91156000">
        <ele>167.40000</ele>
        <time>2010-01-01T09:19:30Z</time>
      </trkpt>
      <trkpt lat="43.17579000" lon="-0.91138000">
        <ele>167.80000</ele>
        <time>2010-01-01T09:19:43Z</time>
      </trkpt>
      <trkpt lat="43.17512000" lon="-0.91063000">
        <ele>168.40000</ele>
        <time>2010-01-01T09:20:17Z</time>
      </trkpt>
      <trkpt lat="43.17478000" lon="-0.91045000">
        <ele>169.70000</ele>
        <time>2010-01-01T09:20:32Z</time>
      </trkpt>
      <trkpt lat="43.17472990" lon="-0.90925000">
        <ele>171.90000</ele>
        <time>2010-01-01T09:21:07Z</time>
      </trkpt>
      <trkpt lat="43.17450000" lon="-0.90844000">
        <ele>172.30000</ele>
        <time>2010-01-01T09:21:32Z</time>
      </trkpt>
      <trkpt lat="43.17351000" lon="-0.90725000">
        <ele>172.40000</ele>
        <time>2010-01-01T09:22:25Z</time>
      </trkpt>
      <trkpt lat="43.17275990" lon="-0.90621000">
        <ele>174.00000</ele>
        <time>2010-01-01T09:23:08Z</time>
      </trkpt>
      <trkpt lat="43.17258000" lon="-0.90571000">
        <ele>174.30000</ele>
        <time>2010-01-01T09:23:24Z</time>
      </trkpt>
      <trkpt lat="43.17232000" lon="-0.90443000">
        <ele>173.00000</ele>
        <time>2010-01-01T09:24:03Z</time>
      </trkpt>
      <trkpt lat="43.17190990" lon="-0.90385000">
        <ele>173.40000</ele>
        <time>2010-01-01T09:24:26Z</time>
      </trkpt>
      <trkpt lat="43.17147000" lon="-0.90305000">
        <ele>172.90000</ele>
        <time>2010-01-01T09:24:56Z</time>
      </trkpt>
      <trkpt lat="43.17078990" lon="-0.90118000">
        <ele>174.10000</ele>
        <time>2010-01-01T09:25:57Z</time>
      </trkpt>
      <trkpt lat="43.16975000" lon="-0.90100000">
        <ele>173.30000</ele>
        <time>2010-01-01T09:26:39Z</time>
      </trkpt>
      <trkpt lat="43.16588000" lon="-0.89983000">
        <ele>175.00000</ele>
        <time>2010-01-01T09:29:17Z</time>
      </trkpt>
      <trkpt lat="43.16530000" lon="-0.89953000">
        <ele>175.30000</ele>
        <time>2010-01-01T09:29:42Z</time>
      </trkpt>
      <trkpt lat="43.16496000" lon="-0.89911000">
        <ele>175.20000</ele>
        <time>2010-01-01T09:30:00Z</time>
      </trkpt>
      <trkpt lat="43.16418000" lon="-0.89879000">
        <ele>176.50000</ele>
        <time>2010-01-01T09:30:33Z</time>
      </trkpt>
      <trkpt lat="43.16375000" lon="-0.89880000">
        <ele>176.90000</ele>
        <time>2010-01-01T09:30:50Z</time>
      </trkpt>
      <trkpt lat="43.16333000" lon="-0.89902000">
        <ele>177.20000</ele>
        <time>2010-01-01T09:31:08Z</time>
      </trkpt>
      <trkpt lat="43.16323000" lon="-0.89915000">
        <ele>177.40000</ele>
        <time>2010-01-01T09:31:14Z</time>
      </trkpt>
      <trkpt lat="43.16286000" lon="-0.90029000">
        <ele>178.90000</ele>
        <time>2010-01-01T09:31:50Z</time>
      </trkpt>
      <trkpt lat="43.16258000" lon="-0.90046000">
        <ele>179.30000</ele>
        <time>2010-01-01T09:32:02Z</time>
      </trkpt>
      <trkpt lat="43.16233000" lon="-0.90039000">
        <ele>180.00000</ele>
        <time>2010-01-01T09:32:13Z</time>
      </trkpt>
      <trkpt lat="43.16218000" lon="-0.90026000">
        <ele>180.60000</ele>
        <time>2010-01-01T09:32:20Z</time>
      </trkpt>
      <trkpt lat="43.16111990" lon="-0.89822000">
        <ele>180.40000</ele>
        <time>2010-01-01T09:33:33Z</time>
      </trkpt>
      <trkpt lat="43.16092000" lon="-0.89829000">
        <ele>181.50000</ele>
        <time>2010-01-01T09:33:41Z</time>
      </trkpt>
      <trkpt lat="43.16039000" lon="-0.89834000">
        <ele>181.50000</ele>
        <time>2010-01-01T09:34:02Z</time>
      </trkpt>
      <trkpt lat="43.15996000" lon="-0.89824000">
        <ele>180.80000</ele>
        <time>2010-01-01T09:34:20Z</time>
      </trkpt>
      <trkpt lat="43.15949000" lon="-0.89804000">
        <ele>179.60000</ele>
        <time>2010-01-01T09:34:39Z</time>
      </trkpt>
      <trkpt lat="43.15896990" lon="-0.89779000">
        <ele>180.90000</ele>
        <time>2010-01-01T09:35:02Z</time>
      </trkpt>
      <trkpt lat="43.15849990" lon="-0.89744000">
        <ele>185.40000</ele>
        <time>2010-01-01T09:35:23Z</time>
      </trkpt>
      <trkpt lat="43.15630000" lon="-0.89626000">
        <ele>188.40000</ele>
        <time>2010-01-01T09:36:58Z</time>
      </trkpt>
      <trkpt lat="43.15595000" lon="-0.89596000">
        <ele>187.40000</ele>
        <time>2010-01-01T09:37:14Z</time>
      </trkpt>
      <trkpt lat="43.15537000" lon="-0.89501000">
        <ele>188.20000</ele>
        <time>2010-01-01T09:37:50Z</time>
      </trkpt>
      <trkpt lat="43.15424000" lon="-0.89390000">
        <ele>188.90000</ele>
        <time>2010-01-01T09:38:46Z</time>
      </trkpt>
      <trkpt lat="43.15375000" lon="-0.89314000">
        <ele>189.60000</ele>
        <time>2010-01-01T09:39:15Z</time>
      </trkpt>
      <trkpt lat="43.15317000" lon="-0.89192000">
        <ele>192.30000</ele>
        <time>2010-01-01T09:39:58Z</time>
      </trkpt>
      <trkpt lat="43.15300000" lon="-0.89136000">
        <ele>193.60000</ele>
        <time>2010-01-01T09:40:16Z</time>
      </trkpt>
      <trkpt lat="43.15307000" lon="-0.89085000">
        <ele>195.60000</ele>
        <time>2010-01-01T09:40:31Z</time>
      </trkpt>
      <trkpt lat="43.15258000" lon="-0.89074000">
        <ele>195.30000</ele>
        <time>2010-01-01T09:40:51Z</time>
      </trkpt>
      <trkpt lat="43.15215000" lon="-0.89050000">
        <ele>194.90000</ele>
        <time>2010-01-01T09:41:09Z</time>
      </trkpt>
      <trkpt lat="43.14997000" lon="-0.89013000">
        <ele>195.20000</ele>
        <time>2010-01-01T09:42:37Z</time>
      </trkpt>
      <trkpt lat="43.14800000" lon="-0.88957000">
        <ele>197.40000</ele>
        <time>2010-01-01T09:43:58Z</time>
      </trkpt>
      <trkpt lat="43.14681000" lon="-0.88968000">
        <ele>201.80000</ele>
        <time>2010-01-01T09:44:46Z</time>
      </trkpt>
      <trkpt lat="43.14660000" lon="-0.88965000">
        <ele>202.90000</ele>
        <time>2010-01-01T09:44:54Z</time>
      </trkpt>
      <trkpt lat="43.14631000" lon="-0.88951000">
        <ele>203.00000</ele>
        <time>2010-01-01T09:45:06Z</time>
      </trkpt>
      <trkpt lat="43.14603000" lon="-0.88923000">
        <ele>204.30000</ele>
        <time>2010-01-01T09:45:20Z</time>
      </trkpt>
      <trkpt lat="43.14584000" lon="-0.88888000">
        <ele>207.20000</ele>
        <time>2010-01-01T09:45:33Z</time>
      </trkpt>
      <trkpt lat="43.14485000" lon="-0.88589000">
        <ele>205.50000</ele>
        <time>2010-01-01T09:47:09Z</time>
      </trkpt>
      <trkpt lat="43.14159990" lon="-0.87879000">
        <ele>206.50000</ele>
        <time>2010-01-01T09:51:14Z</time>
      </trkpt>
      <trkpt lat="43.14140000" lon="-0.87844000">
        <ele>206.40000</ele>
        <time>2010-01-01T09:51:27Z</time>
      </trkpt>
      <trkpt lat="43.14102000" lon="-0.87801000">
        <ele>206.50000</ele>
        <time>2010-01-01T09:51:46Z</time>
      </trkpt>
      <trkpt lat="43.14000000" lon="-0.87737000">
        <ele>205.90000</ele>
        <time>2010-01-01T09:52:31Z</time>
      </trkpt>
      <trkpt lat="43.13671000" lon="-0.87564000">
        <ele>210.40000</ele>
        <time>2010-01-01T09:54:52Z</time>
      </trkpt>
      <trkpt lat="43.13533000" lon="-0.87538000">
        <ele>212.00000</ele>
        <time>2010-01-01T09:55:48Z</time>
      </trkpt>
      <trkpt lat="43.13518000" lon="-0.87538000">
        <ele>212.20000</ele>
        <time>2010-01-01T09:55:54Z</time>
      </trkpt>
      <trkpt lat="43.13496000" lon="-0.87551000">
        <ele>212.50000</ele>
        <time>2010-01-01T09:56:04Z</time>
      </trkpt>
      <trkpt lat="43.13425000" lon="-0.87639000">
        <ele>211.70000</ele>
        <time>2010-01-01T09:56:42Z</time>
      </trkpt>
      <trkpt lat="43.13409000" lon="-0.87649000">
        <ele>211.80000</ele>
        <time>2010-01-01T09:56:49Z</time>
      </trkpt>
      <trkpt lat="43.13250000" lon="-0.87679000">
        <ele>215.00000</ele>
        <time>2010-01-01T09:57:53Z</time>
      </trkpt>
      <trkpt lat="43.13140000" lon="-0.87686000">
        <ele>219.00000</ele>
        <time>2010-01-01T09:58:37Z</time>
      </trkpt>
      <trkpt lat="43.13121000" lon="-0.87679000">
        <ele>218.60000</ele>
        <time>2010-01-01T09:58:45Z</time>
      </trkpt>
      <trkpt lat="43.13069000" lon="-0.87640000">
        <ele>217.60000</ele>
        <time>2010-01-01T09:59:09Z</time>
      </trkpt>
      <trkpt lat="43.12887000" lon="-0.87613000">
        <ele>218.00000</ele>
        <time>2010-01-01T10:00:22Z</time>
      </trkpt>
      <trkpt lat="43.12852000" lon="-0.87614000">
        <ele>218.40000</ele>
        <time>2010-01-01T10:00:36Z</time>
      </trkpt>
      <trkpt lat="43.12813000" lon="-0.87604000">
        <ele>218.80000</ele>
        <time>2010-01-01T10:00:52Z</time>
      </trkpt>
      <trkpt lat="43.12457000" lon="-0.87564000">
        <ele>220.60000</ele>
        <time>2010-01-01T10:03:15Z</time>
      </trkpt>
      <trkpt lat="43.12395000" lon="-0.87546000">
        <ele>221.00000</ele>
        <time>2010-01-01T10:03:41Z</time>
      </trkpt>
      <trkpt lat="43.12365000" lon="-0.87523000">
        <ele>220.00000</ele>
        <time>2010-01-01T10:03:54Z</time>
      </trkpt>
      <trkpt lat="43.12345000" lon="-0.87492000">
        <ele>220.40000</ele>
        <time>2010-01-01T10:04:06Z</time>
      </trkpt>
      <trkpt lat="43.12325000" lon="-0.87443000">
        <ele>223.50000</ele>
        <time>2010-01-01T10:04:23Z</time>
      </trkpt>
      <trkpt lat="43.12216990" lon="-0.87032000">
        <ele>229.60000</ele>
        <time>2010-01-01T10:06:30Z</time>
      </trkpt>
      <trkpt lat="43.12093000" lon="-0.86772000">
        <ele>219.90000</ele>
        <time>2010-01-01T10:08:01Z</time>
      </trkpt>
      <trkpt lat="43.12038000" lon="-0.86709000">
        <ele>216.20000</ele>
        <time>2010-01-01T10:08:30Z</time>
      </trkpt>
      <trkpt lat="43.12024000" lon="-0.86713000">
        <ele>216.00000</ele>
        <time>2010-01-01T10:08:36Z</time>
      </trkpt>
      <trkpt lat="43.11995000" lon="-0.86704000">
        <ele>216.00000</ele>
        <time>2010-01-01T10:08:47Z</time>
      </trkpt>
      <trkpt lat="43.11785000" lon="-0.86541000">
        <ele>217.10000</ele>
        <time>2010-01-01T10:10:24Z</time>
      </trkpt>
      <trkpt lat="43.11719000" lon="-0.86511000">
        <ele>216.50000</ele>
        <time>2010-01-01T10:10:52Z</time>
      </trkpt>
      <trkpt lat="43.11685000" lon="-0.86489000">
        <ele>216.60000</ele>
        <time>2010-01-01T10:11:07Z</time>
      </trkpt>
      <trkpt lat="43.11621000" lon="-0.86678000">
        <ele>217.90000</ele>
        <time>2010-01-01T10:12:08Z</time>
      </trkpt>
      <trkpt lat="43.11615000" lon="-0.86721000">
        <ele>219.10000</ele>
        <time>2010-01-01T10:12:21Z</time>
      </trkpt>
      <trkpt lat="43.11620000" lon="-0.86748000">
        <ele>219.30000</ele>
        <time>2010-01-01T10:12:29Z</time>
      </trkpt>
      <trkpt lat="43.11679000" lon="-0.86898000">
        <ele>218.10000</ele>
        <time>2010-01-01T10:13:19Z</time>
      </trkpt>
      <trkpt lat="43.11672000" lon="-0.86901000">
        <ele>218.30000</ele>
        <time>2010-01-01T10:13:21Z</time>
      </trkpt>
      <trkpt lat="43.11635000" lon="-0.86888000">
        <ele>221.40000</ele>
        <time>2010-01-01T10:13:37Z</time>
      </trkpt>
      <trkpt lat="43.11613000" lon="-0.86873000">
        <ele>222.90000</ele>
        <time>2010-01-01T10:13:47Z</time>
      </trkpt>
      <trkpt lat="43.11529000" lon="-0.86781000">
        <ele>228.40000</ele>
        <time>2010-01-01T10:14:30Z</time>
      </trkpt>
      <trkpt lat="43.11482000" lon="-0.86717000">
        <ele>230.30000</ele>
        <time>2010-01-01T10:14:56Z</time>
      </trkpt>
      <trkpt lat="43.11428000" lon="-0.86694000">
        <ele>231.70000</ele>
        <time>2010-01-01T10:15:19Z</time>
      </trkpt>
      <trkpt lat="43.11377000" lon="-0.86691000">
        <ele>232.80000</ele>
        <time>2010-01-01T10:15:39Z</time>
      </trkpt>
      <trkpt lat="43.11334990" lon="-0.86665000">
        <ele>232.90000</ele>
        <time>2010-01-01T10:15:58Z</time>
      </trkpt>
      <trkpt lat="43.11323000" lon="-0.86671000">
        <ele>233.50000</ele>
        <time>2010-01-01T10:16:03Z</time>
      </trkpt>
      <trkpt lat="43.11303000" lon="-0.86631000">
        <ele>232.40000</ele>
        <time>2010-01-01T10:16:17Z</time>
      </trkpt>
      <trkpt lat="43.11281000" lon="-0.86620000">
        <ele>232.60000</ele>
        <time>2010-01-01T10:16:26Z</time>
      </trkpt>
      <trkpt lat="43.11256000" lon="-0.86589000">
        <ele>231.30000</ele>
        <time>2010-01-01T10:16:40Z</time>
      </trkpt>
      <trkpt lat="43.11216000" lon="-0.86562000">
        <ele>230.70000</ele>
        <time>2010-01-01T10:16:58Z</time>
      </trkpt>
      <trkpt lat="43.11172000" lon="-0.86471000">
        <ele>228.80000</ele>
        <time>2010-01-01T10:17:30Z</time>
      </trkpt>
      <trkpt lat="43.11135000" lon="-0.86453000">
        <ele>228.70000</ele>
        <time>2010-01-01T10:17:45Z</time>
      </trkpt>
      <trkpt lat="43.11112000" lon="-0.86430000">
        <ele>227.60000</ele>
        <time>2010-01-01T10:17:57Z</time>
      </trkpt>
      <trkpt lat="43.11090990" lon="-0.86427000">
        <ele>227.60000</ele>
        <time>2010-01-01T10:18:05Z</time>
      </trkpt>
      <trkpt lat="43.10978990" lon="-0.86451000">
        <ele>226.50000</ele>
        <time>2010-01-01T10:18:51Z</time>
      </trkpt>
      <trkpt lat="43.10943000" lon="-0.86445000">
        <ele>226.10000</ele>
        <time>2010-01-01T10:19:05Z</time>
      </trkpt>
      <trkpt lat="43.10836000" lon="-0.86396000">
        <ele>226.90000</ele>
        <time>2010-01-01T10:19:50Z</time>
      </trkpt>
      <trkpt lat="43.10774000" lon="-0.86400000">
        <ele>228.60000</ele>
        <time>2010-01-01T10:20:15Z</time>
      </trkpt>
      <trkpt lat="43.10680000" lon="-0.86380000">
        <ele>228.10000</ele>
        <time>2010-01-01T10:20:53Z</time>
      </trkpt>
      <trkpt lat="43.10655000" lon="-0.86392000">
        <ele>228.30000</ele>
        <time>2010-01-01T10:21:04Z</time>
      </trkpt>
      <trkpt lat="43.10622990" lon="-0.86437000">
        <ele>229.00000</ele>
        <time>2010-01-01T10:21:22Z</time>
      </trkpt>
      <trkpt lat="43.10528000" lon="-0.86522000">
        <ele>230.80000</ele>
        <time>2010-01-01T10:22:08Z</time>
      </trkpt>
      <trkpt lat="43.10464000" lon="-0.86536000">
        <ele>230.80000</ele>
        <time>2010-01-01T10:22:34Z</time>
      </trkpt>
      <trkpt lat="43.10391000" lon="-0.86575000">
        <ele>230.30000</ele>
        <time>2010-01-01T10:23:05Z</time>
      </trkpt>
      <trkpt lat="43.10340000" lon="-0.86595000">
        <ele>229.40000</ele>
        <time>2010-01-01T10:23:26Z</time>
      </trkpt>
      <trkpt lat="43.10186000" lon="-0.86632000">
        <ele>232.30000</ele>
        <time>2010-01-01T10:24:29Z</time>
      </trkpt>
      <trkpt lat="43.10129000" lon="-0.86674000">
        <ele>234.70000</ele>
        <time>2010-01-01T10:24:55Z</time>
      </trkpt>
      <trkpt lat="43.10016000" lon="-0.86730000">
        <ele>238.60000</ele>
        <time>2010-01-01T10:25:43Z</time>
      </trkpt>
      <trkpt lat="43.09973000" lon="-0.86769000">
        <ele>239.90000</ele>
        <time>2010-01-01T10:26:03Z</time>
      </trkpt>
      <trkpt lat="43.09836000" lon="-0.86859000">
        <ele>240.90000</ele>
        <time>2010-01-01T10:27:04Z</time>
      </trkpt>
      <trkpt lat="43.09691000" lon="-0.86911000">
        <ele>240.30000</ele>
        <time>2010-01-01T10:28:04Z</time>
      </trkpt>
      <trkpt lat="43.09678000" lon="-0.86923000">
        <ele>240.80000</ele>
        <time>2010-01-01T10:28:10Z</time>
      </trkpt>
      <trkpt lat="43.09642000" lon="-0.86990000">
        <ele>241.00000</ele>
        <time>2010-01-01T10:28:35Z</time>
      </trkpt>
      <trkpt lat="43.09588000" lon="-0.87065000">
        <ele>242.60000</ele>
        <time>2010-01-01T10:29:06Z</time>
      </trkpt>
      <trkpt lat="43.09445000" lon="-0.87180000">
        <ele>246.70000</ele>
        <time>2010-01-01T10:30:12Z</time>
      </trkpt>
      <trkpt lat="43.09414000" lon="-0.87276000">
        <ele>249.10000</ele>
        <time>2010-01-01T10:30:43Z</time>
      </trkpt>
      <trkpt lat="43.09394000" lon="-0.87303000">
        <ele>250.60000</ele>
        <time>2010-01-01T10:30:54Z</time>
      </trkpt>
      <trkpt lat="43.09338000" lon="-0.87338000">
        <ele>251.90000</ele>
        <time>2010-01-01T10:31:19Z</time>
      </trkpt>
      <trkpt lat="43.09308000" lon="-0.87330000">
        <ele>254.40000</ele>
        <time>2010-01-01T10:31:31Z</time>
      </trkpt>
      <trkpt lat="43.09283000" lon="-0.87315000">
        <ele>256.40000</ele>
        <time>2010-01-01T10:31:42Z</time>
      </trkpt>
      <trkpt lat="43.09263000" lon="-0.87313000">
        <ele>258.00000</ele>
        <time>2010-01-01T10:31:50Z</time>
      </trkpt>
      <trkpt lat="43.09246000" lon="-0.87340000">
        <ele>260.40000</ele>
        <time>2010-01-01T10:32:00Z</time>
      </trkpt>
      <trkpt lat="43.09209000" lon="-0.87363000">
        <ele>265.30000</ele>
        <time>2010-01-01T10:32:16Z</time>
      </trkpt>
      <trkpt lat="43.09191000" lon="-0.87384000">
        <ele>268.20000</ele>
        <time>2010-01-01T10:32:26Z</time>
      </trkpt>
      <trkpt lat="43.09166000" lon="-0.87396000">
        <ele>272.40000</ele>
        <time>2010-01-01T10:32:36Z</time>
      </trkpt>
      <trkpt lat="43.09162000" lon="-0.87405000">
        <ele>273.80000</ele>
        <time>2010-01-01T10:32:40Z</time>
      </trkpt>
      <trkpt lat="43.09151000" lon="-0.87374000">
        <ele>274.50000</ele>
        <time>2010-01-01T10:32:50Z</time>
      </trkpt>
      <trkpt lat="43.09025000" lon="-0.87291000">
        <ele>278.40000</ele>
        <time>2010-01-01T10:33:46Z</time>
      </trkpt>
      <trkpt lat="43.08923990" lon="-0.87213000">
        <ele>272.00000</ele>
        <time>2010-01-01T10:34:32Z</time>
      </trkpt>
      <trkpt lat="43.08841000" lon="-0.87166000">
        <ele>265.40000</ele>
        <time>2010-01-01T10:35:08Z</time>
      </trkpt>
      <trkpt lat="43.08793000" lon="-0.87163000">
        <ele>265.70000</ele>
        <time>2010-01-01T10:35:27Z</time>
      </trkpt>
      <trkpt lat="43.08686000" lon="-0.87184000">
        <ele>266.10000</ele>
        <time>2010-01-01T10:36:10Z</time>
      </trkpt>
      <trkpt lat="43.08535000" lon="-0.87249000">
        <ele>265.90000</ele>
        <time>2010-01-01T10:37:14Z</time>
      </trkpt>
      <trkpt lat="43.08437000" lon="-0.87256000">
        <ele>258.70000</ele>
        <time>2010-01-01T10:37:53Z</time>
      </trkpt>
      <trkpt lat="43.08382000" lon="-0.87270000">
        <ele>258.40000</ele>
        <time>2010-01-01T10:38:16Z</time>
      </trkpt>
      <trkpt lat="43.08313000" lon="-0.87262000">
        <ele>250.40000</ele>
        <time>2010-01-01T10:38:43Z</time>
      </trkpt>
      <trkpt lat="43.08289000" lon="-0.87296000">
        <ele>251.80000</ele>
        <time>2010-01-01T10:38:57Z</time>
      </trkpt>
      <trkpt lat="43.08273000" lon="-0.87379000">
        <ele>257.50000</ele>
        <time>2010-01-01T10:39:22Z</time>
      </trkpt>
      <trkpt lat="43.08241000" lon="-0.87426000">
        <ele>255.10000</ele>
        <time>2010-01-01T10:39:41Z</time>
      </trkpt>
      <trkpt lat="43.08180000" lon="-0.87476000">
        <ele>252.90000</ele>
        <time>2010-01-01T10:40:09Z</time>
      </trkpt>
      <trkpt lat="43.08066000" lon="-0.87534000">
        <ele>254.00000</ele>
        <time>2010-01-01T10:40:58Z</time>
      </trkpt>
      <trkpt lat="43.08029000" lon="-0.87563000">
        <ele>254.10000</ele>
        <time>2010-01-01T10:41:15Z</time>
      </trkpt>
      <trkpt lat="43.08014000" lon="-0.87536000">
        <ele>251.00000</ele>
        <time>2010-01-01T10:41:25Z</time>
      </trkpt>
      <trkpt lat="43.07994990" lon="-0.87528000">
        <ele>249.70000</ele>
        <time>2010-01-01T10:41:33Z</time>
      </trkpt>
      <trkpt lat="43.07974000" lon="-0.87505000">
        <ele>248.50000</ele>
        <time>2010-01-01T10:41:44Z</time>
      </trkpt>
      <trkpt lat="43.07947990" lon="-0.87489000">
        <ele>248.50000</ele>
        <time>2010-01-01T10:41:55Z</time>
      </trkpt>
      <trkpt lat="43.07924000" lon="-0.87477000">
        <ele>248.60000</ele>
        <time>2010-01-01T10:42:05Z</time>
      </trkpt>
      <trkpt lat="43.07841000" lon="-0.87459000">
        <ele>249.90000</ele>
        <time>2010-01-01T10:42:39Z</time>
      </trkpt>
      <trkpt lat="43.07732000" lon="-0.87373000">
        <ele>248.90000</ele>
        <time>2010-01-01T10:43:29Z</time>
      </trkpt>
      <trkpt lat="43.07712990" lon="-0.87364000">
        <ele>250.10000</ele>
        <time>2010-01-01T10:43:37Z</time>
      </trkpt>
      <trkpt lat="43.07655000" lon="-0.87363000">
        <ele>254.60000</ele>
        <time>2010-01-01T10:44:01Z</time>
      </trkpt>
      <trkpt lat="43.07623000" lon="-0.87325000">
        <ele>265.40000</ele>
        <time>2010-01-01T10:44:18Z</time>
      </trkpt>
      <trkpt lat="43.07518000" lon="-0.87435000">
        <ele>263.20000</ele>
        <time>2010-01-01T10:45:11Z</time>
      </trkpt>
      <trkpt lat="43.07473000" lon="-0.87494000">
        <ele>259.10000</ele>
        <time>2010-01-01T10:45:36Z</time>
      </trkpt>
      <trkpt lat="43.07367000" lon="-0.87539000">
        <ele>265.20000</ele>
        <time>2010-01-01T10:46:20Z</time>
      </trkpt>
      <trkpt lat="43.07305000" lon="-0.87590000">
        <ele>263.00000</ele>
        <time>2010-01-01T10:46:49Z</time>
      </trkpt>
      <trkpt lat="43.07241000" lon="-0.87619000">
        <ele>266.10000</ele>
        <time>2010-01-01T10:47:16Z</time>
      </trkpt>
      <trkpt lat="43.07158000" lon="-0.87617000">
        <ele>264.80000</ele>
        <time>2010-01-01T10:47:49Z</time>
      </trkpt>
      <trkpt lat="43.07135000" lon="-0.87600000">
        <ele>263.60000</ele>
        <time>2010-01-01T10:48:00Z</time>
      </trkpt>
      <trkpt lat="43.07092000" lon="-0.87551000">
        <ele>265.00000</ele>
        <time>2010-01-01T10:48:22Z</time>
      </trkpt>
      <trkpt lat="43.07067000" lon="-0.87539000">
        <ele>265.30000</ele>
        <time>2010-01-01T10:48:33Z</time>
      </trkpt>
      <trkpt lat="43.07040000" lon="-0.87534000">
        <ele>266.00000</ele>
        <time>2010-01-01T10:48:43Z</time>
      </trkpt>
      <trkpt lat="43.06993000" lon="-0.87550000">
        <ele>263.50000</ele>
        <time>2010-01-01T10:49:03Z</time>
      </trkpt>
      <trkpt lat="43.06892000" lon="-0.87617000">
        <ele>261.60000</ele>
        <time>2010-01-01T10:49:48Z</time>
      </trkpt>
      <trkpt lat="43.06787000" lon="-0.87642000">
        <ele>263.40000</ele>
        <time>2010-01-01T10:50:30Z</time>
      </trkpt>
      <trkpt lat="43.06734000" lon="-0.87661000">
        <ele>262.40000</ele>
        <time>2010-01-01T10:50:52Z</time>
      </trkpt>
      <trkpt lat="43.06679000" lon="-0.87652000">
        <ele>266.00000</ele>
        <time>2010-01-01T10:51:15Z</time>
      </trkpt>
      <trkpt lat="43.06608000" lon="-0.87615000">
        <ele>278.00000</ele>
        <time>2010-01-01T10:51:45Z</time>
      </trkpt>
      <trkpt lat="43.06517000" lon="-0.87610000">
        <ele>293.50000</ele>
        <time>2010-01-01T10:52:21Z</time>
      </trkpt>
      <trkpt lat="43.06492000" lon="-0.87617000">
        <ele>293.70000</ele>
        <time>2010-01-01T10:52:32Z</time>
      </trkpt>
      <trkpt lat="43.06432000" lon="-0.87659000">
        <ele>281.90000</ele>
        <time>2010-01-01T10:52:59Z</time>
      </trkpt>
      <trkpt lat="43.06410000" lon="-0.87666000">
        <ele>281.00000</ele>
        <time>2010-01-01T10:53:08Z</time>
      </trkpt>
      <trkpt lat="43.06393000" lon="-0.87655000">
        <ele>282.40000</ele>
        <time>2010-01-01T10:53:15Z</time>
      </trkpt>
      <trkpt lat="43.06365000" lon="-0.87620000">
        <ele>285.00000</ele>
        <time>2010-01-01T10:53:30Z</time>
      </trkpt>
      <trkpt lat="43.06347000" lon="-0.87616000">
        <ele>283.20000</ele>
        <time>2010-01-01T10:53:38Z</time>
      </trkpt>
      <trkpt lat="43.06326000" lon="-0.87630000">
        <ele>284.10000</ele>
        <time>2010-01-01T10:53:47Z</time>
      </trkpt>
      <trkpt lat="43.06307000" lon="-0.87686000">
        <ele>287.10000</ele>
        <time>2010-01-01T10:54:05Z</time>
      </trkpt>
      <trkpt lat="43.06276000" lon="-0.87718000">
        <ele>289.80000</ele>
        <time>2010-01-01T10:54:21Z</time>
      </trkpt>
      <trkpt lat="43.06230000" lon="-0.87744000">
        <ele>287.90000</ele>
        <time>2010-01-01T10:54:41Z</time>
      </trkpt>
      <trkpt lat="43.06191000" lon="-0.87750000">
        <ele>287.10000</ele>
        <time>2010-01-01T10:54:56Z</time>
      </trkpt>
      <trkpt lat="43.06135000" lon="-0.87744000">
        <ele>287.10000</ele>
        <time>2010-01-01T10:55:19Z</time>
      </trkpt>
      <trkpt lat="43.06045000" lon="-0.87681000">
        <ele>293.20000</ele>
        <time>2010-01-01T10:55:59Z</time>
      </trkpt>
      <trkpt lat="43.05997000" lon="-0.87664000">
        <ele>288.10000</ele>
        <time>2010-01-01T10:56:19Z</time>
      </trkpt>
      <trkpt lat="43.05971000" lon="-0.87662000">
        <ele>294.70000</ele>
        <time>2010-01-01T10:56:29Z</time>
      </trkpt>
      <trkpt lat="43.05945000" lon="-0.87677000">
        <ele>294.50000</ele>
        <time>2010-01-01T10:56:41Z</time>
      </trkpt>
      <trkpt lat="43.05812000" lon="-0.87818000">
        <ele>287.80000</ele>
        <time>2010-01-01T10:57:48Z</time>
      </trkpt>
      <trkpt lat="43.05794000" lon="-0.87829000">
        <ele>287.90000</ele>
        <time>2010-01-01T10:57:56Z</time>
      </trkpt>
      <trkpt lat="43.05742000" lon="-0.87838000">
        <ele>296.70000</ele>
        <time>2010-01-01T10:58:17Z</time>
      </trkpt>
      <trkpt lat="43.05695000" lon="-0.87871000">
        <ele>306.60000</ele>
        <time>2010-01-01T10:58:38Z</time>
      </trkpt>
      <trkpt lat="43.05627000" lon="-0.87968000">
        <ele>307.90000</ele>
        <time>2010-01-01T10:59:17Z</time>
      </trkpt>
      <trkpt lat="43.05585000" lon="-0.88062000">
        <ele>293.90000</ele>
        <time>2010-01-01T10:59:50Z</time>
      </trkpt>
      <trkpt lat="43.05539000" lon="-0.88102000">
        <ele>297.90000</ele>
        <time>2010-01-01T11:00:11Z</time>
      </trkpt>
      <trkpt lat="43.05492000" lon="-0.88112000">
        <ele>304.90000</ele>
        <time>2010-01-01T11:00:31Z</time>
      </trkpt>
      <trkpt lat="43.05330000" lon="-0.88104000">
        <ele>302.40000</ele>
        <time>2010-01-01T11:01:35Z</time>
      </trkpt>
      <trkpt lat="43.05200000" lon="-0.88155000">
        <ele>295.20000</ele>
        <time>2010-01-01T11:02:30Z</time>
      </trkpt>
      <trkpt lat="43.05138000" lon="-0.88163000">
        <ele>302.10000</ele>
        <time>2010-01-01T11:02:54Z</time>
      </trkpt>
      <trkpt lat="43.05061000" lon="-0.88191000">
        <ele>315.50000</ele>
        <time>2010-01-01T11:03:26Z</time>
      </trkpt>
      <trkpt lat="43.05037990" lon="-0.88213000">
        <ele>318.60000</ele>
        <time>2010-01-01T11:03:38Z</time>
      </trkpt>
      <trkpt lat="43.05027000" lon="-0.88245000">
        <ele>313.50000</ele>
        <time>2010-01-01T11:03:48Z</time>
      </trkpt>
      <trkpt lat="43.05015000" lon="-0.88245000">
        <ele>318.40000</ele>
        <time>2010-01-01T11:03:53Z</time>
      </trkpt>
      <trkpt lat="43.05003000" lon="-0.88253000">
        <ele>320.70000</ele>
        <time>2010-01-01T11:03:58Z</time>
      </trkpt>
      <trkpt lat="43.04965000" lon="-0.88344000">
        <ele>313.20000</ele>
        <time>2010-01-01T11:04:29Z</time>
      </trkpt>
      <trkpt lat="43.04948000" lon="-0.88373000">
        <ele>314.70000</ele>
        <time>2010-01-01T11:04:40Z</time>
      </trkpt>
      <trkpt lat="43.04920000" lon="-0.88402000">
        <ele>316.10000</ele>
        <time>2010-01-01T11:04:54Z</time>
      </trkpt>
      <trkpt lat="43.04875000" lon="-0.88439000">
        <ele>315.50000</ele>
        <time>2010-01-01T11:05:15Z</time>
      </trkpt>
      <trkpt lat="43.04831000" lon="-0.88464000">
        <ele>316.70000</ele>
        <time>2010-01-01T11:05:34Z</time>
      </trkpt>
      <trkpt lat="43.04786000" lon="-0.88487000">
        <ele>315.50000</ele>
        <time>2010-01-01T11:05:53Z</time>
      </trkpt>
      <trkpt lat="43.04751000" lon="-0.88497000">
        <ele>317.20000</ele>
        <time>2010-01-01T11:06:07Z</time>
      </trkpt>
      <trkpt lat="43.04709000" lon="-0.88489000">
        <ele>315.70000</ele>
        <time>2010-01-01T11:06:24Z</time>
      </trkpt>
      <trkpt lat="43.04500000" lon="-0.88382000">
        <ele>323.00000</ele>
        <time>2010-01-01T11:07:54Z</time>
      </trkpt>
      <trkpt lat="43.04439000" lon="-0.88313000">
        <ele>329.10000</ele>
        <time>2010-01-01T11:08:25Z</time>
      </trkpt>
      <trkpt lat="43.04410000" lon="-0.88292000">
        <ele>327.80000</ele>
        <time>2010-01-01T11:08:38Z</time>
      </trkpt>
      <trkpt lat="43.04358000" lon="-0.88234000">
        <ele>332.90000</ele>
        <time>2010-01-01T11:09:05Z</time>
      </trkpt>
      <trkpt lat="43.04336000" lon="-0.88218000">
        <ele>332.70000</ele>
        <time>2010-01-01T11:09:15Z</time>
      </trkpt>
      <trkpt lat="43.04281000" lon="-0.88194000">
        <ele>330.80000</ele>
        <time>2010-01-01T11:09:38Z</time>
      </trkpt>
      <trkpt lat="43.04234000" lon="-0.88156000">
        <ele>328.60000</ele>
        <time>2010-01-01T11:10:00Z</time>
      </trkpt>
      <trkpt lat="43.04114000" lon="-0.88007000">
        <ele>331.80000</ele>
        <time>2010-01-01T11:11:05Z</time>
      </trkpt>
      <trkpt lat="43.04018000" lon="-0.87932000">
        <ele>331.60000</ele>
        <time>2010-01-01T11:11:49Z</time>
      </trkpt>
      <trkpt lat="43.03933000" lon="-0.87834000">
        <ele>333.50000</ele>
        <time>2010-01-01T11:12:34Z</time>
      </trkpt>
      <trkpt lat="43.03918000" lon="-0.87824000">
        <ele>330.90000</ele>
        <time>2010-01-01T11:12:41Z</time>
      </trkpt>
      <trkpt lat="43.03878000" lon="-0.87812000">
        <ele>327.20000</ele>
        <time>2010-01-01T11:12:57Z</time>
      </trkpt>
      <trkpt lat="43.03740000" lon="-0.87800000">
        <ele>322.00000</ele>
        <time>2010-01-01T11:13:52Z</time>
      </trkpt>
      <trkpt lat="43.03684000" lon="-0.87781000">
        <ele>328.60000</ele>
        <time>2010-01-01T11:14:15Z</time>
      </trkpt>
      <trkpt lat="43.03646000" lon="-0.87780000">
        <ele>328.50000</ele>
        <time>2010-01-01T11:14:31Z</time>
      </trkpt>
      <trkpt lat="43.03620000" lon="-0.87771000">
        <ele>326.60000</ele>
        <time>2010-01-01T11:14:41Z</time>
      </trkpt>
      <trkpt lat="43.03606000" lon="-0.87751000">
        <ele>321.60000</ele>
        <time>2010-01-01T11:14:49Z</time>
      </trkpt>
      <trkpt lat="43.03597000" lon="-0.87684000">
        <ele>336.10000</ele>
        <time>2010-01-01T11:15:09Z</time>
      </trkpt>
      <trkpt lat="43.03570000" lon="-0.87636000">
        <ele>342.00000</ele>
        <time>2010-01-01T11:15:27Z</time>
      </trkpt>
      <trkpt lat="43.03539000" lon="-0.87600000">
        <ele>340.40000</ele>
        <time>2010-01-01T11:15:43Z</time>
      </trkpt>
      <trkpt lat="43.03501000" lon="-0.87511000">
        <ele>343.50000</ele>
        <time>2010-01-01T11:16:14Z</time>
      </trkpt>
      <trkpt lat="43.03311990" lon="-0.87380000">
        <ele>348.20000</ele>
        <time>2010-01-01T11:17:38Z</time>
      </trkpt>
      <trkpt lat="43.03299000" lon="-0.87361000">
        <ele>349.20000</ele>
        <time>2010-01-01T11:17:46Z</time>
      </trkpt>
      <trkpt lat="43.03271000" lon="-0.87287000">
        <ele>352.70000</ele>
        <time>2010-01-01T11:18:10Z</time>
      </trkpt>
      <trkpt lat="43.03201000" lon="-0.87219000">
        <ele>350.70000</ele>
        <time>2010-01-01T11:18:45Z</time>
      </trkpt>
      <trkpt lat="43.03151000" lon="-0.87156000">
        <ele>352.60000</ele>
        <time>2010-01-01T11:19:12Z</time>
      </trkpt>
      <trkpt lat="43.03000000" lon="-0.86992000">
        <ele>358.80000</ele>
        <time>2010-01-01T11:20:29Z</time>
      </trkpt>
      <trkpt lat="43.02989000" lon="-0.86989000">
        <ele>359.70000</ele>
        <time>2010-01-01T11:20:34Z</time>
      </trkpt>
      <trkpt lat="43.02928000" lon="-0.87000000">
        <ele>354.30000</ele>
        <time>2010-01-01T11:20:58Z</time>
      </trkpt>
      <trkpt lat="43.02905000" lon="-0.86994000">
        <ele>354.70000</ele>
        <time>2010-01-01T11:21:08Z</time>
      </trkpt>
      <trkpt lat="43.02813000" lon="-0.86922000">
        <ele>361.30000</ele>
        <time>2010-01-01T11:21:50Z</time>
      </trkpt>
      <trkpt lat="43.02772000" lon="-0.86903000">
        <ele>359.30000</ele>
        <time>2010-01-01T11:22:07Z</time>
      </trkpt>
      <trkpt lat="43.02751000" lon="-0.86880000">
        <ele>364.10000</ele>
        <time>2010-01-01T11:22:18Z</time>
      </trkpt>
      <trkpt lat="43.02701000" lon="-0.86866000">
        <ele>364.00000</ele>
        <time>2010-01-01T11:22:39Z</time>
      </trkpt>
      <trkpt lat="43.02632000" lon="-0.86794000">
        <ele>373.90000</ele>
        <time>2010-01-01T11:23:13Z</time>
      </trkpt>
      <trkpt lat="43.02601000" lon="-0.86772000">
        <ele>369.60000</ele>
        <time>2010-01-01T11:23:27Z</time>
      </trkpt>
      <trkpt lat="43.02583000" lon="-0.86736000">
        <ele>365.40000</ele>
        <time>2010-01-01T11:23:40Z</time>
      </trkpt>
      <trkpt lat="43.02532990" lon="-0.86579000">
        <ele>381.80000</ele>
        <time>2010-01-01T11:24:30Z</time>
      </trkpt>
      <trkpt lat="43.02506000" lon="-0.86512000">
        <ele>376.30000</ele>
        <time>2010-01-01T11:24:53Z</time>
      </trkpt>
      <trkpt lat="43.02480000" lon="-0.86472000">
        <ele>378.60000</ele>
        <time>2010-01-01T11:25:08Z</time>
      </trkpt>
      <trkpt lat="43.02432000" lon="-0.86359000">
        <ele>381.40000</ele>
        <time>2010-01-01T11:25:46Z</time>
      </trkpt>
      <trkpt lat="43.02384000" lon="-0.86300000">
        <ele>379.20000</ele>
        <time>2010-01-01T11:26:12Z</time>
      </trkpt>
      <trkpt lat="43.02361000" lon="-0.86237000">
        <ele>387.10000</ele>
        <time>2010-01-01T11:26:33Z</time>
      </trkpt>
      <trkpt lat="43.02350000" lon="-0.86224000">
        <ele>388.00000</ele>
        <time>2010-01-01T11:26:39Z</time>
      </trkpt>
      <trkpt lat="43.02297000" lon="-0.86204000">
        <ele>388.90000</ele>
        <time>2010-01-01T11:27:01Z</time>
      </trkpt>
      <trkpt lat="43.02276000" lon="-0.86208000">
        <ele>387.40000</ele>
        <time>2010-01-01T11:27:09Z</time>
      </trkpt>
      <trkpt lat="43.02223990" lon="-0.86239000">
        <ele>379.70000</ele>
        <time>2010-01-01T11:27:32Z</time>
      </trkpt>
      <trkpt lat="43.02179000" lon="-0.86230000">
        <ele>385.40000</ele>
        <time>2010-01-01T11:27:50Z</time>
      </trkpt>
      <trkpt lat="43.02164000" lon="-0.86233000">
        <ele>386.00000</ele>
        <time>2010-01-01T11:27:56Z</time>
      </trkpt>
      <trkpt lat="43.02035000" lon="-0.86352000">
        <ele>393.20000</ele>
        <time>2010-01-01T11:28:58Z</time>
      </trkpt>
      <trkpt lat="43.01964000" lon="-0.86385000">
        <ele>396.40000</ele>
        <time>2010-01-01T11:29:28Z</time>
      </trkpt>
      <trkpt lat="43.01950990" lon="-0.86388000">
        <ele>396.60000</ele>
        <time>2010-01-01T11:29:34Z</time>
      </trkpt>
      <trkpt lat="43.01882000" lon="-0.86380000">
        <ele>398.20000</ele>
        <time>2010-01-01T11:30:01Z</time>
      </trkpt>
      <trkpt lat="43.01851000" lon="-0.86366000">
        <ele>397.30000</ele>
        <time>2010-01-01T11:30:15Z</time>
      </trkpt>
      <trkpt lat="43.01811000" lon="-0.86326000">
        <ele>398.90000</ele>
        <time>2010-01-01T11:30:34Z</time>
      </trkpt>
      <trkpt lat="43.01762000" lon="-0.86254000">
        <ele>405.80000</ele>
        <time>2010-01-01T11:31:03Z</time>
      </trkpt>
      <trkpt lat="43.01701000" lon="-0.86112000">
        <ele>410.20000</ele>
        <time>2010-01-01T11:31:51Z</time>
      </trkpt>
      <trkpt lat="43.01650000" lon="-0.86021000">
        <ele>403.90000</ele>
        <time>2010-01-01T11:32:25Z</time>
      </trkpt>
      <trkpt lat="43.01640000" lon="-0.85911000">
        <ele>413.90000</ele>
        <time>2010-01-01T11:32:57Z</time>
      </trkpt>
      <trkpt lat="43.01620000" lon="-0.85797000">
        <ele>421.50000</ele>
        <time>2010-01-01T11:33:32Z</time>
      </trkpt>
      <trkpt lat="43.01611000" lon="-0.85762000">
        <ele>422.40000</ele>
        <time>2010-01-01T11:33:43Z</time>
      </trkpt>
      <trkpt lat="43.01578000" lon="-0.85688000">
        <ele>424.40000</ele>
        <time>2010-01-01T11:34:08Z</time>
      </trkpt>
      <trkpt lat="43.01550000" lon="-0.85651000">
        <ele>426.30000</ele>
        <time>2010-01-01T11:34:23Z</time>
      </trkpt>
      <trkpt lat="43.01488000" lon="-0.85597000">
        <ele>427.90000</ele>
        <time>2010-01-01T11:34:53Z</time>
      </trkpt>
      <trkpt lat="43.01453990" lon="-0.85572000">
        <ele>428.00000</ele>
        <time>2010-01-01T11:35:08Z</time>
      </trkpt>
      <trkpt lat="43.01391000" lon="-0.85553000">
        <ele>422.70000</ele>
        <time>2010-01-01T11:35:34Z</time>
      </trkpt>
      <trkpt lat="43.01370000" lon="-0.85527000">
        <ele>424.90000</ele>
        <time>2010-01-01T11:35:46Z</time>
      </trkpt>
      <trkpt lat="43.01367000" lon="-0.85497000">
        <ele>429.00000</ele>
        <time>2010-01-01T11:35:54Z</time>
      </trkpt>
      <trkpt lat="43.01390000" lon="-0.85432000">
        <ele>433.70000</ele>
        <time>2010-01-01T11:36:16Z</time>
      </trkpt>
      <trkpt lat="43.01382000" lon="-0.85403000">
        <ele>436.40000</ele>
        <time>2010-01-01T11:36:25Z</time>
      </trkpt>
      <trkpt lat="43.01358000" lon="-0.85381000">
        <ele>440.00000</ele>
        <time>2010-01-01T11:36:36Z</time>
      </trkpt>
      <trkpt lat="43.01337000" lon="-0.85375000">
        <ele>440.60000</ele>
        <time>2010-01-01T11:36:45Z</time>
      </trkpt>
      <trkpt lat="43.01305000" lon="-0.85382000">
        <ele>437.40000</ele>
        <time>2010-01-01T11:36:58Z</time>
      </trkpt>
      <trkpt lat="43.01240000" lon="-0.85381000">
        <ele>434.00000</ele>
        <time>2010-01-01T11:37:24Z</time>
      </trkpt>
      <trkpt lat="43.01136000" lon="-0.85322000">
        <ele>439.00000</ele>
        <time>2010-01-01T11:38:09Z</time>
      </trkpt>
      <trkpt lat="43.01063000" lon="-0.85296000">
        <ele>442.10000</ele>
        <time>2010-01-01T11:38:39Z</time>
      </trkpt>
      <trkpt lat="43.00980000" lon="-0.85257000">
        <ele>443.90000</ele>
        <time>2010-01-01T11:39:14Z</time>
      </trkpt>
      <trkpt lat="43.00929000" lon="-0.85243000">
        <ele>438.20000</ele>
        <time>2010-01-01T11:39:35Z</time>
      </trkpt>
      <trkpt lat="43.00890000" lon="-0.85219000">
        <ele>440.90000</ele>
        <time>2010-01-01T11:39:52Z</time>
      </trkpt>
      <trkpt lat="43.00850000" lon="-0.85207000">
        <ele>437.90000</ele>
        <time>2010-01-01T11:40:08Z</time>
      </trkpt>
      <trkpt lat="43.00806990" lon="-0.85174000">
        <ele>437.20000</ele>
        <time>2010-01-01T11:40:28Z</time>
      </trkpt>
      <trkpt lat="43.00797000" lon="-0.85160000">
        <ele>437.30000</ele>
        <time>2010-01-01T11:40:34Z</time>
      </trkpt>
      <trkpt lat="43.00782000" lon="-0.85093000">
        <ele>447.60000</ele>
        <time>2010-01-01T11:40:54Z</time>
      </trkpt>
      <trkpt lat="43.00770000" lon="-0.85071000">
        <ele>449.40000</ele>
        <time>2010-01-01T11:41:02Z</time>
      </trkpt>
      <trkpt lat="43.00714000" lon="-0.85039000">
        <ele>445.20000</ele>
        <time>2010-01-01T11:41:27Z</time>
      </trkpt>
      <trkpt lat="43.00672000" lon="-0.84999000">
        <ele>444.00000</ele>
        <time>2010-01-01T11:41:47Z</time>
      </trkpt>
      <trkpt lat="43.00594000" lon="-0.84942000">
        <ele>454.20000</ele>
        <time>2010-01-01T11:42:23Z</time>
      </trkpt>
      <trkpt lat="43.00541000" lon="-0.84916000">
        <ele>453.80000</ele>
        <time>2010-01-01T11:42:45Z</time>
      </trkpt>
      <trkpt lat="43.00429000" lon="-0.84895000">
        <ele>454.90000</ele>
        <time>2010-01-01T11:43:30Z</time>
      </trkpt>
      <trkpt lat="43.00399000" lon="-0.84878000">
        <ele>459.90000</ele>
        <time>2010-01-01T11:43:43Z</time>
      </trkpt>
      <trkpt lat="43.00386000" lon="-0.84834000">
        <ele>466.20000</ele>
        <time>2010-01-01T11:43:57Z</time>
      </trkpt>
      <trkpt lat="43.00380000" lon="-0.84737000">
        <ele>479.60000</ele>
        <time>2010-01-01T11:44:26Z</time>
      </trkpt>
      <trkpt lat="43.00366000" lon="-0.84701000">
        <ele>483.90000</ele>
        <time>2010-01-01T11:44:38Z</time>
      </trkpt>
      <trkpt lat="43.00348000" lon="-0.84684000">
        <ele>480.20000</ele>
        <time>2010-01-01T11:44:47Z</time>
      </trkpt>
      <trkpt lat="43.00298990" lon="-0.84675000">
        <ele>472.00000</ele>
        <time>2010-01-01T11:45:06Z</time>
      </trkpt>
      <trkpt lat="43.00264000" lon="-0.84656000">
        <ele>470.80000</ele>
        <time>2010-01-01T11:45:21Z</time>
      </trkpt>
      <trkpt lat="43.00232000" lon="-0.84610000">
        <ele>476.60000</ele>
        <time>2010-01-01T11:45:40Z</time>
      </trkpt>
      <trkpt lat="43.00167000" lon="-0.84539000">
        <ele>468.40000</ele>
        <time>2010-01-01T11:46:13Z</time>
      </trkpt>
      <trkpt lat="43.00153000" lon="-0.84514000">
        <ele>470.40000</ele>
        <time>2010-01-01T11:46:23Z</time>
      </trkpt>
      <trkpt lat="43.00130000" lon="-0.84439000">
        <ele>471.70000</ele>
        <time>2010-01-01T11:46:46Z</time>
      </trkpt>
      <trkpt lat="43.00122000" lon="-0.84366000">
        <ele>477.90000</ele>
        <time>2010-01-01T11:47:08Z</time>
      </trkpt>
      <trkpt lat="43.00113000" lon="-0.84346000">
        <ele>478.70000</ele>
        <time>2010-01-01T11:47:15Z</time>
      </trkpt>
      <trkpt lat="43.00085000" lon="-0.84325000">
        <ele>476.60000</ele>
        <time>2010-01-01T11:47:28Z</time>
      </trkpt>
      <trkpt lat="42.99972000" lon="-0.84300000">
        <ele>484.30000</ele>
        <time>2010-01-01T11:48:13Z</time>
      </trkpt>
      <trkpt lat="42.99939000" lon="-0.84299000">
        <ele>485.00000</ele>
        <time>2010-01-01T11:48:27Z</time>
      </trkpt>
      <trkpt lat="42.99911000" lon="-0.84280000">
        <ele>488.70000</ele>
        <time>2010-01-01T11:48:39Z</time>
      </trkpt>
      <trkpt lat="42.99883000" lon="-0.84227000">
        <ele>493.70000</ele>
        <time>2010-01-01T11:48:58Z</time>
      </trkpt>
      <trkpt lat="42.99870000" lon="-0.84171000">
        <ele>495.10000</ele>
        <time>2010-01-01T11:49:15Z</time>
      </trkpt>
      <trkpt lat="42.99874000" lon="-0.84134000">
        <ele>494.30000</ele>
        <time>2010-01-01T11:49:26Z</time>
      </trkpt>
      <trkpt lat="42.99908000" lon="-0.84049000">
        <ele>505.20000</ele>
        <time>2010-01-01T11:49:55Z</time>
      </trkpt>
      <trkpt lat="42.99893000" lon="-0.83973000">
        <ele>498.50000</ele>
        <time>2010-01-01T11:50:18Z</time>
      </trkpt>
      <trkpt lat="42.99897000" lon="-0.83955000">
        <ele>501.00000</ele>
        <time>2010-01-01T11:50:23Z</time>
      </trkpt>
      <trkpt lat="42.99922000" lon="-0.83925000">
        <ele>509.30000</ele>
        <time>2010-01-01T11:50:37Z</time>
      </trkpt>
      <trkpt lat="42.99920000" lon="-0.83900000">
        <ele>512.00000</ele>
        <time>2010-01-01T11:50:44Z</time>
      </trkpt>
      <trkpt lat="42.99895990" lon="-0.83875990">
        <ele>513.00000</ele>
        <time>2010-01-01T11:50:56Z</time>
      </trkpt>
      <trkpt lat="42.99822000" lon="-0.83846000">
        <ele>519.30000</ele>
        <time>2010-01-01T11:51:27Z</time>
      </trkpt>
      <trkpt lat="42.99771000" lon="-0.83858990">
        <ele>518.70000</ele>
        <time>2010-01-01T11:51:48Z</time>
      </trkpt>
      <trkpt lat="42.99722000" lon="-0.83892000">
        <ele>508.50000</ele>
        <time>2010-01-01T11:52:09Z</time>
      </trkpt>
      <trkpt lat="42.99707990" lon="-0.83888000">
        <ele>509.90000</ele>
        <time>2010-01-01T11:52:15Z</time>
      </trkpt>
      <trkpt lat="42.99663000" lon="-0.83807000">
        <ele>525.10000</ele>
        <time>2010-01-01T11:52:45Z</time>
      </trkpt>
      <trkpt lat="42.99621000" lon="-0.83770000">
        <ele>526.40000</ele>
        <time>2010-01-01T11:53:05Z</time>
      </trkpt>
      <trkpt lat="42.99585000" lon="-0.83717000">
        <ele>518.80000</ele>
        <time>2010-01-01T11:53:26Z</time>
      </trkpt>
      <trkpt lat="42.99580000" lon="-0.83682000">
        <ele>521.80000</ele>
        <time>2010-01-01T11:53:37Z</time>
      </trkpt>
      <trkpt lat="42.99597000" lon="-0.83629000">
        <ele>532.80000</ele>
        <time>2010-01-01T11:53:54Z</time>
      </trkpt>
      <trkpt lat="42.99600000" lon="-0.83591000">
        <ele>537.40000</ele>
        <time>2010-01-01T11:54:05Z</time>
      </trkpt>
      <trkpt lat="42.99595990" lon="-0.83570990">
        <ele>539.70000</ele>
        <time>2010-01-01T11:54:11Z</time>
      </trkpt>
      <trkpt lat="42.99553000" lon="-0.83529000">
        <ele>532.70000</ele>
        <time>2010-01-01T11:54:32Z</time>
      </trkpt>
      <trkpt lat="42.99445990" lon="-0.83320000">
        <ele>538.10000</ele>
        <time>2010-01-01T11:55:47Z</time>
      </trkpt>
      <trkpt lat="42.99443000" lon="-0.83292000">
        <ele>536.60000</ele>
        <time>2010-01-01T11:55:55Z</time>
      </trkpt>
      <trkpt lat="42.99472000" lon="-0.83231990">
        <ele>550.30000</ele>
        <time>2010-01-01T11:56:16Z</time>
      </trkpt>
      <trkpt lat="42.99483000" lon="-0.83185000">
        <ele>552.40000</ele>
        <time>2010-01-01T11:56:30Z</time>
      </trkpt>
      <trkpt lat="42.99484000" lon="-0.83036000">
        <ele>555.50000</ele>
        <time>2010-01-01T11:57:14Z</time>
      </trkpt>
      <trkpt lat="42.99454990" lon="-0.82944000">
        <ele>557.60000</ele>
        <time>2010-01-01T11:57:43Z</time>
      </trkpt>
      <trkpt lat="42.99416000" lon="-0.82878000">
        <ele>555.50000</ele>
        <time>2010-01-01T11:58:08Z</time>
      </trkpt>
      <trkpt lat="42.99347000" lon="-0.82783000">
        <ele>556.60000</ele>
        <time>2010-01-01T11:58:47Z</time>
      </trkpt>
      <trkpt lat="42.99336000" lon="-0.82755000">
        <ele>554.70000</ele>
        <time>2010-01-01T11:58:57Z</time>
      </trkpt>
      <trkpt lat="42.99338000" lon="-0.82738000">
        <ele>555.50000</ele>
        <time>2010-01-01T11:59:02Z</time>
      </trkpt>
      <trkpt lat="42.99351990" lon="-0.82701000">
        <ele>559.60000</ele>
        <time>2010-01-01T11:59:14Z</time>
      </trkpt>
      <trkpt lat="42.99385000" lon="-0.82653000">
        <ele>567.10000</ele>
        <time>2010-01-01T11:59:33Z</time>
      </trkpt>
      <trkpt lat="42.99406000" lon="-0.82647000">
        <ele>572.30000</ele>
        <time>2010-01-01T11:59:42Z</time>
      </trkpt>
      <trkpt lat="42.99462000" lon="-0.82651000">
        <ele>585.60000</ele>
        <time>2010-01-01T12:00:04Z</time>
      </trkpt>
      <trkpt lat="42.99490000" lon="-0.82641000">
        <ele>588.10000</ele>
        <time>2010-01-01T12:00:16Z</time>
      </trkpt>
      <trkpt lat="42.99510000" lon="-0.82625000">
        <ele>588.40000</ele>
        <time>2010-01-01T12:00:25Z</time>
      </trkpt>
      <trkpt lat="42.99548000" lon="-0.82580000">
        <ele>588.40000</ele>
        <time>2010-01-01T12:00:45Z</time>
      </trkpt>
      <trkpt lat="42.99592000" lon="-0.82500000">
        <ele>588.20000</ele>
        <time>2010-01-01T12:01:15Z</time>
      </trkpt>
      <trkpt lat="42.99698000" lon="-0.82420000">
        <ele>598.60000</ele>
        <time>2010-01-01T12:02:03Z</time>
      </trkpt>
      <trkpt lat="42.99722000" lon="-0.82382990">
        <ele>601.00000</ele>
        <time>2010-01-01T12:02:18Z</time>
      </trkpt>
      <trkpt lat="42.99726000" lon="-0.82363000">
        <ele>600.70000</ele>
        <time>2010-01-01T12:02:24Z</time>
      </trkpt>
      <trkpt lat="42.99714000" lon="-0.82340000">
        <ele>598.30000</ele>
        <time>2010-01-01T12:02:32Z</time>
      </trkpt>
      <trkpt lat="42.99673000" lon="-0.82312000">
        <ele>596.40000</ele>
        <time>2010-01-01T12:02:50Z</time>
      </trkpt>
      <trkpt lat="42.99660000" lon="-0.82225000">
        <ele>603.30000</ele>
        <time>2010-01-01T12:03:16Z</time>
      </trkpt>
      <trkpt lat="42.99613000" lon="-0.82182990">
        <ele>598.30000</ele>
        <time>2010-01-01T12:03:39Z</time>
      </trkpt>
      <trkpt lat="42.99600000" lon="-0.82155000">
        <ele>598.80000</ele>
        <time>2010-01-01T12:03:48Z</time>
      </trkpt>
      <trkpt lat="42.99593000" lon="-0.82091000">
        <ele>604.00000</ele>
        <time>2010-01-01T12:04:07Z</time>
      </trkpt>
      <trkpt lat="42.99594000" lon="-0.82035000">
        <ele>605.20000</ele>
        <time>2010-01-01T12:04:24Z</time>
      </trkpt>
      <trkpt lat="42.99629000" lon="-0.81977000">
        <ele>616.90000</ele>
        <time>2010-01-01T12:04:46Z</time>
      </trkpt>
      <trkpt lat="42.99638000" lon="-0.81948000">
        <ele>620.70000</ele>
        <time>2010-01-01T12:04:55Z</time>
      </trkpt>
      <trkpt lat="42.99623000" lon="-0.81749000">
        <ele>631.60000</ele>
        <time>2010-01-01T12:05:54Z</time>
      </trkpt>
      <trkpt lat="42.99602000" lon="-0.81695000">
        <ele>628.60000</ele>
        <time>2010-01-01T12:06:11Z</time>
      </trkpt>
      <trkpt lat="42.99572000" lon="-0.81666000">
        <ele>625.10000</ele>
        <time>2010-01-01T12:06:26Z</time>
      </trkpt>
      <trkpt lat="42.99559000" lon="-0.81633000">
        <ele>628.90000</ele>
        <time>2010-01-01T12:06:37Z</time>
      </trkpt>
      <trkpt lat="42.99555000" lon="-0.81538990">
        <ele>636.60000</ele>
        <time>2010-01-01T12:07:05Z</time>
      </trkpt>
      <trkpt lat="42.99521000" lon="-0.81335000">
        <ele>636.00000</ele>
        <time>2010-01-01T12:08:06Z</time>
      </trkpt>
      <trkpt lat="42.99522000" lon="-0.81301000">
        <ele>635.40000</ele>
        <time>2010-01-01T12:08:16Z</time>
      </trkpt>
      <trkpt lat="42.99532000" lon="-0.81253000">
        <ele>635.70000</ele>
        <time>2010-01-01T12:08:31Z</time>
      </trkpt>
      <trkpt lat="42.99542000" lon="-0.81232000">
        <ele>635.90000</ele>
        <time>2010-01-01T12:08:38Z</time>
      </trkpt>
      <trkpt lat="42.99606000" lon="-0.81166000">
        <ele>648.10000</ele>
        <time>2010-01-01T12:09:10Z</time>
      </trkpt>
      <trkpt lat="42.99622000" lon="-0.81133990">
        <ele>653.40000</ele>
        <time>2010-01-01T12:09:21Z</time>
      </trkpt>
      <trkpt lat="42.99641000" lon="-0.80874000">
        <ele>662.30000</ele>
        <time>2010-01-01T12:10:38Z</time>
      </trkpt>
      <trkpt lat="42.99659000" lon="-0.80807000">
        <ele>665.70000</ele>
        <time>2010-01-01T12:10:59Z</time>
      </trkpt>
      <trkpt lat="42.99686000" lon="-0.80775000">
        <ele>676.80000</ele>
        <time>2010-01-01T12:11:13Z</time>
      </trkpt>
      <trkpt lat="42.99689990" lon="-0.80763000">
        <ele>677.40000</ele>
        <time>2010-01-01T12:11:17Z</time>
      </trkpt>
      <trkpt lat="42.99688000" lon="-0.80747000">
        <ele>675.30000</ele>
        <time>2010-01-01T12:11:22Z</time>
      </trkpt>
      <trkpt lat="42.99651990" lon="-0.80713000">
        <ele>663.90000</ele>
        <time>2010-01-01T12:11:39Z</time>
      </trkpt>
      <trkpt lat="42.99635000" lon="-0.80622000">
        <ele>672.90000</ele>
        <time>2010-01-01T12:12:07Z</time>
      </trkpt>
      <trkpt lat="42.99601000" lon="-0.80533990">
        <ele>672.60000</ele>
        <time>2010-01-01T12:12:36Z</time>
      </trkpt>
      <trkpt lat="42.99592000" lon="-0.80466000">
        <ele>677.70000</ele>
        <time>2010-01-01T12:12:56Z</time>
      </trkpt>
      <trkpt lat="42.99598000" lon="-0.80437000">
        <ele>682.70000</ele>
        <time>2010-01-01T12:13:05Z</time>
      </trkpt>
      <trkpt lat="42.99638000" lon="-0.80388000">
        <ele>699.90000</ele>
        <time>2010-01-01T12:13:26Z</time>
      </trkpt>
      <trkpt lat="42.99651000" lon="-0.80358000">
        <ele>707.20000</ele>
        <time>2010-01-01T12:13:37Z</time>
      </trkpt>
      <trkpt lat="42.99612000" lon="-0.80101000">
        <ele>724.90000</ele>
        <time>2010-01-01T12:14:53Z</time>
      </trkpt>
      <trkpt lat="42.99615000" lon="-0.80043000">
        <ele>732.50000</ele>
        <time>2010-01-01T12:15:10Z</time>
      </trkpt>
      <trkpt lat="42.99597000" lon="-0.79957000">
        <ele>727.60000</ele>
        <time>2010-01-01T12:15:37Z</time>
      </trkpt>
      <trkpt lat="42.99598000" lon="-0.79935000">
        <ele>729.70000</ele>
        <time>2010-01-01T12:15:43Z</time>
      </trkpt>
      <trkpt lat="42.99609000" lon="-0.79917000">
        <ele>736.80000</ele>
        <time>2010-01-01T12:15:50Z</time>
      </trkpt>
      <trkpt lat="42.99644000" lon="-0.79901000">
        <ele>757.30000</ele>
        <time>2010-01-01T12:16:05Z</time>
      </trkpt>
      <trkpt lat="42.99654000" lon="-0.79876000">
        <ele>764.20000</ele>
        <time>2010-01-01T12:16:13Z</time>
      </trkpt>
      <trkpt lat="42.99647000" lon="-0.79858000">
        <ele>762.70000</ele>
        <time>2010-01-01T12:16:19Z</time>
      </trkpt>
      <trkpt lat="42.99597000" lon="-0.79838000">
        <ele>746.00000</ele>
        <time>2010-01-01T12:16:40Z</time>
      </trkpt>
      <trkpt lat="42.99541000" lon="-0.79782000">
        <ele>753.90000</ele>
        <time>2010-01-01T12:17:08Z</time>
      </trkpt>
      <trkpt lat="42.99472000" lon="-0.79656000">
        <ele>776.20000</ele>
        <time>2010-01-01T12:17:54Z</time>
      </trkpt>
      <trkpt lat="42.99414000" lon="-0.79576000">
        <ele>781.80000</ele>
        <time>2010-01-01T12:18:27Z</time>
      </trkpt>
      <trkpt lat="42.99403000" lon="-0.79547000">
        <ele>789.00000</ele>
        <time>2010-01-01T12:18:36Z</time>
      </trkpt>
      <trkpt lat="42.99358000" lon="-0.79516000">
        <ele>785.90000</ele>
        <time>2010-01-01T12:18:56Z</time>
      </trkpt>
      <trkpt lat="42.99326000" lon="-0.79457000">
        <ele>796.00000</ele>
        <time>2010-01-01T12:19:18Z</time>
      </trkpt>
      <trkpt lat="42.99312000" lon="-0.79412000">
        <ele>805.00000</ele>
        <time>2010-01-01T12:19:32Z</time>
      </trkpt>
      <trkpt lat="42.99302000" lon="-0.79306000">
        <ele>828.30000</ele>
        <time>2010-01-01T12:20:04Z</time>
      </trkpt>
      <trkpt lat="42.99285000" lon="-0.79245000">
        <ele>834.40000</ele>
        <time>2010-01-01T12:20:23Z</time>
      </trkpt>
      <trkpt lat="42.99268000" lon="-0.79129000">
        <ele>847.70000</ele>
        <time>2010-01-01T12:20:57Z</time>
      </trkpt>
      <trkpt lat="42.99274000" lon="-0.78981000">
        <ele>864.70000</ele>
        <time>2010-01-01T12:21:41Z</time>
      </trkpt>
      <trkpt lat="42.99284000" lon="-0.78953000">
        <ele>869.30000</ele>
        <time>2010-01-01T12:21:50Z</time>
      </trkpt>
      <trkpt lat="42.99315000" lon="-0.78908000">
        <ele>874.30000</ele>
        <time>2010-01-01T12:22:08Z</time>
      </trkpt>
      <trkpt lat="42.99330000" lon="-0.78851000">
        <ele>871.70000</ele>
        <time>2010-01-01T12:22:26Z</time>
      </trkpt>
      <trkpt lat="42.99332000" lon="-0.78823000">
        <ele>870.30000</ele>
        <time>2010-01-01T12:22:34Z</time>
      </trkpt>
      <trkpt lat="42.99322990" lon="-0.78765000">
        <ele>872.10000</ele>
        <time>2010-01-01T12:22:51Z</time>
      </trkpt>
      <trkpt lat="42.99326000" lon="-0.78745000">
        <ele>872.00000</ele>
        <time>2010-01-01T12:22:57Z</time>
      </trkpt>
      <trkpt lat="42.99342000" lon="-0.78713000">
        <ele>874.70000</ele>
        <time>2010-01-01T12:23:09Z</time>
      </trkpt>
      <trkpt lat="42.99341000" lon="-0.78698000">
        <ele>874.60000</ele>
        <time>2010-01-01T12:23:13Z</time>
      </trkpt>
      <trkpt lat="42.99334000" lon="-0.78689000">
        <ele>872.70000</ele>
        <time>2010-01-01T12:23:17Z</time>
      </trkpt>
      <trkpt lat="42.99324000" lon="-0.78688000">
        <ele>873.00000</ele>
        <time>2010-01-01T12:23:21Z</time>
      </trkpt>
      <trkpt lat="42.99282000" lon="-0.78702000">
        <ele>875.80000</ele>
        <time>2010-01-01T12:23:38Z</time>
      </trkpt>
      <trkpt lat="42.99235000" lon="-0.78689000">
        <ele>878.30000</ele>
        <time>2010-01-01T12:23:57Z</time>
      </trkpt>
      <trkpt lat="42.99185000" lon="-0.78649000">
        <ele>883.40000</ele>
        <time>2010-01-01T12:24:21Z</time>
      </trkpt>
      <trkpt lat="42.99180000" lon="-0.78630000">
        <ele>886.50000</ele>
        <time>2010-01-01T12:24:26Z</time>
      </trkpt>
      <trkpt lat="42.99187000" lon="-0.78613990">
        <ele>888.90000</ele>
        <time>2010-01-01T12:24:32Z</time>
      </trkpt>
      <trkpt lat="42.99213000" lon="-0.78596990">
        <ele>892.00000</ele>
        <time>2010-01-01T12:24:43Z</time>
      </trkpt>
      <trkpt lat="42.99289000" lon="-0.78610000">
        <ele>890.70000</ele>
        <time>2010-01-01T12:25:14Z</time>
      </trkpt>
      <trkpt lat="42.99318000" lon="-0.78607000">
        <ele>892.60000</ele>
        <time>2010-01-01T12:25:26Z</time>
      </trkpt>
      <trkpt lat="42.99364000" lon="-0.78579000">
        <ele>903.40000</ele>
        <time>2010-01-01T12:25:46Z</time>
      </trkpt>
      <trkpt lat="42.99395000" lon="-0.78552000">
        <ele>912.80000</ele>
        <time>2010-01-01T12:26:01Z</time>
      </trkpt>
      <trkpt lat="42.99487000" lon="-0.78440000">
        <ele>924.80000</ele>
        <time>2010-01-01T12:26:50Z</time>
      </trkpt>
      <trkpt lat="42.99499000" lon="-0.78408000">
        <ele>924.70000</ele>
        <time>2010-01-01T12:27:00Z</time>
      </trkpt>
      <trkpt lat="42.99522000" lon="-0.78380000">
        <ele>921.40000</ele>
        <time>2010-01-01T12:27:13Z</time>
      </trkpt>
      <trkpt lat="42.99516000" lon="-0.78333000">
        <ele>929.10000</ele>
        <time>2010-01-01T12:27:27Z</time>
      </trkpt>
      <trkpt lat="42.99519000" lon="-0.78293000">
        <ele>936.50000</ele>
        <time>2010-01-01T12:27:39Z</time>
      </trkpt>
      <trkpt lat="42.99541000" lon="-0.78228000">
        <ele>943.80000</ele>
        <time>2010-01-01T12:28:00Z</time>
      </trkpt>
      <trkpt lat="42.99556000" lon="-0.78213000">
        <ele>943.10000</ele>
        <time>2010-01-01T12:28:07Z</time>
      </trkpt>
      <trkpt lat="42.99579000" lon="-0.78207000">
        <ele>937.00000</ele>
        <time>2010-01-01T12:28:16Z</time>
      </trkpt>
      <trkpt lat="42.99592000" lon="-0.78212000">
        <ele>933.20000</ele>
        <time>2010-01-01T12:28:22Z</time>
      </trkpt>
      <trkpt lat="42.99620000" lon="-0.78240000">
        <ele>921.20000</ele>
        <time>2010-01-01T12:28:36Z</time>
      </trkpt>
      <trkpt lat="42.99636000" lon="-0.78237000">
        <ele>920.90000</ele>
        <time>2010-01-01T12:28:42Z</time>
      </trkpt>
      <trkpt lat="42.99670000" lon="-0.78206000">
        <ele>930.30000</ele>
        <time>2010-01-01T12:28:58Z</time>
      </trkpt>
      <trkpt lat="42.99782000" lon="-0.78066000">
        <ele>940.60000</ele>
        <time>2010-01-01T12:29:59Z</time>
      </trkpt>
      <trkpt lat="42.99801990" lon="-0.78023000">
        <ele>943.30000</ele>
        <time>2010-01-01T12:30:14Z</time>
      </trkpt>
      <trkpt lat="42.99818000" lon="-0.77965000">
        <ele>948.60000</ele>
        <time>2010-01-01T12:30:32Z</time>
      </trkpt>
      <trkpt lat="42.99827000" lon="-0.77952000">
        <ele>947.80000</ele>
        <time>2010-01-01T12:30:38Z</time>
      </trkpt>
      <trkpt lat="42.99853000" lon="-0.77944000">
        <ele>942.40000</ele>
        <time>2010-01-01T12:30:48Z</time>
      </trkpt>
      <trkpt lat="42.99862000" lon="-0.77922000">
        <ele>943.60000</ele>
        <time>2010-01-01T12:30:56Z</time>
      </trkpt>
      <trkpt lat="42.99855000" lon="-0.77827000">
        <ele>956.00000</ele>
        <time>2010-01-01T12:31:24Z</time>
      </trkpt>
      <trkpt lat="42.99839000" lon="-0.77768000">
        <ele>959.60000</ele>
        <time>2010-01-01T12:31:42Z</time>
      </trkpt>
      <trkpt lat="42.99841000" lon="-0.77756000">
        <ele>959.40000</ele>
        <time>2010-01-01T12:31:46Z</time>
      </trkpt>
      <trkpt lat="42.99857990" lon="-0.77754000">
        <ele>958.10000</ele>
        <time>2010-01-01T12:31:52Z</time>
      </trkpt>
      <trkpt lat="42.99911000" lon="-0.77823000">
        <ele>943.90000</ele>
        <time>2010-01-01T12:32:22Z</time>
      </trkpt>
      <trkpt lat="42.99944000" lon="-0.77832000">
        <ele>941.20000</ele>
        <time>2010-01-01T12:32:35Z</time>
      </trkpt>
      <trkpt lat="42.99986000" lon="-0.77803000">
        <ele>946.30000</ele>
        <time>2010-01-01T12:32:54Z</time>
      </trkpt>
      <trkpt lat="43.00070000" lon="-0.77766000">
        <ele>950.40000</ele>
        <time>2010-01-01T12:33:29Z</time>
      </trkpt>
      <trkpt lat="43.00213000" lon="-0.77776000">
        <ele>951.80000</ele>
        <time>2010-01-01T12:34:27Z</time>
      </trkpt>
      <trkpt lat="43.00255000" lon="-0.77788000">
        <ele>953.30000</ele>
        <time>2010-01-01T12:34:44Z</time>
      </trkpt>
      <trkpt lat="43.00302000" lon="-0.77790000">
        <ele>956.00000</ele>
        <time>2010-01-01T12:35:03Z</time>
      </trkpt>
      <trkpt lat="43.00316000" lon="-0.77786000">
        <ele>956.50000</ele>
        <time>2010-01-01T12:35:08Z</time>
      </trkpt>
      <trkpt lat="43.00325000" lon="-0.77776000">
        <ele>956.10000</ele>
        <time>2010-01-01T12:35:13Z</time>
      </trkpt>
      <trkpt lat="43.00338000" lon="-0.77742000">
        <ele>956.40000</ele>
        <time>2010-01-01T12:35:24Z</time>
      </trkpt>
      <trkpt lat="43.00329000" lon="-0.77718000">
        <ele>958.60000</ele>
        <time>2010-01-01T12:35:32Z</time>
      </trkpt>
      <trkpt lat="43.00315000" lon="-0.77700000">
        <ele>963.30000</ele>
        <time>2010-01-01T12:35:40Z</time>
      </trkpt>
      <trkpt lat="43.00303000" lon="-0.77699000">
        <ele>965.30000</ele>
        <time>2010-01-01T12:35:45Z</time>
      </trkpt>
      <trkpt lat="43.00285000" lon="-0.77714000">
        <ele>963.70000</ele>
        <time>2010-01-01T12:35:53Z</time>
      </trkpt>
      <trkpt lat="43.00263000" lon="-0.77722000">
        <ele>963.10000</ele>
        <time>2010-01-01T12:36:02Z</time>
      </trkpt>
      <trkpt lat="43.00214000" lon="-0.77711000">
        <ele>967.00000</ele>
        <time>2010-01-01T12:36:22Z</time>
      </trkpt>
      <trkpt lat="43.00138000" lon="-0.77649000">
        <ele>986.30000</ele>
        <time>2010-01-01T12:36:57Z</time>
      </trkpt>
      <trkpt lat="43.00101000" lon="-0.77596000">
        <ele>1001.3000</ele>
        <time>2010-01-01T12:37:19Z</time>
      </trkpt>
      <trkpt lat="43.00082000" lon="-0.77579000">
        <ele>1005.0000</ele>
        <time>2010-01-01T12:37:28Z</time>
      </trkpt>
      <trkpt lat="43.00072000" lon="-0.77579000">
        <ele>1006.3000</ele>
        <time>2010-01-01T12:37:32Z</time>
      </trkpt>
      <trkpt lat="43.00044000" lon="-0.77615000">
        <ele>997.60000</ele>
        <time>2010-01-01T12:37:47Z</time>
      </trkpt>
      <trkpt lat="42.99982000" lon="-0.77607000">
        <ele>1004.5000</ele>
        <time>2010-01-01T12:38:12Z</time>
      </trkpt>
      <trkpt lat="42.99948000" lon="-0.77615000">
        <ele>1000.0000</ele>
        <time>2010-01-01T12:38:26Z</time>
      </trkpt>
      <trkpt lat="42.99912000" lon="-0.77614000">
        <ele>997.80000</ele>
        <time>2010-01-01T12:38:41Z</time>
      </trkpt>
      <trkpt lat="42.99870000" lon="-0.77531000">
        <ele>1014.7000</ele>
        <time>2010-01-01T12:39:10Z</time>
      </trkpt>
      <trkpt lat="42.99830990" lon="-0.77414000">
        <ele>1032.2000</ele>
        <time>2010-01-01T12:39:48Z</time>
      </trkpt>
      <trkpt lat="42.99820000" lon="-0.77341000">
        <ele>1042.1000</ele>
        <time>2010-01-01T12:40:10Z</time>
      </trkpt>
      <trkpt lat="42.99822000" lon="-0.77188000">
        <ele>1053.6000</ele>
        <time>2010-01-01T12:40:54Z</time>
      </trkpt>
      <trkpt lat="42.99835000" lon="-0.77046000">
        <ele>1057.7000</ele>
        <time>2010-01-01T12:41:36Z</time>
      </trkpt>
      <trkpt lat="42.99861000" lon="-0.76869000">
        <ele>1078.4000</ele>
        <time>2010-01-01T12:42:29Z</time>
      </trkpt>
      <trkpt lat="42.99868000" lon="-0.76734000">
        <ele>1086.9000</ele>
        <time>2010-01-01T12:43:09Z</time>
      </trkpt>
      <trkpt lat="42.99879000" lon="-0.76675000">
        <ele>1089.9000</ele>
        <time>2010-01-01T12:43:27Z</time>
      </trkpt>
      <trkpt lat="42.99965000" lon="-0.76459000">
        <ele>1115.2000</ele>
        <time>2010-01-01T12:44:39Z</time>
      </trkpt>
      <trkpt lat="43.00007000" lon="-0.76328000">
        <ele>1130.5000</ele>
        <time>2010-01-01T12:45:20Z</time>
      </trkpt>
      <trkpt lat="43.00019000" lon="-0.76280000">
        <ele>1136.2000</ele>
        <time>2010-01-01T12:45:35Z</time>
      </trkpt>
      <trkpt lat="43.00036990" lon="-0.76113000">
        <ele>1156.8000</ele>
        <time>2010-01-01T12:46:25Z</time>
      </trkpt>
      <trkpt lat="43.00022000" lon="-0.76027000">
        <ele>1158.3000</ele>
        <time>2010-01-01T12:46:51Z</time>
      </trkpt>
      <trkpt lat="43.00019000" lon="-0.75932000">
        <ele>1168.9000</ele>
        <time>2010-01-01T12:47:18Z</time>
      </trkpt>
      <trkpt lat="43.00003000" lon="-0.75859000">
        <ele>1173.7000</ele>
        <time>2010-01-01T12:47:41Z</time>
      </trkpt>
      <trkpt lat="42.99980000" lon="-0.75806000">
        <ele>1175.8000</ele>
        <time>2010-01-01T12:47:59Z</time>
      </trkpt>
      <trkpt lat="42.99937000" lon="-0.75659000">
        <ele>1187.4000</ele>
        <time>2010-01-01T12:48:45Z</time>
      </trkpt>
      <trkpt lat="42.99919000" lon="-0.75630000">
        <ele>1182.5000</ele>
        <time>2010-01-01T12:48:56Z</time>
      </trkpt>
      <trkpt lat="42.99897000" lon="-0.75571990">
        <ele>1192.4000</ele>
        <time>2010-01-01T12:49:15Z</time>
      </trkpt>
      <trkpt lat="42.99829000" lon="-0.75300000">
        <ele>1228.6000</ele>
        <time>2010-01-01T12:50:40Z</time>
      </trkpt>
      <trkpt lat="42.99819000" lon="-0.75299000">
        <ele>1232.6000</ele>
        <time>2010-01-01T12:50:44Z</time>
      </trkpt>
      <trkpt lat="42.99767000" lon="-0.75465000">
        <ele>1232.9000</ele>
        <time>2010-01-01T12:51:36Z</time>
      </trkpt>
      <trkpt lat="42.99732000" lon="-0.75514000">
        <ele>1239.1000</ele>
        <time>2010-01-01T12:51:56Z</time>
      </trkpt>
      <trkpt lat="42.99711000" lon="-0.75527000">
        <ele>1245.7000</ele>
        <time>2010-01-01T12:52:06Z</time>
      </trkpt>
      <trkpt lat="42.99698000" lon="-0.75566990">
        <ele>1245.4000</ele>
        <time>2010-01-01T12:52:19Z</time>
      </trkpt>
      <trkpt lat="42.99659000" lon="-0.75632990">
        <ele>1253.5000</ele>
        <time>2010-01-01T12:52:43Z</time>
      </trkpt>
      <trkpt lat="42.99644000" lon="-0.75714000">
        <ele>1250.4000</ele>
        <time>2010-01-01T12:53:08Z</time>
      </trkpt>
      <trkpt lat="42.99639000" lon="-0.75779000">
        <ele>1243.6000</ele>
        <time>2010-01-01T12:53:27Z</time>
      </trkpt>
      <trkpt lat="42.99620000" lon="-0.75812000">
        <ele>1241.3000</ele>
        <time>2010-01-01T12:53:39Z</time>
      </trkpt>
      <trkpt lat="42.99613000" lon="-0.75818000">
        <ele>1241.0000</ele>
        <time>2010-01-01T12:53:43Z</time>
      </trkpt>
      <trkpt lat="42.99599000" lon="-0.75817000">
        <ele>1242.8000</ele>
        <time>2010-01-01T12:53:48Z</time>
      </trkpt>
      <trkpt lat="42.99538000" lon="-0.75779000">
        <ele>1257.3000</ele>
        <time>2010-01-01T12:54:15Z</time>
      </trkpt>
      <trkpt lat="42.99459000" lon="-0.75759000">
        <ele>1270.8000</ele>
        <time>2010-01-01T12:54:47Z</time>
      </trkpt>
      <trkpt lat="42.99422000" lon="-0.75738000">
        <ele>1280.1000</ele>
        <time>2010-01-01T12:55:03Z</time>
      </trkpt>
      <trkpt lat="42.99407990" lon="-0.75736000">
        <ele>1287.9000</ele>
        <time>2010-01-01T12:55:09Z</time>
      </trkpt>
      <trkpt lat="42.99401000" lon="-0.75746000">
        <ele>1291.9000</ele>
        <time>2010-01-01T12:55:13Z</time>
      </trkpt>
      <trkpt lat="42.99411000" lon="-0.75773000">
        <ele>1289.7000</ele>
        <time>2010-01-01T12:55:22Z</time>
      </trkpt>
      <trkpt lat="42.99453000" lon="-0.75824000">
        <ele>1280.7000</ele>
        <time>2010-01-01T12:55:44Z</time>
      </trkpt>
      <trkpt lat="42.99481000" lon="-0.75870000">
        <ele>1274.2000</ele>
        <time>2010-01-01T12:56:02Z</time>
      </trkpt>
      <trkpt lat="42.99487000" lon="-0.75917000">
        <ele>1280.3000</ele>
        <time>2010-01-01T12:56:16Z</time>
      </trkpt>
      <trkpt lat="42.99477000" lon="-0.76071000">
        <ele>1294.8000</ele>
        <time>2010-01-01T12:57:01Z</time>
      </trkpt>
      <trkpt lat="42.99456000" lon="-0.76146000">
        <ele>1307.7000</ele>
        <time>2010-01-01T12:57:25Z</time>
      </trkpt>
      <trkpt lat="42.99412000" lon="-0.76407000">
        <ele>1326.3000</ele>
        <time>2010-01-01T12:58:43Z</time>
      </trkpt>
      <trkpt lat="42.99379000" lon="-0.76520990">
        <ele>1336.9000</ele>
        <time>2010-01-01T12:59:19Z</time>
      </trkpt>
      <trkpt lat="42.99252000" lon="-0.76798990">
        <ele>1369.7000</ele>
        <time>2010-01-01T13:00:55Z</time>
      </trkpt>
      <trkpt lat="42.99230000" lon="-0.76825000">
        <ele>1373.1000</ele>
        <time>2010-01-01T13:01:06Z</time>
      </trkpt>
      <trkpt lat="42.99107000" lon="-0.76898990">
        <ele>1390.1000</ele>
        <time>2010-01-01T13:02:00Z</time>
      </trkpt>
      <trkpt lat="42.99074000" lon="-0.76961000">
        <ele>1387.6000</ele>
        <time>2010-01-01T13:02:23Z</time>
      </trkpt>
      <trkpt lat="42.99060990" lon="-0.76968000">
        <ele>1385.0000</ele>
        <time>2010-01-01T13:02:28Z</time>
      </trkpt>
      <trkpt lat="42.98940000" lon="-0.76791000">
        <ele>1399.2000</ele>
        <time>2010-01-01T13:03:39Z</time>
      </trkpt>
      <trkpt lat="42.98880000" lon="-0.76630000">
        <ele>1414.3000</ele>
        <time>2010-01-01T13:04:32Z</time>
      </trkpt>
      <trkpt lat="42.98818000" lon="-0.76493990">
        <ele>1426.2000</ele>
        <time>2010-01-01T13:05:19Z</time>
      </trkpt>
      <trkpt lat="42.98798000" lon="-0.76415990">
        <ele>1433.0000</ele>
        <time>2010-01-01T13:05:43Z</time>
      </trkpt>
      <trkpt lat="42.98802000" lon="-0.76385000">
        <ele>1436.5000</ele>
        <time>2010-01-01T13:05:52Z</time>
      </trkpt>
      <trkpt lat="42.98812000" lon="-0.76385000">
        <ele>1438.8000</ele>
        <time>2010-01-01T13:05:56Z</time>
      </trkpt>
      <trkpt lat="42.98823000" lon="-0.76396000">
        <ele>1440.4000</ele>
        <time>2010-01-01T13:06:02Z</time>
      </trkpt>
      <trkpt lat="42.98842000" lon="-0.76442000">
        <ele>1438.8000</ele>
        <time>2010-01-01T13:06:17Z</time>
      </trkpt>
      <trkpt lat="42.98910000" lon="-0.76507000">
        <ele>1441.8000</ele>
        <time>2010-01-01T13:06:51Z</time>
      </trkpt>
      <trkpt lat="42.98955000" lon="-0.76567000">
        <ele>1439.8000</ele>
        <time>2010-01-01T13:07:16Z</time>
      </trkpt>
      <trkpt lat="42.98965000" lon="-0.76571000">
        <ele>1440.6000</ele>
        <time>2010-01-01T13:07:20Z</time>
      </trkpt>
      <trkpt lat="42.98974000" lon="-0.76565000">
        <ele>1442.2000</ele>
        <time>2010-01-01T13:07:24Z</time>
      </trkpt>
      <trkpt lat="42.98974000" lon="-0.76542000">
        <ele>1444.3000</ele>
        <time>2010-01-01T13:07:31Z</time>
      </trkpt>
      <trkpt lat="42.98948000" lon="-0.76466000">
        <ele>1450.6000</ele>
        <time>2010-01-01T13:07:55Z</time>
      </trkpt>
      <trkpt lat="42.98907000" lon="-0.76215000">
        <ele>1473.6000</ele>
        <time>2010-01-01T13:09:11Z</time>
      </trkpt>
      <trkpt lat="42.98907000" lon="-0.76159000">
        <ele>1476.8000</ele>
        <time>2010-01-01T13:09:27Z</time>
      </trkpt>
      <trkpt lat="42.98934000" lon="-0.75969000">
        <ele>1489.8000</ele>
        <time>2010-01-01T13:10:24Z</time>
      </trkpt>
      <trkpt lat="42.98934000" lon="-0.75926000">
        <ele>1494.2000</ele>
        <time>2010-01-01T13:10:36Z</time>
      </trkpt>
      <trkpt lat="42.98931000" lon="-0.75888000">
        <ele>1497.5000</ele>
        <time>2010-01-01T13:10:47Z</time>
      </trkpt>
      <trkpt lat="42.98910000" lon="-0.75795000">
        <ele>1507.6000</ele>
        <time>2010-01-01T13:11:16Z</time>
      </trkpt>
      <trkpt lat="42.98906000" lon="-0.75743000">
        <ele>1514.5000</ele>
        <time>2010-01-01T13:11:31Z</time>
      </trkpt>
      <trkpt lat="42.98850000" lon="-0.75669000">
        <ele>1521.7000</ele>
        <time>2010-01-01T13:12:02Z</time>
      </trkpt>
      <trkpt lat="42.98809000" lon="-0.75644000">
        <ele>1522.9000</ele>
        <time>2010-01-01T13:12:20Z</time>
      </trkpt>
      <trkpt lat="42.98775000" lon="-0.75597000">
        <ele>1528.0000</ele>
        <time>2010-01-01T13:12:40Z</time>
      </trkpt>
      <trkpt lat="42.98722990" lon="-0.75557000">
        <ele>1528.4000</ele>
        <time>2010-01-01T13:13:04Z</time>
      </trkpt>
      <trkpt lat="42.98678000" lon="-0.75488990">
        <ele>1531.5000</ele>
        <time>2010-01-01T13:13:30Z</time>
      </trkpt>
      <trkpt lat="42.98672000" lon="-0.75466000">
        <ele>1530.3000</ele>
        <time>2010-01-01T13:13:38Z</time>
      </trkpt>
      <trkpt lat="42.98563990" lon="-0.75386000">
        <ele>1536.9000</ele>
        <time>2010-01-01T13:14:27Z</time>
      </trkpt>
      <trkpt lat="42.98480000" lon="-0.75351000">
        <ele>1548.2000</ele>
        <time>2010-01-01T13:15:02Z</time>
      </trkpt>
      <trkpt lat="42.98456000" lon="-0.75323000">
        <ele>1552.1000</ele>
        <time>2010-01-01T13:15:15Z</time>
      </trkpt>
      <trkpt lat="42.98395000" lon="-0.75225000">
        <ele>1563.4000</ele>
        <time>2010-01-01T13:15:52Z</time>
      </trkpt>
      <trkpt lat="42.98375000" lon="-0.75178000">
        <ele>1568.5000</ele>
        <time>2010-01-01T13:16:08Z</time>
      </trkpt>
      <trkpt lat="42.98317000" lon="-0.74935000">
        <ele>1580.8000</ele>
        <time>2010-01-01T13:17:23Z</time>
      </trkpt>
      <trkpt lat="42.98296000" lon="-0.74879000">
        <ele>1574.8000</ele>
        <time>2010-01-01T13:17:41Z</time>
      </trkpt>
      <trkpt lat="42.98285000" lon="-0.74873000">
        <ele>1574.2000</ele>
        <time>2010-01-01T13:17:46Z</time>
      </trkpt>
      <trkpt lat="42.98272990" lon="-0.74877000">
        <ele>1575.7000</ele>
        <time>2010-01-01T13:17:51Z</time>
      </trkpt>
      <trkpt lat="42.98216000" lon="-0.74951000">
        <ele>1596.2000</ele>
        <time>2010-01-01T13:18:23Z</time>
      </trkpt>
      <trkpt lat="42.98169990" lon="-0.74993000">
        <ele>1608.3000</ele>
        <time>2010-01-01T13:18:45Z</time>
      </trkpt>
      <trkpt lat="42.98155000" lon="-0.74998000">
        <ele>1610.9000</ele>
        <time>2010-01-01T13:18:51Z</time>
      </trkpt>
      <trkpt lat="42.98144000" lon="-0.74991000">
        <ele>1611.0000</ele>
        <time>2010-01-01T13:18:56Z</time>
      </trkpt>
      <trkpt lat="42.98041000" lon="-0.74809000">
        <ele>1616.2000</ele>
        <time>2010-01-01T13:20:03Z</time>
      </trkpt>
      <trkpt lat="42.98028000" lon="-0.74839000">
        <ele>1617.6000</ele>
        <time>2010-01-01T13:20:13Z</time>
      </trkpt>
      <trkpt lat="42.98040000" lon="-0.74935000">
        <ele>1620.7000</ele>
        <time>2010-01-01T13:20:42Z</time>
      </trkpt>
      <trkpt lat="42.98019000" lon="-0.75008000">
        <ele>1628.3000</ele>
        <time>2010-01-01T13:21:05Z</time>
      </trkpt>
      <trkpt lat="42.98019000" lon="-0.75024000">
        <ele>1631.4000</ele>
        <time>2010-01-01T13:21:10Z</time>
      </trkpt>
      <trkpt lat="42.98028990" lon="-0.75044990">
        <ele>1633.9000</ele>
        <time>2010-01-01T13:21:17Z</time>
      </trkpt>
      <trkpt lat="42.98075990" lon="-0.75107000">
        <ele>1634.9000</ele>
        <time>2010-01-01T13:21:43Z</time>
      </trkpt>
      <trkpt lat="42.98092000" lon="-0.75200000">
        <ele>1644.6000</ele>
        <time>2010-01-01T13:22:11Z</time>
      </trkpt>
      <trkpt lat="42.98093990" lon="-0.75244000">
        <ele>1649.8000</ele>
        <time>2010-01-01T13:22:24Z</time>
      </trkpt>
      <trkpt lat="42.98087000" lon="-0.75276000">
        <ele>1649.8000</ele>
        <time>2010-01-01T13:22:34Z</time>
      </trkpt>
      <trkpt lat="42.98005000" lon="-0.75352000">
        <ele>1662.5000</ele>
        <time>2010-01-01T13:23:13Z</time>
      </trkpt>
      <trkpt lat="42.97952990" lon="-0.75386000">
        <ele>1670.6000</ele>
        <time>2010-01-01T13:23:36Z</time>
      </trkpt>
      <trkpt lat="42.97942000" lon="-0.75414000">
        <ele>1669.1000</ele>
        <time>2010-01-01T13:23:46Z</time>
      </trkpt>
      <trkpt lat="42.97940000" lon="-0.75456000">
        <ele>1666.4000</ele>
        <time>2010-01-01T13:23:58Z</time>
      </trkpt>
      <trkpt lat="42.97934000" lon="-0.75473000">
        <ele>1667.1000</ele>
        <time>2010-01-01T13:24:04Z</time>
      </trkpt>
      <trkpt lat="42.97887990" lon="-0.75548000">
        <ele>1670.6000</ele>
        <time>2010-01-01T13:24:32Z</time>
      </trkpt>
      <trkpt lat="42.97835000" lon="-0.75615000">
        <ele>1671.5000</ele>
        <time>2010-01-01T13:25:01Z</time>
      </trkpt>
      <trkpt lat="42.97708000" lon="-0.75718000">
        <ele>1672.7000</ele>
        <time>2010-01-01T13:26:00Z</time>
      </trkpt>
      <trkpt lat="42.97642000" lon="-0.75752000">
        <ele>1675.3000</ele>
        <time>2010-01-01T13:26:29Z</time>
      </trkpt>
      <trkpt lat="42.97598000" lon="-0.75783000">
        <ele>1678.6000</ele>
        <time>2010-01-01T13:26:48Z</time>
      </trkpt>
      <trkpt lat="42.97583000" lon="-0.75788990">
        <ele>1679.0000</ele>
        <time>2010-01-01T13:26:55Z</time>
      </trkpt>
      <trkpt lat="42.97547000" lon="-0.75781000">
        <ele>1682.6000</ele>
        <time>2010-01-01T13:27:09Z</time>
      </trkpt>
      <trkpt lat="42.97537000" lon="-0.75785000">
        <ele>1683.6000</ele>
        <time>2010-01-01T13:27:13Z</time>
      </trkpt>
      <trkpt lat="42.97521000" lon="-0.75849000">
        <ele>1682.5000</ele>
        <time>2010-01-01T13:27:33Z</time>
      </trkpt>
      <trkpt lat="42.97497000" lon="-0.75876990">
        <ele>1680.7000</ele>
        <time>2010-01-01T13:27:46Z</time>
      </trkpt>
      <trkpt lat="42.97446000" lon="-0.75885000">
        <ele>1687.0000</ele>
        <time>2010-01-01T13:28:06Z</time>
      </trkpt>
      <trkpt lat="42.97430000" lon="-0.75873000">
        <ele>1690.8000</ele>
        <time>2010-01-01T13:28:14Z</time>
      </trkpt>
      <trkpt lat="42.97424000" lon="-0.75839000">
        <ele>1696.1000</ele>
        <time>2010-01-01T13:28:24Z</time>
      </trkpt>
      <trkpt lat="42.97433000" lon="-0.75727990">
        <ele>1704.9000</ele>
        <time>2010-01-01T13:28:57Z</time>
      </trkpt>
      <trkpt lat="42.97411000" lon="-0.75675000">
        <ele>1712.7000</ele>
        <time>2010-01-01T13:29:14Z</time>
      </trkpt>
      <trkpt lat="42.97398000" lon="-0.75675000">
        <ele>1715.5000</ele>
        <time>2010-01-01T13:29:20Z</time>
      </trkpt>
      <trkpt lat="42.97375000" lon="-0.75741000">
        <ele>1716.5000</ele>
        <time>2010-01-01T13:29:41Z</time>
      </trkpt>
      <trkpt lat="42.97333000" lon="-0.75799000">
        <ele>1715.1000</ele>
        <time>2010-01-01T13:30:05Z</time>
      </trkpt>
      <trkpt lat="42.97322000" lon="-0.75800000">
        <ele>1718.4000</ele>
        <time>2010-01-01T13:30:09Z</time>
      </trkpt>
      <trkpt lat="42.97314990" lon="-0.75790000">
        <ele>1722.5000</ele>
        <time>2010-01-01T13:30:13Z</time>
      </trkpt>
      <trkpt lat="42.97317000" lon="-0.75771000">
        <ele>1725.5000</ele>
        <time>2010-01-01T13:30:19Z</time>
      </trkpt>
      <trkpt lat="42.97329000" lon="-0.75746000">
        <ele>1726.4000</ele>
        <time>2010-01-01T13:30:28Z</time>
      </trkpt>
      <trkpt lat="42.97327000" lon="-0.75732990">
        <ele>1727.8000</ele>
        <time>2010-01-01T13:30:32Z</time>
      </trkpt>
      <trkpt lat="42.97314990" lon="-0.75730000">
        <ele>1731.5000</ele>
        <time>2010-01-01T13:30:37Z</time>
      </trkpt>
      <trkpt lat="42.97296000" lon="-0.75771000">
        <ele>1731.7000</ele>
        <time>2010-01-01T13:30:51Z</time>
      </trkpt>
      <trkpt lat="42.97270000" lon="-0.75799000">
        <ele>1735.2000</ele>
        <time>2010-01-01T13:31:04Z</time>
      </trkpt>
      <trkpt lat="42.97257000" lon="-0.75822000">
        <ele>1736.1000</ele>
        <time>2010-01-01T13:31:13Z</time>
      </trkpt>
      <trkpt lat="42.97235000" lon="-0.75913000">
        <ele>1734.6000</ele>
        <time>2010-01-01T13:31:41Z</time>
      </trkpt>
      <trkpt lat="42.97163000" lon="-0.75987000">
        <ele>1748.1000</ele>
        <time>2010-01-01T13:32:17Z</time>
      </trkpt>
      <trkpt lat="42.97150000" lon="-0.76008000">
        <ele>1751.9000</ele>
        <time>2010-01-01T13:32:25Z</time>
      </trkpt>
      <trkpt lat="42.97144000" lon="-0.76042000">
        <ele>1752.2000</ele>
        <time>2010-01-01T13:32:35Z</time>
      </trkpt>
      <trkpt lat="42.97143000" lon="-0.76129000">
        <ele>1748.0000</ele>
        <time>2010-01-01T13:33:01Z</time>
      </trkpt>
      <trkpt lat="42.97135000" lon="-0.76168000">
        <ele>1749.9000</ele>
        <time>2010-01-01T13:33:12Z</time>
      </trkpt>
      <trkpt lat="42.97101000" lon="-0.76265000">
        <ele>1757.8000</ele>
        <time>2010-01-01T13:33:44Z</time>
      </trkpt>
      <trkpt lat="42.97079000" lon="-0.76384000">
        <ele>1757.3000</ele>
        <time>2010-01-01T13:34:20Z</time>
      </trkpt>
      <trkpt lat="42.97079990" lon="-0.76439000">
        <ele>1752.7000</ele>
        <time>2010-01-01T13:34:36Z</time>
      </trkpt>
      <trkpt lat="42.97073000" lon="-0.76480000">
        <ele>1752.3000</ele>
        <time>2010-01-01T13:34:48Z</time>
      </trkpt>
      <trkpt lat="42.97048000" lon="-0.76557000">
        <ele>1757.4000</ele>
        <time>2010-01-01T13:35:13Z</time>
      </trkpt>
      <trkpt lat="42.97032000" lon="-0.76589000">
        <ele>1758.6000</ele>
        <time>2010-01-01T13:35:24Z</time>
      </trkpt>
      <trkpt lat="42.96906000" lon="-0.76796000">
        <ele>1763.1000</ele>
        <time>2010-01-01T13:36:43Z</time>
      </trkpt>
      <trkpt lat="42.96871000" lon="-0.77014000">
        <ele>1756.0000</ele>
        <time>2010-01-01T13:37:49Z</time>
      </trkpt>
      <trkpt lat="42.96863000" lon="-0.77098990">
        <ele>1756.4000</ele>
        <time>2010-01-01T13:38:14Z</time>
      </trkpt>
      <trkpt lat="42.96858000" lon="-0.77112000">
        <ele>1755.5000</ele>
        <time>2010-01-01T13:38:18Z</time>
      </trkpt>
      <trkpt lat="42.96844000" lon="-0.77119000">
        <ele>1752.6000</ele>
        <time>2010-01-01T13:38:24Z</time>
      </trkpt>
      <trkpt lat="42.96830000" lon="-0.77113000">
        <ele>1748.3000</ele>
        <time>2010-01-01T13:38:30Z</time>
      </trkpt>
      <trkpt lat="42.96820000" lon="-0.77092000">
        <ele>1742.6000</ele>
        <time>2010-01-01T13:38:37Z</time>
      </trkpt>
      <trkpt lat="42.96831000" lon="-0.77031000">
        <ele>1743.5000</ele>
        <time>2010-01-01T13:38:56Z</time>
      </trkpt>
      <trkpt lat="42.96837000" lon="-0.76898000">
        <ele>1742.2000</ele>
        <time>2010-01-01T13:39:35Z</time>
      </trkpt>
      <trkpt lat="42.96831000" lon="-0.76872000">
        <ele>1741.4000</ele>
        <time>2010-01-01T13:39:43Z</time>
      </trkpt>
      <trkpt lat="42.96820000" lon="-0.76858000">
        <ele>1738.9000</ele>
        <time>2010-01-01T13:39:49Z</time>
      </trkpt>
      <trkpt lat="42.94996" lon="-0.81212">
        <ele>1572</ele>
      </trkpt>
      <trkpt lat="42.94992" lon="-0.81254">
        <ele>1571.8</ele>
      </trkpt>
      <trkpt lat="42.94981" lon="-0.8135">
        <ele>1572.6</ele>
      </trkpt>
      <trkpt lat="42.94976" lon="-0.81378">
        <ele>1573.7</ele>
      </trkpt>
      <trkpt lat="42.94971" lon="-0.814">
        <ele>1574.4</ele>
      </trkpt>
      <trkpt lat="42.94965" lon="-0.81418">
        <ele>1574.6</ele>
      </trkpt>
      <trkpt lat="42.94961" lon="-0.81425">
        <ele>1574.5</ele>
      </trkpt>
      <trkpt lat="42.94957" lon="-0.81432">
        <ele>1574.5</ele>
      </trkpt>
      <trkpt lat="42.94955" lon="-0.81435">
        <ele>1574.4</ele>
      </trkpt>
      <trkpt lat="42.9495" lon="-0.8144">
        <ele>1573.7</ele>
      </trkpt>
      <trkpt lat="42.94945" lon="-0.81444">
        <ele>1572.9</ele>
      </trkpt>
      <trkpt lat="42.9494" lon="-0.81446">
        <ele>1571.7</ele>
      </trkpt>
      <trkpt lat="42.94934" lon="-0.81447">
        <ele>1570.1</ele>
      </trkpt>
      <trkpt lat="42.94927" lon="-0.81446">
        <ele>1567.9</ele>
      </trkpt>
      <trkpt lat="42.94918" lon="-0.81447">
        <ele>1565.4</ele>
      </trkpt>
      <trkpt lat="42.94908" lon="-0.81448">
        <ele>1563.1</ele>
      </trkpt>
      <trkpt lat="42.94897" lon="-0.81454">
        <ele>1561.4</ele>
      </trkpt>
      <trkpt lat="42.94891" lon="-0.81458">
        <ele>1560.6</ele>
      </trkpt>
      <trkpt lat="42.94883" lon="-0.81467">
        <ele>1560.1</ele>
      </trkpt>
      <trkpt lat="42.94878" lon="-0.81474">
        <ele>1560.1</ele>
      </trkpt>
      <trkpt lat="42.9487" lon="-0.81486">
        <ele>1560.3</ele>
      </trkpt>
      <trkpt lat="42.94864" lon="-0.815">
        <ele>1561.3</ele>
      </trkpt>
      <trkpt lat="42.94858" lon="-0.81516">
        <ele>1560.8</ele>
      </trkpt>
      <trkpt lat="42.94851" lon="-0.81538">
        <ele>1560.4</ele>
      </trkpt>
      <trkpt lat="42.94846" lon="-0.81558">
        <ele>1560.4</ele>
      </trkpt>
      <trkpt lat="42.94844" lon="-0.81571">
        <ele>1560.6</ele>
      </trkpt>
      <trkpt lat="42.94832" lon="-0.8168">
        <ele>1559.5</ele>
      </trkpt>
      <trkpt lat="42.94825" lon="-0.81739">
        <ele>1556.7</ele>
      </trkpt>
      <trkpt lat="42.9482" lon="-0.81797">
        <ele>1552.9</ele>
      </trkpt>
      <trkpt lat="42.94819" lon="-0.81832">
        <ele>1550.9</ele>
      </trkpt>
      <trkpt lat="42.9482" lon="-0.81878">
        <ele>1549.6</ele>
      </trkpt>
      <trkpt lat="42.94822" lon="-0.81933">
        <ele>1547.8</ele>
      </trkpt>
      <trkpt lat="42.94827" lon="-0.81974">
        <ele>1546.3</ele>
      </trkpt>
      <trkpt lat="42.94835" lon="-0.82035">
        <ele>1543.1</ele>
      </trkpt>
      <trkpt lat="42.94852" lon="-0.82136">
        <ele>1539.4</ele>
      </trkpt>
      <trkpt lat="42.9486" lon="-0.82168">
        <ele>1539</ele>
      </trkpt>
      <trkpt lat="42.9487" lon="-0.82203">
        <ele>1537.7</ele>
      </trkpt>
      <trkpt lat="42.94893" lon="-0.8229">
        <ele>1533.4</ele>
      </trkpt>
      <trkpt lat="42.94898" lon="-0.82307">
        <ele>1532.7</ele>
      </trkpt>
      <trkpt lat="42.94914" lon="-0.82364">
        <ele>1529.9</ele>
      </trkpt>
      <trkpt lat="42.94928" lon="-0.82406">
        <ele>1529.7</ele>
      </trkpt>
      <trkpt lat="42.94938" lon="-0.82434">
        <ele>1530.5</ele>
      </trkpt>
      <trkpt lat="42.94944" lon="-0.82464">
        <ele>1529.2</ele>
      </trkpt>
      <trkpt lat="42.94947" lon="-0.82495">
        <ele>1526.4</ele>
      </trkpt>
      <trkpt lat="42.94948" lon="-0.82537">
        <ele>1522.2</ele>
      </trkpt>
      <trkpt lat="42.94949" lon="-0.82582">
        <ele>1517.7</ele>
      </trkpt>
      <trkpt lat="42.94947" lon="-0.82655">
        <ele>1513.6</ele>
      </trkpt>
      <trkpt lat="42.94944" lon="-0.82709">
        <ele>1512.2</ele>
      </trkpt>
      <trkpt lat="42.94941" lon="-0.82741">
        <ele>1511.1</ele>
      </trkpt>
      <trkpt lat="42.94938" lon="-0.8276">
        <ele>1510</ele>
      </trkpt>
      <trkpt lat="42.94934" lon="-0.8278">
        <ele>1508.3</ele>
      </trkpt>
      <trkpt lat="42.94929" lon="-0.82796">
        <ele>1506</ele>
      </trkpt>
      <trkpt lat="42.94922" lon="-0.82817">
        <ele>1502.7</ele>
      </trkpt>
      <trkpt lat="42.94911" lon="-0.82845">
        <ele>1499.6</ele>
      </trkpt>
      <trkpt lat="42.94893" lon="-0.82884">
        <ele>1498.4</ele>
      </trkpt>
      <trkpt lat="42.94869" lon="-0.82949">
        <ele>1495.8</ele>
      </trkpt>
      <trkpt lat="42.94861" lon="-0.82975">
        <ele>1494.1</ele>
      </trkpt>
      <trkpt lat="42.94855" lon="-0.82998">
        <ele>1492.7</ele>
      </trkpt>
      <trkpt lat="42.94848" lon="-0.83019">
        <ele>1492.5</ele>
      </trkpt>
      <trkpt lat="42.94846" lon="-0.83026">
        <ele>1492.6</ele>
      </trkpt>
      <trkpt lat="42.9484" lon="-0.83035">
        <ele>1491.5</ele>
      </trkpt>
      <trkpt lat="42.94832" lon="-0.83047">
        <ele>1490.2</ele>
      </trkpt>
      <trkpt lat="42.94821" lon="-0.83062">
        <ele>1488.8</ele>
      </trkpt>
      <trkpt lat="42.94806" lon="-0.8308">
        <ele>1486.5</ele>
      </trkpt>
      <trkpt lat="42.9478" lon="-0.83111">
        <ele>1483.5</ele>
      </trkpt>
      <trkpt lat="42.94771" lon="-0.83123">
        <ele>1482.4</ele>
      </trkpt>
      <trkpt lat="42.94764" lon="-0.83134">
        <ele>1481.7</ele>
      </trkpt>
      <trkpt lat="42.94753" lon="-0.83152">
        <ele>1480.4</ele>
      </trkpt>
      <trkpt lat="42.94745" lon="-0.83169">
        <ele>1479.6</ele>
      </trkpt>
      <trkpt lat="42.94732" lon="-0.83198">
        <ele>1478.5</ele>
      </trkpt>
      <trkpt lat="42.94712" lon="-0.83249">
        <ele>1476.8</ele>
      </trkpt>
      <trkpt lat="42.94701" lon="-0.83288">
        <ele>1474.7</ele>
      </trkpt>
      <trkpt lat="42.94686" lon="-0.83336">
        <ele>1471</ele>
      </trkpt>
      <trkpt lat="42.94638" lon="-0.8351">
        <ele>1457.9</ele>
      </trkpt>
      <trkpt lat="42.94633" lon="-0.83528">
        <ele>1457.2</ele>
      </trkpt>
      <trkpt lat="42.94622" lon="-0.83563">
        <ele>1455.6</ele>
      </trkpt>
      <trkpt lat="42.94605" lon="-0.83622">
        <ele>1453</ele>
      </trkpt>
      <trkpt lat="42.94592" lon="-0.83669">
        <ele>1450</ele>
      </trkpt>
      <trkpt lat="42.94591" lon="-0.83671">
        <ele>1449.5</ele>
      </trkpt>
      <trkpt lat="42.9458" lon="-0.83707">
        <ele>1444.5</ele>
      </trkpt>
      <trkpt lat="42.94574" lon="-0.8374">
        <ele>1442.1</ele>
      </trkpt>
      <trkpt lat="42.94573" lon="-0.83754">
        <ele>1440.9</ele>
      </trkpt>
      <trkpt lat="42.94573" lon="-0.83756">
        <ele>1440.6</ele>
      </trkpt>
      <trkpt lat="42.94573" lon="-0.8376">
        <ele>1440.1</ele>
      </trkpt>
      <trkpt lat="42.94574" lon="-0.83762">
        <ele>1439.9</ele>
      </trkpt>
      <trkpt lat="42.94576" lon="-0.83768">
        <ele>1439.3</ele>
      </trkpt>
      <trkpt lat="42.94587" lon="-0.83782">
        <ele>1439.6</ele>
      </trkpt>
      <trkpt lat="42.94597" lon="-0.838">
        <ele>1440.4</ele>
      </trkpt>
      <trkpt lat="42.94604" lon="-0.83816">
        <ele>1440.5</ele>
      </trkpt>
      <trkpt lat="42.94609" lon="-0.83833">
        <ele>1440</ele>
      </trkpt>
      <trkpt lat="42.94612" lon="-0.8385">
        <ele>1440</ele>
      </trkpt>
      <trkpt lat="42.94616" lon="-0.83875">
        <ele>1440.1</ele>
      </trkpt>
      <trkpt lat="42.94618" lon="-0.83899">
        <ele>1439.7</ele>
      </trkpt>
      <trkpt lat="42.94616" lon="-0.83913">
        <ele>1438.1</ele>
      </trkpt>
      <trkpt lat="42.9461" lon="-0.83935">
        <ele>1436.3</ele>
      </trkpt>
      <trkpt lat="42.94599" lon="-0.83965">
        <ele>1432.9</ele>
      </trkpt>
      <trkpt lat="42.94585" lon="-0.83994">
        <ele>1427.6</ele>
      </trkpt>
      <trkpt lat="42.94577" lon="-0.84009">
        <ele>1425.9</ele>
      </trkpt>
      <trkpt lat="42.94571" lon="-0.8402">
        <ele>1425.1</ele>
      </trkpt>
      <trkpt lat="42.94559" lon="-0.84036">
        <ele>1423.1</ele>
      </trkpt>
      <trkpt lat="42.94545" lon="-0.84048">
        <ele>1420.1</ele>
      </trkpt>
      <trkpt lat="42.94533" lon="-0.84058">
        <ele>1417.6</ele>
      </trkpt>
      <trkpt lat="42.9452" lon="-0.84073">
        <ele>1415.6</ele>
      </trkpt>
      <trkpt lat="42.94516" lon="-0.84079">
        <ele>1415.2</ele>
      </trkpt>
      <trkpt lat="42.94512" lon="-0.84084">
        <ele>1414.6</ele>
      </trkpt>
      <trkpt lat="42.94504" lon="-0.84098">
        <ele>1412.2</ele>
      </trkpt>
      <trkpt lat="42.94499" lon="-0.84109">
        <ele>1410.6</ele>
      </trkpt>
      <trkpt lat="42.94492" lon="-0.84124">
        <ele>1407.5</ele>
      </trkpt>
      <trkpt lat="42.94488" lon="-0.84136">
        <ele>1405.8</ele>
      </trkpt>
      <trkpt lat="42.94487" lon="-0.84147">
        <ele>1405.4</ele>
      </trkpt>
      <trkpt lat="42.94488" lon="-0.84157">
        <ele>1405.9</ele>
      </trkpt>
      <trkpt lat="42.94489" lon="-0.84169">
        <ele>1406</ele>
      </trkpt>
      <trkpt lat="42.9449" lon="-0.84175">
        <ele>1405.5</ele>
      </trkpt>
      <trkpt lat="42.94493" lon="-0.84182">
        <ele>1405.6</ele>
      </trkpt>
      <trkpt lat="42.94497" lon="-0.84192">
        <ele>1405.5</ele>
      </trkpt>
      <trkpt lat="42.94501" lon="-0.84199">
        <ele>1405.9</ele>
      </trkpt>
      <trkpt lat="42.94506" lon="-0.84207">
        <ele>1406</ele>
      </trkpt>
      <trkpt lat="42.94514" lon="-0.84217">
        <ele>1406.8</ele>
      </trkpt>
      <trkpt lat="42.94526" lon="-0.84227">
        <ele>1408.8</ele>
      </trkpt>
      <trkpt lat="42.94537" lon="-0.84236">
        <ele>1410.8</ele>
      </trkpt>
      <trkpt lat="42.94542" lon="-0.8424">
        <ele>1411.7</ele>
      </trkpt>
      <trkpt lat="42.94547" lon="-0.84246">
        <ele>1412.3</ele>
      </trkpt>
      <trkpt lat="42.9455" lon="-0.84252">
        <ele>1412.6</ele>
      </trkpt>
      <trkpt lat="42.94552" lon="-0.84259">
        <ele>1413.4</ele>
      </trkpt>
      <trkpt lat="42.94554" lon="-0.84269">
        <ele>1414.2</ele>
      </trkpt>
      <trkpt lat="42.94554" lon="-0.84272">
        <ele>1414.3</ele>
      </trkpt>
      <trkpt lat="42.94554" lon="-0.84276">
        <ele>1414.3</ele>
      </trkpt>
      <trkpt lat="42.94552" lon="-0.84285">
        <ele>1413.9</ele>
      </trkpt>
      <trkpt lat="42.9455" lon="-0.84293">
        <ele>1413.3</ele>
      </trkpt>
      <trkpt lat="42.94545" lon="-0.84303">
        <ele>1411.8</ele>
      </trkpt>
      <trkpt lat="42.94534" lon="-0.84318">
        <ele>1408.1</ele>
      </trkpt>
      <trkpt lat="42.94519" lon="-0.84334">
        <ele>1402.9</ele>
      </trkpt>
      <trkpt lat="42.9449" lon="-0.84363">
        <ele>1396.9</ele>
      </trkpt>
      <trkpt lat="42.94467" lon="-0.84386">
        <ele>1392</ele>
      </trkpt>
      <trkpt lat="42.9445" lon="-0.84408">
        <ele>1389.5</ele>
      </trkpt>
      <trkpt lat="42.94421" lon="-0.84453">
        <ele>1385.3</ele>
      </trkpt>
      <trkpt lat="42.94408" lon="-0.84474">
        <ele>1383.6</ele>
      </trkpt>
      <trkpt lat="42.94401" lon="-0.8449">
        <ele>1383.4</ele>
      </trkpt>
      <trkpt lat="42.94394" lon="-0.84503">
        <ele>1382.6</ele>
      </trkpt>
      <trkpt lat="42.94388" lon="-0.84514">
        <ele>1381.4</ele>
      </trkpt>
      <trkpt lat="42.94385" lon="-0.84526">
        <ele>1381.4</ele>
      </trkpt>
      <trkpt lat="42.94382" lon="-0.84541">
        <ele>1381.8</ele>
      </trkpt>
      <trkpt lat="42.94379" lon="-0.84555">
        <ele>1382.2</ele>
      </trkpt>
      <trkpt lat="42.94378" lon="-0.84559">
        <ele>1382.4</ele>
      </trkpt>
      <trkpt lat="42.94378" lon="-0.84561">
        <ele>1382.5</ele>
      </trkpt>
      <trkpt lat="42.94376" lon="-0.84566">
        <ele>1382.6</ele>
      </trkpt>
      <trkpt lat="42.94373" lon="-0.84572">
        <ele>1382.5</ele>
      </trkpt>
      <trkpt lat="42.94368" lon="-0.84577">
        <ele>1382</ele>
      </trkpt>
      <trkpt lat="42.94361" lon="-0.84582">
        <ele>1381.2</ele>
      </trkpt>
      <trkpt lat="42.94333" lon="-0.84598">
        <ele>1376.8</ele>
      </trkpt>
      <trkpt lat="42.9432" lon="-0.84604">
        <ele>1375.4</ele>
      </trkpt>
      <trkpt lat="42.94311" lon="-0.84606">
        <ele>1374.2</ele>
      </trkpt>
      <trkpt lat="42.94301" lon="-0.84607">
        <ele>1372.9</ele>
      </trkpt>
      <trkpt lat="42.94288" lon="-0.84606">
        <ele>1371</ele>
      </trkpt>
      <trkpt lat="42.94278" lon="-0.84605">
        <ele>1369.6</ele>
      </trkpt>
      <trkpt lat="42.94269" lon="-0.84606">
        <ele>1368.4</ele>
      </trkpt>
      <trkpt lat="42.94262" lon="-0.84607">
        <ele>1367.4</ele>
      </trkpt>
      <trkpt lat="42.94253" lon="-0.84612">
        <ele>1366.1</ele>
      </trkpt>
      <trkpt lat="42.94246" lon="-0.84617">
        <ele>1364.3</ele>
      </trkpt>
      <trkpt lat="42.9424" lon="-0.84624">
        <ele>1362.2</ele>
      </trkpt>
      <trkpt lat="42.94235" lon="-0.84632">
        <ele>1360.3</ele>
      </trkpt>
      <trkpt lat="42.94231" lon="-0.84641">
        <ele>1358.8</ele>
      </trkpt>
      <trkpt lat="42.94229" lon="-0.84651">
        <ele>1357.8</ele>
      </trkpt>
      <trkpt lat="42.94228" lon="-0.8466">
        <ele>1357.2</ele>
      </trkpt>
      <trkpt lat="42.94227" lon="-0.84672">
        <ele>1356.5</ele>
      </trkpt>
      <trkpt lat="42.94227" lon="-0.84678">
        <ele>1356.3</ele>
      </trkpt>
      <trkpt lat="42.94228" lon="-0.84691">
        <ele>1356.2</ele>
      </trkpt>
      <trkpt lat="42.94227" lon="-0.84731">
        <ele>1354.4</ele>
      </trkpt>
      <trkpt lat="42.9423" lon="-0.84761">
        <ele>1353</ele>
      </trkpt>
      <trkpt lat="42.94232" lon="-0.84775">
        <ele>1351.4</ele>
      </trkpt>
      <trkpt lat="42.94235" lon="-0.84787">
        <ele>1350.3</ele>
      </trkpt>
      <trkpt lat="42.9424" lon="-0.848">
        <ele>1349.8</ele>
      </trkpt>
      <trkpt lat="42.94247" lon="-0.84815">
        <ele>1349.4</ele>
      </trkpt>
      <trkpt lat="42.94262" lon="-0.84839">
        <ele>1348.8</ele>
      </trkpt>
      <trkpt lat="42.94274" lon="-0.84854">
        <ele>1349.9</ele>
      </trkpt>
      <trkpt lat="42.94279" lon="-0.84861">
        <ele>1350.4</ele>
      </trkpt>
      <trkpt lat="42.94287" lon="-0.84878">
        <ele>1350.9</ele>
      </trkpt>
      <trkpt lat="42.94289" lon="-0.84889">
        <ele>1350.7</ele>
      </trkpt>
      <trkpt lat="42.9429" lon="-0.84899">
        <ele>1350.2</ele>
      </trkpt>
      <trkpt lat="42.9429" lon="-0.84907">
        <ele>1349.7</ele>
      </trkpt>
      <trkpt lat="42.94288" lon="-0.84919">
        <ele>1348.7</ele>
      </trkpt>
      <trkpt lat="42.94288" lon="-0.84919">
        <ele>1348.7</ele>
      </trkpt>
      <trkpt lat="42.94277" lon="-0.84934">
        <ele>1347.5</ele>
      </trkpt>
      <trkpt lat="42.94271" lon="-0.84939">
        <ele>1346.6</ele>
      </trkpt>
      <trkpt lat="42.94249" lon="-0.84955">
        <ele>1343.1</ele>
      </trkpt>
      <trkpt lat="42.94231" lon="-0.84962">
        <ele>1335.6</ele>
      </trkpt>
      <trkpt lat="42.94227" lon="-0.84965">
        <ele>1334</ele>
      </trkpt>
      <trkpt lat="42.94225" lon="-0.84967">
        <ele>1333.3</ele>
      </trkpt>
      <trkpt lat="42.94221" lon="-0.84973">
        <ele>1332.1</ele>
      </trkpt>
      <trkpt lat="42.94218" lon="-0.84978">
        <ele>1331.1</ele>
      </trkpt>
      <trkpt lat="42.94216" lon="-0.84984">
        <ele>1330.8</ele>
      </trkpt>
      <trkpt lat="42.94214" lon="-0.84992">
        <ele>1330.6</ele>
      </trkpt>
      <trkpt lat="42.94211" lon="-0.85004">
        <ele>1330</ele>
      </trkpt>
      <trkpt lat="42.94208" lon="-0.85026">
        <ele>1329</ele>
      </trkpt>
      <trkpt lat="42.94206" lon="-0.8504">
        <ele>1328.3</ele>
      </trkpt>
      <trkpt lat="42.94206" lon="-0.85063">
        <ele>1328.9</ele>
      </trkpt>
      <trkpt lat="42.94205" lon="-0.85126">
        <ele>1324.7</ele>
      </trkpt>
      <trkpt lat="42.94206" lon="-0.85143">
        <ele>1323.4</ele>
      </trkpt>
      <trkpt lat="42.94207" lon="-0.85158">
        <ele>1322.3</ele>
      </trkpt>
      <trkpt lat="42.94209" lon="-0.85173">
        <ele>1320.9</ele>
      </trkpt>
      <trkpt lat="42.94213" lon="-0.85188">
        <ele>1319</ele>
      </trkpt>
      <trkpt lat="42.94219" lon="-0.85202">
        <ele>1317.7</ele>
      </trkpt>
      <trkpt lat="42.94224" lon="-0.85213">
        <ele>1316.5</ele>
      </trkpt>
      <trkpt lat="42.94232" lon="-0.85223">
        <ele>1316.3</ele>
      </trkpt>
      <trkpt lat="42.94244" lon="-0.85234">
        <ele>1316.4</ele>
      </trkpt>
      <trkpt lat="42.94261" lon="-0.85244">
        <ele>1318.5</ele>
      </trkpt>
      <trkpt lat="42.94278" lon="-0.85255">
        <ele>1320.3</ele>
      </trkpt>
      <trkpt lat="42.94292" lon="-0.85263">
        <ele>1321.9</ele>
      </trkpt>
      <trkpt lat="42.94307" lon="-0.85275">
        <ele>1322.1</ele>
      </trkpt>
      <trkpt lat="42.94325" lon="-0.85289">
        <ele>1322.1</ele>
      </trkpt>
      <trkpt lat="42.94342" lon="-0.853">
        <ele>1323.5</ele>
      </trkpt>
      <trkpt lat="42.94355" lon="-0.85308">
        <ele>1325.4</ele>
      </trkpt>
      <trkpt lat="42.94367" lon="-0.85318">
        <ele>1326</ele>
      </trkpt>
      <trkpt lat="42.9437" lon="-0.85323">
        <ele>1325.2</ele>
      </trkpt>
      <trkpt lat="42.9437" lon="-0.85324">
        <ele>1324.8</ele>
      </trkpt>
      <trkpt lat="42.94371" lon="-0.85328">
        <ele>1323.6</ele>
      </trkpt>
      <trkpt lat="42.94371" lon="-0.85329">
        <ele>1323.2</ele>
      </trkpt>
      <trkpt lat="42.94372" lon="-0.85333">
        <ele>1322</ele>
      </trkpt>
      <trkpt lat="42.94371" lon="-0.85337">
        <ele>1320.3</ele>
      </trkpt>
      <trkpt lat="42.9437" lon="-0.8534">
        <ele>1318.9</ele>
      </trkpt>
      <trkpt lat="42.94369" lon="-0.85341">
        <ele>1318.2</ele>
      </trkpt>
      <trkpt lat="42.94369" lon="-0.85342">
        <ele>1317.9</ele>
      </trkpt>
      <trkpt lat="42.94366" lon="-0.85345">
        <ele>1315.7</ele>
      </trkpt>
      <trkpt lat="42.94365" lon="-0.85345">
        <ele>1315.3</ele>
      </trkpt>
      <trkpt lat="42.94362" lon="-0.85346">
        <ele>1313.8</ele>
      </trkpt>
      <trkpt lat="42.9436" lon="-0.85346">
        <ele>1313</ele>
      </trkpt>
      <trkpt lat="42.94355" lon="-0.85345">
        <ele>1311.4</ele>
      </trkpt>
      <trkpt lat="42.94346" lon="-0.85342">
        <ele>1308.9</ele>
      </trkpt>
      <trkpt lat="42.94339" lon="-0.85337">
        <ele>1307.9</ele>
      </trkpt>
      <trkpt lat="42.94327" lon="-0.85328">
        <ele>1307.4</ele>
      </trkpt>
      <trkpt lat="42.94319" lon="-0.85321">
        <ele>1308</ele>
      </trkpt>
      <trkpt lat="42.9431" lon="-0.85315">
        <ele>1307.8</ele>
      </trkpt>
      <trkpt lat="42.943" lon="-0.8531">
        <ele>1306.9</ele>
      </trkpt>
      <trkpt lat="42.94287" lon="-0.85306">
        <ele>1304.7</ele>
      </trkpt>
      <trkpt lat="42.94264" lon="-0.85299">
        <ele>1300.6</ele>
      </trkpt>
      <trkpt lat="42.94243" lon="-0.85295">
        <ele>1296.7</ele>
      </trkpt>
      <trkpt lat="42.94227" lon="-0.85293">
        <ele>1294.7</ele>
      </trkpt>
      <trkpt lat="42.94216" lon="-0.85292">
        <ele>1293.2</ele>
      </trkpt>
      <trkpt lat="42.94195" lon="-0.85289">
        <ele>1290.5</ele>
      </trkpt>
      <trkpt lat="42.94187" lon="-0.85287">
        <ele>1289.6</ele>
      </trkpt>
      <trkpt lat="42.94181" lon="-0.85284">
        <ele>1289.2</ele>
      </trkpt>
      <trkpt lat="42.94178" lon="-0.85282">
        <ele>1289.2</ele>
      </trkpt>
      <trkpt lat="42.94175" lon="-0.85281">
        <ele>1288.8</ele>
      </trkpt>
      <trkpt lat="42.9417" lon="-0.85277">
        <ele>1288.8</ele>
      </trkpt>
      <trkpt lat="42.9416" lon="-0.85269">
        <ele>1288</ele>
      </trkpt>
      <trkpt lat="42.94156" lon="-0.85264">
        <ele>1287.8</ele>
      </trkpt>
      <trkpt lat="42.94152" lon="-0.85258">
        <ele>1287.8</ele>
      </trkpt>
      <trkpt lat="42.94148" lon="-0.85251">
        <ele>1287.8</ele>
      </trkpt>
      <trkpt lat="42.94145" lon="-0.85243">
        <ele>1287.6</ele>
      </trkpt>
      <trkpt lat="42.94142" lon="-0.85233">
        <ele>1287.4</ele>
      </trkpt>
      <trkpt lat="42.94135" lon="-0.85203">
        <ele>1286.9</ele>
      </trkpt>
      <trkpt lat="42.94129" lon="-0.85173">
        <ele>1286.1</ele>
      </trkpt>
      <trkpt lat="42.94125" lon="-0.85137">
        <ele>1285.2</ele>
      </trkpt>
      <trkpt lat="42.94124" lon="-0.85127">
        <ele>1284.9</ele>
      </trkpt>
      <trkpt lat="42.94124" lon="-0.8512">
        <ele>1285.1</ele>
      </trkpt>
      <trkpt lat="42.94125" lon="-0.85113">
        <ele>1285.8</ele>
      </trkpt>
      <trkpt lat="42.94128" lon="-0.85089">
        <ele>1288</ele>
      </trkpt>
      <trkpt lat="42.9413" lon="-0.85072">
        <ele>1288.6</ele>
      </trkpt>
      <trkpt lat="42.9413" lon="-0.85068">
        <ele>1288.4</ele>
      </trkpt>
      <trkpt lat="42.94129" lon="-0.85063">
        <ele>1287.5</ele>
      </trkpt>
      <trkpt lat="42.94128" lon="-0.85061">
        <ele>1286.8</ele>
      </trkpt>
      <trkpt lat="42.94127" lon="-0.85059">
        <ele>1286.1</ele>
      </trkpt>
      <trkpt lat="42.94124" lon="-0.85057">
        <ele>1284.2</ele>
      </trkpt>
      <trkpt lat="42.9412" lon="-0.85056">
        <ele>1281.8</ele>
      </trkpt>
      <trkpt lat="42.94118" lon="-0.85056">
        <ele>1280.6</ele>
      </trkpt>
      <trkpt lat="42.94117" lon="-0.85056">
        <ele>1280</ele>
      </trkpt>
      <trkpt lat="42.94115" lon="-0.85057">
        <ele>1278.9</ele>
      </trkpt>
      <trkpt lat="42.94112" lon="-0.85058">
        <ele>1277.3</ele>
      </trkpt>
      <trkpt lat="42.9411" lon="-0.85062">
        <ele>1276.4</ele>
      </trkpt>
      <trkpt lat="42.94109" lon="-0.85064">
        <ele>1276</ele>
      </trkpt>
      <trkpt lat="42.94107" lon="-0.85071">
        <ele>1275.4</ele>
      </trkpt>
      <trkpt lat="42.94107" lon="-0.85075">
        <ele>1275.7</ele>
      </trkpt>
      <trkpt lat="42.94108" lon="-0.85087">
        <ele>1276.9</ele>
      </trkpt>
      <trkpt lat="42.94107" lon="-0.85103">
        <ele>1276.2</ele>
      </trkpt>
      <trkpt lat="42.94105" lon="-0.85132">
        <ele>1274.9</ele>
      </trkpt>
      <trkpt lat="42.94103" lon="-0.85147">
        <ele>1273.8</ele>
      </trkpt>
      <trkpt lat="42.94101" lon="-0.85161">
        <ele>1272.7</ele>
      </trkpt>
      <trkpt lat="42.94097" lon="-0.85175">
        <ele>1270.8</ele>
      </trkpt>
      <trkpt lat="42.94089" lon="-0.85199">
        <ele>1267.6</ele>
      </trkpt>
      <trkpt lat="42.94082" lon="-0.85217">
        <ele>1265.3</ele>
      </trkpt>
      <trkpt lat="42.94074" lon="-0.85235">
        <ele>1263</ele>
      </trkpt>
      <trkpt lat="42.94073" lon="-0.85237">
        <ele>1262.7</ele>
      </trkpt>
      <trkpt lat="42.94065" lon="-0.85253">
        <ele>1260.4</ele>
      </trkpt>
      <trkpt lat="42.94055" lon="-0.8527">
        <ele>1256.9</ele>
      </trkpt>
      <trkpt lat="42.94046" lon="-0.85286">
        <ele>1254.2</ele>
      </trkpt>
      <trkpt lat="42.9404" lon="-0.85298">
        <ele>1252.7</ele>
      </trkpt>
      <trkpt lat="42.94036" lon="-0.85309">
        <ele>1251.9</ele>
      </trkpt>
      <trkpt lat="42.94034" lon="-0.85315">
        <ele>1251.5</ele>
      </trkpt>
      <trkpt lat="42.94027" lon="-0.85343">
        <ele>1250.3</ele>
      </trkpt>
      <trkpt lat="42.94025" lon="-0.85349">
        <ele>1249.8</ele>
      </trkpt>
      <trkpt lat="42.94022" lon="-0.85354">
        <ele>1249.1</ele>
      </trkpt>
      <trkpt lat="42.9402" lon="-0.85356">
        <ele>1248.6</ele>
      </trkpt>
      <trkpt lat="42.94019" lon="-0.85357">
        <ele>1248.4</ele>
      </trkpt>
      <trkpt lat="42.94015" lon="-0.85358">
        <ele>1247.6</ele>
      </trkpt>
      <trkpt lat="42.94011" lon="-0.85359">
        <ele>1246.8</ele>
      </trkpt>
      <trkpt lat="42.94008" lon="-0.85358">
        <ele>1246.2</ele>
      </trkpt>
      <trkpt lat="42.94007" lon="-0.85357">
        <ele>1246</ele>
      </trkpt>
      <trkpt lat="42.94005" lon="-0.85355">
        <ele>1245.6</ele>
      </trkpt>
      <trkpt lat="42.94004" lon="-0.85353">
        <ele>1245.3</ele>
      </trkpt>
      <trkpt lat="42.94002" lon="-0.85348">
        <ele>1244.8</ele>
      </trkpt>
      <trkpt lat="42.94001" lon="-0.85344">
        <ele>1244.5</ele>
      </trkpt>
      <trkpt lat="42.94001" lon="-0.85338">
        <ele>1244.3</ele>
      </trkpt>
      <trkpt lat="42.94002" lon="-0.85329">
        <ele>1244.1</ele>
      </trkpt>
      <trkpt lat="42.94006" lon="-0.85305">
        <ele>1243.3</ele>
      </trkpt>
      <trkpt lat="42.94012" lon="-0.85279">
        <ele>1243.3</ele>
      </trkpt>
      <trkpt lat="42.94017" lon="-0.85257">
        <ele>1243.5</ele>
      </trkpt>
      <trkpt lat="42.9402" lon="-0.85243">
        <ele>1243.7</ele>
      </trkpt>
      <trkpt lat="42.94021" lon="-0.85233">
        <ele>1243.3</ele>
      </trkpt>
      <trkpt lat="42.94022" lon="-0.85206">
        <ele>1241.8</ele>
      </trkpt>
      <trkpt lat="42.94021" lon="-0.85187">
        <ele>1240</ele>
      </trkpt>
      <trkpt lat="42.94022" lon="-0.85168">
        <ele>1239.1</ele>
      </trkpt>
      <trkpt lat="42.94024" lon="-0.85152">
        <ele>1239.5</ele>
      </trkpt>
      <trkpt lat="42.94027" lon="-0.85139">
        <ele>1240.5</ele>
      </trkpt>
      <trkpt lat="42.94035" lon="-0.85103">
        <ele>1243.1</ele>
      </trkpt>
      <trkpt lat="42.94037" lon="-0.85097">
        <ele>1243.8</ele>
      </trkpt>
      <trkpt lat="42.94037" lon="-0.85089">
        <ele>1243.7</ele>
      </trkpt>
      <trkpt lat="42.94036" lon="-0.85087">
        <ele>1243.2</ele>
      </trkpt>
      <trkpt lat="42.94035" lon="-0.85085">
        <ele>1242.7</ele>
      </trkpt>
      <trkpt lat="42.94033" lon="-0.85081">
        <ele>1241.7</ele>
      </trkpt>
      <trkpt lat="42.9403" lon="-0.85078">
        <ele>1240.1</ele>
      </trkpt>
      <trkpt lat="42.94026" lon="-0.85077">
        <ele>1238.4</ele>
      </trkpt>
      <trkpt lat="42.94021" lon="-0.85077">
        <ele>1236.3</ele>
      </trkpt>
      <trkpt lat="42.94018" lon="-0.85079">
        <ele>1235.2</ele>
      </trkpt>
      <trkpt lat="42.94016" lon="-0.8508">
        <ele>1234.4</ele>
      </trkpt>
      <trkpt lat="42.94015" lon="-0.85082">
        <ele>1234.2</ele>
      </trkpt>
      <trkpt lat="42.94013" lon="-0.85086">
        <ele>1233.5</ele>
      </trkpt>
      <trkpt lat="42.94011" lon="-0.85093">
        <ele>1232.8</ele>
      </trkpt>
      <trkpt lat="42.94009" lon="-0.85111">
        <ele>1232.4</ele>
      </trkpt>
      <trkpt lat="42.94004" lon="-0.85137">
        <ele>1230.9</ele>
      </trkpt>
      <trkpt lat="42.94" lon="-0.85155">
        <ele>1229.7</ele>
      </trkpt>
      <trkpt lat="42.93991" lon="-0.85184">
        <ele>1228.4</ele>
      </trkpt>
      <trkpt lat="42.93975" lon="-0.85235">
        <ele>1226.4</ele>
      </trkpt>
      <trkpt lat="42.93965" lon="-0.8526">
        <ele>1224.5</ele>
      </trkpt>
      <trkpt lat="42.93955" lon="-0.85283">
        <ele>1222.7</ele>
      </trkpt>
      <trkpt lat="42.93944" lon="-0.85304">
        <ele>1220.5</ele>
      </trkpt>
      <trkpt lat="42.93927" lon="-0.85333">
        <ele>1216.8</ele>
      </trkpt>
      <trkpt lat="42.93909" lon="-0.85362">
        <ele>1213.2</ele>
      </trkpt>
      <trkpt lat="42.93895" lon="-0.8539">
        <ele>1211.2</ele>
      </trkpt>
      <trkpt lat="42.93887" lon="-0.85406">
        <ele>1210</ele>
      </trkpt>
      <trkpt lat="42.93882" lon="-0.85419">
        <ele>1209.3</ele>
      </trkpt>
      <trkpt lat="42.93879" lon="-0.85432">
        <ele>1208</ele>
      </trkpt>
      <trkpt lat="42.93876" lon="-0.85444">
        <ele>1206.8</ele>
      </trkpt>
      <trkpt lat="42.93875" lon="-0.85457">
        <ele>1206.3</ele>
      </trkpt>
      <trkpt lat="42.93875" lon="-0.85465">
        <ele>1206.1</ele>
      </trkpt>
      <trkpt lat="42.93875" lon="-0.85481">
        <ele>1205.8</ele>
      </trkpt>
      <trkpt lat="42.93875" lon="-0.85487">
        <ele>1205.7</ele>
      </trkpt>
      <trkpt lat="42.93874" lon="-0.85491">
        <ele>1205.4</ele>
      </trkpt>
      <trkpt lat="42.93873" lon="-0.85493">
        <ele>1205</ele>
      </trkpt>
      <trkpt lat="42.9387" lon="-0.85498">
        <ele>1204</ele>
      </trkpt>
      <trkpt lat="42.93868" lon="-0.855">
        <ele>1203.4</ele>
      </trkpt>
      <trkpt lat="42.93866" lon="-0.85501">
        <ele>1202.6</ele>
      </trkpt>
      <trkpt lat="42.93865" lon="-0.85501">
        <ele>1202.3</ele>
      </trkpt>
      <trkpt lat="42.93862" lon="-0.85501">
        <ele>1201.4</ele>
      </trkpt>
      <trkpt lat="42.93858" lon="-0.85501">
        <ele>1200.2</ele>
      </trkpt>
      <trkpt lat="42.93857" lon="-0.855">
        <ele>1200.1</ele>
      </trkpt>
      <trkpt lat="42.93855" lon="-0.85499">
        <ele>1199.5</ele>
      </trkpt>
      <trkpt lat="42.93853" lon="-0.85495">
        <ele>1198.9</ele>
      </trkpt>
      <trkpt lat="42.93851" lon="-0.8549">
        <ele>1198.4</ele>
      </trkpt>
      <trkpt lat="42.93851" lon="-0.85488">
        <ele>1198.4</ele>
      </trkpt>
      <trkpt lat="42.9385" lon="-0.85481">
        <ele>1198.1</ele>
      </trkpt>
      <trkpt lat="42.9385" lon="-0.85454">
        <ele>1198.3</ele>
      </trkpt>
      <trkpt lat="42.9385" lon="-0.85419">
        <ele>1198.6</ele>
      </trkpt>
      <trkpt lat="42.93851" lon="-0.85384">
        <ele>1195.8</ele>
      </trkpt>
      <trkpt lat="42.93851" lon="-0.85372">
        <ele>1194.7</ele>
      </trkpt>
      <trkpt lat="42.93857" lon="-0.8535">
        <ele>1194.6</ele>
      </trkpt>
      <trkpt lat="42.93865" lon="-0.85319">
        <ele>1194.2</ele>
      </trkpt>
      <trkpt lat="42.93866" lon="-0.85311">
        <ele>1193.7</ele>
      </trkpt>
      <trkpt lat="42.93867" lon="-0.85303">
        <ele>1193.2</ele>
      </trkpt>
      <trkpt lat="42.93867" lon="-0.85296">
        <ele>1192.5</ele>
      </trkpt>
      <trkpt lat="42.93866" lon="-0.85287">
        <ele>1191.2</ele>
      </trkpt>
      <trkpt lat="42.93865" lon="-0.85279">
        <ele>1190</ele>
      </trkpt>
      <trkpt lat="42.93862" lon="-0.85265">
        <ele>1187.5</ele>
      </trkpt>
      <trkpt lat="42.93858" lon="-0.85246">
        <ele>1184.6</ele>
      </trkpt>
      <trkpt lat="42.93858" lon="-0.85238">
        <ele>1184.7</ele>
      </trkpt>
      <trkpt lat="42.93859" lon="-0.85232">
        <ele>1185.1</ele>
      </trkpt>
      <trkpt lat="42.93861" lon="-0.85222">
        <ele>1185.9</ele>
      </trkpt>
      <trkpt lat="42.93864" lon="-0.85209">
        <ele>1186.9</ele>
      </trkpt>
      <trkpt lat="42.93865" lon="-0.85203">
        <ele>1187.3</ele>
      </trkpt>
      <trkpt lat="42.93865" lon="-0.852">
        <ele>1187.3</ele>
      </trkpt>
      <trkpt lat="42.93865" lon="-0.85196">
        <ele>1187.3</ele>
      </trkpt>
      <trkpt lat="42.93863" lon="-0.85191">
        <ele>1186.7</ele>
      </trkpt>
      <trkpt lat="42.93861" lon="-0.85188">
        <ele>1186.1</ele>
      </trkpt>
      <trkpt lat="42.9386" lon="-0.85187">
        <ele>1185.8</ele>
      </trkpt>
      <trkpt lat="42.93859" lon="-0.85186">
        <ele>1185.5</ele>
      </trkpt>
      <trkpt lat="42.93855" lon="-0.85185">
        <ele>1184.3</ele>
      </trkpt>
      <trkpt lat="42.93852" lon="-0.85184">
        <ele>1183.4</ele>
      </trkpt>
      <trkpt lat="42.93849" lon="-0.85185">
        <ele>1182.4</ele>
      </trkpt>
      <trkpt lat="42.93847" lon="-0.85187">
        <ele>1181.8</ele>
      </trkpt>
      <trkpt lat="42.93846" lon="-0.85188">
        <ele>1181.4</ele>
      </trkpt>
      <trkpt lat="42.93842" lon="-0.85194">
        <ele>1180.1</ele>
      </trkpt>
      <trkpt lat="42.9384" lon="-0.85198">
        <ele>1179.4</ele>
      </trkpt>
      <trkpt lat="42.93838" lon="-0.85218">
        <ele>1178.3</ele>
      </trkpt>
      <trkpt lat="42.9383" lon="-0.85253">
        <ele>1175.3</ele>
      </trkpt>
      <trkpt lat="42.93825" lon="-0.85273">
        <ele>1175.8</ele>
      </trkpt>
      <trkpt lat="42.93817" lon="-0.8529">
        <ele>1174.9</ele>
      </trkpt>
      <trkpt lat="42.93806" lon="-0.85316">
        <ele>1173.8</ele>
      </trkpt>
      <trkpt lat="42.93786" lon="-0.85363">
        <ele>1171</ele>
      </trkpt>
      <trkpt lat="42.93769" lon="-0.85406">
        <ele>1168.2</ele>
      </trkpt>
      <trkpt lat="42.93765" lon="-0.85421">
        <ele>1167.6</ele>
      </trkpt>
      <trkpt lat="42.93757" lon="-0.85446">
        <ele>1164.6</ele>
      </trkpt>
      <trkpt lat="42.93749" lon="-0.85474">
        <ele>1161.6</ele>
      </trkpt>
      <trkpt lat="42.93736" lon="-0.85521">
        <ele>1157</ele>
      </trkpt>
      <trkpt lat="42.93726" lon="-0.85553">
        <ele>1153.4</ele>
      </trkpt>
      <trkpt lat="42.93724" lon="-0.85566">
        <ele>1152.7</ele>
      </trkpt>
      <trkpt lat="42.93722" lon="-0.85578">
        <ele>1152</ele>
      </trkpt>
      <trkpt lat="42.93722" lon="-0.85586">
        <ele>1151.8</ele>
      </trkpt>
      <trkpt lat="42.93722" lon="-0.85593">
        <ele>1151.4</ele>
      </trkpt>
      <trkpt lat="42.93724" lon="-0.85604">
        <ele>1151.5</ele>
      </trkpt>
      <trkpt lat="42.93726" lon="-0.85617">
        <ele>1151.4</ele>
      </trkpt>
      <trkpt lat="42.93727" lon="-0.85624">
        <ele>1151.4</ele>
      </trkpt>
      <trkpt lat="42.93727" lon="-0.85629">
        <ele>1151.1</ele>
      </trkpt>
      <trkpt lat="42.93727" lon="-0.85633">
        <ele>1150.9</ele>
      </trkpt>
      <trkpt lat="42.93725" lon="-0.85638">
        <ele>1150</ele>
      </trkpt>
      <trkpt lat="42.93724" lon="-0.8564">
        <ele>1149.6</ele>
      </trkpt>
      <trkpt lat="42.93723" lon="-0.85642">
        <ele>1149.2</ele>
      </trkpt>
      <trkpt lat="42.93719" lon="-0.85644">
        <ele>1147.9</ele>
      </trkpt>
      <trkpt lat="42.93717" lon="-0.85645">
        <ele>1147.2</ele>
      </trkpt>
      <trkpt lat="42.93715" lon="-0.85645">
        <ele>1146.6</ele>
      </trkpt>
      <trkpt lat="42.93713" lon="-0.85644">
        <ele>1146</ele>
      </trkpt>
      <trkpt lat="42.93711" lon="-0.85643">
        <ele>1145.5</ele>
      </trkpt>
      <trkpt lat="42.93709" lon="-0.85641">
        <ele>1144.9</ele>
      </trkpt>
      <trkpt lat="42.93707" lon="-0.85639">
        <ele>1144.4</ele>
      </trkpt>
      <trkpt lat="42.93704" lon="-0.85633">
        <ele>1143.8</ele>
      </trkpt>
      <trkpt lat="42.93703" lon="-0.85624">
        <ele>1143.9</ele>
      </trkpt>
      <trkpt lat="42.93701" lon="-0.8561">
        <ele>1143.9</ele>
      </trkpt>
      <trkpt lat="42.93699" lon="-0.85576">
        <ele>1144.5</ele>
      </trkpt>
      <trkpt lat="42.93699" lon="-0.85457">
        <ele>1142.4</ele>
      </trkpt>
      <trkpt lat="42.93698" lon="-0.85289">
        <ele>1131.9</ele>
      </trkpt>
      <trkpt lat="42.93699" lon="-0.8518">
        <ele>1125.1</ele>
      </trkpt>
      <trkpt lat="42.93704" lon="-0.85132">
        <ele>1122.7</ele>
      </trkpt>
      <trkpt lat="42.93707" lon="-0.85095">
        <ele>1120.2</ele>
      </trkpt>
      <trkpt lat="42.93707" lon="-0.85085">
        <ele>1119.1</ele>
      </trkpt>
      <trkpt lat="42.93706" lon="-0.85073">
        <ele>1118.2</ele>
      </trkpt>
      <trkpt lat="42.93708" lon="-0.8504">
        <ele>1117.8</ele>
      </trkpt>
      <trkpt lat="42.9371" lon="-0.84989">
        <ele>1116.5</ele>
      </trkpt>
      <trkpt lat="42.93716" lon="-0.84946">
        <ele>1116.4</ele>
      </trkpt>
      <trkpt lat="42.93724" lon="-0.84907">
        <ele>1116.9</ele>
      </trkpt>
      <trkpt lat="42.93736" lon="-0.84829">
        <ele>1108.3</ele>
      </trkpt>
      <trkpt lat="42.93743" lon="-0.84788">
        <ele>1104.9</ele>
      </trkpt>
      <trkpt lat="42.93746" lon="-0.84752">
        <ele>1100.6</ele>
      </trkpt>
      <trkpt lat="42.93749" lon="-0.84699">
        <ele>1098.5</ele>
      </trkpt>
      <trkpt lat="42.93751" lon="-0.84642">
        <ele>1095.1</ele>
      </trkpt>
      <trkpt lat="42.93749" lon="-0.84567">
        <ele>1087.2</ele>
      </trkpt>
      <trkpt lat="42.93748" lon="-0.84529">
        <ele>1083.9</ele>
      </trkpt>
      <trkpt lat="42.9375" lon="-0.84474">
        <ele>1080.8</ele>
      </trkpt>
      <trkpt lat="42.93755" lon="-0.84413">
        <ele>1077.5</ele>
      </trkpt>
      <trkpt lat="42.93779" lon="-0.84342">
        <ele>1076.8</ele>
      </trkpt>
      <trkpt lat="42.93786" lon="-0.84317">
        <ele>1077.1</ele>
      </trkpt>
      <trkpt lat="42.93788" lon="-0.84301">
        <ele>1076.9</ele>
      </trkpt>
      <trkpt lat="42.93786" lon="-0.84282">
        <ele>1074.7</ele>
      </trkpt>
      <trkpt lat="42.93783" lon="-0.84266">
        <ele>1072.4</ele>
      </trkpt>
      <trkpt lat="42.93773" lon="-0.84238">
        <ele>1067.4</ele>
      </trkpt>
      <trkpt lat="42.93761" lon="-0.84207">
        <ele>1063.1</ele>
      </trkpt>
      <trkpt lat="42.93756" lon="-0.84191">
        <ele>1061.3</ele>
      </trkpt>
      <trkpt lat="42.93753" lon="-0.84174">
        <ele>1060.3</ele>
      </trkpt>
      <trkpt lat="42.93743" lon="-0.84126">
        <ele>1057.8</ele>
      </trkpt>
      <trkpt lat="42.93732" lon="-0.84061">
        <ele>1055.5</ele>
      </trkpt>
      <trkpt lat="42.93725" lon="-0.84021">
        <ele>1053.8</ele>
      </trkpt>
      <trkpt lat="42.93718" lon="-0.83972">
        <ele>1053</ele>
      </trkpt>
      <trkpt lat="42.9371" lon="-0.83941">
        <ele>1050.9</ele>
      </trkpt>
      <trkpt lat="42.93706" lon="-0.83925">
        <ele>1049.8</ele>
      </trkpt>
      <trkpt lat="42.93696" lon="-0.83894">
        <ele>1046.2</ele>
      </trkpt>
      <trkpt lat="42.9369" lon="-0.83875">
        <ele>1043.6</ele>
      </trkpt>
      <trkpt lat="42.93684" lon="-0.83849">
        <ele>1040.8</ele>
      </trkpt>
      <trkpt lat="42.93681" lon="-0.83828">
        <ele>1040</ele>
      </trkpt>
      <trkpt lat="42.93676" lon="-0.8379">
        <ele>1041.2</ele>
      </trkpt>
      <trkpt lat="42.93671" lon="-0.83769">
        <ele>1039.6</ele>
      </trkpt>
      <trkpt lat="42.93669" lon="-0.83759">
        <ele>1039.1</ele>
      </trkpt>
      <trkpt lat="42.93664" lon="-0.83733">
        <ele>1039</ele>
      </trkpt>
      <trkpt lat="42.93656" lon="-0.83702">
        <ele>1038.5</ele>
      </trkpt>
      <trkpt lat="42.93651" lon="-0.83687">
        <ele>1037.3</ele>
      </trkpt>
      <trkpt lat="42.93645" lon="-0.83664">
        <ele>1036.2</ele>
      </trkpt>
      <trkpt lat="42.93641" lon="-0.83646">
        <ele>1036.9</ele>
      </trkpt>
      <trkpt lat="42.93638" lon="-0.83627">
        <ele>1038.2</ele>
      </trkpt>
      <trkpt lat="42.93636" lon="-0.83607">
        <ele>1040.2</ele>
      </trkpt>
      <trkpt lat="42.93634" lon="-0.83585">
        <ele>1042.3</ele>
      </trkpt>
      <trkpt lat="42.93632" lon="-0.83567">
        <ele>1043.6</ele>
      </trkpt>
      <trkpt lat="42.93628" lon="-0.83543">
        <ele>1044.1</ele>
      </trkpt>
      <trkpt lat="42.93625" lon="-0.8353">
        <ele>1043.5</ele>
      </trkpt>
      <trkpt lat="42.93621" lon="-0.83516">
        <ele>1042.1</ele>
      </trkpt>
      <trkpt lat="42.93609" lon="-0.83488">
        <ele>1036.3</ele>
      </trkpt>
      <trkpt lat="42.93602" lon="-0.83465">
        <ele>1034.1</ele>
      </trkpt>
      <trkpt lat="42.93594" lon="-0.83431">
        <ele>1031.7</ele>
      </trkpt>
      <trkpt lat="42.93573" lon="-0.83356">
        <ele>1033.3</ele>
      </trkpt>
      <trkpt lat="42.93563" lon="-0.83328">
        <ele>1034.1</ele>
      </trkpt>
      <trkpt lat="42.93558" lon="-0.83317">
        <ele>1033.2</ele>
      </trkpt>
      <trkpt lat="42.93552" lon="-0.83307">
        <ele>1031.2</ele>
      </trkpt>
      <trkpt lat="42.93537" lon="-0.83291">
        <ele>1024</ele>
      </trkpt>
      <trkpt lat="42.93528" lon="-0.83286">
        <ele>1018.6</ele>
      </trkpt>
      <trkpt lat="42.93517" lon="-0.83283">
        <ele>1011.4</ele>
      </trkpt>
      <trkpt lat="42.93505" lon="-0.83283">
        <ele>1003.1</ele>
      </trkpt>
      <trkpt lat="42.93483" lon="-0.83284">
        <ele>999.1</ele>
      </trkpt>
      <trkpt lat="42.93471" lon="-0.83286">
        <ele>998.6</ele>
      </trkpt>
      <trkpt lat="42.93456" lon="-0.83291">
        <ele>998</ele>
      </trkpt>
      <trkpt lat="42.93436" lon="-0.833">
        <ele>997.2</ele>
      </trkpt>
      <trkpt lat="42.93434" lon="-0.83302">
        <ele>997.1</ele>
      </trkpt>
      <trkpt lat="42.93422" lon="-0.83311">
        <ele>996.6</ele>
      </trkpt>
      <trkpt lat="42.93397" lon="-0.83338">
        <ele>996.6</ele>
      </trkpt>
      <trkpt lat="42.93338" lon="-0.8341">
        <ele>996.9</ele>
      </trkpt>
      <trkpt lat="42.93315" lon="-0.83439">
        <ele>999.5</ele>
      </trkpt>
      <trkpt lat="42.93294" lon="-0.8347">
        <ele>1002.5</ele>
      </trkpt>
      <trkpt lat="42.93286" lon="-0.83483">
        <ele>1003.7</ele>
      </trkpt>
      <trkpt lat="42.93277" lon="-0.835">
        <ele>1005.1</ele>
      </trkpt>
      <trkpt lat="42.93269" lon="-0.83521">
        <ele>1004.2</ele>
      </trkpt>
      <trkpt lat="42.9326" lon="-0.83549">
        <ele>1002.9</ele>
      </trkpt>
      <trkpt lat="42.93253" lon="-0.83575">
        <ele>1001.4</ele>
      </trkpt>
      <trkpt lat="42.93247" lon="-0.83605">
        <ele>999.4</ele>
      </trkpt>
      <trkpt lat="42.93232" lon="-0.83693">
        <ele>993.5</ele>
      </trkpt>
      <trkpt lat="42.93219" lon="-0.83767">
        <ele>990.1</ele>
      </trkpt>
      <trkpt lat="42.93217" lon="-0.83781">
        <ele>989.8</ele>
      </trkpt>
      <trkpt lat="42.93202" lon="-0.83864">
        <ele>988.2</ele>
      </trkpt>
      <trkpt lat="42.93175" lon="-0.84022">
        <ele>984.2</ele>
      </trkpt>
      <trkpt lat="42.93159" lon="-0.84112">
        <ele>982.2</ele>
      </trkpt>
      <trkpt lat="42.93144" lon="-0.84203">
        <ele>980.8</ele>
      </trkpt>
      <trkpt lat="42.93127" lon="-0.84296">
        <ele>980.3</ele>
      </trkpt>
      <trkpt lat="42.93122" lon="-0.84325">
        <ele>979.9</ele>
      </trkpt>
      <trkpt lat="42.93112" lon="-0.84382">
        <ele>979</ele>
      </trkpt>
      <trkpt lat="42.93109" lon="-0.84402">
        <ele>978.6</ele>
      </trkpt>
      <trkpt lat="42.93108" lon="-0.84409">
        <ele>978.5</ele>
      </trkpt>
      <trkpt lat="42.93105" lon="-0.84428">
        <ele>978</ele>
      </trkpt>
      <trkpt lat="42.93104" lon="-0.84443">
        <ele>977.5</ele>
      </trkpt>
      <trkpt lat="42.93103" lon="-0.84457">
        <ele>977</ele>
      </trkpt>
      <trkpt lat="42.93102" lon="-0.84469">
        <ele>976.6</ele>
      </trkpt>
      <trkpt lat="42.93102" lon="-0.84483">
        <ele>976</ele>
      </trkpt>
      <trkpt lat="42.93101" lon="-0.84506">
        <ele>975.1</ele>
      </trkpt>
      <trkpt lat="42.931" lon="-0.84584">
        <ele>971.6</ele>
      </trkpt>
      <trkpt lat="42.931" lon="-0.84626">
        <ele>970.1</ele>
      </trkpt>
      <trkpt lat="42.931" lon="-0.84651">
        <ele>969.2</ele>
      </trkpt>
      <trkpt lat="42.93099" lon="-0.84668">
        <ele>968.6</ele>
      </trkpt>
      <trkpt lat="42.93097" lon="-0.84685">
        <ele>968.4</ele>
      </trkpt>
      <trkpt lat="42.93096" lon="-0.84699">
        <ele>968.2</ele>
      </trkpt>
      <trkpt lat="42.93094" lon="-0.84719">
        <ele>968</ele>
      </trkpt>
      <trkpt lat="42.93072" lon="-0.84905">
        <ele>959.9</ele>
      </trkpt>
      <trkpt lat="42.93065" lon="-0.84968">
        <ele>960.9</ele>
      </trkpt>
      <trkpt lat="42.93063" lon="-0.84986">
        <ele>961.2</ele>
      </trkpt>
      <trkpt lat="42.93056" lon="-0.85018">
        <ele>960.9</ele>
      </trkpt>
      <trkpt lat="42.93051" lon="-0.85036">
        <ele>960.5</ele>
      </trkpt>
      <trkpt lat="42.93046" lon="-0.85054">
        <ele>960.1</ele>
      </trkpt>
      <trkpt lat="42.93032" lon="-0.85091">
        <ele>958.9</ele>
      </trkpt>
      <trkpt lat="42.92999" lon="-0.85179">
        <ele>955</ele>
      </trkpt>
      <trkpt lat="42.92976" lon="-0.85246">
        <ele>949.4</ele>
      </trkpt>
      <trkpt lat="42.92953" lon="-0.85317">
        <ele>948.9</ele>
      </trkpt>
      <trkpt lat="42.92933" lon="-0.85379">
        <ele>947.1</ele>
      </trkpt>
      <trkpt lat="42.9292" lon="-0.85421">
        <ele>945.1</ele>
      </trkpt>
      <trkpt lat="42.92919" lon="-0.85427">
        <ele>945.1</ele>
      </trkpt>
      <trkpt lat="42.92907" lon="-0.85475">
        <ele>944.6</ele>
      </trkpt>
      <trkpt lat="42.92895" lon="-0.85525">
        <ele>943.7</ele>
      </trkpt>
      <trkpt lat="42.92886" lon="-0.85568">
        <ele>943</ele>
      </trkpt>
      <trkpt lat="42.92885" lon="-0.85572">
        <ele>942.9</ele>
      </trkpt>
      <trkpt lat="42.9288" lon="-0.85596">
        <ele>942.4</ele>
      </trkpt>
      <trkpt lat="42.92876" lon="-0.85623">
        <ele>941.8</ele>
      </trkpt>
      <trkpt lat="42.92872" lon="-0.85644">
        <ele>941.4</ele>
      </trkpt>
      <trkpt lat="42.92863" lon="-0.85736">
        <ele>938.8</ele>
      </trkpt>
      <trkpt lat="42.92859" lon="-0.85771">
        <ele>938.3</ele>
      </trkpt>
      <trkpt lat="42.92855" lon="-0.85808">
        <ele>938.3</ele>
      </trkpt>
      <trkpt lat="42.92852" lon="-0.85835">
        <ele>938.3</ele>
      </trkpt>
      <trkpt lat="42.9285" lon="-0.85846">
        <ele>938.4</ele>
      </trkpt>
      <trkpt lat="42.92848" lon="-0.85858">
        <ele>938.6</ele>
      </trkpt>
      <trkpt lat="42.92844" lon="-0.85875">
        <ele>938.8</ele>
      </trkpt>
      <trkpt lat="42.92838" lon="-0.85886">
        <ele>938.8</ele>
      </trkpt>
      <trkpt lat="42.92829" lon="-0.85901">
        <ele>938.7</ele>
      </trkpt>
      <trkpt lat="42.92812" lon="-0.85923">
        <ele>938.5</ele>
      </trkpt>
      <trkpt lat="42.92789" lon="-0.85946">
        <ele>938.6</ele>
      </trkpt>
      <trkpt lat="42.92771" lon="-0.85972">
        <ele>938.9</ele>
      </trkpt>
      <trkpt lat="42.92762" lon="-0.85987">
        <ele>939.1</ele>
      </trkpt>
      <trkpt lat="42.92751" lon="-0.86008">
        <ele>939.1</ele>
      </trkpt>
      <trkpt lat="42.92742" lon="-0.86028">
        <ele>938.6</ele>
      </trkpt>
      <trkpt lat="42.92735" lon="-0.86051">
        <ele>938.3</ele>
      </trkpt>
      <trkpt lat="42.92727" lon="-0.86077">
        <ele>937.9</ele>
      </trkpt>
      <trkpt lat="42.92719" lon="-0.86105">
        <ele>937.7</ele>
      </trkpt>
      <trkpt lat="42.92708" lon="-0.8614">
        <ele>937.3</ele>
      </trkpt>
      <trkpt lat="42.92659" lon="-0.86306">
        <ele>937.5</ele>
      </trkpt>
      <trkpt lat="42.92638" lon="-0.86379">
        <ele>936.7</ele>
      </trkpt>
      <trkpt lat="42.92603" lon="-0.86494">
        <ele>934.8</ele>
      </trkpt>
      <trkpt lat="42.92591" lon="-0.86532">
        <ele>934.6</ele>
      </trkpt>
      <trkpt lat="42.92575" lon="-0.8657">
        <ele>934.2</ele>
      </trkpt>
      <trkpt lat="42.92564" lon="-0.86593">
        <ele>934.1</ele>
      </trkpt>
      <trkpt lat="42.9255" lon="-0.8662">
        <ele>933.8</ele>
      </trkpt>
      <trkpt lat="42.92534" lon="-0.86645">
        <ele>932.9</ele>
      </trkpt>
      <trkpt lat="42.92522" lon="-0.8666">
        <ele>932</ele>
      </trkpt>
      <trkpt lat="42.92514" lon="-0.86669">
        <ele>931.4</ele>
      </trkpt>
      <trkpt lat="42.92511" lon="-0.86673">
        <ele>931.2</ele>
      </trkpt>
      <trkpt lat="42.92493" lon="-0.86694">
        <ele>930.5</ele>
      </trkpt>
      <trkpt lat="42.92461" lon="-0.86728">
        <ele>930.2</ele>
      </trkpt>
      <trkpt lat="42.92436" lon="-0.86756">
        <ele>929.9</ele>
      </trkpt>
      <trkpt lat="42.924" lon="-0.86794">
        <ele>929.6</ele>
      </trkpt>
      <trkpt lat="42.9236" lon="-0.86839">
        <ele>929.1</ele>
      </trkpt>
      <trkpt lat="42.92326" lon="-0.86877">
        <ele>928.6</ele>
      </trkpt>
      <trkpt lat="42.92292" lon="-0.86914">
        <ele>927</ele>
      </trkpt>
      <trkpt lat="42.92245" lon="-0.86967">
        <ele>926.3</ele>
      </trkpt>
      <trkpt lat="42.9221" lon="-0.87005">
        <ele>926.4</ele>
      </trkpt>
      <trkpt lat="42.92207" lon="-0.87008">
        <ele>926.5</ele>
      </trkpt>
      <trkpt lat="42.92192" lon="-0.87025">
        <ele>926.8</ele>
      </trkpt>
      <trkpt lat="42.9218" lon="-0.87037">
        <ele>926.9</ele>
      </trkpt>
      <trkpt lat="42.92164" lon="-0.87051">
        <ele>927.1</ele>
      </trkpt>
      <trkpt lat="42.92153" lon="-0.87059">
        <ele>927.4</ele>
      </trkpt>
      <trkpt lat="42.92137" lon="-0.87067">
        <ele>927.5</ele>
      </trkpt>
      <trkpt lat="42.92114" lon="-0.87081">
        <ele>927.1</ele>
      </trkpt>
      <trkpt lat="42.92096" lon="-0.87089">
        <ele>926.6</ele>
      </trkpt>
      <trkpt lat="42.92076" lon="-0.87097">
        <ele>926</ele>
      </trkpt>
      <trkpt lat="42.92058" lon="-0.87104">
        <ele>925.3</ele>
      </trkpt>
      <trkpt lat="42.92038" lon="-0.87112">
        <ele>924.3</ele>
      </trkpt>
      <trkpt lat="42.92021" lon="-0.87121">
        <ele>923.3</ele>
      </trkpt>
      <trkpt lat="42.92001" lon="-0.87133">
        <ele>921.9</ele>
      </trkpt>
      <trkpt lat="42.91981" lon="-0.87149">
        <ele>921.1</ele>
      </trkpt>
      <trkpt lat="42.91962" lon="-0.87164">
        <ele>920.2</ele>
      </trkpt>
      <trkpt lat="42.9193" lon="-0.87193">
        <ele>919.6</ele>
      </trkpt>
      <trkpt lat="42.91912" lon="-0.87209">
        <ele>919.5</ele>
      </trkpt>
      <trkpt lat="42.91877" lon="-0.8724">
        <ele>920.7</ele>
      </trkpt>
      <trkpt lat="42.91866" lon="-0.8725">
        <ele>921.2</ele>
      </trkpt>
      <trkpt lat="42.91858" lon="-0.87256">
        <ele>922.4</ele>
      </trkpt>
      <trkpt lat="42.91846" lon="-0.87266">
        <ele>924.4</ele>
      </trkpt>
      <trkpt lat="42.91834" lon="-0.87274">
        <ele>926.3</ele>
      </trkpt>
      <trkpt lat="42.91821" lon="-0.87282">
        <ele>927</ele>
      </trkpt>
      <trkpt lat="42.91809" lon="-0.87288">
        <ele>927.3</ele>
      </trkpt>
      <trkpt lat="42.91796" lon="-0.87293">
        <ele>927.2</ele>
      </trkpt>
      <trkpt lat="42.91782" lon="-0.87296">
        <ele>926.7</ele>
      </trkpt>
      <trkpt lat="42.91778" lon="-0.87297">
        <ele>926.6</ele>
      </trkpt>
      <trkpt lat="42.91769" lon="-0.87299">
        <ele>926.2</ele>
      </trkpt>
      <trkpt lat="42.91755" lon="-0.87303">
        <ele>925.7</ele>
      </trkpt>
      <trkpt lat="42.91742" lon="-0.87312">
        <ele>925.5</ele>
      </trkpt>
      <trkpt lat="42.91729" lon="-0.87326">
        <ele>925.3</ele>
      </trkpt>
      <trkpt lat="42.91716" lon="-0.87344">
        <ele>925.1</ele>
      </trkpt>
      <trkpt lat="42.91702" lon="-0.87362">
        <ele>924.8</ele>
      </trkpt>
      <trkpt lat="42.91683" lon="-0.87383">
        <ele>924.1</ele>
      </trkpt>
      <trkpt lat="42.91675" lon="-0.87391">
        <ele>923.7</ele>
      </trkpt>
      <trkpt lat="42.91651" lon="-0.87413">
        <ele>923.4</ele>
      </trkpt>
      <trkpt lat="42.91625" lon="-0.87436">
        <ele>922.4</ele>
      </trkpt>
      <trkpt lat="42.91599" lon="-0.8746">
        <ele>921.1</ele>
      </trkpt>
      <trkpt lat="42.91578" lon="-0.87477">
        <ele>920.4</ele>
      </trkpt>
      <trkpt lat="42.91566" lon="-0.87489">
        <ele>921</ele>
      </trkpt>
      <trkpt lat="42.91559" lon="-0.87498">
        <ele>921</ele>
      </trkpt>
      <trkpt lat="42.91554" lon="-0.87505">
        <ele>921.3</ele>
      </trkpt>
      <trkpt lat="42.91548" lon="-0.87516">
        <ele>921.8</ele>
      </trkpt>
      <trkpt lat="42.9154" lon="-0.87534">
        <ele>922.6</ele>
      </trkpt>
      <trkpt lat="42.91534" lon="-0.87549">
        <ele>923.1</ele>
      </trkpt>
      <trkpt lat="42.91526" lon="-0.87564">
        <ele>923.5</ele>
      </trkpt>
      <trkpt lat="42.91518" lon="-0.87577">
        <ele>923.6</ele>
      </trkpt>
      <trkpt lat="42.91509" lon="-0.87589">
        <ele>924.6</ele>
      </trkpt>
      <trkpt lat="42.91497" lon="-0.87602">
        <ele>926.6</ele>
      </trkpt>
      <trkpt lat="42.91487" lon="-0.87611">
        <ele>927.5</ele>
      </trkpt>
      <trkpt lat="42.91476" lon="-0.87616">
        <ele>927.4</ele>
      </trkpt>
      <trkpt lat="42.91466" lon="-0.87618">
        <ele>926.7</ele>
      </trkpt>
      <trkpt lat="42.91456" lon="-0.87618">
        <ele>925.8</ele>
      </trkpt>
      <trkpt lat="42.91446" lon="-0.87618">
        <ele>924.8</ele>
      </trkpt>
      <trkpt lat="42.91415" lon="-0.87614">
        <ele>921.5</ele>
      </trkpt>
      <trkpt lat="42.91388" lon="-0.87609">
        <ele>920.2</ele>
      </trkpt>
      <trkpt lat="42.91357" lon="-0.87604">
        <ele>918.8</ele>
      </trkpt>
      <trkpt lat="42.91334" lon="-0.87601">
        <ele>917.7</ele>
      </trkpt>
      <trkpt lat="42.9132" lon="-0.876">
        <ele>917.3</ele>
      </trkpt>
      <trkpt lat="42.91304" lon="-0.87603">
        <ele>917.2</ele>
      </trkpt>
      <trkpt lat="42.9129" lon="-0.87608">
        <ele>917.1</ele>
      </trkpt>
      <trkpt lat="42.9128" lon="-0.87615">
        <ele>917.1</ele>
      </trkpt>
      <trkpt lat="42.91264" lon="-0.8763">
        <ele>916.8</ele>
      </trkpt>
      <trkpt lat="42.91234" lon="-0.87662">
        <ele>914.9</ele>
      </trkpt>
      <trkpt lat="42.91206" lon="-0.87692">
        <ele>914.9</ele>
      </trkpt>
      <trkpt lat="42.91186" lon="-0.87715">
        <ele>914.8</ele>
      </trkpt>
      <trkpt lat="42.91171" lon="-0.87734">
        <ele>914.5</ele>
      </trkpt>
      <trkpt lat="42.91157" lon="-0.87752">
        <ele>914.6</ele>
      </trkpt>
      <trkpt lat="42.91123" lon="-0.87797">
        <ele>914.6</ele>
      </trkpt>
      <trkpt lat="42.91089" lon="-0.87842">
        <ele>912.3</ele>
      </trkpt>
      <trkpt lat="42.91039" lon="-0.8791">
        <ele>911</ele>
      </trkpt>
      <trkpt lat="42.91032" lon="-0.8792">
        <ele>910.7</ele>
      </trkpt>
      <trkpt lat="42.90997" lon="-0.87966">
        <ele>909.8</ele>
      </trkpt>
      <trkpt lat="42.9096" lon="-0.88017">
        <ele>911.2</ele>
      </trkpt>
      <trkpt lat="42.90956" lon="-0.88022">
        <ele>911.5</ele>
      </trkpt>
      <trkpt lat="42.90929" lon="-0.88059">
        <ele>913.2</ele>
      </trkpt>
      <trkpt lat="42.90899" lon="-0.88104">
        <ele>916.5</ele>
      </trkpt>
      <trkpt lat="42.90873" lon="-0.88145">
        <ele>918.9</ele>
      </trkpt>
      <trkpt lat="42.90853" lon="-0.88173">
        <ele>918.2</ele>
      </trkpt>
      <trkpt lat="42.90837" lon="-0.88189">
        <ele>918.8</ele>
      </trkpt>
      <trkpt lat="42.90819" lon="-0.88202">
        <ele>920.7</ele>
      </trkpt>
      <trkpt lat="42.90788" lon="-0.8822">
        <ele>922.2</ele>
      </trkpt>
      <trkpt lat="42.90735" lon="-0.88249">
        <ele>920.5</ele>
      </trkpt>
      <trkpt lat="42.90726" lon="-0.88254">
        <ele>920.1</ele>
      </trkpt>
      <trkpt lat="42.90709" lon="-0.88266">
        <ele>920</ele>
      </trkpt>
      <trkpt lat="42.9069" lon="-0.88282">
        <ele>920</ele>
      </trkpt>
      <trkpt lat="42.90668" lon="-0.88305">
        <ele>920.2</ele>
      </trkpt>
      <trkpt lat="42.9065" lon="-0.88321">
        <ele>919.9</ele>
      </trkpt>
      <trkpt lat="42.90631" lon="-0.88335">
        <ele>918</ele>
      </trkpt>
      <trkpt lat="42.90616" lon="-0.88343">
        <ele>915.6</ele>
      </trkpt>
      <trkpt lat="42.90599" lon="-0.88348">
        <ele>912</ele>
      </trkpt>
      <trkpt lat="42.90577" lon="-0.88351">
        <ele>907.4</ele>
      </trkpt>
      <trkpt lat="42.90546" lon="-0.88351">
        <ele>903.6</ele>
      </trkpt>
      <trkpt lat="42.90535" lon="-0.88353">
        <ele>902.5</ele>
      </trkpt>
      <trkpt lat="42.90521" lon="-0.88361">
        <ele>901.5</ele>
      </trkpt>
      <trkpt lat="42.90506" lon="-0.88374">
        <ele>900.4</ele>
      </trkpt>
      <trkpt lat="42.90491" lon="-0.88391">
        <ele>899.6</ele>
      </trkpt>
      <trkpt lat="42.90481" lon="-0.88403">
        <ele>899.3</ele>
      </trkpt>
      <trkpt lat="42.90465" lon="-0.88427">
        <ele>899.3</ele>
      </trkpt>
      <trkpt lat="42.90433" lon="-0.88479">
        <ele>901.3</ele>
      </trkpt>
      <trkpt lat="42.90421" lon="-0.88496">
        <ele>902</ele>
      </trkpt>
      <trkpt lat="42.90412" lon="-0.88504">
        <ele>902.1</ele>
      </trkpt>
      <trkpt lat="42.90406" lon="-0.8851">
        <ele>902.2</ele>
      </trkpt>
      <trkpt lat="42.90387" lon="-0.88525">
        <ele>901.7</ele>
      </trkpt>
      <trkpt lat="42.90366" lon="-0.88538">
        <ele>900.2</ele>
      </trkpt>
      <trkpt lat="42.90339" lon="-0.88558">
        <ele>897.7</ele>
      </trkpt>
      <trkpt lat="42.9033" lon="-0.88568">
        <ele>897.5</ele>
      </trkpt>
      <trkpt lat="42.9032" lon="-0.88585">
        <ele>898.6</ele>
      </trkpt>
      <trkpt lat="42.90314" lon="-0.88601">
        <ele>899.8</ele>
      </trkpt>
      <trkpt lat="42.90308" lon="-0.88621">
        <ele>900.7</ele>
      </trkpt>
      <trkpt lat="42.90306" lon="-0.88638">
        <ele>901.4</ele>
      </trkpt>
      <trkpt lat="42.90304" lon="-0.88657">
        <ele>902.1</ele>
      </trkpt>
      <trkpt lat="42.90304" lon="-0.88698">
        <ele>905.6</ele>
      </trkpt>
      <trkpt lat="42.90303" lon="-0.88734">
        <ele>908.9</ele>
      </trkpt>
      <trkpt lat="42.90301" lon="-0.88759">
        <ele>912.6</ele>
      </trkpt>
      <trkpt lat="42.90294" lon="-0.8878">
        <ele>916.5</ele>
      </trkpt>
      <trkpt lat="42.90293" lon="-0.88781">
        <ele>916.4</ele>
      </trkpt>
      <trkpt lat="42.90284" lon="-0.88802">
        <ele>918.5</ele>
      </trkpt>
      <trkpt lat="42.90265" lon="-0.88828">
        <ele>915.8</ele>
      </trkpt>
      <trkpt lat="42.90237" lon="-0.88861">
        <ele>915.2</ele>
      </trkpt>
      <trkpt lat="42.90216" lon="-0.8889">
        <ele>915.9</ele>
      </trkpt>
      <trkpt lat="42.90201" lon="-0.88917">
        <ele>914.5</ele>
      </trkpt>
      <trkpt lat="42.90184" lon="-0.8895">
        <ele>912.6</ele>
      </trkpt>
      <trkpt lat="42.90174" lon="-0.88966">
        <ele>910.6</ele>
      </trkpt>
      <trkpt lat="42.90162" lon="-0.88978">
        <ele>908.4</ele>
      </trkpt>
      <trkpt lat="42.90151" lon="-0.88985">
        <ele>908.1</ele>
      </trkpt>
      <trkpt lat="42.90135" lon="-0.88989">
        <ele>906.3</ele>
      </trkpt>
      <trkpt lat="42.90117" lon="-0.88992">
        <ele>903.9</ele>
      </trkpt>
      <trkpt lat="42.90099" lon="-0.88993">
        <ele>901.2</ele>
      </trkpt>
      <trkpt lat="42.90081" lon="-0.88994">
        <ele>898.5</ele>
      </trkpt>
      <trkpt lat="42.90067" lon="-0.88998">
        <ele>896.6</ele>
      </trkpt>
      <trkpt lat="42.90057" lon="-0.89002">
        <ele>895.6</ele>
      </trkpt>
      <trkpt lat="42.90046" lon="-0.89009">
        <ele>895.4</ele>
      </trkpt>
      <trkpt lat="42.90036" lon="-0.89017">
        <ele>895.5</ele>
      </trkpt>
      <trkpt lat="42.90021" lon="-0.89033">
        <ele>896.1</ele>
      </trkpt>
      <trkpt lat="42.90003" lon="-0.89054">
        <ele>896.6</ele>
      </trkpt>
      <trkpt lat="42.89987" lon="-0.89071">
        <ele>897.3</ele>
      </trkpt>
      <trkpt lat="42.89975" lon="-0.89083">
        <ele>897.4</ele>
      </trkpt>
      <trkpt lat="42.89963" lon="-0.8909">
        <ele>898.2</ele>
      </trkpt>
      <trkpt lat="42.89949" lon="-0.89094">
        <ele>897.9</ele>
      </trkpt>
      <trkpt lat="42.89935" lon="-0.89094">
        <ele>896.1</ele>
      </trkpt>
      <trkpt lat="42.8991" lon="-0.89092">
        <ele>893.4</ele>
      </trkpt>
      <trkpt lat="42.899" lon="-0.8909">
        <ele>893.3</ele>
      </trkpt>
      <trkpt lat="42.89893" lon="-0.89088">
        <ele>893</ele>
      </trkpt>
      <trkpt lat="42.89867" lon="-0.89078">
        <ele>892.8</ele>
      </trkpt>
      <trkpt lat="42.89854" lon="-0.89073">
        <ele>893.5</ele>
      </trkpt>
      <trkpt lat="42.89838" lon="-0.89066">
        <ele>894.2</ele>
      </trkpt>
      <trkpt lat="42.89817" lon="-0.89053">
        <ele>893.8</ele>
      </trkpt>
      <trkpt lat="42.89794" lon="-0.89033">
        <ele>891.6</ele>
      </trkpt>
      <trkpt lat="42.89765" lon="-0.89006">
        <ele>886.8</ele>
      </trkpt>
      <trkpt lat="42.89743" lon="-0.88984">
        <ele>887.8</ele>
      </trkpt>
      <trkpt lat="42.89727" lon="-0.88975">
        <ele>889</ele>
      </trkpt>
      <trkpt lat="42.89714" lon="-0.8897">
        <ele>889.5</ele>
      </trkpt>
      <trkpt lat="42.897" lon="-0.88969">
        <ele>889.3</ele>
      </trkpt>
      <trkpt lat="42.89687" lon="-0.8897">
        <ele>888.8</ele>
      </trkpt>
      <trkpt lat="42.89673" lon="-0.88975">
        <ele>887.7</ele>
      </trkpt>
      <trkpt lat="42.89656" lon="-0.88986">
        <ele>885.7</ele>
      </trkpt>
      <trkpt lat="42.89648" lon="-0.88991">
        <ele>884.6</ele>
      </trkpt>
      <trkpt lat="42.89604" lon="-0.89022">
        <ele>883</ele>
      </trkpt>
      <trkpt lat="42.89592" lon="-0.89031">
        <ele>882.2</ele>
      </trkpt>
      <trkpt lat="42.89564" lon="-0.89052">
        <ele>882.3</ele>
      </trkpt>
      <trkpt lat="42.8955" lon="-0.89064">
        <ele>882.1</ele>
      </trkpt>
      <trkpt lat="42.8954" lon="-0.89073">
        <ele>881.5</ele>
      </trkpt>
      <trkpt lat="42.89531" lon="-0.89084">
        <ele>880.6</ele>
      </trkpt>
      <trkpt lat="42.89511" lon="-0.89106">
        <ele>880.6</ele>
      </trkpt>
      <trkpt lat="42.89485" lon="-0.89138">
        <ele>881.8</ele>
      </trkpt>
      <trkpt lat="42.89464" lon="-0.8916">
        <ele>882</ele>
      </trkpt>
      <trkpt lat="42.8945" lon="-0.89176">
        <ele>883.8</ele>
      </trkpt>
      <trkpt lat="42.89438" lon="-0.89183">
        <ele>885.5</ele>
      </trkpt>
      <trkpt lat="42.89427" lon="-0.89189">
        <ele>886.8</ele>
      </trkpt>
      <trkpt lat="42.89416" lon="-0.89191">
        <ele>887.2</ele>
      </trkpt>
      <trkpt lat="42.89407" lon="-0.89191">
        <ele>886.7</ele>
      </trkpt>
      <trkpt lat="42.89375" lon="-0.89188">
        <ele>884.7</ele>
      </trkpt>
      <trkpt lat="42.89359" lon="-0.89187">
        <ele>883.9</ele>
      </trkpt>
      <trkpt lat="42.89343" lon="-0.89189">
        <ele>883.2</ele>
      </trkpt>
      <trkpt lat="42.8933" lon="-0.89192">
        <ele>882.6</ele>
      </trkpt>
      <trkpt lat="42.89317" lon="-0.89197">
        <ele>882.1</ele>
      </trkpt>
      <trkpt lat="42.89299" lon="-0.89212">
        <ele>880.6</ele>
      </trkpt>
      <trkpt lat="42.89294" lon="-0.89217">
        <ele>880</ele>
      </trkpt>
      <trkpt lat="42.89269" lon="-0.89246">
        <ele>875.5</ele>
      </trkpt>
      <trkpt lat="42.89264" lon="-0.89252">
        <ele>874.9</ele>
      </trkpt>
      <trkpt lat="42.89239" lon="-0.89282">
        <ele>878.8</ele>
      </trkpt>
      <trkpt lat="42.89216" lon="-0.89307">
        <ele>880.9</ele>
      </trkpt>
      <trkpt lat="42.89202" lon="-0.89325">
        <ele>880.7</ele>
      </trkpt>
      <trkpt lat="42.8919" lon="-0.89339">
        <ele>881.7</ele>
      </trkpt>
      <trkpt lat="42.89178" lon="-0.89353">
        <ele>885.3</ele>
      </trkpt>
      <trkpt lat="42.8916" lon="-0.8937">
        <ele>889</ele>
      </trkpt>
      <trkpt lat="42.89146" lon="-0.89378">
        <ele>890.6</ele>
      </trkpt>
      <trkpt lat="42.89133" lon="-0.89382">
        <ele>890.7</ele>
      </trkpt>
      <trkpt lat="42.89118" lon="-0.89383">
        <ele>889.5</ele>
      </trkpt>
      <trkpt lat="42.89099" lon="-0.8938">
        <ele>886.6</ele>
      </trkpt>
      <trkpt lat="42.89007" lon="-0.8936">
        <ele>875.7</ele>
      </trkpt>
      <trkpt lat="42.88993" lon="-0.89358">
        <ele>874.3</ele>
      </trkpt>
      <trkpt lat="42.88977" lon="-0.89361">
        <ele>873.3</ele>
      </trkpt>
      <trkpt lat="42.88959" lon="-0.89367">
        <ele>872.1</ele>
      </trkpt>
      <trkpt lat="42.88946" lon="-0.89376">
        <ele>871.5</ele>
      </trkpt>
      <trkpt lat="42.88938" lon="-0.89385">
        <ele>871.1</ele>
      </trkpt>
      <trkpt lat="42.8893" lon="-0.89401">
        <ele>870.9</ele>
      </trkpt>
      <trkpt lat="42.88915" lon="-0.89433">
        <ele>871.5</ele>
      </trkpt>
      <trkpt lat="42.88909" lon="-0.89448">
        <ele>873.9</ele>
      </trkpt>
      <trkpt lat="42.88899" lon="-0.89463">
        <ele>876</ele>
      </trkpt>
      <trkpt lat="42.88888" lon="-0.89472">
        <ele>877.1</ele>
      </trkpt>
      <trkpt lat="42.88886" lon="-0.89474">
        <ele>877.3</ele>
      </trkpt>
      <trkpt lat="42.88861" lon="-0.89493">
        <ele>878</ele>
      </trkpt>
      <trkpt lat="42.88825" lon="-0.89516">
        <ele>882.8</ele>
      </trkpt>
      <trkpt lat="42.8881" lon="-0.89524">
        <ele>885</ele>
      </trkpt>
      <trkpt lat="42.88776" lon="-0.89542">
        <ele>887.1</ele>
      </trkpt>
      <trkpt lat="42.88756" lon="-0.89556">
        <ele>886.9</ele>
      </trkpt>
      <trkpt lat="42.88742" lon="-0.89566">
        <ele>886.2</ele>
      </trkpt>
      <trkpt lat="42.88728" lon="-0.89573">
        <ele>884.6</ele>
      </trkpt>
      <trkpt lat="42.88712" lon="-0.8958">
        <ele>881.5</ele>
      </trkpt>
      <trkpt lat="42.88696" lon="-0.89589">
        <ele>878.9</ele>
      </trkpt>
      <trkpt lat="42.88691" lon="-0.89592">
        <ele>878.2</ele>
      </trkpt>
      <trkpt lat="42.88681" lon="-0.89598">
        <ele>876.6</ele>
      </trkpt>
      <trkpt lat="42.8867" lon="-0.89608">
        <ele>874.7</ele>
      </trkpt>
      <trkpt lat="42.88662" lon="-0.89617">
        <ele>874.4</ele>
      </trkpt>
      <trkpt lat="42.88652" lon="-0.89635">
        <ele>874.8</ele>
      </trkpt>
      <trkpt lat="42.88646" lon="-0.89653">
        <ele>874.3</ele>
      </trkpt>
      <trkpt lat="42.88635" lon="-0.89691">
        <ele>873.6</ele>
      </trkpt>
      <trkpt lat="42.88626" lon="-0.89716">
        <ele>872.5</ele>
      </trkpt>
      <trkpt lat="42.88608" lon="-0.89757">
        <ele>869</ele>
      </trkpt>
      <trkpt lat="42.88592" lon="-0.89785">
        <ele>867.6</ele>
      </trkpt>
      <trkpt lat="42.88579" lon="-0.89806">
        <ele>866.7</ele>
      </trkpt>
      <trkpt lat="42.88575" lon="-0.89812">
        <ele>866.8</ele>
      </trkpt>
      <trkpt lat="42.88557" lon="-0.89838">
        <ele>866.7</ele>
      </trkpt>
      <trkpt lat="42.88542" lon="-0.89851">
        <ele>866.2</ele>
      </trkpt>
      <trkpt lat="42.88529" lon="-0.89857">
        <ele>865.3</ele>
      </trkpt>
      <trkpt lat="42.88515" lon="-0.89859">
        <ele>863.5</ele>
      </trkpt>
      <trkpt lat="42.88496" lon="-0.89858">
        <ele>861.3</ele>
      </trkpt>
      <trkpt lat="42.8848" lon="-0.89854">
        <ele>862</ele>
      </trkpt>
      <trkpt lat="42.88466" lon="-0.89848">
        <ele>861.7</ele>
      </trkpt>
      <trkpt lat="42.88453" lon="-0.89839">
        <ele>860.1</ele>
      </trkpt>
      <trkpt lat="42.88442" lon="-0.89827">
        <ele>858.5</ele>
      </trkpt>
      <trkpt lat="42.88413" lon="-0.8979">
        <ele>855.4</ele>
      </trkpt>
      <trkpt lat="42.88402" lon="-0.89774">
        <ele>853.3</ele>
      </trkpt>
      <trkpt lat="42.8839" lon="-0.89765">
        <ele>852</ele>
      </trkpt>
      <trkpt lat="42.88379" lon="-0.89759">
        <ele>851</ele>
      </trkpt>
      <trkpt lat="42.88364" lon="-0.89753">
        <ele>849.9</ele>
      </trkpt>
      <trkpt lat="42.88349" lon="-0.89749">
        <ele>849.3</ele>
      </trkpt>
      <trkpt lat="42.88339" lon="-0.89747">
        <ele>849.3</ele>
      </trkpt>
      <trkpt lat="42.88326" lon="-0.89746">
        <ele>848.9</ele>
      </trkpt>
      <trkpt lat="42.88309" lon="-0.89747">
        <ele>847.7</ele>
      </trkpt>
      <trkpt lat="42.88299" lon="-0.89749">
        <ele>846.7</ele>
      </trkpt>
      <trkpt lat="42.88287" lon="-0.89752">
        <ele>845.9</ele>
      </trkpt>
      <trkpt lat="42.88287" lon="-0.89752">
        <ele>845.9</ele>
      </trkpt>
      <trkpt lat="42.88287" lon="-0.89739">
        <ele>847.6</ele>
      </trkpt>
      <trkpt lat="42.88285" lon="-0.89728">
        <ele>849.5</ele>
      </trkpt>
      <trkpt lat="42.88283" lon="-0.89718">
        <ele>851.2</ele>
      </trkpt>
      <trkpt lat="42.8828" lon="-0.89708">
        <ele>853.1</ele>
      </trkpt>
      <trkpt lat="42.88276" lon="-0.89701">
        <ele>854.4</ele>
      </trkpt>
      <trkpt lat="42.88266" lon="-0.89686">
        <ele>857.7</ele>
      </trkpt>
      <trkpt lat="42.88255" lon="-0.89675">
        <ele>860.7</ele>
      </trkpt>
      <trkpt lat="42.88243" lon="-0.89666">
        <ele>862.6</ele>
      </trkpt>
      <trkpt lat="42.88222" lon="-0.89652">
        <ele>865.7</ele>
      </trkpt>
      <trkpt lat="42.88158" lon="-0.89613">
        <ele>873.9</ele>
      </trkpt>
      <trkpt lat="42.88143" lon="-0.89604">
        <ele>876.2</ele>
      </trkpt>
      <trkpt lat="42.88124" lon="-0.89594">
        <ele>878.2</ele>
      </trkpt>
      <trkpt lat="42.88109" lon="-0.8959">
        <ele>878.3</ele>
      </trkpt>
      <trkpt lat="42.88096" lon="-0.8959">
        <ele>877.3</ele>
      </trkpt>
      <trkpt lat="42.88074" lon="-0.8959">
        <ele>875.7</ele>
      </trkpt>
      <trkpt lat="42.88066" lon="-0.8959">
        <ele>875.2</ele>
      </trkpt>
      <trkpt lat="42.8806" lon="-0.89587">
        <ele>875.5</ele>
      </trkpt>
      <trkpt lat="42.88056" lon="-0.89583">
        <ele>876.1</ele>
      </trkpt>
      <trkpt lat="42.88053" lon="-0.89575">
        <ele>877.8</ele>
      </trkpt>
      <trkpt lat="42.88049" lon="-0.89565">
        <ele>879.7</ele>
      </trkpt>
      <trkpt lat="42.88045" lon="-0.89547">
        <ele>883.3</ele>
      </trkpt>
      <trkpt lat="42.8804" lon="-0.89531">
        <ele>886</ele>
      </trkpt>
      <trkpt lat="42.88036" lon="-0.89517">
        <ele>888.3</ele>
      </trkpt>
      <trkpt lat="42.8803" lon="-0.89503">
        <ele>889.9</ele>
      </trkpt>
      <trkpt lat="42.88023" lon="-0.8949">
        <ele>891.9</ele>
      </trkpt>
      <trkpt lat="42.88014" lon="-0.89476">
        <ele>893.8</ele>
      </trkpt>
      <trkpt lat="42.88" lon="-0.89458">
        <ele>895.1</ele>
      </trkpt>
      <trkpt lat="42.87986" lon="-0.89441">
        <ele>899.2</ele>
      </trkpt>
      <trkpt lat="42.87972" lon="-0.89426">
        <ele>901.8</ele>
      </trkpt>
      <trkpt lat="42.8796" lon="-0.89417">
        <ele>902.6</ele>
      </trkpt>
      <trkpt lat="42.8795" lon="-0.89413">
        <ele>902.8</ele>
      </trkpt>
      <trkpt lat="42.87942" lon="-0.8941">
        <ele>902.8</ele>
      </trkpt>
      <trkpt lat="42.87934" lon="-0.8941">
        <ele>902</ele>
      </trkpt>
      <trkpt lat="42.87925" lon="-0.8941">
        <ele>901.1</ele>
      </trkpt>
      <trkpt lat="42.87919" lon="-0.89408">
        <ele>900.9</ele>
      </trkpt>
      <trkpt lat="42.87913" lon="-0.89405">
        <ele>903</ele>
      </trkpt>
      <trkpt lat="42.87907" lon="-0.894">
        <ele>906.6</ele>
      </trkpt>
      <trkpt lat="42.87906" lon="-0.89394">
        <ele>908</ele>
      </trkpt>
      <trkpt lat="42.87906" lon="-0.89385">
        <ele>909.4</ele>
      </trkpt>
      <trkpt lat="42.87906" lon="-0.89376">
        <ele>910.8</ele>
      </trkpt>
      <trkpt lat="42.87907" lon="-0.89371">
        <ele>911.2</ele>
      </trkpt>
      <trkpt lat="42.8791" lon="-0.89367">
        <ele>910.8</ele>
      </trkpt>
      <trkpt lat="42.87914" lon="-0.89366">
        <ele>909.6</ele>
      </trkpt>
      <trkpt lat="42.87919" lon="-0.89364">
        <ele>909.6</ele>
      </trkpt>
      <trkpt lat="42.87924" lon="-0.89363">
        <ele>910.9</ele>
      </trkpt>
      <trkpt lat="42.87937" lon="-0.89365">
        <ele>913.2</ele>
      </trkpt>
      <trkpt lat="42.87953" lon="-0.89373">
        <ele>914.3</ele>
      </trkpt>
      <trkpt lat="42.87983" lon="-0.89388">
        <ele>914.7</ele>
      </trkpt>
      <trkpt lat="42.88001" lon="-0.89399">
        <ele>913.3</ele>
      </trkpt>
      <trkpt lat="42.88013" lon="-0.89407">
        <ele>914.1</ele>
      </trkpt>
      <trkpt lat="42.88027" lon="-0.8942">
        <ele>913.8</ele>
      </trkpt>
      <trkpt lat="42.88039" lon="-0.89429">
        <ele>914.8</ele>
      </trkpt>
      <trkpt lat="42.88048" lon="-0.89437">
        <ele>914.9</ele>
      </trkpt>
      <trkpt lat="42.88057" lon="-0.89443">
        <ele>915.6</ele>
      </trkpt>
      <trkpt lat="42.88063" lon="-0.89446">
        <ele>916.3</ele>
      </trkpt>
      <trkpt lat="42.88077" lon="-0.8945">
        <ele>918.8</ele>
      </trkpt>
      <trkpt lat="42.88093" lon="-0.89454">
        <ele>920.8</ele>
      </trkpt>
      <trkpt lat="42.88104" lon="-0.89458">
        <ele>921.4</ele>
      </trkpt>
      <trkpt lat="42.88113" lon="-0.89461">
        <ele>921.9</ele>
      </trkpt>
      <trkpt lat="42.88125" lon="-0.89467">
        <ele>921.9</ele>
      </trkpt>
      <trkpt lat="42.88136" lon="-0.89473">
        <ele>921.8</ele>
      </trkpt>
      <trkpt lat="42.88146" lon="-0.8948">
        <ele>921.1</ele>
      </trkpt>
      <trkpt lat="42.88158" lon="-0.89487">
        <ele>920.9</ele>
      </trkpt>
      <trkpt lat="42.88169" lon="-0.89493">
        <ele>920.6</ele>
      </trkpt>
      <trkpt lat="42.88186" lon="-0.895">
        <ele>919.2</ele>
      </trkpt>
      <trkpt lat="42.88209" lon="-0.89507">
        <ele>917.9</ele>
      </trkpt>
      <trkpt lat="42.88231" lon="-0.89513">
        <ele>917.2</ele>
      </trkpt>
      <trkpt lat="42.88242" lon="-0.89512">
        <ele>918.3</ele>
      </trkpt>
      <trkpt lat="42.88254" lon="-0.89506">
        <ele>920.1</ele>
      </trkpt>
      <trkpt lat="42.88268" lon="-0.89493">
        <ele>921.2</ele>
      </trkpt>
      <trkpt lat="42.88284" lon="-0.89476">
        <ele>922.4</ele>
      </trkpt>
      <trkpt lat="42.8829" lon="-0.89467">
        <ele>923.3</ele>
      </trkpt>
      <trkpt lat="42.88295" lon="-0.89456">
        <ele>925</ele>
      </trkpt>
      <trkpt lat="42.88298" lon="-0.89444">
        <ele>927.3</ele>
      </trkpt>
      <trkpt lat="42.88301" lon="-0.89412">
        <ele>934.2</ele>
      </trkpt>
      <trkpt lat="42.88303" lon="-0.89399">
        <ele>935.6</ele>
      </trkpt>
      <trkpt lat="42.88307" lon="-0.89379">
        <ele>937.4</ele>
      </trkpt>
      <trkpt lat="42.88312" lon="-0.89365">
        <ele>937.8</ele>
      </trkpt>
      <trkpt lat="42.88319" lon="-0.89349">
        <ele>937.8</ele>
      </trkpt>
      <trkpt lat="42.88323" lon="-0.89339">
        <ele>937.9</ele>
      </trkpt>
      <trkpt lat="42.88327" lon="-0.89318">
        <ele>939.3</ele>
      </trkpt>
      <trkpt lat="42.88328" lon="-0.89312">
        <ele>939.7</ele>
      </trkpt>
      <trkpt lat="42.88329" lon="-0.89285">
        <ele>942.9</ele>
      </trkpt>
      <trkpt lat="42.88331" lon="-0.89263">
        <ele>945.1</ele>
      </trkpt>
      <trkpt lat="42.88334" lon="-0.89243">
        <ele>947.6</ele>
      </trkpt>
      <trkpt lat="42.88339" lon="-0.89221">
        <ele>951.3</ele>
      </trkpt>
      <trkpt lat="42.88346" lon="-0.89198">
        <ele>954.2</ele>
      </trkpt>
      <trkpt lat="42.88352" lon="-0.89184">
        <ele>954.9</ele>
      </trkpt>
      <trkpt lat="42.88359" lon="-0.89169">
        <ele>955.1</ele>
      </trkpt>
      <trkpt lat="42.88366" lon="-0.89156">
        <ele>954.9</ele>
      </trkpt>
      <trkpt lat="42.88375" lon="-0.89132">
        <ele>956</ele>
      </trkpt>
      <trkpt lat="42.88383" lon="-0.891">
        <ele>958.7</ele>
      </trkpt>
      <trkpt lat="42.88384" lon="-0.89092">
        <ele>959.9</ele>
      </trkpt>
      <trkpt lat="42.88385" lon="-0.89085">
        <ele>960.8</ele>
      </trkpt>
      <trkpt lat="42.88384" lon="-0.89077">
        <ele>963.3</ele>
      </trkpt>
      <trkpt lat="42.88382" lon="-0.89072">
        <ele>965.7</ele>
      </trkpt>
      <trkpt lat="42.88379" lon="-0.8907">
        <ele>967.8</ele>
      </trkpt>
      <trkpt lat="42.88375" lon="-0.89071">
        <ele>969.7</ele>
      </trkpt>
      <trkpt lat="42.8837" lon="-0.89075">
        <ele>971.3</ele>
      </trkpt>
      <trkpt lat="42.88368" lon="-0.89081">
        <ele>970.9</ele>
      </trkpt>
      <trkpt lat="42.88364" lon="-0.89096">
        <ele>969.5</ele>
      </trkpt>
      <trkpt lat="42.88364" lon="-0.89102">
        <ele>968.2</ele>
      </trkpt>
      <trkpt lat="42.88361" lon="-0.8912">
        <ele>965.5</ele>
      </trkpt>
      <trkpt lat="42.88359" lon="-0.89129">
        <ele>964.4</ele>
      </trkpt>
      <trkpt lat="42.88353" lon="-0.89141">
        <ele>964.5</ele>
      </trkpt>
      <trkpt lat="42.88347" lon="-0.89149">
        <ele>965.3</ele>
      </trkpt>
      <trkpt lat="42.88327" lon="-0.89169">
        <ele>969</ele>
      </trkpt>
      <trkpt lat="42.88317" lon="-0.89182">
        <ele>969.7</ele>
      </trkpt>
      <trkpt lat="42.88302" lon="-0.89203">
        <ele>970</ele>
      </trkpt>
      <trkpt lat="42.88285" lon="-0.89229">
        <ele>969.3</ele>
      </trkpt>
      <trkpt lat="42.88267" lon="-0.89255">
        <ele>969.2</ele>
      </trkpt>
      <trkpt lat="42.88259" lon="-0.89267">
        <ele>970.5</ele>
      </trkpt>
      <trkpt lat="42.88247" lon="-0.89281">
        <ele>972.5</ele>
      </trkpt>
      <trkpt lat="42.88237" lon="-0.8929">
        <ele>972.9</ele>
      </trkpt>
      <trkpt lat="42.88225" lon="-0.89299">
        <ele>973.4</ele>
      </trkpt>
      <trkpt lat="42.88217" lon="-0.89303">
        <ele>973.9</ele>
      </trkpt>
      <trkpt lat="42.88206" lon="-0.89311">
        <ele>973.9</ele>
      </trkpt>
      <trkpt lat="42.88197" lon="-0.89313">
        <ele>974.6</ele>
      </trkpt>
      <trkpt lat="42.88185" lon="-0.89315">
        <ele>975.7</ele>
      </trkpt>
      <trkpt lat="42.88172" lon="-0.89316">
        <ele>977.1</ele>
      </trkpt>
      <trkpt lat="42.88161" lon="-0.89314">
        <ele>977.9</ele>
      </trkpt>
      <trkpt lat="42.8814" lon="-0.89306">
        <ele>978.6</ele>
      </trkpt>
      <trkpt lat="42.88122" lon="-0.89299">
        <ele>979.3</ele>
      </trkpt>
      <trkpt lat="42.88114" lon="-0.89295">
        <ele>979.8</ele>
      </trkpt>
      <trkpt lat="42.88105" lon="-0.89287">
        <ele>981.4</ele>
      </trkpt>
      <trkpt lat="42.88088" lon="-0.89267">
        <ele>985.6</ele>
      </trkpt>
      <trkpt lat="42.88077" lon="-0.89251">
        <ele>987.6</ele>
      </trkpt>
      <trkpt lat="42.88073" lon="-0.89244">
        <ele>988.5</ele>
      </trkpt>
      <trkpt lat="42.88062" lon="-0.8922">
        <ele>992.8</ele>
      </trkpt>
      <trkpt lat="42.88051" lon="-0.892">
        <ele>995.7</ele>
      </trkpt>
      <trkpt lat="42.88042" lon="-0.89184">
        <ele>997.9</ele>
      </trkpt>
      <trkpt lat="42.88034" lon="-0.89169">
        <ele>1000.1</ele>
      </trkpt>
      <trkpt lat="42.88029" lon="-0.8916">
        <ele>1001.3</ele>
      </trkpt>
      <trkpt lat="42.88021" lon="-0.89146">
        <ele>1003.3</ele>
      </trkpt>
      <trkpt lat="42.8801" lon="-0.89132">
        <ele>1004.6</ele>
      </trkpt>
      <trkpt lat="42.87986" lon="-0.89104">
        <ele>1007.5</ele>
      </trkpt>
      <trkpt lat="42.87945" lon="-0.8906">
        <ele>1010.2</ele>
      </trkpt>
      <trkpt lat="42.87934" lon="-0.89046">
        <ele>1011</ele>
      </trkpt>
      <trkpt lat="42.87927" lon="-0.89035">
        <ele>1012.1</ele>
      </trkpt>
      <trkpt lat="42.87922" lon="-0.89025">
        <ele>1013.5</ele>
      </trkpt>
      <trkpt lat="42.87913" lon="-0.89007">
        <ele>1015.5</ele>
      </trkpt>
      <trkpt lat="42.87901" lon="-0.8898">
        <ele>1017.5</ele>
      </trkpt>
      <trkpt lat="42.8789" lon="-0.88957">
        <ele>1018.8</ele>
      </trkpt>
      <trkpt lat="42.87872" lon="-0.88914">
        <ele>1022.7</ele>
      </trkpt>
      <trkpt lat="42.87858" lon="-0.88888">
        <ele>1025.9</ele>
      </trkpt>
      <trkpt lat="42.87844" lon="-0.88861">
        <ele>1029.2</ele>
      </trkpt>
      <trkpt lat="42.87838" lon="-0.8885">
        <ele>1030.4</ele>
      </trkpt>
      <trkpt lat="42.87828" lon="-0.88837">
        <ele>1031.5</ele>
      </trkpt>
      <trkpt lat="42.8781" lon="-0.88817">
        <ele>1033.8</ele>
      </trkpt>
      <trkpt lat="42.87709" lon="-0.88702">
        <ele>1045.7</ele>
      </trkpt>
      <trkpt lat="42.87685" lon="-0.88672">
        <ele>1047</ele>
      </trkpt>
      <trkpt lat="42.87672" lon="-0.8866">
        <ele>1046.3</ele>
      </trkpt>
      <trkpt lat="42.87656" lon="-0.88652">
        <ele>1048.1</ele>
      </trkpt>
      <trkpt lat="42.87631" lon="-0.88641">
        <ele>1052.2</ele>
      </trkpt>
      <trkpt lat="42.87615" lon="-0.88634">
        <ele>1053.7</ele>
      </trkpt>
      <trkpt lat="42.87604" lon="-0.88626">
        <ele>1054.4</ele>
      </trkpt>
      <trkpt lat="42.876" lon="-0.88622">
        <ele>1054.4</ele>
      </trkpt>
      <trkpt lat="42.87599" lon="-0.88621">
        <ele>1054.4</ele>
      </trkpt>
      <trkpt lat="42.87595" lon="-0.88617">
        <ele>1054.3</ele>
      </trkpt>
      <trkpt lat="42.87592" lon="-0.8861">
        <ele>1054.1</ele>
      </trkpt>
      <trkpt lat="42.87587" lon="-0.886">
        <ele>1053.3</ele>
      </trkpt>
      <trkpt lat="42.87579" lon="-0.88578">
        <ele>1053.7</ele>
      </trkpt>
      <trkpt lat="42.87566" lon="-0.88535">
        <ele>1058.6</ele>
      </trkpt>
      <trkpt lat="42.87558" lon="-0.88516">
        <ele>1059.2</ele>
      </trkpt>
      <trkpt lat="42.87554" lon="-0.885">
        <ele>1058.8</ele>
      </trkpt>
      <trkpt lat="42.87552" lon="-0.88488">
        <ele>1057.5</ele>
      </trkpt>
      <trkpt lat="42.8755" lon="-0.88475">
        <ele>1055.9</ele>
      </trkpt>
      <trkpt lat="42.8755" lon="-0.88466">
        <ele>1055.1</ele>
      </trkpt>
      <trkpt lat="42.87551" lon="-0.88455">
        <ele>1054.1</ele>
      </trkpt>
      <trkpt lat="42.87559" lon="-0.88428">
        <ele>1053</ele>
      </trkpt>
      <trkpt lat="42.87572" lon="-0.8839">
        <ele>1051.1</ele>
      </trkpt>
      <trkpt lat="42.87581" lon="-0.8836">
        <ele>1049</ele>
      </trkpt>
      <trkpt lat="42.87591" lon="-0.88317">
        <ele>1048.7</ele>
      </trkpt>
      <trkpt lat="42.87602" lon="-0.88276">
        <ele>1049.7</ele>
      </trkpt>
      <trkpt lat="42.87608" lon="-0.8824">
        <ele>1047.6</ele>
      </trkpt>
      <trkpt lat="42.87612" lon="-0.88222">
        <ele>1046.4</ele>
      </trkpt>
      <trkpt lat="42.87617" lon="-0.88205">
        <ele>1045.7</ele>
      </trkpt>
      <trkpt lat="42.87622" lon="-0.88192">
        <ele>1045.6</ele>
      </trkpt>
      <trkpt lat="42.87634" lon="-0.88159">
        <ele>1045.5</ele>
      </trkpt>
      <trkpt lat="42.87637" lon="-0.88149">
        <ele>1045.7</ele>
      </trkpt>
      <trkpt lat="42.8764" lon="-0.8814">
        <ele>1045.9</ele>
      </trkpt>
      <trkpt lat="42.87642" lon="-0.88131">
        <ele>1045.7</ele>
      </trkpt>
      <trkpt lat="42.87643" lon="-0.88119">
        <ele>1044.7</ele>
      </trkpt>
      <trkpt lat="42.87644" lon="-0.88108">
        <ele>1043.9</ele>
      </trkpt>
      <trkpt lat="42.87645" lon="-0.88101">
        <ele>1043.5</ele>
      </trkpt>
      <trkpt lat="42.87649" lon="-0.88049">
        <ele>1041.3</ele>
      </trkpt>
      <trkpt lat="42.87653" lon="-0.8799">
        <ele>1039.5</ele>
      </trkpt>
      <trkpt lat="42.87658" lon="-0.87918">
        <ele>1038</ele>
      </trkpt>
      <trkpt lat="42.87659" lon="-0.87897">
        <ele>1036.7</ele>
      </trkpt>
      <trkpt lat="42.8766" lon="-0.8788">
        <ele>1035.7</ele>
      </trkpt>
      <trkpt lat="42.87662" lon="-0.87865">
        <ele>1034.9</ele>
      </trkpt>
      <trkpt lat="42.87664" lon="-0.87851">
        <ele>1034.1</ele>
      </trkpt>
      <trkpt lat="42.87668" lon="-0.87828">
        <ele>1033.5</ele>
      </trkpt>
      <trkpt lat="42.87674" lon="-0.87801">
        <ele>1035.3</ele>
      </trkpt>
      <trkpt lat="42.87688" lon="-0.8776">
        <ele>1039.2</ele>
      </trkpt>
      <trkpt lat="42.8772" lon="-0.8766">
        <ele>1039.8</ele>
      </trkpt>
      <trkpt lat="42.87727" lon="-0.87636">
        <ele>1039.7</ele>
      </trkpt>
      <trkpt lat="42.87733" lon="-0.87617">
        <ele>1039.4</ele>
      </trkpt>
      <trkpt lat="42.87735" lon="-0.87606">
        <ele>1038.7</ele>
      </trkpt>
      <trkpt lat="42.87739" lon="-0.87581">
        <ele>1037.2</ele>
      </trkpt>
      <trkpt lat="42.87741" lon="-0.87561">
        <ele>1037.6</ele>
      </trkpt>
      <trkpt lat="42.87744" lon="-0.8754">
        <ele>1038.1</ele>
      </trkpt>
      <trkpt lat="42.87752" lon="-0.87476">
        <ele>1038.6</ele>
      </trkpt>
      <trkpt lat="42.87757" lon="-0.87425">
        <ele>1038.2</ele>
      </trkpt>
      <trkpt lat="42.87758" lon="-0.87404">
        <ele>1038.3</ele>
      </trkpt>
      <trkpt lat="42.87763" lon="-0.87353">
        <ele>1041.3</ele>
      </trkpt>
      <trkpt lat="42.87768" lon="-0.87286">
        <ele>1043.7</ele>
      </trkpt>
      <trkpt lat="42.87777" lon="-0.87172">
        <ele>1045.8</ele>
      </trkpt>
      <trkpt lat="42.87779" lon="-0.87142">
        <ele>1047.3</ele>
      </trkpt>
      <trkpt lat="42.87779" lon="-0.87125">
        <ele>1047.9</ele>
      </trkpt>
      <trkpt lat="42.87778" lon="-0.87109">
        <ele>1048.2</ele>
      </trkpt>
      <trkpt lat="42.87777" lon="-0.87099">
        <ele>1048.2</ele>
      </trkpt>
      <trkpt lat="42.87773" lon="-0.87072">
        <ele>1047.7</ele>
      </trkpt>
      <trkpt lat="42.87765" lon="-0.87036">
        <ele>1045.8</ele>
      </trkpt>
      <trkpt lat="42.87758" lon="-0.87">
        <ele>1044.2</ele>
      </trkpt>
      <trkpt lat="42.87758" lon="-0.86998">
        <ele>1044.2</ele>
      </trkpt>
      <trkpt lat="42.87722" lon="-0.86822">
        <ele>1041.9</ele>
      </trkpt>
      <trkpt lat="42.87708" lon="-0.8675">
        <ele>1044.5</ele>
      </trkpt>
      <trkpt lat="42.87703" lon="-0.86725">
        <ele>1044.7</ele>
      </trkpt>
      <trkpt lat="42.87697" lon="-0.86696">
        <ele>1044.8</ele>
      </trkpt>
      <trkpt lat="42.87693" lon="-0.86672">
        <ele>1045.1</ele>
      </trkpt>
      <trkpt lat="42.87687" lon="-0.86607">
        <ele>1047.5</ele>
      </trkpt>
      <trkpt lat="42.87686" lon="-0.86589">
        <ele>1048.2</ele>
      </trkpt>
      <trkpt lat="42.87686" lon="-0.86557">
        <ele>1049.3</ele>
      </trkpt>
      <trkpt lat="42.87687" lon="-0.86483">
        <ele>1051.7</ele>
      </trkpt>
      <trkpt lat="42.87686" lon="-0.86426">
        <ele>1052.4</ele>
      </trkpt>
      <trkpt lat="42.87686" lon="-0.86368">
        <ele>1053.7</ele>
      </trkpt>
      <trkpt lat="42.87686" lon="-0.86325">
        <ele>1054.6</ele>
      </trkpt>
      <trkpt lat="42.87686" lon="-0.86264">
        <ele>1055.2</ele>
      </trkpt>
      <trkpt lat="42.87685" lon="-0.86229">
        <ele>1055.5</ele>
      </trkpt>
      <trkpt lat="42.87685" lon="-0.86215">
        <ele>1055.8</ele>
      </trkpt>
      <trkpt lat="42.87685" lon="-0.86203">
        <ele>1056.1</ele>
      </trkpt>
      <trkpt lat="42.87681" lon="-0.86167">
        <ele>1055.8</ele>
      </trkpt>
      <trkpt lat="42.87673" lon="-0.8611">
        <ele>1054.4</ele>
      </trkpt>
      <trkpt lat="42.87657" lon="-0.85982">
        <ele>1056.4</ele>
      </trkpt>
      <trkpt lat="42.87657" lon="-0.85976">
        <ele>1056.5</ele>
      </trkpt>
      <trkpt lat="42.87651" lon="-0.85936">
        <ele>1057.8</ele>
      </trkpt>
      <trkpt lat="42.87641" lon="-0.85858">
        <ele>1062.5</ele>
      </trkpt>
      <trkpt lat="42.87639" lon="-0.85843">
        <ele>1063.4</ele>
      </trkpt>
      <trkpt lat="42.87637" lon="-0.85832">
        <ele>1064</ele>
      </trkpt>
      <trkpt lat="42.87634" lon="-0.85822">
        <ele>1064.3</ele>
      </trkpt>
      <trkpt lat="42.8763" lon="-0.85811">
        <ele>1064.6</ele>
      </trkpt>
      <trkpt lat="42.87623" lon="-0.85794">
        <ele>1064.9</ele>
      </trkpt>
      <trkpt lat="42.87617" lon="-0.85777">
        <ele>1065.1</ele>
      </trkpt>
      <trkpt lat="42.87586" lon="-0.85701">
        <ele>1064.9</ele>
      </trkpt>
      <trkpt lat="42.87575" lon="-0.85672">
        <ele>1066.2</ele>
      </trkpt>
      <trkpt lat="42.87569" lon="-0.85654">
        <ele>1067.8</ele>
      </trkpt>
      <trkpt lat="42.87567" lon="-0.85644">
        <ele>1068.5</ele>
      </trkpt>
      <trkpt lat="42.87565" lon="-0.85634">
        <ele>1069.2</ele>
      </trkpt>
      <trkpt lat="42.87561" lon="-0.85608">
        <ele>1070.5</ele>
      </trkpt>
      <trkpt lat="42.87556" lon="-0.85558">
        <ele>1072.3</ele>
      </trkpt>
      <trkpt lat="42.87554" lon="-0.85535">
        <ele>1073</ele>
      </trkpt>
      <trkpt lat="42.87554" lon="-0.85519">
        <ele>1073.5</ele>
      </trkpt>
      <trkpt lat="42.87555" lon="-0.855">
        <ele>1074.3</ele>
      </trkpt>
      <trkpt lat="42.87562" lon="-0.85436">
        <ele>1079.7</ele>
      </trkpt>
      <trkpt lat="42.87563" lon="-0.85416">
        <ele>1081.5</ele>
      </trkpt>
      <trkpt lat="42.87564" lon="-0.85411">
        <ele>1082.4</ele>
      </trkpt>
      <trkpt lat="42.87564" lon="-0.854">
        <ele>1083.9</ele>
      </trkpt>
      <trkpt lat="42.87556" lon="-0.85336">
        <ele>1088.9</ele>
      </trkpt>
      <trkpt lat="42.87544" lon="-0.85254">
        <ele>1090.3</ele>
      </trkpt>
      <trkpt lat="42.87537" lon="-0.85204">
        <ele>1088.3</ele>
      </trkpt>
      <trkpt lat="42.87518" lon="-0.85107">
        <ele>1082.2</ele>
      </trkpt>
      <trkpt lat="42.87514" lon="-0.85087">
        <ele>1081.1</ele>
      </trkpt>
      <trkpt lat="42.87508" lon="-0.85061">
        <ele>1079.4</ele>
      </trkpt>
      <trkpt lat="42.87481" lon="-0.84948">
        <ele>1078.2</ele>
      </trkpt>
      <trkpt lat="42.87415" lon="-0.8468">
        <ele>1077.3</ele>
      </trkpt>
      <trkpt lat="42.87401" lon="-0.84622">
        <ele>1080.5</ele>
      </trkpt>
      <trkpt lat="42.87379" lon="-0.84534">
        <ele>1087</ele>
      </trkpt>
      <trkpt lat="42.8736" lon="-0.84452">
        <ele>1090.2</ele>
      </trkpt>
      <trkpt lat="42.87353" lon="-0.84422">
        <ele>1090.1</ele>
      </trkpt>
      <trkpt lat="42.87349" lon="-0.84403">
        <ele>1090.2</ele>
      </trkpt>
      <trkpt lat="42.87324" lon="-0.84269">
        <ele>1096.6</ele>
      </trkpt>
      <trkpt lat="42.87308" lon="-0.84184">
        <ele>1104.6</ele>
      </trkpt>
      <trkpt lat="42.87303" lon="-0.84158">
        <ele>1106.5</ele>
      </trkpt>
      <trkpt lat="42.87302" lon="-0.84146">
        <ele>1107.3</ele>
      </trkpt>
      <trkpt lat="42.87301" lon="-0.84136">
        <ele>1108</ele>
      </trkpt>
      <trkpt lat="42.87301" lon="-0.84126">
        <ele>1109</ele>
      </trkpt>
      <trkpt lat="42.87304" lon="-0.84096">
        <ele>1112.7</ele>
      </trkpt>
      <trkpt lat="42.87307" lon="-0.84048">
        <ele>1118.5</ele>
      </trkpt>
      <trkpt lat="42.87306" lon="-0.84027">
        <ele>1120.4</ele>
      </trkpt>
      <trkpt lat="42.87304" lon="-0.83997">
        <ele>1122.7</ele>
      </trkpt>
      <trkpt lat="42.87299" lon="-0.83966">
        <ele>1124.1</ele>
      </trkpt>
      <trkpt lat="42.87289" lon="-0.83932">
        <ele>1122.8</ele>
      </trkpt>
      <trkpt lat="42.8728" lon="-0.83909">
        <ele>1120.6</ele>
      </trkpt>
      <trkpt lat="42.87277" lon="-0.83898">
        <ele>1120.5</ele>
      </trkpt>
      <trkpt lat="42.87276" lon="-0.83887">
        <ele>1121.5</ele>
      </trkpt>
      <trkpt lat="42.87274" lon="-0.83857">
        <ele>1124.6</ele>
      </trkpt>
      <trkpt lat="42.87267" lon="-0.83823">
        <ele>1125.3</ele>
      </trkpt>
      <trkpt lat="42.87257" lon="-0.83782">
        <ele>1124.3</ele>
      </trkpt>
      <trkpt lat="42.87249" lon="-0.83734">
        <ele>1125.9</ele>
      </trkpt>
      <trkpt lat="42.87247" lon="-0.83722">
        <ele>1127</ele>
      </trkpt>
      <trkpt lat="42.87243" lon="-0.83713">
        <ele>1127.1</ele>
      </trkpt>
      <trkpt lat="42.87235" lon="-0.83702">
        <ele>1126.3</ele>
      </trkpt>
      <trkpt lat="42.87231" lon="-0.83691">
        <ele>1126.4</ele>
      </trkpt>
      <trkpt lat="42.87227" lon="-0.83676">
        <ele>1126.7</ele>
      </trkpt>
      <trkpt lat="42.87218" lon="-0.83632">
        <ele>1128.4</ele>
      </trkpt>
      <trkpt lat="42.8721" lon="-0.83585">
        <ele>1130.5</ele>
      </trkpt>
      <trkpt lat="42.87208" lon="-0.83494">
        <ele>1141.3</ele>
      </trkpt>
      <trkpt lat="42.87206" lon="-0.8348">
        <ele>1142.6</ele>
      </trkpt>
      <trkpt lat="42.87204" lon="-0.83471">
        <ele>1143.1</ele>
      </trkpt>
      <trkpt lat="42.872" lon="-0.83462">
        <ele>1142.8</ele>
      </trkpt>
      <trkpt lat="42.87145" lon="-0.8333">
        <ele>1145.2</ele>
      </trkpt>
      <trkpt lat="42.87138" lon="-0.83312">
        <ele>1146.5</ele>
      </trkpt>
      <trkpt lat="42.87136" lon="-0.83299">
        <ele>1148.2</ele>
      </trkpt>
      <trkpt lat="42.87132" lon="-0.83274">
        <ele>1151.1</ele>
      </trkpt>
      <trkpt lat="42.87131" lon="-0.83237">
        <ele>1156.3</ele>
      </trkpt>
      <trkpt lat="42.87131" lon="-0.83206">
        <ele>1160.2</ele>
      </trkpt>
      <trkpt lat="42.87134" lon="-0.83168">
        <ele>1166.1</ele>
      </trkpt>
      <trkpt lat="42.8714" lon="-0.83125">
        <ele>1169.8</ele>
      </trkpt>
      <trkpt lat="42.87144" lon="-0.83096">
        <ele>1172</ele>
      </trkpt>
      <trkpt lat="42.87149" lon="-0.83071">
        <ele>1173.8</ele>
      </trkpt>
      <trkpt lat="42.8716" lon="-0.83033">
        <ele>1175.9</ele>
      </trkpt>
      <trkpt lat="42.87174" lon="-0.83001">
        <ele>1179.9</ele>
      </trkpt>
      <trkpt lat="42.87196" lon="-0.82953">
        <ele>1184.8</ele>
      </trkpt>
      <trkpt lat="42.87205" lon="-0.8293">
        <ele>1185.6</ele>
      </trkpt>
      <trkpt lat="42.87216" lon="-0.82906">
        <ele>1186.6</ele>
      </trkpt>
      <trkpt lat="42.87224" lon="-0.82892">
        <ele>1187.2</ele>
      </trkpt>
      <trkpt lat="42.87244" lon="-0.82865">
        <ele>1188.2</ele>
      </trkpt>
      <trkpt lat="42.87253" lon="-0.82855">
        <ele>1188.5</ele>
      </trkpt>
      <trkpt lat="42.87268" lon="-0.82841">
        <ele>1190</ele>
      </trkpt>
      <trkpt lat="42.87312" lon="-0.82807">
        <ele>1196.9</ele>
      </trkpt>
      <trkpt lat="42.8733" lon="-0.82787">
        <ele>1196.9</ele>
      </trkpt>
      <trkpt lat="42.87373" lon="-0.82726">
        <ele>1201.9</ele>
      </trkpt>
      <trkpt lat="42.87476" lon="-0.82593">
        <ele>1209.5</ele>
      </trkpt>
      <trkpt lat="42.87485" lon="-0.8258">
        <ele>1209.3</ele>
      </trkpt>
      <trkpt lat="42.87507" lon="-0.82546">
        <ele>1212.5</ele>
      </trkpt>
      <trkpt lat="42.87513" lon="-0.82539">
        <ele>1213.7</ele>
      </trkpt>
      <trkpt lat="42.87517" lon="-0.82534">
        <ele>1214.4</ele>
      </trkpt>
      <trkpt lat="42.8752" lon="-0.82531">
        <ele>1214.9</ele>
      </trkpt>
      <trkpt lat="42.87523" lon="-0.82529">
        <ele>1215.4</ele>
      </trkpt>
      <trkpt lat="42.87531" lon="-0.82525">
        <ele>1216.7</ele>
      </trkpt>
      <trkpt lat="42.87548" lon="-0.82517">
        <ele>1219.2</ele>
      </trkpt>
      <trkpt lat="42.87558" lon="-0.82511">
        <ele>1220.4</ele>
      </trkpt>
      <trkpt lat="42.87568" lon="-0.82503">
        <ele>1221.1</ele>
      </trkpt>
      <trkpt lat="42.87575" lon="-0.82498">
        <ele>1221.8</ele>
      </trkpt>
      <trkpt lat="42.87579" lon="-0.82493">
        <ele>1222.4</ele>
      </trkpt>
      <trkpt lat="42.87583" lon="-0.82488">
        <ele>1222.8</ele>
      </trkpt>
      <trkpt lat="42.87587" lon="-0.82482">
        <ele>1224.2</ele>
      </trkpt>
      <trkpt lat="42.87592" lon="-0.82471">
        <ele>1226</ele>
      </trkpt>
      <trkpt lat="42.87597" lon="-0.82458">
        <ele>1227.7</ele>
      </trkpt>
      <trkpt lat="42.87599" lon="-0.8245">
        <ele>1228.4</ele>
      </trkpt>
      <trkpt lat="42.876" lon="-0.82443">
        <ele>1228.6</ele>
      </trkpt>
      <trkpt lat="42.876" lon="-0.8243">
        <ele>1228.4</ele>
      </trkpt>
      <trkpt lat="42.87599" lon="-0.82421">
        <ele>1227.9</ele>
      </trkpt>
      <trkpt lat="42.87598" lon="-0.82411">
        <ele>1227.7</ele>
      </trkpt>
      <trkpt lat="42.87596" lon="-0.82405">
        <ele>1227.3</ele>
      </trkpt>
      <trkpt lat="42.87595" lon="-0.82401">
        <ele>1227.2</ele>
      </trkpt>
      <trkpt lat="42.87593" lon="-0.82396">
        <ele>1226.7</ele>
      </trkpt>
      <trkpt lat="42.87591" lon="-0.82393">
        <ele>1226.2</ele>
      </trkpt>
      <trkpt lat="42.87588" lon="-0.82389">
        <ele>1225.5</ele>
      </trkpt>
      <trkpt lat="42.87585" lon="-0.82387">
        <ele>1224.7</ele>
      </trkpt>
      <trkpt lat="42.87582" lon="-0.82385">
        <ele>1224.5</ele>
      </trkpt>
      <trkpt lat="42.87576" lon="-0.82384">
        <ele>1225.6</ele>
      </trkpt>
      <trkpt lat="42.87569" lon="-0.82384">
        <ele>1226.7</ele>
      </trkpt>
      <trkpt lat="42.87565" lon="-0.82387">
        <ele>1227</ele>
      </trkpt>
      <trkpt lat="42.87562" lon="-0.82388">
        <ele>1227.4</ele>
      </trkpt>
      <trkpt lat="42.87559" lon="-0.82391">
        <ele>1227.4</ele>
      </trkpt>
      <trkpt lat="42.87534" lon="-0.82418">
        <ele>1226</ele>
      </trkpt>
      <trkpt lat="42.87516" lon="-0.82434">
        <ele>1224.7</ele>
      </trkpt>
      <trkpt lat="42.87494" lon="-0.82448">
        <ele>1223.6</ele>
      </trkpt>
      <trkpt lat="42.87445" lon="-0.82471">
        <ele>1227.3</ele>
      </trkpt>
      <trkpt lat="42.87417" lon="-0.82479">
        <ele>1229.3</ele>
      </trkpt>
      <trkpt lat="42.87401" lon="-0.82481">
        <ele>1231.1</ele>
      </trkpt>
      <trkpt lat="42.87356" lon="-0.82488">
        <ele>1235.8</ele>
      </trkpt>
      <trkpt lat="42.87317" lon="-0.825">
        <ele>1236.6</ele>
      </trkpt>
      <trkpt lat="42.87304" lon="-0.82503">
        <ele>1236.9</ele>
      </trkpt>
      <trkpt lat="42.87291" lon="-0.82502">
        <ele>1238.4</ele>
      </trkpt>
      <trkpt lat="42.87277" lon="-0.825">
        <ele>1240.4</ele>
      </trkpt>
      <trkpt lat="42.8723" lon="-0.82499">
        <ele>1245.9</ele>
      </trkpt>
      <trkpt lat="42.87218" lon="-0.82501">
        <ele>1246.5</ele>
      </trkpt>
      <trkpt lat="42.87213" lon="-0.82503">
        <ele>1246.3</ele>
      </trkpt>
      <trkpt lat="42.87204" lon="-0.82508">
        <ele>1245.3</ele>
      </trkpt>
      <trkpt lat="42.87197" lon="-0.82511">
        <ele>1244.9</ele>
      </trkpt>
      <trkpt lat="42.87192" lon="-0.82512">
        <ele>1245</ele>
      </trkpt>
      <trkpt lat="42.87187" lon="-0.82511">
        <ele>1245.9</ele>
      </trkpt>
      <trkpt lat="42.87167" lon="-0.82507">
        <ele>1249.9</ele>
      </trkpt>
      <trkpt lat="42.8716" lon="-0.82507">
        <ele>1251.9</ele>
      </trkpt>
      <trkpt lat="42.87153" lon="-0.82509">
        <ele>1253.1</ele>
      </trkpt>
      <trkpt lat="42.87149" lon="-0.8251">
        <ele>1253.9</ele>
      </trkpt>
      <trkpt lat="42.87143" lon="-0.82514">
        <ele>1253.9</ele>
      </trkpt>
      <trkpt lat="42.87136" lon="-0.8252">
        <ele>1253.4</ele>
      </trkpt>
      <trkpt lat="42.87101" lon="-0.82561">
        <ele>1246.2</ele>
      </trkpt>
      <trkpt lat="42.87094" lon="-0.82567">
        <ele>1245.8</ele>
      </trkpt>
      <trkpt lat="42.8709" lon="-0.82568">
        <ele>1246.6</ele>
      </trkpt>
      <trkpt lat="42.87087" lon="-0.82568">
        <ele>1247.5</ele>
      </trkpt>
      <trkpt lat="42.87084" lon="-0.82567">
        <ele>1248.9</ele>
      </trkpt>
      <trkpt lat="42.87081" lon="-0.82566">
        <ele>1249.5</ele>
      </trkpt>
      <trkpt lat="42.87067" lon="-0.82553">
        <ele>1255.2</ele>
      </trkpt>
      <trkpt lat="42.87064" lon="-0.8255">
        <ele>1256.4</ele>
      </trkpt>
      <trkpt lat="42.8706" lon="-0.82548">
        <ele>1257.2</ele>
      </trkpt>
      <trkpt lat="42.87014" lon="-0.8254">
        <ele>1259.7</ele>
      </trkpt>
      <trkpt lat="42.8701" lon="-0.82538">
        <ele>1260.3</ele>
      </trkpt>
      <trkpt lat="42.87006" lon="-0.82535">
        <ele>1261.2</ele>
      </trkpt>
      <trkpt lat="42.87001" lon="-0.82531">
        <ele>1262.4</ele>
      </trkpt>
      <trkpt lat="42.86932" lon="-0.8245">
        <ele>1274.5</ele>
      </trkpt>
      <trkpt lat="42.86895" lon="-0.82417">
        <ele>1279.6</ele>
      </trkpt>
      <trkpt lat="42.86892" lon="-0.82416">
        <ele>1280.3</ele>
      </trkpt>
      <trkpt lat="42.86889" lon="-0.82416">
        <ele>1280.8</ele>
      </trkpt>
      <trkpt lat="42.86886" lon="-0.82417">
        <ele>1281.1</ele>
      </trkpt>
      <trkpt lat="42.86879" lon="-0.8242">
        <ele>1282.1</ele>
      </trkpt>
      <trkpt lat="42.86873" lon="-0.82423">
        <ele>1283</ele>
      </trkpt>
      <trkpt lat="42.86868" lon="-0.82428">
        <ele>1283.5</ele>
      </trkpt>
      <trkpt lat="42.86848" lon="-0.82462">
        <ele>1285.5</ele>
      </trkpt>
      <trkpt lat="42.8684" lon="-0.82476">
        <ele>1286.5</ele>
      </trkpt>
      <trkpt lat="42.86837" lon="-0.8249">
        <ele>1286.6</ele>
      </trkpt>
      <trkpt lat="42.86835" lon="-0.82507">
        <ele>1286.1</ele>
      </trkpt>
      <trkpt lat="42.86831" lon="-0.82527">
        <ele>1285.3</ele>
      </trkpt>
      <trkpt lat="42.86826" lon="-0.82539">
        <ele>1285.5</ele>
      </trkpt>
      <trkpt lat="42.86819" lon="-0.82549">
        <ele>1286.3</ele>
      </trkpt>
      <trkpt lat="42.86812" lon="-0.82558">
        <ele>1287.1</ele>
      </trkpt>
      <trkpt lat="42.86789" lon="-0.82573">
        <ele>1290.8</ele>
      </trkpt>
      <trkpt lat="42.86783" lon="-0.82578">
        <ele>1291.5</ele>
      </trkpt>
      <trkpt lat="42.86779" lon="-0.82583">
        <ele>1291.8</ele>
      </trkpt>
      <trkpt lat="42.86774" lon="-0.8259">
        <ele>1292.3</ele>
      </trkpt>
      <trkpt lat="42.86769" lon="-0.82599">
        <ele>1292.7</ele>
      </trkpt>
      <trkpt lat="42.86764" lon="-0.82613">
        <ele>1292.9</ele>
      </trkpt>
      <trkpt lat="42.86755" lon="-0.82647">
        <ele>1292.9</ele>
      </trkpt>
      <trkpt lat="42.86753" lon="-0.82652">
        <ele>1293.1</ele>
      </trkpt>
      <trkpt lat="42.8675" lon="-0.82657">
        <ele>1293.6</ele>
      </trkpt>
      <trkpt lat="42.86747" lon="-0.82663">
        <ele>1293.4</ele>
      </trkpt>
      <trkpt lat="42.86744" lon="-0.82666">
        <ele>1293.3</ele>
      </trkpt>
      <trkpt lat="42.8674" lon="-0.8267">
        <ele>1293.3</ele>
      </trkpt>
      <trkpt lat="42.86734" lon="-0.82673">
        <ele>1293.4</ele>
      </trkpt>
      <trkpt lat="42.86687" lon="-0.82689">
        <ele>1296.6</ele>
      </trkpt>
      <trkpt lat="42.86617" lon="-0.82711">
        <ele>1296.6</ele>
      </trkpt>
      <trkpt lat="42.8661" lon="-0.82711">
        <ele>1296.1</ele>
      </trkpt>
      <trkpt lat="42.86602" lon="-0.82711">
        <ele>1295.6</ele>
      </trkpt>
      <trkpt lat="42.86597" lon="-0.82708">
        <ele>1294.9</ele>
      </trkpt>
      <trkpt lat="42.86592" lon="-0.82704">
        <ele>1293.9</ele>
      </trkpt>
      <trkpt lat="42.86589" lon="-0.82698">
        <ele>1292.7</ele>
      </trkpt>
      <trkpt lat="42.86586" lon="-0.82689">
        <ele>1291</ele>
      </trkpt>
      <trkpt lat="42.86585" lon="-0.8268">
        <ele>1289.4</ele>
      </trkpt>
      <trkpt lat="42.86586" lon="-0.82667">
        <ele>1287.4</ele>
      </trkpt>
      <trkpt lat="42.86604" lon="-0.82624">
        <ele>1287.7</ele>
      </trkpt>
      <trkpt lat="42.86606" lon="-0.82614">
        <ele>1287.7</ele>
      </trkpt>
      <trkpt lat="42.86606" lon="-0.82607">
        <ele>1287.4</ele>
      </trkpt>
      <trkpt lat="42.86606" lon="-0.82599">
        <ele>1287.1</ele>
      </trkpt>
      <trkpt lat="42.86604" lon="-0.82594">
        <ele>1286.4</ele>
      </trkpt>
      <trkpt lat="42.866" lon="-0.82587">
        <ele>1285</ele>
      </trkpt>
      <trkpt lat="42.86597" lon="-0.82584">
        <ele>1284</ele>
      </trkpt>
      <trkpt lat="42.86592" lon="-0.8258">
        <ele>1282.6</ele>
      </trkpt>
      <trkpt lat="42.86584" lon="-0.82579">
        <ele>1280.4</ele>
      </trkpt>
      <trkpt lat="42.86573" lon="-0.82574">
        <ele>1278.4</ele>
      </trkpt>
      <trkpt lat="42.86567" lon="-0.82566">
        <ele>1277.2</ele>
      </trkpt>
      <trkpt lat="42.86563" lon="-0.82551">
        <ele>1276.2</ele>
      </trkpt>
      <trkpt lat="42.86557" lon="-0.82486">
        <ele>1274.7</ele>
      </trkpt>
      <trkpt lat="42.86552" lon="-0.82459">
        <ele>1274.7</ele>
      </trkpt>
      <trkpt lat="42.86546" lon="-0.82437">
        <ele>1273.5</ele>
      </trkpt>
      <trkpt lat="42.86522" lon="-0.82373">
        <ele>1268.5</ele>
      </trkpt>
      <trkpt lat="42.86501" lon="-0.82286">
        <ele>1264.6</ele>
      </trkpt>
      <trkpt lat="42.86479" lon="-0.82224">
        <ele>1258.6</ele>
      </trkpt>
      <trkpt lat="42.86473" lon="-0.82199">
        <ele>1256</ele>
      </trkpt>
      <trkpt lat="42.86471" lon="-0.82179">
        <ele>1255</ele>
      </trkpt>
      <trkpt lat="42.86471" lon="-0.82169">
        <ele>1254.9</ele>
      </trkpt>
      <trkpt lat="42.86478" lon="-0.82115">
        <ele>1252.6</ele>
      </trkpt>
      <trkpt lat="42.86491" lon="-0.82031">
        <ele>1247.6</ele>
      </trkpt>
      <trkpt lat="42.86491" lon="-0.82009">
        <ele>1245</ele>
      </trkpt>
      <trkpt lat="42.86492" lon="-0.81995">
        <ele>1243.7</ele>
      </trkpt>
      <trkpt lat="42.86492" lon="-0.81973">
        <ele>1241.4</ele>
      </trkpt>
      <trkpt lat="42.86491" lon="-0.81873">
        <ele>1231.8</ele>
      </trkpt>
      <trkpt lat="42.86493" lon="-0.8185">
        <ele>1230.5</ele>
      </trkpt>
      <trkpt lat="42.86496" lon="-0.81818">
        <ele>1229</ele>
      </trkpt>
      <trkpt lat="42.86501" lon="-0.81761">
        <ele>1227.1</ele>
      </trkpt>
      <trkpt lat="42.86503" lon="-0.81751">
        <ele>1227.3</ele>
      </trkpt>
      <trkpt lat="42.86513" lon="-0.81712">
        <ele>1227.2</ele>
      </trkpt>
      <trkpt lat="42.86515" lon="-0.81703">
        <ele>1227</ele>
      </trkpt>
      <trkpt lat="42.86515" lon="-0.81695">
        <ele>1226.1</ele>
      </trkpt>
      <trkpt lat="42.86514" lon="-0.8169">
        <ele>1225.2</ele>
      </trkpt>
      <trkpt lat="42.86513" lon="-0.81686">
        <ele>1224.3</ele>
      </trkpt>
      <trkpt lat="42.86512" lon="-0.81683">
        <ele>1223.6</ele>
      </trkpt>
      <trkpt lat="42.8651" lon="-0.81681">
        <ele>1222.6</ele>
      </trkpt>
      <trkpt lat="42.86507" lon="-0.81679">
        <ele>1221.1</ele>
      </trkpt>
      <trkpt lat="42.86505" lon="-0.81678">
        <ele>1220.2</ele>
      </trkpt>
      <trkpt lat="42.86502" lon="-0.81677">
        <ele>1218.9</ele>
      </trkpt>
      <trkpt lat="42.865" lon="-0.81678">
        <ele>1218.2</ele>
      </trkpt>
      <trkpt lat="42.86497" lon="-0.81679">
        <ele>1217.6</ele>
      </trkpt>
      <trkpt lat="42.86494" lon="-0.81681">
        <ele>1217.2</ele>
      </trkpt>
      <trkpt lat="42.86492" lon="-0.81683">
        <ele>1216.9</ele>
      </trkpt>
      <trkpt lat="42.86489" lon="-0.81687">
        <ele>1216.6</ele>
      </trkpt>
      <trkpt lat="42.86454" lon="-0.81753">
        <ele>1214.6</ele>
      </trkpt>
      <trkpt lat="42.86444" lon="-0.81768">
        <ele>1212.8</ele>
      </trkpt>
      <trkpt lat="42.86438" lon="-0.81776">
        <ele>1211.7</ele>
      </trkpt>
      <trkpt lat="42.86433" lon="-0.8178">
        <ele>1210.6</ele>
      </trkpt>
      <trkpt lat="42.86424" lon="-0.81786">
        <ele>1208.6</ele>
      </trkpt>
      <trkpt lat="42.86418" lon="-0.818">
        <ele>1207.7</ele>
      </trkpt>
      <trkpt lat="42.86417" lon="-0.8181">
        <ele>1208</ele>
      </trkpt>
      <trkpt lat="42.86416" lon="-0.81816">
        <ele>1208.1</ele>
      </trkpt>
      <trkpt lat="42.86415" lon="-0.81828">
        <ele>1208.6</ele>
      </trkpt>
      <trkpt lat="42.86412" lon="-0.81851">
        <ele>1209.4</ele>
      </trkpt>
      <trkpt lat="42.86408" lon="-0.81864">
        <ele>1209.5</ele>
      </trkpt>
      <trkpt lat="42.86404" lon="-0.81875">
        <ele>1209.5</ele>
      </trkpt>
      <trkpt lat="42.86398" lon="-0.81886">
        <ele>1209.2</ele>
      </trkpt>
      <trkpt lat="42.86388" lon="-0.81907">
        <ele>1208.6</ele>
      </trkpt>
      <trkpt lat="42.86374" lon="-0.81929">
        <ele>1207.4</ele>
      </trkpt>
      <trkpt lat="42.86354" lon="-0.81957">
        <ele>1205.7</ele>
      </trkpt>
      <trkpt lat="42.86344" lon="-0.81974">
        <ele>1204.8</ele>
      </trkpt>
      <trkpt lat="42.86336" lon="-0.81989">
        <ele>1204</ele>
      </trkpt>
      <trkpt lat="42.86329" lon="-0.82008">
        <ele>1204.4</ele>
      </trkpt>
      <trkpt lat="42.86294" lon="-0.8212">
        <ele>1205.6</ele>
      </trkpt>
      <trkpt lat="42.86289" lon="-0.82139">
        <ele>1206.1</ele>
      </trkpt>
      <trkpt lat="42.86288" lon="-0.82151">
        <ele>1206.8</ele>
      </trkpt>
      <trkpt lat="42.86288" lon="-0.8217">
        <ele>1208.3</ele>
      </trkpt>
      <trkpt lat="42.86288" lon="-0.82187">
        <ele>1210</ele>
      </trkpt>
      <trkpt lat="42.86286" lon="-0.82196">
        <ele>1210.8</ele>
      </trkpt>
      <trkpt lat="42.8628" lon="-0.82203">
        <ele>1211</ele>
      </trkpt>
      <trkpt lat="42.86273" lon="-0.82205">
        <ele>1210.7</ele>
      </trkpt>
      <trkpt lat="42.86264" lon="-0.82205">
        <ele>1210</ele>
      </trkpt>
      <trkpt lat="42.8625" lon="-0.82203">
        <ele>1208.5</ele>
      </trkpt>
      <trkpt lat="42.86242" lon="-0.82208">
        <ele>1209.4</ele>
      </trkpt>
      <trkpt lat="42.86229" lon="-0.82215">
        <ele>1210.7</ele>
      </trkpt>
      <trkpt lat="42.86219" lon="-0.82221">
        <ele>1212</ele>
      </trkpt>
      <trkpt lat="42.86206" lon="-0.82222">
        <ele>1212.3</ele>
      </trkpt>
      <trkpt lat="42.86192" lon="-0.82221">
        <ele>1212.2</ele>
      </trkpt>
      <trkpt lat="42.86183" lon="-0.8222">
        <ele>1212</ele>
      </trkpt>
      <trkpt lat="42.86176" lon="-0.82222">
        <ele>1212.5</ele>
      </trkpt>
      <trkpt lat="42.86167" lon="-0.82226">
        <ele>1213.7</ele>
      </trkpt>
      <trkpt lat="42.86158" lon="-0.82232">
        <ele>1215.3</ele>
      </trkpt>
      <trkpt lat="42.86146" lon="-0.82239">
        <ele>1217</ele>
      </trkpt>
      <trkpt lat="42.86135" lon="-0.82243">
        <ele>1218</ele>
      </trkpt>
      <trkpt lat="42.86126" lon="-0.82247">
        <ele>1218.8</ele>
      </trkpt>
      <trkpt lat="42.86115" lon="-0.82248">
        <ele>1218.9</ele>
      </trkpt>
      <trkpt lat="42.86105" lon="-0.82249">
        <ele>1219</ele>
      </trkpt>
      <trkpt lat="42.86101" lon="-0.82249">
        <ele>1219</ele>
      </trkpt>
      <trkpt lat="42.8609" lon="-0.82251">
        <ele>1219.7</ele>
      </trkpt>
      <trkpt lat="42.86077" lon="-0.82254">
        <ele>1220.4</ele>
      </trkpt>
      <trkpt lat="42.86068" lon="-0.82256">
        <ele>1220.2</ele>
      </trkpt>
      <trkpt lat="42.86058" lon="-0.82255">
        <ele>1218</ele>
      </trkpt>
      <trkpt lat="42.86049" lon="-0.82251">
        <ele>1214.2</ele>
      </trkpt>
      <trkpt lat="42.86031" lon="-0.82246">
        <ele>1211.1</ele>
      </trkpt>
      <trkpt lat="42.86023" lon="-0.82246">
        <ele>1210</ele>
      </trkpt>
      <trkpt lat="42.86012" lon="-0.82246">
        <ele>1208.5</ele>
      </trkpt>
      <trkpt lat="42.86004" lon="-0.82248">
        <ele>1207</ele>
      </trkpt>
      <trkpt lat="42.85998" lon="-0.82251">
        <ele>1206.7</ele>
      </trkpt>
      <trkpt lat="42.85992" lon="-0.82254">
        <ele>1208.6</ele>
      </trkpt>
      <trkpt lat="42.85987" lon="-0.82259">
        <ele>1211</ele>
      </trkpt>
      <trkpt lat="42.85979" lon="-0.82267">
        <ele>1214</ele>
      </trkpt>
      <trkpt lat="42.85962" lon="-0.82287">
        <ele>1217.8</ele>
      </trkpt>
      <trkpt lat="42.85945" lon="-0.82303">
        <ele>1216</ele>
      </trkpt>
      <trkpt lat="42.85933" lon="-0.82312">
        <ele>1212.1</ele>
      </trkpt>
      <trkpt lat="42.85928" lon="-0.82314">
        <ele>1210.1</ele>
      </trkpt>
      <trkpt lat="42.85924" lon="-0.82319">
        <ele>1208.1</ele>
      </trkpt>
      <trkpt lat="42.8592" lon="-0.82323">
        <ele>1205.9</ele>
      </trkpt>
      <trkpt lat="42.85917" lon="-0.82328">
        <ele>1203.9</ele>
      </trkpt>
      <trkpt lat="42.85915" lon="-0.82333">
        <ele>1203.9</ele>
      </trkpt>
      <trkpt lat="42.85913" lon="-0.82341">
        <ele>1206.8</ele>
      </trkpt>
      <trkpt lat="42.8591" lon="-0.82356">
        <ele>1211.5</ele>
      </trkpt>
      <trkpt lat="42.859" lon="-0.82393">
        <ele>1219.7</ele>
      </trkpt>
      <trkpt lat="42.85887" lon="-0.82435">
        <ele>1220.4</ele>
      </trkpt>
      <trkpt lat="42.85881" lon="-0.82454">
        <ele>1218.7</ele>
      </trkpt>
      <trkpt lat="42.85876" lon="-0.82466">
        <ele>1216.8</ele>
      </trkpt>
      <trkpt lat="42.85868" lon="-0.8248">
        <ele>1213.2</ele>
      </trkpt>
      <trkpt lat="42.85855" lon="-0.82505">
        <ele>1207</ele>
      </trkpt>
      <trkpt lat="42.85844" lon="-0.82528">
        <ele>1206.4</ele>
      </trkpt>
      <trkpt lat="42.85834" lon="-0.82539">
        <ele>1203.8</ele>
      </trkpt>
      <trkpt lat="42.85824" lon="-0.82551">
        <ele>1205.3</ele>
      </trkpt>
      <trkpt lat="42.85816" lon="-0.82557">
        <ele>1205.2</ele>
      </trkpt>
      <trkpt lat="42.85794" lon="-0.82572">
        <ele>1201.5</ele>
      </trkpt>
      <trkpt lat="42.85739" lon="-0.82606">
        <ele>1196.9</ele>
      </trkpt>
      <trkpt lat="42.85696" lon="-0.82631">
        <ele>1197.3</ele>
      </trkpt>
      <trkpt lat="42.85681" lon="-0.82642">
        <ele>1194.6</ele>
      </trkpt>
      <trkpt lat="42.85667" lon="-0.82651">
        <ele>1190.3</ele>
      </trkpt>
      <trkpt lat="42.85648" lon="-0.82666">
        <ele>1189.6</ele>
      </trkpt>
      <trkpt lat="42.85637" lon="-0.82674">
        <ele>1193</ele>
      </trkpt>
      <trkpt lat="42.85628" lon="-0.82677">
        <ele>1194.2</ele>
      </trkpt>
      <trkpt lat="42.8562" lon="-0.82678">
        <ele>1194.4</ele>
      </trkpt>
      <trkpt lat="42.85613" lon="-0.82677">
        <ele>1193.6</ele>
      </trkpt>
      <trkpt lat="42.85604" lon="-0.82672">
        <ele>1190.9</ele>
      </trkpt>
      <trkpt lat="42.85587" lon="-0.82666">
        <ele>1188.2</ele>
      </trkpt>
      <trkpt lat="42.85574" lon="-0.82662">
        <ele>1188.9</ele>
      </trkpt>
      <trkpt lat="42.85563" lon="-0.82659">
        <ele>1189.6</ele>
      </trkpt>
      <trkpt lat="42.85551" lon="-0.82654">
        <ele>1190.2</ele>
      </trkpt>
      <trkpt lat="42.85539" lon="-0.82649">
        <ele>1190.6</ele>
      </trkpt>
      <trkpt lat="42.85524" lon="-0.82647">
        <ele>1190.7</ele>
      </trkpt>
      <trkpt lat="42.85505" lon="-0.82645">
        <ele>1190.7</ele>
      </trkpt>
      <trkpt lat="42.85493" lon="-0.82647">
        <ele>1190.4</ele>
      </trkpt>
      <trkpt lat="42.85479" lon="-0.82649">
        <ele>1189.6</ele>
      </trkpt>
      <trkpt lat="42.85464" lon="-0.82652">
        <ele>1189.1</ele>
      </trkpt>
      <trkpt lat="42.85451" lon="-0.82655">
        <ele>1188.7</ele>
      </trkpt>
      <trkpt lat="42.85429" lon="-0.82664">
        <ele>1189</ele>
      </trkpt>
      <trkpt lat="42.85416" lon="-0.82664">
        <ele>1188.6</ele>
      </trkpt>
      <trkpt lat="42.85405" lon="-0.82662">
        <ele>1189.6</ele>
      </trkpt>
      <trkpt lat="42.85394" lon="-0.82658">
        <ele>1190</ele>
      </trkpt>
      <trkpt lat="42.85386" lon="-0.8265">
        <ele>1188.9</ele>
      </trkpt>
      <trkpt lat="42.85378" lon="-0.82642">
        <ele>1187.6</ele>
      </trkpt>
      <trkpt lat="42.85371" lon="-0.82633">
        <ele>1185.6</ele>
      </trkpt>
      <trkpt lat="42.85363" lon="-0.82625">
        <ele>1183.7</ele>
      </trkpt>
      <trkpt lat="42.85353" lon="-0.82618">
        <ele>1181.9</ele>
      </trkpt>
      <trkpt lat="42.85338" lon="-0.82611">
        <ele>1179.9</ele>
      </trkpt>
      <trkpt lat="42.85326" lon="-0.82609">
        <ele>1179.1</ele>
      </trkpt>
      <trkpt lat="42.85313" lon="-0.82606">
        <ele>1177.6</ele>
      </trkpt>
      <trkpt lat="42.85301" lon="-0.82602">
        <ele>1175.8</ele>
      </trkpt>
      <trkpt lat="42.85292" lon="-0.82595">
        <ele>1172.9</ele>
      </trkpt>
      <trkpt lat="42.85278" lon="-0.82587">
        <ele>1169.4</ele>
      </trkpt>
      <trkpt lat="42.85267" lon="-0.8258">
        <ele>1167.8</ele>
      </trkpt>
      <trkpt lat="42.85251" lon="-0.82574">
        <ele>1167.3</ele>
      </trkpt>
      <trkpt lat="42.85237" lon="-0.82573">
        <ele>1167.5</ele>
      </trkpt>
      <trkpt lat="42.85219" lon="-0.82576">
        <ele>1168</ele>
      </trkpt>
      <trkpt lat="42.85207" lon="-0.82581">
        <ele>1168.5</ele>
      </trkpt>
      <trkpt lat="42.85189" lon="-0.82584">
        <ele>1169.5</ele>
      </trkpt>
      <trkpt lat="42.85178" lon="-0.82585">
        <ele>1170.2</ele>
      </trkpt>
      <trkpt lat="42.85169" lon="-0.82583">
        <ele>1169.9</ele>
      </trkpt>
      <trkpt lat="42.85158" lon="-0.82577">
        <ele>1169.4</ele>
      </trkpt>
      <trkpt lat="42.85142" lon="-0.82564">
        <ele>1168</ele>
      </trkpt>
      <trkpt lat="42.85127" lon="-0.82548">
        <ele>1166</ele>
      </trkpt>
      <trkpt lat="42.85116" lon="-0.82541">
        <ele>1164.9</ele>
      </trkpt>
      <trkpt lat="42.85105" lon="-0.82535">
        <ele>1163.8</ele>
      </trkpt>
      <trkpt lat="42.85095" lon="-0.82534">
        <ele>1163.3</ele>
      </trkpt>
      <trkpt lat="42.85086" lon="-0.82536">
        <ele>1163.3</ele>
      </trkpt>
      <trkpt lat="42.85074" lon="-0.82544">
        <ele>1163.7</ele>
      </trkpt>
      <trkpt lat="42.85062" lon="-0.82552">
        <ele>1163.3</ele>
      </trkpt>
      <trkpt lat="42.85054" lon="-0.8256">
        <ele>1162.6</ele>
      </trkpt>
      <trkpt lat="42.85046" lon="-0.82568">
        <ele>1161.3</ele>
      </trkpt>
      <trkpt lat="42.85026" lon="-0.82592">
        <ele>1158.9</ele>
      </trkpt>
      <trkpt lat="42.8502" lon="-0.82603">
        <ele>1160.7</ele>
      </trkpt>
      <trkpt lat="42.85012" lon="-0.82612">
        <ele>1161.2</ele>
      </trkpt>
      <trkpt lat="42.85003" lon="-0.82618">
        <ele>1160.4</ele>
      </trkpt>
      <trkpt lat="42.8499" lon="-0.82622">
        <ele>1159.8</ele>
      </trkpt>
      <trkpt lat="42.84978" lon="-0.82623">
        <ele>1159</ele>
      </trkpt>
      <trkpt lat="42.84968" lon="-0.82624">
        <ele>1158.2</ele>
      </trkpt>
      <trkpt lat="42.84958" lon="-0.82629">
        <ele>1158.1</ele>
      </trkpt>
      <trkpt lat="42.84948" lon="-0.82636">
        <ele>1157.9</ele>
      </trkpt>
      <trkpt lat="42.84937" lon="-0.82648">
        <ele>1157.6</ele>
      </trkpt>
      <trkpt lat="42.84921" lon="-0.82666">
        <ele>1155.9</ele>
      </trkpt>
      <trkpt lat="42.8491" lon="-0.82675">
        <ele>1158.6</ele>
      </trkpt>
      <trkpt lat="42.84904" lon="-0.82679">
        <ele>1160.6</ele>
      </trkpt>
      <trkpt lat="42.84895" lon="-0.8268">
        <ele>1161.1</ele>
      </trkpt>
      <trkpt lat="42.84886" lon="-0.82678">
        <ele>1159.7</ele>
      </trkpt>
      <trkpt lat="42.84874" lon="-0.82673">
        <ele>1155.4</ele>
      </trkpt>
      <trkpt lat="42.84858" lon="-0.82666">
        <ele>1148.7</ele>
      </trkpt>
      <trkpt lat="42.84839" lon="-0.82658">
        <ele>1147.7</ele>
      </trkpt>
      <trkpt lat="42.84811" lon="-0.82648">
        <ele>1152.5</ele>
      </trkpt>
      <trkpt lat="42.84791" lon="-0.82643">
        <ele>1155.6</ele>
      </trkpt>
      <trkpt lat="42.84766" lon="-0.82644">
        <ele>1159.7</ele>
      </trkpt>
      <trkpt lat="42.84738" lon="-0.82644">
        <ele>1157.4</ele>
      </trkpt>
      <trkpt lat="42.84689" lon="-0.82647">
        <ele>1137.8</ele>
      </trkpt>
      <trkpt lat="42.84656" lon="-0.82646">
        <ele>1127.9</ele>
      </trkpt>
      <trkpt lat="42.84641" lon="-0.82647">
        <ele>1127.1</ele>
      </trkpt>
      <trkpt lat="42.84618" lon="-0.82647">
        <ele>1125.8</ele>
      </trkpt>
      <trkpt lat="42.84605" lon="-0.82651">
        <ele>1125.4</ele>
      </trkpt>
      <trkpt lat="42.84594" lon="-0.82656">
        <ele>1125.3</ele>
      </trkpt>
      <trkpt lat="42.84586" lon="-0.82662">
        <ele>1125.6</ele>
      </trkpt>
      <trkpt lat="42.84579" lon="-0.8267">
        <ele>1126.5</ele>
      </trkpt>
      <trkpt lat="42.84571" lon="-0.82682">
        <ele>1129.3</ele>
      </trkpt>
      <trkpt lat="42.84562" lon="-0.82699">
        <ele>1132.9</ele>
      </trkpt>
      <trkpt lat="42.84551" lon="-0.82717">
        <ele>1135.2</ele>
      </trkpt>
      <trkpt lat="42.84544" lon="-0.82727">
        <ele>1135.6</ele>
      </trkpt>
      <trkpt lat="42.84533" lon="-0.82735">
        <ele>1133.6</ele>
      </trkpt>
      <trkpt lat="42.84523" lon="-0.82741">
        <ele>1131</ele>
      </trkpt>
      <trkpt lat="42.84501" lon="-0.82749">
        <ele>1123.3</ele>
      </trkpt>
      <trkpt lat="42.84487" lon="-0.82752">
        <ele>1120.1</ele>
      </trkpt>
      <trkpt lat="42.84475" lon="-0.82753">
        <ele>1117</ele>
      </trkpt>
      <trkpt lat="42.84456" lon="-0.82753">
        <ele>1111.2</ele>
      </trkpt>
      <trkpt lat="42.84446" lon="-0.82754">
        <ele>1108.7</ele>
      </trkpt>
      <trkpt lat="42.84437" lon="-0.82756">
        <ele>1106.8</ele>
      </trkpt>
      <trkpt lat="42.84423" lon="-0.82764">
        <ele>1106.2</ele>
      </trkpt>
      <trkpt lat="42.84414" lon="-0.82772">
        <ele>1107.3</ele>
      </trkpt>
      <trkpt lat="42.84405" lon="-0.82778">
        <ele>1108</ele>
      </trkpt>
      <trkpt lat="42.84391" lon="-0.8279">
        <ele>1108.5</ele>
      </trkpt>
      <trkpt lat="42.84383" lon="-0.82798">
        <ele>1108</ele>
      </trkpt>
      <trkpt lat="42.84377" lon="-0.82807">
        <ele>1107.7</ele>
      </trkpt>
      <trkpt lat="42.84371" lon="-0.82814">
        <ele>1106.4</ele>
      </trkpt>
      <trkpt lat="42.84356" lon="-0.82826">
        <ele>1100.4</ele>
      </trkpt>
      <trkpt lat="42.84341" lon="-0.82834">
        <ele>1092.3</ele>
      </trkpt>
      <trkpt lat="42.84328" lon="-0.82838">
        <ele>1087.2</ele>
      </trkpt>
      <trkpt lat="42.84316" lon="-0.82842">
        <ele>1086.6</ele>
      </trkpt>
      <trkpt lat="42.84308" lon="-0.82845">
        <ele>1086.4</ele>
      </trkpt>
      <trkpt lat="42.84299" lon="-0.82846">
        <ele>1086.4</ele>
      </trkpt>
      <trkpt lat="42.84289" lon="-0.82845">
        <ele>1086.2</ele>
      </trkpt>
      <trkpt lat="42.84283" lon="-0.82847">
        <ele>1086.5</ele>
      </trkpt>
      <trkpt lat="42.84275" lon="-0.82851">
        <ele>1087.2</ele>
      </trkpt>
      <trkpt lat="42.84265" lon="-0.82862">
        <ele>1090.1</ele>
      </trkpt>
      <trkpt lat="42.84253" lon="-0.82878">
        <ele>1096</ele>
      </trkpt>
      <trkpt lat="42.84244" lon="-0.82886">
        <ele>1099.1</ele>
      </trkpt>
      <trkpt lat="42.84235" lon="-0.82893">
        <ele>1100.5</ele>
      </trkpt>
      <trkpt lat="42.84227" lon="-0.82896">
        <ele>1100.4</ele>
      </trkpt>
      <trkpt lat="42.84214" lon="-0.82901">
        <ele>1099.3</ele>
      </trkpt>
      <trkpt lat="42.84194" lon="-0.82911">
        <ele>1094.7</ele>
      </trkpt>
      <trkpt lat="42.84176" lon="-0.82926">
        <ele>1093.4</ele>
      </trkpt>
      <trkpt lat="42.84146" lon="-0.82951">
        <ele>1100.2</ele>
      </trkpt>
      <trkpt lat="42.8412" lon="-0.82975">
        <ele>1099.9</ele>
      </trkpt>
      <trkpt lat="42.84099" lon="-0.83001">
        <ele>1092.2</ele>
      </trkpt>
      <trkpt lat="42.84085" lon="-0.83016">
        <ele>1089.9</ele>
      </trkpt>
      <trkpt lat="42.84077" lon="-0.83024">
        <ele>1091.3</ele>
      </trkpt>
      <trkpt lat="42.84066" lon="-0.83029">
        <ele>1091.6</ele>
      </trkpt>
      <trkpt lat="42.84055" lon="-0.83034">
        <ele>1091.5</ele>
      </trkpt>
      <trkpt lat="42.8404" lon="-0.83037">
        <ele>1090.1</ele>
      </trkpt>
      <trkpt lat="42.84025" lon="-0.8304">
        <ele>1088.3</ele>
      </trkpt>
      <trkpt lat="42.84001" lon="-0.83045">
        <ele>1084.6</ele>
      </trkpt>
      <trkpt lat="42.83991" lon="-0.83047">
        <ele>1084.5</ele>
      </trkpt>
      <trkpt lat="42.83979" lon="-0.83052">
        <ele>1084.1</ele>
      </trkpt>
      <trkpt lat="42.83969" lon="-0.83058">
        <ele>1083.1</ele>
      </trkpt>
      <trkpt lat="42.83959" lon="-0.83069">
        <ele>1080.8</ele>
      </trkpt>
      <trkpt lat="42.83947" lon="-0.83085">
        <ele>1076.9</ele>
      </trkpt>
      <trkpt lat="42.83925" lon="-0.83115">
        <ele>1076.3</ele>
      </trkpt>
      <trkpt lat="42.83912" lon="-0.83136">
        <ele>1076.4</ele>
      </trkpt>
      <trkpt lat="42.83891" lon="-0.83169">
        <ele>1077.9</ele>
      </trkpt>
      <trkpt lat="42.8388" lon="-0.83188">
        <ele>1079.3</ele>
      </trkpt>
      <trkpt lat="42.83858" lon="-0.83221">
        <ele>1075.8</ele>
      </trkpt>
      <trkpt lat="42.83848" lon="-0.83239">
        <ele>1071.3</ele>
      </trkpt>
      <trkpt lat="42.83846" lon="-0.8325">
        <ele>1069.3</ele>
      </trkpt>
      <trkpt lat="42.83844" lon="-0.83261">
        <ele>1067.7</ele>
      </trkpt>
      <trkpt lat="42.83843" lon="-0.8327">
        <ele>1066.7</ele>
      </trkpt>
      <trkpt lat="42.83843" lon="-0.8328">
        <ele>1066</ele>
      </trkpt>
      <trkpt lat="42.83845" lon="-0.83292">
        <ele>1066</ele>
      </trkpt>
      <trkpt lat="42.83853" lon="-0.83321">
        <ele>1067.6</ele>
      </trkpt>
      <trkpt lat="42.83856" lon="-0.83333">
        <ele>1068.1</ele>
      </trkpt>
      <trkpt lat="42.83858" lon="-0.8335">
        <ele>1069.8</ele>
      </trkpt>
      <trkpt lat="42.83856" lon="-0.83368">
        <ele>1070</ele>
      </trkpt>
      <trkpt lat="42.83853" lon="-0.83394">
        <ele>1070.5</ele>
      </trkpt>
      <trkpt lat="42.83848" lon="-0.83406">
        <ele>1069.9</ele>
      </trkpt>
      <trkpt lat="42.83842" lon="-0.83417">
        <ele>1069.3</ele>
      </trkpt>
      <trkpt lat="42.8383" lon="-0.83432">
        <ele>1073.3</ele>
      </trkpt>
      <trkpt lat="42.83821" lon="-0.83439">
        <ele>1075.4</ele>
      </trkpt>
      <trkpt lat="42.83806" lon="-0.83447">
        <ele>1077.4</ele>
      </trkpt>
      <trkpt lat="42.83796" lon="-0.83448">
        <ele>1076.9</ele>
      </trkpt>
      <trkpt lat="42.83784" lon="-0.83448">
        <ele>1075.7</ele>
      </trkpt>
      <trkpt lat="42.83772" lon="-0.83446">
        <ele>1073.6</ele>
      </trkpt>
      <trkpt lat="42.83754" lon="-0.8344">
        <ele>1068.9</ele>
      </trkpt>
      <trkpt lat="42.83741" lon="-0.83435">
        <ele>1064.9</ele>
      </trkpt>
      <trkpt lat="42.83727" lon="-0.8343">
        <ele>1060.7</ele>
      </trkpt>
      <trkpt lat="42.83708" lon="-0.83428">
        <ele>1057.5</ele>
      </trkpt>
      <trkpt lat="42.83693" lon="-0.83429">
        <ele>1056.1</ele>
      </trkpt>
      <trkpt lat="42.83678" lon="-0.83433">
        <ele>1055.9</ele>
      </trkpt>
      <trkpt lat="42.83663" lon="-0.83436">
        <ele>1055.3</ele>
      </trkpt>
      <trkpt lat="42.83643" lon="-0.83438">
        <ele>1053.9</ele>
      </trkpt>
      <trkpt lat="42.83628" lon="-0.8344">
        <ele>1052.8</ele>
      </trkpt>
      <trkpt lat="42.83608" lon="-0.83444">
        <ele>1051.6</ele>
      </trkpt>
      <trkpt lat="42.83591" lon="-0.83445">
        <ele>1049.7</ele>
      </trkpt>
      <trkpt lat="42.83577" lon="-0.83448">
        <ele>1048.8</ele>
      </trkpt>
      <trkpt lat="42.83569" lon="-0.83453">
        <ele>1048.9</ele>
      </trkpt>
      <trkpt lat="42.8356" lon="-0.8346">
        <ele>1048.8</ele>
      </trkpt>
      <trkpt lat="42.83548" lon="-0.83474">
        <ele>1048.3</ele>
      </trkpt>
      <trkpt lat="42.83534" lon="-0.83492">
        <ele>1046.2</ele>
      </trkpt>
      <trkpt lat="42.83519" lon="-0.8351">
        <ele>1045.5</ele>
      </trkpt>
      <trkpt lat="42.8351" lon="-0.83519">
        <ele>1045.9</ele>
      </trkpt>
      <trkpt lat="42.83504" lon="-0.83524">
        <ele>1045.7</ele>
      </trkpt>
      <trkpt lat="42.83498" lon="-0.83528">
        <ele>1045.5</ele>
      </trkpt>
      <trkpt lat="42.83493" lon="-0.8353">
        <ele>1045.6</ele>
      </trkpt>
      <trkpt lat="42.8348" lon="-0.83541">
        <ele>1047.2</ele>
      </trkpt>
      <trkpt lat="42.83458" lon="-0.83566">
        <ele>1050.3</ele>
      </trkpt>
      <trkpt lat="42.83438" lon="-0.8359">
        <ele>1051.7</ele>
      </trkpt>
      <trkpt lat="42.83426" lon="-0.83603">
        <ele>1051.6</ele>
      </trkpt>
      <trkpt lat="42.83422" lon="-0.83605">
        <ele>1051.1</ele>
      </trkpt>
      <trkpt lat="42.83417" lon="-0.83607">
        <ele>1050.3</ele>
      </trkpt>
      <trkpt lat="42.83413" lon="-0.83607">
        <ele>1050.5</ele>
      </trkpt>
      <trkpt lat="42.83406" lon="-0.83604">
        <ele>1050.3</ele>
      </trkpt>
      <trkpt lat="42.83402" lon="-0.83602">
        <ele>1050.2</ele>
      </trkpt>
      <trkpt lat="42.83396" lon="-0.83596">
        <ele>1049.4</ele>
      </trkpt>
      <trkpt lat="42.83393" lon="-0.83592">
        <ele>1048.9</ele>
      </trkpt>
      <trkpt lat="42.8339" lon="-0.83584">
        <ele>1047.7</ele>
      </trkpt>
      <trkpt lat="42.83386" lon="-0.83575">
        <ele>1046.4</ele>
      </trkpt>
      <trkpt lat="42.83382" lon="-0.83566">
        <ele>1045.2</ele>
      </trkpt>
      <trkpt lat="42.83376" lon="-0.83559">
        <ele>1044.3</ele>
      </trkpt>
      <trkpt lat="42.83372" lon="-0.83555">
        <ele>1043.9</ele>
      </trkpt>
      <trkpt lat="42.83363" lon="-0.83548">
        <ele>1043.3</ele>
      </trkpt>
      <trkpt lat="42.83356" lon="-0.83544">
        <ele>1043</ele>
      </trkpt>
      <trkpt lat="42.83347" lon="-0.8354">
        <ele>1042.9</ele>
      </trkpt>
      <trkpt lat="42.83339" lon="-0.83538">
        <ele>1043</ele>
      </trkpt>
      <trkpt lat="42.83333" lon="-0.83539">
        <ele>1043.5</ele>
      </trkpt>
      <trkpt lat="42.83329" lon="-0.8354">
        <ele>1043.5</ele>
      </trkpt>
      <trkpt lat="42.83326" lon="-0.83543">
        <ele>1043.8</ele>
      </trkpt>
      <trkpt lat="42.83313" lon="-0.83556">
        <ele>1044.9</ele>
      </trkpt>
      <trkpt lat="42.83296" lon="-0.83571">
        <ele>1045.4</ele>
      </trkpt>
      <trkpt lat="42.83267" lon="-0.83597">
        <ele>1045.8</ele>
      </trkpt>
      <trkpt lat="42.83234" lon="-0.83628">
        <ele>1044.3</ele>
      </trkpt>
      <trkpt lat="42.83217" lon="-0.83646">
        <ele>1042.4</ele>
      </trkpt>
      <trkpt lat="42.83208" lon="-0.83658">
        <ele>1041.7</ele>
      </trkpt>
      <trkpt lat="42.83178" lon="-0.83693">
        <ele>1044.8</ele>
      </trkpt>
      <trkpt lat="42.83155" lon="-0.83719">
        <ele>1050.3</ele>
      </trkpt>
      <trkpt lat="42.83143" lon="-0.83728">
        <ele>1052.2</ele>
      </trkpt>
      <trkpt lat="42.83132" lon="-0.83734">
        <ele>1053.1</ele>
      </trkpt>
      <trkpt lat="42.83118" lon="-0.8374">
        <ele>1053.8</ele>
      </trkpt>
      <trkpt lat="42.8311" lon="-0.83742">
        <ele>1053.7</ele>
      </trkpt>
      <trkpt lat="42.83098" lon="-0.83742">
        <ele>1052.1</ele>
      </trkpt>
      <trkpt lat="42.83089" lon="-0.8374">
        <ele>1050.1</ele>
      </trkpt>
      <trkpt lat="42.83073" lon="-0.83731">
        <ele>1048.3</ele>
      </trkpt>
      <trkpt lat="42.83059" lon="-0.83723">
        <ele>1049</ele>
      </trkpt>
      <trkpt lat="42.83045" lon="-0.83714">
        <ele>1049.3</ele>
      </trkpt>
      <trkpt lat="42.83036" lon="-0.83708">
        <ele>1049.4</ele>
      </trkpt>
      <trkpt lat="42.83023" lon="-0.83696">
        <ele>1048</ele>
      </trkpt>
      <trkpt lat="42.83014" lon="-0.83686">
        <ele>1046.3</ele>
      </trkpt>
      <trkpt lat="42.83" lon="-0.8367">
        <ele>1043.5</ele>
      </trkpt>
      <trkpt lat="42.82978" lon="-0.83645">
        <ele>1042.3</ele>
      </trkpt>
      <trkpt lat="42.8297" lon="-0.83633">
        <ele>1040.7</ele>
      </trkpt>
      <trkpt lat="42.8295" lon="-0.83605">
        <ele>1036.5</ele>
      </trkpt>
      <trkpt lat="42.82939" lon="-0.83593">
        <ele>1034.9</ele>
      </trkpt>
      <trkpt lat="42.82921" lon="-0.8358">
        <ele>1034.7</ele>
      </trkpt>
      <trkpt lat="42.82902" lon="-0.8357">
        <ele>1036.4</ele>
      </trkpt>
      <trkpt lat="42.82884" lon="-0.8356">
        <ele>1037.7</ele>
      </trkpt>
      <trkpt lat="42.82866" lon="-0.83549">
        <ele>1038.4</ele>
      </trkpt>
      <trkpt lat="42.8285" lon="-0.83539">
        <ele>1038.6</ele>
      </trkpt>
      <trkpt lat="42.82836" lon="-0.83525">
        <ele>1036.5</ele>
      </trkpt>
      <trkpt lat="42.82813" lon="-0.83496">
        <ele>1031.8</ele>
      </trkpt>
      <trkpt lat="42.82796" lon="-0.83473">
        <ele>1030.4</ele>
      </trkpt>
      <trkpt lat="42.82757" lon="-0.83423">
        <ele>1025.4</ele>
      </trkpt>
      <trkpt lat="42.82741" lon="-0.83396">
        <ele>1021.4</ele>
      </trkpt>
      <trkpt lat="42.82715" lon="-0.83355">
        <ele>1014.2</ele>
      </trkpt>
      <trkpt lat="42.82704" lon="-0.83341">
        <ele>1011.5</ele>
      </trkpt>
      <trkpt lat="42.82693" lon="-0.83333">
        <ele>1010.5</ele>
      </trkpt>
      <trkpt lat="42.82682" lon="-0.83327">
        <ele>1011.7</ele>
      </trkpt>
      <trkpt lat="42.82666" lon="-0.83322">
        <ele>1012.8</ele>
      </trkpt>
      <trkpt lat="42.82652" lon="-0.83319">
        <ele>1013.7</ele>
      </trkpt>
      <trkpt lat="42.82621" lon="-0.83307">
        <ele>1014.2</ele>
      </trkpt>
      <trkpt lat="42.82599" lon="-0.83297">
        <ele>1013.5</ele>
      </trkpt>
      <trkpt lat="42.82574" lon="-0.83287">
        <ele>1012.2</ele>
      </trkpt>
      <trkpt lat="42.82562" lon="-0.83281">
        <ele>1011.1</ele>
      </trkpt>
      <trkpt lat="42.82547" lon="-0.83275">
        <ele>1009.9</ele>
      </trkpt>
      <trkpt lat="42.82535" lon="-0.83269">
        <ele>1008.5</ele>
      </trkpt>
      <trkpt lat="42.82523" lon="-0.83262">
        <ele>1006.6</ele>
      </trkpt>
      <trkpt lat="42.82512" lon="-0.83255">
        <ele>1004.6</ele>
      </trkpt>
      <trkpt lat="42.82498" lon="-0.83243">
        <ele>1003.1</ele>
      </trkpt>
      <trkpt lat="42.82492" lon="-0.83238">
        <ele>1003.4</ele>
      </trkpt>
      <trkpt lat="42.82478" lon="-0.83226">
        <ele>1003.5</ele>
      </trkpt>
      <trkpt lat="42.82458" lon="-0.83208">
        <ele>1002</ele>
      </trkpt>
      <trkpt lat="42.82442" lon="-0.83195">
        <ele>999.6</ele>
      </trkpt>
      <trkpt lat="42.82433" lon="-0.83186">
        <ele>997.5</ele>
      </trkpt>
      <trkpt lat="42.82419" lon="-0.83174">
        <ele>993.9</ele>
      </trkpt>
      <trkpt lat="42.82401" lon="-0.83158">
        <ele>994.2</ele>
      </trkpt>
      <trkpt lat="42.82391" lon="-0.8315">
        <ele>995.7</ele>
      </trkpt>
      <trkpt lat="42.82385" lon="-0.83146">
        <ele>996.3</ele>
      </trkpt>
      <trkpt lat="42.82377" lon="-0.83143">
        <ele>996.7</ele>
      </trkpt>
      <trkpt lat="42.82367" lon="-0.83142">
        <ele>996.6</ele>
      </trkpt>
      <trkpt lat="42.82356" lon="-0.83142">
        <ele>996.4</ele>
      </trkpt>
      <trkpt lat="42.82335" lon="-0.83147">
        <ele>995.7</ele>
      </trkpt>
      <trkpt lat="42.82319" lon="-0.8315">
        <ele>994</ele>
      </trkpt>
      <trkpt lat="42.82299" lon="-0.83154">
        <ele>991.5</ele>
      </trkpt>
      <trkpt lat="42.82281" lon="-0.83155">
        <ele>989.4</ele>
      </trkpt>
      <trkpt lat="42.82272" lon="-0.83154">
        <ele>988.4</ele>
      </trkpt>
      <trkpt lat="42.82266" lon="-0.83152">
        <ele>987.9</ele>
      </trkpt>
      <trkpt lat="42.8226" lon="-0.83148">
        <ele>987.5</ele>
      </trkpt>
      <trkpt lat="42.82255" lon="-0.83144">
        <ele>987.2</ele>
      </trkpt>
      <trkpt lat="42.82249" lon="-0.83138">
        <ele>987</ele>
      </trkpt>
      <trkpt lat="42.82245" lon="-0.83134">
        <ele>987.2</ele>
      </trkpt>
      <trkpt lat="42.82236" lon="-0.83124">
        <ele>987.4</ele>
      </trkpt>
      <trkpt lat="42.82233" lon="-0.8312">
        <ele>987.4</ele>
      </trkpt>
      <trkpt lat="42.82231" lon="-0.83119">
        <ele>987.3</ele>
      </trkpt>
      <trkpt lat="42.82228" lon="-0.83117">
        <ele>987.2</ele>
      </trkpt>
      <trkpt lat="42.82223" lon="-0.83113">
        <ele>987</ele>
      </trkpt>
      <trkpt lat="42.82217" lon="-0.83109">
        <ele>986.7</ele>
      </trkpt>
      <trkpt lat="42.82214" lon="-0.83106">
        <ele>986.5</ele>
      </trkpt>
      <trkpt lat="42.8221" lon="-0.83101">
        <ele>986.2</ele>
      </trkpt>
      <trkpt lat="42.82206" lon="-0.83096">
        <ele>985.8</ele>
      </trkpt>
      <trkpt lat="42.82202" lon="-0.83089">
        <ele>985.3</ele>
      </trkpt>
      <trkpt lat="42.82199" lon="-0.83084">
        <ele>984.9</ele>
      </trkpt>
      <trkpt lat="42.82197" lon="-0.83079">
        <ele>985.9</ele>
      </trkpt>
      <trkpt lat="42.82194" lon="-0.8307">
        <ele>987.9</ele>
      </trkpt>
      <trkpt lat="42.82193" lon="-0.83064">
        <ele>989.4</ele>
      </trkpt>
      <trkpt lat="42.82191" lon="-0.83057">
        <ele>990.9</ele>
      </trkpt>
      <trkpt lat="42.8219" lon="-0.83048">
        <ele>993</ele>
      </trkpt>
      <trkpt lat="42.82189" lon="-0.83036">
        <ele>995.9</ele>
      </trkpt>
      <trkpt lat="42.82188" lon="-0.83024">
        <ele>998.8</ele>
      </trkpt>
      <trkpt lat="42.82186" lon="-0.83015">
        <ele>1000.5</ele>
      </trkpt>
      <trkpt lat="42.82185" lon="-0.83009">
        <ele>1001.7</ele>
      </trkpt>
      <trkpt lat="42.82182" lon="-0.83003">
        <ele>1002.3</ele>
      </trkpt>
      <trkpt lat="42.82177" lon="-0.82996">
        <ele>1003.3</ele>
      </trkpt>
      <trkpt lat="42.82173" lon="-0.82991">
        <ele>1004.4</ele>
      </trkpt>
      <trkpt lat="42.82169" lon="-0.82986">
        <ele>1005.6</ele>
      </trkpt>
      <trkpt lat="42.82163" lon="-0.82981">
        <ele>1007.7</ele>
      </trkpt>
      <trkpt lat="42.82157" lon="-0.82979">
        <ele>1009.2</ele>
      </trkpt>
      <trkpt lat="42.82151" lon="-0.82977">
        <ele>1010.8</ele>
      </trkpt>
      <trkpt lat="42.82147" lon="-0.82977">
        <ele>1011.2</ele>
      </trkpt>
      <trkpt lat="42.82143" lon="-0.82978">
        <ele>1011.1</ele>
      </trkpt>
      <trkpt lat="42.82137" lon="-0.82983">
        <ele>1009</ele>
      </trkpt>
      <trkpt lat="42.82115" lon="-0.82999">
        <ele>1002.3</ele>
      </trkpt>
      <trkpt lat="42.82086" lon="-0.8302">
        <ele>1000.4</ele>
      </trkpt>
      <trkpt lat="42.82068" lon="-0.83033">
        <ele>998.5</ele>
      </trkpt>
      <trkpt lat="42.82058" lon="-0.83041">
        <ele>996.8</ele>
      </trkpt>
      <trkpt lat="42.8205" lon="-0.83047">
        <ele>995.4</ele>
      </trkpt>
      <trkpt lat="42.82043" lon="-0.83051">
        <ele>994.3</ele>
      </trkpt>
      <trkpt lat="42.8203" lon="-0.83059">
        <ele>991.9</ele>
      </trkpt>
      <trkpt lat="42.8202" lon="-0.83064">
        <ele>990</ele>
      </trkpt>
      <trkpt lat="42.82005" lon="-0.8307">
        <ele>987.5</ele>
      </trkpt>
      <trkpt lat="42.82002" lon="-0.83071">
        <ele>987</ele>
      </trkpt>
      <trkpt lat="42.81998" lon="-0.83071">
        <ele>986.8</ele>
      </trkpt>
      <trkpt lat="42.81993" lon="-0.83071">
        <ele>986.6</ele>
      </trkpt>
      <trkpt lat="42.81986" lon="-0.83071">
        <ele>986.4</ele>
      </trkpt>
      <trkpt lat="42.81982" lon="-0.8307">
        <ele>986.5</ele>
      </trkpt>
      <trkpt lat="42.81979" lon="-0.83069">
        <ele>986.7</ele>
      </trkpt>
      <trkpt lat="42.81976" lon="-0.83067">
        <ele>987.1</ele>
      </trkpt>
      <trkpt lat="42.81944" lon="-0.83049">
        <ele>989.7</ele>
      </trkpt>
      <trkpt lat="42.8193" lon="-0.8304">
        <ele>990.4</ele>
      </trkpt>
      <trkpt lat="42.81915" lon="-0.83032">
        <ele>990.4</ele>
      </trkpt>
      <trkpt lat="42.81909" lon="-0.83029">
        <ele>990.1</ele>
      </trkpt>
      <trkpt lat="42.81903" lon="-0.83028">
        <ele>989.4</ele>
      </trkpt>
      <trkpt lat="42.8189" lon="-0.83026">
        <ele>987.9</ele>
      </trkpt>
      <trkpt lat="42.8187" lon="-0.83026">
        <ele>985</ele>
      </trkpt>
      <trkpt lat="42.81858" lon="-0.83025">
        <ele>983.4</ele>
      </trkpt>
      <trkpt lat="42.81842" lon="-0.83023">
        <ele>981.3</ele>
      </trkpt>
      <trkpt lat="42.81833" lon="-0.83022">
        <ele>980.2</ele>
      </trkpt>
      <trkpt lat="42.81816" lon="-0.83019">
        <ele>981</ele>
      </trkpt>
      <trkpt lat="42.81803" lon="-0.83018">
        <ele>981.6</ele>
      </trkpt>
      <trkpt lat="42.818" lon="-0.83018">
        <ele>981.7</ele>
      </trkpt>
      <trkpt lat="42.81796" lon="-0.83019">
        <ele>981.8</ele>
      </trkpt>
      <trkpt lat="42.81792" lon="-0.8302">
        <ele>981.8</ele>
      </trkpt>
      <trkpt lat="42.81789" lon="-0.83022">
        <ele>981.7</ele>
      </trkpt>
      <trkpt lat="42.81788" lon="-0.83024">
        <ele>981.5</ele>
      </trkpt>
      <trkpt lat="42.81786" lon="-0.83027">
        <ele>981.3</ele>
      </trkpt>
      <trkpt lat="42.81784" lon="-0.83032">
        <ele>980.8</ele>
      </trkpt>
      <trkpt lat="42.81782" lon="-0.83037">
        <ele>980.3</ele>
      </trkpt>
      <trkpt lat="42.8178" lon="-0.83047">
        <ele>979.2</ele>
      </trkpt>
      <trkpt lat="42.81775" lon="-0.83057">
        <ele>978.1</ele>
      </trkpt>
      <trkpt lat="42.81772" lon="-0.83062">
        <ele>977.5</ele>
      </trkpt>
      <trkpt lat="42.81769" lon="-0.83066">
        <ele>977.1</ele>
      </trkpt>
      <trkpt lat="42.81765" lon="-0.8307">
        <ele>976.6</ele>
      </trkpt>
      <trkpt lat="42.8176" lon="-0.83072">
        <ele>976.4</ele>
      </trkpt>
      <trkpt lat="42.81753" lon="-0.83075">
        <ele>976.1</ele>
      </trkpt>
      <trkpt lat="42.81723" lon="-0.83081">
        <ele>978.5</ele>
      </trkpt>
      <trkpt lat="42.81714" lon="-0.83083">
        <ele>979</ele>
      </trkpt>
      <trkpt lat="42.81699" lon="-0.83086">
        <ele>980.9</ele>
      </trkpt>
      <trkpt lat="42.81692" lon="-0.83088">
        <ele>981.9</ele>
      </trkpt>
      <trkpt lat="42.81688" lon="-0.83089">
        <ele>982.4</ele>
      </trkpt>
      <trkpt lat="42.81682" lon="-0.83091">
        <ele>983.2</ele>
      </trkpt>
      <trkpt lat="42.81674" lon="-0.83096">
        <ele>984.4</ele>
      </trkpt>
      <trkpt lat="42.81667" lon="-0.83102">
        <ele>985.3</ele>
      </trkpt>
      <trkpt lat="42.8166" lon="-0.8311">
        <ele>986.1</ele>
      </trkpt>
      <trkpt lat="42.81652" lon="-0.83122">
        <ele>986.5</ele>
      </trkpt>
      <trkpt lat="42.81646" lon="-0.8313">
        <ele>986.4</ele>
      </trkpt>
      <trkpt lat="42.81641" lon="-0.83135">
        <ele>986</ele>
      </trkpt>
      <trkpt lat="42.81636" lon="-0.83139">
        <ele>985.5</ele>
      </trkpt>
      <trkpt lat="42.8163" lon="-0.83143">
        <ele>984.8</ele>
      </trkpt>
      <trkpt lat="42.81619" lon="-0.8315">
        <ele>983.1</ele>
      </trkpt>
      <trkpt lat="42.81609" lon="-0.83154">
        <ele>981.3</ele>
      </trkpt>
      <trkpt lat="42.81605" lon="-0.83155">
        <ele>980.7</ele>
      </trkpt>
      <trkpt lat="42.81597" lon="-0.83156">
        <ele>979.4</ele>
      </trkpt>
      <trkpt lat="42.81591" lon="-0.83155">
        <ele>978.7</ele>
      </trkpt>
      <trkpt lat="42.81584" lon="-0.83153">
        <ele>978.2</ele>
      </trkpt>
      <trkpt lat="42.81579" lon="-0.83151">
        <ele>978.8</ele>
      </trkpt>
      <trkpt lat="42.81574" lon="-0.83148">
        <ele>979.7</ele>
      </trkpt>
      <trkpt lat="42.81555" lon="-0.83136">
        <ele>982.1</ele>
      </trkpt>
      <trkpt lat="42.81545" lon="-0.83128">
        <ele>982.9</ele>
      </trkpt>
      <trkpt lat="42.81534" lon="-0.83121">
        <ele>982.9</ele>
      </trkpt>
      <trkpt lat="42.81521" lon="-0.83112">
        <ele>982.2</ele>
      </trkpt>
      <trkpt lat="42.81499" lon="-0.83094">
        <ele>978.8</ele>
      </trkpt>
      <trkpt lat="42.81487" lon="-0.83086">
        <ele>976.6</ele>
      </trkpt>
      <trkpt lat="42.81482" lon="-0.83081">
        <ele>977</ele>
      </trkpt>
      <trkpt lat="42.81476" lon="-0.83077">
        <ele>978.5</ele>
      </trkpt>
      <trkpt lat="42.81464" lon="-0.83069">
        <ele>981.3</ele>
      </trkpt>
      <trkpt lat="42.81455" lon="-0.83064">
        <ele>982.7</ele>
      </trkpt>
      <trkpt lat="42.81443" lon="-0.83059">
        <ele>983.5</ele>
      </trkpt>
      <trkpt lat="42.81435" lon="-0.83056">
        <ele>983.8</ele>
      </trkpt>
      <trkpt lat="42.81428" lon="-0.83056">
        <ele>982.6</ele>
      </trkpt>
      <trkpt lat="42.8142" lon="-0.83058">
        <ele>980.3</ele>
      </trkpt>
      <trkpt lat="42.8141" lon="-0.83062">
        <ele>978.1</ele>
      </trkpt>
      <trkpt lat="42.81405" lon="-0.83064">
        <ele>977.3</ele>
      </trkpt>
      <trkpt lat="42.814" lon="-0.83068">
        <ele>975.6</ele>
      </trkpt>
      <trkpt lat="42.8139" lon="-0.83077">
        <ele>971.7</ele>
      </trkpt>
      <trkpt lat="42.81377" lon="-0.8309">
        <ele>970.6</ele>
      </trkpt>
      <trkpt lat="42.81373" lon="-0.83093">
        <ele>971.2</ele>
      </trkpt>
      <trkpt lat="42.81366" lon="-0.83098">
        <ele>972</ele>
      </trkpt>
      <trkpt lat="42.81353" lon="-0.83103">
        <ele>972.4</ele>
      </trkpt>
      <trkpt lat="42.8134" lon="-0.83107">
        <ele>972.2</ele>
      </trkpt>
      <trkpt lat="42.81328" lon="-0.8311">
        <ele>972.9</ele>
      </trkpt>
      <trkpt lat="42.8132" lon="-0.83113">
        <ele>974.1</ele>
      </trkpt>
      <trkpt lat="42.81309" lon="-0.83116">
        <ele>975.5</ele>
      </trkpt>
      <trkpt lat="42.81298" lon="-0.83122">
        <ele>975.9</ele>
      </trkpt>
      <trkpt lat="42.8129" lon="-0.8313">
        <ele>975</ele>
      </trkpt>
      <trkpt lat="42.8128" lon="-0.83139">
        <ele>973.3</ele>
      </trkpt>
      <trkpt lat="42.81276" lon="-0.83144">
        <ele>971.9</ele>
      </trkpt>
      <trkpt lat="42.8126" lon="-0.83161">
        <ele>965.4</ele>
      </trkpt>
      <trkpt lat="42.81252" lon="-0.83167">
        <ele>962.3</ele>
      </trkpt>
      <trkpt lat="42.81245" lon="-0.83172">
        <ele>965.4</ele>
      </trkpt>
      <trkpt lat="42.81238" lon="-0.83174">
        <ele>968.1</ele>
      </trkpt>
      <trkpt lat="42.81231" lon="-0.83175">
        <ele>970.4</ele>
      </trkpt>
      <trkpt lat="42.81217" lon="-0.8318">
        <ele>975</ele>
      </trkpt>
      <trkpt lat="42.8121" lon="-0.83184">
        <ele>976.9</ele>
      </trkpt>
      <trkpt lat="42.81198" lon="-0.83194">
        <ele>979.1</ele>
      </trkpt>
      <trkpt lat="42.81185" lon="-0.83207">
        <ele>978.9</ele>
      </trkpt>
      <trkpt lat="42.81174" lon="-0.83219">
        <ele>976.6</ele>
      </trkpt>
      <trkpt lat="42.81166" lon="-0.83224">
        <ele>974.9</ele>
      </trkpt>
      <trkpt lat="42.81159" lon="-0.83228">
        <ele>974.3</ele>
      </trkpt>
      <trkpt lat="42.81143" lon="-0.83232">
        <ele>974.5</ele>
      </trkpt>
      <trkpt lat="42.81136" lon="-0.83234">
        <ele>974.4</ele>
      </trkpt>
      <trkpt lat="42.81125" lon="-0.8324">
        <ele>973.2</ele>
      </trkpt>
      <trkpt lat="42.81115" lon="-0.83247">
        <ele>971.3</ele>
      </trkpt>
      <trkpt lat="42.81107" lon="-0.83253">
        <ele>970.6</ele>
      </trkpt>
      <trkpt lat="42.81081" lon="-0.83281">
        <ele>967.8</ele>
      </trkpt>
      <trkpt lat="42.8107" lon="-0.83291">
        <ele>966.2</ele>
      </trkpt>
      <trkpt lat="42.81061" lon="-0.83297">
        <ele>965.1</ele>
      </trkpt>
      <trkpt lat="42.81054" lon="-0.833">
        <ele>964.6</ele>
      </trkpt>
      <trkpt lat="42.81042" lon="-0.833">
        <ele>964.2</ele>
      </trkpt>
      <trkpt lat="42.81031" lon="-0.83299">
        <ele>964</ele>
      </trkpt>
      <trkpt lat="42.81024" lon="-0.83298">
        <ele>963.9</ele>
      </trkpt>
      <trkpt lat="42.81014" lon="-0.83295">
        <ele>964</ele>
      </trkpt>
      <trkpt lat="42.81004" lon="-0.83292">
        <ele>964.1</ele>
      </trkpt>
      <trkpt lat="42.80998" lon="-0.83288">
        <ele>964.5</ele>
      </trkpt>
      <trkpt lat="42.80974" lon="-0.83267">
        <ele>965.2</ele>
      </trkpt>
      <trkpt lat="42.80965" lon="-0.83258">
        <ele>964.5</ele>
      </trkpt>
      <trkpt lat="42.80953" lon="-0.83247">
        <ele>963.7</ele>
      </trkpt>
      <trkpt lat="42.80948" lon="-0.83243">
        <ele>964.2</ele>
      </trkpt>
      <trkpt lat="42.80945" lon="-0.8324">
        <ele>964.7</ele>
      </trkpt>
      <trkpt lat="42.8094" lon="-0.83236">
        <ele>965.2</ele>
      </trkpt>
      <trkpt lat="42.80935" lon="-0.83235">
        <ele>964.7</ele>
      </trkpt>
      <trkpt lat="42.8093" lon="-0.83235">
        <ele>964</ele>
      </trkpt>
      <trkpt lat="42.80913" lon="-0.83238">
        <ele>961.5</ele>
      </trkpt>
      <trkpt lat="42.80903" lon="-0.83239">
        <ele>962.3</ele>
      </trkpt>
      <trkpt lat="42.80895" lon="-0.83239">
        <ele>963.1</ele>
      </trkpt>
      <trkpt lat="42.8089" lon="-0.83237">
        <ele>964</ele>
      </trkpt>
      <trkpt lat="42.80884" lon="-0.83233">
        <ele>965.5</ele>
      </trkpt>
      <trkpt lat="42.80879" lon="-0.83229">
        <ele>966.7</ele>
      </trkpt>
      <trkpt lat="42.80875" lon="-0.83224">
        <ele>968</ele>
      </trkpt>
      <trkpt lat="42.8087" lon="-0.83216">
        <ele>969.8</ele>
      </trkpt>
      <trkpt lat="42.80857" lon="-0.832">
        <ele>973.2</ele>
      </trkpt>
      <trkpt lat="42.80843" lon="-0.83184">
        <ele>975.9</ele>
      </trkpt>
      <trkpt lat="42.80833" lon="-0.83177">
        <ele>976.8</ele>
      </trkpt>
      <trkpt lat="42.80826" lon="-0.83174">
        <ele>977.4</ele>
      </trkpt>
      <trkpt lat="42.80822" lon="-0.83173">
        <ele>977.7</ele>
      </trkpt>
      <trkpt lat="42.80818" lon="-0.83174">
        <ele>977.7</ele>
      </trkpt>
      <trkpt lat="42.8081" lon="-0.83178">
        <ele>977.3</ele>
      </trkpt>
      <trkpt lat="42.80803" lon="-0.83183">
        <ele>976.7</ele>
      </trkpt>
      <trkpt lat="42.8079" lon="-0.8319">
        <ele>975.7</ele>
      </trkpt>
      <trkpt lat="42.80772" lon="-0.83202">
        <ele>973.3</ele>
      </trkpt>
      <trkpt lat="42.80756" lon="-0.83214">
        <ele>970.2</ele>
      </trkpt>
      <trkpt lat="42.8074" lon="-0.83226">
        <ele>967.1</ele>
      </trkpt>
      <trkpt lat="42.80723" lon="-0.83239">
        <ele>963.2</ele>
      </trkpt>
      <trkpt lat="42.80712" lon="-0.83247">
        <ele>960.2</ele>
      </trkpt>
      <trkpt lat="42.80697" lon="-0.83259">
        <ele>959.9</ele>
      </trkpt>
      <trkpt lat="42.80688" lon="-0.83267">
        <ele>960.5</ele>
      </trkpt>
      <trkpt lat="42.80685" lon="-0.83269">
        <ele>960.5</ele>
      </trkpt>
      <trkpt lat="42.80681" lon="-0.8327">
        <ele>960.3</ele>
      </trkpt>
      <trkpt lat="42.80673" lon="-0.83272">
        <ele>959.9</ele>
      </trkpt>
      <trkpt lat="42.8067" lon="-0.83272">
        <ele>959.7</ele>
      </trkpt>
      <trkpt lat="42.80667" lon="-0.83272">
        <ele>959.4</ele>
      </trkpt>
      <trkpt lat="42.80663" lon="-0.83271">
        <ele>958.8</ele>
      </trkpt>
      <trkpt lat="42.80655" lon="-0.83267">
        <ele>957.3</ele>
      </trkpt>
      <trkpt lat="42.80648" lon="-0.83264">
        <ele>956</ele>
      </trkpt>
      <trkpt lat="42.80644" lon="-0.83263">
        <ele>955.4</ele>
      </trkpt>
      <trkpt lat="42.80635" lon="-0.83261">
        <ele>954</ele>
      </trkpt>
      <trkpt lat="42.80627" lon="-0.83261">
        <ele>953</ele>
      </trkpt>
      <trkpt lat="42.80611" lon="-0.83262">
        <ele>950.9</ele>
      </trkpt>
      <trkpt lat="42.80596" lon="-0.83264">
        <ele>949.2</ele>
      </trkpt>
      <trkpt lat="42.8058" lon="-0.83263">
        <ele>947.3</ele>
      </trkpt>
      <trkpt lat="42.80569" lon="-0.83262">
        <ele>946.7</ele>
      </trkpt>
      <trkpt lat="42.80561" lon="-0.83262">
        <ele>946.4</ele>
      </trkpt>
      <trkpt lat="42.80552" lon="-0.83265">
        <ele>946.3</ele>
      </trkpt>
      <trkpt lat="42.80542" lon="-0.83269">
        <ele>946</ele>
      </trkpt>
      <trkpt lat="42.80529" lon="-0.83276">
        <ele>945.7</ele>
      </trkpt>
      <trkpt lat="42.80518" lon="-0.83284">
        <ele>945.2</ele>
      </trkpt>
      <trkpt lat="42.8051" lon="-0.83289">
        <ele>944.7</ele>
      </trkpt>
      <trkpt lat="42.80498" lon="-0.83294">
        <ele>944</ele>
      </trkpt>
      <trkpt lat="42.80494" lon="-0.83295">
        <ele>943.9</ele>
      </trkpt>
      <trkpt lat="42.80492" lon="-0.83295">
        <ele>943.9</ele>
      </trkpt>
      <trkpt lat="42.80489" lon="-0.83295">
        <ele>943.8</ele>
      </trkpt>
      <trkpt lat="42.80486" lon="-0.83294">
        <ele>943.8</ele>
      </trkpt>
      <trkpt lat="42.80485" lon="-0.83293">
        <ele>943.8</ele>
      </trkpt>
      <trkpt lat="42.80482" lon="-0.83293">
        <ele>943.8</ele>
      </trkpt>
      <trkpt lat="42.80476" lon="-0.8329">
        <ele>943.7</ele>
      </trkpt>
      <trkpt lat="42.80468" lon="-0.83286">
        <ele>943.7</ele>
      </trkpt>
      <trkpt lat="42.80461" lon="-0.83284">
        <ele>943.7</ele>
      </trkpt>
      <trkpt lat="42.80454" lon="-0.83282">
        <ele>943.7</ele>
      </trkpt>
      <trkpt lat="42.80447" lon="-0.83279">
        <ele>943.8</ele>
      </trkpt>
      <trkpt lat="42.80433" lon="-0.83277">
        <ele>943.8</ele>
      </trkpt>
      <trkpt lat="42.80422" lon="-0.83274">
        <ele>943.9</ele>
      </trkpt>
      <trkpt lat="42.80418" lon="-0.83272">
        <ele>943.9</ele>
      </trkpt>
      <trkpt lat="42.80411" lon="-0.8327">
        <ele>944.3</ele>
      </trkpt>
      <trkpt lat="42.80406" lon="-0.83268">
        <ele>944.6</ele>
      </trkpt>
      <trkpt lat="42.80398" lon="-0.83264">
        <ele>945.3</ele>
      </trkpt>
      <trkpt lat="42.80384" lon="-0.83254">
        <ele>947</ele>
      </trkpt>
      <trkpt lat="42.80372" lon="-0.83246">
        <ele>950</ele>
      </trkpt>
      <trkpt lat="42.80367" lon="-0.83243">
        <ele>951.8</ele>
      </trkpt>
      <trkpt lat="42.80361" lon="-0.8324">
        <ele>953.6</ele>
      </trkpt>
      <trkpt lat="42.80355" lon="-0.83238">
        <ele>954.9</ele>
      </trkpt>
      <trkpt lat="42.80347" lon="-0.83237">
        <ele>956</ele>
      </trkpt>
      <trkpt lat="42.80339" lon="-0.83238">
        <ele>956.1</ele>
      </trkpt>
      <trkpt lat="42.80334" lon="-0.83239">
        <ele>956</ele>
      </trkpt>
      <trkpt lat="42.80327" lon="-0.83242">
        <ele>954.5</ele>
      </trkpt>
      <trkpt lat="42.80322" lon="-0.83245">
        <ele>953</ele>
      </trkpt>
      <trkpt lat="42.80314" lon="-0.83249">
        <ele>951.2</ele>
      </trkpt>
      <trkpt lat="42.80291" lon="-0.83266">
        <ele>947.1</ele>
      </trkpt>
      <trkpt lat="42.80246" lon="-0.83303">
        <ele>936.4</ele>
      </trkpt>
      <trkpt lat="42.80238" lon="-0.83308">
        <ele>934.8</ele>
      </trkpt>
      <trkpt lat="42.80232" lon="-0.83309">
        <ele>934.3</ele>
      </trkpt>
      <trkpt lat="42.80226" lon="-0.83309">
        <ele>934</ele>
      </trkpt>
      <trkpt lat="42.80221" lon="-0.83307">
        <ele>934.2</ele>
      </trkpt>
      <trkpt lat="42.80216" lon="-0.83303">
        <ele>934.7</ele>
      </trkpt>
      <trkpt lat="42.80211" lon="-0.83297">
        <ele>935.5</ele>
      </trkpt>
      <trkpt lat="42.80173" lon="-0.83255">
        <ele>937.5</ele>
      </trkpt>
      <trkpt lat="42.8014" lon="-0.83217">
        <ele>943.8</ele>
      </trkpt>
      <trkpt lat="42.80119" lon="-0.83196">
        <ele>946.6</ele>
      </trkpt>
      <trkpt lat="42.80099" lon="-0.8318">
        <ele>947.4</ele>
      </trkpt>
      <trkpt lat="42.80083" lon="-0.83171">
        <ele>946.7</ele>
      </trkpt>
      <trkpt lat="42.8007" lon="-0.83164">
        <ele>948.1</ele>
      </trkpt>
      <trkpt lat="42.80061" lon="-0.83161">
        <ele>948.7</ele>
      </trkpt>
      <trkpt lat="42.80049" lon="-0.83157">
        <ele>949.4</ele>
      </trkpt>
      <trkpt lat="42.80041" lon="-0.83155">
        <ele>949.6</ele>
      </trkpt>
      <trkpt lat="42.80029" lon="-0.83152">
        <ele>949.8</ele>
      </trkpt>
      <trkpt lat="42.80006" lon="-0.83148">
        <ele>949.4</ele>
      </trkpt>
      <trkpt lat="42.79996" lon="-0.83147">
        <ele>949.2</ele>
      </trkpt>
      <trkpt lat="42.79985" lon="-0.83147">
        <ele>949</ele>
      </trkpt>
      <trkpt lat="42.79972" lon="-0.83151">
        <ele>947</ele>
      </trkpt>
      <trkpt lat="42.79954" lon="-0.83157">
        <ele>944</ele>
      </trkpt>
      <trkpt lat="42.79928" lon="-0.83169">
        <ele>939.1</ele>
      </trkpt>
      <trkpt lat="42.7992" lon="-0.83172">
        <ele>938.9</ele>
      </trkpt>
      <trkpt lat="42.79896" lon="-0.8318">
        <ele>938.2</ele>
      </trkpt>
      <trkpt lat="42.79861" lon="-0.83185">
        <ele>937</ele>
      </trkpt>
      <trkpt lat="42.79803" lon="-0.8319">
        <ele>935.2</ele>
      </trkpt>
      <trkpt lat="42.79789" lon="-0.83191">
        <ele>935</ele>
      </trkpt>
      <trkpt lat="42.7978" lon="-0.83189">
        <ele>934.8</ele>
      </trkpt>
      <trkpt lat="42.7977" lon="-0.83187">
        <ele>934.5</ele>
      </trkpt>
      <trkpt lat="42.79762" lon="-0.83184">
        <ele>934</ele>
      </trkpt>
      <trkpt lat="42.79755" lon="-0.83181">
        <ele>933.6</ele>
      </trkpt>
      <trkpt lat="42.79747" lon="-0.83177">
        <ele>933</ele>
      </trkpt>
      <trkpt lat="42.79705" lon="-0.83153">
        <ele>932.7</ele>
      </trkpt>
      <trkpt lat="42.79673" lon="-0.8313">
        <ele>931</ele>
      </trkpt>
      <trkpt lat="42.79634" lon="-0.83096">
        <ele>929.5</ele>
      </trkpt>
      <trkpt lat="42.79573" lon="-0.83048">
        <ele>929.3</ele>
      </trkpt>
      <trkpt lat="42.79499" lon="-0.82992">
        <ele>925.2</ele>
      </trkpt>
      <trkpt lat="42.79488" lon="-0.82984">
        <ele>927.4</ele>
      </trkpt>
      <trkpt lat="42.79442" lon="-0.82952">
        <ele>928.9</ele>
      </trkpt>
      <trkpt lat="42.79425" lon="-0.82941">
        <ele>926.6</ele>
      </trkpt>
      <trkpt lat="42.79396" lon="-0.82925">
        <ele>923.1</ele>
      </trkpt>
      <trkpt lat="42.79324" lon="-0.82892">
        <ele>920.2</ele>
      </trkpt>
      <trkpt lat="42.7928" lon="-0.82867">
        <ele>921</ele>
      </trkpt>
      <trkpt lat="42.79227" lon="-0.82836">
        <ele>914.6</ele>
      </trkpt>
      <trkpt lat="42.79219" lon="-0.82831">
        <ele>914.3</ele>
      </trkpt>
      <trkpt lat="42.7921" lon="-0.82824">
        <ele>915</ele>
      </trkpt>
      <trkpt lat="42.79199" lon="-0.82813">
        <ele>915.8</ele>
      </trkpt>
      <trkpt lat="42.79188" lon="-0.82802">
        <ele>915.9</ele>
      </trkpt>
      <trkpt lat="42.79167" lon="-0.82781">
        <ele>914.6</ele>
      </trkpt>
      <trkpt lat="42.79162" lon="-0.82777">
        <ele>914.5</ele>
      </trkpt>
      <trkpt lat="42.79152" lon="-0.82769">
        <ele>914.1</ele>
      </trkpt>
      <trkpt lat="42.7915" lon="-0.82768">
        <ele>914</ele>
      </trkpt>
      <trkpt lat="42.79147" lon="-0.82766">
        <ele>913.7</ele>
      </trkpt>
      <trkpt lat="42.79109" lon="-0.82743">
        <ele>910.7</ele>
      </trkpt>
      <trkpt lat="42.79108" lon="-0.82743">
        <ele>910.6</ele>
      </trkpt>
      <trkpt lat="42.79107" lon="-0.82742">
        <ele>910.7</ele>
      </trkpt>
      <trkpt lat="42.79094" lon="-0.82737">
        <ele>910.3</ele>
      </trkpt>
      <trkpt lat="42.79092" lon="-0.82736">
        <ele>910.4</ele>
      </trkpt>
      <trkpt lat="42.7909" lon="-0.82736">
        <ele>910.1</ele>
      </trkpt>
      <trkpt lat="42.79081" lon="-0.82736">
        <ele>909.4</ele>
      </trkpt>
      <trkpt lat="42.79076" lon="-0.82738">
        <ele>909.1</ele>
      </trkpt>
      <trkpt lat="42.79074" lon="-0.82738">
        <ele>909.1</ele>
      </trkpt>
      <trkpt lat="42.79071" lon="-0.8274">
        <ele>908.7</ele>
      </trkpt>
      <trkpt lat="42.79059" lon="-0.82748">
        <ele>907.1</ele>
      </trkpt>
      <trkpt lat="42.79049" lon="-0.82754">
        <ele>907.5</ele>
      </trkpt>
      <trkpt lat="42.79045" lon="-0.82756">
        <ele>908</ele>
      </trkpt>
      <trkpt lat="42.79041" lon="-0.82758">
        <ele>908.5</ele>
      </trkpt>
      <trkpt lat="42.79025" lon="-0.82759">
        <ele>909</ele>
      </trkpt>
      <trkpt lat="42.7901" lon="-0.82758">
        <ele>909.2</ele>
      </trkpt>
      <trkpt lat="42.78982" lon="-0.82756">
        <ele>908.3</ele>
      </trkpt>
      <trkpt lat="42.78976" lon="-0.82756">
        <ele>908</ele>
      </trkpt>
      <trkpt lat="42.78969" lon="-0.82754">
        <ele>907.3</ele>
      </trkpt>
      <trkpt lat="42.78961" lon="-0.82752">
        <ele>906.5</ele>
      </trkpt>
      <trkpt lat="42.78956" lon="-0.8275">
        <ele>905.9</ele>
      </trkpt>
      <trkpt lat="42.7895" lon="-0.82747">
        <ele>906.4</ele>
      </trkpt>
      <trkpt lat="42.78928" lon="-0.82735">
        <ele>908.3</ele>
      </trkpt>
      <trkpt lat="42.78924" lon="-0.82734">
        <ele>908.4</ele>
      </trkpt>
      <trkpt lat="42.78919" lon="-0.82732">
        <ele>908.7</ele>
      </trkpt>
      <trkpt lat="42.7891" lon="-0.82731">
        <ele>908.5</ele>
      </trkpt>
      <trkpt lat="42.789" lon="-0.82731">
        <ele>908</ele>
      </trkpt>
      <trkpt lat="42.78892" lon="-0.82732">
        <ele>907.3</ele>
      </trkpt>
      <trkpt lat="42.78885" lon="-0.82732">
        <ele>907</ele>
      </trkpt>
      <trkpt lat="42.78878" lon="-0.82732">
        <ele>906.7</ele>
      </trkpt>
      <trkpt lat="42.78871" lon="-0.8273">
        <ele>906.7</ele>
      </trkpt>
      <trkpt lat="42.78866" lon="-0.82725">
        <ele>907.1</ele>
      </trkpt>
      <trkpt lat="42.7886" lon="-0.82719">
        <ele>907.6</ele>
      </trkpt>
      <trkpt lat="42.78783" lon="-0.82616">
        <ele>908.8</ele>
      </trkpt>
      <trkpt lat="42.78773" lon="-0.82597">
        <ele>908.8</ele>
      </trkpt>
      <trkpt lat="42.7877" lon="-0.8259">
        <ele>908.8</ele>
      </trkpt>
      <trkpt lat="42.78765" lon="-0.8258">
        <ele>908.8</ele>
      </trkpt>
      <trkpt lat="42.78758" lon="-0.82567">
        <ele>909.8</ele>
      </trkpt>
      <trkpt lat="42.78754" lon="-0.82563">
        <ele>909.8</ele>
      </trkpt>
      <trkpt lat="42.78749" lon="-0.82559">
        <ele>909.9</ele>
      </trkpt>
      <trkpt lat="42.78744" lon="-0.82558">
        <ele>910.5</ele>
      </trkpt>
      <trkpt lat="42.78737" lon="-0.82558">
        <ele>911.1</ele>
      </trkpt>
      <trkpt lat="42.78728" lon="-0.8256">
        <ele>911.2</ele>
      </trkpt>
      <trkpt lat="42.78716" lon="-0.82562">
        <ele>911.4</ele>
      </trkpt>
      <trkpt lat="42.78706" lon="-0.82563">
        <ele>911.7</ele>
      </trkpt>
      <trkpt lat="42.78683" lon="-0.82561">
        <ele>914</ele>
      </trkpt>
      <trkpt lat="42.7867" lon="-0.82562">
        <ele>914.5</ele>
      </trkpt>
      <trkpt lat="42.78643" lon="-0.82567">
        <ele>912.7</ele>
      </trkpt>
      <trkpt lat="42.7863" lon="-0.8257">
        <ele>911.5</ele>
      </trkpt>
      <trkpt lat="42.78614" lon="-0.82576">
        <ele>908.9</ele>
      </trkpt>
      <trkpt lat="42.78603" lon="-0.82586">
        <ele>905.4</ele>
      </trkpt>
      <trkpt lat="42.78595" lon="-0.82592">
        <ele>904.7</ele>
      </trkpt>
      <trkpt lat="42.7858" lon="-0.82601">
        <ele>903.4</ele>
      </trkpt>
      <trkpt lat="42.78567" lon="-0.82605">
        <ele>902.5</ele>
      </trkpt>
      <trkpt lat="42.78552" lon="-0.82609">
        <ele>901.7</ele>
      </trkpt>
      <trkpt lat="42.78535" lon="-0.82611">
        <ele>901.1</ele>
      </trkpt>
      <trkpt lat="42.78503" lon="-0.82612">
        <ele>900.3</ele>
      </trkpt>
      <trkpt lat="42.78489" lon="-0.82613">
        <ele>899.6</ele>
      </trkpt>
      <trkpt lat="42.78477" lon="-0.82611">
        <ele>899.3</ele>
      </trkpt>
      <trkpt lat="42.78472" lon="-0.82609">
        <ele>899.3</ele>
      </trkpt>
      <trkpt lat="42.7846" lon="-0.82602">
        <ele>899.1</ele>
      </trkpt>
      <trkpt lat="42.78405" lon="-0.82572">
        <ele>898.8</ele>
      </trkpt>
      <trkpt lat="42.7834" lon="-0.82537">
        <ele>900.9</ele>
      </trkpt>
      <trkpt lat="42.78325" lon="-0.82529">
        <ele>900.9</ele>
      </trkpt>
      <trkpt lat="42.78318" lon="-0.82526">
        <ele>900.8</ele>
      </trkpt>
      <trkpt lat="42.78313" lon="-0.82525">
        <ele>900.4</ele>
      </trkpt>
      <trkpt lat="42.78303" lon="-0.82523">
        <ele>899.7</ele>
      </trkpt>
      <trkpt lat="42.78276" lon="-0.82519">
        <ele>897.4</ele>
      </trkpt>
      <trkpt lat="42.78254" lon="-0.82519">
        <ele>894.9</ele>
      </trkpt>
      <trkpt lat="42.78242" lon="-0.82519">
        <ele>894.2</ele>
      </trkpt>
      <trkpt lat="42.78199" lon="-0.82519">
        <ele>892.4</ele>
      </trkpt>
      <trkpt lat="42.78182" lon="-0.82519">
        <ele>891.7</ele>
      </trkpt>
      <trkpt lat="42.78174" lon="-0.82519">
        <ele>891.3</ele>
      </trkpt>
      <trkpt lat="42.78167" lon="-0.8252">
        <ele>890.9</ele>
      </trkpt>
      <trkpt lat="42.78146" lon="-0.82527">
        <ele>889</ele>
      </trkpt>
      <trkpt lat="42.78131" lon="-0.82527">
        <ele>888.5</ele>
      </trkpt>
      <trkpt lat="42.78094" lon="-0.82523">
        <ele>887.5</ele>
      </trkpt>
      <trkpt lat="42.78068" lon="-0.82519">
        <ele>886.6</ele>
      </trkpt>
      <trkpt lat="42.78046" lon="-0.82513">
        <ele>885.7</ele>
      </trkpt>
      <trkpt lat="42.78042" lon="-0.82512">
        <ele>885.5</ele>
      </trkpt>
      <trkpt lat="42.78038" lon="-0.8251">
        <ele>885.4</ele>
      </trkpt>
      <trkpt lat="42.78021" lon="-0.82498">
        <ele>885.1</ele>
      </trkpt>
      <trkpt lat="42.78002" lon="-0.82486">
        <ele>887.3</ele>
      </trkpt>
      <trkpt lat="42.77995" lon="-0.82481">
        <ele>888.4</ele>
      </trkpt>
      <trkpt lat="42.7797" lon="-0.82465">
        <ele>892.1</ele>
      </trkpt>
      <trkpt lat="42.77955" lon="-0.82456">
        <ele>894.4</ele>
      </trkpt>
      <trkpt lat="42.77947" lon="-0.82453">
        <ele>895.1</ele>
      </trkpt>
      <trkpt lat="42.77942" lon="-0.82452">
        <ele>895.2</ele>
      </trkpt>
      <trkpt lat="42.77937" lon="-0.82452">
        <ele>895</ele>
      </trkpt>
      <trkpt lat="42.7793" lon="-0.82453">
        <ele>894.4</ele>
      </trkpt>
      <trkpt lat="42.77878" lon="-0.82469">
        <ele>895.1</ele>
      </trkpt>
      <trkpt lat="42.77867" lon="-0.82474">
        <ele>895</ele>
      </trkpt>
      <trkpt lat="42.77851" lon="-0.82481">
        <ele>895</ele>
      </trkpt>
      <trkpt lat="42.77848" lon="-0.82483">
        <ele>894.7</ele>
      </trkpt>
      <trkpt lat="42.7784" lon="-0.82488">
        <ele>893.9</ele>
      </trkpt>
      <trkpt lat="42.77829" lon="-0.82501">
        <ele>891.1</ele>
      </trkpt>
      <trkpt lat="42.77799" lon="-0.82545">
        <ele>888.3</ele>
      </trkpt>
      <trkpt lat="42.77785" lon="-0.82562">
        <ele>886.1</ele>
      </trkpt>
      <trkpt lat="42.77775" lon="-0.82572">
        <ele>884.6</ele>
      </trkpt>
      <trkpt lat="42.77767" lon="-0.82578">
        <ele>883.8</ele>
      </trkpt>
      <trkpt lat="42.77744" lon="-0.82594">
        <ele>883.2</ele>
      </trkpt>
      <trkpt lat="42.7772" lon="-0.8261">
        <ele>883.7</ele>
      </trkpt>
      <trkpt lat="42.777" lon="-0.82621">
        <ele>883.5</ele>
      </trkpt>
      <trkpt lat="42.77695" lon="-0.82623">
        <ele>883.5</ele>
      </trkpt>
      <trkpt lat="42.77687" lon="-0.82626">
        <ele>883.5</ele>
      </trkpt>
      <trkpt lat="42.77677" lon="-0.82628">
        <ele>883.9</ele>
      </trkpt>
      <trkpt lat="42.77666" lon="-0.82631">
        <ele>884.1</ele>
      </trkpt>
      <trkpt lat="42.7766" lon="-0.82634">
        <ele>884.3</ele>
      </trkpt>
      <trkpt lat="42.77656" lon="-0.82635">
        <ele>884.8</ele>
      </trkpt>
      <trkpt lat="42.77619" lon="-0.82657">
        <ele>885.8</ele>
      </trkpt>
      <trkpt lat="42.77574" lon="-0.82687">
        <ele>885.9</ele>
      </trkpt>
      <trkpt lat="42.77561" lon="-0.82697">
        <ele>883.7</ele>
      </trkpt>
      <trkpt lat="42.77538" lon="-0.82712">
        <ele>880.3</ele>
      </trkpt>
      <trkpt lat="42.7752" lon="-0.82722">
        <ele>878</ele>
      </trkpt>
      <trkpt lat="42.7751" lon="-0.82726">
        <ele>877.1</ele>
      </trkpt>
      <trkpt lat="42.77495" lon="-0.8273">
        <ele>876.2</ele>
      </trkpt>
      <trkpt lat="42.77489" lon="-0.82731">
        <ele>875.8</ele>
      </trkpt>
      <trkpt lat="42.77478" lon="-0.82733">
        <ele>875.1</ele>
      </trkpt>
      <trkpt lat="42.77468" lon="-0.82734">
        <ele>874.7</ele>
      </trkpt>
      <trkpt lat="42.77445" lon="-0.82736">
        <ele>874.1</ele>
      </trkpt>
      <trkpt lat="42.77393" lon="-0.82739">
        <ele>872.3</ele>
      </trkpt>
      <trkpt lat="42.77365" lon="-0.8274">
        <ele>870.6</ele>
      </trkpt>
      <trkpt lat="42.77353" lon="-0.82741">
        <ele>869.7</ele>
      </trkpt>
      <trkpt lat="42.77346" lon="-0.82742">
        <ele>869.2</ele>
      </trkpt>
      <trkpt lat="42.77339" lon="-0.82741">
        <ele>868.9</ele>
      </trkpt>
      <trkpt lat="42.77335" lon="-0.8274">
        <ele>868.9</ele>
      </trkpt>
      <trkpt lat="42.7733" lon="-0.82739">
        <ele>869.1</ele>
      </trkpt>
      <trkpt lat="42.77326" lon="-0.82738">
        <ele>869.4</ele>
      </trkpt>
      <trkpt lat="42.77319" lon="-0.82735">
        <ele>870.3</ele>
      </trkpt>
      <trkpt lat="42.77312" lon="-0.82733">
        <ele>871.1</ele>
      </trkpt>
      <trkpt lat="42.77302" lon="-0.8273">
        <ele>872.3</ele>
      </trkpt>
      <trkpt lat="42.77293" lon="-0.82728">
        <ele>873.4</ele>
      </trkpt>
      <trkpt lat="42.77286" lon="-0.82727">
        <ele>874.1</ele>
      </trkpt>
      <trkpt lat="42.7728" lon="-0.82726">
        <ele>874.7</ele>
      </trkpt>
      <trkpt lat="42.7727" lon="-0.82725">
        <ele>875.7</ele>
      </trkpt>
      <trkpt lat="42.77261" lon="-0.82725">
        <ele>876.3</ele>
      </trkpt>
      <trkpt lat="42.77251" lon="-0.82726">
        <ele>876.6</ele>
      </trkpt>
      <trkpt lat="42.77242" lon="-0.82727">
        <ele>877.1</ele>
      </trkpt>
      <trkpt lat="42.77232" lon="-0.8273">
        <ele>877.1</ele>
      </trkpt>
      <trkpt lat="42.77223" lon="-0.82734">
        <ele>876.6</ele>
      </trkpt>
      <trkpt lat="42.77213" lon="-0.82741">
        <ele>875.4</ele>
      </trkpt>
      <trkpt lat="42.77205" lon="-0.82749">
        <ele>873.7</ele>
      </trkpt>
      <trkpt lat="42.77198" lon="-0.82757">
        <ele>873.4</ele>
      </trkpt>
      <trkpt lat="42.7719" lon="-0.82767">
        <ele>872.9</ele>
      </trkpt>
      <trkpt lat="42.77182" lon="-0.82775">
        <ele>872.2</ele>
      </trkpt>
      <trkpt lat="42.77178" lon="-0.82779">
        <ele>871.8</ele>
      </trkpt>
      <trkpt lat="42.77171" lon="-0.82785">
        <ele>871.1</ele>
      </trkpt>
      <trkpt lat="42.77163" lon="-0.82791">
        <ele>870.2</ele>
      </trkpt>
      <trkpt lat="42.7716" lon="-0.82792">
        <ele>870.1</ele>
      </trkpt>
      <trkpt lat="42.77158" lon="-0.82793">
        <ele>869.9</ele>
      </trkpt>
      <trkpt lat="42.77154" lon="-0.82794">
        <ele>869.8</ele>
      </trkpt>
      <trkpt lat="42.7715" lon="-0.82797">
        <ele>869.2</ele>
      </trkpt>
      <trkpt lat="42.77123" lon="-0.82811">
        <ele>866.7</ele>
      </trkpt>
      <trkpt lat="42.77109" lon="-0.8282">
        <ele>864.9</ele>
      </trkpt>
      <trkpt lat="42.771" lon="-0.82824">
        <ele>864.1</ele>
      </trkpt>
      <trkpt lat="42.77088" lon="-0.82829">
        <ele>863</ele>
      </trkpt>
      <trkpt lat="42.77077" lon="-0.82832">
        <ele>862.5</ele>
      </trkpt>
      <trkpt lat="42.77065" lon="-0.82835">
        <ele>862.5</ele>
      </trkpt>
      <trkpt lat="42.77054" lon="-0.82838">
        <ele>863</ele>
      </trkpt>
      <trkpt lat="42.77047" lon="-0.82841">
        <ele>863.2</ele>
      </trkpt>
      <trkpt lat="42.77039" lon="-0.82845">
        <ele>863.5</ele>
      </trkpt>
      <trkpt lat="42.7703" lon="-0.82847">
        <ele>863.7</ele>
      </trkpt>
      <trkpt lat="42.77021" lon="-0.82849">
        <ele>863.8</ele>
      </trkpt>
      <trkpt lat="42.77007" lon="-0.82848">
        <ele>863.9</ele>
      </trkpt>
      <trkpt lat="42.76991" lon="-0.82846">
        <ele>863.5</ele>
      </trkpt>
      <trkpt lat="42.76926" lon="-0.82836">
        <ele>860.4</ele>
      </trkpt>
      <trkpt lat="42.76903" lon="-0.82833">
        <ele>860.6</ele>
      </trkpt>
      <trkpt lat="42.76881" lon="-0.82832">
        <ele>861.7</ele>
      </trkpt>
      <trkpt lat="42.76876" lon="-0.82833">
        <ele>861.6</ele>
      </trkpt>
      <trkpt lat="42.76873" lon="-0.82833">
        <ele>861.7</ele>
      </trkpt>
      <trkpt lat="42.76866" lon="-0.82835">
        <ele>861.7</ele>
      </trkpt>
      <trkpt lat="42.76857" lon="-0.82839">
        <ele>861.7</ele>
      </trkpt>
      <trkpt lat="42.7683" lon="-0.82853">
        <ele>861.2</ele>
      </trkpt>
      <trkpt lat="42.76818" lon="-0.82861">
        <ele>861.4</ele>
      </trkpt>
      <trkpt lat="42.76806" lon="-0.82868">
        <ele>861.4</ele>
      </trkpt>
      <trkpt lat="42.76793" lon="-0.82875">
        <ele>861.2</ele>
      </trkpt>
      <trkpt lat="42.76776" lon="-0.8288">
        <ele>861.3</ele>
      </trkpt>
      <trkpt lat="42.7676" lon="-0.82886">
        <ele>860.9</ele>
      </trkpt>
      <trkpt lat="42.76746" lon="-0.82889">
        <ele>860.9</ele>
      </trkpt>
      <trkpt lat="42.7673" lon="-0.82894">
        <ele>860.7</ele>
      </trkpt>
      <trkpt lat="42.76714" lon="-0.82899">
        <ele>860.6</ele>
      </trkpt>
      <trkpt lat="42.76702" lon="-0.82904">
        <ele>860.2</ele>
      </trkpt>
      <trkpt lat="42.76678" lon="-0.82916">
        <ele>859.3</ele>
      </trkpt>
      <trkpt lat="42.76661" lon="-0.82925">
        <ele>859.1</ele>
      </trkpt>
      <trkpt lat="42.76644" lon="-0.82934">
        <ele>858.3</ele>
      </trkpt>
      <trkpt lat="42.76628" lon="-0.82941">
        <ele>857.6</ele>
      </trkpt>
      <trkpt lat="42.76616" lon="-0.82946">
        <ele>857.1</ele>
      </trkpt>
      <trkpt lat="42.76604" lon="-0.82947">
        <ele>857.2</ele>
      </trkpt>
      <trkpt lat="42.76592" lon="-0.82948">
        <ele>857.2</ele>
      </trkpt>
      <trkpt lat="42.76546" lon="-0.82943">
        <ele>855.8</ele>
      </trkpt>
      <trkpt lat="42.7654" lon="-0.82942">
        <ele>855.6</ele>
      </trkpt>
      <trkpt lat="42.76533" lon="-0.8294">
        <ele>855.4</ele>
      </trkpt>
      <trkpt lat="42.76516" lon="-0.82932">
        <ele>855.3</ele>
      </trkpt>
      <trkpt lat="42.76508" lon="-0.82927">
        <ele>855.4</ele>
      </trkpt>
      <trkpt lat="42.76499" lon="-0.82922">
        <ele>855.5</ele>
      </trkpt>
      <trkpt lat="42.76488" lon="-0.82918">
        <ele>857.1</ele>
      </trkpt>
      <trkpt lat="42.76477" lon="-0.82917">
        <ele>858.4</ele>
      </trkpt>
      <trkpt lat="42.76466" lon="-0.82919">
        <ele>859.3</ele>
      </trkpt>
      <trkpt lat="42.76458" lon="-0.82923">
        <ele>859.5</ele>
      </trkpt>
      <trkpt lat="42.76443" lon="-0.82933">
        <ele>859.1</ele>
      </trkpt>
      <trkpt lat="42.76432" lon="-0.82941">
        <ele>858.5</ele>
      </trkpt>
      <trkpt lat="42.76422" lon="-0.82947">
        <ele>858.1</ele>
      </trkpt>
      <trkpt lat="42.76413" lon="-0.82949">
        <ele>858</ele>
      </trkpt>
      <trkpt lat="42.76405" lon="-0.82949">
        <ele>858.1</ele>
      </trkpt>
      <trkpt lat="42.76393" lon="-0.82946">
        <ele>858.9</ele>
      </trkpt>
      <trkpt lat="42.76385" lon="-0.82943">
        <ele>859.6</ele>
      </trkpt>
      <trkpt lat="42.76375" lon="-0.82937">
        <ele>861</ele>
      </trkpt>
      <trkpt lat="42.76369" lon="-0.82934">
        <ele>861.7</ele>
      </trkpt>
      <trkpt lat="42.76363" lon="-0.82931">
        <ele>862.4</ele>
      </trkpt>
      <trkpt lat="42.76357" lon="-0.82929">
        <ele>862.9</ele>
      </trkpt>
      <trkpt lat="42.76351" lon="-0.82927">
        <ele>863.5</ele>
      </trkpt>
      <trkpt lat="42.76313" lon="-0.82921">
        <ele>863.4</ele>
      </trkpt>
      <trkpt lat="42.76298" lon="-0.82918">
        <ele>862.8</ele>
      </trkpt>
      <trkpt lat="42.76284" lon="-0.82915">
        <ele>862.2</ele>
      </trkpt>
      <trkpt lat="42.76276" lon="-0.8291">
        <ele>862.5</ele>
      </trkpt>
      <trkpt lat="42.76269" lon="-0.82906">
        <ele>862.6</ele>
      </trkpt>
      <trkpt lat="42.76257" lon="-0.82897">
        <ele>863.1</ele>
      </trkpt>
      <trkpt lat="42.76243" lon="-0.82891">
        <ele>864.1</ele>
      </trkpt>
      <trkpt lat="42.76232" lon="-0.82891">
        <ele>865.3</ele>
      </trkpt>
      <trkpt lat="42.7622" lon="-0.82895">
        <ele>865.7</ele>
      </trkpt>
      <trkpt lat="42.76212" lon="-0.82901">
        <ele>865.2</ele>
      </trkpt>
      <trkpt lat="42.76204" lon="-0.82906">
        <ele>864.8</ele>
      </trkpt>
      <trkpt lat="42.76194" lon="-0.82913">
        <ele>863.9</ele>
      </trkpt>
      <trkpt lat="42.76186" lon="-0.82916">
        <ele>863.8</ele>
      </trkpt>
      <trkpt lat="42.76178" lon="-0.82917">
        <ele>864.1</ele>
      </trkpt>
      <trkpt lat="42.76161" lon="-0.82917">
        <ele>865.2</ele>
      </trkpt>
      <trkpt lat="42.76135" lon="-0.82915">
        <ele>867</ele>
      </trkpt>
      <trkpt lat="42.76118" lon="-0.82917">
        <ele>867.2</ele>
      </trkpt>
      <trkpt lat="42.76086" lon="-0.82918">
        <ele>868.4</ele>
      </trkpt>
      <trkpt lat="42.76075" lon="-0.82919">
        <ele>867.2</ele>
      </trkpt>
      <trkpt lat="42.76061" lon="-0.82919">
        <ele>865.3</ele>
      </trkpt>
      <trkpt lat="42.76054" lon="-0.8292">
        <ele>864.1</ele>
      </trkpt>
      <trkpt lat="42.76047" lon="-0.82919">
        <ele>863.5</ele>
      </trkpt>
      <trkpt lat="42.76032" lon="-0.82919">
        <ele>861.6</ele>
      </trkpt>
      <trkpt lat="42.76027" lon="-0.82918">
        <ele>861.2</ele>
      </trkpt>
      <trkpt lat="42.76018" lon="-0.82917">
        <ele>860.3</ele>
      </trkpt>
      <trkpt lat="42.76012" lon="-0.82916">
        <ele>859.8</ele>
      </trkpt>
      <trkpt lat="42.76009" lon="-0.82915">
        <ele>859.8</ele>
      </trkpt>
      <trkpt lat="42.76005" lon="-0.82913">
        <ele>860.1</ele>
      </trkpt>
      <trkpt lat="42.76002" lon="-0.82911">
        <ele>860.4</ele>
      </trkpt>
      <trkpt lat="42.75979" lon="-0.82891">
        <ele>864.2</ele>
      </trkpt>
      <trkpt lat="42.75962" lon="-0.82878">
        <ele>866.2</ele>
      </trkpt>
      <trkpt lat="42.75935" lon="-0.82861">
        <ele>868.2</ele>
      </trkpt>
      <trkpt lat="42.75935" lon="-0.82861">
        <ele>868.2</ele>
      </trkpt>
      <trkpt lat="42.75917" lon="-0.82854">
        <ele>867.9</ele>
      </trkpt>
      <trkpt lat="42.75909" lon="-0.82852">
        <ele>868.5</ele>
      </trkpt>
      <trkpt lat="42.75903" lon="-0.82852">
        <ele>868.4</ele>
      </trkpt>
      <trkpt lat="42.75897" lon="-0.82853">
        <ele>868</ele>
      </trkpt>
      <trkpt lat="42.75883" lon="-0.82857">
        <ele>866.3</ele>
      </trkpt>
      <trkpt lat="42.7587" lon="-0.82861">
        <ele>864.9</ele>
      </trkpt>
      <trkpt lat="42.75855" lon="-0.82864">
        <ele>863.8</ele>
      </trkpt>
      <trkpt lat="42.75855" lon="-0.82864">
        <ele>863.8</ele>
      </trkpt>
      <trkpt lat="42.75749" lon="-0.82901">
        <ele>861.3</ele>
      </trkpt>
      <trkpt lat="42.75742" lon="-0.82903">
        <ele>861.3</ele>
      </trkpt>
      <trkpt lat="42.75737" lon="-0.82904">
        <ele>861.3</ele>
      </trkpt>
      <trkpt lat="42.75716" lon="-0.82907">
        <ele>861.7</ele>
      </trkpt>
      <trkpt lat="42.757113" lon="-0.829077">
        <ele>861.9</ele>
      </trkpt>
      <trkpt lat="42.75711" lon="-0.82908">
        <ele>861.8</ele>
      </trkpt>
      <trkpt lat="42.75683" lon="-0.82912">
        <ele>862.6</ele>
      </trkpt>
      <trkpt lat="42.75676" lon="-0.82913">
        <ele>862.8</ele>
      </trkpt>
      <trkpt lat="42.75658" lon="-0.82919">
        <ele>862.6</ele>
      </trkpt>
      <trkpt lat="42.75658" lon="-0.82919">
        <ele>862.6</ele>
      </trkpt>
      <trkpt lat="42.7564" lon="-0.82927">
        <ele>861</ele>
      </trkpt>
      <trkpt lat="42.75637" lon="-0.82929">
        <ele>860.6</ele>
      </trkpt>
      <trkpt lat="42.75626" lon="-0.82936">
        <ele>859.1</ele>
      </trkpt>
      <trkpt lat="42.7562" lon="-0.82939">
        <ele>858.6</ele>
      </trkpt>
      <trkpt lat="42.75616" lon="-0.82941">
        <ele>858.2</ele>
      </trkpt>
      <trkpt lat="42.75607" lon="-0.82945">
        <ele>857.6</ele>
      </trkpt>
      <trkpt lat="42.75589" lon="-0.82951">
        <ele>857</ele>
      </trkpt>
      <trkpt lat="42.75572" lon="-0.82956">
        <ele>855.7</ele>
      </trkpt>
      <trkpt lat="42.75568" lon="-0.82958">
        <ele>855.1</ele>
      </trkpt>
      <trkpt lat="42.7554" lon="-0.82971">
        <ele>851.6</ele>
      </trkpt>
      <trkpt lat="42.75536" lon="-0.82972">
        <ele>851.3</ele>
      </trkpt>
      <trkpt lat="42.75535" lon="-0.82972">
        <ele>851.3</ele>
      </trkpt>
      <trkpt lat="42.75534" lon="-0.82972">
        <ele>851.3</ele>
      </trkpt>
      <trkpt lat="42.75533" lon="-0.82972">
        <ele>851.2</ele>
      </trkpt>
      <trkpt lat="42.75529" lon="-0.82972">
        <ele>851.2</ele>
      </trkpt>
      <trkpt lat="42.75521" lon="-0.82971">
        <ele>851.2</ele>
      </trkpt>
      <trkpt lat="42.7552" lon="-0.8297">
        <ele>851.4</ele>
      </trkpt>
      <trkpt lat="42.75518" lon="-0.82969">
        <ele>851.6</ele>
      </trkpt>
      <trkpt lat="42.75517" lon="-0.82967">
        <ele>851.9</ele>
      </trkpt>
      <trkpt lat="42.75515" lon="-0.82964">
        <ele>852.4</ele>
      </trkpt>
      <trkpt lat="42.75513" lon="-0.82959">
        <ele>853.3</ele>
      </trkpt>
      <trkpt lat="42.75509" lon="-0.82947">
        <ele>855.3</ele>
      </trkpt>
      <trkpt lat="42.75509" lon="-0.82947">
        <ele>855.3</ele>
      </trkpt>
      <trkpt lat="42.75502" lon="-0.8295">
        <ele>854.5</ele>
      </trkpt>
      <trkpt lat="42.75502" lon="-0.82951">
        <ele>854.3</ele>
      </trkpt>
      <trkpt lat="42.75501" lon="-0.82951">
        <ele>854.3</ele>
      </trkpt>
      <trkpt lat="42.755" lon="-0.8295">
        <ele>854.4</ele>
      </trkpt>
      <trkpt lat="42.755" lon="-0.82949">
        <ele>854.6</ele>
      </trkpt>
      <trkpt lat="42.75494" lon="-0.82938">
        <ele>855.8</ele>
      </trkpt>
      <trkpt lat="42.75494" lon="-0.82938">
        <ele>855.8</ele>
      </trkpt>
      <trkpt lat="42.75487" lon="-0.82918">
        <ele>858.5</ele>
      </trkpt>
      <trkpt lat="42.75476" lon="-0.8289">
        <ele>856.5</ele>
      </trkpt>
      <trkpt lat="42.75476" lon="-0.8289">
        <ele>856.5</ele>
      </trkpt>
      <trkpt lat="42.75462" lon="-0.82906">
        <ele>855.7</ele>
      </trkpt>
      <trkpt lat="42.75451" lon="-0.82911">
        <ele>854.9</ele>
      </trkpt>
      <trkpt lat="42.75451" lon="-0.82911">
        <ele>854.9</ele>
      </trkpt>
      <trkpt lat="42.75443" lon="-0.82892">
        <ele>852.7</ele>
      </trkpt>
      <trkpt lat="42.75441" lon="-0.82888">
        <ele>852.2</ele>
      </trkpt>
      <trkpt lat="42.7544" lon="-0.82887">
        <ele>852</ele>
      </trkpt>
      <trkpt lat="42.75439" lon="-0.82886">
        <ele>851.8</ele>
      </trkpt>
      <trkpt lat="42.75438" lon="-0.82886">
        <ele>851.7</ele>
      </trkpt>
      <trkpt lat="42.75437" lon="-0.82886">
        <ele>851.5</ele>
      </trkpt>
      <trkpt lat="42.75428" lon="-0.82892">
        <ele>851</ele>
      </trkpt>
      <trkpt lat="42.75421" lon="-0.82899">
        <ele>850.8</ele>
      </trkpt>
      <trkpt lat="42.75409" lon="-0.82908">
        <ele>850.1</ele>
      </trkpt>
      <trkpt lat="42.75406" lon="-0.82909">
        <ele>849.8</ele>
      </trkpt>
      <trkpt lat="42.75406" lon="-0.8291">
        <ele>849.9</ele>
      </trkpt>
      <trkpt lat="42.75394" lon="-0.82917">
        <ele>848.7</ele>
      </trkpt>
      <trkpt lat="42.75375" lon="-0.82927">
        <ele>844.6</ele>
      </trkpt>
      <trkpt lat="42.75357" lon="-0.82931">
        <ele>841.7</ele>
      </trkpt>
      <trkpt lat="42.75347" lon="-0.82933">
        <ele>840.2</ele>
      </trkpt>
      <trkpt lat="42.75339" lon="-0.82935">
        <ele>839</ele>
      </trkpt>
      <trkpt lat="42.75325" lon="-0.82937">
        <ele>837.2</ele>
      </trkpt>
      <trkpt lat="42.75314" lon="-0.82939">
        <ele>835.8</ele>
      </trkpt>
      <trkpt lat="42.75301" lon="-0.82937">
        <ele>834.6</ele>
      </trkpt>
      <trkpt lat="42.75301" lon="-0.82937">
        <ele>834.6</ele>
      </trkpt>
      <trkpt lat="42.753" lon="-0.82942">
        <ele>834.2</ele>
      </trkpt>
      <trkpt lat="42.75299" lon="-0.82945">
        <ele>833.9</ele>
      </trkpt>
      <trkpt lat="42.75298" lon="-0.82947">
        <ele>833.6</ele>
      </trkpt>
      <trkpt lat="42.75296" lon="-0.82949">
        <ele>833.3</ele>
      </trkpt>
      <trkpt lat="42.75294" lon="-0.82951">
        <ele>833</ele>
      </trkpt>
      <trkpt lat="42.75291" lon="-0.82952">
        <ele>832.6</ele>
      </trkpt>
      <trkpt lat="42.75286" lon="-0.82951">
        <ele>832.2</ele>
      </trkpt>
      <trkpt lat="42.75286" lon="-0.82951">
        <ele>832.2</ele>
      </trkpt>
      <trkpt lat="42.75276" lon="-0.82947">
        <ele>831.5</ele>
      </trkpt>
      <trkpt lat="42.75269" lon="-0.82942">
        <ele>831</ele>
      </trkpt>
      <trkpt lat="42.75265" lon="-0.82937">
        <ele>830.9</ele>
      </trkpt>
      <trkpt lat="42.75262" lon="-0.82934">
        <ele>830.7</ele>
      </trkpt>
      <trkpt lat="42.7526" lon="-0.82933">
        <ele>830.5</ele>
      </trkpt>
      <trkpt lat="42.75258" lon="-0.82932">
        <ele>830.3</ele>
      </trkpt>
      <trkpt lat="42.75257" lon="-0.82932">
        <ele>830.2</ele>
      </trkpt>
      <trkpt lat="42.75254" lon="-0.82932">
        <ele>829.9</ele>
      </trkpt>
      <trkpt lat="42.75251" lon="-0.82932">
        <ele>829.6</ele>
      </trkpt>
      <trkpt lat="42.75248" lon="-0.82933">
        <ele>829.4</ele>
      </trkpt>
      <trkpt lat="42.75246" lon="-0.82934">
        <ele>829.3</ele>
      </trkpt>
      <trkpt lat="42.75242" lon="-0.82938">
        <ele>829</ele>
      </trkpt>
      <trkpt lat="42.75242" lon="-0.82938">
        <ele>829</ele>
      </trkpt>
      <trkpt lat="42.75238" lon="-0.82937">
        <ele>829</ele>
      </trkpt>
      <trkpt lat="42.75233" lon="-0.82938">
        <ele>828.8</ele>
      </trkpt>
      <trkpt lat="42.75226" lon="-0.82941">
        <ele>828.5</ele>
      </trkpt>
      <trkpt lat="42.75209" lon="-0.82949">
        <ele>827.6</ele>
      </trkpt>
      <trkpt lat="42.752092" lon="-0.829489">
        <ele>827.6</ele>
      </trkpt>
      <trkpt lat="42.75209" lon="-0.82949">
        <ele>827.6</ele>
      </trkpt>
      <trkpt lat="42.75198" lon="-0.82954">
        <ele>826.9</ele>
      </trkpt>
      <trkpt lat="42.75186" lon="-0.82956">
        <ele>826.4</ele>
      </trkpt>
      <trkpt lat="42.75174" lon="-0.82954">
        <ele>826.1</ele>
      </trkpt>
      <trkpt lat="42.75155" lon="-0.82945">
        <ele>826.1</ele>
      </trkpt>
      <trkpt lat="42.75138" lon="-0.82936">
        <ele>826.1</ele>
      </trkpt>
      <trkpt lat="42.75128" lon="-0.82927">
        <ele>826.3</ele>
      </trkpt>
      <trkpt lat="42.75119" lon="-0.82917">
        <ele>826.7</ele>
      </trkpt>
      <trkpt lat="42.75106" lon="-0.82895">
        <ele>827.6</ele>
      </trkpt>
      <trkpt lat="42.75103" lon="-0.82889">
        <ele>827.7</ele>
      </trkpt>
      <trkpt lat="42.75076" lon="-0.82829">
        <ele>828.5</ele>
      </trkpt>
      <trkpt lat="42.75022" lon="-0.82708">
        <ele>833.5</ele>
      </trkpt>
      <trkpt lat="42.74995" lon="-0.82656">
        <ele>836.7</ele>
      </trkpt>
      <trkpt lat="42.7498" lon="-0.8263">
        <ele>837.9</ele>
      </trkpt>
      <trkpt lat="42.74963" lon="-0.82609">
        <ele>838.2</ele>
      </trkpt>
      <trkpt lat="42.74962" lon="-0.8261">
        <ele>837.9</ele>
      </trkpt>
      <trkpt lat="42.74962" lon="-0.82611">
        <ele>837.8</ele>
      </trkpt>
      <trkpt lat="42.74961" lon="-0.82611">
        <ele>837.7</ele>
      </trkpt>
      <trkpt lat="42.74961" lon="-0.82612">
        <ele>837.6</ele>
      </trkpt>
      <trkpt lat="42.7496" lon="-0.82612">
        <ele>837.4</ele>
      </trkpt>
      <trkpt lat="42.74959" lon="-0.82613">
        <ele>837.2</ele>
      </trkpt>
      <trkpt lat="42.74958" lon="-0.82613">
        <ele>837.1</ele>
      </trkpt>
      <trkpt lat="42.74958" lon="-0.82614">
        <ele>837</ele>
      </trkpt>
      <trkpt lat="42.74957" lon="-0.82614">
        <ele>836.8</ele>
      </trkpt>
      <trkpt lat="42.74956" lon="-0.82614">
        <ele>836.7</ele>
      </trkpt>
      <trkpt lat="42.74955" lon="-0.82614">
        <ele>836.6</ele>
      </trkpt>
      <trkpt lat="42.74954" lon="-0.82614">
        <ele>836.5</ele>
      </trkpt>
      <trkpt lat="42.74953" lon="-0.82614">
        <ele>836.3</ele>
      </trkpt>
      <trkpt lat="42.74952" lon="-0.82614">
        <ele>836.2</ele>
      </trkpt>
      <trkpt lat="42.74952" lon="-0.82613">
        <ele>836.3</ele>
      </trkpt>
      <trkpt lat="42.74951" lon="-0.82613">
        <ele>836.2</ele>
      </trkpt>
      <trkpt lat="42.74951" lon="-0.82612">
        <ele>836.3</ele>
      </trkpt>
      <trkpt lat="42.7495" lon="-0.82612">
        <ele>836.2</ele>
      </trkpt>
      <trkpt lat="42.74949" lon="-0.82611">
        <ele>836.2</ele>
      </trkpt>
      <trkpt lat="42.74948" lon="-0.8261">
        <ele>836.1</ele>
      </trkpt>
      <trkpt lat="42.74948" lon="-0.82609">
        <ele>836.3</ele>
      </trkpt>
      <trkpt lat="42.74947" lon="-0.82609">
        <ele>836.1</ele>
      </trkpt>
      <trkpt lat="42.74947" lon="-0.82608">
        <ele>836.2</ele>
      </trkpt>
      <trkpt lat="42.74947" lon="-0.82607">
        <ele>836.3</ele>
      </trkpt>
      <trkpt lat="42.74946" lon="-0.82606">
        <ele>836.3</ele>
      </trkpt>
      <trkpt lat="42.74946" lon="-0.82605">
        <ele>836.4</ele>
      </trkpt>
      <trkpt lat="42.74946" lon="-0.82604">
        <ele>836.6</ele>
      </trkpt>
      <trkpt lat="42.74946" lon="-0.82603">
        <ele>836.7</ele>
      </trkpt>
      <trkpt lat="42.74946" lon="-0.82602">
        <ele>836.8</ele>
      </trkpt>
      <trkpt lat="42.74946" lon="-0.82601">
        <ele>836.9</ele>
      </trkpt>
      <trkpt lat="42.74946" lon="-0.826">
        <ele>837</ele>
      </trkpt>
      <trkpt lat="42.74946" lon="-0.82599">
        <ele>837.1</ele>
      </trkpt>
      <trkpt lat="42.74946" lon="-0.82598">
        <ele>837.2</ele>
      </trkpt>
      <trkpt lat="42.74946" lon="-0.82597">
        <ele>837.3</ele>
      </trkpt>
      <trkpt lat="42.74946" lon="-0.82596">
        <ele>837.5</ele>
      </trkpt>
      <trkpt lat="42.74947" lon="-0.82595">
        <ele>837.7</ele>
      </trkpt>
      <trkpt lat="42.74947" lon="-0.82594">
        <ele>837.8</ele>
      </trkpt>
      <trkpt lat="42.74947" lon="-0.82593">
        <ele>837.9</ele>
      </trkpt>
      <trkpt lat="42.74948" lon="-0.82593">
        <ele>838.1</ele>
      </trkpt>
      <trkpt lat="42.74948" lon="-0.82592">
        <ele>838.2</ele>
      </trkpt>
      <trkpt lat="42.74949" lon="-0.82591">
        <ele>838.4</ele>
      </trkpt>
      <trkpt lat="42.74931" lon="-0.82568">
        <ele>838.8</ele>
      </trkpt>
      <trkpt lat="42.74923" lon="-0.82558">
        <ele>838.9</ele>
      </trkpt>
      <trkpt lat="42.74913" lon="-0.82546">
        <ele>838.8</ele>
      </trkpt>
      <trkpt lat="42.74891" lon="-0.82523">
        <ele>837.4</ele>
      </trkpt>
      <trkpt lat="42.7489" lon="-0.82523">
        <ele>837.2</ele>
      </trkpt>
      <trkpt lat="42.74862" lon="-0.82493">
        <ele>835.7</ele>
      </trkpt>
      <trkpt lat="42.74774" lon="-0.82399">
        <ele>834.4</ele>
      </trkpt>
      <trkpt lat="42.74766" lon="-0.82391">
        <ele>834.7</ele>
      </trkpt>
      <trkpt lat="42.74753" lon="-0.82376">
        <ele>835.8</ele>
      </trkpt>
      <trkpt lat="42.74741" lon="-0.82363">
        <ele>837</ele>
      </trkpt>
      <trkpt lat="42.74723" lon="-0.82348">
        <ele>837.5</ele>
      </trkpt>
      <trkpt lat="42.74675" lon="-0.82308">
        <ele>837</ele>
      </trkpt>
      <trkpt lat="42.74642" lon="-0.82283">
        <ele>835.8</ele>
      </trkpt>
      <trkpt lat="42.74634" lon="-0.82279">
        <ele>834.9</ele>
      </trkpt>
      <trkpt lat="42.74627" lon="-0.82274">
        <ele>834.3</ele>
      </trkpt>
      <trkpt lat="42.7462" lon="-0.82269">
        <ele>833.6</ele>
      </trkpt>
      <trkpt lat="42.74605" lon="-0.82256">
        <ele>832.3</ele>
      </trkpt>
      <trkpt lat="42.74549" lon="-0.82201">
        <ele>824.5</ele>
      </trkpt>
      <trkpt lat="42.74531" lon="-0.8218">
        <ele>823.5</ele>
      </trkpt>
      <trkpt lat="42.74504" lon="-0.82145">
        <ele>824.9</ele>
      </trkpt>
      <trkpt lat="42.74449" lon="-0.82074">
        <ele>825.5</ele>
      </trkpt>
      <trkpt lat="42.74351" lon="-0.8195">
        <ele>818.5</ele>
      </trkpt>
      <trkpt lat="42.74344" lon="-0.81943">
        <ele>817.5</ele>
      </trkpt>
      <trkpt lat="42.7427" lon="-0.81849">
        <ele>814.4</ele>
      </trkpt>
      <trkpt lat="42.74231" lon="-0.81803">
        <ele>810.7</ele>
      </trkpt>
      <trkpt lat="42.74182" lon="-0.81739">
        <ele>809.1</ele>
      </trkpt>
      <trkpt lat="42.74174" lon="-0.8173">
        <ele>810.1</ele>
      </trkpt>
      <trkpt lat="42.74168" lon="-0.81722">
        <ele>811.2</ele>
      </trkpt>
      <trkpt lat="42.74102" lon="-0.81635">
        <ele>813.6</ele>
      </trkpt>
      <trkpt lat="42.74079" lon="-0.81608">
        <ele>812.8</ele>
      </trkpt>
      <trkpt lat="42.74059" lon="-0.81588">
        <ele>816.2</ele>
      </trkpt>
      <trkpt lat="42.74053" lon="-0.81584">
        <ele>816.7</ele>
      </trkpt>
      <trkpt lat="42.74041" lon="-0.81577">
        <ele>818</ele>
      </trkpt>
      <trkpt lat="42.74034" lon="-0.81575">
        <ele>818.6</ele>
      </trkpt>
      <trkpt lat="42.74026" lon="-0.81572">
        <ele>819.4</ele>
      </trkpt>
      <trkpt lat="42.74017" lon="-0.81572">
        <ele>819.7</ele>
      </trkpt>
      <trkpt lat="42.74015" lon="-0.81573">
        <ele>819.6</ele>
      </trkpt>
      <trkpt lat="42.74008" lon="-0.81575">
        <ele>819.4</ele>
      </trkpt>
      <trkpt lat="42.73987" lon="-0.81583">
        <ele>819</ele>
      </trkpt>
      <trkpt lat="42.73974" lon="-0.8159">
        <ele>820</ele>
      </trkpt>
      <trkpt lat="42.73934" lon="-0.81609">
        <ele>821.2</ele>
      </trkpt>
      <trkpt lat="42.73927" lon="-0.81611">
        <ele>821.2</ele>
      </trkpt>
      <trkpt lat="42.73922" lon="-0.81612">
        <ele>821.2</ele>
      </trkpt>
      <trkpt lat="42.73917" lon="-0.81612">
        <ele>821.2</ele>
      </trkpt>
      <trkpt lat="42.7391" lon="-0.81612">
        <ele>820.2</ele>
      </trkpt>
      <trkpt lat="42.73903" lon="-0.81612">
        <ele>819.1</ele>
      </trkpt>
      <trkpt lat="42.73895" lon="-0.8161">
        <ele>818</ele>
      </trkpt>
      <trkpt lat="42.73878" lon="-0.81605">
        <ele>815.8</ele>
      </trkpt>
      <trkpt lat="42.73866" lon="-0.81599">
        <ele>814.5</ele>
      </trkpt>
      <trkpt lat="42.73846" lon="-0.81591">
        <ele>812.2</ele>
      </trkpt>
      <trkpt lat="42.73833" lon="-0.81584">
        <ele>810.9</ele>
      </trkpt>
      <trkpt lat="42.7382" lon="-0.81579">
        <ele>811.2</ele>
      </trkpt>
      <trkpt lat="42.73809" lon="-0.81575">
        <ele>811.5</ele>
      </trkpt>
      <trkpt lat="42.73797" lon="-0.81572">
        <ele>811</ele>
      </trkpt>
      <trkpt lat="42.73782" lon="-0.81569">
        <ele>810.1</ele>
      </trkpt>
      <trkpt lat="42.73766" lon="-0.81567">
        <ele>808.5</ele>
      </trkpt>
      <trkpt lat="42.73722" lon="-0.81565">
        <ele>805</ele>
      </trkpt>
      <trkpt lat="42.73702" lon="-0.81563">
        <ele>804.3</ele>
      </trkpt>
      <trkpt lat="42.73684" lon="-0.81559">
        <ele>804</ele>
      </trkpt>
      <trkpt lat="42.73668" lon="-0.81556">
        <ele>803.4</ele>
      </trkpt>
      <trkpt lat="42.73656" lon="-0.81552">
        <ele>803.4</ele>
      </trkpt>
      <trkpt lat="42.73649" lon="-0.81548">
        <ele>803.7</ele>
      </trkpt>
      <trkpt lat="42.73645" lon="-0.81547">
        <ele>803.5</ele>
      </trkpt>
      <trkpt lat="42.73638" lon="-0.81543">
        <ele>803.6</ele>
      </trkpt>
      <trkpt lat="42.73616" lon="-0.81528">
        <ele>803.2</ele>
      </trkpt>
      <trkpt lat="42.73606" lon="-0.81516">
        <ele>802.8</ele>
      </trkpt>
      <trkpt lat="42.73596" lon="-0.81504">
        <ele>802</ele>
      </trkpt>
      <trkpt lat="42.73596" lon="-0.81503">
        <ele>802</ele>
      </trkpt>
      <trkpt lat="42.73587" lon="-0.8149">
        <ele>801.9</ele>
      </trkpt>
      <trkpt lat="42.73582" lon="-0.8148">
        <ele>802.2</ele>
      </trkpt>
      <trkpt lat="42.73576" lon="-0.81466">
        <ele>803.1</ele>
      </trkpt>
      <trkpt lat="42.73572" lon="-0.81455">
        <ele>803.6</ele>
      </trkpt>
      <trkpt lat="42.73567" lon="-0.81441">
        <ele>804.2</ele>
      </trkpt>
      <trkpt lat="42.73566" lon="-0.81426">
        <ele>805.4</ele>
      </trkpt>
      <trkpt lat="42.73566" lon="-0.81416">
        <ele>806.2</ele>
      </trkpt>
      <trkpt lat="42.73567" lon="-0.81405">
        <ele>806.2</ele>
      </trkpt>
      <trkpt lat="42.7357" lon="-0.81392">
        <ele>806.5</ele>
      </trkpt>
      <trkpt lat="42.73572" lon="-0.81383">
        <ele>806.6</ele>
      </trkpt>
      <trkpt lat="42.73578" lon="-0.8137">
        <ele>807</ele>
      </trkpt>
      <trkpt lat="42.73588" lon="-0.81357">
        <ele>808.3</ele>
      </trkpt>
      <trkpt lat="42.73605" lon="-0.81339">
        <ele>811.8</ele>
      </trkpt>
      <trkpt lat="42.73613" lon="-0.81332">
        <ele>813.5</ele>
      </trkpt>
      <trkpt lat="42.7362" lon="-0.81327">
        <ele>815.1</ele>
      </trkpt>
      <trkpt lat="42.73634" lon="-0.81321">
        <ele>817.9</ele>
      </trkpt>
      <trkpt lat="42.73646" lon="-0.81319">
        <ele>820.2</ele>
      </trkpt>
      <trkpt lat="42.7366" lon="-0.81317">
        <ele>822.7</ele>
      </trkpt>
      <trkpt lat="42.73674" lon="-0.81315">
        <ele>826.4</ele>
      </trkpt>
      <trkpt lat="42.73683" lon="-0.81313">
        <ele>829.4</ele>
      </trkpt>
      <trkpt lat="42.73694" lon="-0.81308">
        <ele>832.6</ele>
      </trkpt>
      <trkpt lat="42.73705" lon="-0.81298">
        <ele>834.9</ele>
      </trkpt>
      <trkpt lat="42.73715" lon="-0.81284">
        <ele>836.1</ele>
      </trkpt>
      <trkpt lat="42.73722" lon="-0.81269">
        <ele>836</ele>
      </trkpt>
      <trkpt lat="42.73732" lon="-0.8124">
        <ele>836.5</ele>
      </trkpt>
      <trkpt lat="42.73738" lon="-0.81225">
        <ele>838.6</ele>
      </trkpt>
      <trkpt lat="42.73743" lon="-0.81212">
        <ele>840.1</ele>
      </trkpt>
      <trkpt lat="42.73756" lon="-0.81187">
        <ele>845.8</ele>
      </trkpt>
      <trkpt lat="42.73763" lon="-0.81177">
        <ele>850.2</ele>
      </trkpt>
      <trkpt lat="42.73772" lon="-0.81163">
        <ele>855.7</ele>
      </trkpt>
      <trkpt lat="42.73788" lon="-0.81138">
        <ele>864.3</ele>
      </trkpt>
      <trkpt lat="42.73796" lon="-0.81127">
        <ele>867.8</ele>
      </trkpt>
      <trkpt lat="42.73802" lon="-0.81116">
        <ele>869.7</ele>
      </trkpt>
      <trkpt lat="42.73808" lon="-0.81106">
        <ele>871.2</ele>
      </trkpt>
      <trkpt lat="42.73813" lon="-0.81094">
        <ele>871.7</ele>
      </trkpt>
      <trkpt lat="42.73815" lon="-0.81082">
        <ele>870.5</ele>
      </trkpt>
      <trkpt lat="42.73815" lon="-0.81062">
        <ele>867</ele>
      </trkpt>
      <trkpt lat="42.73814" lon="-0.81047">
        <ele>864.1</ele>
      </trkpt>
      <trkpt lat="42.73814" lon="-0.81029">
        <ele>861</ele>
      </trkpt>
      <trkpt lat="42.73814" lon="-0.81009">
        <ele>857.5</ele>
      </trkpt>
      <trkpt lat="42.73814" lon="-0.80988">
        <ele>855.6</ele>
      </trkpt>
      <trkpt lat="42.73814" lon="-0.8098">
        <ele>855.3</ele>
      </trkpt>
      <trkpt lat="42.73815" lon="-0.80973">
        <ele>855</ele>
      </trkpt>
      <trkpt lat="42.73818" lon="-0.80965">
        <ele>854.3</ele>
      </trkpt>
      <trkpt lat="42.73825" lon="-0.80955">
        <ele>852.9</ele>
      </trkpt>
      <trkpt lat="42.73829" lon="-0.8095">
        <ele>851.9</ele>
      </trkpt>
      <trkpt lat="42.73834" lon="-0.80945">
        <ele>850.9</ele>
      </trkpt>
      <trkpt lat="42.73843" lon="-0.80938">
        <ele>852.1</ele>
      </trkpt>
      <trkpt lat="42.73877" lon="-0.80915">
        <ele>855.8</ele>
      </trkpt>
      <trkpt lat="42.73889" lon="-0.80903">
        <ele>857.3</ele>
      </trkpt>
      <trkpt lat="42.73902" lon="-0.80884">
        <ele>857.6</ele>
      </trkpt>
      <trkpt lat="42.73906" lon="-0.80876">
        <ele>857.3</ele>
      </trkpt>
      <trkpt lat="42.73923" lon="-0.80842">
        <ele>856.2</ele>
      </trkpt>
      <trkpt lat="42.73944" lon="-0.80794">
        <ele>857.3</ele>
      </trkpt>
      <trkpt lat="42.73954" lon="-0.80768">
        <ele>856</ele>
      </trkpt>
      <trkpt lat="42.7396" lon="-0.80743">
        <ele>854.2</ele>
      </trkpt>
      <trkpt lat="42.73962" lon="-0.8073">
        <ele>854.3</ele>
      </trkpt>
      <trkpt lat="42.73963" lon="-0.80707">
        <ele>854</ele>
      </trkpt>
      <trkpt lat="42.73957" lon="-0.80604">
        <ele>862.7</ele>
      </trkpt>
      <trkpt lat="42.73956" lon="-0.80566">
        <ele>867.5</ele>
      </trkpt>
      <trkpt lat="42.73954" lon="-0.80505">
        <ele>874.1</ele>
      </trkpt>
      <trkpt lat="42.73952" lon="-0.80453">
        <ele>875.7</ele>
      </trkpt>
      <trkpt lat="42.73952" lon="-0.80418">
        <ele>876.5</ele>
      </trkpt>
      <trkpt lat="42.73952" lon="-0.80394">
        <ele>877.2</ele>
      </trkpt>
      <trkpt lat="42.73952" lon="-0.80363">
        <ele>878.3</ele>
      </trkpt>
      <trkpt lat="42.73953" lon="-0.8032">
        <ele>879.1</ele>
      </trkpt>
      <trkpt lat="42.73956" lon="-0.80275">
        <ele>878.7</ele>
      </trkpt>
      <trkpt lat="42.73956" lon="-0.80261">
        <ele>878.4</ele>
      </trkpt>
      <trkpt lat="42.73956" lon="-0.80248">
        <ele>878.1</ele>
      </trkpt>
      <trkpt lat="42.73955" lon="-0.80236">
        <ele>878</ele>
      </trkpt>
      <trkpt lat="42.73953" lon="-0.80222">
        <ele>877.7</ele>
      </trkpt>
      <trkpt lat="42.73949" lon="-0.80207">
        <ele>877.2</ele>
      </trkpt>
      <trkpt lat="42.73938" lon="-0.8018">
        <ele>875.7</ele>
      </trkpt>
      <trkpt lat="42.73925" lon="-0.80152">
        <ele>875.9</ele>
      </trkpt>
      <trkpt lat="42.73912" lon="-0.80124">
        <ele>878.2</ele>
      </trkpt>
      <trkpt lat="42.73902" lon="-0.80101">
        <ele>881.1</ele>
      </trkpt>
      <trkpt lat="42.73896" lon="-0.80083">
        <ele>882.3</ele>
      </trkpt>
      <trkpt lat="42.73885" lon="-0.80039">
        <ele>882.9</ele>
      </trkpt>
      <trkpt lat="42.73875" lon="-0.79991">
        <ele>882.8</ele>
      </trkpt>
      <trkpt lat="42.7387" lon="-0.79953">
        <ele>883.7</ele>
      </trkpt>
      <trkpt lat="42.73867" lon="-0.79933">
        <ele>884.1</ele>
      </trkpt>
      <trkpt lat="42.73863" lon="-0.79889">
        <ele>886.5</ele>
      </trkpt>
      <trkpt lat="42.73861" lon="-0.79844">
        <ele>889.8</ele>
      </trkpt>
      <trkpt lat="42.73858" lon="-0.79798">
        <ele>890.1</ele>
      </trkpt>
      <trkpt lat="42.73857" lon="-0.79762">
        <ele>889.8</ele>
      </trkpt>
      <trkpt lat="42.73856" lon="-0.79743">
        <ele>890.3</ele>
      </trkpt>
      <trkpt lat="42.73854" lon="-0.79724">
        <ele>891.8</ele>
      </trkpt>
      <trkpt lat="42.73852" lon="-0.79711">
        <ele>892.6</ele>
      </trkpt>
      <trkpt lat="42.73847" lon="-0.79694">
        <ele>892.9</ele>
      </trkpt>
      <trkpt lat="42.73838" lon="-0.7967">
        <ele>892.3</ele>
      </trkpt>
      <trkpt lat="42.73821" lon="-0.79635">
        <ele>893.3</ele>
      </trkpt>
      <trkpt lat="42.73792" lon="-0.79578">
        <ele>894</ele>
      </trkpt>
      <trkpt lat="42.73766" lon="-0.79534">
        <ele>893.7</ele>
      </trkpt>
      <trkpt lat="42.7374" lon="-0.79494">
        <ele>898.3</ele>
      </trkpt>
      <trkpt lat="42.73689" lon="-0.79416">
        <ele>907.4</ele>
      </trkpt>
      <trkpt lat="42.73676" lon="-0.79397">
        <ele>908.9</ele>
      </trkpt>
      <trkpt lat="42.73662" lon="-0.79377">
        <ele>910.6</ele>
      </trkpt>
      <trkpt lat="42.73651" lon="-0.79362">
        <ele>912.7</ele>
      </trkpt>
      <trkpt lat="42.73634" lon="-0.79343">
        <ele>913.4</ele>
      </trkpt>
      <trkpt lat="42.73594" lon="-0.79289">
        <ele>914.3</ele>
      </trkpt>
      <trkpt lat="42.73591" lon="-0.79284">
        <ele>914.4</ele>
      </trkpt>
      <trkpt lat="42.73587" lon="-0.79278">
        <ele>914.4</ele>
      </trkpt>
      <trkpt lat="42.7358" lon="-0.79272">
        <ele>915</ele>
      </trkpt>
      <trkpt lat="42.73577" lon="-0.79269">
        <ele>915.9</ele>
      </trkpt>
      <trkpt lat="42.73571" lon="-0.79263">
        <ele>917.5</ele>
      </trkpt>
      <trkpt lat="42.73564" lon="-0.79255">
        <ele>919.2</ele>
      </trkpt>
      <trkpt lat="42.73557" lon="-0.79243">
        <ele>921.6</ele>
      </trkpt>
      <trkpt lat="42.73546" lon="-0.79218">
        <ele>925.5</ele>
      </trkpt>
      <trkpt lat="42.73538" lon="-0.79193">
        <ele>927.7</ele>
      </trkpt>
      <trkpt lat="42.73527" lon="-0.79154">
        <ele>930.9</ele>
      </trkpt>
      <trkpt lat="42.73517" lon="-0.79132">
        <ele>934.1</ele>
      </trkpt>
      <trkpt lat="42.73504" lon="-0.79112">
        <ele>935.8</ele>
      </trkpt>
      <trkpt lat="42.73493" lon="-0.79101">
        <ele>936.8</ele>
      </trkpt>
      <trkpt lat="42.73481" lon="-0.79092">
        <ele>937.5</ele>
      </trkpt>
      <trkpt lat="42.7347" lon="-0.79084">
        <ele>937.7</ele>
      </trkpt>
      <trkpt lat="42.73454" lon="-0.79074">
        <ele>938.9</ele>
      </trkpt>
      <trkpt lat="42.7344" lon="-0.79063">
        <ele>940.1</ele>
      </trkpt>
      <trkpt lat="42.73423" lon="-0.79049">
        <ele>940.6</ele>
      </trkpt>
      <trkpt lat="42.73403" lon="-0.79029">
        <ele>944.7</ele>
      </trkpt>
      <trkpt lat="42.73393" lon="-0.79012">
        <ele>947.6</ele>
      </trkpt>
      <trkpt lat="42.73384" lon="-0.78998">
        <ele>949.2</ele>
      </trkpt>
      <trkpt lat="42.73378" lon="-0.78984">
        <ele>951.5</ele>
      </trkpt>
      <trkpt lat="42.73373" lon="-0.78977">
        <ele>952.6</ele>
      </trkpt>
      <trkpt lat="42.73359" lon="-0.78965">
        <ele>954.2</ele>
      </trkpt>
      <trkpt lat="42.73351" lon="-0.78957">
        <ele>955.4</ele>
      </trkpt>
      <trkpt lat="42.73339" lon="-0.78944">
        <ele>957.3</ele>
      </trkpt>
      <trkpt lat="42.73311" lon="-0.78908">
        <ele>963.1</ele>
      </trkpt>
      <trkpt lat="42.73294" lon="-0.78893">
        <ele>965.6</ele>
      </trkpt>
      <trkpt lat="42.73272" lon="-0.78876">
        <ele>966.8</ele>
      </trkpt>
      <trkpt lat="42.73252" lon="-0.78863">
        <ele>966.3</ele>
      </trkpt>
      <trkpt lat="42.73224" lon="-0.78853">
        <ele>970.3</ele>
      </trkpt>
      <trkpt lat="42.73198" lon="-0.78844">
        <ele>973.4</ele>
      </trkpt>
      <trkpt lat="42.73176" lon="-0.7884">
        <ele>975.3</ele>
      </trkpt>
      <trkpt lat="42.73149" lon="-0.78838">
        <ele>981.6</ele>
      </trkpt>
      <trkpt lat="42.73141" lon="-0.78835">
        <ele>984.1</ele>
      </trkpt>
      <trkpt lat="42.73134" lon="-0.7883">
        <ele>986.6</ele>
      </trkpt>
      <trkpt lat="42.7313" lon="-0.78825">
        <ele>988.3</ele>
      </trkpt>
      <trkpt lat="42.73128" lon="-0.7882">
        <ele>989.3</ele>
      </trkpt>
      <trkpt lat="42.73127" lon="-0.78811">
        <ele>990.3</ele>
      </trkpt>
      <trkpt lat="42.73127" lon="-0.78806">
        <ele>990.7</ele>
      </trkpt>
      <trkpt lat="42.73129" lon="-0.78797">
        <ele>991.2</ele>
      </trkpt>
      <trkpt lat="42.73132" lon="-0.78794">
        <ele>991</ele>
      </trkpt>
      <trkpt lat="42.73137" lon="-0.78789">
        <ele>990.9</ele>
      </trkpt>
      <trkpt lat="42.73142" lon="-0.78788">
        <ele>990.5</ele>
      </trkpt>
      <trkpt lat="42.73149" lon="-0.78788">
        <ele>989.6</ele>
      </trkpt>
      <trkpt lat="42.73156" lon="-0.78791">
        <ele>988.1</ele>
      </trkpt>
      <trkpt lat="42.73163" lon="-0.78794">
        <ele>986.5</ele>
      </trkpt>
      <trkpt lat="42.73171" lon="-0.78797">
        <ele>985</ele>
      </trkpt>
      <trkpt lat="42.7318" lon="-0.78801">
        <ele>983.7</ele>
      </trkpt>
      <trkpt lat="42.73189" lon="-0.78805">
        <ele>982.4</ele>
      </trkpt>
      <trkpt lat="42.73198" lon="-0.78808">
        <ele>981.2</ele>
      </trkpt>
      <trkpt lat="42.73205" lon="-0.78808">
        <ele>980.9</ele>
      </trkpt>
      <trkpt lat="42.73215" lon="-0.78805">
        <ele>981.4</ele>
      </trkpt>
      <trkpt lat="42.73224" lon="-0.788">
        <ele>982.6</ele>
      </trkpt>
      <trkpt lat="42.73231" lon="-0.78791">
        <ele>985.2</ele>
      </trkpt>
      <trkpt lat="42.73241" lon="-0.78779">
        <ele>988.7</ele>
      </trkpt>
      <trkpt lat="42.73249" lon="-0.78769">
        <ele>991.9</ele>
      </trkpt>
      <trkpt lat="42.73258" lon="-0.78762">
        <ele>995.4</ele>
      </trkpt>
      <trkpt lat="42.73266" lon="-0.78761">
        <ele>997.1</ele>
      </trkpt>
      <trkpt lat="42.73274" lon="-0.78763">
        <ele>997.8</ele>
      </trkpt>
      <trkpt lat="42.73281" lon="-0.78769">
        <ele>997.1</ele>
      </trkpt>
      <trkpt lat="42.73287" lon="-0.78777">
        <ele>995.8</ele>
      </trkpt>
      <trkpt lat="42.73292" lon="-0.7879">
        <ele>992.8</ele>
      </trkpt>
      <trkpt lat="42.73299" lon="-0.7881">
        <ele>988.3</ele>
      </trkpt>
      <trkpt lat="42.73306" lon="-0.78829">
        <ele>984.3</ele>
      </trkpt>
      <trkpt lat="42.7331" lon="-0.78837">
        <ele>982.9</ele>
      </trkpt>
      <trkpt lat="42.73317" lon="-0.78843">
        <ele>982.6</ele>
      </trkpt>
      <trkpt lat="42.73334" lon="-0.78851">
        <ele>983.3</ele>
      </trkpt>
      <trkpt lat="42.73343" lon="-0.78854">
        <ele>982.1</ele>
      </trkpt>
      <trkpt lat="42.73351" lon="-0.78854">
        <ele>982</ele>
      </trkpt>
      <trkpt lat="42.7336" lon="-0.78851">
        <ele>982.7</ele>
      </trkpt>
      <trkpt lat="42.73366" lon="-0.78848">
        <ele>983.5</ele>
      </trkpt>
      <trkpt lat="42.73375" lon="-0.78839">
        <ele>985.9</ele>
      </trkpt>
      <trkpt lat="42.7339" lon="-0.78824">
        <ele>990</ele>
      </trkpt>
      <trkpt lat="42.73434" lon="-0.78777">
        <ele>1003.6</ele>
      </trkpt>
      <trkpt lat="42.73481" lon="-0.78723">
        <ele>1010.6</ele>
      </trkpt>
      <trkpt lat="42.73496" lon="-0.78709">
        <ele>1011.6</ele>
      </trkpt>
      <trkpt lat="42.73507" lon="-0.78704">
        <ele>1013.8</ele>
      </trkpt>
      <trkpt lat="42.73513" lon="-0.78702">
        <ele>1015.7</ele>
      </trkpt>
      <trkpt lat="42.73519" lon="-0.78702">
        <ele>1017</ele>
      </trkpt>
      <trkpt lat="42.73526" lon="-0.78705">
        <ele>1017.7</ele>
      </trkpt>
      <trkpt lat="42.73532" lon="-0.78708">
        <ele>1018.4</ele>
      </trkpt>
      <trkpt lat="42.73537" lon="-0.78712">
        <ele>1018.6</ele>
      </trkpt>
      <trkpt lat="42.73542" lon="-0.78719">
        <ele>1018.3</ele>
      </trkpt>
      <trkpt lat="42.73547" lon="-0.78726">
        <ele>1018.1</ele>
      </trkpt>
      <trkpt lat="42.7355" lon="-0.78734">
        <ele>1017.2</ele>
      </trkpt>
      <trkpt lat="42.73553" lon="-0.78746">
        <ele>1015.7</ele>
      </trkpt>
      <trkpt lat="42.73554" lon="-0.78754">
        <ele>1014.9</ele>
      </trkpt>
      <trkpt lat="42.73555" lon="-0.78767">
        <ele>1014.2</ele>
      </trkpt>
      <trkpt lat="42.73554" lon="-0.78782">
        <ele>1012.7</ele>
      </trkpt>
      <trkpt lat="42.73552" lon="-0.78805">
        <ele>1010.3</ele>
      </trkpt>
      <trkpt lat="42.73551" lon="-0.78821">
        <ele>1008.7</ele>
      </trkpt>
      <trkpt lat="42.73548" lon="-0.78848">
        <ele>1005.9</ele>
      </trkpt>
      <trkpt lat="42.73547" lon="-0.78866">
        <ele>1004.5</ele>
      </trkpt>
      <trkpt lat="42.73546" lon="-0.78884">
        <ele>1003.3</ele>
      </trkpt>
      <trkpt lat="42.73546" lon="-0.78895">
        <ele>1002.7</ele>
      </trkpt>
      <trkpt lat="42.73547" lon="-0.78902">
        <ele>1002.5</ele>
      </trkpt>
      <trkpt lat="42.73548" lon="-0.7891">
        <ele>1002.3</ele>
      </trkpt>
      <trkpt lat="42.73551" lon="-0.78916">
        <ele>1002.7</ele>
      </trkpt>
      <trkpt lat="42.73554" lon="-0.7892">
        <ele>1002.6</ele>
      </trkpt>
      <trkpt lat="42.73557" lon="-0.78922">
        <ele>1002.8</ele>
      </trkpt>
      <trkpt lat="42.73562" lon="-0.78923">
        <ele>1003.7</ele>
      </trkpt>
      <trkpt lat="42.73567" lon="-0.78921">
        <ele>1005.3</ele>
      </trkpt>
      <trkpt lat="42.73572" lon="-0.78918">
        <ele>1007.1</ele>
      </trkpt>
      <trkpt lat="42.73576" lon="-0.78914">
        <ele>1008.6</ele>
      </trkpt>
      <trkpt lat="42.73583" lon="-0.78903">
        <ele>1011.4</ele>
      </trkpt>
      <trkpt lat="42.73589" lon="-0.78892">
        <ele>1011.8</ele>
      </trkpt>
      <trkpt lat="42.73596" lon="-0.78878">
        <ele>1012.7</ele>
      </trkpt>
      <trkpt lat="42.73602" lon="-0.78863">
        <ele>1014.3</ele>
      </trkpt>
      <trkpt lat="42.73608" lon="-0.78851">
        <ele>1015.8</ele>
      </trkpt>
      <trkpt lat="42.73612" lon="-0.78844">
        <ele>1016.8</ele>
      </trkpt>
      <trkpt lat="42.73615" lon="-0.78838">
        <ele>1017.8</ele>
      </trkpt>
      <trkpt lat="42.73621" lon="-0.78831">
        <ele>1019</ele>
      </trkpt>
      <trkpt lat="42.73624" lon="-0.78827">
        <ele>1019.7</ele>
      </trkpt>
      <trkpt lat="42.73628" lon="-0.78824">
        <ele>1020.4</ele>
      </trkpt>
      <trkpt lat="42.73635" lon="-0.7882">
        <ele>1021.5</ele>
      </trkpt>
      <trkpt lat="42.73646" lon="-0.78813">
        <ele>1023.7</ele>
      </trkpt>
      <trkpt lat="42.73655" lon="-0.78809">
        <ele>1025.4</ele>
      </trkpt>
      <trkpt lat="42.73662" lon="-0.78803">
        <ele>1027.8</ele>
      </trkpt>
      <trkpt lat="42.73672" lon="-0.78793">
        <ele>1030.7</ele>
      </trkpt>
      <trkpt lat="42.73683" lon="-0.7878">
        <ele>1033.5</ele>
      </trkpt>
      <trkpt lat="42.73691" lon="-0.78769">
        <ele>1036.3</ele>
      </trkpt>
      <trkpt lat="42.73702" lon="-0.78754">
        <ele>1040.3</ele>
      </trkpt>
      <trkpt lat="42.73713" lon="-0.78741">
        <ele>1043.5</ele>
      </trkpt>
      <trkpt lat="42.73723" lon="-0.7873">
        <ele>1046.4</ele>
      </trkpt>
      <trkpt lat="42.73733" lon="-0.78721">
        <ele>1049</ele>
      </trkpt>
      <trkpt lat="42.73744" lon="-0.78714">
        <ele>1051</ele>
      </trkpt>
      <trkpt lat="42.73752" lon="-0.78711">
        <ele>1052</ele>
      </trkpt>
      <trkpt lat="42.73761" lon="-0.78711">
        <ele>1052.3</ele>
      </trkpt>
      <trkpt lat="42.73772" lon="-0.78712">
        <ele>1052.3</ele>
      </trkpt>
      <trkpt lat="42.73779" lon="-0.78713">
        <ele>1052.2</ele>
      </trkpt>
      <trkpt lat="42.73786" lon="-0.78715">
        <ele>1051.7</ele>
      </trkpt>
      <trkpt lat="42.73795" lon="-0.78716">
        <ele>1051.7</ele>
      </trkpt>
      <trkpt lat="42.73808" lon="-0.78717">
        <ele>1051.8</ele>
      </trkpt>
      <trkpt lat="42.73821" lon="-0.78716">
        <ele>1052.7</ele>
      </trkpt>
      <trkpt lat="42.73829" lon="-0.78716">
        <ele>1053.1</ele>
      </trkpt>
      <trkpt lat="42.73836" lon="-0.78717">
        <ele>1052.8</ele>
      </trkpt>
      <trkpt lat="42.73842" lon="-0.78719">
        <ele>1052</ele>
      </trkpt>
      <trkpt lat="42.73847" lon="-0.78722">
        <ele>1050.8</ele>
      </trkpt>
      <trkpt lat="42.73853" lon="-0.78726">
        <ele>1049.3</ele>
      </trkpt>
      <trkpt lat="42.73859" lon="-0.7873">
        <ele>1047.9</ele>
      </trkpt>
      <trkpt lat="42.73865" lon="-0.78734">
        <ele>1046.6</ele>
      </trkpt>
      <trkpt lat="42.73869" lon="-0.78736">
        <ele>1045.9</ele>
      </trkpt>
      <trkpt lat="42.73874" lon="-0.78737">
        <ele>1045.6</ele>
      </trkpt>
      <trkpt lat="42.7388" lon="-0.78738">
        <ele>1045.2</ele>
      </trkpt>
      <trkpt lat="42.73884" lon="-0.78736">
        <ele>1045.8</ele>
      </trkpt>
      <trkpt lat="42.73889" lon="-0.78733">
        <ele>1046.7</ele>
      </trkpt>
      <trkpt lat="42.73892" lon="-0.7873">
        <ele>1047.6</ele>
      </trkpt>
      <trkpt lat="42.73895" lon="-0.78724">
        <ele>1049.3</ele>
      </trkpt>
      <trkpt lat="42.739" lon="-0.78712">
        <ele>1052.6</ele>
      </trkpt>
      <trkpt lat="42.73906" lon="-0.78692">
        <ele>1057.9</ele>
      </trkpt>
      <trkpt lat="42.73918" lon="-0.78664">
        <ele>1064.1</ele>
      </trkpt>
      <trkpt lat="42.73925" lon="-0.78653">
        <ele>1064.2</ele>
      </trkpt>
      <trkpt lat="42.73931" lon="-0.78643">
        <ele>1064.4</ele>
      </trkpt>
      <trkpt lat="42.73942" lon="-0.78628">
        <ele>1064.1</ele>
      </trkpt>
      <trkpt lat="42.73949" lon="-0.78618">
        <ele>1064.1</ele>
      </trkpt>
      <trkpt lat="42.73954" lon="-0.78611">
        <ele>1064.2</ele>
      </trkpt>
      <trkpt lat="42.73957" lon="-0.78605">
        <ele>1064.6</ele>
      </trkpt>
      <trkpt lat="42.73962" lon="-0.78595">
        <ele>1065.4</ele>
      </trkpt>
      <trkpt lat="42.73967" lon="-0.78582">
        <ele>1066.8</ele>
      </trkpt>
      <trkpt lat="42.73973" lon="-0.78562">
        <ele>1066.4</ele>
      </trkpt>
      <trkpt lat="42.73977" lon="-0.78549">
        <ele>1066.5</ele>
      </trkpt>
      <trkpt lat="42.73982" lon="-0.78534">
        <ele>1067</ele>
      </trkpt>
      <trkpt lat="42.73986" lon="-0.78524">
        <ele>1067.4</ele>
      </trkpt>
      <trkpt lat="42.73991" lon="-0.78513">
        <ele>1068.1</ele>
      </trkpt>
      <trkpt lat="42.73997" lon="-0.78501">
        <ele>1069.1</ele>
      </trkpt>
      <trkpt lat="42.74008" lon="-0.78481">
        <ele>1066.7</ele>
      </trkpt>
      <trkpt lat="42.74019" lon="-0.78462">
        <ele>1064.9</ele>
      </trkpt>
      <trkpt lat="42.74025" lon="-0.78454">
        <ele>1064.5</ele>
      </trkpt>
      <trkpt lat="42.74029" lon="-0.78448">
        <ele>1064.3</ele>
      </trkpt>
      <trkpt lat="42.74033" lon="-0.78443">
        <ele>1064.2</ele>
      </trkpt>
      <trkpt lat="42.74036" lon="-0.7844">
        <ele>1064.2</ele>
      </trkpt>
      <trkpt lat="42.74039" lon="-0.78437">
        <ele>1064.3</ele>
      </trkpt>
      <trkpt lat="42.74044" lon="-0.78433">
        <ele>1064.4</ele>
      </trkpt>
      <trkpt lat="42.74048" lon="-0.78429">
        <ele>1064.7</ele>
      </trkpt>
      <trkpt lat="42.74054" lon="-0.78426">
        <ele>1065</ele>
      </trkpt>
      <trkpt lat="42.74061" lon="-0.78421">
        <ele>1065.6</ele>
      </trkpt>
      <trkpt lat="42.74068" lon="-0.78419">
        <ele>1066</ele>
      </trkpt>
      <trkpt lat="42.74075" lon="-0.78416">
        <ele>1066.5</ele>
      </trkpt>
      <trkpt lat="42.74086" lon="-0.78413">
        <ele>1066.7</ele>
      </trkpt>
      <trkpt lat="42.74108" lon="-0.78405">
        <ele>1068.2</ele>
      </trkpt>
      <trkpt lat="42.74125" lon="-0.78397">
        <ele>1069.8</ele>
      </trkpt>
      <trkpt lat="42.74135" lon="-0.78391">
        <ele>1071.1</ele>
      </trkpt>
      <trkpt lat="42.7414" lon="-0.78387">
        <ele>1071.8</ele>
      </trkpt>
      <trkpt lat="42.74144" lon="-0.78383">
        <ele>1072.5</ele>
      </trkpt>
      <trkpt lat="42.74149" lon="-0.78377">
        <ele>1073.4</ele>
      </trkpt>
      <trkpt lat="42.74153" lon="-0.78372">
        <ele>1074.3</ele>
      </trkpt>
      <trkpt lat="42.74157" lon="-0.78364">
        <ele>1075.3</ele>
      </trkpt>
      <trkpt lat="42.74163" lon="-0.78351">
        <ele>1077.2</ele>
      </trkpt>
      <trkpt lat="42.74166" lon="-0.78343">
        <ele>1078.3</ele>
      </trkpt>
      <trkpt lat="42.74176" lon="-0.78298">
        <ele>1078.6</ele>
      </trkpt>
      <trkpt lat="42.7418" lon="-0.78275">
        <ele>1077.5</ele>
      </trkpt>
      <trkpt lat="42.74184" lon="-0.78254">
        <ele>1076.5</ele>
      </trkpt>
      <trkpt lat="42.74187" lon="-0.78232">
        <ele>1075.8</ele>
      </trkpt>
      <trkpt lat="42.7419" lon="-0.78214">
        <ele>1075.1</ele>
      </trkpt>
      <trkpt lat="42.74193" lon="-0.78207">
        <ele>1074.9</ele>
      </trkpt>
      <trkpt lat="42.74197" lon="-0.78202">
        <ele>1074.8</ele>
      </trkpt>
      <trkpt lat="42.74201" lon="-0.78198">
        <ele>1074.7</ele>
      </trkpt>
      <trkpt lat="42.74206" lon="-0.78197">
        <ele>1074.9</ele>
      </trkpt>
      <trkpt lat="42.74211" lon="-0.78196">
        <ele>1075</ele>
      </trkpt>
      <trkpt lat="42.74216" lon="-0.78198">
        <ele>1075.6</ele>
      </trkpt>
      <trkpt lat="42.74221" lon="-0.782">
        <ele>1076.2</ele>
      </trkpt>
      <trkpt lat="42.74226" lon="-0.78203">
        <ele>1077.2</ele>
      </trkpt>
      <trkpt lat="42.74262" lon="-0.78227">
        <ele>1082.2</ele>
      </trkpt>
      <trkpt lat="42.74283" lon="-0.78241">
        <ele>1080.7</ele>
      </trkpt>
      <trkpt lat="42.74332" lon="-0.7827">
        <ele>1077.8</ele>
      </trkpt>
      <trkpt lat="42.74359" lon="-0.78283">
        <ele>1080.3</ele>
      </trkpt>
      <trkpt lat="42.74368" lon="-0.78286">
        <ele>1080.9</ele>
      </trkpt>
      <trkpt lat="42.74379" lon="-0.78288">
        <ele>1081</ele>
      </trkpt>
      <trkpt lat="42.74386" lon="-0.78287">
        <ele>1080.3</ele>
      </trkpt>
      <trkpt lat="42.74394" lon="-0.78283">
        <ele>1078.5</ele>
      </trkpt>
      <trkpt lat="42.74406" lon="-0.78272">
        <ele>1073.8</ele>
      </trkpt>
      <trkpt lat="42.74419" lon="-0.78259">
        <ele>1069</ele>
      </trkpt>
      <trkpt lat="42.74426" lon="-0.78253">
        <ele>1068.9</ele>
      </trkpt>
      <trkpt lat="42.7444" lon="-0.78245">
        <ele>1070.5</ele>
      </trkpt>
      <trkpt lat="42.74451" lon="-0.78239">
        <ele>1072.1</ele>
      </trkpt>
      <trkpt lat="42.7446" lon="-0.78231">
        <ele>1072.8</ele>
      </trkpt>
      <trkpt lat="42.74465" lon="-0.78224">
        <ele>1072.6</ele>
      </trkpt>
      <trkpt lat="42.74471" lon="-0.78213">
        <ele>1071.9</ele>
      </trkpt>
      <trkpt lat="42.74474" lon="-0.78198">
        <ele>1069.3</ele>
      </trkpt>
      <trkpt lat="42.74475" lon="-0.78187">
        <ele>1066.9</ele>
      </trkpt>
      <trkpt lat="42.74473" lon="-0.78176">
        <ele>1063.4</ele>
      </trkpt>
      <trkpt lat="42.7447" lon="-0.78168">
        <ele>1060</ele>
      </trkpt>
      <trkpt lat="42.74465" lon="-0.78151">
        <ele>1055.2</ele>
      </trkpt>
      <trkpt lat="42.74456" lon="-0.78124">
        <ele>1047.7</ele>
      </trkpt>
      <trkpt lat="42.7445" lon="-0.78103">
        <ele>1042.6</ele>
      </trkpt>
      <trkpt lat="42.74448" lon="-0.78096">
        <ele>1040.9</ele>
      </trkpt>
      <trkpt lat="42.74448" lon="-0.78089">
        <ele>1040</ele>
      </trkpt>
      <trkpt lat="42.74448" lon="-0.78083">
        <ele>1039.2</ele>
      </trkpt>
      <trkpt lat="42.7445" lon="-0.78079">
        <ele>1039.2</ele>
      </trkpt>
      <trkpt lat="42.74452" lon="-0.78075">
        <ele>1039.1</ele>
      </trkpt>
      <trkpt lat="42.74455" lon="-0.78073">
        <ele>1039.7</ele>
      </trkpt>
      <trkpt lat="42.74461" lon="-0.7807">
        <ele>1041.1</ele>
      </trkpt>
      <trkpt lat="42.74469" lon="-0.7807">
        <ele>1043.6</ele>
      </trkpt>
      <trkpt lat="42.74476" lon="-0.78069">
        <ele>1045.6</ele>
      </trkpt>
      <trkpt lat="42.74483" lon="-0.78069">
        <ele>1047.8</ele>
      </trkpt>
      <trkpt lat="42.74489" lon="-0.78067">
        <ele>1049.1</ele>
      </trkpt>
      <trkpt lat="42.74495" lon="-0.78065">
        <ele>1050.3</ele>
      </trkpt>
      <trkpt lat="42.74501" lon="-0.78061">
        <ele>1050.6</ele>
      </trkpt>
      <trkpt lat="42.74524" lon="-0.78032">
        <ele>1042.9</ele>
      </trkpt>
      <trkpt lat="42.74549" lon="-0.77987">
        <ele>1030.1</ele>
      </trkpt>
      <trkpt lat="42.74562" lon="-0.7797">
        <ele>1025.8</ele>
      </trkpt>
      <trkpt lat="42.74566" lon="-0.77965">
        <ele>1024.5</ele>
      </trkpt>
      <trkpt lat="42.74572" lon="-0.77962">
        <ele>1023.9</ele>
      </trkpt>
      <trkpt lat="42.74576" lon="-0.77961">
        <ele>1023.9</ele>
      </trkpt>
      <trkpt lat="42.74582" lon="-0.77961">
        <ele>1024.3</ele>
      </trkpt>
      <trkpt lat="42.74586" lon="-0.77963">
        <ele>1024.5</ele>
      </trkpt>
      <trkpt lat="42.7459" lon="-0.77967">
        <ele>1025</ele>
      </trkpt>
      <trkpt lat="42.74594" lon="-0.77972">
        <ele>1025.8</ele>
      </trkpt>
      <trkpt lat="42.74603" lon="-0.77991">
        <ele>1029.8</ele>
      </trkpt>
      <trkpt lat="42.74606" lon="-0.77997">
        <ele>1030.9</ele>
      </trkpt>
      <trkpt lat="42.7461" lon="-0.78005">
        <ele>1032.6</ele>
      </trkpt>
      <trkpt lat="42.74614" lon="-0.7801">
        <ele>1033.4</ele>
      </trkpt>
      <trkpt lat="42.7462" lon="-0.78017">
        <ele>1034.4</ele>
      </trkpt>
      <trkpt lat="42.74625" lon="-0.78021">
        <ele>1034.5</ele>
      </trkpt>
      <trkpt lat="42.74632" lon="-0.78025">
        <ele>1034.2</ele>
      </trkpt>
      <trkpt lat="42.74646" lon="-0.78029">
        <ele>1032.3</ele>
      </trkpt>
      <trkpt lat="42.74664" lon="-0.78035">
        <ele>1030</ele>
      </trkpt>
      <trkpt lat="42.74674" lon="-0.78039">
        <ele>1030.2</ele>
      </trkpt>
      <trkpt lat="42.74688" lon="-0.78046">
        <ele>1031.4</ele>
      </trkpt>
      <trkpt lat="42.74718" lon="-0.78055">
        <ele>1031.5</ele>
      </trkpt>
      <trkpt lat="42.74728" lon="-0.78057">
        <ele>1031.2</ele>
      </trkpt>
      <trkpt lat="42.74739" lon="-0.78057">
        <ele>1030.3</ele>
      </trkpt>
      <trkpt lat="42.74746" lon="-0.78056">
        <ele>1029.4</ele>
      </trkpt>
      <trkpt lat="42.74752" lon="-0.78054">
        <ele>1029.1</ele>
      </trkpt>
      <trkpt lat="42.74756" lon="-0.7805">
        <ele>1029.1</ele>
      </trkpt>
      <trkpt lat="42.7476" lon="-0.78046">
        <ele>1029.2</ele>
      </trkpt>
      <trkpt lat="42.74762" lon="-0.78041">
        <ele>1028.8</ele>
      </trkpt>
      <trkpt lat="42.74764" lon="-0.78033">
        <ele>1027.8</ele>
      </trkpt>
      <trkpt lat="42.74765" lon="-0.78026">
        <ele>1026.8</ele>
      </trkpt>
      <trkpt lat="42.74764" lon="-0.7802">
        <ele>1025.5</ele>
      </trkpt>
      <trkpt lat="42.74763" lon="-0.78012">
        <ele>1023.7</ele>
      </trkpt>
      <trkpt lat="42.74751" lon="-0.77971">
        <ele>1017</ele>
      </trkpt>
      <trkpt lat="42.74743" lon="-0.77945">
        <ele>1015.4</ele>
      </trkpt>
      <trkpt lat="42.74733" lon="-0.77919">
        <ele>1012.5</ele>
      </trkpt>
      <trkpt lat="42.7472" lon="-0.77891">
        <ele>1008.7</ele>
      </trkpt>
      <trkpt lat="42.74706" lon="-0.77863">
        <ele>1003.4</ele>
      </trkpt>
      <trkpt lat="42.74697" lon="-0.7784">
        <ele>998.8</ele>
      </trkpt>
      <trkpt lat="42.74695" lon="-0.77831">
        <ele>997.1</ele>
      </trkpt>
      <trkpt lat="42.74694" lon="-0.77822">
        <ele>995</ele>
      </trkpt>
      <trkpt lat="42.74695" lon="-0.77812">
        <ele>993.4</ele>
      </trkpt>
      <trkpt lat="42.74696" lon="-0.77806">
        <ele>992.6</ele>
      </trkpt>
      <trkpt lat="42.74698" lon="-0.778">
        <ele>992.1</ele>
      </trkpt>
      <trkpt lat="42.747" lon="-0.77795">
        <ele>991.8</ele>
      </trkpt>
      <trkpt lat="42.74703" lon="-0.7779">
        <ele>991.7</ele>
      </trkpt>
      <trkpt lat="42.74709" lon="-0.7778">
        <ele>991.5</ele>
      </trkpt>
      <trkpt lat="42.74714" lon="-0.77773">
        <ele>991.5</ele>
      </trkpt>
      <trkpt lat="42.7472" lon="-0.77767">
        <ele>991.9</ele>
      </trkpt>
      <trkpt lat="42.74726" lon="-0.77764">
        <ele>992.9</ele>
      </trkpt>
      <trkpt lat="42.74733" lon="-0.77761">
        <ele>994.2</ele>
      </trkpt>
      <trkpt lat="42.74739" lon="-0.77759">
        <ele>995.3</ele>
      </trkpt>
      <trkpt lat="42.74747" lon="-0.77759">
        <ele>997.5</ele>
      </trkpt>
      <trkpt lat="42.74753" lon="-0.77759">
        <ele>998.8</ele>
      </trkpt>
      <trkpt lat="42.7476" lon="-0.77759">
        <ele>999.8</ele>
      </trkpt>
      <trkpt lat="42.74766" lon="-0.77758">
        <ele>1000.4</ele>
      </trkpt>
      <trkpt lat="42.74777" lon="-0.77759">
        <ele>1002.2</ele>
      </trkpt>
      <trkpt lat="42.74781" lon="-0.77757">
        <ele>1002.2</ele>
      </trkpt>
      <trkpt lat="42.74788" lon="-0.77756">
        <ele>1003</ele>
      </trkpt>
      <trkpt lat="42.74791" lon="-0.77753">
        <ele>1002.6</ele>
      </trkpt>
      <trkpt lat="42.74796" lon="-0.77749">
        <ele>1002.5</ele>
      </trkpt>
      <trkpt lat="42.74799" lon="-0.77744">
        <ele>1002.3</ele>
      </trkpt>
      <trkpt lat="42.74801" lon="-0.77738">
        <ele>1001.8</ele>
      </trkpt>
      <trkpt lat="42.74802" lon="-0.77732">
        <ele>1001.2</ele>
      </trkpt>
      <trkpt lat="42.74802" lon="-0.77723">
        <ele>1000</ele>
      </trkpt>
      <trkpt lat="42.74801" lon="-0.77718">
        <ele>999.2</ele>
      </trkpt>
      <trkpt lat="42.748" lon="-0.77712">
        <ele>998.2</ele>
      </trkpt>
      <trkpt lat="42.74781" lon="-0.77681">
        <ele>989.5</ele>
      </trkpt>
      <trkpt lat="42.74779" lon="-0.77677">
        <ele>988.3</ele>
      </trkpt>
      <trkpt lat="42.74779" lon="-0.77671">
        <ele>987.4</ele>
      </trkpt>
      <trkpt lat="42.74779" lon="-0.77665">
        <ele>986.7</ele>
      </trkpt>
      <trkpt lat="42.74779" lon="-0.77659">
        <ele>986.8</ele>
      </trkpt>
      <trkpt lat="42.74781" lon="-0.77652">
        <ele>987.3</ele>
      </trkpt>
      <trkpt lat="42.74786" lon="-0.77644">
        <ele>988.4</ele>
      </trkpt>
      <trkpt lat="42.74796" lon="-0.77632">
        <ele>989.8</ele>
      </trkpt>
      <trkpt lat="42.74818" lon="-0.77607">
        <ele>990.5</ele>
      </trkpt>
      <trkpt lat="42.74823" lon="-0.776">
        <ele>990.1</ele>
      </trkpt>
      <trkpt lat="42.74824" lon="-0.77594">
        <ele>989.3</ele>
      </trkpt>
      <trkpt lat="42.74824" lon="-0.77587">
        <ele>988.5</ele>
      </trkpt>
      <trkpt lat="42.74823" lon="-0.7758">
        <ele>988.8</ele>
      </trkpt>
      <trkpt lat="42.7482" lon="-0.77574">
        <ele>990.2</ele>
      </trkpt>
      <trkpt lat="42.74816" lon="-0.77571">
        <ele>991</ele>
      </trkpt>
      <trkpt lat="42.7481" lon="-0.77568">
        <ele>991.9</ele>
      </trkpt>
      <trkpt lat="42.74799" lon="-0.77568">
        <ele>992.2</ele>
      </trkpt>
      <trkpt lat="42.74783" lon="-0.77573">
        <ele>991.1</ele>
      </trkpt>
      <trkpt lat="42.74762" lon="-0.77584">
        <ele>988</ele>
      </trkpt>
      <trkpt lat="42.74741" lon="-0.77598">
        <ele>987.7</ele>
      </trkpt>
      <trkpt lat="42.74708" lon="-0.77625">
        <ele>985.3</ele>
      </trkpt>
      <trkpt lat="42.74665" lon="-0.77663">
        <ele>971.6</ele>
      </trkpt>
      <trkpt lat="42.74643" lon="-0.77681">
        <ele>971.4</ele>
      </trkpt>
      <trkpt lat="42.74627" lon="-0.77692">
        <ele>971</ele>
      </trkpt>
      <trkpt lat="42.74614" lon="-0.77699">
        <ele>970.2</ele>
      </trkpt>
      <trkpt lat="42.74607" lon="-0.77702">
        <ele>969.6</ele>
      </trkpt>
      <trkpt lat="42.746" lon="-0.77703">
        <ele>969.2</ele>
      </trkpt>
      <trkpt lat="42.74592" lon="-0.77704">
        <ele>968.7</ele>
      </trkpt>
      <trkpt lat="42.74573" lon="-0.77704">
        <ele>967.2</ele>
      </trkpt>
      <trkpt lat="42.74547" lon="-0.77704">
        <ele>964</ele>
      </trkpt>
      <trkpt lat="42.74528" lon="-0.77703">
        <ele>961.9</ele>
      </trkpt>
      <trkpt lat="42.74497" lon="-0.77701">
        <ele>958.6</ele>
      </trkpt>
      <trkpt lat="42.7448" lon="-0.777">
        <ele>958.1</ele>
      </trkpt>
      <trkpt lat="42.7446" lon="-0.77702">
        <ele>957.3</ele>
      </trkpt>
      <trkpt lat="42.74443" lon="-0.77705">
        <ele>956.5</ele>
      </trkpt>
      <trkpt lat="42.7443" lon="-0.77707">
        <ele>956</ele>
      </trkpt>
      <trkpt lat="42.74416" lon="-0.77707">
        <ele>955.5</ele>
      </trkpt>
      <trkpt lat="42.74401" lon="-0.77703">
        <ele>954.3</ele>
      </trkpt>
      <trkpt lat="42.74386" lon="-0.77697">
        <ele>952.9</ele>
      </trkpt>
      <trkpt lat="42.7437" lon="-0.77689">
        <ele>951</ele>
      </trkpt>
      <trkpt lat="42.74364" lon="-0.77686">
        <ele>950.2</ele>
      </trkpt>
      <trkpt lat="42.74356" lon="-0.77681">
        <ele>949.1</ele>
      </trkpt>
      <trkpt lat="42.7435" lon="-0.77676">
        <ele>948</ele>
      </trkpt>
      <trkpt lat="42.74341" lon="-0.77668">
        <ele>946.3</ele>
      </trkpt>
      <trkpt lat="42.74331" lon="-0.77657">
        <ele>947.8</ele>
      </trkpt>
      <trkpt lat="42.74321" lon="-0.7765">
        <ele>949</ele>
      </trkpt>
      <trkpt lat="42.74313" lon="-0.77644">
        <ele>950</ele>
      </trkpt>
      <trkpt lat="42.74299" lon="-0.77637">
        <ele>950.4</ele>
      </trkpt>
      <trkpt lat="42.74283" lon="-0.77632">
        <ele>949.7</ele>
      </trkpt>
      <trkpt lat="42.74263" lon="-0.77627">
        <ele>948.3</ele>
      </trkpt>
      <trkpt lat="42.74245" lon="-0.77622">
        <ele>946.7</ele>
      </trkpt>
      <trkpt lat="42.74226" lon="-0.77613">
        <ele>944.7</ele>
      </trkpt>
      <trkpt lat="42.74201" lon="-0.776">
        <ele>940.8</ele>
      </trkpt>
      <trkpt lat="42.74185" lon="-0.77593">
        <ele>937.5</ele>
      </trkpt>
      <trkpt lat="42.74168" lon="-0.77587">
        <ele>933.5</ele>
      </trkpt>
      <trkpt lat="42.74149" lon="-0.77582">
        <ele>930.6</ele>
      </trkpt>
      <trkpt lat="42.74133" lon="-0.77579">
        <ele>928.5</ele>
      </trkpt>
      <trkpt lat="42.74108" lon="-0.77574">
        <ele>924.9</ele>
      </trkpt>
      <trkpt lat="42.74096" lon="-0.77567">
        <ele>923.3</ele>
      </trkpt>
      <trkpt lat="42.74085" lon="-0.77556">
        <ele>921.6</ele>
      </trkpt>
      <trkpt lat="42.74075" lon="-0.77543">
        <ele>922</ele>
      </trkpt>
      <trkpt lat="42.74026" lon="-0.77474">
        <ele>922</ele>
      </trkpt>
      <trkpt lat="42.74001" lon="-0.77435">
        <ele>920</ele>
      </trkpt>
      <trkpt lat="42.7399" lon="-0.77408">
        <ele>921.8</ele>
      </trkpt>
      <trkpt lat="42.73981" lon="-0.77372">
        <ele>924.4</ele>
      </trkpt>
      <trkpt lat="42.73977" lon="-0.77337">
        <ele>925.7</ele>
      </trkpt>
      <trkpt lat="42.73972" lon="-0.773">
        <ele>926.1</ele>
      </trkpt>
      <trkpt lat="42.73967" lon="-0.77274">
        <ele>925.9</ele>
      </trkpt>
      <trkpt lat="42.73959" lon="-0.77247">
        <ele>924.8</ele>
      </trkpt>
      <trkpt lat="42.73939" lon="-0.7719">
        <ele>920</ele>
      </trkpt>
      <trkpt lat="42.73925" lon="-0.77153">
        <ele>914.4</ele>
      </trkpt>
      <trkpt lat="42.73911" lon="-0.77117">
        <ele>911.9</ele>
      </trkpt>
      <trkpt lat="42.739" lon="-0.77092">
        <ele>913.8</ele>
      </trkpt>
      <trkpt lat="42.73892" lon="-0.77074">
        <ele>915.4</ele>
      </trkpt>
      <trkpt lat="42.73878" lon="-0.77045">
        <ele>917.2</ele>
      </trkpt>
      <trkpt lat="42.73874" lon="-0.77036">
        <ele>917.1</ele>
      </trkpt>
      <trkpt lat="42.7387" lon="-0.77024">
        <ele>916.6</ele>
      </trkpt>
      <trkpt lat="42.73868" lon="-0.77011">
        <ele>915.8</ele>
      </trkpt>
      <trkpt lat="42.73865" lon="-0.76988">
        <ele>914.3</ele>
      </trkpt>
      <trkpt lat="42.73864" lon="-0.76965">
        <ele>913</ele>
      </trkpt>
      <trkpt lat="42.73863" lon="-0.76936">
        <ele>911.4</ele>
      </trkpt>
      <trkpt lat="42.7386" lon="-0.76874">
        <ele>907.8</ele>
      </trkpt>
      <trkpt lat="42.73856" lon="-0.76827">
        <ele>904.2</ele>
      </trkpt>
      <trkpt lat="42.73855" lon="-0.76811">
        <ele>902.6</ele>
      </trkpt>
      <trkpt lat="42.73852" lon="-0.76794">
        <ele>900.2</ele>
      </trkpt>
      <trkpt lat="42.73847" lon="-0.76769">
        <ele>896</ele>
      </trkpt>
      <trkpt lat="42.73844" lon="-0.76757">
        <ele>893.6</ele>
      </trkpt>
      <trkpt lat="42.73842" lon="-0.76751">
        <ele>892.2</ele>
      </trkpt>
      <trkpt lat="42.7384" lon="-0.76739">
        <ele>890.7</ele>
      </trkpt>
      <trkpt lat="42.73838" lon="-0.76714">
        <ele>888.9</ele>
      </trkpt>
      <trkpt lat="42.73837" lon="-0.76672">
        <ele>887</ele>
      </trkpt>
      <trkpt lat="42.73837" lon="-0.76613">
        <ele>887.7</ele>
      </trkpt>
      <trkpt lat="42.73834" lon="-0.76552">
        <ele>884.9</ele>
      </trkpt>
      <trkpt lat="42.73829" lon="-0.765">
        <ele>882.2</ele>
      </trkpt>
      <trkpt lat="42.73825" lon="-0.76472">
        <ele>880.6</ele>
      </trkpt>
      <trkpt lat="42.73822" lon="-0.76457">
        <ele>879.5</ele>
      </trkpt>
      <trkpt lat="42.73817" lon="-0.76442">
        <ele>878.2</ele>
      </trkpt>
      <trkpt lat="42.73814" lon="-0.76435">
        <ele>877.4</ele>
      </trkpt>
      <trkpt lat="42.73809" lon="-0.76425">
        <ele>876.1</ele>
      </trkpt>
      <trkpt lat="42.73803" lon="-0.76416">
        <ele>874.6</ele>
      </trkpt>
      <trkpt lat="42.73797" lon="-0.76406">
        <ele>872.9</ele>
      </trkpt>
      <trkpt lat="42.73793" lon="-0.76397">
        <ele>871.4</ele>
      </trkpt>
      <trkpt lat="42.73788" lon="-0.76384">
        <ele>869.4</ele>
      </trkpt>
      <trkpt lat="42.73777" lon="-0.76332">
        <ele>862.5</ele>
      </trkpt>
      <trkpt lat="42.73773" lon="-0.76313">
        <ele>861.3</ele>
      </trkpt>
      <trkpt lat="42.73766" lon="-0.76279">
        <ele>858.8</ele>
      </trkpt>
      <trkpt lat="42.73756" lon="-0.7625">
        <ele>855.9</ele>
      </trkpt>
      <trkpt lat="42.73745" lon="-0.76218">
        <ele>854.6</ele>
      </trkpt>
      <trkpt lat="42.73729" lon="-0.7618">
        <ele>854.4</ele>
      </trkpt>
      <trkpt lat="42.73711" lon="-0.76129">
        <ele>854.6</ele>
      </trkpt>
      <trkpt lat="42.73685" lon="-0.76054">
        <ele>852.2</ele>
      </trkpt>
      <trkpt lat="42.73672" lon="-0.76011">
        <ele>850.5</ele>
      </trkpt>
      <trkpt lat="42.73656" lon="-0.75965">
        <ele>853.2</ele>
      </trkpt>
      <trkpt lat="42.73644" lon="-0.75928">
        <ele>855</ele>
      </trkpt>
      <trkpt lat="42.73632" lon="-0.75896">
        <ele>855.4</ele>
      </trkpt>
      <trkpt lat="42.73592" lon="-0.75785">
        <ele>849.7</ele>
      </trkpt>
      <trkpt lat="42.73555" lon="-0.75682">
        <ele>850.7</ele>
      </trkpt>
      <trkpt lat="42.73531" lon="-0.75604">
        <ele>844.6</ele>
      </trkpt>
      <trkpt lat="42.73516" lon="-0.75534">
        <ele>836.6</ele>
      </trkpt>
      <trkpt lat="42.73509" lon="-0.75481">
        <ele>832</ele>
      </trkpt>
      <trkpt lat="42.73508" lon="-0.75463">
        <ele>831</ele>
      </trkpt>
      <trkpt lat="42.7351" lon="-0.7544">
        <ele>830.8</ele>
      </trkpt>
      <trkpt lat="42.73515" lon="-0.75424">
        <ele>831.7</ele>
      </trkpt>
      <trkpt lat="42.73529" lon="-0.75389">
        <ele>832</ele>
      </trkpt>
      <trkpt lat="42.73575" lon="-0.75306">
        <ele>828.5</ele>
      </trkpt>
      <trkpt lat="42.73579" lon="-0.75299">
        <ele>828</ele>
      </trkpt>
      <trkpt lat="42.73581" lon="-0.75288">
        <ele>826.8</ele>
      </trkpt>
      <trkpt lat="42.73582" lon="-0.75279">
        <ele>825.7</ele>
      </trkpt>
      <trkpt lat="42.73583" lon="-0.75269">
        <ele>824.5</ele>
      </trkpt>
      <trkpt lat="42.73574" lon="-0.75181">
        <ele>816</ele>
      </trkpt>
      <trkpt lat="42.73574" lon="-0.75181">
        <ele>816</ele>
      </trkpt>
      <trkpt lat="42.73504" lon="-0.75201">
        <ele>815.8</ele>
      </trkpt>
      <trkpt lat="42.73322" lon="-0.75249">
        <ele>815.5</ele>
      </trkpt>
      <trkpt lat="42.73291" lon="-0.75256">
        <ele>814</ele>
      </trkpt>
      <trkpt lat="42.73291" lon="-0.75256">
        <ele>814</ele>
      </trkpt>
      <trkpt lat="42.73286" lon="-0.7525">
        <ele>813.7</ele>
      </trkpt>
      <trkpt lat="42.73283" lon="-0.75248">
        <ele>813.6</ele>
      </trkpt>
      <trkpt lat="42.7328" lon="-0.75246">
        <ele>813.5</ele>
      </trkpt>
      <trkpt lat="42.73277" lon="-0.75246">
        <ele>813.3</ele>
      </trkpt>
      <trkpt lat="42.73271" lon="-0.75245">
        <ele>813.1</ele>
      </trkpt>
      <trkpt lat="42.7326" lon="-0.7524">
        <ele>812.6</ele>
      </trkpt>
      <trkpt lat="42.73255" lon="-0.75235">
        <ele>812.4</ele>
      </trkpt>
      <trkpt lat="42.73249" lon="-0.75231">
        <ele>812.2</ele>
      </trkpt>
      <trkpt lat="42.73184" lon="-0.75151">
        <ele>806.8</ele>
      </trkpt>
      <trkpt lat="42.73179" lon="-0.75145">
        <ele>806.3</ele>
      </trkpt>
      <trkpt lat="42.73171" lon="-0.75141">
        <ele>805.5</ele>
      </trkpt>
      <trkpt lat="42.73165" lon="-0.75138">
        <ele>805</ele>
      </trkpt>
      <trkpt lat="42.73156" lon="-0.75136">
        <ele>804.8</ele>
      </trkpt>
      <trkpt lat="42.73144" lon="-0.75133">
        <ele>804.5</ele>
      </trkpt>
      <trkpt lat="42.73137" lon="-0.75132">
        <ele>804.3</ele>
      </trkpt>
      <trkpt lat="42.73132" lon="-0.75131">
        <ele>804.2</ele>
      </trkpt>
      <trkpt lat="42.73128" lon="-0.75129">
        <ele>804.1</ele>
      </trkpt>
      <trkpt lat="42.73123" lon="-0.75124">
        <ele>803.9</ele>
      </trkpt>
      <trkpt lat="42.73075" lon="-0.75055">
        <ele>801.8</ele>
      </trkpt>
      <trkpt lat="42.73071" lon="-0.75051">
        <ele>801.7</ele>
      </trkpt>
      <trkpt lat="42.73065" lon="-0.75048">
        <ele>801.6</ele>
      </trkpt>
      <trkpt lat="42.73056" lon="-0.75045">
        <ele>801.3</ele>
      </trkpt>
      <trkpt lat="42.72991" lon="-0.75044">
        <ele>799.9</ele>
      </trkpt>
      <trkpt lat="42.7291" lon="-0.75058">
        <ele>799.2</ele>
      </trkpt>
      <trkpt lat="42.72829" lon="-0.75083">
        <ele>798.2</ele>
      </trkpt>
      <trkpt lat="42.72824" lon="-0.75086">
        <ele>798.6</ele>
      </trkpt>
      <trkpt lat="42.72794" lon="-0.7511">
        <ele>800</ele>
      </trkpt>
      <trkpt lat="42.72789" lon="-0.75115">
        <ele>800</ele>
      </trkpt>
      <trkpt lat="42.72757" lon="-0.75167">
        <ele>797.5</ele>
      </trkpt>
      <trkpt lat="42.72746" lon="-0.75186">
        <ele>798.5</ele>
      </trkpt>
      <trkpt lat="42.72739" lon="-0.75209">
        <ele>800</ele>
      </trkpt>
      <trkpt lat="42.72737" lon="-0.75218">
        <ele>800.5</ele>
      </trkpt>
      <trkpt lat="42.72737" lon="-0.75222">
        <ele>800.7</ele>
      </trkpt>
      <trkpt lat="42.72739" lon="-0.75238">
        <ele>801.6</ele>
      </trkpt>
      <trkpt lat="42.72741" lon="-0.75256">
        <ele>803</ele>
      </trkpt>
      <trkpt lat="42.72741" lon="-0.75263">
        <ele>803.7</ele>
      </trkpt>
      <trkpt lat="42.7274" lon="-0.7527">
        <ele>804.3</ele>
      </trkpt>
      <trkpt lat="42.72737" lon="-0.75281">
        <ele>805.2</ele>
      </trkpt>
      <trkpt lat="42.72732" lon="-0.75299">
        <ele>806.9</ele>
      </trkpt>
      <trkpt lat="42.72721" lon="-0.75326">
        <ele>809.9</ele>
      </trkpt>
      <trkpt lat="42.72721" lon="-0.75326">
        <ele>809.9</ele>
      </trkpt>
      <trkpt lat="42.72663" lon="-0.75287">
        <ele>804</ele>
      </trkpt>
      <trkpt lat="42.72662" lon="-0.75287">
        <ele>804</ele>
      </trkpt>
      <trkpt lat="42.72624" lon="-0.75255">
        <ele>798.1</ele>
      </trkpt>
      <trkpt lat="42.72578" lon="-0.75225">
        <ele>799.4</ele>
      </trkpt>
      <trkpt lat="42.72539" lon="-0.7521">
        <ele>800.3</ele>
      </trkpt>
      <trkpt lat="42.7251" lon="-0.75203">
        <ele>800.5</ele>
      </trkpt>
      <trkpt lat="42.72485" lon="-0.75197">
        <ele>800.6</ele>
      </trkpt>
      <trkpt lat="42.7248" lon="-0.75197">
        <ele>800.6</ele>
      </trkpt>
      <trkpt lat="42.72479" lon="-0.75197">
        <ele>800.5</ele>
      </trkpt>
      <trkpt lat="42.72474" lon="-0.75198">
        <ele>800.4</ele>
      </trkpt>
      <trkpt lat="42.72431" lon="-0.75206">
        <ele>799</ele>
      </trkpt>
      <trkpt lat="42.72422" lon="-0.75205">
        <ele>799</ele>
      </trkpt>
      <trkpt lat="42.72372" lon="-0.7519">
        <ele>798.9</ele>
      </trkpt>
      <trkpt lat="42.72247" lon="-0.75149">
        <ele>799.4</ele>
      </trkpt>
      <trkpt lat="42.72208" lon="-0.75135">
        <ele>799.3</ele>
      </trkpt>
      <trkpt lat="42.72149" lon="-0.75119">
        <ele>798.9</ele>
      </trkpt>
      <trkpt lat="42.72115" lon="-0.75112">
        <ele>798.2</ele>
      </trkpt>
      <trkpt lat="42.72061" lon="-0.751">
        <ele>797.4</ele>
      </trkpt>
      <trkpt lat="42.72053" lon="-0.75097">
        <ele>797.4</ele>
      </trkpt>
      <trkpt lat="42.72032" lon="-0.75097">
        <ele>796.7</ele>
      </trkpt>
      <trkpt lat="42.7202" lon="-0.75096">
        <ele>796.4</ele>
      </trkpt>
      <trkpt lat="42.71957" lon="-0.75094">
        <ele>798.1</ele>
      </trkpt>
      <trkpt lat="42.71885" lon="-0.75091">
        <ele>802.2</ele>
      </trkpt>
      <trkpt lat="42.71734" lon="-0.75081">
        <ele>803.9</ele>
      </trkpt>
      <trkpt lat="42.71695" lon="-0.75073">
        <ele>803.6</ele>
      </trkpt>
      <trkpt lat="42.71507" lon="-0.75018">
        <ele>802.9</ele>
      </trkpt>
      <trkpt lat="42.7146" lon="-0.75005">
        <ele>800.3</ele>
      </trkpt>
      <trkpt lat="42.71454" lon="-0.75003">
        <ele>799.9</ele>
      </trkpt>
      <trkpt lat="42.71444" lon="-0.75">
        <ele>799.3</ele>
      </trkpt>
      <trkpt lat="42.7141" lon="-0.74991">
        <ele>797.7</ele>
      </trkpt>
      <trkpt lat="42.71388" lon="-0.74985">
        <ele>798.6</ele>
      </trkpt>
      <trkpt lat="42.71371" lon="-0.74979">
        <ele>799.6</ele>
      </trkpt>
      <trkpt lat="42.71366" lon="-0.74978">
        <ele>799.9</ele>
      </trkpt>
      <trkpt lat="42.71314" lon="-0.74964">
        <ele>802.5</ele>
      </trkpt>
      <trkpt lat="42.7127" lon="-0.7496">
        <ele>802.5</ele>
      </trkpt>
      <trkpt lat="42.71224" lon="-0.74959">
        <ele>802.3</ele>
      </trkpt>
      <trkpt lat="42.71178" lon="-0.74968">
        <ele>800.7</ele>
      </trkpt>
      <trkpt lat="42.71151" lon="-0.74975">
        <ele>799.9</ele>
      </trkpt>
      <trkpt lat="42.71143" lon="-0.74978">
        <ele>799.6</ele>
      </trkpt>
      <trkpt lat="42.71131" lon="-0.74981">
        <ele>799.4</ele>
      </trkpt>
      <trkpt lat="42.71125" lon="-0.74982">
        <ele>799.3</ele>
      </trkpt>
      <trkpt lat="42.71116" lon="-0.74985">
        <ele>799</ele>
      </trkpt>
      <trkpt lat="42.71058" lon="-0.75">
        <ele>798.2</ele>
      </trkpt>
      <trkpt lat="42.70979" lon="-0.75023">
        <ele>798.2</ele>
      </trkpt>
      <trkpt lat="42.70909" lon="-0.75032">
        <ele>797</ele>
      </trkpt>
      <trkpt lat="42.7085" lon="-0.75029">
        <ele>795.4</ele>
      </trkpt>
      <trkpt lat="42.70782" lon="-0.75013">
        <ele>794.4</ele>
      </trkpt>
      <trkpt lat="42.70721" lon="-0.74984">
        <ele>794.6</ele>
      </trkpt>
      <trkpt lat="42.70652" lon="-0.74945">
        <ele>794.6</ele>
      </trkpt>
      <trkpt lat="42.70628" lon="-0.74927">
        <ele>794.6</ele>
      </trkpt>
      <trkpt lat="42.70572" lon="-0.74888">
        <ele>791.6</ele>
      </trkpt>
      <trkpt lat="42.7055" lon="-0.74867">
        <ele>788.6</ele>
      </trkpt>
      <trkpt lat="42.70532" lon="-0.74847">
        <ele>785.9</ele>
      </trkpt>
      <trkpt lat="42.705" lon="-0.74812">
        <ele>782.8</ele>
      </trkpt>
      <trkpt lat="42.70485" lon="-0.74797">
        <ele>784.1</ele>
      </trkpt>
      <trkpt lat="42.7047" lon="-0.74784">
        <ele>785</ele>
      </trkpt>
      <trkpt lat="42.7046" lon="-0.74775">
        <ele>785.6</ele>
      </trkpt>
      <trkpt lat="42.70453" lon="-0.7477">
        <ele>785.8</ele>
      </trkpt>
      <trkpt lat="42.70444" lon="-0.74765">
        <ele>785.9</ele>
      </trkpt>
      <trkpt lat="42.70434" lon="-0.7476">
        <ele>785.9</ele>
      </trkpt>
      <trkpt lat="42.70425" lon="-0.74757">
        <ele>785.7</ele>
      </trkpt>
      <trkpt lat="42.70403" lon="-0.74751">
        <ele>785.4</ele>
      </trkpt>
      <trkpt lat="42.70384" lon="-0.74748">
        <ele>785.4</ele>
      </trkpt>
      <trkpt lat="42.70368" lon="-0.74747">
        <ele>785.1</ele>
      </trkpt>
      <trkpt lat="42.70352" lon="-0.74748">
        <ele>784.2</ele>
      </trkpt>
      <trkpt lat="42.70335" lon="-0.74751">
        <ele>783</ele>
      </trkpt>
      <trkpt lat="42.70309" lon="-0.74753">
        <ele>781.2</ele>
      </trkpt>
      <trkpt lat="42.70283" lon="-0.74748">
        <ele>779.8</ele>
      </trkpt>
      <trkpt lat="42.70243" lon="-0.74737">
        <ele>779.4</ele>
      </trkpt>
      <trkpt lat="42.70199" lon="-0.74717">
        <ele>780.4</ele>
      </trkpt>
      <trkpt lat="42.70166" lon="-0.74709">
        <ele>778.5</ele>
      </trkpt>
      <trkpt lat="42.70136" lon="-0.74706">
        <ele>778.6</ele>
      </trkpt>
      <trkpt lat="42.70044" lon="-0.74693">
        <ele>779</ele>
      </trkpt>
      <trkpt lat="42.69969" lon="-0.74683">
        <ele>777.6</ele>
      </trkpt>
      <trkpt lat="42.69932" lon="-0.74676">
        <ele>773.1</ele>
      </trkpt>
      <trkpt lat="42.69919" lon="-0.7467">
        <ele>770.2</ele>
      </trkpt>
      <trkpt lat="42.69904" lon="-0.74659">
        <ele>774.2</ele>
      </trkpt>
      <trkpt lat="42.69892" lon="-0.74648">
        <ele>779</ele>
      </trkpt>
      <trkpt lat="42.69879" lon="-0.74634">
        <ele>782.7</ele>
      </trkpt>
      <trkpt lat="42.69838" lon="-0.74583">
        <ele>780.2</ele>
      </trkpt>
      <trkpt lat="42.69811" lon="-0.74548">
        <ele>786.7</ele>
      </trkpt>
      <trkpt lat="42.69788" lon="-0.74511">
        <ele>785.9</ele>
      </trkpt>
      <trkpt lat="42.69766" lon="-0.74471">
        <ele>784.4</ele>
      </trkpt>
      <trkpt lat="42.69742" lon="-0.74424">
        <ele>782.5</ele>
      </trkpt>
      <trkpt lat="42.69719" lon="-0.74382">
        <ele>788.9</ele>
      </trkpt>
      <trkpt lat="42.69698" lon="-0.74334">
        <ele>785</ele>
      </trkpt>
      <trkpt lat="42.69694" lon="-0.74328">
        <ele>785.5</ele>
      </trkpt>
      <trkpt lat="42.6969" lon="-0.74321">
        <ele>786.5</ele>
      </trkpt>
      <trkpt lat="42.69686" lon="-0.74315">
        <ele>787</ele>
      </trkpt>
      <trkpt lat="42.69682" lon="-0.74311">
        <ele>786.6</ele>
      </trkpt>
      <trkpt lat="42.69666" lon="-0.74294">
        <ele>784.5</ele>
      </trkpt>
      <trkpt lat="42.69637" lon="-0.74263">
        <ele>789.6</ele>
      </trkpt>
      <trkpt lat="42.69605" lon="-0.74227">
        <ele>786.6</ele>
      </trkpt>
      <trkpt lat="42.69564" lon="-0.74183">
        <ele>781.5</ele>
      </trkpt>
      <trkpt lat="42.69543" lon="-0.74152">
        <ele>780.2</ele>
      </trkpt>
      <trkpt lat="42.69519" lon="-0.74111">
        <ele>774</ele>
      </trkpt>
      <trkpt lat="42.6949" lon="-0.74058">
        <ele>764.7</ele>
      </trkpt>
      <trkpt lat="42.69477" lon="-0.74037">
        <ele>765.7</ele>
      </trkpt>
      <trkpt lat="42.69469" lon="-0.74024">
        <ele>765.4</ele>
      </trkpt>
      <trkpt lat="42.69462" lon="-0.74014">
        <ele>764.6</ele>
      </trkpt>
      <trkpt lat="42.69435" lon="-0.73977">
        <ele>766.4</ele>
      </trkpt>
      <trkpt lat="42.69417" lon="-0.73952">
        <ele>769.4</ele>
      </trkpt>
      <trkpt lat="42.69385" lon="-0.73916">
        <ele>771.6</ele>
      </trkpt>
      <trkpt lat="42.69361" lon="-0.7389">
        <ele>777.5</ele>
      </trkpt>
      <trkpt lat="42.6934" lon="-0.73877">
        <ele>777.1</ele>
      </trkpt>
      <trkpt lat="42.69279" lon="-0.73839">
        <ele>773.2</ele>
      </trkpt>
      <trkpt lat="42.69222" lon="-0.73797">
        <ele>771.8</ele>
      </trkpt>
      <trkpt lat="42.69158" lon="-0.73737">
        <ele>764</ele>
      </trkpt>
      <trkpt lat="42.69098" lon="-0.73681">
        <ele>764.7</ele>
      </trkpt>
      <trkpt lat="42.6907" lon="-0.7365">
        <ele>763.8</ele>
      </trkpt>
      <trkpt lat="42.6905" lon="-0.7363">
        <ele>764.7</ele>
      </trkpt>
      <trkpt lat="42.6903" lon="-0.73615">
        <ele>763.9</ele>
      </trkpt>
      <trkpt lat="42.69012" lon="-0.73605">
        <ele>762.2</ele>
      </trkpt>
      <trkpt lat="42.68991" lon="-0.73599">
        <ele>760.2</ele>
      </trkpt>
      <trkpt lat="42.68931" lon="-0.73592">
        <ele>757.5</ele>
      </trkpt>
      <trkpt lat="42.68789" lon="-0.7358">
        <ele>753.7</ele>
      </trkpt>
      <trkpt lat="42.68701" lon="-0.73572">
        <ele>754.6</ele>
      </trkpt>
      <trkpt lat="42.68668" lon="-0.73567">
        <ele>755.9</ele>
      </trkpt>
      <trkpt lat="42.68624" lon="-0.73553">
        <ele>755.1</ele>
      </trkpt>
      <trkpt lat="42.68558" lon="-0.73523">
        <ele>754.2</ele>
      </trkpt>
      <trkpt lat="42.68464" lon="-0.73479">
        <ele>752.1</ele>
      </trkpt>
      <trkpt lat="42.6846" lon="-0.73478">
        <ele>752</ele>
      </trkpt>
      <trkpt lat="42.68455" lon="-0.73476">
        <ele>752</ele>
      </trkpt>
      <trkpt lat="42.6845" lon="-0.73474">
        <ele>751.9</ele>
      </trkpt>
      <trkpt lat="42.68424" lon="-0.73461">
        <ele>751.6</ele>
      </trkpt>
      <trkpt lat="42.68282" lon="-0.73397">
        <ele>749.8</ele>
      </trkpt>
      <trkpt lat="42.68238" lon="-0.73376">
        <ele>749.2</ele>
      </trkpt>
      <trkpt lat="42.68126" lon="-0.73323">
        <ele>748.3</ele>
      </trkpt>
      <trkpt lat="42.68047" lon="-0.73286">
        <ele>750.4</ele>
      </trkpt>
      <trkpt lat="42.68011" lon="-0.73261">
        <ele>749.8</ele>
      </trkpt>
      <trkpt lat="42.6799" lon="-0.73244">
        <ele>749.6</ele>
      </trkpt>
      <trkpt lat="42.67979" lon="-0.73234">
        <ele>750</ele>
      </trkpt>
      <trkpt lat="42.67977" lon="-0.73232">
        <ele>750.1</ele>
      </trkpt>
      <trkpt lat="42.67925" lon="-0.73179">
        <ele>747.4</ele>
      </trkpt>
      <trkpt lat="42.67869" lon="-0.7312">
        <ele>746.8</ele>
      </trkpt>
      <trkpt lat="42.67837" lon="-0.73096">
        <ele>744.6</ele>
      </trkpt>
      <trkpt lat="42.67797" lon="-0.73076">
        <ele>744.6</ele>
      </trkpt>
      <trkpt lat="42.67747" lon="-0.7307">
        <ele>744.8</ele>
      </trkpt>
      <trkpt lat="42.67702" lon="-0.73076">
        <ele>744.7</ele>
      </trkpt>
      <trkpt lat="42.67611" lon="-0.73112">
        <ele>748</ele>
      </trkpt>
      <trkpt lat="42.67574" lon="-0.73126">
        <ele>747.6</ele>
      </trkpt>
      <trkpt lat="42.67563" lon="-0.7313">
        <ele>747.4</ele>
      </trkpt>
      <trkpt lat="42.67552" lon="-0.73141">
        <ele>746.5</ele>
      </trkpt>
      <trkpt lat="42.67473" lon="-0.73171">
        <ele>744.3</ele>
      </trkpt>
      <trkpt lat="42.67473" lon="-0.73171">
        <ele>744.3</ele>
      </trkpt>
      <trkpt lat="42.6747" lon="-0.73159">
        <ele>744.9</ele>
      </trkpt>
      <trkpt lat="42.67463" lon="-0.73119">
        <ele>748</ele>
      </trkpt>
      <trkpt lat="42.67463" lon="-0.73089">
        <ele>750.4</ele>
      </trkpt>
      <trkpt lat="42.67466" lon="-0.73059">
        <ele>751.3</ele>
      </trkpt>
      <trkpt lat="42.67472" lon="-0.73036">
        <ele>751.8</ele>
      </trkpt>
      <trkpt lat="42.67479" lon="-0.73004">
        <ele>752.2</ele>
      </trkpt>
      <trkpt lat="42.67486" lon="-0.72977">
        <ele>752</ele>
      </trkpt>
      <trkpt lat="42.67494" lon="-0.72946">
        <ele>751.2</ele>
      </trkpt>
      <trkpt lat="42.67501" lon="-0.72919">
        <ele>750.3</ele>
      </trkpt>
      <trkpt lat="42.67508" lon="-0.72894">
        <ele>751.4</ele>
      </trkpt>
      <trkpt lat="42.67513" lon="-0.7287">
        <ele>752.2</ele>
      </trkpt>
      <trkpt lat="42.67527" lon="-0.72821">
        <ele>754.3</ele>
      </trkpt>
      <trkpt lat="42.67533" lon="-0.72792">
        <ele>754.8</ele>
      </trkpt>
      <trkpt lat="42.67542" lon="-0.72763">
        <ele>755.4</ele>
      </trkpt>
      <trkpt lat="42.67546" lon="-0.72735">
        <ele>755.7</ele>
      </trkpt>
      <trkpt lat="42.67553" lon="-0.72705">
        <ele>756.5</ele>
      </trkpt>
      <trkpt lat="42.67555" lon="-0.727">
        <ele>756.7</ele>
      </trkpt>
      <trkpt lat="42.67561" lon="-0.72679">
        <ele>757.2</ele>
      </trkpt>
      <trkpt lat="42.67573" lon="-0.72635">
        <ele>758.4</ele>
      </trkpt>
      <trkpt lat="42.67593" lon="-0.72559">
        <ele>760.7</ele>
      </trkpt>
      <trkpt lat="42.67642" lon="-0.72421">
        <ele>770.6</ele>
      </trkpt>
      <trkpt lat="42.67651" lon="-0.72387">
        <ele>771.2</ele>
      </trkpt>
      <trkpt lat="42.6766" lon="-0.72334">
        <ele>769.8</ele>
      </trkpt>
      <trkpt lat="42.67677" lon="-0.72232">
        <ele>774.8</ele>
      </trkpt>
      <trkpt lat="42.67687" lon="-0.72137">
        <ele>776.9</ele>
      </trkpt>
      <trkpt lat="42.67689" lon="-0.72108">
        <ele>778.1</ele>
      </trkpt>
      <trkpt lat="42.67687" lon="-0.72064">
        <ele>778</ele>
      </trkpt>
      <trkpt lat="42.6768" lon="-0.71997">
        <ele>776.4</ele>
      </trkpt>
      <trkpt lat="42.67666" lon="-0.7186">
        <ele>777.4</ele>
      </trkpt>
      <trkpt lat="42.67651" lon="-0.71801">
        <ele>779</ele>
      </trkpt>
      <trkpt lat="42.67641" lon="-0.71762">
        <ele>778.8</ele>
      </trkpt>
      <trkpt lat="42.67635" lon="-0.71735">
        <ele>780</ele>
      </trkpt>
      <trkpt lat="42.67632" lon="-0.71719">
        <ele>781.3</ele>
      </trkpt>
      <trkpt lat="42.67626" lon="-0.71676">
        <ele>784.4</ele>
      </trkpt>
      <trkpt lat="42.67624" lon="-0.71638">
        <ele>787.7</ele>
      </trkpt>
      <trkpt lat="42.67623" lon="-0.7159">
        <ele>792.1</ele>
      </trkpt>
      <trkpt lat="42.67621" lon="-0.71558">
        <ele>795</ele>
      </trkpt>
      <trkpt lat="42.6762" lon="-0.7154">
        <ele>796.7</ele>
      </trkpt>
      <trkpt lat="42.67617" lon="-0.71522">
        <ele>797.4</ele>
      </trkpt>
      <trkpt lat="42.67613" lon="-0.71511">
        <ele>796.8</ele>
      </trkpt>
      <trkpt lat="42.67609" lon="-0.71505">
        <ele>795.5</ele>
      </trkpt>
      <trkpt lat="42.676" lon="-0.71494">
        <ele>793.4</ele>
      </trkpt>
      <trkpt lat="42.67587" lon="-0.71483">
        <ele>789.9</ele>
      </trkpt>
      <trkpt lat="42.67579" lon="-0.71477">
        <ele>790.2</ele>
      </trkpt>
      <trkpt lat="42.67573" lon="-0.7147">
        <ele>792.4</ele>
      </trkpt>
      <trkpt lat="42.67567" lon="-0.71461">
        <ele>794.4</ele>
      </trkpt>
      <trkpt lat="42.6756" lon="-0.71444">
        <ele>796.6</ele>
      </trkpt>
      <trkpt lat="42.67552" lon="-0.7143">
        <ele>797.2</ele>
      </trkpt>
      <trkpt lat="42.67537" lon="-0.71407">
        <ele>797</ele>
      </trkpt>
      <trkpt lat="42.67522" lon="-0.7139">
        <ele>795.9</ele>
      </trkpt>
      <trkpt lat="42.67507" lon="-0.71371">
        <ele>792.8</ele>
      </trkpt>
      <trkpt lat="42.67498" lon="-0.71357">
        <ele>791.6</ele>
      </trkpt>
      <trkpt lat="42.67492" lon="-0.71343">
        <ele>794</ele>
      </trkpt>
      <trkpt lat="42.67487" lon="-0.71326">
        <ele>796.8</ele>
      </trkpt>
      <trkpt lat="42.67484" lon="-0.71306">
        <ele>800.7</ele>
      </trkpt>
      <trkpt lat="42.67478" lon="-0.71283">
        <ele>804.6</ele>
      </trkpt>
      <trkpt lat="42.67467" lon="-0.71257">
        <ele>807.3</ele>
      </trkpt>
      <trkpt lat="42.67456" lon="-0.71228">
        <ele>806.4</ele>
      </trkpt>
      <trkpt lat="42.67444" lon="-0.71197">
        <ele>802.6</ele>
      </trkpt>
      <trkpt lat="42.67434" lon="-0.71153">
        <ele>797.1</ele>
      </trkpt>
      <trkpt lat="42.67429" lon="-0.71119">
        <ele>794.8</ele>
      </trkpt>
      <trkpt lat="42.67428" lon="-0.711">
        <ele>794.1</ele>
      </trkpt>
      <trkpt lat="42.6743" lon="-0.71083">
        <ele>794.8</ele>
      </trkpt>
      <trkpt lat="42.67433" lon="-0.71077">
        <ele>795.9</ele>
      </trkpt>
      <trkpt lat="42.67437" lon="-0.71072">
        <ele>797.3</ele>
      </trkpt>
      <trkpt lat="42.67447" lon="-0.71066">
        <ele>800.6</ele>
      </trkpt>
      <trkpt lat="42.67467" lon="-0.71056">
        <ele>805.9</ele>
      </trkpt>
      <trkpt lat="42.67476" lon="-0.7105">
        <ele>807.4</ele>
      </trkpt>
      <trkpt lat="42.67484" lon="-0.71044">
        <ele>808.2</ele>
      </trkpt>
      <trkpt lat="42.67492" lon="-0.71033">
        <ele>807</ele>
      </trkpt>
      <trkpt lat="42.675" lon="-0.7102">
        <ele>804.5</ele>
      </trkpt>
      <trkpt lat="42.67518" lon="-0.70975">
        <ele>800.7</ele>
      </trkpt>
      <trkpt lat="42.67531" lon="-0.70935">
        <ele>797.6</ele>
      </trkpt>
      <trkpt lat="42.67539" lon="-0.70892">
        <ele>796.2</ele>
      </trkpt>
      <trkpt lat="42.67556" lon="-0.70801">
        <ele>799.8</ele>
      </trkpt>
      <trkpt lat="42.67561" lon="-0.70775">
        <ele>800.7</ele>
      </trkpt>
      <trkpt lat="42.67569" lon="-0.70756">
        <ele>801.9</ele>
      </trkpt>
      <trkpt lat="42.67581" lon="-0.70732">
        <ele>803.6</ele>
      </trkpt>
      <trkpt lat="42.67585" lon="-0.70719">
        <ele>805.2</ele>
      </trkpt>
      <trkpt lat="42.67586" lon="-0.70706">
        <ele>805.9</ele>
      </trkpt>
      <trkpt lat="42.67585" lon="-0.70676">
        <ele>805.2</ele>
      </trkpt>
      <trkpt lat="42.67582" lon="-0.70643">
        <ele>804.1</ele>
      </trkpt>
      <trkpt lat="42.67576" lon="-0.7059">
        <ele>803.7</ele>
      </trkpt>
      <trkpt lat="42.67569" lon="-0.70527">
        <ele>804.9</ele>
      </trkpt>
      <trkpt lat="42.67562" lon="-0.70437">
        <ele>805.7</ele>
      </trkpt>
      <trkpt lat="42.67557" lon="-0.70361">
        <ele>803.7</ele>
      </trkpt>
      <trkpt lat="42.67556" lon="-0.7032">
        <ele>803.5</ele>
      </trkpt>
      <trkpt lat="42.67557" lon="-0.70288">
        <ele>804.6</ele>
      </trkpt>
      <trkpt lat="42.67561" lon="-0.70276">
        <ele>804.4</ele>
      </trkpt>
      <trkpt lat="42.67566" lon="-0.70268">
        <ele>803.7</ele>
      </trkpt>
      <trkpt lat="42.67584" lon="-0.70256">
        <ele>800.3</ele>
      </trkpt>
      <trkpt lat="42.67598" lon="-0.70247">
        <ele>802.5</ele>
      </trkpt>
      <trkpt lat="42.67613" lon="-0.70235">
        <ele>804.9</ele>
      </trkpt>
      <trkpt lat="42.67641" lon="-0.70202">
        <ele>809.5</ele>
      </trkpt>
      <trkpt lat="42.67661" lon="-0.7017">
        <ele>812.9</ele>
      </trkpt>
      <trkpt lat="42.6767" lon="-0.70152">
        <ele>813.7</ele>
      </trkpt>
      <trkpt lat="42.67677" lon="-0.70135">
        <ele>814.6</ele>
      </trkpt>
      <trkpt lat="42.67682" lon="-0.70117">
        <ele>815</ele>
      </trkpt>
      <trkpt lat="42.67686" lon="-0.70101">
        <ele>815.2</ele>
      </trkpt>
      <trkpt lat="42.67687" lon="-0.70082">
        <ele>814.2</ele>
      </trkpt>
      <trkpt lat="42.67687" lon="-0.70065">
        <ele>813.3</ele>
      </trkpt>
      <trkpt lat="42.67681" lon="-0.70033">
        <ele>809.2</ele>
      </trkpt>
      <trkpt lat="42.67676" lon="-0.69985">
        <ele>806.2</ele>
      </trkpt>
      <trkpt lat="42.67669" lon="-0.69924">
        <ele>805.7</ele>
      </trkpt>
      <trkpt lat="42.67661" lon="-0.69826">
        <ele>810.3</ele>
      </trkpt>
      <trkpt lat="42.67656" lon="-0.69724">
        <ele>813.1</ele>
      </trkpt>
      <trkpt lat="42.67655" lon="-0.69571">
        <ele>819.3</ele>
      </trkpt>
      <trkpt lat="42.67652" lon="-0.69467">
        <ele>818.2</ele>
      </trkpt>
      <trkpt lat="42.67661" lon="-0.6938">
        <ele>815.2</ele>
      </trkpt>
      <trkpt lat="42.67667" lon="-0.69302">
        <ele>816.8</ele>
      </trkpt>
      <trkpt lat="42.67665" lon="-0.69206">
        <ele>824.9</ele>
      </trkpt>
      <trkpt lat="42.6767" lon="-0.69086">
        <ele>822.7</ele>
      </trkpt>
      <trkpt lat="42.67687" lon="-0.68991">
        <ele>827.3</ele>
      </trkpt>
      <trkpt lat="42.67704" lon="-0.68907">
        <ele>831.3</ele>
      </trkpt>
      <trkpt lat="42.67728" lon="-0.68805">
        <ele>832.5</ele>
      </trkpt>
      <trkpt lat="42.67766" lon="-0.68694">
        <ele>836</ele>
      </trkpt>
      <trkpt lat="42.67786" lon="-0.68631">
        <ele>839</ele>
      </trkpt>
      <trkpt lat="42.67803" lon="-0.68563">
        <ele>837.5</ele>
      </trkpt>
      <trkpt lat="42.67819" lon="-0.68499">
        <ele>832.5</ele>
      </trkpt>
      <trkpt lat="42.67842" lon="-0.68456">
        <ele>834.8</ele>
      </trkpt>
      <trkpt lat="42.67884" lon="-0.68387">
        <ele>843.6</ele>
      </trkpt>
      <trkpt lat="42.67903" lon="-0.68361">
        <ele>845</ele>
      </trkpt>
      <trkpt lat="42.67914" lon="-0.68344">
        <ele>844.5</ele>
      </trkpt>
      <trkpt lat="42.67917" lon="-0.68338">
        <ele>844.1</ele>
      </trkpt>
      <trkpt lat="42.6792" lon="-0.68331">
        <ele>844.1</ele>
      </trkpt>
      <trkpt lat="42.67924" lon="-0.68309">
        <ele>842.3</ele>
      </trkpt>
      <trkpt lat="42.6793" lon="-0.68278">
        <ele>839.4</ele>
      </trkpt>
      <trkpt lat="42.67935" lon="-0.68264">
        <ele>838.6</ele>
      </trkpt>
      <trkpt lat="42.6794" lon="-0.68255">
        <ele>838.4</ele>
      </trkpt>
      <trkpt lat="42.67944" lon="-0.6825">
        <ele>838.5</ele>
      </trkpt>
      <trkpt lat="42.67949" lon="-0.68246">
        <ele>839.5</ele>
      </trkpt>
      <trkpt lat="42.67963" lon="-0.6824">
        <ele>842.4</ele>
      </trkpt>
      <trkpt lat="42.67981" lon="-0.6823">
        <ele>845</ele>
      </trkpt>
      <trkpt lat="42.6799" lon="-0.68224">
        <ele>845.7</ele>
      </trkpt>
      <trkpt lat="42.67994" lon="-0.68221">
        <ele>845.9</ele>
      </trkpt>
      <trkpt lat="42.67997" lon="-0.68217">
        <ele>845.5</ele>
      </trkpt>
      <trkpt lat="42.68006" lon="-0.68202">
        <ele>843.7</ele>
      </trkpt>
      <trkpt lat="42.68015" lon="-0.68186">
        <ele>841.5</ele>
      </trkpt>
      <trkpt lat="42.68029" lon="-0.68151">
        <ele>838.2</ele>
      </trkpt>
      <trkpt lat="42.68047" lon="-0.68115">
        <ele>838.6</ele>
      </trkpt>
      <trkpt lat="42.68083" lon="-0.68029">
        <ele>836.4</ele>
      </trkpt>
      <trkpt lat="42.68124" lon="-0.6793">
        <ele>841.3</ele>
      </trkpt>
      <trkpt lat="42.68148" lon="-0.6787">
        <ele>843.3</ele>
      </trkpt>
      <trkpt lat="42.68161" lon="-0.67837">
        <ele>843.6</ele>
      </trkpt>
      <trkpt lat="42.68201" lon="-0.67741">
        <ele>848.4</ele>
      </trkpt>
      <trkpt lat="42.68208" lon="-0.67723">
        <ele>849.1</ele>
      </trkpt>
      <trkpt lat="42.68246" lon="-0.67623">
        <ele>850.1</ele>
      </trkpt>
      <trkpt lat="42.68281" lon="-0.67534">
        <ele>853.2</ele>
      </trkpt>
      <trkpt lat="42.68287" lon="-0.67521">
        <ele>853.9</ele>
      </trkpt>
      <trkpt lat="42.68344" lon="-0.67376">
        <ele>856.6</ele>
      </trkpt>
      <trkpt lat="42.68368" lon="-0.67322">
        <ele>858.5</ele>
      </trkpt>
      <trkpt lat="42.68405" lon="-0.67268">
        <ele>860.5</ele>
      </trkpt>
      <trkpt lat="42.6849" lon="-0.67145">
        <ele>862.7</ele>
      </trkpt>
      <trkpt lat="42.68533" lon="-0.67084">
        <ele>862.6</ele>
      </trkpt>
      <trkpt lat="42.68542" lon="-0.67071">
        <ele>863.2</ele>
      </trkpt>
      <trkpt lat="42.68551" lon="-0.67058">
        <ele>863.6</ele>
      </trkpt>
      <trkpt lat="42.68558" lon="-0.67049">
        <ele>864</ele>
      </trkpt>
      <trkpt lat="42.68578" lon="-0.67027">
        <ele>864.8</ele>
      </trkpt>
      <trkpt lat="42.68641" lon="-0.66969">
        <ele>868.1</ele>
      </trkpt>
      <trkpt lat="42.68659" lon="-0.66956">
        <ele>868.7</ele>
      </trkpt>
      <trkpt lat="42.68705" lon="-0.6692">
        <ele>870</ele>
      </trkpt>
      <trkpt lat="42.68755" lon="-0.66883">
        <ele>870.9</ele>
      </trkpt>
      <trkpt lat="42.68794" lon="-0.66855">
        <ele>871.4</ele>
      </trkpt>
      <trkpt lat="42.68818" lon="-0.66845">
        <ele>872.3</ele>
      </trkpt>
      <trkpt lat="42.68841" lon="-0.6684">
        <ele>873.2</ele>
      </trkpt>
      <trkpt lat="42.6887" lon="-0.66837">
        <ele>873.6</ele>
      </trkpt>
      <trkpt lat="42.68901" lon="-0.66846">
        <ele>876.4</ele>
      </trkpt>
      <trkpt lat="42.68945" lon="-0.66869">
        <ele>882</ele>
      </trkpt>
      <trkpt lat="42.69" lon="-0.669">
        <ele>886.2</ele>
      </trkpt>
      <trkpt lat="42.69047" lon="-0.66925">
        <ele>887.7</ele>
      </trkpt>
      <trkpt lat="42.69082" lon="-0.66951">
        <ele>892.4</ele>
      </trkpt>
      <trkpt lat="42.69126" lon="-0.66983">
        <ele>894.2</ele>
      </trkpt>
      <trkpt lat="42.6913" lon="-0.66985">
        <ele>893.9</ele>
      </trkpt>
      <trkpt lat="42.6913" lon="-0.66985">
        <ele>893.9</ele>
      </trkpt>
      <trkpt lat="42.6919" lon="-0.669">
        <ele>880.5</ele>
      </trkpt>
      <trkpt lat="42.69213" lon="-0.6687">
        <ele>883</ele>
      </trkpt>
      <trkpt lat="42.69226" lon="-0.66845">
        <ele>885.2</ele>
      </trkpt>
      <trkpt lat="42.69228" lon="-0.6684">
        <ele>885.6</ele>
      </trkpt>
      <trkpt lat="42.69229" lon="-0.66835">
        <ele>885.9</ele>
      </trkpt>
      <trkpt lat="42.69229" lon="-0.66832">
        <ele>886.2</ele>
      </trkpt>
      <trkpt lat="42.69229" lon="-0.66828">
        <ele>886.8</ele>
      </trkpt>
      <trkpt lat="42.69227" lon="-0.66825">
        <ele>887</ele>
      </trkpt>
      <trkpt lat="42.69205" lon="-0.66787">
        <ele>889.3</ele>
      </trkpt>
      <trkpt lat="42.69199" lon="-0.66774">
        <ele>889.9</ele>
      </trkpt>
      <trkpt lat="42.6919" lon="-0.66756">
        <ele>890.2</ele>
      </trkpt>
      <trkpt lat="42.69179" lon="-0.66734">
        <ele>889.9</ele>
      </trkpt>
      <trkpt lat="42.69174" lon="-0.6672">
        <ele>889.9</ele>
      </trkpt>
      <trkpt lat="42.69172" lon="-0.66697">
        <ele>891.2</ele>
      </trkpt>
      <trkpt lat="42.69173" lon="-0.66692">
        <ele>891.8</ele>
      </trkpt>
      <trkpt lat="42.69179" lon="-0.66688">
        <ele>893.8</ele>
      </trkpt>
      <trkpt lat="42.69183" lon="-0.66687">
        <ele>894.9</ele>
      </trkpt>
      <trkpt lat="42.69185" lon="-0.66688">
        <ele>895.4</ele>
      </trkpt>
      <trkpt lat="42.69189" lon="-0.66691">
        <ele>896.1</ele>
      </trkpt>
      <trkpt lat="42.69191" lon="-0.66693">
        <ele>896.5</ele>
      </trkpt>
      <trkpt lat="42.69196" lon="-0.66701">
        <ele>897</ele>
      </trkpt>
      <trkpt lat="42.69203" lon="-0.66714">
        <ele>897.3</ele>
      </trkpt>
      <trkpt lat="42.69211" lon="-0.66723">
        <ele>898.2</ele>
      </trkpt>
      <trkpt lat="42.69217" lon="-0.66727">
        <ele>899.1</ele>
      </trkpt>
      <trkpt lat="42.69223" lon="-0.6673">
        <ele>900.1</ele>
      </trkpt>
      <trkpt lat="42.69227" lon="-0.66731">
        <ele>900.8</ele>
      </trkpt>
      <trkpt lat="42.69233" lon="-0.66732">
        <ele>902</ele>
      </trkpt>
      <trkpt lat="42.6924" lon="-0.66734">
        <ele>903.3</ele>
      </trkpt>
      <trkpt lat="42.69386" lon="-0.6679">
        <ele>916.2</ele>
      </trkpt>
      <trkpt lat="42.69444" lon="-0.66785">
        <ele>923.3</ele>
      </trkpt>
      <trkpt lat="42.69446" lon="-0.66784">
        <ele>923.7</ele>
      </trkpt>
      <trkpt lat="42.69448" lon="-0.66784">
        <ele>923.9</ele>
      </trkpt>
      <trkpt lat="42.69448" lon="-0.66783">
        <ele>924.1</ele>
      </trkpt>
      <trkpt lat="42.6945" lon="-0.6678">
        <ele>924.7</ele>
      </trkpt>
      <trkpt lat="42.6945" lon="-0.66779">
        <ele>924.8</ele>
      </trkpt>
      <trkpt lat="42.69451" lon="-0.66777">
        <ele>925.1</ele>
      </trkpt>
      <trkpt lat="42.69451" lon="-0.66775">
        <ele>925.4</ele>
      </trkpt>
      <trkpt lat="42.69451" lon="-0.66774">
        <ele>925.5</ele>
      </trkpt>
      <trkpt lat="42.6945" lon="-0.66772">
        <ele>925.7</ele>
      </trkpt>
      <trkpt lat="42.6945" lon="-0.6677">
        <ele>925.9</ele>
      </trkpt>
      <trkpt lat="42.69449" lon="-0.66768">
        <ele>926.1</ele>
      </trkpt>
      <trkpt lat="42.69449" lon="-0.66768">
        <ele>926.1</ele>
      </trkpt>
      <trkpt lat="42.69448" lon="-0.66766">
        <ele>926.2</ele>
      </trkpt>
      <trkpt lat="42.6943" lon="-0.66749">
        <ele>927</ele>
      </trkpt>
      <trkpt lat="42.69403" lon="-0.66718">
        <ele>927.4</ele>
      </trkpt>
      <trkpt lat="42.694" lon="-0.66715">
        <ele>927.5</ele>
      </trkpt>
      <trkpt lat="42.69387" lon="-0.66693">
        <ele>928.5</ele>
      </trkpt>
      <trkpt lat="42.69387" lon="-0.66693">
        <ele>928.5</ele>
      </trkpt>
      <trkpt lat="42.69395" lon="-0.66673">
        <ele>930.5</ele>
      </trkpt>
      <trkpt lat="42.69396" lon="-0.66665">
        <ele>931.1</ele>
      </trkpt>
      <trkpt lat="42.69396" lon="-0.66665">
        <ele>931.1</ele>
      </trkpt>
      <trkpt lat="42.6939" lon="-0.66652">
        <ele>931.1</ele>
      </trkpt>
      <trkpt lat="42.6939" lon="-0.66652">
        <ele>931.1</ele>
      </trkpt>
      <trkpt lat="42.69389" lon="-0.66651">
        <ele>931.1</ele>
      </trkpt>
      <trkpt lat="42.69383" lon="-0.66642">
        <ele>930.8</ele>
      </trkpt>
      <trkpt lat="42.69383" lon="-0.66642">
        <ele>930.8</ele>
      </trkpt>
      <trkpt lat="42.69402" lon="-0.66615">
        <ele>933.4</ele>
      </trkpt>
      <trkpt lat="42.69402" lon="-0.66615">
        <ele>933.4</ele>
      </trkpt>
      <trkpt lat="42.69388" lon="-0.66597">
        <ele>932.2</ele>
      </trkpt>
      <trkpt lat="42.69386" lon="-0.66592">
        <ele>932</ele>
      </trkpt>
      <trkpt lat="42.6938" lon="-0.66577">
        <ele>930.8</ele>
      </trkpt>
      <trkpt lat="42.69379" lon="-0.66575">
        <ele>930.4</ele>
      </trkpt>
      <trkpt lat="42.69379" lon="-0.66572">
        <ele>930.2</ele>
      </trkpt>
      <trkpt lat="42.69379" lon="-0.6657">
        <ele>930</ele>
      </trkpt>
      <trkpt lat="42.69381" lon="-0.66555">
        <ele>929.2</ele>
      </trkpt>
      <trkpt lat="42.69382" lon="-0.66545">
        <ele>928.6</ele>
      </trkpt>
      <trkpt lat="42.69444" lon="-0.66413">
        <ele>932.3</ele>
      </trkpt>
      <trkpt lat="42.69455" lon="-0.66392">
        <ele>933.6</ele>
      </trkpt>
      <trkpt lat="42.69479" lon="-0.66344">
        <ele>936.7</ele>
      </trkpt>
      <trkpt lat="42.69496" lon="-0.66303">
        <ele>936.7</ele>
      </trkpt>
      <trkpt lat="42.69504" lon="-0.66276">
        <ele>934.7</ele>
      </trkpt>
      <trkpt lat="42.69512" lon="-0.66226">
        <ele>931.5</ele>
      </trkpt>
      <trkpt lat="42.69517" lon="-0.66202">
        <ele>931.8</ele>
      </trkpt>
      <trkpt lat="42.69526" lon="-0.66146">
        <ele>930.5</ele>
      </trkpt>
      <trkpt lat="42.6953" lon="-0.66129">
        <ele>930</ele>
      </trkpt>
      <trkpt lat="42.69533" lon="-0.66115">
        <ele>929.3</ele>
      </trkpt>
      <trkpt lat="42.69549" lon="-0.66077">
        <ele>929.8</ele>
      </trkpt>
      <trkpt lat="42.69559" lon="-0.66062">
        <ele>930.9</ele>
      </trkpt>
      <trkpt lat="42.69565" lon="-0.66052">
        <ele>930.9</ele>
      </trkpt>
      <trkpt lat="42.69576" lon="-0.66042">
        <ele>931.8</ele>
      </trkpt>
      <trkpt lat="42.69589" lon="-0.66033">
        <ele>932.5</ele>
      </trkpt>
      <trkpt lat="42.69648" lon="-0.65999">
        <ele>932.4</ele>
      </trkpt>
      <trkpt lat="42.69692" lon="-0.65971">
        <ele>935.8</ele>
      </trkpt>
      <trkpt lat="42.69712" lon="-0.65955">
        <ele>936.5</ele>
      </trkpt>
      <trkpt lat="42.69714" lon="-0.65953">
        <ele>936.5</ele>
      </trkpt>
      <trkpt lat="42.69715" lon="-0.6595">
        <ele>936.2</ele>
      </trkpt>
      <trkpt lat="42.69717" lon="-0.65948">
        <ele>936.2</ele>
      </trkpt>
      <trkpt lat="42.69718" lon="-0.65943">
        <ele>935.6</ele>
      </trkpt>
      <trkpt lat="42.69719" lon="-0.65938">
        <ele>935</ele>
      </trkpt>
      <trkpt lat="42.69718" lon="-0.6593">
        <ele>933.8</ele>
      </trkpt>
      <trkpt lat="42.69718" lon="-0.65924">
        <ele>933</ele>
      </trkpt>
      <trkpt lat="42.69716" lon="-0.65917">
        <ele>931.8</ele>
      </trkpt>
      <trkpt lat="42.69715" lon="-0.65914">
        <ele>932.4</ele>
      </trkpt>
      <trkpt lat="42.69713" lon="-0.65911">
        <ele>933.1</ele>
      </trkpt>
      <trkpt lat="42.69711" lon="-0.65909">
        <ele>933.5</ele>
      </trkpt>
      <trkpt lat="42.69708" lon="-0.65908">
        <ele>933.5</ele>
      </trkpt>
      <trkpt lat="42.69701" lon="-0.65906">
        <ele>933.4</ele>
      </trkpt>
      <trkpt lat="42.69659" lon="-0.65905">
        <ele>929.3</ele>
      </trkpt>
      <trkpt lat="42.69636" lon="-0.65905">
        <ele>926</ele>
      </trkpt>
      <trkpt lat="42.69629" lon="-0.65901">
        <ele>925.7</ele>
      </trkpt>
      <trkpt lat="42.69626" lon="-0.65897">
        <ele>926</ele>
      </trkpt>
      <trkpt lat="42.69623" lon="-0.65888">
        <ele>926.9</ele>
      </trkpt>
      <trkpt lat="42.69622" lon="-0.65879">
        <ele>928.2</ele>
      </trkpt>
      <trkpt lat="42.69623" lon="-0.65852">
        <ele>932.8</ele>
      </trkpt>
      <trkpt lat="42.69641" lon="-0.65652">
        <ele>946.8</ele>
      </trkpt>
      <trkpt lat="42.69643" lon="-0.65645">
        <ele>946.4</ele>
      </trkpt>
      <trkpt lat="42.69645" lon="-0.65639">
        <ele>946.1</ele>
      </trkpt>
      <trkpt lat="42.69649" lon="-0.65632">
        <ele>946</ele>
      </trkpt>
      <trkpt lat="42.69653" lon="-0.65628">
        <ele>946.3</ele>
      </trkpt>
      <trkpt lat="42.6967" lon="-0.65618">
        <ele>948.2</ele>
      </trkpt>
      <trkpt lat="42.69691" lon="-0.65612">
        <ele>952.2</ele>
      </trkpt>
      <trkpt lat="42.69709" lon="-0.65607">
        <ele>955.2</ele>
      </trkpt>
      <trkpt lat="42.69714" lon="-0.65603">
        <ele>955.3</ele>
      </trkpt>
      <trkpt lat="42.69717" lon="-0.65598">
        <ele>954.7</ele>
      </trkpt>
      <trkpt lat="42.6972" lon="-0.65591">
        <ele>953.6</ele>
      </trkpt>
      <trkpt lat="42.69722" lon="-0.65587">
        <ele>952.9</ele>
      </trkpt>
      <trkpt lat="42.69722" lon="-0.65581">
        <ele>952.4</ele>
      </trkpt>
      <trkpt lat="42.69721" lon="-0.65576">
        <ele>953.1</ele>
      </trkpt>
      <trkpt lat="42.69721" lon="-0.65571">
        <ele>954</ele>
      </trkpt>
      <trkpt lat="42.6972" lon="-0.65568">
        <ele>954.4</ele>
      </trkpt>
      <trkpt lat="42.69718" lon="-0.65564">
        <ele>954.7</ele>
      </trkpt>
      <trkpt lat="42.69685" lon="-0.65533">
        <ele>952.4</ele>
      </trkpt>
      <trkpt lat="42.69669" lon="-0.65517">
        <ele>950.6</ele>
      </trkpt>
      <trkpt lat="42.69665" lon="-0.65512">
        <ele>950.2</ele>
      </trkpt>
      <trkpt lat="42.69663" lon="-0.65504">
        <ele>950.7</ele>
      </trkpt>
      <trkpt lat="42.69663" lon="-0.65474">
        <ele>954</ele>
      </trkpt>
      <trkpt lat="42.69663" lon="-0.65445">
        <ele>957.1</ele>
      </trkpt>
      <trkpt lat="42.69662" lon="-0.65413">
        <ele>959.9</ele>
      </trkpt>
      <trkpt lat="42.69663" lon="-0.65379">
        <ele>961</ele>
      </trkpt>
      <trkpt lat="42.69664" lon="-0.65343">
        <ele>962.2</ele>
      </trkpt>
      <trkpt lat="42.69664" lon="-0.65315">
        <ele>962</ele>
      </trkpt>
      <trkpt lat="42.69666" lon="-0.6529">
        <ele>961.8</ele>
      </trkpt>
      <trkpt lat="42.69667" lon="-0.65274">
        <ele>961.7</ele>
      </trkpt>
      <trkpt lat="42.69669" lon="-0.65265">
        <ele>962.5</ele>
      </trkpt>
      <trkpt lat="42.6967" lon="-0.65257">
        <ele>962.7</ele>
      </trkpt>
      <trkpt lat="42.69672" lon="-0.65254">
        <ele>963.5</ele>
      </trkpt>
      <trkpt lat="42.69673" lon="-0.65252">
        <ele>963.9</ele>
      </trkpt>
      <trkpt lat="42.6969" lon="-0.65241">
        <ele>971.2</ele>
      </trkpt>
      <trkpt lat="42.69699" lon="-0.65236">
        <ele>974.9</ele>
      </trkpt>
      <trkpt lat="42.69702" lon="-0.65233">
        <ele>976</ele>
      </trkpt>
      <trkpt lat="42.69704" lon="-0.6523">
        <ele>976.7</ele>
      </trkpt>
      <trkpt lat="42.69705" lon="-0.65228">
        <ele>977</ele>
      </trkpt>
      <trkpt lat="42.69707" lon="-0.65223">
        <ele>977.5</ele>
      </trkpt>
      <trkpt lat="42.69707" lon="-0.65218">
        <ele>977.3</ele>
      </trkpt>
      <trkpt lat="42.69707" lon="-0.6521">
        <ele>976.9</ele>
      </trkpt>
      <trkpt lat="42.69706" lon="-0.65204">
        <ele>976.2</ele>
      </trkpt>
      <trkpt lat="42.69705" lon="-0.65199">
        <ele>975.6</ele>
      </trkpt>
      <trkpt lat="42.69704" lon="-0.65193">
        <ele>975</ele>
      </trkpt>
      <trkpt lat="42.69702" lon="-0.65187">
        <ele>974.2</ele>
      </trkpt>
      <trkpt lat="42.69698" lon="-0.65181">
        <ele>972.7</ele>
      </trkpt>
      <trkpt lat="42.69687" lon="-0.65168">
        <ele>969.4</ele>
      </trkpt>
      <trkpt lat="42.69673" lon="-0.65155">
        <ele>967.9</ele>
      </trkpt>
      <trkpt lat="42.69672" lon="-0.65152">
        <ele>968.2</ele>
      </trkpt>
      <trkpt lat="42.6967" lon="-0.65149">
        <ele>968.2</ele>
      </trkpt>
      <trkpt lat="42.69669" lon="-0.65143">
        <ele>969</ele>
      </trkpt>
      <trkpt lat="42.69669" lon="-0.65118">
        <ele>973.6</ele>
      </trkpt>
      <trkpt lat="42.69666" lon="-0.6509">
        <ele>977.6</ele>
      </trkpt>
      <trkpt lat="42.69658" lon="-0.65065">
        <ele>978.5</ele>
      </trkpt>
      <trkpt lat="42.69651" lon="-0.65042">
        <ele>978.9</ele>
      </trkpt>
      <trkpt lat="42.69647" lon="-0.65023">
        <ele>979.7</ele>
      </trkpt>
      <trkpt lat="42.69646" lon="-0.65016">
        <ele>980.1</ele>
      </trkpt>
      <trkpt lat="42.69647" lon="-0.65009">
        <ele>981.2</ele>
      </trkpt>
      <trkpt lat="42.69648" lon="-0.64984">
        <ele>983.9</ele>
      </trkpt>
      <trkpt lat="42.69646" lon="-0.6497">
        <ele>984.5</ele>
      </trkpt>
      <trkpt lat="42.69645" lon="-0.64959">
        <ele>985.2</ele>
      </trkpt>
      <trkpt lat="42.69643" lon="-0.64949">
        <ele>985.6</ele>
      </trkpt>
      <trkpt lat="42.6964" lon="-0.64941">
        <ele>985.5</ele>
      </trkpt>
      <trkpt lat="42.69632" lon="-0.6493">
        <ele>984.6</ele>
      </trkpt>
      <trkpt lat="42.69625" lon="-0.64922">
        <ele>983.9</ele>
      </trkpt>
      <trkpt lat="42.69617" lon="-0.64917">
        <ele>982.6</ele>
      </trkpt>
      <trkpt lat="42.69598" lon="-0.64909">
        <ele>980.1</ele>
      </trkpt>
      <trkpt lat="42.6959" lon="-0.64905">
        <ele>979.1</ele>
      </trkpt>
      <trkpt lat="42.69582" lon="-0.64899">
        <ele>978.6</ele>
      </trkpt>
      <trkpt lat="42.69579" lon="-0.64895">
        <ele>978.9</ele>
      </trkpt>
      <trkpt lat="42.69572" lon="-0.64884">
        <ele>979.9</ele>
      </trkpt>
      <trkpt lat="42.69567" lon="-0.64871">
        <ele>981.4</ele>
      </trkpt>
      <trkpt lat="42.69558" lon="-0.6485">
        <ele>983.3</ele>
      </trkpt>
      <trkpt lat="42.69554" lon="-0.64833">
        <ele>985.3</ele>
      </trkpt>
      <trkpt lat="42.69553" lon="-0.6482">
        <ele>985.5</ele>
      </trkpt>
      <trkpt lat="42.69549" lon="-0.64801">
        <ele>985.3</ele>
      </trkpt>
      <trkpt lat="42.69549" lon="-0.64792">
        <ele>985.6</ele>
      </trkpt>
      <trkpt lat="42.69548" lon="-0.64783">
        <ele>985.7</ele>
      </trkpt>
      <trkpt lat="42.69549" lon="-0.64772">
        <ele>986.5</ele>
      </trkpt>
      <trkpt lat="42.6955" lon="-0.64769">
        <ele>986.8</ele>
      </trkpt>
      <trkpt lat="42.69553" lon="-0.64765">
        <ele>987.8</ele>
      </trkpt>
      <trkpt lat="42.69557" lon="-0.64761">
        <ele>988.9</ele>
      </trkpt>
      <trkpt lat="42.69567" lon="-0.64754">
        <ele>991.7</ele>
      </trkpt>
      <trkpt lat="42.69577" lon="-0.64748">
        <ele>994.3</ele>
      </trkpt>
      <trkpt lat="42.69595" lon="-0.6474">
        <ele>999</ele>
      </trkpt>
      <trkpt lat="42.69614" lon="-0.64735">
        <ele>1004.6</ele>
      </trkpt>
      <trkpt lat="42.69635" lon="-0.64726">
        <ele>1009.8</ele>
      </trkpt>
      <trkpt lat="42.6966" lon="-0.64711">
        <ele>1014.2</ele>
      </trkpt>
      <trkpt lat="42.69672" lon="-0.64702">
        <ele>1015.9</ele>
      </trkpt>
      <trkpt lat="42.69679" lon="-0.64694">
        <ele>1016.6</ele>
      </trkpt>
      <trkpt lat="42.69684" lon="-0.64687">
        <ele>1016.8</ele>
      </trkpt>
      <trkpt lat="42.69693" lon="-0.6467">
        <ele>1016.2</ele>
      </trkpt>
      <trkpt lat="42.69734" lon="-0.64605">
        <ele>1020.4</ele>
      </trkpt>
      <trkpt lat="42.69736" lon="-0.64602">
        <ele>1020.2</ele>
      </trkpt>
      <trkpt lat="42.69738" lon="-0.64598">
        <ele>1019.9</ele>
      </trkpt>
      <trkpt lat="42.69738" lon="-0.64594">
        <ele>1019.2</ele>
      </trkpt>
      <trkpt lat="42.69738" lon="-0.64586">
        <ele>1017.9</ele>
      </trkpt>
      <trkpt lat="42.69738" lon="-0.64584">
        <ele>1017.5</ele>
      </trkpt>
      <trkpt lat="42.69738" lon="-0.6458">
        <ele>1017.7</ele>
      </trkpt>
      <trkpt lat="42.69737" lon="-0.64577">
        <ele>1017.9</ele>
      </trkpt>
      <trkpt lat="42.69735" lon="-0.64574">
        <ele>1017.9</ele>
      </trkpt>
      <trkpt lat="42.69729" lon="-0.64566">
        <ele>1018.2</ele>
      </trkpt>
      <trkpt lat="42.69726" lon="-0.64563">
        <ele>1018.4</ele>
      </trkpt>
      <trkpt lat="42.69722" lon="-0.64561">
        <ele>1018.4</ele>
      </trkpt>
      <trkpt lat="42.69711" lon="-0.6456">
        <ele>1017.9</ele>
      </trkpt>
      <trkpt lat="42.69705" lon="-0.64562">
        <ele>1017.1</ele>
      </trkpt>
      <trkpt lat="42.69684" lon="-0.64567">
        <ele>1014.5</ele>
      </trkpt>
      <trkpt lat="42.6966" lon="-0.64573">
        <ele>1011.1</ele>
      </trkpt>
      <trkpt lat="42.69641" lon="-0.64573">
        <ele>1010.9</ele>
      </trkpt>
      <trkpt lat="42.69625" lon="-0.64572">
        <ele>1011</ele>
      </trkpt>
      <trkpt lat="42.69603" lon="-0.6457">
        <ele>1011.3</ele>
      </trkpt>
      <trkpt lat="42.6959" lon="-0.64567">
        <ele>1012</ele>
      </trkpt>
      <trkpt lat="42.69578" lon="-0.64564">
        <ele>1011.7</ele>
      </trkpt>
      <trkpt lat="42.69569" lon="-0.64559">
        <ele>1011.3</ele>
      </trkpt>
      <trkpt lat="42.69559" lon="-0.6455">
        <ele>1011.5</ele>
      </trkpt>
      <trkpt lat="42.69549" lon="-0.64537">
        <ele>1012.4</ele>
      </trkpt>
      <trkpt lat="42.69543" lon="-0.64525">
        <ele>1013.7</ele>
      </trkpt>
      <trkpt lat="42.69539" lon="-0.64514">
        <ele>1015</ele>
      </trkpt>
      <trkpt lat="42.69539" lon="-0.64505">
        <ele>1017.1</ele>
      </trkpt>
      <trkpt lat="42.69539" lon="-0.6449">
        <ele>1019.4</ele>
      </trkpt>
      <trkpt lat="42.69541" lon="-0.64474">
        <ele>1021.9</ele>
      </trkpt>
      <trkpt lat="42.69541" lon="-0.64464">
        <ele>1023.1</ele>
      </trkpt>
      <trkpt lat="42.6954" lon="-0.64455">
        <ele>1023.8</ele>
      </trkpt>
      <trkpt lat="42.69539" lon="-0.6444">
        <ele>1025.3</ele>
      </trkpt>
      <trkpt lat="42.69527" lon="-0.6438">
        <ele>1026.4</ele>
      </trkpt>
      <trkpt lat="42.69525" lon="-0.64355">
        <ele>1027.4</ele>
      </trkpt>
      <trkpt lat="42.69525" lon="-0.64295">
        <ele>1031.7</ele>
      </trkpt>
      <trkpt lat="42.69527" lon="-0.64259">
        <ele>1034.8</ele>
      </trkpt>
      <trkpt lat="42.69525" lon="-0.64232">
        <ele>1036.4</ele>
      </trkpt>
      <trkpt lat="42.69524" lon="-0.64176">
        <ele>1040.8</ele>
      </trkpt>
      <trkpt lat="42.69525" lon="-0.64125">
        <ele>1044.7</ele>
      </trkpt>
      <trkpt lat="42.69522" lon="-0.64092">
        <ele>1045.6</ele>
      </trkpt>
      <trkpt lat="42.69525" lon="-0.64066">
        <ele>1045.6</ele>
      </trkpt>
      <trkpt lat="42.69541" lon="-0.64037">
        <ele>1049.1</ele>
      </trkpt>
      <trkpt lat="42.69556" lon="-0.64013">
        <ele>1052.9</ele>
      </trkpt>
      <trkpt lat="42.69572" lon="-0.63991">
        <ele>1057.1</ele>
      </trkpt>
      <trkpt lat="42.69588" lon="-0.63968">
        <ele>1059.4</ele>
      </trkpt>
      <trkpt lat="42.69608" lon="-0.63943">
        <ele>1061.9</ele>
      </trkpt>
      <trkpt lat="42.6962" lon="-0.6392">
        <ele>1061.1</ele>
      </trkpt>
      <trkpt lat="42.69632" lon="-0.63901">
        <ele>1062</ele>
      </trkpt>
      <trkpt lat="42.69638" lon="-0.63899">
        <ele>1063.3</ele>
      </trkpt>
      <trkpt lat="42.69676" lon="-0.63897">
        <ele>1072.9</ele>
      </trkpt>
      <trkpt lat="42.69695" lon="-0.63895">
        <ele>1076.8</ele>
      </trkpt>
      <trkpt lat="42.69719" lon="-0.6389">
        <ele>1081</ele>
      </trkpt>
      <trkpt lat="42.69759" lon="-0.63867">
        <ele>1083.5</ele>
      </trkpt>
      <trkpt lat="42.69767" lon="-0.63855">
        <ele>1082</ele>
      </trkpt>
      <trkpt lat="42.69769" lon="-0.63852">
        <ele>1081.6</ele>
      </trkpt>
      <trkpt lat="42.69769" lon="-0.63849">
        <ele>1080.7</ele>
      </trkpt>
      <trkpt lat="42.69769" lon="-0.63846">
        <ele>1079.8</ele>
      </trkpt>
      <trkpt lat="42.69769" lon="-0.63844">
        <ele>1079.2</ele>
      </trkpt>
      <trkpt lat="42.69768" lon="-0.63839">
        <ele>1077.4</ele>
      </trkpt>
      <trkpt lat="42.69768" lon="-0.63835">
        <ele>1076.2</ele>
      </trkpt>
      <trkpt lat="42.69767" lon="-0.63832">
        <ele>1075.7</ele>
      </trkpt>
      <trkpt lat="42.69765" lon="-0.63829">
        <ele>1075.6</ele>
      </trkpt>
      <trkpt lat="42.69744" lon="-0.63813">
        <ele>1073.5</ele>
      </trkpt>
      <trkpt lat="42.69735" lon="-0.63806">
        <ele>1073</ele>
      </trkpt>
      <trkpt lat="42.69731" lon="-0.63802">
        <ele>1072.9</ele>
      </trkpt>
      <trkpt lat="42.69717" lon="-0.6378">
        <ele>1073.3</ele>
      </trkpt>
      <trkpt lat="42.69711" lon="-0.63763">
        <ele>1074.3</ele>
      </trkpt>
      <trkpt lat="42.69695" lon="-0.63699">
        <ele>1081.5</ele>
      </trkpt>
      <trkpt lat="42.69669" lon="-0.63636">
        <ele>1088.3</ele>
      </trkpt>
      <trkpt lat="42.69668" lon="-0.63634">
        <ele>1088.5</ele>
      </trkpt>
      <trkpt lat="42.69668" lon="-0.63631">
        <ele>1089.3</ele>
      </trkpt>
      <trkpt lat="42.69668" lon="-0.63628">
        <ele>1090</ele>
      </trkpt>
      <trkpt lat="42.69669" lon="-0.63625">
        <ele>1091</ele>
      </trkpt>
      <trkpt lat="42.69671" lon="-0.63622">
        <ele>1092.2</ele>
      </trkpt>
      <trkpt lat="42.69673" lon="-0.6362">
        <ele>1093.1</ele>
      </trkpt>
      <trkpt lat="42.69676" lon="-0.6362">
        <ele>1093.7</ele>
      </trkpt>
      <trkpt lat="42.69678" lon="-0.63621">
        <ele>1093.9</ele>
      </trkpt>
      <trkpt lat="42.69682" lon="-0.63622">
        <ele>1094.5</ele>
      </trkpt>
      <trkpt lat="42.69714" lon="-0.63644">
        <ele>1097</ele>
      </trkpt>
      <trkpt lat="42.69717" lon="-0.63648">
        <ele>1096.9</ele>
      </trkpt>
      <trkpt lat="42.69719" lon="-0.63652">
        <ele>1096.6</ele>
      </trkpt>
      <trkpt lat="42.69721" lon="-0.63657">
        <ele>1096.2</ele>
      </trkpt>
      <trkpt lat="42.69721" lon="-0.63667">
        <ele>1094.3</ele>
      </trkpt>
      <trkpt lat="42.69721" lon="-0.63679">
        <ele>1092</ele>
      </trkpt>
      <trkpt lat="42.69723" lon="-0.63688">
        <ele>1090.9</ele>
      </trkpt>
      <trkpt lat="42.69725" lon="-0.63693">
        <ele>1090.4</ele>
      </trkpt>
      <trkpt lat="42.69728" lon="-0.63701">
        <ele>1089.7</ele>
      </trkpt>
      <trkpt lat="42.69743" lon="-0.63721">
        <ele>1089.8</ele>
      </trkpt>
      <trkpt lat="42.69765" lon="-0.63743">
        <ele>1089.3</ele>
      </trkpt>
      <trkpt lat="42.69779" lon="-0.63756">
        <ele>1088.7</ele>
      </trkpt>
      <trkpt lat="42.69782" lon="-0.63757">
        <ele>1089</ele>
      </trkpt>
      <trkpt lat="42.69784" lon="-0.63757">
        <ele>1089.2</ele>
      </trkpt>
      <trkpt lat="42.69787" lon="-0.63756">
        <ele>1089.7</ele>
      </trkpt>
      <trkpt lat="42.69789" lon="-0.63756">
        <ele>1090</ele>
      </trkpt>
      <trkpt lat="42.69791" lon="-0.63752">
        <ele>1090.7</ele>
      </trkpt>
      <trkpt lat="42.69791" lon="-0.63749">
        <ele>1091.2</ele>
      </trkpt>
      <trkpt lat="42.6979" lon="-0.63746">
        <ele>1091.7</ele>
      </trkpt>
      <trkpt lat="42.69788" lon="-0.63742">
        <ele>1092.4</ele>
      </trkpt>
      <trkpt lat="42.69762" lon="-0.63708">
        <ele>1096</ele>
      </trkpt>
      <trkpt lat="42.69757" lon="-0.63697">
        <ele>1097.4</ele>
      </trkpt>
      <trkpt lat="42.69754" lon="-0.63689">
        <ele>1098.4</ele>
      </trkpt>
      <trkpt lat="42.69753" lon="-0.6368">
        <ele>1100</ele>
      </trkpt>
      <trkpt lat="42.69752" lon="-0.63674">
        <ele>1101</ele>
      </trkpt>
      <trkpt lat="42.69752" lon="-0.63667">
        <ele>1102.3</ele>
      </trkpt>
      <trkpt lat="42.69754" lon="-0.63632">
        <ele>1108.3</ele>
      </trkpt>
      <trkpt lat="42.69753" lon="-0.6363">
        <ele>1108.4</ele>
      </trkpt>
      <trkpt lat="42.69752" lon="-0.63628">
        <ele>1108.5</ele>
      </trkpt>
      <trkpt lat="42.69745" lon="-0.63619">
        <ele>1108.4</ele>
      </trkpt>
      <trkpt lat="42.69725" lon="-0.63605">
        <ele>1106.8</ele>
      </trkpt>
      <trkpt lat="42.69698" lon="-0.6358">
        <ele>1107.8</ele>
      </trkpt>
      <trkpt lat="42.69677" lon="-0.63567">
        <ele>1110.3</ele>
      </trkpt>
      <trkpt lat="42.69664" lon="-0.63562">
        <ele>1111.3</ele>
      </trkpt>
      <trkpt lat="42.69613" lon="-0.63548">
        <ele>1122</ele>
      </trkpt>
      <trkpt lat="42.69605" lon="-0.63547">
        <ele>1123</ele>
      </trkpt>
      <trkpt lat="42.69596" lon="-0.63549">
        <ele>1123.1</ele>
      </trkpt>
      <trkpt lat="42.6959" lon="-0.63553">
        <ele>1122.2</ele>
      </trkpt>
      <trkpt lat="42.69587" lon="-0.63559">
        <ele>1120.5</ele>
      </trkpt>
      <trkpt lat="42.69575" lon="-0.63593">
        <ele>1113.2</ele>
      </trkpt>
      <trkpt lat="42.69566" lon="-0.63606">
        <ele>1112.4</ele>
      </trkpt>
      <trkpt lat="42.69557" lon="-0.63617">
        <ele>1112</ele>
      </trkpt>
      <trkpt lat="42.69542" lon="-0.63629">
        <ele>1112.9</ele>
      </trkpt>
      <trkpt lat="42.69525" lon="-0.63642">
        <ele>1113.7</ele>
      </trkpt>
      <trkpt lat="42.69514" lon="-0.63646">
        <ele>1115.5</ele>
      </trkpt>
      <trkpt lat="42.69492" lon="-0.63647">
        <ele>1119</ele>
      </trkpt>
      <trkpt lat="42.69461" lon="-0.63642">
        <ele>1120.6</ele>
      </trkpt>
      <trkpt lat="42.69448" lon="-0.63642">
        <ele>1120.5</ele>
      </trkpt>
      <trkpt lat="42.69414" lon="-0.63641">
        <ele>1120.1</ele>
      </trkpt>
      <trkpt lat="42.69403" lon="-0.63637">
        <ele>1119.3</ele>
      </trkpt>
      <trkpt lat="42.69395" lon="-0.63632">
        <ele>1119.4</ele>
      </trkpt>
      <trkpt lat="42.69382" lon="-0.63618">
        <ele>1121.5</ele>
      </trkpt>
      <trkpt lat="42.69357" lon="-0.63582">
        <ele>1128.4</ele>
      </trkpt>
      <trkpt lat="42.6935" lon="-0.63574">
        <ele>1130.1</ele>
      </trkpt>
      <trkpt lat="42.69342" lon="-0.63569">
        <ele>1130.5</ele>
      </trkpt>
      <trkpt lat="42.69274" lon="-0.63523">
        <ele>1139.4</ele>
      </trkpt>
      <trkpt lat="42.69264" lon="-0.63518">
        <ele>1139.7</ele>
      </trkpt>
      <trkpt lat="42.69248" lon="-0.63516">
        <ele>1138.9</ele>
      </trkpt>
      <trkpt lat="42.69233" lon="-0.63515">
        <ele>1143.4</ele>
      </trkpt>
      <trkpt lat="42.69212" lon="-0.63517">
        <ele>1148.6</ele>
      </trkpt>
      <trkpt lat="42.69195" lon="-0.63524">
        <ele>1151.6</ele>
      </trkpt>
      <trkpt lat="42.69183" lon="-0.63546">
        <ele>1149.7</ele>
      </trkpt>
      <trkpt lat="42.69159" lon="-0.63598">
        <ele>1149.9</ele>
      </trkpt>
      <trkpt lat="42.69141" lon="-0.6366">
        <ele>1159.2</ele>
      </trkpt>
      <trkpt lat="42.69139" lon="-0.63662">
        <ele>1160.2</ele>
      </trkpt>
      <trkpt lat="42.69137" lon="-0.63663">
        <ele>1161.2</ele>
      </trkpt>
      <trkpt lat="42.69133" lon="-0.63665">
        <ele>1163.1</ele>
      </trkpt>
      <trkpt lat="42.69131" lon="-0.63664">
        <ele>1164.1</ele>
      </trkpt>
      <trkpt lat="42.69128" lon="-0.63664">
        <ele>1165.5</ele>
      </trkpt>
      <trkpt lat="42.69126" lon="-0.63663">
        <ele>1166.5</ele>
      </trkpt>
      <trkpt lat="42.69125" lon="-0.63662">
        <ele>1166.9</ele>
      </trkpt>
      <trkpt lat="42.69124" lon="-0.63661">
        <ele>1167.4</ele>
      </trkpt>
      <trkpt lat="42.69124" lon="-0.63657">
        <ele>1167.4</ele>
      </trkpt>
      <trkpt lat="42.69123" lon="-0.63621">
        <ele>1167.4</ele>
      </trkpt>
      <trkpt lat="42.69122" lon="-0.63601">
        <ele>1167.6</ele>
      </trkpt>
      <trkpt lat="42.69125" lon="-0.63589">
        <ele>1166.1</ele>
      </trkpt>
      <trkpt lat="42.69127" lon="-0.6358">
        <ele>1165.7</ele>
      </trkpt>
      <trkpt lat="42.6913" lon="-0.63569">
        <ele>1166.6</ele>
      </trkpt>
      <trkpt lat="42.69138" lon="-0.63559">
        <ele>1164.9</ele>
      </trkpt>
      <trkpt lat="42.69159" lon="-0.63525">
        <ele>1162.7</ele>
      </trkpt>
      <trkpt lat="42.69162" lon="-0.63518">
        <ele>1163</ele>
      </trkpt>
      <trkpt lat="42.69167" lon="-0.63504">
        <ele>1164</ele>
      </trkpt>
      <trkpt lat="42.69173" lon="-0.63475">
        <ele>1168.6</ele>
      </trkpt>
      <trkpt lat="42.69176" lon="-0.63464">
        <ele>1170.3</ele>
      </trkpt>
      <trkpt lat="42.69184" lon="-0.63452">
        <ele>1171.3</ele>
      </trkpt>
      <trkpt lat="42.69192" lon="-0.63443">
        <ele>1171.8</ele>
      </trkpt>
      <trkpt lat="42.69202" lon="-0.63432">
        <ele>1172.7</ele>
      </trkpt>
      <trkpt lat="42.69211" lon="-0.63423">
        <ele>1173.4</ele>
      </trkpt>
      <trkpt lat="42.69219" lon="-0.63418">
        <ele>1173.5</ele>
      </trkpt>
      <trkpt lat="42.69227" lon="-0.63415">
        <ele>1173.1</ele>
      </trkpt>
      <trkpt lat="42.6924" lon="-0.63415">
        <ele>1171.1</ele>
      </trkpt>
      <trkpt lat="42.69279" lon="-0.63412">
        <ele>1174.9</ele>
      </trkpt>
      <trkpt lat="42.69298" lon="-0.6341">
        <ele>1178.3</ele>
      </trkpt>
      <trkpt lat="42.69313" lon="-0.63414">
        <ele>1179.5</ele>
      </trkpt>
      <trkpt lat="42.69336" lon="-0.63431">
        <ele>1178.1</ele>
      </trkpt>
      <trkpt lat="42.69359" lon="-0.63456">
        <ele>1175.3</ele>
      </trkpt>
      <trkpt lat="42.69381" lon="-0.63483">
        <ele>1171.6</ele>
      </trkpt>
      <trkpt lat="42.69391" lon="-0.63496">
        <ele>1169.7</ele>
      </trkpt>
      <trkpt lat="42.69394" lon="-0.63497">
        <ele>1170</ele>
      </trkpt>
      <trkpt lat="42.69396" lon="-0.63497">
        <ele>1170.5</ele>
      </trkpt>
      <trkpt lat="42.69397" lon="-0.63497">
        <ele>1170.7</ele>
      </trkpt>
      <trkpt lat="42.69398" lon="-0.63496">
        <ele>1171.2</ele>
      </trkpt>
      <trkpt lat="42.69399" lon="-0.63495">
        <ele>1171.8</ele>
      </trkpt>
      <trkpt lat="42.69401" lon="-0.63492">
        <ele>1173.1</ele>
      </trkpt>
      <trkpt lat="42.69401" lon="-0.63491">
        <ele>1173.4</ele>
      </trkpt>
      <trkpt lat="42.69401" lon="-0.63489">
        <ele>1174.1</ele>
      </trkpt>
      <trkpt lat="42.69401" lon="-0.63488">
        <ele>1174.4</ele>
      </trkpt>
      <trkpt lat="42.694" lon="-0.63486">
        <ele>1174.8</ele>
      </trkpt>
      <trkpt lat="42.69399" lon="-0.63484">
        <ele>1175.2</ele>
      </trkpt>
      <trkpt lat="42.69377" lon="-0.63449">
        <ele>1181.4</ele>
      </trkpt>
      <trkpt lat="42.69359" lon="-0.6341">
        <ele>1189.1</ele>
      </trkpt>
      <trkpt lat="42.69331" lon="-0.63354">
        <ele>1196.8</ele>
      </trkpt>
      <trkpt lat="42.69319" lon="-0.63339">
        <ele>1199.4</ele>
      </trkpt>
      <trkpt lat="42.69307" lon="-0.63324">
        <ele>1202.7</ele>
      </trkpt>
      <trkpt lat="42.69297" lon="-0.63316">
        <ele>1204.4</ele>
      </trkpt>
      <trkpt lat="42.69278" lon="-0.63308">
        <ele>1205.7</ele>
      </trkpt>
      <trkpt lat="42.6927" lon="-0.63306">
        <ele>1205.8</ele>
      </trkpt>
      <trkpt lat="42.69265" lon="-0.63305">
        <ele>1205.8</ele>
      </trkpt>
      <trkpt lat="42.69259" lon="-0.63307">
        <ele>1204.8</ele>
      </trkpt>
      <trkpt lat="42.69234" lon="-0.63315">
        <ele>1203.8</ele>
      </trkpt>
      <trkpt lat="42.69208" lon="-0.63316">
        <ele>1207.3</ele>
      </trkpt>
      <trkpt lat="42.69197" lon="-0.63317">
        <ele>1208.6</ele>
      </trkpt>
      <trkpt lat="42.69187" lon="-0.6332">
        <ele>1209.1</ele>
      </trkpt>
      <trkpt lat="42.69174" lon="-0.63327">
        <ele>1208.9</ele>
      </trkpt>
      <trkpt lat="42.69164" lon="-0.63332">
        <ele>1209.1</ele>
      </trkpt>
      <trkpt lat="42.69154" lon="-0.63341">
        <ele>1209</ele>
      </trkpt>
      <trkpt lat="42.69144" lon="-0.63354">
        <ele>1208.1</ele>
      </trkpt>
      <trkpt lat="42.69135" lon="-0.6337">
        <ele>1206.7</ele>
      </trkpt>
      <trkpt lat="42.69096" lon="-0.63424">
        <ele>1209.5</ele>
      </trkpt>
      <trkpt lat="42.69093" lon="-0.63427">
        <ele>1210.2</ele>
      </trkpt>
      <trkpt lat="42.69088" lon="-0.63431">
        <ele>1211.5</ele>
      </trkpt>
      <trkpt lat="42.69082" lon="-0.63434">
        <ele>1213.2</ele>
      </trkpt>
      <trkpt lat="42.69074" lon="-0.63433">
        <ele>1215.1</ele>
      </trkpt>
      <trkpt lat="42.69073" lon="-0.63432">
        <ele>1215.4</ele>
      </trkpt>
      <trkpt lat="42.69072" lon="-0.63431">
        <ele>1215.8</ele>
      </trkpt>
      <trkpt lat="42.69071" lon="-0.6343">
        <ele>1216.2</ele>
      </trkpt>
      <trkpt lat="42.69071" lon="-0.63428">
        <ele>1216.5</ele>
      </trkpt>
      <trkpt lat="42.69071" lon="-0.63426">
        <ele>1216.8</ele>
      </trkpt>
      <trkpt lat="42.69071" lon="-0.63424">
        <ele>1217.1</ele>
      </trkpt>
      <trkpt lat="42.69072" lon="-0.63421">
        <ele>1217.4</ele>
      </trkpt>
      <trkpt lat="42.69075" lon="-0.63415">
        <ele>1217.7</ele>
      </trkpt>
      <trkpt lat="42.69094" lon="-0.63386">
        <ele>1217</ele>
      </trkpt>
      <trkpt lat="42.69106" lon="-0.63369">
        <ele>1216.2</ele>
      </trkpt>
      <trkpt lat="42.69108" lon="-0.63366">
        <ele>1216.2</ele>
      </trkpt>
      <trkpt lat="42.69108" lon="-0.63363">
        <ele>1216.8</ele>
      </trkpt>
      <trkpt lat="42.69109" lon="-0.6336">
        <ele>1217.1</ele>
      </trkpt>
      <trkpt lat="42.69109" lon="-0.63357">
        <ele>1217.7</ele>
      </trkpt>
      <trkpt lat="42.69109" lon="-0.63356">
        <ele>1217.9</ele>
      </trkpt>
      <trkpt lat="42.69108" lon="-0.63356">
        <ele>1218.2</ele>
      </trkpt>
      <trkpt lat="42.69108" lon="-0.63355">
        <ele>1218.4</ele>
      </trkpt>
      <trkpt lat="42.69107" lon="-0.63355">
        <ele>1218.7</ele>
      </trkpt>
      <trkpt lat="42.69106" lon="-0.63355">
        <ele>1219</ele>
      </trkpt>
      <trkpt lat="42.69105" lon="-0.63355">
        <ele>1219.3</ele>
      </trkpt>
      <trkpt lat="42.69073" lon="-0.63384">
        <ele>1221.6</ele>
      </trkpt>
      <trkpt lat="42.6904" lon="-0.63397">
        <ele>1223.6</ele>
      </trkpt>
      <trkpt lat="42.69034" lon="-0.63399">
        <ele>1224.2</ele>
      </trkpt>
      <trkpt lat="42.69032" lon="-0.63399">
        <ele>1224.5</ele>
      </trkpt>
      <trkpt lat="42.6903" lon="-0.63398">
        <ele>1224.6</ele>
      </trkpt>
      <trkpt lat="42.69027" lon="-0.63396">
        <ele>1224.8</ele>
      </trkpt>
      <trkpt lat="42.69026" lon="-0.63395">
        <ele>1224.9</ele>
      </trkpt>
      <trkpt lat="42.69025" lon="-0.63393">
        <ele>1224.8</ele>
      </trkpt>
      <trkpt lat="42.69023" lon="-0.63388">
        <ele>1224.6</ele>
      </trkpt>
      <trkpt lat="42.69023" lon="-0.63385">
        <ele>1224.4</ele>
      </trkpt>
      <trkpt lat="42.69024" lon="-0.63381">
        <ele>1224</ele>
      </trkpt>
      <trkpt lat="42.69024" lon="-0.63377">
        <ele>1223.7</ele>
      </trkpt>
      <trkpt lat="42.69038" lon="-0.63332">
        <ele>1222.3</ele>
      </trkpt>
      <trkpt lat="42.69059" lon="-0.63262">
        <ele>1220.6</ele>
      </trkpt>
      <trkpt lat="42.69063" lon="-0.6325">
        <ele>1221.2</ele>
      </trkpt>
      <trkpt lat="42.69067" lon="-0.63224">
        <ele>1219.7</ele>
      </trkpt>
      <trkpt lat="42.69069" lon="-0.63197">
        <ele>1217.4</ele>
      </trkpt>
      <trkpt lat="42.69069" lon="-0.63182">
        <ele>1215.8</ele>
      </trkpt>
      <trkpt lat="42.69066" lon="-0.63147">
        <ele>1211.7</ele>
      </trkpt>
      <trkpt lat="42.69062" lon="-0.63104">
        <ele>1207.4</ele>
      </trkpt>
      <trkpt lat="42.69062" lon="-0.63097">
        <ele>1206.9</ele>
      </trkpt>
      <trkpt lat="42.69064" lon="-0.63088">
        <ele>1207.1</ele>
      </trkpt>
      <trkpt lat="42.69066" lon="-0.6308">
        <ele>1206.9</ele>
      </trkpt>
      <trkpt lat="42.69086" lon="-0.63053">
        <ele>1207.9</ele>
      </trkpt>
      <trkpt lat="42.69146" lon="-0.62989">
        <ele>1211.1</ele>
      </trkpt>
      <trkpt lat="42.6916" lon="-0.6297">
        <ele>1212</ele>
      </trkpt>
      <trkpt lat="42.69166" lon="-0.62958">
        <ele>1211.7</ele>
      </trkpt>
      <trkpt lat="42.69166" lon="-0.62953">
        <ele>1210.9</ele>
      </trkpt>
      <trkpt lat="42.69167" lon="-0.62944">
        <ele>1209.7</ele>
      </trkpt>
      <trkpt lat="42.69167" lon="-0.62887">
        <ele>1204.8</ele>
      </trkpt>
      <trkpt lat="42.69167" lon="-0.6288">
        <ele>1204.7</ele>
      </trkpt>
      <trkpt lat="42.69166" lon="-0.62861">
        <ele>1204.1</ele>
      </trkpt>
      <trkpt lat="42.69163" lon="-0.62845">
        <ele>1202.9</ele>
      </trkpt>
      <trkpt lat="42.69161" lon="-0.62834">
        <ele>1202</ele>
      </trkpt>
      <trkpt lat="42.69157" lon="-0.62826">
        <ele>1201</ele>
      </trkpt>
      <trkpt lat="42.69142" lon="-0.62804">
        <ele>1197.3</ele>
      </trkpt>
      <trkpt lat="42.69117" lon="-0.6277">
        <ele>1192</ele>
      </trkpt>
      <trkpt lat="42.69088" lon="-0.62711">
        <ele>1187.8</ele>
      </trkpt>
      <trkpt lat="42.69084" lon="-0.62703">
        <ele>1187.5</ele>
      </trkpt>
      <trkpt lat="42.69081" lon="-0.62691">
        <ele>1187.4</ele>
      </trkpt>
      <trkpt lat="42.69079" lon="-0.62683">
        <ele>1187.3</ele>
      </trkpt>
      <trkpt lat="42.69077" lon="-0.62649">
        <ele>1185.2</ele>
      </trkpt>
      <trkpt lat="42.69076" lon="-0.62642">
        <ele>1183.9</ele>
      </trkpt>
      <trkpt lat="42.69076" lon="-0.6264">
        <ele>1183.6</ele>
      </trkpt>
      <trkpt lat="42.69075" lon="-0.62639">
        <ele>1183.1</ele>
      </trkpt>
      <trkpt lat="42.69073" lon="-0.62638">
        <ele>1182.3</ele>
      </trkpt>
      <trkpt lat="42.69069" lon="-0.62635">
        <ele>1180.6</ele>
      </trkpt>
      <trkpt lat="42.69065" lon="-0.62633">
        <ele>1179</ele>
      </trkpt>
      <trkpt lat="42.69063" lon="-0.62633">
        <ele>1178.3</ele>
      </trkpt>
      <trkpt lat="42.69061" lon="-0.62634">
        <ele>1177.7</ele>
      </trkpt>
      <trkpt lat="42.69053" lon="-0.62641">
        <ele>1175.8</ele>
      </trkpt>
      <trkpt lat="42.69048" lon="-0.62653">
        <ele>1175.4</ele>
      </trkpt>
      <trkpt lat="42.69037" lon="-0.62689">
        <ele>1171.9</ele>
      </trkpt>
      <trkpt lat="42.69036" lon="-0.62696">
        <ele>1171.3</ele>
      </trkpt>
      <trkpt lat="42.69036" lon="-0.62704">
        <ele>1171</ele>
      </trkpt>
      <trkpt lat="42.69038" lon="-0.62713">
        <ele>1171.3</ele>
      </trkpt>
      <trkpt lat="42.6906" lon="-0.62811">
        <ele>1170.8</ele>
      </trkpt>
      <trkpt lat="42.69062" lon="-0.62851">
        <ele>1169.9</ele>
      </trkpt>
      <trkpt lat="42.69061" lon="-0.62877">
        <ele>1170.8</ele>
      </trkpt>
      <trkpt lat="42.69061" lon="-0.6288">
        <ele>1171</ele>
      </trkpt>
      <trkpt lat="42.6906" lon="-0.62883">
        <ele>1170.9</ele>
      </trkpt>
      <trkpt lat="42.69059" lon="-0.62887">
        <ele>1170.8</ele>
      </trkpt>
      <trkpt lat="42.69058" lon="-0.6289">
        <ele>1170.7</ele>
      </trkpt>
      <trkpt lat="42.69055" lon="-0.62893">
        <ele>1170.1</ele>
      </trkpt>
      <trkpt lat="42.69052" lon="-0.62894">
        <ele>1169.4</ele>
      </trkpt>
      <trkpt lat="42.6905" lon="-0.62895">
        <ele>1168.9</ele>
      </trkpt>
      <trkpt lat="42.69048" lon="-0.62895">
        <ele>1168.4</ele>
      </trkpt>
      <trkpt lat="42.69046" lon="-0.62894">
        <ele>1167.9</ele>
      </trkpt>
      <trkpt lat="42.69044" lon="-0.62893">
        <ele>1167.3</ele>
      </trkpt>
      <trkpt lat="42.69042" lon="-0.62892">
        <ele>1166.8</ele>
      </trkpt>
      <trkpt lat="42.69041" lon="-0.62891">
        <ele>1166.4</ele>
      </trkpt>
      <trkpt lat="42.6904" lon="-0.62887">
        <ele>1166</ele>
      </trkpt>
      <trkpt lat="42.69033" lon="-0.62866">
        <ele>1163</ele>
      </trkpt>
      <trkpt lat="42.69025" lon="-0.62837">
        <ele>1159.1</ele>
      </trkpt>
      <trkpt lat="42.69016" lon="-0.62817">
        <ele>1157.7</ele>
      </trkpt>
      <trkpt lat="42.69001" lon="-0.62798">
        <ele>1154.8</ele>
      </trkpt>
      <trkpt lat="42.68987" lon="-0.62768">
        <ele>1152</ele>
      </trkpt>
      <trkpt lat="42.68985" lon="-0.62761">
        <ele>1151.6</ele>
      </trkpt>
      <trkpt lat="42.68983" lon="-0.62749">
        <ele>1151.5</ele>
      </trkpt>
      <trkpt lat="42.68982" lon="-0.62744">
        <ele>1151.2</ele>
      </trkpt>
      <trkpt lat="42.68982" lon="-0.62732">
        <ele>1151.3</ele>
      </trkpt>
      <trkpt lat="42.68982" lon="-0.62726">
        <ele>1151.4</ele>
      </trkpt>
      <trkpt lat="42.68981" lon="-0.62721">
        <ele>1151.1</ele>
      </trkpt>
      <trkpt lat="42.68967" lon="-0.6267">
        <ele>1146.3</ele>
      </trkpt>
      <trkpt lat="42.68962" lon="-0.62651">
        <ele>1144</ele>
      </trkpt>
      <trkpt lat="42.68961" lon="-0.6264">
        <ele>1143.3</ele>
      </trkpt>
      <trkpt lat="42.6896" lon="-0.62627">
        <ele>1142.6</ele>
      </trkpt>
      <trkpt lat="42.68959" lon="-0.62611">
        <ele>1141.9</ele>
      </trkpt>
      <trkpt lat="42.68964" lon="-0.62586">
        <ele>1142.8</ele>
      </trkpt>
      <trkpt lat="42.68972" lon="-0.6256">
        <ele>1140.5</ele>
      </trkpt>
      <trkpt lat="42.68986" lon="-0.62536">
        <ele>1139.7</ele>
      </trkpt>
      <trkpt lat="42.69006" lon="-0.62511">
        <ele>1139.9</ele>
      </trkpt>
      <trkpt lat="42.69048" lon="-0.62466">
        <ele>1136.1</ele>
      </trkpt>
      <trkpt lat="42.69064" lon="-0.6245">
        <ele>1134.1</ele>
      </trkpt>
      <trkpt lat="42.69078" lon="-0.62442">
        <ele>1134.1</ele>
      </trkpt>
      <trkpt lat="42.69148" lon="-0.62404">
        <ele>1123.9</ele>
      </trkpt>
      <trkpt lat="42.69156" lon="-0.62397">
        <ele>1122.1</ele>
      </trkpt>
      <trkpt lat="42.69158" lon="-0.62393">
        <ele>1121</ele>
      </trkpt>
      <trkpt lat="42.69159" lon="-0.62392">
        <ele>1120.7</ele>
      </trkpt>
      <trkpt lat="42.69159" lon="-0.6239">
        <ele>1120.1</ele>
      </trkpt>
      <trkpt lat="42.69159" lon="-0.62388">
        <ele>1119.6</ele>
      </trkpt>
      <trkpt lat="42.69159" lon="-0.62386">
        <ele>1119</ele>
      </trkpt>
      <trkpt lat="42.69158" lon="-0.62384">
        <ele>1118.4</ele>
      </trkpt>
      <trkpt lat="42.69158" lon="-0.62383">
        <ele>1118.1</ele>
      </trkpt>
      <trkpt lat="42.69157" lon="-0.62382">
        <ele>1117.8</ele>
      </trkpt>
      <trkpt lat="42.69156" lon="-0.62381">
        <ele>1117.5</ele>
      </trkpt>
      <trkpt lat="42.69154" lon="-0.6238">
        <ele>1117.1</ele>
      </trkpt>
      <trkpt lat="42.69153" lon="-0.6238">
        <ele>1117.1</ele>
      </trkpt>
      <trkpt lat="42.6915" lon="-0.62379">
        <ele>1116.7</ele>
      </trkpt>
      <trkpt lat="42.69148" lon="-0.62378">
        <ele>1116.4</ele>
      </trkpt>
      <trkpt lat="42.69142" lon="-0.6238">
        <ele>1116.8</ele>
      </trkpt>
      <trkpt lat="42.69079" lon="-0.62394">
        <ele>1118.7</ele>
      </trkpt>
      <trkpt lat="42.69039" lon="-0.62405">
        <ele>1114.7</ele>
      </trkpt>
      <trkpt lat="42.68944" lon="-0.62452">
        <ele>1108.9</ele>
      </trkpt>
      <trkpt lat="42.68919" lon="-0.6247">
        <ele>1107.1</ele>
      </trkpt>
      <trkpt lat="42.68875" lon="-0.62508">
        <ele>1103.1</ele>
      </trkpt>
      <trkpt lat="42.68866" lon="-0.62515">
        <ele>1101.6</ele>
      </trkpt>
      <trkpt lat="42.68839" lon="-0.62535">
        <ele>1096.1</ele>
      </trkpt>
      <trkpt lat="42.68832" lon="-0.62541">
        <ele>1094.5</ele>
      </trkpt>
      <trkpt lat="42.68829" lon="-0.62544">
        <ele>1093.9</ele>
      </trkpt>
      <trkpt lat="42.68826" lon="-0.6255">
        <ele>1093.5</ele>
      </trkpt>
      <trkpt lat="42.6882" lon="-0.62563">
        <ele>1092.7</ele>
      </trkpt>
      <trkpt lat="42.68816" lon="-0.62584">
        <ele>1092.9</ele>
      </trkpt>
      <trkpt lat="42.6881" lon="-0.62608">
        <ele>1090.4</ele>
      </trkpt>
      <trkpt lat="42.68809" lon="-0.6261">
        <ele>1090</ele>
      </trkpt>
      <trkpt lat="42.68808" lon="-0.62613">
        <ele>1089.7</ele>
      </trkpt>
      <trkpt lat="42.68807" lon="-0.62614">
        <ele>1089.4</ele>
      </trkpt>
      <trkpt lat="42.68806" lon="-0.62614">
        <ele>1089.1</ele>
      </trkpt>
      <trkpt lat="42.68805" lon="-0.62614">
        <ele>1088.8</ele>
      </trkpt>
      <trkpt lat="42.68804" lon="-0.62614">
        <ele>1088.5</ele>
      </trkpt>
      <trkpt lat="42.68803" lon="-0.62614">
        <ele>1088.2</ele>
      </trkpt>
      <trkpt lat="42.68803" lon="-0.62613">
        <ele>1088.3</ele>
      </trkpt>
      <trkpt lat="42.68802" lon="-0.62612">
        <ele>1088</ele>
      </trkpt>
      <trkpt lat="42.68799" lon="-0.62607">
        <ele>1087.1</ele>
      </trkpt>
      <trkpt lat="42.68799" lon="-0.62603">
        <ele>1087.1</ele>
      </trkpt>
      <trkpt lat="42.68796" lon="-0.62578">
        <ele>1085.7</ele>
      </trkpt>
      <trkpt lat="42.68796" lon="-0.62558">
        <ele>1084.7</ele>
      </trkpt>
      <trkpt lat="42.68796" lon="-0.62545">
        <ele>1084</ele>
      </trkpt>
      <trkpt lat="42.68799" lon="-0.6246">
        <ele>1078</ele>
      </trkpt>
      <trkpt lat="42.6881" lon="-0.62425">
        <ele>1076.1</ele>
      </trkpt>
      <trkpt lat="42.6883" lon="-0.6238">
        <ele>1072.3</ele>
      </trkpt>
      <trkpt lat="42.68845" lon="-0.62352">
        <ele>1070</ele>
      </trkpt>
      <trkpt lat="42.68858" lon="-0.62328">
        <ele>1068</ele>
      </trkpt>
      <trkpt lat="42.68863" lon="-0.62321">
        <ele>1067.7</ele>
      </trkpt>
      <trkpt lat="42.68866" lon="-0.62317">
        <ele>1067.5</ele>
      </trkpt>
      <trkpt lat="42.68984" lon="-0.62225">
        <ele>1068.1</ele>
      </trkpt>
      <trkpt lat="42.69021" lon="-0.62196">
        <ele>1067.6</ele>
      </trkpt>
      <trkpt lat="42.69085" lon="-0.62135">
        <ele>1066.1</ele>
      </trkpt>
      <trkpt lat="42.69085" lon="-0.62135">
        <ele>1066.1</ele>
      </trkpt>
      <trkpt lat="42.69082" lon="-0.62124">
        <ele>1064.8</ele>
      </trkpt>
      <trkpt lat="42.69079" lon="-0.6212">
        <ele>1064.2</ele>
      </trkpt>
      <trkpt lat="42.69076" lon="-0.62116">
        <ele>1063.6</ele>
      </trkpt>
      <trkpt lat="42.69072" lon="-0.62113">
        <ele>1063</ele>
      </trkpt>
      <trkpt lat="42.69068" lon="-0.62112">
        <ele>1062.6</ele>
      </trkpt>
      <trkpt lat="42.69064" lon="-0.62112">
        <ele>1062.3</ele>
      </trkpt>
      <trkpt lat="42.69058" lon="-0.62112">
        <ele>1061.8</ele>
      </trkpt>
      <trkpt lat="42.69044" lon="-0.62115">
        <ele>1061</ele>
      </trkpt>
      <trkpt lat="42.69021" lon="-0.62124">
        <ele>1060.1</ele>
      </trkpt>
      <trkpt lat="42.69" lon="-0.62131">
        <ele>1059</ele>
      </trkpt>
      <trkpt lat="42.68979" lon="-0.62138">
        <ele>1056.9</ele>
      </trkpt>
      <trkpt lat="42.68961" lon="-0.62143">
        <ele>1055</ele>
      </trkpt>
      <trkpt lat="42.68943" lon="-0.6215">
        <ele>1053.2</ele>
      </trkpt>
      <trkpt lat="42.68923" lon="-0.62157">
        <ele>1051.1</ele>
      </trkpt>
      <trkpt lat="42.68896" lon="-0.62164">
        <ele>1048.9</ele>
      </trkpt>
      <trkpt lat="42.68894" lon="-0.62164">
        <ele>1048.7</ele>
      </trkpt>
      <trkpt lat="42.68863" lon="-0.62173">
        <ele>1046.6</ele>
      </trkpt>
      <trkpt lat="42.68834" lon="-0.62179">
        <ele>1044.3</ele>
      </trkpt>
      <trkpt lat="42.68828" lon="-0.62176">
        <ele>1043.6</ele>
      </trkpt>
      <trkpt lat="42.68822" lon="-0.62173">
        <ele>1043</ele>
      </trkpt>
      <trkpt lat="42.68811" lon="-0.6216">
        <ele>1042.1</ele>
      </trkpt>
      <trkpt lat="42.68797" lon="-0.62137">
        <ele>1042.3</ele>
      </trkpt>
      <trkpt lat="42.68787" lon="-0.62118">
        <ele>1043</ele>
      </trkpt>
      <trkpt lat="42.68784" lon="-0.62112">
        <ele>1043.4</ele>
      </trkpt>
      <trkpt lat="42.68782" lon="-0.62109">
        <ele>1043.5</ele>
      </trkpt>
      <trkpt lat="42.68774" lon="-0.62093">
        <ele>1044.6</ele>
      </trkpt>
      <trkpt lat="42.6877" lon="-0.62085">
        <ele>1045.2</ele>
      </trkpt>
      <trkpt lat="42.68766" lon="-0.62081">
        <ele>1046</ele>
      </trkpt>
      <trkpt lat="42.68761" lon="-0.62081">
        <ele>1046.2</ele>
      </trkpt>
      <trkpt lat="42.68741" lon="-0.62096">
        <ele>1045.3</ele>
      </trkpt>
      <trkpt lat="42.68728" lon="-0.62105">
        <ele>1044.8</ele>
      </trkpt>
      <trkpt lat="42.68698" lon="-0.62114">
        <ele>1044.3</ele>
      </trkpt>
      <trkpt lat="42.6868" lon="-0.62114">
        <ele>1044.6</ele>
      </trkpt>
      <trkpt lat="42.68664" lon="-0.62115">
        <ele>1044.8</ele>
      </trkpt>
      <trkpt lat="42.68658" lon="-0.62115">
        <ele>1044.9</ele>
      </trkpt>
      <trkpt lat="42.68636" lon="-0.62117">
        <ele>1045.2</ele>
      </trkpt>
      <trkpt lat="42.68556" lon="-0.6213">
        <ele>1043.7</ele>
      </trkpt>
      <trkpt lat="42.68534" lon="-0.62132">
        <ele>1043.1</ele>
      </trkpt>
      <trkpt lat="42.68511" lon="-0.62134">
        <ele>1042.5</ele>
      </trkpt>
      <trkpt lat="42.68496" lon="-0.6214">
        <ele>1040.9</ele>
      </trkpt>
      <trkpt lat="42.68467" lon="-0.62154">
        <ele>1037</ele>
      </trkpt>
      <trkpt lat="42.68446" lon="-0.62159">
        <ele>1035.6</ele>
      </trkpt>
      <trkpt lat="42.68434" lon="-0.62158">
        <ele>1035.4</ele>
      </trkpt>
      <trkpt lat="42.68428" lon="-0.62158">
        <ele>1035.3</ele>
      </trkpt>
      <trkpt lat="42.68424" lon="-0.62156">
        <ele>1035.5</ele>
      </trkpt>
      <trkpt lat="42.6842" lon="-0.62152">
        <ele>1035.9</ele>
      </trkpt>
      <trkpt lat="42.68417" lon="-0.62149">
        <ele>1036.1</ele>
      </trkpt>
      <trkpt lat="42.68413" lon="-0.62145">
        <ele>1036.5</ele>
      </trkpt>
      <trkpt lat="42.68407" lon="-0.6213">
        <ele>1038.4</ele>
      </trkpt>
      <trkpt lat="42.68401" lon="-0.62114">
        <ele>1040.5</ele>
      </trkpt>
      <trkpt lat="42.68398" lon="-0.62108">
        <ele>1041.3</ele>
      </trkpt>
      <trkpt lat="42.68393" lon="-0.62104">
        <ele>1042</ele>
      </trkpt>
      <trkpt lat="42.68389" lon="-0.62102">
        <ele>1042.3</ele>
      </trkpt>
      <trkpt lat="42.68383" lon="-0.621">
        <ele>1042.7</ele>
      </trkpt>
      <trkpt lat="42.68378" lon="-0.62102">
        <ele>1042.5</ele>
      </trkpt>
      <trkpt lat="42.6837" lon="-0.62114">
        <ele>1040.8</ele>
      </trkpt>
      <trkpt lat="42.68365" lon="-0.62123">
        <ele>1039.3</ele>
      </trkpt>
      <trkpt lat="42.68361" lon="-0.62127">
        <ele>1038.7</ele>
      </trkpt>
      <trkpt lat="42.68357" lon="-0.62134">
        <ele>1037.5</ele>
      </trkpt>
      <trkpt lat="42.68348" lon="-0.6214">
        <ele>1036.3</ele>
      </trkpt>
      <trkpt lat="42.68338" lon="-0.62146">
        <ele>1035.1</ele>
      </trkpt>
      <trkpt lat="42.68324" lon="-0.62149">
        <ele>1034.4</ele>
      </trkpt>
      <trkpt lat="42.68305" lon="-0.62158">
        <ele>1032.7</ele>
      </trkpt>
      <trkpt lat="42.68297" lon="-0.62159">
        <ele>1032.6</ele>
      </trkpt>
      <trkpt lat="42.68276" lon="-0.62161">
        <ele>1032.2</ele>
      </trkpt>
      <trkpt lat="42.68262" lon="-0.62163">
        <ele>1031.8</ele>
      </trkpt>
      <trkpt lat="42.68253" lon="-0.62164">
        <ele>1031.6</ele>
      </trkpt>
      <trkpt lat="42.68243" lon="-0.62165">
        <ele>1031.3</ele>
      </trkpt>
      <trkpt lat="42.68233" lon="-0.62164">
        <ele>1031.4</ele>
      </trkpt>
      <trkpt lat="42.68211" lon="-0.62155">
        <ele>1032.9</ele>
      </trkpt>
      <trkpt lat="42.68192" lon="-0.62146">
        <ele>1034.3</ele>
      </trkpt>
      <trkpt lat="42.68172" lon="-0.62134">
        <ele>1036</ele>
      </trkpt>
      <trkpt lat="42.68155" lon="-0.62125">
        <ele>1036.6</ele>
      </trkpt>
      <trkpt lat="42.68145" lon="-0.62119">
        <ele>1036.9</ele>
      </trkpt>
      <trkpt lat="42.68143" lon="-0.62117">
        <ele>1037.1</ele>
      </trkpt>
      <trkpt lat="42.68132" lon="-0.6211">
        <ele>1037.6</ele>
      </trkpt>
      <trkpt lat="42.68114" lon="-0.62098">
        <ele>1038.5</ele>
      </trkpt>
      <trkpt lat="42.68091" lon="-0.62081">
        <ele>1039.9</ele>
      </trkpt>
      <trkpt lat="42.680898" lon="-0.620807">
        <ele>1039.8</ele>
      </trkpt>
      <trkpt lat="42.6809" lon="-0.62081">
        <ele>1039.8</ele>
      </trkpt>
      <trkpt lat="42.68087" lon="-0.6208">
        <ele>1039.7</ele>
      </trkpt>
      <trkpt lat="42.68077" lon="-0.62076">
        <ele>1040</ele>
      </trkpt>
      <trkpt lat="42.679933" lon="-0.617941">
        <ele>1038.772955</ele>
        <time>2019-08-22T09:53:00.500Z</time>
      </trkpt>
      <trkpt lat="42.679920" lon="-0.617840">
        <ele>1038.772955</ele>
        <time>2019-08-22T09:53:01.384Z</time>
      </trkpt>
      <trkpt lat="42.679849" lon="-0.617585">
        <ele>1038.772955</ele>
        <time>2019-08-22T09:53:03.368Z</time>
      </trkpt>
      <trkpt lat="42.679755" lon="-0.617191">
        <ele>1038.772955</ele>
        <time>2019-08-22T09:53:06.520Z</time>
      </trkpt>
      <trkpt lat="42.679682" lon="-0.617116">
        <ele>1038.772955</ele>
        <time>2019-08-22T09:53:07.433Z</time>
      </trkpt>
      <trkpt lat="42.679481" lon="-0.617164">
        <ele>1038.772955</ele>
        <time>2019-08-22T09:53:09.608Z</time>
      </trkpt>
      <trkpt lat="42.679374" lon="-0.617324">
        <ele>1038.927457</ele>
        <time>2019-08-22T09:53:11.275Z</time>
      </trkpt>
      <trkpt lat="42.679223" lon="-0.617751">
        <ele>1039.324335</ele>
        <time>2019-08-22T09:53:15.284Z</time>
      </trkpt>
      <trkpt lat="42.678694" lon="-0.618403">
        <ele>1040.137660</ele>
        <time>2019-08-22T09:53:27.268Z</time>
      </trkpt>
      <trkpt lat="42.678560" lon="-0.618388">
        <ele>1040.290847</ele>
        <time>2019-08-22T09:53:30.724Z</time>
      </trkpt>
      <trkpt lat="42.678480" lon="-0.618294">
        <ele>1040.411291</ele>
        <time>2019-08-22T09:53:33.605Z</time>
      </trkpt>
      <trkpt lat="42.677858" lon="-0.616257">
        <ele>1046.715047</ele>
        <time>2019-08-22T09:54:32.768Z</time>
      </trkpt>
      <trkpt lat="42.677634" lon="-0.615710">
        <ele>1048.866331</ele>
        <time>2019-08-22T09:54:47.924Z</time>
      </trkpt>
      <trkpt lat="42.677501" lon="-0.615557">
        <ele>1049.439082</ele>
        <time>2019-08-22T09:54:52.890Z</time>
      </trkpt>
      <trkpt lat="42.677324" lon="-0.615654">
        <ele>1049.855105</ele>
        <time>2019-08-22T09:54:57.762Z</time>
      </trkpt>
      <trkpt lat="42.677224" lon="-0.615824">
        <ele>1050.204061</ele>
        <time>2019-08-22T09:55:01.558Z</time>
      </trkpt>
      <trkpt lat="42.677201" lon="-0.617006">
        <ele>1052.099218</ele>
        <time>2019-08-22T09:55:18.737Z</time>
      </trkpt>
      <trkpt lat="42.677142" lon="-0.617387">
        <ele>1052.723280</ele>
        <time>2019-08-22T09:55:24.513Z</time>
      </trkpt>
      <trkpt lat="42.676970" lon="-0.617966">
        <ele>1054.986709</ele>
        <time>2019-08-22T09:55:35.313Z</time>
      </trkpt>
      <trkpt lat="42.676832" lon="-0.618131">
        <ele>1056.267021</ele>
        <time>2019-08-22T09:55:40.737Z</time>
      </trkpt>
      <trkpt lat="42.676704" lon="-0.618124">
        <ele>1057.159671</ele>
        <time>2019-08-22T09:55:44.922Z</time>
      </trkpt>
      <trkpt lat="42.676621" lon="-0.618015">
        <ele>1057.963607</ele>
        <time>2019-08-22T09:55:49.039Z</time>
      </trkpt>
      <trkpt lat="42.676558" lon="-0.617087">
        <ele>1062.737936</ele>
        <time>2019-08-22T09:56:20.397Z</time>
      </trkpt>
      <trkpt lat="42.676410" lon="-0.616350">
        <ele>1067.350480</ele>
        <time>2019-08-22T09:56:53.903Z</time>
      </trkpt>
      <trkpt lat="42.676287" lon="-0.616166">
        <ele>1069.542793</ele>
        <time>2019-08-22T09:57:05.827Z</time>
      </trkpt>
      <trkpt lat="42.676162" lon="-0.616182">
        <ele>1071.048251</ele>
        <time>2019-08-22T09:57:14.326Z</time>
      </trkpt>
      <trkpt lat="42.675785" lon="-0.616386">
        <ele>1075.913324</ele>
        <time>2019-08-22T09:57:41.426Z</time>
      </trkpt>
      <trkpt lat="42.675262" lon="-0.616888">
        <ele>1083.588707</ele>
        <time>2019-08-22T09:58:23.595Z</time>
      </trkpt>
      <trkpt lat="42.675066" lon="-0.616998">
        <ele>1086.131083</ele>
        <time>2019-08-22T09:58:36.887Z</time>
      </trkpt>
      <trkpt lat="42.674886" lon="-0.617007">
        <ele>1087.991967</ele>
        <time>2019-08-22T09:58:48.005Z</time>
      </trkpt>
      <trkpt lat="42.674590" lon="-0.616900">
        <ele>1090.610241</ele>
        <time>2019-08-22T09:59:05.765Z</time>
      </trkpt>
      <trkpt lat="42.673231" lon="-0.616953">
        <ele>1102.232775</ele>
        <time>2019-08-22T10:00:08.100Z</time>
      </trkpt>
      <trkpt lat="42.672860" lon="-0.616810">
        <ele>1105.246254</ele>
        <time>2019-08-22T10:00:23.501Z</time>
      </trkpt>
      <trkpt lat="42.672753" lon="-0.616694">
        <ele>1106.301980</ele>
        <time>2019-08-22T10:00:29.010Z</time>
      </trkpt>
      <trkpt lat="42.672758" lon="-0.616474">
        <ele>1107.550575</ele>
        <time>2019-08-22T10:00:35.690Z</time>
      </trkpt>
      <trkpt lat="42.673325" lon="-0.615763">
        <ele>1113.500812</ele>
        <time>2019-08-22T10:01:08.456Z</time>
      </trkpt>
      <trkpt lat="42.673406" lon="-0.614737">
        <ele>1121.110487</ele>
        <time>2019-08-22T10:01:49.854Z</time>
      </trkpt>
      <trkpt lat="42.673471" lon="-0.614496">
        <ele>1123.463546</ele>
        <time>2019-08-22T10:02:00.633Z</time>
      </trkpt>
      <trkpt lat="42.673950" lon="-0.613832">
        <ele>1131.990498</ele>
        <time>2019-08-22T10:02:46.952Z</time>
      </trkpt>
      <trkpt lat="42.674232" lon="-0.613400">
        <ele>1137.285915</ele>
        <time>2019-08-22T10:03:17.215Z</time>
      </trkpt>
      <trkpt lat="42.674321" lon="-0.613262">
        <ele>1138.972066</ele>
        <time>2019-08-22T10:03:28.724Z</time>
      </trkpt>
      <trkpt lat="42.674429" lon="-0.612965">
        <ele>1142.269210</ele>
        <time>2019-08-22T10:03:45.316Z</time>
      </trkpt>
      <trkpt lat="42.674479" lon="-0.612544">
        <ele>1146.512836</ele>
        <time>2019-08-22T10:04:08.699Z</time>
      </trkpt>
      <trkpt lat="42.673694" lon="-0.611269">
        <ele>1163.061400</ele>
        <time>2019-08-22T10:05:36.164Z</time>
      </trkpt>
      <trkpt lat="42.673261" lon="-0.610830">
        <ele>1166.360786</ele>
        <time>2019-08-22T10:06:03.025Z</time>
      </trkpt>
      <trkpt lat="42.673182" lon="-0.610575">
        <ele>1167.558975</ele>
        <time>2019-08-22T10:06:11.829Z</time>
      </trkpt>
      <trkpt lat="42.673158" lon="-0.610121">
        <ele>1169.529903</ele>
        <time>2019-08-22T10:06:24.303Z</time>
      </trkpt>
      <trkpt lat="42.672983" lon="-0.609289">
        <ele>1173.277057</ele>
        <time>2019-08-22T10:06:41.794Z</time>
      </trkpt>
      <trkpt lat="42.672658" lon="-0.608827">
        <ele>1174.290245</ele>
        <time>2019-08-22T10:06:49.840Z</time>
      </trkpt>
      <trkpt lat="42.672480" lon="-0.608785">
        <ele>1174.497895</ele>
        <time>2019-08-22T10:06:52.024Z</time>
      </trkpt>
      <trkpt lat="42.672113" lon="-0.608818">
        <ele>1174.920648</ele>
        <time>2019-08-22T10:06:56.576Z</time>
      </trkpt>
      <trkpt lat="42.671871" lon="-0.608736">
        <ele>1175.207307</ele>
        <time>2019-08-22T10:07:00.097Z</time>
      </trkpt>
      <trkpt lat="42.671656" lon="-0.608518">
        <ele>1175.515545</ele>
        <time>2019-08-22T10:07:04.906Z</time>
      </trkpt>
      <trkpt lat="42.671543" lon="-0.608291">
        <ele>1175.747216</ele>
        <time>2019-08-22T10:07:09.351Z</time>
      </trkpt>
      <trkpt lat="42.671489" lon="-0.608091">
        <ele>1175.927273</ele>
        <time>2019-08-22T10:07:13.536Z</time>
      </trkpt>
      <trkpt lat="42.671489" lon="-0.607817">
        <ele>1177.454177</ele>
        <time>2019-08-22T10:07:19.710Z</time>
      </trkpt>
      <trkpt lat="42.671702" lon="-0.607195">
        <ele>1181.344358</ele>
        <time>2019-08-22T10:07:39.366Z</time>
      </trkpt>
      <trkpt lat="42.671721" lon="-0.606452">
        <ele>1185.559364</ele>
        <time>2019-08-22T10:08:06.107Z</time>
      </trkpt>
      <trkpt lat="42.671671" lon="-0.606278">
        <ele>1186.618528</ele>
        <time>2019-08-22T10:08:13.610Z</time>
      </trkpt>
      <trkpt lat="42.671203" lon="-0.605450">
        <ele>1193.751383</ele>
        <time>2019-08-22T10:08:59.587Z</time>
      </trkpt>
      <trkpt lat="42.670795" lon="-0.605380">
        <ele>1198.325511</ele>
        <time>2019-08-22T10:09:25.465Z</time>
      </trkpt>
      <trkpt lat="42.670451" lon="-0.605507">
        <ele>1202.290267</ele>
        <time>2019-08-22T10:09:47.410Z</time>
      </trkpt>
      <trkpt lat="42.670128" lon="-0.605409">
        <ele>1205.971292</ele>
        <time>2019-08-22T10:10:07.290Z</time>
      </trkpt>
      <trkpt lat="42.669859" lon="-0.605271">
        <ele>1209.169145</ele>
        <time>2019-08-22T10:10:24.028Z</time>
      </trkpt>
      <trkpt lat="42.669562" lon="-0.604913">
        <ele>1212.524222</ele>
        <time>2019-08-22T10:10:45.982Z</time>
      </trkpt>
      <trkpt lat="42.668991" lon="-0.603805">
        <ele>1220.485968</ele>
        <time>2019-08-22T10:11:36.500Z</time>
      </trkpt>
      <trkpt lat="42.668897" lon="-0.602443">
        <ele>1222.864052</ele>
        <time>2019-08-22T10:12:09.956Z</time>
      </trkpt>
      <trkpt lat="42.668939" lon="-0.601830">
        <ele>1221.745850</ele>
        <time>2019-08-22T10:12:15.735Z</time>
      </trkpt>
      <trkpt lat="42.668873" lon="-0.601566">
        <ele>1221.239394</ele>
        <time>2019-08-22T10:12:17.777Z</time>
      </trkpt>
      <trkpt lat="42.668740" lon="-0.601320">
        <ele>1220.684805</ele>
        <time>2019-08-22T10:12:19.888Z</time>
      </trkpt>
      <trkpt lat="42.668496" lon="-0.601161">
        <ele>1220.016467</ele>
        <time>2019-08-22T10:12:22.271Z</time>
      </trkpt>
      <trkpt lat="42.667872" lon="-0.600954">
        <ele>1211.663081</ele>
        <time>2019-08-22T10:12:27.627Z</time>
      </trkpt>
      <trkpt lat="42.667339" lon="-0.600499">
        <ele>1202.193174</ele>
        <time>2019-08-22T10:12:32.819Z</time>
      </trkpt>
      <trkpt lat="42.666881" lon="-0.600206">
        <ele>1194.576594</ele>
        <time>2019-08-22T10:12:36.990Z</time>
      </trkpt>
      <trkpt lat="42.666795" lon="-0.600035">
        <ele>1192.404046</ele>
        <time>2019-08-22T10:12:38.245Z</time>
      </trkpt>
      <trkpt lat="42.666593" lon="-0.599663">
        <ele>1188.789708</ele>
        <time>2019-08-22T10:12:41.066Z</time>
      </trkpt>
      <trkpt lat="42.666179" lon="-0.599287">
        <ele>1183.498141</ele>
        <time>2019-08-22T10:12:45.243Z</time>
      </trkpt>
      <trkpt lat="42.665681" lon="-0.598721">
        <ele>1176.599624</ele>
        <time>2019-08-22T10:12:50.868Z</time>
      </trkpt>
      <trkpt lat="42.665407" lon="-0.598596">
        <ele>1173.561066</ele>
        <time>2019-08-22T10:12:53.808Z</time>
      </trkpt>
      <trkpt lat="42.665410" lon="-0.598496">
        <ele>1173.341663</ele>
        <time>2019-08-22T10:12:54.554Z</time>
      </trkpt>
      <trkpt lat="42.665493" lon="-0.598473">
        <ele>1173.089132</ele>
        <time>2019-08-22T10:12:55.410Z</time>
      </trkpt>
      <trkpt lat="42.666283" lon="-0.598822">
        <ele>1170.612768</ele>
        <time>2019-08-22T10:13:04.261Z</time>
      </trkpt>
      <trkpt lat="42.666596" lon="-0.598891">
        <ele>1169.667447</ele>
        <time>2019-08-22T10:13:07.836Z</time>
      </trkpt>
      <trkpt lat="42.666802" lon="-0.598748">
        <ele>1168.977923</ele>
        <time>2019-08-22T10:13:10.435Z</time>
      </trkpt>
      <trkpt lat="42.667463" lon="-0.597518">
        <ele>1163.002207</ele>
        <time>2019-08-22T10:13:21.630Z</time>
      </trkpt>
      <trkpt lat="42.668232" lon="-0.597436">
        <ele>1158.347141</ele>
        <time>2019-08-22T10:13:28.480Z</time>
      </trkpt>
      <trkpt lat="42.668565" lon="-0.596915">
        <ele>1153.562589</ele>
        <time>2019-08-22T10:13:32.842Z</time>
      </trkpt>
      <trkpt lat="42.668629" lon="-0.596697">
        <ele>1151.656205</ele>
        <time>2019-08-22T10:13:34.317Z</time>
      </trkpt>
      <trkpt lat="42.668450" lon="-0.596624">
        <ele>1149.592118</ele>
        <time>2019-08-22T10:13:35.905Z</time>
      </trkpt>
      <trkpt lat="42.667660" lon="-0.596704">
        <ele>1140.842172</ele>
        <time>2019-08-22T10:13:42.657Z</time>
      </trkpt>
      <trkpt lat="42.667554" lon="-0.596665">
        <ele>1139.629282</ele>
        <time>2019-08-22T10:13:43.587Z</time>
      </trkpt>
      <trkpt lat="42.667545" lon="-0.596562">
        <ele>1138.786872</ele>
        <time>2019-08-22T10:13:44.230Z</time>
      </trkpt>
      <trkpt lat="42.667609" lon="-0.596458">
        <ele>1137.685448</ele>
        <time>2019-08-22T10:13:45.065Z</time>
      </trkpt>
      <trkpt lat="42.667919" lon="-0.596359">
        <ele>1133.064736</ele>
        <time>2019-08-22T10:13:47.743Z</time>
      </trkpt>
      <trkpt lat="42.668099" lon="-0.596191">
        <ele>1129.852511</ele>
        <time>2019-08-22T10:13:49.565Z</time>
      </trkpt>
      <trkpt lat="42.668484" lon="-0.595988">
        <ele>1123.776766</ele>
        <time>2019-08-22T10:13:53.003Z</time>
      </trkpt>
      <trkpt lat="42.668594" lon="-0.595810">
        <ele>1121.261148</ele>
        <time>2019-08-22T10:13:54.425Z</time>
      </trkpt>
      <trkpt lat="42.668584" lon="-0.595740">
        <ele>1120.489656</ele>
        <time>2019-08-22T10:13:54.862Z</time>
      </trkpt>
      <trkpt lat="42.668456" lon="-0.595725">
        <ele>1118.599282</ele>
        <time>2019-08-22T10:13:55.924Z</time>
      </trkpt>
      <trkpt lat="42.668268" lon="-0.595834">
        <ele>1115.592165</ele>
        <time>2019-08-22T10:13:57.616Z</time>
      </trkpt>
      <trkpt lat="42.668072" lon="-0.595788">
        <ele>1112.665590</ele>
        <time>2019-08-22T10:13:59.269Z</time>
      </trkpt>
      <trkpt lat="42.667779" lon="-0.595911">
        <ele>1107.936841</ele>
        <time>2019-08-22T10:14:01.792Z</time>
      </trkpt>
      <trkpt lat="42.667734" lon="-0.595852">
        <ele>1106.947677</ele>
        <time>2019-08-22T10:14:02.310Z</time>
      </trkpt>
      <trkpt lat="42.667752" lon="-0.595756">
        <ele>1105.794868</ele>
        <time>2019-08-22T10:14:02.905Z</time>
      </trkpt>
      <trkpt lat="42.667995" lon="-0.595493">
        <ele>1100.880296</ele>
        <time>2019-08-22T10:14:05.461Z</time>
      </trkpt>
      <trkpt lat="42.668487" lon="-0.594446">
        <ele>1086.421988</ele>
        <time>2019-08-22T10:14:12.995Z</time>
      </trkpt>
      <trkpt lat="42.668647" lon="-0.594280">
        <ele>1083.237342</ele>
        <time>2019-08-22T10:14:14.690Z</time>
      </trkpt>
      <trkpt lat="42.668862" lon="-0.594159">
        <ele>1081.819816</ele>
        <time>2019-08-22T10:14:16.673Z</time>
      </trkpt>
      <trkpt lat="42.669184" lon="-0.594116">
        <ele>1080.556225</ele>
        <time>2019-08-22T10:14:19.510Z</time>
      </trkpt>
      <trkpt lat="42.669211" lon="-0.593998">
        <ele>1080.201352</ele>
        <time>2019-08-22T10:14:20.331Z</time>
      </trkpt>
      <trkpt lat="42.669187" lon="-0.593940">
        <ele>1080.010238</ele>
        <time>2019-08-22T10:14:20.784Z</time>
      </trkpt>
      <trkpt lat="42.668905" lon="-0.593916">
        <ele>1078.906758</ele>
        <time>2019-08-22T10:14:23.505Z</time>
      </trkpt>
      <trkpt lat="42.667754" lon="-0.594131">
        <ele>1074.872625</ele>
        <time>2019-08-22T10:14:47.694Z</time>
      </trkpt>
      <trkpt lat="42.667635" lon="-0.594190">
        <ele>1074.591082</ele>
        <time>2019-08-22T10:14:51.402Z</time>
      </trkpt>
      <trkpt lat="42.666893" lon="-0.594910">
        <ele>1072.564973</ele>
        <time>2019-08-22T10:15:06.935Z</time>
      </trkpt>
      <trkpt lat="42.666802" lon="-0.594934">
        <ele>1072.358929</ele>
        <time>2019-08-22T10:15:07.845Z</time>
      </trkpt>
      <trkpt lat="42.666720" lon="-0.594837">
        <ele>1072.117355</ele>
        <time>2019-08-22T10:15:08.873Z</time>
      </trkpt>
      <trkpt lat="42.666736" lon="-0.594704">
        <ele>1071.897083</ele>
        <time>2019-08-22T10:15:09.784Z</time>
      </trkpt>
      <trkpt lat="42.667236" lon="-0.594202">
        <ele>1064.338423</ele>
        <time>2019-08-22T10:15:14.998Z</time>
      </trkpt>
      <trkpt lat="42.667269" lon="-0.594089">
        <ele>1062.940568</ele>
        <time>2019-08-22T10:15:15.732Z</time>
      </trkpt>
      <trkpt lat="42.667211" lon="-0.594016">
        <ele>1061.704943</ele>
        <time>2019-08-22T10:15:16.381Z</time>
      </trkpt>
      <trkpt lat="42.667042" lon="-0.593995">
        <ele>1059.051533</ele>
        <time>2019-08-22T10:15:17.794Z</time>
      </trkpt>
      <trkpt lat="42.666566" lon="-0.594134">
        <ele>1051.439386</ele>
        <time>2019-08-22T10:15:21.779Z</time>
      </trkpt>
      <trkpt lat="42.666427" lon="-0.594119">
        <ele>1049.259217</ele>
        <time>2019-08-22T10:15:22.937Z</time>
      </trkpt>
      <trkpt lat="42.666169" lon="-0.593989">
        <ele>1044.957271</ele>
        <time>2019-08-22T10:15:25.179Z</time>
      </trkpt>
      <trkpt lat="42.665887" lon="-0.593834">
        <ele>1040.891873</ele>
        <time>2019-08-22T10:15:27.681Z</time>
      </trkpt>
      <trkpt lat="42.664845" lon="-0.593671">
        <ele>1028.013488</ele>
        <time>2019-08-22T10:15:36.413Z</time>
      </trkpt>
      <trkpt lat="42.664379" lon="-0.593507">
        <ele>1022.103296</ele>
        <time>2019-08-22T10:15:40.812Z</time>
      </trkpt>
      <trkpt lat="42.664003" lon="-0.593250">
        <ele>1019.451532</ele>
        <time>2019-08-22T10:15:44.855Z</time>
      </trkpt>
      <trkpt lat="42.663837" lon="-0.593059">
        <ele>1018.309276</ele>
        <time>2019-08-22T10:15:46.911Z</time>
      </trkpt>
      <trkpt lat="42.662896" lon="-0.592418">
        <ele>1012.780648</ele>
        <time>2019-08-22T10:15:56.794Z</time>
      </trkpt>
      <trkpt lat="42.662703" lon="-0.592056">
        <ele>1011.364683</ele>
        <time>2019-08-22T10:15:59.922Z</time>
      </trkpt>
      <trkpt lat="42.662611" lon="-0.591891">
        <ele>1010.864613</ele>
        <time>2019-08-22T10:16:01.271Z</time>
      </trkpt>
      <trkpt lat="42.661964" lon="-0.591114">
        <ele>1008.029829</ele>
        <time>2019-08-22T10:16:09.962Z</time>
      </trkpt>
      <trkpt lat="42.661539" lon="-0.590694">
        <ele>1006.304445</ele>
        <time>2019-08-22T10:16:15.664Z</time>
      </trkpt>
      <trkpt lat="42.661538" lon="-0.590635">
        <ele>1006.161920</ele>
        <time>2019-08-22T10:16:16.053Z</time>
      </trkpt>
      <trkpt lat="42.661531" lon="-0.590249">
        <ele>1005.631882</ele>
        <time>2019-08-22T10:16:19.822Z</time>
      </trkpt>
      <trkpt lat="42.661535" lon="-0.590120">
        <ele>1005.487956</ele>
        <time>2019-08-22T10:16:20.975Z</time>
      </trkpt>
      <trkpt lat="42.661516" lon="-0.589935">
        <ele>1005.279733</ele>
        <time>2019-08-22T10:16:22.858Z</time>
      </trkpt>
      <trkpt lat="42.661119" lon="-0.589566">
        <ele>1004.550796</ele>
        <time>2019-08-22T10:16:29.116Z</time>
      </trkpt>
      <trkpt lat="42.660894" lon="-0.589435">
        <ele>1004.179782</ele>
        <time>2019-08-22T10:16:32.451Z</time>
      </trkpt>
      <trkpt lat="42.660289" lon="-0.589228">
        <ele>1003.201561</ele>
        <time>2019-08-22T10:16:39.690Z</time>
      </trkpt>
      <trkpt lat="42.659483" lon="-0.588709">
        <ele>999.150427</ele>
        <time>2019-08-22T10:16:48.131Z</time>
      </trkpt>
      <trkpt lat="42.659195" lon="-0.588433">
        <ele>997.549888</ele>
        <time>2019-08-22T10:16:51.392Z</time>
      </trkpt>
      <trkpt lat="42.658928" lon="-0.588287">
        <ele>996.242606</ele>
        <time>2019-08-22T10:16:55.209Z</time>
      </trkpt>
      <trkpt lat="42.658781" lon="-0.588418">
        <ele>995.444211</ele>
        <time>2019-08-22T10:16:57.582Z</time>
      </trkpt>
      <trkpt lat="42.658666" lon="-0.588334">
        <ele>995.067542</ele>
        <time>2019-08-22T10:16:59.351Z</time>
      </trkpt>
      <trkpt lat="42.658554" lon="-0.588437">
        <ele>995.034622</ele>
        <time>2019-08-22T10:17:01.098Z</time>
      </trkpt>
      <trkpt lat="42.658491" lon="-0.588340">
        <ele>995.011450</ele>
        <time>2019-08-22T10:17:02.513Z</time>
      </trkpt>
      <trkpt lat="42.658456" lon="-0.588218">
        <ele>994.988002</ele>
        <time>2019-08-22T10:17:04.017Z</time>
      </trkpt>
      <trkpt lat="42.658383" lon="-0.588172">
        <ele>994.968413</ele>
        <time>2019-08-22T10:17:05.128Z</time>
      </trkpt>
      <trkpt lat="42.658283" lon="-0.588107">
        <ele>994.941426</ele>
        <time>2019-08-22T10:17:06.739Z</time>
      </trkpt>
      <trkpt lat="42.658290" lon="-0.588039">
        <ele>994.929132</ele>
        <time>2019-08-22T10:17:07.542Z</time>
      </trkpt>
      <trkpt lat="42.658196" lon="-0.587731">
        <ele>994.869423</ele>
        <time>2019-08-22T10:17:11.591Z</time>
      </trkpt>
      <trkpt lat="42.658204" lon="-0.587651">
        <ele>994.854967</ele>
        <time>2019-08-22T10:17:13.530Z</time>
      </trkpt>
      <trkpt lat="42.658105" lon="-0.587664">
        <ele>994.830751</ele>
        <time>2019-08-22T10:17:15.596Z</time>
      </trkpt>
      <trkpt lat="42.658013" lon="-0.587580">
        <ele>994.803770</ele>
        <time>2019-08-22T10:17:17.754Z</time>
      </trkpt>
      <trkpt lat="42.657869" lon="-0.587448">
        <ele>994.761487</ele>
        <time>2019-08-22T10:17:22.938Z</time>
      </trkpt>
      <trkpt lat="42.657779" lon="-0.587234">
        <ele>994.717346</ele>
        <time>2019-08-22T10:17:28.166Z</time>
      </trkpt>
      <trkpt lat="42.657622" lon="-0.587084">
        <ele>994.670628</ele>
        <time>2019-08-22T10:17:34.482Z</time>
      </trkpt>
      <trkpt lat="42.657513" lon="-0.586694">
        <ele>995.847749</ele>
        <time>2019-08-22T10:17:46.436Z</time>
      </trkpt>
      <trkpt lat="42.657365" lon="-0.586412">
        <ele>997.475880</ele>
        <time>2019-08-22T10:17:55.712Z</time>
      </trkpt>
      <trkpt lat="42.657347" lon="-0.586240">
        <ele>998.292345</ele>
        <time>2019-08-22T10:18:03.033Z</time>
      </trkpt>
      <trkpt lat="42.656719" lon="-0.585337">
        <ele>1004.133074</ele>
        <time>2019-08-22T10:18:41.292Z</time>
      </trkpt>
      <trkpt lat="42.656384" lon="-0.584853">
        <ele>1007.869267</ele>
        <time>2019-08-22T10:19:04.702Z</time>
      </trkpt>
      <trkpt lat="42.656314" lon="-0.584669">
        <ele>1009.374952</ele>
        <time>2019-08-22T10:19:11.913Z</time>
      </trkpt>
      <trkpt lat="42.656306" lon="-0.584445">
        <ele>1011.004945</ele>
        <time>2019-08-22T10:19:19.119Z</time>
      </trkpt>
      <trkpt lat="42.656546" lon="-0.583023">
        <ele>1021.608968</ele>
        <time>2019-08-22T10:20:19.014Z</time>
      </trkpt>
      <trkpt lat="42.656608" lon="-0.582069">
        <ele>1029.033604</ele>
        <time>2019-08-22T10:21:04.319Z</time>
      </trkpt>
      <trkpt lat="42.656726" lon="-0.581665">
        <ele>1032.507600</ele>
        <time>2019-08-22T10:21:24.347Z</time>
      </trkpt>
      <trkpt lat="42.657007" lon="-0.581171">
        <ele>1037.498647</ele>
        <time>2019-08-22T10:21:51.903Z</time>
      </trkpt>
      <trkpt lat="42.656975" lon="-0.580943">
        <ele>1039.353649</ele>
        <time>2019-08-22T10:22:01.933Z</time>
      </trkpt>
      <trkpt lat="42.656878" lon="-0.580858">
        <ele>1040.607660</ele>
        <time>2019-08-22T10:22:08.500Z</time>
      </trkpt>
      <trkpt lat="42.656463" lon="-0.580854">
        <ele>1044.490595</ele>
        <time>2019-08-22T10:22:29.947Z</time>
      </trkpt>
      <trkpt lat="42.656377" lon="-0.580915">
        <ele>1045.146665</ele>
        <time>2019-08-22T10:22:34.448Z</time>
      </trkpt>
      <trkpt lat="42.656185" lon="-0.581215">
        <ele>1047.124897</ele>
        <time>2019-08-22T10:22:47.182Z</time>
      </trkpt>
      <trkpt lat="42.655813" lon="-0.581574">
        <ele>1050.210330</ele>
        <time>2019-08-22T10:23:04.797Z</time>
      </trkpt>
      <trkpt lat="42.655357" lon="-0.581834">
        <ele>1053.554803</ele>
        <time>2019-08-22T10:23:22.612Z</time>
      </trkpt>
      <trkpt lat="42.655109" lon="-0.581803">
        <ele>1055.239292</ele>
        <time>2019-08-22T10:23:31.986Z</time>
      </trkpt>
      <trkpt lat="42.654881" lon="-0.581617">
        <ele>1057.342572</ele>
        <time>2019-08-22T10:23:42.365Z</time>
      </trkpt>
      <trkpt lat="42.654469" lon="-0.580920">
        <ele>1062.749263</ele>
        <time>2019-08-22T10:24:11.521Z</time>
      </trkpt>
      <trkpt lat="42.653521" lon="-0.579944">
        <ele>1073.281512</ele>
        <time>2019-08-22T10:25:13.843Z</time>
      </trkpt>
      <trkpt lat="42.653413" lon="-0.579718">
        <ele>1075.493905</ele>
        <time>2019-08-22T10:25:25.584Z</time>
      </trkpt>
      <trkpt lat="42.653233" lon="-0.578608">
        <ele>1084.824458</ele>
        <time>2019-08-22T10:26:17.554Z</time>
      </trkpt>
      <trkpt lat="42.653094" lon="-0.578214">
        <ele>1088.411555</ele>
        <time>2019-08-22T10:26:37.508Z</time>
      </trkpt>
      <trkpt lat="42.652905" lon="-0.578026">
        <ele>1091.018999</ele>
        <time>2019-08-22T10:26:51.835Z</time>
      </trkpt>
      <trkpt lat="42.652305" lon="-0.577760">
        <ele>1097.980995</ele>
        <time>2019-08-22T10:27:29.161Z</time>
      </trkpt>
      <trkpt lat="42.652097" lon="-0.577558">
        <ele>1100.800805</ele>
        <time>2019-08-22T10:27:44.217Z</time>
      </trkpt>
      <trkpt lat="42.651986" lon="-0.577343">
        <ele>1102.932116</ele>
        <time>2019-08-22T10:27:55.514Z</time>
      </trkpt>
      <trkpt lat="42.651913" lon="-0.576966">
        <ele>1106.095191</ele>
        <time>2019-08-22T10:28:12.556Z</time>
      </trkpt>
      <trkpt lat="42.651799" lon="-0.575950">
        <ele>1113.707689</ele>
        <time>2019-08-22T10:28:56.383Z</time>
      </trkpt>
      <trkpt lat="42.651235" lon="-0.574763">
        <ele>1123.145849</ele>
        <time>2019-08-22T10:29:53.462Z</time>
      </trkpt>
      <trkpt lat="42.650674" lon="-0.574201">
        <ele>1126.910097</ele>
        <time>2019-08-22T10:30:21.175Z</time>
      </trkpt>
      <trkpt lat="42.650615" lon="-0.574085">
        <ele>1126.993848</ele>
        <time>2019-08-22T10:30:24.497Z</time>
      </trkpt>
      <trkpt lat="42.650540" lon="-0.573885">
        <ele>1127.127160</ele>
        <time>2019-08-22T10:30:29.918Z</time>
      </trkpt>
      <trkpt lat="42.650514" lon="-0.573727">
        <ele>1127.223305</ele>
        <time>2019-08-22T10:30:31.897Z</time>
      </trkpt>
      <trkpt lat="42.650496" lon="-0.573561">
        <ele>1127.322946</ele>
        <time>2019-08-22T10:30:35.113Z</time>
      </trkpt>
      <trkpt lat="42.650474" lon="-0.573514">
        <ele>1127.356029</ele>
        <time>2019-08-22T10:30:35.897Z</time>
      </trkpt>
      <trkpt lat="42.650478" lon="-0.573405">
        <ele>1127.420837</ele>
        <time>2019-08-22T10:30:37.638Z</time>
      </trkpt>
      <trkpt lat="42.650538" lon="-0.573333">
        <ele>1127.485450</ele>
        <time>2019-08-22T10:30:38.517Z</time>
      </trkpt>
      <trkpt lat="42.650579" lon="-0.573326">
        <ele>1127.518812</ele>
        <time>2019-08-22T10:30:39.031Z</time>
      </trkpt>
      <trkpt lat="42.650702" lon="-0.573247">
        <ele>1127.628644</ele>
        <time>2019-08-22T10:30:41.076Z</time>
      </trkpt>
      <trkpt lat="42.650784" lon="-0.573199">
        <ele>1127.700724</ele>
        <time>2019-08-22T10:30:42.324Z</time>
      </trkpt>
      <trkpt lat="42.650887" lon="-0.573170">
        <ele>1127.785649</ele>
        <time>2019-08-22T10:30:43.343Z</time>
      </trkpt>
      <trkpt lat="42.651136" lon="-0.573152">
        <ele>1127.986972</ele>
        <time>2019-08-22T10:30:46.094Z</time>
      </trkpt>
      <trkpt lat="42.651591" lon="-0.573203">
        <ele>1125.559609</ele>
        <time>2019-08-22T10:30:50.404Z</time>
      </trkpt>
      <trkpt lat="42.652317" lon="-0.573772">
        <ele>1118.466090</ele>
        <time>2019-08-22T10:30:57.696Z</time>
      </trkpt>
      <trkpt lat="42.652612" lon="-0.573866">
        <ele>1115.901248</ele>
        <time>2019-08-22T10:31:00.305Z</time>
      </trkpt>
      <trkpt lat="42.652955" lon="-0.573789">
        <ele>1112.958435</ele>
        <time>2019-08-22T10:31:03.282Z</time>
      </trkpt>
      <trkpt lat="42.653327" lon="-0.573519">
        <ele>1107.935748</ele>
        <time>2019-08-22T10:31:06.867Z</time>
      </trkpt>
      <trkpt lat="42.653659" lon="-0.573468">
        <ele>1103.932465</ele>
        <time>2019-08-22T10:31:09.691Z</time>
      </trkpt>
      <trkpt lat="42.654187" lon="-0.573511">
        <ele>1097.594706</ele>
        <time>2019-08-22T10:31:14.161Z</time>
      </trkpt>
      <trkpt lat="42.654339" lon="-0.573415">
        <ele>1095.586578</ele>
        <time>2019-08-22T10:31:15.573Z</time>
      </trkpt>
      <trkpt lat="42.654462" lon="-0.573251">
        <ele>1093.522467</ele>
        <time>2019-08-22T10:31:17.019Z</time>
      </trkpt>
      <trkpt lat="42.654525" lon="-0.573055">
        <ele>1091.637546</ele>
        <time>2019-08-22T10:31:18.342Z</time>
      </trkpt>
      <trkpt lat="42.654539" lon="-0.572798">
        <ele>1089.224756</ele>
        <time>2019-08-22T10:31:19.943Z</time>
      </trkpt>
      <trkpt lat="42.654389" lon="-0.572452">
        <ele>1085.430423</ele>
        <time>2019-08-22T10:31:22.423Z</time>
      </trkpt>
      <trkpt lat="42.653847" lon="-0.571512">
        <ele>1074.146271</ele>
        <time>2019-08-22T10:31:29.801Z</time>
      </trkpt>
      <trkpt lat="42.653768" lon="-0.571080">
        <ele>1069.940803</ele>
        <time>2019-08-22T10:31:32.562Z</time>
      </trkpt>
      <trkpt lat="42.653751" lon="-0.570446">
        <ele>1064.713915</ele>
        <time>2019-08-22T10:31:36.521Z</time>
      </trkpt>
      <trkpt lat="42.653791" lon="-0.570162">
        <ele>1062.470996</ele>
        <time>2019-08-22T10:31:38.324Z</time>
      </trkpt>
      <trkpt lat="42.654082" lon="-0.569469">
        <ele>1056.281205</ele>
        <time>2019-08-22T10:31:43.347Z</time>
      </trkpt>
      <trkpt lat="42.654306" lon="-0.568591">
        <ele>1049.119362</ele>
        <time>2019-08-22T10:31:49.288Z</time>
      </trkpt>
      <trkpt lat="42.654684" lon="-0.567944">
        <ele>1044.289992</ele>
        <time>2019-08-22T10:31:54.715Z</time>
      </trkpt>
      <trkpt lat="42.654693" lon="-0.567781">
        <ele>1043.334650</ele>
        <time>2019-08-22T10:31:55.729Z</time>
      </trkpt>
      <trkpt lat="42.654550" lon="-0.567742">
        <ele>1042.175610</ele>
        <time>2019-08-22T10:31:57.051Z</time>
      </trkpt>
      <trkpt lat="42.653804" lon="-0.568598">
        <ele>1034.490032</ele>
        <time>2019-08-22T10:32:05.711Z</time>
      </trkpt>
      <trkpt lat="42.653664" lon="-0.568614">
        <ele>1033.519168</ele>
        <time>2019-08-22T10:32:07.018Z</time>
      </trkpt>
      <trkpt lat="42.653615" lon="-0.568578">
        <ele>1033.134290</ele>
        <time>2019-08-22T10:32:07.536Z</time>
      </trkpt>
      <trkpt lat="42.653582" lon="-0.568493">
        <ele>1032.645797</ele>
        <time>2019-08-22T10:32:08.123Z</time>
      </trkpt>
      <trkpt lat="42.653633" lon="-0.567608">
        <ele>1028.134151</ele>
        <time>2019-08-22T10:32:14.067Z</time>
      </trkpt>
      <trkpt lat="42.653734" lon="-0.567294">
        <ele>1026.392352</ele>
        <time>2019-08-22T10:32:16.303Z</time>
      </trkpt>
      <trkpt lat="42.653842" lon="-0.567115">
        <ele>1025.215658</ele>
        <time>2019-08-22T10:32:17.797Z</time>
      </trkpt>
      <trkpt lat="42.654557" lon="-0.566715">
        <ele>1021.256007</ele>
        <time>2019-08-22T10:32:24.924Z</time>
      </trkpt>
      <trkpt lat="42.655103" lon="-0.566670">
        <ele>1019.437155</ele>
        <time>2019-08-22T10:32:30.314Z</time>
      </trkpt>
      <trkpt lat="42.655470" lon="-0.566826">
        <ele>1018.158593</ele>
        <time>2019-08-22T10:32:34.415Z</time>
      </trkpt>
      <trkpt lat="42.655541" lon="-0.566811">
        <ele>1017.919677</ele>
        <time>2019-08-22T10:32:35.192Z</time>
      </trkpt>
      <trkpt lat="42.655639" lon="-0.566764">
        <ele>1017.574139</ele>
        <time>2019-08-22T10:32:36.400Z</time>
      </trkpt>
      <trkpt lat="42.655933" lon="-0.566348">
        <ele>1016.140209</ele>
        <time>2019-08-22T10:32:41.642Z</time>
      </trkpt>
      <trkpt lat="42.656063" lon="-0.566142">
        <ele>1015.437653</ele>
        <time>2019-08-22T10:32:44.495Z</time>
      </trkpt>
      <trkpt lat="42.656257" lon="-0.565800">
        <ele>1014.319772</ele>
        <time>2019-08-22T10:32:48.642Z</time>
      </trkpt>
      <trkpt lat="42.656886" lon="-0.564757">
        <ele>1010.828731</ele>
        <time>2019-08-22T10:32:58.417Z</time>
      </trkpt>
      <trkpt lat="42.656996" lon="-0.564555">
        <ele>1010.095436</ele>
        <time>2019-08-22T10:33:00.034Z</time>
      </trkpt>
      <trkpt lat="42.657017" lon="-0.564430">
        <ele>1009.213498</ele>
        <time>2019-08-22T10:33:00.926Z</time>
      </trkpt>
      <trkpt lat="42.657017" lon="-0.564317">
        <ele>1008.436249</ele>
        <time>2019-08-22T10:33:01.667Z</time>
      </trkpt>
      <trkpt lat="42.657009" lon="-0.564219">
        <ele>1007.758034</ele>
        <time>2019-08-22T10:33:02.326Z</time>
      </trkpt>
      <trkpt lat="42.656983" lon="-0.564089">
        <ele>1006.831376</ele>
        <time>2019-08-22T10:33:03.165Z</time>
      </trkpt>
      <trkpt lat="42.656690" lon="-0.563561">
        <ele>1002.281714</ele>
        <time>2019-08-22T10:33:07.417Z</time>
      </trkpt>
      <trkpt lat="42.656453" lon="-0.563310">
        <ele>999.472062</ele>
        <time>2019-08-22T10:33:09.999Z</time>
      </trkpt>
      <trkpt lat="42.656319" lon="-0.563222">
        <ele>998.080262</ele>
        <time>2019-08-22T10:33:11.259Z</time>
      </trkpt>
      <trkpt lat="42.656181" lon="-0.563160">
        <ele>996.720937</ele>
        <time>2019-08-22T10:33:12.485Z</time>
      </trkpt>
      <trkpt lat="42.654441" lon="-0.562374">
        <ele>979.015634</ele>
        <time>2019-08-22T10:33:28.211Z</time>
      </trkpt>
      <trkpt lat="42.654138" lon="-0.562044">
        <ele>975.367810</ele>
        <time>2019-08-22T10:33:31.662Z</time>
      </trkpt>
      <trkpt lat="42.653565" lon="-0.561813">
        <ele>970.678867</ele>
        <time>2019-08-22T10:33:36.981Z</time>
      </trkpt>
      <trkpt lat="42.652832" lon="-0.561388">
        <ele>964.427026</ele>
        <time>2019-08-22T10:33:44.076Z</time>
      </trkpt>
      <trkpt lat="42.651754" lon="-0.560871">
        <ele>954.957335</ele>
        <time>2019-08-22T10:33:54.115Z</time>
      </trkpt>
      <trkpt lat="42.651443" lon="-0.560650">
        <ele>951.986316</ele>
        <time>2019-08-22T10:33:57.192Z</time>
      </trkpt>
      <trkpt lat="42.650945" lon="-0.560331">
        <ele>947.325499</ele>
        <time>2019-08-22T10:34:02.015Z</time>
      </trkpt>
      <trkpt lat="42.650769" lon="-0.560193">
        <ele>945.720720</ele>
        <time>2019-08-22T10:34:03.787Z</time>
      </trkpt>
      <trkpt lat="42.650742" lon="-0.560090">
        <ele>945.121531</ele>
        <time>2019-08-22T10:34:04.484Z</time>
      </trkpt>
      <trkpt lat="42.650802" lon="-0.559609">
        <ele>942.448139</ele>
        <time>2019-08-22T10:34:07.596Z</time>
      </trkpt>
      <trkpt lat="42.650406" lon="-0.558818">
        <ele>937.204827</ele>
        <time>2019-08-22T10:34:13.823Z</time>
      </trkpt>
      <trkpt lat="42.650130" lon="-0.558301">
        <ele>933.704177</ele>
        <time>2019-08-22T10:34:18.155Z</time>
      </trkpt>
      <trkpt lat="42.650070" lon="-0.558172">
        <ele>933.054069</ele>
        <time>2019-08-22T10:34:19.237Z</time>
      </trkpt>
      <trkpt lat="42.650038" lon="-0.558068">
        <ele>932.822233</ele>
        <time>2019-08-22T10:34:20.023Z</time>
      </trkpt>
      <trkpt lat="42.649982" lon="-0.557918">
        <ele>932.476295</ele>
        <time>2019-08-22T10:34:21.215Z</time>
      </trkpt>
      <trkpt lat="42.649756" lon="-0.557618">
        <ele>931.593159</ele>
        <time>2019-08-22T10:34:24.326Z</time>
      </trkpt>
      <trkpt lat="42.649688" lon="-0.557465">
        <ele>931.225530</ele>
        <time>2019-08-22T10:34:25.618Z</time>
      </trkpt>
      <trkpt lat="42.649370" lon="-0.557075">
        <ele>930.028102</ele>
        <time>2019-08-22T10:34:30.105Z</time>
      </trkpt>
      <trkpt lat="42.648853" lon="-0.556403">
        <ele>928.109954</ele>
        <time>2019-08-22T10:34:38.671Z</time>
      </trkpt>
      <trkpt lat="42.648546" lon="-0.555983">
        <ele>927.807945</ele>
        <time>2019-08-22T10:34:44.463Z</time>
      </trkpt>
      <trkpt lat="42.648346" lon="-0.555681">
        <ele>927.600675</ele>
        <time>2019-08-22T10:34:48.580Z</time>
      </trkpt>
      <trkpt lat="42.648231" lon="-0.555472">
        <ele>927.467548</ele>
        <time>2019-08-22T10:34:50.979Z</time>
      </trkpt>
      <trkpt lat="42.647906" lon="-0.554556">
        <ele>926.948829</ele>
        <time>2019-08-22T10:35:00.433Z</time>
      </trkpt>
      <trkpt lat="42.647830" lon="-0.554282">
        <ele>926.711832</ele>
        <time>2019-08-22T10:35:03.403Z</time>
      </trkpt>
      <trkpt lat="42.647720" lon="-0.553917">
        <ele>926.315137</ele>
        <time>2019-08-22T10:35:07.315Z</time>
      </trkpt>
      <trkpt lat="42.647360" lon="-0.553121">
        <ele>925.375381</ele>
        <time>2019-08-22T10:35:15.659Z</time>
      </trkpt>
      <trkpt lat="42.647207" lon="-0.552900">
        <ele>925.070155</ele>
        <time>2019-08-22T10:35:18.184Z</time>
      </trkpt>
      <trkpt lat="42.647073" lon="-0.552741">
        <ele>924.826970</ele>
        <time>2019-08-22T10:35:20.344Z</time>
      </trkpt>
      <trkpt lat="42.646658" lon="-0.552362">
        <ele>923.577860</ele>
        <time>2019-08-22T10:35:25.710Z</time>
      </trkpt>
      <trkpt lat="42.645799" lon="-0.551780">
        <ele>919.679371</ele>
        <time>2019-08-22T10:35:35.266Z</time>
      </trkpt>
      <trkpt lat="42.645106" lon="-0.551377">
        <ele>916.461233</ele>
        <time>2019-08-22T10:35:42.220Z</time>
      </trkpt>
      <trkpt lat="42.644461" lon="-0.551128">
        <ele>912.896418</ele>
        <time>2019-08-22T10:35:48.372Z</time>
      </trkpt>
      <trkpt lat="42.643890" lon="-0.551014">
        <ele>909.828051</ele>
        <time>2019-08-22T10:35:53.683Z</time>
      </trkpt>
      <trkpt lat="42.641224" lon="-0.550911">
        <ele>899.142733</ele>
        <time>2019-08-22T10:36:19.800Z</time>
      </trkpt>
      <trkpt lat="42.640718" lon="-0.551006">
        <ele>897.597755</ele>
        <time>2019-08-22T10:36:25.057Z</time>
      </trkpt>
      <trkpt lat="42.640477" lon="-0.551062">
        <ele>896.858253</ele>
        <time>2019-08-22T10:36:27.595Z</time>
      </trkpt>
      <trkpt lat="42.639578" lon="-0.551273">
        <ele>894.458911</ele>
        <time>2019-08-22T10:36:37.195Z</time>
      </trkpt>
      <trkpt lat="42.638945" lon="-0.551399">
        <ele>893.264232</ele>
        <time>2019-08-22T10:36:44.219Z</time>
      </trkpt>
      <trkpt lat="42.638495" lon="-0.551429">
        <ele>892.422886</ele>
        <time>2019-08-22T10:36:49.390Z</time>
      </trkpt>
      <trkpt lat="42.638185" lon="-0.551360">
        <ele>891.836279</ele>
        <time>2019-08-22T10:36:53.019Z</time>
      </trkpt>
      <trkpt lat="42.637927" lon="-0.551292">
        <ele>891.304641</ele>
        <time>2019-08-22T10:36:56.064Z</time>
      </trkpt>
      <trkpt lat="42.637491" lon="-0.551033">
        <ele>890.307869</ele>
        <time>2019-08-22T10:37:01.766Z</time>
      </trkpt>
      <trkpt lat="42.637156" lon="-0.550736">
        <ele>889.470016</ele>
        <time>2019-08-22T10:37:06.279Z</time>
      </trkpt>
      <trkpt lat="42.637099" lon="-0.550689">
        <ele>889.330356</ele>
        <time>2019-08-22T10:37:06.967Z</time>
      </trkpt>
      <trkpt lat="42.636545" lon="-0.550140">
        <ele>887.871865</ele>
        <time>2019-08-22T10:37:14.184Z</time>
      </trkpt>
      <trkpt lat="42.636314" lon="-0.549909">
        <ele>886.567021</ele>
        <time>2019-08-22T10:37:17.076Z</time>
      </trkpt>
      <trkpt lat="42.634900" lon="-0.548518">
        <ele>878.719843</ele>
        <time>2019-08-22T10:37:33.540Z</time>
      </trkpt>
      <trkpt lat="42.634269" lon="-0.548170">
        <ele>875.887218</ele>
        <time>2019-08-22T10:37:39.948Z</time>
      </trkpt>
      <trkpt lat="42.633832" lon="-0.548151">
        <ele>874.068477</ele>
        <time>2019-08-22T10:37:44.156Z</time>
      </trkpt>
      <trkpt lat="42.632220" lon="-0.548582">
        <ele>869.416294</ele>
        <time>2019-08-22T10:38:01.577Z</time>
      </trkpt>
      <trkpt lat="42.631328" lon="-0.548591">
        <ele>867.047224</ele>
        <time>2019-08-22T10:38:11.644Z</time>
      </trkpt>
      <trkpt lat="42.631241" lon="-0.548618">
        <ele>866.755805</ele>
        <time>2019-08-22T10:38:12.500Z</time>
      </trkpt>
      <trkpt lat="42.631072" lon="-0.548671">
        <ele>866.189417</ele>
        <time>2019-08-22T10:38:14.300Z</time>
      </trkpt>
      <trkpt lat="42.630875" lon="-0.548679">
        <ele>865.545806</ele>
        <time>2019-08-22T10:38:16.208Z</time>
      </trkpt>
      <trkpt lat="42.630570" lon="-0.548497">
        <ele>864.458035</ele>
        <time>2019-08-22T10:38:19.544Z</time>
      </trkpt>
      <trkpt lat="42.630456" lon="-0.548335">
        <ele>863.919436</ele>
        <time>2019-08-22T10:38:21.295Z</time>
      </trkpt>
      <trkpt lat="42.630196" lon="-0.547638">
        <ele>862.011334</ele>
        <time>2019-08-22T10:38:26.921Z</time>
      </trkpt>
      <trkpt lat="42.630099" lon="-0.547458">
        <ele>861.321422</ele>
        <time>2019-08-22T10:38:28.598Z</time>
      </trkpt>
      <trkpt lat="42.629984" lon="-0.547309">
        <ele>860.653690</ele>
        <time>2019-08-22T10:38:30.107Z</time>
      </trkpt>
      <trkpt lat="42.629727" lon="-0.547140">
        <ele>859.453809</ele>
        <time>2019-08-22T10:38:32.834Z</time>
      </trkpt>
      <trkpt lat="42.629361" lon="-0.547175">
        <ele>857.911800</ele>
        <time>2019-08-22T10:38:36.237Z</time>
      </trkpt>
      <trkpt lat="42.628976" lon="-0.547292">
        <ele>856.253788</ele>
        <time>2019-08-22T10:38:39.932Z</time>
      </trkpt>
      <trkpt lat="42.628209" lon="-0.547517">
        <ele>853.947690</ele>
        <time>2019-08-22T10:38:48.109Z</time>
      </trkpt>
      <trkpt lat="42.628152" lon="-0.547534">
        <ele>853.851372</ele>
        <time>2019-08-22T10:38:48.683Z</time>
      </trkpt>
      <trkpt lat="42.627944" lon="-0.547593">
        <ele>853.500668</ele>
        <time>2019-08-22T10:38:51.040Z</time>
      </trkpt>
      <trkpt lat="42.627901" lon="-0.547605">
        <ele>853.428216</ele>
        <time>2019-08-22T10:38:51.518Z</time>
      </trkpt>
      <trkpt lat="42.627721" lon="-0.547710">
        <ele>853.104915</ele>
        <time>2019-08-22T10:38:53.635Z</time>
      </trkpt>
      <trkpt lat="42.627560" lon="-0.547848">
        <ele>852.790751</ele>
        <time>2019-08-22T10:38:55.914Z</time>
      </trkpt>
      <trkpt lat="42.627524" lon="-0.547878">
        <ele>852.721053</ele>
        <time>2019-08-22T10:38:56.376Z</time>
      </trkpt>
      <trkpt lat="42.627313" lon="-0.548050">
        <ele>852.314957</ele>
        <time>2019-08-22T10:38:59.377Z</time>
      </trkpt>
      <trkpt lat="42.626539" lon="-0.548247">
        <ele>851.467423</ele>
        <time>2019-08-22T10:39:09.956Z</time>
      </trkpt>
      <trkpt lat="42.626424" lon="-0.548276">
        <ele>851.418648</ele>
        <time>2019-08-22T10:39:11.990Z</time>
      </trkpt>
      <trkpt lat="42.626346" lon="-0.548296">
        <ele>851.385547</ele>
        <time>2019-08-22T10:39:13.424Z</time>
      </trkpt>
      <trkpt lat="42.625982" lon="-0.548339">
        <ele>851.233181</ele>
        <time>2019-08-22T10:39:19.950Z</time>
      </trkpt>
      <trkpt lat="42.625670" lon="-0.548280">
        <ele>851.101818</ele>
        <time>2019-08-22T10:39:24.737Z</time>
      </trkpt>
      <trkpt lat="42.625476" lon="-0.548164">
        <ele>851.013433</ele>
        <time>2019-08-22T10:39:27.441Z</time>
      </trkpt>
      <trkpt lat="42.624782" lon="-0.547527">
        <ele>849.233530</ele>
        <time>2019-08-22T10:39:37.009Z</time>
      </trkpt>
      <trkpt lat="42.623972" lon="-0.546796">
        <ele>846.012367</ele>
        <time>2019-08-22T10:39:46.576Z</time>
      </trkpt>
      <trkpt lat="42.623488" lon="-0.546450">
        <ele>844.163534</ele>
        <time>2019-08-22T10:39:51.764Z</time>
      </trkpt>
      <trkpt lat="42.623082" lon="-0.546250">
        <ele>842.658196</ele>
        <time>2019-08-22T10:39:55.863Z</time>
      </trkpt>
      <trkpt lat="42.622573" lon="-0.546138">
        <ele>840.860820</ele>
        <time>2019-08-22T10:40:00.933Z</time>
      </trkpt>
      <trkpt lat="42.621950" lon="-0.546068">
        <ele>838.681758</ele>
        <time>2019-08-22T10:40:07.530Z</time>
      </trkpt>
      <trkpt lat="42.620921" lon="-0.546199">
        <ele>837.413473</ele>
        <time>2019-08-22T10:40:19.629Z</time>
      </trkpt>
      <trkpt lat="42.620447" lon="-0.546319">
        <ele>836.833977</ele>
        <time>2019-08-22T10:40:25.995Z</time>
      </trkpt>
      <trkpt lat="42.619316" lon="-0.547028">
        <ele>835.563039</ele>
        <time>2019-08-22T10:40:41.838Z</time>
      </trkpt>
      <trkpt lat="42.618853" lon="-0.547137">
        <ele>835.109959</ele>
        <time>2019-08-22T10:40:47.579Z</time>
      </trkpt>
      <trkpt lat="42.617640" lon="-0.547246">
        <ele>833.318474</ele>
        <time>2019-08-22T10:41:01.628Z</time>
      </trkpt>
      <trkpt lat="42.617013" lon="-0.547382">
        <ele>832.237004</ele>
        <time>2019-08-22T10:41:08.645Z</time>
      </trkpt>
      <trkpt lat="42.616441" lon="-0.547600">
        <ele>831.152224</ele>
        <time>2019-08-22T10:41:15.110Z</time>
      </trkpt>
      <trkpt lat="42.614847" lon="-0.548445">
        <ele>827.893427</ele>
        <time>2019-08-22T10:41:33.860Z</time>
      </trkpt>
      <trkpt lat="42.614261" lon="-0.548608">
        <ele>827.110428</ele>
        <time>2019-08-22T10:41:40.779Z</time>
      </trkpt>
      <trkpt lat="42.613539" lon="-0.548663">
        <ele>826.163825</ele>
        <time>2019-08-22T10:41:49.486Z</time>
      </trkpt>
      <trkpt lat="42.612599" lon="-0.548472">
        <ele>825.105998</ele>
        <time>2019-08-22T10:42:01.335Z</time>
      </trkpt>
      <trkpt lat="42.611795" lon="-0.548063">
        <ele>824.226869</ele>
        <time>2019-08-22T10:42:11.908Z</time>
      </trkpt>
      <trkpt lat="42.610514" lon="-0.547123">
        <ele>822.431750</ele>
        <time>2019-08-22T10:42:28.828Z</time>
      </trkpt>
      <trkpt lat="42.609615" lon="-0.546660">
        <ele>821.458429</ele>
        <time>2019-08-22T10:42:40.278Z</time>
      </trkpt>
      <trkpt lat="42.608931" lon="-0.546525">
        <ele>821.114301</ele>
        <time>2019-08-22T10:42:49.252Z</time>
      </trkpt>
      <trkpt lat="42.608646" lon="-0.546371">
        <ele>820.961594</ele>
        <time>2019-08-22T10:42:55.186Z</time>
      </trkpt>
      <trkpt lat="42.608433" lon="-0.546251">
        <ele>820.846789</ele>
        <time>2019-08-22T10:42:59.824Z</time>
      </trkpt>
      <trkpt lat="42.607234" lon="-0.545211">
        <ele>821.879992</ele>
        <time>2019-08-22T10:43:29.121Z</time>
      </trkpt>
      <trkpt lat="42.606976" lon="-0.544888">
        <ele>822.221036</ele>
        <time>2019-08-22T10:43:38.895Z</time>
      </trkpt>
      <trkpt lat="42.606825" lon="-0.544767">
        <ele>822.391453</ele>
        <time>2019-08-22T10:43:44.549Z</time>
      </trkpt>
      <trkpt lat="42.606766" lon="-0.544660">
        <ele>822.508681</ele>
        <time>2019-08-22T10:43:46.347Z</time>
      </trkpt>
      <trkpt lat="42.606591" lon="-0.544401">
        <ele>823.289033</ele>
        <time>2019-08-22T10:43:54.469Z</time>
      </trkpt>
      <trkpt lat="42.606082" lon="-0.543864">
        <ele>825.232373</ele>
        <time>2019-08-22T10:44:12.251Z</time>
      </trkpt>
      <trkpt lat="42.605835" lon="-0.543693">
        <ele>826.068342</ele>
        <time>2019-08-22T10:44:19.949Z</time>
      </trkpt>
      <trkpt lat="42.605452" lon="-0.543531">
        <ele>827.277979</ele>
        <time>2019-08-22T10:44:30.901Z</time>
      </trkpt>
      <trkpt lat="42.604786" lon="-0.543477">
        <ele>828.254860</ele>
        <time>2019-08-22T10:44:49.578Z</time>
      </trkpt>
      <trkpt lat="42.602931" lon="-0.544021">
        <ele>828.691360</ele>
        <time>2019-08-22T10:45:16.558Z</time>
      </trkpt>
      <trkpt lat="42.602312" lon="-0.544024">
        <ele>828.036736</ele>
        <time>2019-08-22T10:45:23.740Z</time>
      </trkpt>
      <trkpt lat="42.601888" lon="-0.543933">
        <ele>827.582777</ele>
        <time>2019-08-22T10:45:28.772Z</time>
      </trkpt>
      <trkpt lat="42.601332" lon="-0.543713">
        <ele>826.437705</ele>
        <time>2019-08-22T10:45:35.247Z</time>
      </trkpt>
      <trkpt lat="42.600773" lon="-0.543594">
        <ele>825.063486</ele>
        <time>2019-08-22T10:45:41.346Z</time>
      </trkpt>
      <trkpt lat="42.600516" lon="-0.543606">
        <ele>824.438938</ele>
        <time>2019-08-22T10:45:44.061Z</time>
      </trkpt>
      <trkpt lat="42.598725" lon="-0.543774">
        <ele>819.255306</ele>
        <time>2019-08-22T10:46:02.289Z</time>
      </trkpt>
      <trkpt lat="42.597591" lon="-0.543752">
        <ele>816.144998</ele>
        <time>2019-08-22T10:46:13.819Z</time>
      </trkpt>
      <trkpt lat="42.594186" lon="-0.543316">
        <ele>810.420439</ele>
        <time>2019-08-22T10:46:51.344Z</time>
      </trkpt>
      <trkpt lat="42.593470" lon="-0.543237">
        <ele>811.407081</ele>
        <time>2019-08-22T10:47:06.837Z</time>
      </trkpt>
      <trkpt lat="42.592690" lon="-0.543122">
        <ele>812.588129</ele>
        <time>2019-08-22T10:47:28.204Z</time>
      </trkpt>
      <trkpt lat="42.592240" lon="-0.543110">
        <ele>813.865545</ele>
        <time>2019-08-22T10:47:41.125Z</time>
      </trkpt>
      <trkpt lat="42.591892" lon="-0.543124">
        <ele>814.853657</ele>
        <time>2019-08-22T10:47:51.339Z</time>
      </trkpt>
      <trkpt lat="42.591536" lon="-0.543240">
        <ele>815.892706</ele>
        <time>2019-08-22T10:48:02.160Z</time>
      </trkpt>
      <trkpt lat="42.590625" lon="-0.543711">
        <ele>817.524493</ele>
        <time>2019-08-22T10:48:23.164Z</time>
      </trkpt>
      <trkpt lat="42.590218" lon="-0.543922">
        <ele>817.558394</ele>
        <time>2019-08-22T10:48:30.726Z</time>
      </trkpt>
      <trkpt lat="42.588878" lon="-0.544534">
        <ele>816.498242</ele>
        <time>2019-08-22T10:48:48.191Z</time>
      </trkpt>
      <trkpt lat="42.588127" lon="-0.544628">
        <ele>814.645900</ele>
        <time>2019-08-22T10:48:56.103Z</time>
      </trkpt>
      <trkpt lat="42.587356" lon="-0.544536">
        <ele>812.567806</ele>
        <time>2019-08-22T10:49:03.817Z</time>
      </trkpt>
      <trkpt lat="42.586149" lon="-0.544128">
        <ele>808.361110</ele>
        <time>2019-08-22T10:49:16.118Z</time>
      </trkpt>
      <trkpt lat="42.585713" lon="-0.543980">
        <ele>807.025267</ele>
        <time>2019-08-22T10:49:20.724Z</time>
      </trkpt>
      <trkpt lat="42.585613" lon="-0.543961">
        <ele>806.900183</ele>
        <time>2019-08-22T10:49:21.767Z</time>
      </trkpt>
      <trkpt lat="42.585245" lon="-0.543892">
        <ele>806.439989</ele>
        <time>2019-08-22T10:49:25.777Z</time>
      </trkpt>
      <trkpt lat="42.584933" lon="-0.543891">
        <ele>806.053489</ele>
        <time>2019-08-22T10:49:29.325Z</time>
      </trkpt>
      <trkpt lat="42.584276" lon="-0.543815">
        <ele>805.236665</ele>
        <time>2019-08-22T10:49:37.628Z</time>
      </trkpt>
      <trkpt lat="42.582649" lon="-0.543875">
        <ele>807.022174</ele>
        <time>2019-08-22T10:50:06.722Z</time>
      </trkpt>
      <trkpt lat="42.581671" lon="-0.543990">
        <ele>810.827077</ele>
        <time>2019-08-22T10:50:36.245Z</time>
      </trkpt>
      <trkpt lat="42.581424" lon="-0.544079">
        <ele>812.298375</ele>
        <time>2019-08-22T10:50:45.918Z</time>
      </trkpt>
      <trkpt lat="42.581179" lon="-0.544184">
        <ele>813.777524</ele>
        <time>2019-08-22T10:50:56.011Z</time>
      </trkpt>
      <trkpt lat="42.580899" lon="-0.544404">
        <ele>815.639968</ele>
        <time>2019-08-22T10:51:09.432Z</time>
      </trkpt>
      <trkpt lat="42.580777" lon="-0.544525">
        <ele>816.509746</ele>
        <time>2019-08-22T10:51:16.412Z</time>
      </trkpt>
      <trkpt lat="42.580707" lon="-0.544467">
        <ele>816.981855</ele>
        <time>2019-08-22T10:51:20.706Z</time>
      </trkpt>
      <trkpt lat="42.580648" lon="-0.544393">
        <ele>817.444247</ele>
        <time>2019-08-22T10:51:23.849Z</time>
      </trkpt>
      <trkpt lat="42.580617" lon="-0.544337">
        <ele>817.741261</ele>
        <time>2019-08-22T10:51:26.419Z</time>
      </trkpt>
      <trkpt lat="42.580541" lon="-0.544105">
        <ele>818.905167</ele>
        <time>2019-08-22T10:51:36.684Z</time>
      </trkpt>
      <trkpt lat="42.580258" lon="-0.543319">
        <ele>823.044498</ele>
        <time>2019-08-22T10:52:10.243Z</time>
      </trkpt>
      <trkpt lat="42.580099" lon="-0.543004">
        <ele>824.851312</ele>
        <time>2019-08-22T10:52:23.481Z</time>
      </trkpt>
      <trkpt lat="42.579868" lon="-0.542768">
        <ele>826.708594</ele>
        <time>2019-08-22T10:52:37.122Z</time>
      </trkpt>
      <trkpt lat="42.579472" lon="-0.542596">
        <ele>829.379907</ele>
        <time>2019-08-22T10:52:54.340Z</time>
      </trkpt>
      <trkpt lat="42.579367" lon="-0.542438">
        <ele>829.782626</ele>
        <time>2019-08-22T10:53:00.059Z</time>
      </trkpt>
      <trkpt lat="42.579014" lon="-0.541888">
        <ele>830.513376</ele>
        <time>2019-08-22T10:53:15.888Z</time>
      </trkpt>
      <trkpt lat="42.578847" lon="-0.542089">
        <ele>830.816900</ele>
        <time>2019-08-22T10:53:20.941Z</time>
      </trkpt>
      <trkpt lat="42.578636" lon="-0.542390">
        <ele>831.233142</ele>
        <time>2019-08-22T10:53:26.694Z</time>
      </trkpt>
      <trkpt lat="42.578498" lon="-0.542609">
        <ele>831.521841</ele>
        <time>2019-08-22T10:53:29.532Z</time>
      </trkpt>
      <trkpt lat="42.578333" lon="-0.542839">
        <ele>831.843458</ele>
        <time>2019-08-22T10:53:32.893Z</time>
      </trkpt>
      <trkpt lat="42.578058" lon="-0.543232">
        <ele>831.765768</ele>
        <time>2019-08-22T10:53:37.422Z</time>
      </trkpt>
      <trkpt lat="42.577863" lon="-0.543459">
        <ele>831.436626</ele>
        <time>2019-08-22T10:53:40.392Z</time>
      </trkpt>
      <trkpt lat="42.577791" lon="-0.543543">
        <ele>831.314983</ele>
        <time>2019-08-22T10:53:41.403Z</time>
      </trkpt>
      <trkpt lat="42.577448" lon="-0.543915">
        <ele>830.752448</ele>
        <time>2019-08-22T10:53:46.518Z</time>
      </trkpt>
      <trkpt lat="42.577176" lon="-0.544151">
        <ele>830.338804</ele>
        <time>2019-08-22T10:53:50.310Z</time>
      </trkpt>
      <trkpt lat="42.577112" lon="-0.544204">
        <ele>830.242740</ele>
        <time>2019-08-22T10:53:51.249Z</time>
      </trkpt>
      <trkpt lat="42.576837" lon="-0.544433">
        <ele>829.829341</ele>
        <time>2019-08-22T10:53:55.164Z</time>
      </trkpt>
      <trkpt lat="42.576769" lon="-0.544490">
        <ele>829.719137</ele>
        <time>2019-08-22T10:53:56.083Z</time>
      </trkpt>
      <trkpt lat="42.576651" lon="-0.544587">
        <ele>829.502925</ele>
        <time>2019-08-22T10:53:57.751Z</time>
      </trkpt>
      <trkpt lat="42.576248" lon="-0.544903">
        <ele>828.773484</ele>
        <time>2019-08-22T10:54:03.184Z</time>
      </trkpt>
      <trkpt lat="42.576201" lon="-0.544930">
        <ele>828.693491</ele>
        <time>2019-08-22T10:54:03.797Z</time>
      </trkpt>
      <trkpt lat="42.576179" lon="-0.544942">
        <ele>828.656328</ele>
        <time>2019-08-22T10:54:04.048Z</time>
      </trkpt>
      <trkpt lat="42.576060" lon="-0.544979">
        <ele>828.464970</ele>
        <time>2019-08-22T10:54:05.949Z</time>
      </trkpt>
      <trkpt lat="42.576049" lon="-0.545000">
        <ele>828.435223</ele>
        <time>2019-08-22T10:54:06.272Z</time>
      </trkpt>
      <trkpt lat="42.576034" lon="-0.545016">
        <ele>828.405325</ele>
        <time>2019-08-22T10:54:06.594Z</time>
      </trkpt>
      <trkpt lat="42.576016" lon="-0.545024">
        <ele>828.375637</ele>
        <time>2019-08-22T10:54:06.917Z</time>
      </trkpt>
      <trkpt lat="42.575980" lon="-0.545090">
        <ele>828.280832</ele>
        <time>2019-08-22T10:54:07.910Z</time>
      </trkpt>
      <trkpt lat="42.575907" lon="-0.545162">
        <ele>828.139409</ele>
        <time>2019-08-22T10:54:09.435Z</time>
      </trkpt>
      <trkpt lat="42.575820" lon="-0.545162">
        <ele>828.003038</ele>
        <time>2019-08-22T10:54:10.754Z</time>
      </trkpt>
      <trkpt lat="42.575622" lon="-0.545396">
        <ele>827.591601</ele>
        <time>2019-08-22T10:54:15.307Z</time>
      </trkpt>
      <trkpt lat="42.575492" lon="-0.545057">
        <ele>827.150421</ele>
        <time>2019-08-22T10:54:19.919Z</time>
      </trkpt>
      <trkpt lat="42.575394" lon="-0.544799">
        <ele>826.645920</ele>
        <time>2019-08-22T10:54:23.264Z</time>
      </trkpt>
      <trkpt lat="42.575260" lon="-0.544449">
        <ele>825.584051</ele>
        <time>2019-08-22T10:54:27.977Z</time>
      </trkpt>
      <trkpt lat="42.575236" lon="-0.544388">
        <ele>825.397882</ele>
        <time>2019-08-22T10:54:28.653Z</time>
      </trkpt>
      <trkpt lat="42.575160" lon="-0.544141">
        <ele>824.677290</ele>
        <time>2019-08-22T10:54:31.658Z</time>
      </trkpt>
      <trkpt lat="42.575173" lon="-0.543989">
        <ele>824.265380</ele>
        <time>2019-08-22T10:54:33.338Z</time>
      </trkpt>
      <trkpt lat="42.575209" lon="-0.543899">
        <ele>823.989680</ele>
        <time>2019-08-22T10:54:34.336Z</time>
      </trkpt>
      <trkpt lat="42.575273" lon="-0.543808">
        <ele>823.650953</ele>
        <time>2019-08-22T10:54:35.691Z</time>
      </trkpt>
      <trkpt lat="42.575359" lon="-0.543712">
        <ele>823.244005</ele>
        <time>2019-08-22T10:54:37.288Z</time>
      </trkpt>
      <trkpt lat="42.575390" lon="-0.543605">
        <ele>822.934488</ele>
        <time>2019-08-22T10:54:38.468Z</time>
      </trkpt>
      <trkpt lat="42.575406" lon="-0.543525">
        <ele>822.711341</ele>
        <time>2019-08-22T10:54:39.251Z</time>
      </trkpt>
      <trkpt lat="42.575340" lon="-0.543294">
        <ele>822.044364</ele>
        <time>2019-08-22T10:54:41.782Z</time>
      </trkpt>
      <trkpt lat="42.575248" lon="-0.543235">
        <ele>821.672447</ele>
        <time>2019-08-22T10:54:43.156Z</time>
      </trkpt>
      <trkpt lat="42.575089" lon="-0.543199">
        <ele>821.083206</ele>
        <time>2019-08-22T10:54:45.282Z</time>
      </trkpt>
      <trkpt lat="42.574438" lon="-0.543051">
        <ele>818.243575</ele>
        <time>2019-08-22T10:54:54.270Z</time>
      </trkpt>
      <trkpt lat="42.574248" lon="-0.543004">
        <ele>817.360080</ele>
        <time>2019-08-22T10:54:56.983Z</time>
      </trkpt>
      <trkpt lat="42.573803" lon="-0.542894">
        <ele>815.290889</ele>
        <time>2019-08-22T10:55:03.155Z</time>
      </trkpt>
      <trkpt lat="42.573634" lon="-0.542852">
        <ele>814.504925</ele>
        <time>2019-08-22T10:55:05.481Z</time>
      </trkpt>
      <trkpt lat="42.573250" lon="-0.543806">
        <ele>811.178694</ele>
        <time>2019-08-22T10:55:16.531Z</time>
      </trkpt>
      <trkpt lat="42.573042" lon="-0.544018">
        <ele>810.297511</ele>
        <time>2019-08-22T10:55:20.231Z</time>
      </trkpt>
      <trkpt lat="42.572876" lon="-0.544238">
        <ele>809.511590</ele>
        <time>2019-08-22T10:55:23.577Z</time>
      </trkpt>
      <trkpt lat="42.572724" lon="-0.544358">
        <ele>808.915866</ele>
        <time>2019-08-22T10:55:26.149Z</time>
      </trkpt>
      <trkpt lat="42.572305" lon="-0.544722">
        <ele>807.230530</ele>
        <time>2019-08-22T10:55:33.506Z</time>
      </trkpt>
      <trkpt lat="42.571918" lon="-0.545092">
        <ele>805.945017</ele>
        <time>2019-08-22T10:55:40.460Z</time>
      </trkpt>
      <trkpt lat="42.571756" lon="-0.544962">
        <ele>805.792325</ele>
        <time>2019-08-22T10:55:43.264Z</time>
      </trkpt>
      <trkpt lat="42.571384" lon="-0.544660">
        <ele>805.440635</ele>
        <time>2019-08-22T10:55:49.983Z</time>
      </trkpt>
      <trkpt lat="42.571192" lon="-0.544585">
        <ele>805.278520</ele>
        <time>2019-08-22T10:55:53.413Z</time>
      </trkpt>
      <trkpt lat="42.570892" lon="-0.544745">
        <ele>805.016984</ele>
        <time>2019-08-22T10:55:58.721Z</time>
      </trkpt>
      <trkpt lat="42.570723" lon="-0.544824">
        <ele>804.871952</ele>
        <time>2019-08-22T10:56:01.353Z</time>
      </trkpt>
      <trkpt lat="42.570667" lon="-0.544845">
        <ele>804.824810</ele>
        <time>2019-08-22T10:56:02.746Z</time>
      </trkpt>
      <trkpt lat="42.570716" lon="-0.544633">
        <ele>804.692030</ele>
        <time>2019-08-22T10:56:06.918Z</time>
      </trkpt>
      <trkpt lat="42.570734" lon="-0.544528">
        <ele>804.627607</ele>
        <time>2019-08-22T10:56:08.668Z</time>
      </trkpt>
      <trkpt lat="42.570744" lon="-0.544083">
        <ele>805.014174</ele>
        <time>2019-08-22T10:56:17.056Z</time>
      </trkpt>
      <trkpt lat="42.570710" lon="-0.543942">
        <ele>805.183655</ele>
        <time>2019-08-22T10:56:19.553Z</time>
      </trkpt>
      <trkpt lat="42.570674" lon="-0.543817">
        <ele>805.336975</ele>
        <time>2019-08-22T10:56:22.459Z</time>
      </trkpt>
      <trkpt lat="42.570527" lon="-0.543347">
        <ele>805.920276</ele>
        <time>2019-08-22T10:56:32.963Z</time>
      </trkpt>
      <trkpt lat="42.570503" lon="-0.543306">
        <ele>805.980104</ele>
        <time>2019-08-22T10:56:34.713Z</time>
      </trkpt>
      <trkpt lat="42.570479" lon="-0.543272">
        <ele>806.033902</ele>
        <time>2019-08-22T10:56:35.624Z</time>
      </trkpt>
      <trkpt lat="42.570323" lon="-0.543200">
        <ele>806.289473</ele>
        <time>2019-08-22T10:56:38.692Z</time>
      </trkpt>
      <trkpt lat="42.570273" lon="-0.543200">
        <ele>806.367030</ele>
        <time>2019-08-22T10:56:40.360Z</time>
      </trkpt>
      <trkpt lat="42.570230" lon="-0.543212">
        <ele>806.435122</ele>
        <time>2019-08-22T10:56:41.177Z</time>
      </trkpt>
      <trkpt lat="42.570067" lon="-0.543298">
        <ele>806.706370</ele>
        <time>2019-08-22T10:56:45.465Z</time>
      </trkpt>
      <trkpt lat="42.569072" lon="-0.543880">
        <ele>806.045920</ele>
        <time>2019-08-22T10:57:06.804Z</time>
      </trkpt>
      <trkpt lat="42.568147" lon="-0.544411">
        <ele>803.997569</ele>
        <time>2019-08-22T10:57:16.739Z</time>
      </trkpt>
      <trkpt lat="42.567438" lon="-0.544786">
        <ele>800.495557</ele>
        <time>2019-08-22T10:57:23.942Z</time>
      </trkpt>
      <trkpt lat="42.567397" lon="-0.544816">
        <ele>800.253706</ele>
        <time>2019-08-22T10:57:24.351Z</time>
      </trkpt>
      <trkpt lat="42.567246" lon="-0.544959">
        <ele>799.297711</ele>
        <time>2019-08-22T10:57:26.114Z</time>
      </trkpt>
      <trkpt lat="42.567201" lon="-0.545001">
        <ele>799.014153</ele>
        <time>2019-08-22T10:57:26.601Z</time>
      </trkpt>
      <trkpt lat="42.567035" lon="-0.544765">
        <ele>797.766082</ele>
        <time>2019-08-22T10:57:29.779Z</time>
      </trkpt>
      <trkpt lat="42.566903" lon="-0.544605">
        <ele>796.847237</ele>
        <time>2019-08-22T10:57:32.115Z</time>
      </trkpt>
      <trkpt lat="42.566763" lon="-0.544558">
        <ele>796.098351</ele>
        <time>2019-08-22T10:57:33.967Z</time>
      </trkpt>
      <trkpt lat="42.566721" lon="-0.544593">
        <ele>795.842453</ele>
        <time>2019-08-22T10:57:34.426Z</time>
      </trkpt>
      <trkpt lat="42.566674" lon="-0.544612">
        <ele>795.587803</ele>
        <time>2019-08-22T10:57:34.888Z</time>
      </trkpt>
      <trkpt lat="42.566616" lon="-0.544614">
        <ele>795.286523</ele>
        <time>2019-08-22T10:57:35.390Z</time>
      </trkpt>
      <trkpt lat="42.566513" lon="-0.544552">
        <ele>794.701460</ele>
        <time>2019-08-22T10:57:36.438Z</time>
      </trkpt>
      <trkpt lat="42.566475" lon="-0.544494">
        <ele>794.404573</ele>
        <time>2019-08-22T10:57:36.969Z</time>
      </trkpt>
      <trkpt lat="42.566450" lon="-0.544422">
        <ele>794.276042</ele>
        <time>2019-08-22T10:57:37.535Z</time>
      </trkpt>
      <trkpt lat="42.566452" lon="-0.544266">
        <ele>794.072631</ele>
        <time>2019-08-22T10:57:38.624Z</time>
      </trkpt>
      <trkpt lat="42.566478" lon="-0.544195">
        <ele>793.969256</ele>
        <time>2019-08-22T10:57:39.181Z</time>
      </trkpt>
      <trkpt lat="42.566169" lon="-0.543923">
        <ele>793.317380</ele>
        <time>2019-08-22T10:57:42.808Z</time>
      </trkpt>
      <trkpt lat="42.565813" lon="-0.543504">
        <ele>792.483393</ele>
        <time>2019-08-22T10:57:48.269Z</time>
      </trkpt>
      <trkpt lat="42.565743" lon="-0.543418">
        <ele>792.316284</ele>
        <time>2019-08-22T10:57:49.365Z</time>
      </trkpt>
      <trkpt lat="42.565610" lon="-0.543394">
        <ele>792.078780</ele>
        <time>2019-08-22T10:57:50.970Z</time>
      </trkpt>
      <trkpt lat="42.565214" lon="-0.542955">
        <ele>791.203193</ele>
        <time>2019-08-22T10:58:00.524Z</time>
      </trkpt>
      <trkpt lat="42.565169" lon="-0.542783">
        <ele>791.717949</ele>
        <time>2019-08-22T10:58:02.638Z</time>
      </trkpt>
      <trkpt lat="42.565098" lon="-0.542770">
        <ele>791.992272</ele>
        <time>2019-08-22T10:58:04.365Z</time>
      </trkpt>
      <trkpt lat="42.564724" lon="-0.542661">
        <ele>793.456953</ele>
        <time>2019-08-22T10:58:15.689Z</time>
      </trkpt>
      <trkpt lat="42.564601" lon="-0.542623">
        <ele>793.939963</ele>
        <time>2019-08-22T10:58:19.961Z</time>
      </trkpt>
      <trkpt lat="42.564390" lon="-0.542446">
        <ele>794.889655</ele>
        <time>2019-08-22T10:58:26.486Z</time>
      </trkpt>
      <trkpt lat="42.563360" lon="-0.540656">
        <ele>803.224940</ele>
        <time>2019-08-22T10:59:29.963Z</time>
      </trkpt>
      <trkpt lat="42.562917" lon="-0.540193">
        <ele>806.645881</ele>
        <time>2019-08-22T10:59:52.528Z</time>
      </trkpt>
      <trkpt lat="42.562157" lon="-0.539712">
        <ele>811.658370</ele>
        <time>2019-08-22T11:00:26.912Z</time>
      </trkpt>
      <trkpt lat="42.561012" lon="-0.539311">
        <ele>818.576550</ele>
        <time>2019-08-22T11:01:12.577Z</time>
      </trkpt>
      <trkpt lat="42.559597" lon="-0.537806">
        <ele>827.399755</ele>
        <time>2019-08-22T11:02:12.175Z</time>
      </trkpt>
      <trkpt lat="42.559262" lon="-0.537378">
        <ele>830.005823</ele>
        <time>2019-08-22T11:02:27.729Z</time>
      </trkpt>
      <trkpt lat="42.558412" lon="-0.536111">
        <ele>837.828272</ele>
        <time>2019-08-22T11:03:18.715Z</time>
      </trkpt>
      <trkpt lat="42.557893" lon="-0.535336">
        <ele>843.139144</ele>
        <time>2019-08-22T11:03:52.207Z</time>
      </trkpt>
      <trkpt lat="42.556494" lon="-0.534642">
        <ele>853.836356</ele>
        <time>2019-08-22T11:04:58.621Z</time>
      </trkpt>
      <trkpt lat="42.556022" lon="-0.533959">
        <ele>858.641789</ele>
        <time>2019-08-22T11:05:27.531Z</time>
      </trkpt>
      <trkpt lat="42.555502" lon="-0.533163">
        <ele>864.101014</ele>
        <time>2019-08-22T11:06:01.041Z</time>
      </trkpt>
      <trkpt lat="42.552531" lon="-0.530138">
        <ele>888.229280</ele>
        <time>2019-08-22T11:08:35.062Z</time>
      </trkpt>
      <trkpt lat="42.552459" lon="-0.529826">
        <ele>888.882933</ele>
        <time>2019-08-22T11:08:42.658Z</time>
      </trkpt>
      <trkpt lat="42.552362" lon="-0.529410">
        <ele>889.755287</ele>
        <time>2019-08-22T11:08:52.256Z</time>
      </trkpt>
      <trkpt lat="42.552498" lon="-0.527645">
        <ele>893.104384</ele>
        <time>2019-08-22T11:09:22.187Z</time>
      </trkpt>
      <trkpt lat="42.551841" lon="-0.522660">
        <ele>891.141577</ele>
        <time>2019-08-22T11:10:12.903Z</time>
      </trkpt>
      <trkpt lat="42.551790" lon="-0.522273">
        <ele>890.030299</ele>
        <time>2019-08-22T11:10:15.839Z</time>
      </trkpt>
      <trkpt lat="42.551556" lon="-0.521640">
        <ele>888.028381</ele>
        <time>2019-08-22T11:10:20.906Z</time>
      </trkpt>
      <trkpt lat="42.550974" lon="-0.520740">
        <ele>884.617308</ele>
        <time>2019-08-22T11:10:29.135Z</time>
      </trkpt>
      <trkpt lat="42.550252" lon="-0.520360">
        <ele>881.446328</ele>
        <time>2019-08-22T11:10:36.492Z</time>
      </trkpt>
      <trkpt lat="42.550117" lon="-0.520288">
        <ele>880.852377</ele>
        <time>2019-08-22T11:10:37.900Z</time>
      </trkpt>
      <trkpt lat="42.549954" lon="-0.520146">
        <ele>880.059271</ele>
        <time>2019-08-22T11:10:39.772Z</time>
      </trkpt>
      <trkpt lat="42.549808" lon="-0.519881">
        <ele>879.061021</ele>
        <time>2019-08-22T11:10:42.180Z</time>
      </trkpt>
      <trkpt lat="42.548786" lon="-0.516088">
        <ele>872.508764</ele>
        <time>2019-08-22T11:11:14.103Z</time>
      </trkpt>
      <trkpt lat="42.548644" lon="-0.515726">
        <ele>872.208473</ele>
        <time>2019-08-22T11:11:17.815Z</time>
      </trkpt>
      <trkpt lat="42.548056" lon="-0.514770">
        <ele>872.293281</ele>
        <time>2019-08-22T11:11:32.469Z</time>
      </trkpt>
      <trkpt lat="42.547911" lon="-0.514534">
        <ele>872.947874</ele>
        <time>2019-08-22T11:11:37.692Z</time>
      </trkpt>
      <trkpt lat="42.547483" lon="-0.513634">
        <ele>875.229724</ele>
        <time>2019-08-22T11:11:58.226Z</time>
      </trkpt>
      <trkpt lat="42.547108" lon="-0.512663">
        <ele>878.302276</ele>
        <time>2019-08-22T11:12:25.980Z</time>
      </trkpt>
      <trkpt lat="42.546772" lon="-0.510701">
        <ele>886.484313</ele>
        <time>2019-08-22T11:13:20.761Z</time>
      </trkpt>
      <trkpt lat="42.546741" lon="-0.509987">
        <ele>890.098233</ele>
        <time>2019-08-22T11:13:42.922Z</time>
      </trkpt>
      <trkpt lat="42.546806" lon="-0.509348">
        <ele>893.400967</ele>
        <time>2019-08-22T11:14:03.088Z</time>
      </trkpt>
      <trkpt lat="42.546836" lon="-0.509043">
        <ele>894.976429</ele>
        <time>2019-08-22T11:14:13.501Z</time>
      </trkpt>
      <trkpt lat="42.546608" lon="-0.507867">
        <ele>901.060467</ele>
        <time>2019-08-22T11:14:53.498Z</time>
      </trkpt>
      <trkpt lat="42.546188" lon="-0.506581">
        <ele>907.759466</ele>
        <time>2019-08-22T11:15:36.619Z</time>
      </trkpt>
      <trkpt lat="42.545596" lon="-0.504850">
        <ele>915.733210</ele>
        <time>2019-08-22T11:16:27.311Z</time>
      </trkpt>
      <trkpt lat="42.544988" lon="-0.503162">
        <ele>922.841449</ele>
        <time>2019-08-22T11:17:16.699Z</time>
      </trkpt>
      <trkpt lat="42.544597" lon="-0.502427">
        <ele>926.118192</ele>
        <time>2019-08-22T11:17:40.077Z</time>
      </trkpt>
      <trkpt lat="42.544600" lon="-0.502287">
        <ele>926.624426</ele>
        <time>2019-08-22T11:17:43.943Z</time>
      </trkpt>
      <trkpt lat="42.544603" lon="-0.502113">
        <ele>927.253510</ele>
        <time>2019-08-22T11:17:48.190Z</time>
      </trkpt>
      <trkpt lat="42.544906" lon="-0.500916">
        <ele>930.748928</ele>
        <time>2019-08-22T11:18:18.472Z</time>
      </trkpt>
      <trkpt lat="42.545042" lon="-0.500373">
        <ele>932.000377</ele>
        <time>2019-08-22T11:18:30.936Z</time>
      </trkpt>
      <trkpt lat="42.545074" lon="-0.500182">
        <ele>932.427789</ele>
        <time>2019-08-22T11:18:34.400Z</time>
      </trkpt>
      <trkpt lat="42.545034" lon="-0.499913">
        <ele>933.026596</ele>
        <time>2019-08-22T11:18:39.339Z</time>
      </trkpt>
      <trkpt lat="42.544535" lon="-0.499159">
        <ele>934.207331</ele>
        <time>2019-08-22T11:18:54.643Z</time>
      </trkpt>
      <trkpt lat="42.544455" lon="-0.498877">
        <ele>934.023725</ele>
        <time>2019-08-22T11:18:58.690Z</time>
      </trkpt>
      <trkpt lat="42.544335" lon="-0.496934">
        <ele>932.412942</ele>
        <time>2019-08-22T11:19:15.600Z</time>
      </trkpt>
      <trkpt lat="42.544307" lon="-0.493921">
        <ele>922.823726</ele>
        <time>2019-08-22T11:19:36.897Z</time>
      </trkpt>
      <trkpt lat="42.544082" lon="-0.491930">
        <ele>914.909279</ele>
        <time>2019-08-22T11:19:50.775Z</time>
      </trkpt>
      <trkpt lat="42.543607" lon="-0.488903">
        <ele>900.508015</ele>
        <time>2019-08-22T11:20:11.615Z</time>
      </trkpt>
      <trkpt lat="42.543689" lon="-0.488687">
        <ele>899.308240</ele>
        <time>2019-08-22T11:20:13.199Z</time>
      </trkpt>
      <trkpt lat="42.544267" lon="-0.488045">
        <ele>894.302927</ele>
        <time>2019-08-22T11:20:19.864Z</time>
      </trkpt>
      <trkpt lat="42.544318" lon="-0.487854">
        <ele>893.299833</ele>
        <time>2019-08-22T11:20:21.228Z</time>
      </trkpt>
      <trkpt lat="42.544321" lon="-0.487578">
        <ele>892.624727</ele>
        <time>2019-08-22T11:20:23.119Z</time>
      </trkpt>
      <trkpt lat="42.544179" lon="-0.486801">
        <ele>890.686362</ele>
        <time>2019-08-22T11:20:28.643Z</time>
      </trkpt>
      <trkpt lat="42.543868" lon="-0.485548">
        <ele>887.484927</ele>
        <time>2019-08-22T11:20:38.777Z</time>
      </trkpt>
      <trkpt lat="42.543784" lon="-0.484200">
        <ele>891.166947</ele>
        <time>2019-08-22T11:21:08.178Z</time>
      </trkpt>
      <trkpt lat="42.543049" lon="-0.483996">
        <ele>894.119461</ele>
        <time>2019-08-22T11:21:36.449Z</time>
      </trkpt>
      <trkpt lat="42.542771" lon="-0.483707">
        <ele>895.839587</ele>
        <time>2019-08-22T11:21:50.397Z</time>
      </trkpt>
      <trkpt lat="42.542662" lon="-0.483364">
        <ele>897.277731</ele>
        <time>2019-08-22T11:22:02.124Z</time>
      </trkpt>
      <trkpt lat="42.541521" lon="-0.480066">
        <ele>910.110405</ele>
        <time>2019-08-22T11:23:32.843Z</time>
      </trkpt>
      <trkpt lat="42.541464" lon="-0.479630">
        <ele>911.541905</ele>
        <time>2019-08-22T11:23:41.896Z</time>
      </trkpt>
      <trkpt lat="42.541008" lon="-0.478043">
        <ele>915.894821</ele>
        <time>2019-08-22T11:24:17.574Z</time>
      </trkpt>
      <trkpt lat="42.540989" lon="-0.477631">
        <ele>916.939022</ele>
        <time>2019-08-22T11:24:26.260Z</time>
      </trkpt>
      <trkpt lat="42.540753" lon="-0.476888">
        <ele>918.819129</ele>
        <time>2019-08-22T11:24:43.089Z</time>
      </trkpt>
      <trkpt lat="42.540642" lon="-0.476453">
        <ele>919.801668</ele>
        <time>2019-08-22T11:24:52.540Z</time>
      </trkpt>
      <trkpt lat="42.540344" lon="-0.474459">
        <ele>923.211994</ele>
        <time>2019-08-22T11:25:31.771Z</time>
      </trkpt>
      <trkpt lat="42.540156" lon="-0.473244">
        <ele>923.426245</ele>
        <time>2019-08-22T11:25:47.386Z</time>
      </trkpt>
      <trkpt lat="42.540150" lon="-0.472911">
        <ele>923.483730</ele>
        <time>2019-08-22T11:25:51.811Z</time>
      </trkpt>
      <trkpt lat="42.538678" lon="-0.465203">
        <ele>908.605655</ele>
        <time>2019-08-22T11:27:19.742Z</time>
      </trkpt>
      <trkpt lat="42.538091" lon="-0.462140">
        <ele>903.659431</ele>
        <time>2019-08-22T11:27:56.343Z</time>
      </trkpt>
      <trkpt lat="42.537466" lon="-0.458786">
        <ele>898.523510</ele>
        <time>2019-08-22T11:28:36.859Z</time>
      </trkpt>
      <trkpt lat="42.536918" lon="-0.456685">
        <ele>894.620091</ele>
        <time>2019-08-22T11:29:01.998Z</time>
      </trkpt>
      <trkpt lat="42.536183" lon="-0.452859">
        <ele>887.412495</ele>
        <time>2019-08-22T11:29:46.134Z</time>
      </trkpt>
      <trkpt lat="42.535481" lon="-0.450421">
        <ele>883.350390</ele>
        <time>2019-08-22T11:30:16.890Z</time>
      </trkpt>
      <trkpt lat="42.535154" lon="-0.448872">
        <ele>880.815461</ele>
        <time>2019-08-22T11:30:35.418Z</time>
      </trkpt>
      <trkpt lat="42.534325" lon="-0.445114">
        <ele>873.284380</ele>
        <time>2019-08-22T11:31:18.788Z</time>
      </trkpt>
      <trkpt lat="42.533756" lon="-0.442472">
        <ele>869.163190</ele>
        <time>2019-08-22T11:31:50.587Z</time>
      </trkpt>
      <trkpt lat="42.533373" lon="-0.439743">
        <ele>866.525199</ele>
        <time>2019-08-22T11:32:26.263Z</time>
      </trkpt>
      <trkpt lat="42.533287" lon="-0.439003">
        <ele>865.475978</ele>
        <time>2019-08-22T11:32:35.220Z</time>
      </trkpt>
      <trkpt lat="42.533160" lon="-0.438322">
        <ele>864.425777</ele>
        <time>2019-08-22T11:32:43.297Z</time>
      </trkpt>
      <trkpt lat="42.532995" lon="-0.437788">
        <ele>863.560096</ele>
        <time>2019-08-22T11:32:49.820Z</time>
      </trkpt>
      <trkpt lat="42.532498" lon="-0.436497">
        <ele>861.992819</ele>
        <time>2019-08-22T11:33:06.294Z</time>
      </trkpt>
      <trkpt lat="42.532184" lon="-0.435456">
        <ele>861.047020</ele>
        <time>2019-08-22T11:33:20.838Z</time>
      </trkpt>
      <trkpt lat="42.532027" lon="-0.434932">
        <ele>860.843694</ele>
        <time>2019-08-22T11:33:30.041Z</time>
      </trkpt>
      <trkpt lat="42.531975" lon="-0.433391">
        <ele>861.847312</ele>
        <time>2019-08-22T11:33:58.915Z</time>
      </trkpt>
      <trkpt lat="42.531970" lon="-0.433246">
        <ele>861.941751</ele>
        <time>2019-08-22T11:34:01.199Z</time>
      </trkpt>
      <trkpt lat="42.531740" lon="-0.431945">
        <ele>861.958685</ele>
        <time>2019-08-22T11:34:18.127Z</time>
      </trkpt>
      <trkpt lat="42.531565" lon="-0.431086">
        <ele>861.547339</ele>
        <time>2019-08-22T11:34:26.691Z</time>
      </trkpt>
      <trkpt lat="42.531227" lon="-0.429666">
        <ele>859.892156</ele>
        <time>2019-08-22T11:34:38.938Z</time>
      </trkpt>
      <trkpt lat="42.530989" lon="-0.428669">
        <ele>857.982107</ele>
        <time>2019-08-22T11:34:47.064Z</time>
      </trkpt>
      <trkpt lat="42.530129" lon="-0.425989">
        <ele>851.853002</ele>
        <time>2019-08-22T11:35:09.147Z</time>
      </trkpt>
      <trkpt lat="42.529636" lon="-0.424453">
        <ele>849.037315</ele>
        <time>2019-08-22T11:35:22.194Z</time>
      </trkpt>
      <trkpt lat="42.526810" lon="-0.412391">
        <ele>834.051084</ele>
        <time>2019-08-22T11:37:08.885Z</time>
      </trkpt>
      <trkpt lat="42.525884" lon="-0.408772">
        <ele>831.711301</ele>
        <time>2019-08-22T11:37:44.098Z</time>
      </trkpt>
      <trkpt lat="42.525844" lon="-0.408560">
        <ele>831.669318</ele>
        <time>2019-08-22T11:37:46.299Z</time>
      </trkpt>
      <trkpt lat="42.525375" lon="-0.406574">
        <ele>830.442117</ele>
        <time>2019-08-22T11:38:10.624Z</time>
      </trkpt>
      <trkpt lat="42.525307" lon="-0.406289">
        <ele>830.050649</ele>
        <time>2019-08-22T11:38:13.371Z</time>
      </trkpt>
      <trkpt lat="42.525198" lon="-0.406005">
        <ele>829.632209</ele>
        <time>2019-08-22T11:38:15.948Z</time>
      </trkpt>
      <trkpt lat="42.525075" lon="-0.405216">
        <ele>828.578333</ele>
        <time>2019-08-22T11:38:22.107Z</time>
      </trkpt>
      <trkpt lat="42.525071" lon="-0.405187">
        <ele>828.539777</ele>
        <time>2019-08-22T11:38:22.322Z</time>
      </trkpt>
      <trkpt lat="42.524851" lon="-0.405157">
        <ele>828.036908</ele>
        <time>2019-08-22T11:38:24.453Z</time>
      </trkpt>
      <trkpt lat="42.524522" lon="-0.404909">
        <ele>826.377332</ele>
        <time>2019-08-22T11:38:28.166Z</time>
      </trkpt>
      <trkpt lat="42.524453" lon="-0.404847">
        <ele>826.012407</ele>
        <time>2019-08-22T11:38:29.075Z</time>
      </trkpt>
      <trkpt lat="42.524380" lon="-0.404786">
        <ele>825.634365</ele>
        <time>2019-08-22T11:38:29.870Z</time>
      </trkpt>
      <trkpt lat="42.524309" lon="-0.404798">
        <ele>825.318868</ele>
        <time>2019-08-22T11:38:30.553Z</time>
      </trkpt>
      <trkpt lat="42.524268" lon="-0.404806">
        <ele>825.136217</ele>
        <time>2019-08-22T11:38:30.919Z</time>
      </trkpt>
      <trkpt lat="42.523648" lon="-0.404112">
        <ele>821.592067</ele>
        <time>2019-08-22T11:38:38.502Z</time>
      </trkpt>
      <trkpt lat="42.523002" lon="-0.402989">
        <ele>817.998743</ele>
        <time>2019-08-22T11:38:48.716Z</time>
      </trkpt>
      <trkpt lat="42.522646" lon="-0.402146">
        <ele>815.824285</ele>
        <time>2019-08-22T11:38:56.370Z</time>
      </trkpt>
      <trkpt lat="42.522496" lon="-0.401273">
        <ele>814.319211</ele>
        <time>2019-08-22T11:39:03.684Z</time>
      </trkpt>
      <trkpt lat="42.522362" lon="-0.400884">
        <ele>813.834537</ele>
        <time>2019-08-22T11:39:07.286Z</time>
      </trkpt>
      <trkpt lat="42.521958" lon="-0.400115">
        <ele>812.768578</ele>
        <time>2019-08-22T11:39:15.384Z</time>
      </trkpt>
      <trkpt lat="42.521012" lon="-0.397442">
        <ele>810.050752</ele>
        <time>2019-08-22T11:39:41.566Z</time>
      </trkpt>
      <trkpt lat="42.520949" lon="-0.396849">
        <ele>809.540885</ele>
        <time>2019-08-22T11:39:46.937Z</time>
      </trkpt>
      <trkpt lat="42.520960" lon="-0.396163">
        <ele>808.958174</ele>
        <time>2019-08-22T11:39:53.091Z</time>
      </trkpt>
      <trkpt lat="42.520825" lon="-0.395440">
        <ele>808.324780</ele>
        <time>2019-08-22T11:39:59.699Z</time>
      </trkpt>
      <trkpt lat="42.520884" lon="-0.394353">
        <ele>807.186105</ele>
        <time>2019-08-22T11:40:09.173Z</time>
      </trkpt>
      <trkpt lat="42.520075" lon="-0.392923">
        <ele>805.004817</ele>
        <time>2019-08-22T11:40:24.141Z</time>
      </trkpt>
      <trkpt lat="42.519151" lon="-0.390532">
        <ele>800.990444</ele>
        <time>2019-08-22T11:40:45.911Z</time>
      </trkpt>
      <trkpt lat="42.518643" lon="-0.389793">
        <ele>799.680161</ele>
        <time>2019-08-22T11:40:54.154Z</time>
      </trkpt>
      <trkpt lat="42.518427" lon="-0.389385">
        <ele>799.028803</ele>
        <time>2019-08-22T11:40:58.313Z</time>
      </trkpt>
      <trkpt lat="42.518081" lon="-0.388154">
        <ele>797.486900</ele>
        <time>2019-08-22T11:41:09.463Z</time>
      </trkpt>
      <trkpt lat="42.517136" lon="-0.386052">
        <ele>795.016371</ele>
        <time>2019-08-22T11:41:30.897Z</time>
      </trkpt>
      <trkpt lat="42.516771" lon="-0.384750">
        <ele>793.688321</ele>
        <time>2019-08-22T11:41:43.035Z</time>
      </trkpt>
      <trkpt lat="42.516735" lon="-0.383859">
        <ele>792.883476</ele>
        <time>2019-08-22T11:41:50.811Z</time>
      </trkpt>
      <trkpt lat="42.516328" lon="-0.382776">
        <ele>791.843387</ele>
        <time>2019-08-22T11:42:01.496Z</time>
      </trkpt>
      <trkpt lat="42.516126" lon="-0.381470">
        <ele>790.821176</ele>
        <time>2019-08-22T11:42:13.471Z</time>
      </trkpt>
      <trkpt lat="42.515752" lon="-0.380586">
        <ele>790.159461</ele>
        <time>2019-08-22T11:42:22.884Z</time>
      </trkpt>
      <trkpt lat="42.515750" lon="-0.379951">
        <ele>789.747211</ele>
        <time>2019-08-22T11:42:28.850Z</time>
      </trkpt>
      <trkpt lat="42.515373" lon="-0.378714">
        <ele>788.956328</ele>
        <time>2019-08-22T11:42:41.428Z</time>
      </trkpt>
      <trkpt lat="42.514835" lon="-0.378450">
        <ele>788.506011</ele>
        <time>2019-08-22T11:42:48.555Z</time>
      </trkpt>
      <trkpt lat="42.514628" lon="-0.378099">
        <ele>788.245208</ele>
        <time>2019-08-22T11:42:52.703Z</time>
      </trkpt>
      <trkpt lat="42.514613" lon="-0.377745">
        <ele>788.289666</ele>
        <time>2019-08-22T11:42:56.121Z</time>
      </trkpt>
      <trkpt lat="42.514609" lon="-0.377646">
        <ele>788.323377</ele>
        <time>2019-08-22T11:42:56.941Z</time>
      </trkpt>
      <trkpt lat="42.514616" lon="-0.376708">
        <ele>788.642314</ele>
        <time>2019-08-22T11:43:05.637Z</time>
      </trkpt>
      <trkpt lat="42.514501" lon="-0.376159">
        <ele>788.836365</ele>
        <time>2019-08-22T11:43:12.600Z</time>
      </trkpt>
      <trkpt lat="42.514459" lon="-0.375653">
        <ele>789.009493</ele>
        <time>2019-08-22T11:43:22.275Z</time>
      </trkpt>
      <trkpt lat="42.514387" lon="-0.375416">
        <ele>789.925514</ele>
        <time>2019-08-22T11:43:26.507Z</time>
      </trkpt>
      <trkpt lat="42.514251" lon="-0.374965">
        <ele>792.059345</ele>
        <time>2019-08-22T11:43:37.695Z</time>
      </trkpt>
      <trkpt lat="42.514510" lon="-0.374684">
        <ele>794.029549</ele>
        <time>2019-08-22T11:43:49.578Z</time>
      </trkpt>
      <trkpt lat="42.514748" lon="-0.374260">
        <ele>796.363334</ele>
        <time>2019-08-22T11:44:05.055Z</time>
      </trkpt>
      <trkpt lat="42.514790" lon="-0.374185">
        <ele>796.775793</ele>
        <time>2019-08-22T11:44:08.063Z</time>
      </trkpt>
      <trkpt lat="42.514810" lon="-0.374150">
        <ele>796.969720</ele>
        <time>2019-08-22T11:44:10.883Z</time>
      </trkpt>
      <trkpt lat="42.514875" lon="-0.374019">
        <ele>797.661234</ele>
        <time>2019-08-22T11:44:15.405Z</time>
      </trkpt>
      <trkpt lat="42.514949" lon="-0.373613">
        <ele>799.492661</ele>
        <time>2019-08-22T11:44:30.052Z</time>
      </trkpt>
      <trkpt lat="42.515022" lon="-0.373561">
        <ele>800.228116</ele>
        <time>2019-08-22T11:44:33.686Z</time>
      </trkpt>
      <trkpt lat="42.515171" lon="-0.373585">
        <ele>801.930058</ele>
        <time>2019-08-22T11:44:40.552Z</time>
      </trkpt>
      <trkpt lat="42.515236" lon="-0.373683">
        <ele>803.032292</ele>
        <time>2019-08-22T11:44:46.749Z</time>
      </trkpt>
      <trkpt lat="42.515367" lon="-0.374380">
        <ele>809.046169</ele>
        <time>2019-08-22T11:45:20.580Z</time>
      </trkpt>
      <trkpt lat="42.515479" lon="-0.374635">
        <ele>811.527947</ele>
        <time>2019-08-22T11:45:35.884Z</time>
      </trkpt>
      <trkpt lat="42.515698" lon="-0.374809">
        <ele>814.406644</ele>
        <time>2019-08-22T11:45:54.030Z</time>
      </trkpt>
      <trkpt lat="42.516132" lon="-0.374966">
        <ele>819.501400</ele>
        <time>2019-08-22T11:46:22.157Z</time>
      </trkpt>
      <trkpt lat="42.516227" lon="-0.374950">
        <ele>820.309030</ele>
        <time>2019-08-22T11:46:26.990Z</time>
      </trkpt>
      <trkpt lat="42.516324" lon="-0.374883">
        <ele>820.817942</ele>
        <time>2019-08-22T11:46:35.910Z</time>
      </trkpt>
      <trkpt lat="42.517114" lon="-0.374325">
        <ele>824.982132</ele>
        <time>2019-08-22T11:47:19.335Z</time>
      </trkpt>
      <trkpt lat="42.517276" lon="-0.374212">
        <ele>825.833796</ele>
        <time>2019-08-22T11:47:27.143Z</time>
      </trkpt>
      <trkpt lat="42.517316" lon="-0.374186">
        <ele>826.041170</ele>
        <time>2019-08-22T11:47:28.573Z</time>
      </trkpt>
      <trkpt lat="42.517345" lon="-0.374180">
        <ele>826.178325</ele>
        <time>2019-08-22T11:47:28.907Z</time>
      </trkpt>
      <trkpt lat="42.517722" lon="-0.374237">
        <ele>827.951878</ele>
        <time>2019-08-22T11:47:34.626Z</time>
      </trkpt>
      <trkpt lat="42.517778" lon="-0.374199">
        <ele>828.244625</ele>
        <time>2019-08-22T11:47:35.193Z</time>
      </trkpt>
      <trkpt lat="42.518041" lon="-0.373951">
        <ele>826.113325</ele>
        <time>2019-08-22T11:47:38.272Z</time>
      </trkpt>
      <trkpt lat="42.518148" lon="-0.373744">
        <ele>824.390305</ele>
        <time>2019-08-22T11:47:39.885Z</time>
      </trkpt>
      <trkpt lat="42.518164" lon="-0.373295">
        <ele>821.326840</ele>
        <time>2019-08-22T11:47:42.763Z</time>
      </trkpt>
      <trkpt lat="42.518265" lon="-0.373078">
        <ele>819.577836</ele>
        <time>2019-08-22T11:47:44.441Z</time>
      </trkpt>
      <trkpt lat="42.518328" lon="-0.373072">
        <ele>818.993903</ele>
        <time>2019-08-22T11:47:44.962Z</time>
      </trkpt>
      <trkpt lat="42.518383" lon="-0.373092">
        <ele>818.467424</ele>
        <time>2019-08-22T11:47:45.427Z</time>
      </trkpt>
      <trkpt lat="42.518538" lon="-0.373170">
        <ele>816.938886</ele>
        <time>2019-08-22T11:47:46.897Z</time>
      </trkpt>
      <trkpt lat="42.518606" lon="-0.373037">
        <ele>815.835792</ele>
        <time>2019-08-22T11:47:47.911Z</time>
      </trkpt>
      <trkpt lat="42.518330" lon="-0.371198">
        <ele>801.883401</ele>
        <time>2019-08-22T11:47:59.573Z</time>
      </trkpt>
      <trkpt lat="42.518189" lon="-0.370510">
        <ele>796.377326</ele>
        <time>2019-08-22T11:48:04.208Z</time>
      </trkpt>
      <trkpt lat="42.518182" lon="-0.370444">
        <ele>795.863191</ele>
        <time>2019-08-22T11:48:04.617Z</time>
      </trkpt>
      <trkpt lat="42.518204" lon="-0.370406">
        <ele>795.490611</ele>
        <time>2019-08-22T11:48:04.924Z</time>
      </trkpt>
      <trkpt lat="42.518285" lon="-0.370340">
        <ele>794.502190</ele>
        <time>2019-08-22T11:48:05.775Z</time>
      </trkpt>
      <trkpt lat="42.518520" lon="-0.370135">
        <ele>792.452201</ele>
        <time>2019-08-22T11:48:08.265Z</time>
      </trkpt>
      <trkpt lat="42.518573" lon="-0.370088">
        <ele>792.175772</ele>
        <time>2019-08-22T11:48:08.852Z</time>
      </trkpt>
      <trkpt lat="42.518621" lon="-0.370061">
        <ele>791.948918</ele>
        <time>2019-08-22T11:48:09.343Z</time>
      </trkpt>
      <trkpt lat="42.518770" lon="-0.369975">
        <ele>791.242000</ele>
        <time>2019-08-22T11:48:10.841Z</time>
      </trkpt>
      <trkpt lat="42.518882" lon="-0.369912">
        <ele>790.712675</ele>
        <time>2019-08-22T11:48:11.912Z</time>
      </trkpt>
      <trkpt lat="42.519038" lon="-0.369808">
        <ele>789.953835</ele>
        <time>2019-08-22T11:48:13.609Z</time>
      </trkpt>
      <trkpt lat="42.519075" lon="-0.369791">
        <ele>789.783290</ele>
        <time>2019-08-22T11:48:13.997Z</time>
      </trkpt>
      <trkpt lat="42.519392" lon="-0.370395">
        <ele>787.397349</ele>
        <time>2019-08-22T11:48:19.107Z</time>
      </trkpt>
      <trkpt lat="42.519421" lon="-0.370375">
        <ele>787.255324</ele>
        <time>2019-08-22T11:48:19.450Z</time>
      </trkpt>
      <trkpt lat="42.519405" lon="-0.370336">
        <ele>787.111699</ele>
        <time>2019-08-22T11:48:19.800Z</time>
      </trkpt>
      <trkpt lat="42.519150" lon="-0.369672">
        <ele>785.336014</ele>
        <time>2019-08-22T11:48:26.506Z</time>
      </trkpt>
      <trkpt lat="42.518920" lon="-0.369052">
        <ele>785.811657</ele>
        <time>2019-08-22T11:48:36.379Z</time>
      </trkpt>
      <trkpt lat="42.518894" lon="-0.368984">
        <ele>785.864152</ele>
        <time>2019-08-22T11:48:37.420Z</time>
      </trkpt>
      <trkpt lat="42.518468" lon="-0.367843">
        <ele>786.740635</ele>
        <time>2019-08-22T11:48:56.039Z</time>
      </trkpt>
      <trkpt lat="42.518237" lon="-0.367202">
        <ele>787.628368</ele>
        <time>2019-08-22T11:49:08.937Z</time>
      </trkpt>
      <trkpt lat="42.518198" lon="-0.367008">
        <ele>787.931411</ele>
        <time>2019-08-22T11:49:12.700Z</time>
      </trkpt>
      <trkpt lat="42.518230" lon="-0.366318">
        <ele>788.973319</ele>
        <time>2019-08-22T11:49:26.287Z</time>
      </trkpt>
      <trkpt lat="42.518245" lon="-0.366016">
        <ele>789.429475</ele>
        <time>2019-08-22T11:49:31.726Z</time>
      </trkpt>
      <trkpt lat="42.518256" lon="-0.365772">
        <ele>789.797877</ele>
        <time>2019-08-22T11:49:35.481Z</time>
      </trkpt>
      <trkpt lat="42.518270" lon="-0.365507">
        <ele>790.198265</ele>
        <time>2019-08-22T11:49:39.436Z</time>
      </trkpt>
      <trkpt lat="42.518281" lon="-0.365270">
        <ele>790.556138</ele>
        <time>2019-08-22T11:49:42.791Z</time>
      </trkpt>
      <trkpt lat="42.518308" lon="-0.364824">
        <ele>790.357664</ele>
        <time>2019-08-22T11:49:49.148Z</time>
      </trkpt>
      <trkpt lat="42.518324" lon="-0.364571">
        <ele>790.231081</ele>
        <time>2019-08-22T11:49:52.332Z</time>
      </trkpt>
      <trkpt lat="42.518325" lon="-0.364552">
        <ele>790.221585</ele>
        <time>2019-08-22T11:49:52.689Z</time>
      </trkpt>
      <trkpt lat="42.518303" lon="-0.364369">
        <ele>790.129155</ele>
        <time>2019-08-22T11:49:55.036Z</time>
      </trkpt>
      <trkpt lat="42.518269" lon="-0.364293">
        <ele>790.084836</ele>
        <time>2019-08-22T11:49:55.920Z</time>
      </trkpt>
      <trkpt lat="42.518235" lon="-0.364212">
        <ele>790.038369</ele>
        <time>2019-08-22T11:49:56.913Z</time>
      </trkpt>
      <trkpt lat="42.518220" lon="-0.364175">
        <ele>790.017319</ele>
        <time>2019-08-22T11:49:57.307Z</time>
      </trkpt>
      <trkpt lat="42.518194" lon="-0.364151">
        <ele>789.996050</ele>
        <time>2019-08-22T11:49:57.709Z</time>
      </trkpt>
      <trkpt lat="42.518174" lon="-0.364117">
        <ele>789.974365</ele>
        <time>2019-08-22T11:49:58.207Z</time>
      </trkpt>
      <trkpt lat="42.518108" lon="-0.364083">
        <ele>789.926618</ele>
        <time>2019-08-22T11:49:59.092Z</time>
      </trkpt>
      <trkpt lat="42.518062" lon="-0.364064">
        <ele>789.894097</ele>
        <time>2019-08-22T11:49:59.700Z</time>
      </trkpt>
      <trkpt lat="42.517954" lon="-0.364023">
        <ele>789.818248</ele>
        <time>2019-08-22T11:50:01.059Z</time>
      </trkpt>
      <trkpt lat="42.517850" lon="-0.364004">
        <ele>789.747274</ele>
        <time>2019-08-22T11:50:02.276Z</time>
      </trkpt>
      <trkpt lat="42.517826" lon="-0.364000">
        <ele>789.730920</ele>
        <time>2019-08-22T11:50:02.576Z</time>
      </trkpt>
      <trkpt lat="42.517510" lon="-0.363932">
        <ele>789.514528</ele>
        <time>2019-08-22T11:50:06.089Z</time>
      </trkpt>
      <trkpt lat="42.517397" lon="-0.363908">
        <ele>789.437172</ele>
        <time>2019-08-22T11:50:07.290Z</time>
      </trkpt>
      <trkpt lat="42.517379" lon="-0.363904">
        <ele>789.424836</ele>
        <time>2019-08-22T11:50:07.480Z</time>
      </trkpt>
      <trkpt lat="42.517344" lon="-0.363896">
        <ele>789.400831</ele>
        <time>2019-08-22T11:50:07.881Z</time>
      </trkpt>
      <trkpt lat="42.517297" lon="-0.363887">
        <ele>789.368728</ele>
        <time>2019-08-22T11:50:08.390Z</time>
      </trkpt>
      <trkpt lat="42.517292" lon="-0.363885">
        <ele>789.365202</ele>
        <time>2019-08-22T11:50:08.443Z</time>
      </trkpt>
      <trkpt lat="42.517128" lon="-0.363851">
        <ele>788.957128</ele>
        <time>2019-08-22T11:50:10.131Z</time>
      </trkpt>
      <trkpt lat="42.516945" lon="-0.363779">
        <ele>788.465662</ele>
        <time>2019-08-22T11:50:12.093Z</time>
      </trkpt>
      <trkpt lat="42.516864" lon="-0.363732">
        <ele>788.238429</ele>
        <time>2019-08-22T11:50:12.977Z</time>
      </trkpt>
      <trkpt lat="42.516754" lon="-0.363645">
        <ele>787.910010</ele>
        <time>2019-08-22T11:50:14.230Z</time>
      </trkpt>
      <trkpt lat="42.516701" lon="-0.363590">
        <ele>787.737900</ele>
        <time>2019-08-22T11:50:14.880Z</time>
      </trkpt>
      <trkpt lat="42.516547" lon="-0.363422">
        <ele>787.228197</ele>
        <time>2019-08-22T11:50:16.907Z</time>
      </trkpt>
      <trkpt lat="42.516462" lon="-0.363310">
        <ele>786.922569</ele>
        <time>2019-08-22T11:50:18.132Z</time>
      </trkpt>
      <trkpt lat="42.516106" lon="-0.362841">
        <ele>785.642636</ele>
        <time>2019-08-22T11:50:23.525Z</time>
      </trkpt>
      <trkpt lat="42.516026" lon="-0.362737">
        <ele>785.356849</ele>
        <time>2019-08-22T11:50:24.699Z</time>
      </trkpt>
      <trkpt lat="42.515586" lon="-0.362161">
        <ele>783.973264</ele>
        <time>2019-08-22T11:50:31.269Z</time>
      </trkpt>
      <trkpt lat="42.515358" lon="-0.361864">
        <ele>783.325982</ele>
        <time>2019-08-22T11:50:34.741Z</time>
      </trkpt>
      <trkpt lat="42.515288" lon="-0.361772">
        <ele>783.126400</ele>
        <time>2019-08-22T11:50:35.809Z</time>
      </trkpt>
      <trkpt lat="42.515098" lon="-0.361525">
        <ele>782.587519</ele>
        <time>2019-08-22T11:50:38.705Z</time>
      </trkpt>
      <trkpt lat="42.514995" lon="-0.361390">
        <ele>782.294238</ele>
        <time>2019-08-22T11:50:40.280Z</time>
      </trkpt>
      <trkpt lat="42.514743" lon="-0.361058">
        <ele>781.574899</ele>
        <time>2019-08-22T11:50:44.145Z</time>
      </trkpt>
      <trkpt lat="42.514606" lon="-0.360878">
        <ele>781.184347</ele>
        <time>2019-08-22T11:50:46.229Z</time>
      </trkpt>
      <trkpt lat="42.514483" lon="-0.360716">
        <ele>780.882053</ele>
        <time>2019-08-22T11:50:48.152Z</time>
      </trkpt>
      <trkpt lat="42.514376" lon="-0.360575">
        <ele>780.650232</ele>
        <time>2019-08-22T11:50:49.792Z</time>
      </trkpt>
      <trkpt lat="42.514171" lon="-0.360305">
        <ele>780.206202</ele>
        <time>2019-08-22T11:50:53.037Z</time>
      </trkpt>
      <trkpt lat="42.514151" lon="-0.360279">
        <ele>780.163154</ele>
        <time>2019-08-22T11:50:53.356Z</time>
      </trkpt>
      <trkpt lat="42.514144" lon="-0.360270">
        <ele>780.148166</ele>
        <time>2019-08-22T11:50:53.444Z</time>
      </trkpt>
      <trkpt lat="42.514062" lon="-0.360226">
        <ele>780.011124</ele>
        <time>2019-08-22T11:50:54.440Z</time>
      </trkpt>
      <trkpt lat="42.514033" lon="-0.360236">
        <ele>779.964622</ele>
        <time>2019-08-22T11:50:54.757Z</time>
      </trkpt>
      <trkpt lat="42.513954" lon="-0.360190">
        <ele>779.831018</ele>
        <time>2019-08-22T11:50:55.772Z</time>
      </trkpt>
      <trkpt lat="42.513934" lon="-0.360116">
        <ele>779.740729</ele>
        <time>2019-08-22T11:50:56.527Z</time>
      </trkpt>
      <trkpt lat="42.513937" lon="-0.360076">
        <ele>779.694671</ele>
        <time>2019-08-22T11:50:56.861Z</time>
      </trkpt>
      <trkpt lat="42.513888" lon="-0.359914">
        <ele>779.494076</ele>
        <time>2019-08-22T11:50:58.336Z</time>
      </trkpt>
      <trkpt lat="42.513553" lon="-0.359461">
        <ele>778.758999</ele>
        <time>2019-08-22T11:51:03.927Z</time>
      </trkpt>
      <trkpt lat="42.513271" lon="-0.359100">
        <ele>778.092093</ele>
        <time>2019-08-22T11:51:08.624Z</time>
      </trkpt>
      <trkpt lat="42.513213" lon="-0.359017">
        <ele>777.860544</ele>
        <time>2019-08-22T11:51:09.729Z</time>
      </trkpt>
      <trkpt lat="42.513195" lon="-0.358994">
        <ele>777.792628</ele>
        <time>2019-08-22T11:51:10.032Z</time>
      </trkpt>
      <trkpt lat="42.512506" lon="-0.357903">
        <ele>774.883990</ele>
        <time>2019-08-22T11:51:21.233Z</time>
      </trkpt>
      <trkpt lat="42.512229" lon="-0.357465">
        <ele>773.715568</ele>
        <time>2019-08-22T11:51:25.328Z</time>
      </trkpt>
      <trkpt lat="42.512050" lon="-0.357161">
        <ele>773.015356</ele>
        <time>2019-08-22T11:51:28.272Z</time>
      </trkpt>
      <trkpt lat="42.511985" lon="-0.357067">
        <ele>772.815762</ele>
        <time>2019-08-22T11:51:29.105Z</time>
      </trkpt>
      <trkpt lat="42.511596" lon="-0.356558">
        <ele>771.680332</ele>
        <time>2019-08-22T11:51:34.829Z</time>
      </trkpt>
      <trkpt lat="42.511259" lon="-0.356272">
        <ele>770.845220</ele>
        <time>2019-08-22T11:51:39.309Z</time>
      </trkpt>
      <trkpt lat="42.511059" lon="-0.356163">
        <ele>770.392410</ele>
        <time>2019-08-22T11:51:41.451Z</time>
      </trkpt>
      <trkpt lat="42.510751" lon="-0.356067">
        <ele>769.728488</ele>
        <time>2019-08-22T11:51:45.204Z</time>
      </trkpt>
      <trkpt lat="42.510587" lon="-0.356042">
        <ele>769.614102</ele>
        <time>2019-08-22T11:51:48.866Z</time>
      </trkpt>
      <trkpt lat="42.510246" lon="-0.356063">
        <ele>770.090008</ele>
        <time>2019-08-22T11:51:54.631Z</time>
      </trkpt>
      <trkpt lat="42.510085" lon="-0.356112">
        <ele>770.320051</ele>
        <time>2019-08-22T11:51:57.509Z</time>
      </trkpt>
      <trkpt lat="42.509964" lon="-0.356158">
        <ele>770.495246</ele>
        <time>2019-08-22T11:51:59.498Z</time>
      </trkpt>
      <trkpt lat="42.509851" lon="-0.356212">
        <ele>770.662278</ele>
        <time>2019-08-22T11:52:02.974Z</time>
      </trkpt>
      <trkpt lat="42.509782" lon="-0.356248">
        <ele>770.765346</ele>
        <time>2019-08-22T11:52:04.050Z</time>
      </trkpt>
      <trkpt lat="42.509574" lon="-0.356370">
        <ele>771.081281</ele>
        <time>2019-08-22T11:52:08.897Z</time>
      </trkpt>
      <trkpt lat="42.509050" lon="-0.356685">
        <ele>771.880351</ele>
        <time>2019-08-22T11:52:23.701Z</time>
      </trkpt>
      <trkpt lat="42.508976" lon="-0.356730">
        <ele>771.993412</ele>
        <time>2019-08-22T11:52:25.358Z</time>
      </trkpt>
      <trkpt lat="42.508931" lon="-0.356757">
        <ele>772.093857</ele>
        <time>2019-08-22T11:52:26.537Z</time>
      </trkpt>
      <trkpt lat="42.508837" lon="-0.356813">
        <ele>772.375316</ele>
        <time>2019-08-22T11:52:29.094Z</time>
      </trkpt>
      <trkpt lat="42.508810" lon="-0.356829">
        <ele>772.456092</ele>
        <time>2019-08-22T11:52:29.813Z</time>
      </trkpt>
      <trkpt lat="42.508771" lon="-0.356850">
        <ele>772.571127</ele>
        <time>2019-08-22T11:52:30.935Z</time>
      </trkpt>
      <trkpt lat="42.508604" lon="-0.356941">
        <ele>773.064519</ele>
        <time>2019-08-22T11:52:35.249Z</time>
      </trkpt>
      <trkpt lat="42.508440" lon="-0.357034">
        <ele>773.551833</ele>
        <time>2019-08-22T11:52:39.355Z</time>
      </trkpt>
      <trkpt lat="42.508354" lon="-0.357082">
        <ele>773.806781</ele>
        <time>2019-08-22T11:52:41.568Z</time>
      </trkpt>
      <trkpt lat="42.508223" lon="-0.357155">
        <ele>774.195043</ele>
        <time>2019-08-22T11:52:44.853Z</time>
      </trkpt>
      <trkpt lat="42.508165" lon="-0.357187">
        <ele>774.366700</ele>
        <time>2019-08-22T11:52:46.244Z</time>
      </trkpt>
      <trkpt lat="42.508085" lon="-0.357134">
        <ele>774.610781</ele>
        <time>2019-08-22T11:52:48.425Z</time>
      </trkpt>
      <trkpt lat="42.508029" lon="-0.357074">
        <ele>774.806419</ele>
        <time>2019-08-22T11:52:50.129Z</time>
      </trkpt>
      <trkpt lat="42.507977" lon="-0.356906">
        <ele>775.174662</ele>
        <time>2019-08-22T11:52:53.366Z</time>
      </trkpt>
      <trkpt lat="42.507869" lon="-0.356730">
        <ele>775.637465</ele>
        <time>2019-08-22T11:52:57.927Z</time>
      </trkpt>
      <trkpt lat="42.507729" lon="-0.356480">
        <ele>776.271968</ele>
        <time>2019-08-22T11:53:04.282Z</time>
      </trkpt>
      <trkpt lat="42.507286" lon="-0.355682">
        <ele>778.597780</ele>
        <time>2019-08-22T11:53:26.351Z</time>
      </trkpt>
      <trkpt lat="42.506863" lon="-0.354839">
        <ele>781.134001</ele>
        <time>2019-08-22T11:53:49.929Z</time>
      </trkpt>
      <trkpt lat="42.506697" lon="-0.354544">
        <ele>782.057016</ele>
        <time>2019-08-22T11:53:58.234Z</time>
      </trkpt>
      <trkpt lat="42.506262" lon="-0.354025">
        <ele>782.931388</ele>
        <time>2019-08-22T11:54:12.007Z</time>
      </trkpt>
      <trkpt lat="42.505772" lon="-0.353827">
        <ele>782.761484</ele>
        <time>2019-08-22T11:54:19.081Z</time>
      </trkpt>
      <trkpt lat="42.505561" lon="-0.353833">
        <ele>782.691350</ele>
        <time>2019-08-22T11:54:21.373Z</time>
      </trkpt>
      <trkpt lat="42.505223" lon="-0.353955">
        <ele>782.575120</ele>
        <time>2019-08-22T11:54:25.237Z</time>
      </trkpt>
      <trkpt lat="42.505111" lon="-0.354008">
        <ele>782.535702</ele>
        <time>2019-08-22T11:54:26.626Z</time>
      </trkpt>
      <trkpt lat="42.504940" lon="-0.354089">
        <ele>782.475511</ele>
        <time>2019-08-22T11:54:28.679Z</time>
      </trkpt>
      <trkpt lat="42.504802" lon="-0.354142">
        <ele>782.439632</ele>
        <time>2019-08-22T11:54:30.353Z</time>
      </trkpt>
      <trkpt lat="42.504679" lon="-0.354312">
        <ele>782.638019</ele>
        <time>2019-08-22T11:54:32.802Z</time>
      </trkpt>
      <trkpt lat="42.504659" lon="-0.354424">
        <ele>782.733998</ele>
        <time>2019-08-22T11:54:33.649Z</time>
      </trkpt>
      <trkpt lat="42.504657" lon="-0.354525">
        <ele>782.818149</ele>
        <time>2019-08-22T11:54:35.011Z</time>
      </trkpt>
      <trkpt lat="42.504573" lon="-0.354757">
        <ele>783.033423</ele>
        <time>2019-08-22T11:54:39.525Z</time>
      </trkpt>
      <trkpt lat="42.504530" lon="-0.354797">
        <ele>783.092328</ele>
        <time>2019-08-22T11:54:40.261Z</time>
      </trkpt>
      <trkpt lat="42.504536" lon="-0.354843">
        <ele>783.131235</ele>
        <time>2019-08-22T11:54:40.638Z</time>
      </trkpt>
      <trkpt lat="42.504535" lon="-0.354863">
        <ele>783.147931</ele>
        <time>2019-08-22T11:54:40.823Z</time>
      </trkpt>
      <trkpt lat="42.504504" lon="-0.354945">
        <ele>783.224683</ele>
        <time>2019-08-22T11:54:41.719Z</time>
      </trkpt>
      <trkpt lat="42.504471" lon="-0.354972">
        <ele>783.268222</ele>
        <time>2019-08-22T11:54:42.562Z</time>
      </trkpt>
      <trkpt lat="42.504433" lon="-0.354980">
        <ele>783.311667</ele>
        <time>2019-08-22T11:54:43.556Z</time>
      </trkpt>
      <trkpt lat="42.504395" lon="-0.354968">
        <ele>783.355745</ele>
        <time>2019-08-22T11:54:44.268Z</time>
      </trkpt>
      <trkpt lat="42.504371" lon="-0.354947">
        <ele>783.388011</ele>
        <time>2019-08-22T11:54:44.987Z</time>
      </trkpt>
      <trkpt lat="42.504355" lon="-0.354922">
        <ele>783.415584</ele>
        <time>2019-08-22T11:54:45.612Z</time>
      </trkpt>
      <trkpt lat="42.504337" lon="-0.354861">
        <ele>783.470309</ele>
        <time>2019-08-22T11:54:46.226Z</time>
      </trkpt>
      <trkpt lat="42.504338" lon="-0.354826">
        <ele>783.499482</ele>
        <time>2019-08-22T11:54:46.484Z</time>
      </trkpt>
      <trkpt lat="42.504340" lon="-0.354811">
        <ele>783.512177</ele>
        <time>2019-08-22T11:54:46.615Z</time>
      </trkpt>
      <trkpt lat="42.504155" lon="-0.354199">
        <ele>784.063086</ele>
        <time>2019-08-22T11:54:56.896Z</time>
      </trkpt>
      <trkpt lat="42.504135" lon="-0.354132">
        <ele>784.123291</ele>
        <time>2019-08-22T11:54:59.247Z</time>
      </trkpt>
      <trkpt lat="42.504072" lon="-0.353982">
        <ele>784.267075</ele>
        <time>2019-08-22T11:55:04.180Z</time>
      </trkpt>
      <trkpt lat="42.504004" lon="-0.353939">
        <ele>784.351836</ele>
        <time>2019-08-22T11:55:05.073Z</time>
      </trkpt>
      <trkpt lat="42.503886" lon="-0.353875">
        <ele>784.565395</ele>
        <time>2019-08-22T11:55:08.925Z</time>
      </trkpt>
      <trkpt lat="42.503824" lon="-0.353837">
        <ele>784.805941</ele>
        <time>2019-08-22T11:55:11.611Z</time>
      </trkpt>
      <trkpt lat="42.503743" lon="-0.353789">
        <ele>785.118461</ele>
        <time>2019-08-22T11:55:15.270Z</time>
      </trkpt>
      <trkpt lat="42.503632" lon="-0.353660">
        <ele>785.635259</ele>
        <time>2019-08-22T11:55:19.025Z</time>
      </trkpt>
      <trkpt lat="42.503561" lon="-0.353479">
        <ele>786.169673</ele>
        <time>2019-08-22T11:55:25.120Z</time>
      </trkpt>
      <trkpt lat="42.503490" lon="-0.353171">
        <ele>787.010826</ele>
        <time>2019-08-22T11:55:33.645Z</time>
      </trkpt>
      <trkpt lat="42.503487" lon="-0.353021">
        <ele>787.401955</ele>
        <time>2019-08-22T11:55:38.491Z</time>
      </trkpt>
      <trkpt lat="42.503486" lon="-0.352952">
        <ele>787.581843</ele>
        <time>2019-08-22T11:55:40.739Z</time>
      </trkpt>
      <trkpt lat="42.503526" lon="-0.352700">
        <ele>788.253750</ele>
        <time>2019-08-22T11:55:45.383Z</time>
      </trkpt>
      <trkpt lat="42.503582" lon="-0.352566">
        <ele>788.655244</ele>
        <time>2019-08-22T11:55:49.343Z</time>
      </trkpt>
      <trkpt lat="42.503613" lon="-0.352496">
        <ele>788.868093</ele>
        <time>2019-08-22T11:55:51.724Z</time>
      </trkpt>
      <trkpt lat="42.503699" lon="-0.352407">
        <ele>789.250545</ele>
        <time>2019-08-22T11:55:53.941Z</time>
      </trkpt>
      <trkpt lat="42.503795" lon="-0.352350">
        <ele>789.621055</ele>
        <time>2019-08-22T11:55:56.501Z</time>
      </trkpt>
      <trkpt lat="42.503918" lon="-0.352242">
        <ele>790.139095</ele>
        <time>2019-08-22T11:56:01.371Z</time>
      </trkpt>
      <trkpt lat="42.503974" lon="-0.352010">
        <ele>790.775403</ele>
        <time>2019-08-22T11:56:04.203Z</time>
      </trkpt>
      <trkpt lat="42.503977" lon="-0.351769">
        <ele>790.871570</ele>
        <time>2019-08-22T11:56:09.250Z</time>
      </trkpt>
      <trkpt lat="42.503957" lon="-0.351348">
        <ele>790.965598</ele>
        <time>2019-08-22T11:56:14.814Z</time>
      </trkpt>
      <trkpt lat="42.503925" lon="-0.350640">
        <ele>791.123696</ele>
        <time>2019-08-22T11:56:22.965Z</time>
      </trkpt>
      <trkpt lat="42.503865" lon="-0.350326">
        <ele>791.195994</ele>
        <time>2019-08-22T11:56:26.229Z</time>
      </trkpt>
      <trkpt lat="42.503812" lon="-0.350105">
        <ele>791.247792</ele>
        <time>2019-08-22T11:56:28.263Z</time>
      </trkpt>
      <trkpt lat="42.503781" lon="-0.349977">
        <ele>791.277821</ele>
        <time>2019-08-22T11:56:29.580Z</time>
      </trkpt>
      <trkpt lat="42.503709" lon="-0.349744">
        <ele>791.334131</ele>
        <time>2019-08-22T11:56:31.893Z</time>
      </trkpt>
      <trkpt lat="42.503567" lon="-0.349387">
        <ele>791.223254</ele>
        <time>2019-08-22T11:56:35.700Z</time>
      </trkpt>
      <trkpt lat="42.503273" lon="-0.348658">
        <ele>790.776081</ele>
        <time>2019-08-22T11:56:44.068Z</time>
      </trkpt>
      <trkpt lat="42.501814" lon="-0.345039">
        <ele>788.439913</ele>
        <time>2019-08-22T11:57:22.085Z</time>
      </trkpt>
      <trkpt lat="42.501501" lon="-0.344240">
        <ele>788.161874</ele>
        <time>2019-08-22T11:57:30.672Z</time>
      </trkpt>
      <trkpt lat="42.501270" lon="-0.343650">
        <ele>787.956588</ele>
        <time>2019-08-22T11:57:37.270Z</time>
      </trkpt>
      <trkpt lat="42.501004" lon="-0.342972">
        <ele>787.921921</ele>
        <time>2019-08-22T11:57:45.482Z</time>
      </trkpt>
      <trkpt lat="42.500243" lon="-0.340958">
        <ele>789.150689</ele>
        <time>2019-08-22T11:58:15.845Z</time>
      </trkpt>
      <trkpt lat="42.499705" lon="-0.339497">
        <ele>791.042352</ele>
        <time>2019-08-22T11:58:40.470Z</time>
      </trkpt>
      <trkpt lat="42.499279" lon="-0.338453">
        <ele>792.547045</ele>
        <time>2019-08-22T11:59:01.361Z</time>
      </trkpt>
      <trkpt lat="42.498570" lon="-0.336848">
        <ele>795.221276</ele>
        <time>2019-08-22T11:59:33.311Z</time>
      </trkpt>
      <trkpt lat="42.497653" lon="-0.334952">
        <ele>796.898250</ele>
        <time>2019-08-22T12:00:04.755Z</time>
      </trkpt>
      <trkpt lat="42.497087" lon="-0.333782">
        <ele>797.408464</ele>
        <time>2019-08-22T12:00:20.625Z</time>
      </trkpt>
      <trkpt lat="42.495656" lon="-0.330721">
        <ele>798.719033</ele>
        <time>2019-08-22T12:01:05.719Z</time>
      </trkpt>
      <trkpt lat="42.495324" lon="-0.329908">
        <ele>799.474135</ele>
        <time>2019-08-22T12:01:18.307Z</time>
      </trkpt>
      <trkpt lat="42.495031" lon="-0.329186">
        <ele>800.204134</ele>
        <time>2019-08-22T12:01:30.941Z</time>
      </trkpt>
      <trkpt lat="42.494785" lon="-0.328582">
        <ele>800.815341</ele>
        <time>2019-08-22T12:01:41.503Z</time>
      </trkpt>
      <trkpt lat="42.494709" lon="-0.328396">
        <ele>801.010633</ele>
        <time>2019-08-22T12:01:44.531Z</time>
      </trkpt>
      <trkpt lat="42.494635" lon="-0.328214">
        <ele>801.214332</ele>
        <time>2019-08-22T12:01:47.561Z</time>
      </trkpt>
      <trkpt lat="42.494277" lon="-0.327335">
        <ele>802.198526</ele>
        <time>2019-08-22T12:02:01.631Z</time>
      </trkpt>
      <trkpt lat="42.493928" lon="-0.326478">
        <ele>803.158066</ele>
        <time>2019-08-22T12:02:17.063Z</time>
      </trkpt>
      <trkpt lat="42.492590" lon="-0.323189">
        <ele>807.114318</ele>
        <time>2019-08-22T12:03:13.205Z</time>
      </trkpt>
      <trkpt lat="42.490765" lon="-0.318655">
        <ele>813.135057</ele>
        <time>2019-08-22T12:04:33.648Z</time>
      </trkpt>
      <trkpt lat="42.490075" lon="-0.316934">
        <ele>815.989224</ele>
        <time>2019-08-22T12:05:06.914Z</time>
      </trkpt>
      <trkpt lat="42.489794" lon="-0.316149">
        <ele>817.400232</ele>
        <time>2019-08-22T12:05:23.138Z</time>
      </trkpt>
      <trkpt lat="42.489665" lon="-0.315220">
        <ele>818.645267</ele>
        <time>2019-08-22T12:05:39.308Z</time>
      </trkpt>
      <trkpt lat="42.489659" lon="-0.314911">
        <ele>818.877593</ele>
        <time>2019-08-22T12:05:44.504Z</time>
      </trkpt>
      <trkpt lat="42.489655" lon="-0.314643">
        <ele>819.079064</ele>
        <time>2019-08-22T12:05:48.523Z</time>
      </trkpt>
      <trkpt lat="42.489710" lon="-0.314138">
        <ele>819.462740</ele>
        <time>2019-08-22T12:05:55.942Z</time>
      </trkpt>
      <trkpt lat="42.490019" lon="-0.312264">
        <ele>820.064481</ele>
        <time>2019-08-22T12:06:17.514Z</time>
      </trkpt>
      <trkpt lat="42.490233" lon="-0.310941">
        <ele>819.810951</ele>
        <time>2019-08-22T12:06:30.198Z</time>
      </trkpt>
      <trkpt lat="42.490363" lon="-0.310141">
        <ele>820.338006</ele>
        <time>2019-08-22T12:06:39.900Z</time>
      </trkpt>
      <trkpt lat="42.490383" lon="-0.309595">
        <ele>820.825254</ele>
        <time>2019-08-22T12:06:47.799Z</time>
      </trkpt>
      <trkpt lat="42.490353" lon="-0.309092">
        <ele>821.275040</ele>
        <time>2019-08-22T12:06:55.562Z</time>
      </trkpt>
      <trkpt lat="42.490332" lon="-0.308946">
        <ele>821.407622</ele>
        <time>2019-08-22T12:06:58.066Z</time>
      </trkpt>
      <trkpt lat="42.490282" lon="-0.308632">
        <ele>821.693940</ele>
        <time>2019-08-22T12:07:03.213Z</time>
      </trkpt>
      <trkpt lat="42.490146" lon="-0.308118">
        <ele>822.362470</ele>
        <time>2019-08-22T12:07:12.590Z</time>
      </trkpt>
      <trkpt lat="42.490086" lon="-0.307949">
        <ele>822.661271</ele>
        <time>2019-08-22T12:07:16.199Z</time>
      </trkpt>
      <trkpt lat="42.490012" lon="-0.307770">
        <ele>822.988180</ele>
        <time>2019-08-22T12:07:19.966Z</time>
      </trkpt>
      <trkpt lat="42.489423" lon="-0.306730">
        <ele>825.077194</ele>
        <time>2019-08-22T12:07:43.548Z</time>
      </trkpt>
      <trkpt lat="42.489209" lon="-0.306385">
        <ele>825.795385</ele>
        <time>2019-08-22T12:07:50.887Z</time>
      </trkpt>
      <trkpt lat="42.487915" lon="-0.304297">
        <ele>829.185417</ele>
        <time>2019-08-22T12:08:33.609Z</time>
      </trkpt>
      <trkpt lat="42.487624" lon="-0.303824">
        <ele>829.983526</ele>
        <time>2019-08-22T12:08:43.901Z</time>
      </trkpt>
      <trkpt lat="42.487388" lon="-0.303365">
        <ele>830.708510</ele>
        <time>2019-08-22T12:08:53.027Z</time>
      </trkpt>
      <trkpt lat="42.487370" lon="-0.303328">
        <ele>830.765941</ele>
        <time>2019-08-22T12:08:54.209Z</time>
      </trkpt>
      <trkpt lat="42.487254" lon="-0.303037">
        <ele>831.194535</ele>
        <time>2019-08-22T12:08:59.346Z</time>
      </trkpt>
      <trkpt lat="42.487070" lon="-0.302551">
        <ele>831.902361</ele>
        <time>2019-08-22T12:09:08.190Z</time>
      </trkpt>
      <trkpt lat="42.486583" lon="-0.300677">
        <ele>833.817774</ele>
        <time>2019-08-22T12:09:37.687Z</time>
      </trkpt>
      <trkpt lat="42.486510" lon="-0.300437">
        <ele>834.064479</ele>
        <time>2019-08-22T12:09:41.093Z</time>
      </trkpt>
      <trkpt lat="42.486338" lon="-0.299967">
        <ele>834.599161</ele>
        <time>2019-08-22T12:09:48.272Z</time>
      </trkpt>
      <trkpt lat="42.486134" lon="-0.299477">
        <ele>835.214036</ele>
        <time>2019-08-22T12:09:56.308Z</time>
      </trkpt>
      <trkpt lat="42.485437" lon="-0.298307">
        <ele>836.857589</ele>
        <time>2019-08-22T12:10:20.004Z</time>
      </trkpt>
      <trkpt lat="42.484452" lon="-0.297163">
        <ele>839.479057</ele>
        <time>2019-08-22T12:10:50.338Z</time>
      </trkpt>
      <trkpt lat="42.483993" lon="-0.296527">
        <ele>840.798764</ele>
        <time>2019-08-22T12:11:05.718Z</time>
      </trkpt>
      <trkpt lat="42.483580" lon="-0.295730">
        <ele>841.929391</ele>
        <time>2019-08-22T12:11:21.687Z</time>
      </trkpt>
      <trkpt lat="42.483342" lon="-0.295027">
        <ele>842.827248</ele>
        <time>2019-08-22T12:11:33.439Z</time>
      </trkpt>
      <trkpt lat="42.483194" lon="-0.294311">
        <ele>843.637794</ele>
        <time>2019-08-22T12:11:43.986Z</time>
      </trkpt>
      <trkpt lat="42.483139" lon="-0.293415">
        <ele>844.350516</ele>
        <time>2019-08-22T12:11:56.525Z</time>
      </trkpt>
      <trkpt lat="42.483165" lon="-0.292804">
        <ele>844.835665</ele>
        <time>2019-08-22T12:12:05.049Z</time>
      </trkpt>
      <trkpt lat="42.483365" lon="-0.291029">
        <ele>846.348094</ele>
        <time>2019-08-22T12:12:30.896Z</time>
      </trkpt>
      <trkpt lat="42.483392" lon="-0.290028">
        <ele>847.230382</ele>
        <time>2019-08-22T12:12:45.656Z</time>
      </trkpt>
      <trkpt lat="42.483228" lon="-0.288512">
        <ele>848.466209</ele>
        <time>2019-08-22T12:13:07.261Z</time>
      </trkpt>
      <trkpt lat="42.483108" lon="-0.287960">
        <ele>848.913879</ele>
        <time>2019-08-22T12:13:15.468Z</time>
      </trkpt>
      <trkpt lat="42.482975" lon="-0.287475">
        <ele>849.316402</ele>
        <time>2019-08-22T12:13:22.757Z</time>
      </trkpt>
      <trkpt lat="42.482918" lon="-0.287259">
        <ele>849.494863</ele>
        <time>2019-08-22T12:13:25.883Z</time>
      </trkpt>
      <trkpt lat="42.482718" lon="-0.286547">
        <ele>850.044591</ele>
        <time>2019-08-22T12:13:36.654Z</time>
      </trkpt>
      <trkpt lat="42.482472" lon="-0.285351">
        <ele>850.939444</ele>
        <time>2019-08-22T12:13:53.775Z</time>
      </trkpt>
      <trkpt lat="42.482423" lon="-0.284349">
        <ele>851.578095</ele>
        <time>2019-08-22T12:14:07.466Z</time>
      </trkpt>
      <trkpt lat="42.482416" lon="-0.283781">
        <ele>851.900871</ele>
        <time>2019-08-22T12:14:14.468Z</time>
      </trkpt>
      <trkpt lat="42.482411" lon="-0.283397">
        <ele>852.119089</ele>
        <time>2019-08-22T12:14:19.060Z</time>
      </trkpt>
      <trkpt lat="42.482407" lon="-0.283290">
        <ele>852.179963</ele>
        <time>2019-08-22T12:14:20.232Z</time>
      </trkpt>
      <trkpt lat="42.482395" lon="-0.282983">
        <ele>852.354642</ele>
        <time>2019-08-22T12:14:24.029Z</time>
      </trkpt>
      <trkpt lat="42.482357" lon="-0.282513">
        <ele>852.623291</ele>
        <time>2019-08-22T12:14:30.882Z</time>
      </trkpt>
      <trkpt lat="42.482278" lon="-0.282274">
        <ele>852.949305</ele>
        <time>2019-08-22T12:14:35.095Z</time>
      </trkpt>
      <trkpt lat="42.482100" lon="-0.281482">
        <ele>854.085467</ele>
        <time>2019-08-22T12:14:47.599Z</time>
      </trkpt>
      <trkpt lat="42.482070" lon="-0.281403">
        <ele>854.207402</ele>
        <time>2019-08-22T12:14:49.605Z</time>
      </trkpt>
      <trkpt lat="42.482021" lon="-0.281358">
        <ele>854.317519</ele>
        <time>2019-08-22T12:14:50.757Z</time>
      </trkpt>
      <trkpt lat="42.482005" lon="-0.281327">
        <ele>854.369442</ele>
        <time>2019-08-22T12:14:51.329Z</time>
      </trkpt>
      <trkpt lat="42.481848" lon="-0.281170">
        <ele>854.732423</ele>
        <time>2019-08-22T12:14:55.296Z</time>
      </trkpt>
      <trkpt lat="42.481810" lon="-0.281097">
        <ele>854.855037</ele>
        <time>2019-08-22T12:14:57.521Z</time>
      </trkpt>
      <trkpt lat="42.481734" lon="-0.280577">
        <ele>855.582485</ele>
        <time>2019-08-22T12:15:06.612Z</time>
      </trkpt>
      <trkpt lat="42.481507" lon="-0.279805">
        <ele>856.892915</ele>
        <time>2019-08-22T12:15:21.357Z</time>
      </trkpt>
      <trkpt lat="42.481200" lon="-0.279362">
        <ele>857.921482</ele>
        <time>2019-08-22T12:15:33.714Z</time>
      </trkpt>
      <trkpt lat="42.480838" lon="-0.278613">
        <ele>859.436708</ele>
        <time>2019-08-22T12:15:48.810Z</time>
      </trkpt>
      <trkpt lat="42.480797" lon="-0.278348">
        <ele>859.894859</ele>
        <time>2019-08-22T12:15:53.288Z</time>
      </trkpt>
      <trkpt lat="42.480859" lon="-0.277778">
        <ele>860.711466</ele>
        <time>2019-08-22T12:16:02.691Z</time>
      </trkpt>
      <trkpt lat="42.480785" lon="-0.277444">
        <ele>861.176944</ele>
        <time>2019-08-22T12:16:08.278Z</time>
      </trkpt>
      <trkpt lat="42.480210" lon="-0.276366">
        <ele>862.952653</ele>
        <time>2019-08-22T12:16:29.244Z</time>
      </trkpt>
      <trkpt lat="42.479955" lon="-0.275457">
        <ele>864.855111</ele>
        <time>2019-08-22T12:16:45.850Z</time>
      </trkpt>
      <trkpt lat="42.479843" lon="-0.274623">
        <ele>866.767779</ele>
        <time>2019-08-22T12:17:02.267Z</time>
      </trkpt>
      <trkpt lat="42.479913" lon="-0.273561">
        <ele>869.342629</ele>
        <time>2019-08-22T12:17:26.018Z</time>
      </trkpt>
      <trkpt lat="42.479887" lon="-0.272896">
        <ele>871.704992</ele>
        <time>2019-08-22T12:17:42.586Z</time>
      </trkpt>
      <trkpt lat="42.479373" lon="-0.270522">
        <ele>879.889314</ele>
        <time>2019-08-22T12:18:46.976Z</time>
      </trkpt>
      <trkpt lat="42.478740" lon="-0.268707">
        <ele>885.230027</ele>
        <time>2019-08-22T12:19:28.346Z</time>
      </trkpt>
      <trkpt lat="42.478534" lon="-0.267071">
        <ele>888.480763</ele>
        <time>2019-08-22T12:19:57.539Z</time>
      </trkpt>
      <trkpt lat="42.478179" lon="-0.265802">
        <ele>891.689410</ele>
        <time>2019-08-22T12:20:24.358Z</time>
      </trkpt>
      <trkpt lat="42.478101" lon="-0.264486">
        <ele>895.017141</ele>
        <time>2019-08-22T12:20:54.890Z</time>
      </trkpt>
      <trkpt lat="42.477874" lon="-0.263285">
        <ele>897.360058</ele>
        <time>2019-08-22T12:21:18.941Z</time>
      </trkpt>
      <trkpt lat="42.477727" lon="-0.262892">
        <ele>898.157659</ele>
        <time>2019-08-22T12:21:26.951Z</time>
      </trkpt>
      <trkpt lat="42.477632" lon="-0.262667">
        <ele>898.626934</ele>
        <time>2019-08-22T12:21:32.348Z</time>
      </trkpt>
      <trkpt lat="42.477568" lon="-0.262378">
        <ele>899.173112</ele>
        <time>2019-08-22T12:21:36.484Z</time>
      </trkpt>
      <trkpt lat="42.477509" lon="-0.262265">
        <ele>899.423713</ele>
        <time>2019-08-22T12:21:39.325Z</time>
      </trkpt>
      <trkpt lat="42.477369" lon="-0.262080">
        <ele>899.929903</ele>
        <time>2019-08-22T12:21:42.568Z</time>
      </trkpt>
      <trkpt lat="42.477715" lon="-0.262149">
        <ele>900.974576</ele>
        <time>2019-08-22T12:21:51.290Z</time>
      </trkpt>
      <trkpt lat="42.477889" lon="-0.262150">
        <ele>901.494344</ele>
        <time>2019-08-22T12:21:56.152Z</time>
      </trkpt>
      <trkpt lat="42.477977" lon="-0.262096">
        <ele>901.782881</ele>
        <time>2019-08-22T12:21:58.231Z</time>
      </trkpt>
      <trkpt lat="42.478007" lon="-0.262016">
        <ele>901.980606</ele>
        <time>2019-08-22T12:21:59.118Z</time>
      </trkpt>
      <trkpt lat="42.478177" lon="-0.261344">
        <ele>903.545776</ele>
        <time>2019-08-22T12:22:11.059Z</time>
      </trkpt>
      <trkpt lat="42.478239" lon="-0.261285">
        <ele>903.772042</ele>
        <time>2019-08-22T12:22:13.256Z</time>
      </trkpt>
      <trkpt lat="42.478353" lon="-0.260762">
        <ele>904.973542</ele>
        <time>2019-08-22T12:22:26.970Z</time>
      </trkpt>
      <trkpt lat="42.478474" lon="-0.260146">
        <ele>908.794679</ele>
        <time>2019-08-22T12:22:48.482Z</time>
      </trkpt>
      <trkpt lat="42.478507" lon="-0.259562">
        <ele>912.634281</ele>
        <time>2019-08-22T12:23:10.024Z</time>
      </trkpt>
      <trkpt lat="42.478490" lon="-0.258993">
        <ele>916.367391</ele>
        <time>2019-08-22T12:23:32.874Z</time>
      </trkpt>
      <trkpt lat="42.478373" lon="-0.258304">
        <ele>921.002273</ele>
        <time>2019-08-22T12:24:03.022Z</time>
      </trkpt>
      <trkpt lat="42.478118" lon="-0.257589">
        <ele>925.311057</ele>
        <time>2019-08-22T12:24:35.776Z</time>
      </trkpt>
      <trkpt lat="42.477854" lon="-0.257102">
        <ele>928.571291</ele>
        <time>2019-08-22T12:24:58.607Z</time>
      </trkpt>
      <trkpt lat="42.476918" lon="-0.255818">
        <ele>935.928686</ele>
        <time>2019-08-22T12:25:40.745Z</time>
      </trkpt>
      <trkpt lat="42.476461" lon="-0.254798">
        <ele>938.546936</ele>
        <time>2019-08-22T12:26:00.722Z</time>
      </trkpt>
      <trkpt lat="42.476237" lon="-0.253729">
        <ele>941.720063</ele>
        <time>2019-08-22T12:26:21.798Z</time>
      </trkpt>
      <trkpt lat="42.475864" lon="-0.251204">
        <ele>951.558509</ele>
        <time>2019-08-22T12:27:30.503Z</time>
      </trkpt>
      <trkpt lat="42.475269" lon="-0.248492">
        <ele>966.153390</ele>
        <time>2019-08-22T12:29:01.824Z</time>
      </trkpt>
      <trkpt lat="42.475231" lon="-0.247798">
        <ele>970.058560</ele>
        <time>2019-08-22T12:29:25.403Z</time>
      </trkpt>
      <trkpt lat="42.475266" lon="-0.247356">
        <ele>972.553142</ele>
        <time>2019-08-22T12:29:40.769Z</time>
      </trkpt>
      <trkpt lat="42.475354" lon="-0.246922">
        <ele>975.298319</ele>
        <time>2019-08-22T12:29:56.520Z</time>
      </trkpt>
      <trkpt lat="42.475631" lon="-0.246218">
        <ele>980.380961</ele>
        <time>2019-08-22T12:30:24.989Z</time>
      </trkpt>
      <trkpt lat="42.476684" lon="-0.244927">
        <ele>992.581279</ele>
        <time>2019-08-22T12:31:37.021Z</time>
      </trkpt>
      <trkpt lat="42.477192" lon="-0.243951">
        <ele>1000.064163</ele>
        <time>2019-08-22T12:32:20.256Z</time>
      </trkpt>
      <trkpt lat="42.477422" lon="-0.243040">
        <ele>1005.995555</ele>
        <time>2019-08-22T12:32:53.851Z</time>
      </trkpt>
      <trkpt lat="42.477476" lon="-0.242477">
        <ele>1009.357082</ele>
        <time>2019-08-22T12:33:13.104Z</time>
      </trkpt>
      <trkpt lat="42.477459" lon="-0.241927">
        <ele>1012.616425</ele>
        <time>2019-08-22T12:33:32.313Z</time>
      </trkpt>
      <trkpt lat="42.477364" lon="-0.241330">
        <ele>1016.232532</ele>
        <time>2019-08-22T12:33:53.763Z</time>
      </trkpt>
      <trkpt lat="42.477174" lon="-0.240713">
        <ele>1019.782765</ele>
        <time>2019-08-22T12:34:17.346Z</time>
      </trkpt>
      <trkpt lat="42.477005" lon="-0.240275">
        <ele>1021.905106</ele>
        <time>2019-08-22T12:34:33.719Z</time>
      </trkpt>
      <trkpt lat="42.476743" lon="-0.239662">
        <ele>1024.947012</ele>
        <time>2019-08-22T12:34:54.773Z</time>
      </trkpt>
      <trkpt lat="42.476544" lon="-0.239148">
        <ele>1027.439454</ele>
        <time>2019-08-22T12:35:09.489Z</time>
      </trkpt>
      <trkpt lat="42.476339" lon="-0.238457">
        <ele>1029.603613</ele>
        <time>2019-08-22T12:35:25.253Z</time>
      </trkpt>
      <trkpt lat="42.476332" lon="-0.238430">
        <ele>1029.639615</ele>
        <time>2019-08-22T12:35:25.774Z</time>
      </trkpt>
      <trkpt lat="42.476252" lon="-0.238026">
        <ele>1030.165821</ele>
        <time>2019-08-22T12:35:32.755Z</time>
      </trkpt>
      <trkpt lat="42.476205" lon="-0.237722">
        <ele>1030.556548</ele>
        <time>2019-08-22T12:35:37.584Z</time>
      </trkpt>
      <trkpt lat="42.476184" lon="-0.237555">
        <ele>1030.769656</ele>
        <time>2019-08-22T12:35:39.988Z</time>
      </trkpt>
      <trkpt lat="42.476171" lon="-0.237188">
        <ele>1031.231854</ele>
        <time>2019-08-22T12:35:44.726Z</time>
      </trkpt>
      <trkpt lat="42.476160" lon="-0.237022">
        <ele>1031.441514</ele>
        <time>2019-08-22T12:35:46.815Z</time>
      </trkpt>
      <trkpt lat="42.476183" lon="-0.236242">
        <ele>1032.541708</ele>
        <time>2019-08-22T12:35:56.486Z</time>
      </trkpt>
      <trkpt lat="42.476255" lon="-0.235594">
        <ele>1033.905766</ele>
        <time>2019-08-22T12:36:06.458Z</time>
      </trkpt>
      <trkpt lat="42.476353" lon="-0.235202">
        <ele>1034.767329</ele>
        <time>2019-08-22T12:36:15.277Z</time>
      </trkpt>
      <trkpt lat="42.476474" lon="-0.234722">
        <ele>1035.823211</ele>
        <time>2019-08-22T12:36:26.609Z</time>
      </trkpt>
      <trkpt lat="42.476603" lon="-0.234224">
        <ele>1036.921886</ele>
        <time>2019-08-22T12:36:38.752Z</time>
      </trkpt>
      <trkpt lat="42.476703" lon="-0.233699">
        <ele>1037.822173</ele>
        <time>2019-08-22T12:36:50.783Z</time>
      </trkpt>
      <trkpt lat="42.476725" lon="-0.233491">
        <ele>1038.123003</ele>
        <time>2019-08-22T12:36:56.020Z</time>
      </trkpt>
      <trkpt lat="42.476715" lon="-0.232738">
        <ele>1039.201212</ele>
        <time>2019-08-22T12:37:09.622Z</time>
      </trkpt>
      <trkpt lat="42.476632" lon="-0.232295">
        <ele>1039.855577</ele>
        <time>2019-08-22T12:37:16.943Z</time>
      </trkpt>
      <trkpt lat="42.476282" lon="-0.231131">
        <ele>1042.370914</ele>
        <time>2019-08-22T12:37:29.269Z</time>
      </trkpt>
      <trkpt lat="42.476167" lon="-0.230331">
        <ele>1044.526403</ele>
        <time>2019-08-22T12:37:42.167Z</time>
      </trkpt>
      <trkpt lat="42.476141" lon="-0.229632">
        <ele>1046.377330</ele>
        <time>2019-08-22T12:37:59.770Z</time>
      </trkpt>
      <trkpt lat="42.476098" lon="-0.229112">
        <ele>1048.857654</ele>
        <time>2019-08-22T12:38:19.946Z</time>
      </trkpt>
      <trkpt lat="42.475874" lon="-0.228134">
        <ele>1057.487616</ele>
        <time>2019-08-22T12:39:06.563Z</time>
      </trkpt>
      <trkpt lat="42.475688" lon="-0.227658">
        <ele>1062.027117</ele>
        <time>2019-08-22T12:39:35.206Z</time>
      </trkpt>
      <trkpt lat="42.475268" lon="-0.226846">
        <ele>1069.365615</ele>
        <time>2019-08-22T12:40:24.841Z</time>
      </trkpt>
      <trkpt lat="42.473228" lon="-0.225319">
        <ele>1083.091956</ele>
        <time>2019-08-22T12:41:49.389Z</time>
      </trkpt>
      <trkpt lat="42.472594" lon="-0.224487">
        <ele>1086.434298</ele>
        <time>2019-08-22T12:42:11.909Z</time>
      </trkpt>
      <trkpt lat="42.472080" lon="-0.223501">
        <ele>1087.735873</ele>
        <time>2019-08-22T12:42:33.938Z</time>
      </trkpt>
      <trkpt lat="42.471717" lon="-0.222303">
        <ele>1088.647797</ele>
        <time>2019-08-22T12:42:48.921Z</time>
      </trkpt>
      <trkpt lat="42.471635" lon="-0.221751">
        <ele>1088.422649</ele>
        <time>2019-08-22T12:42:54.037Z</time>
      </trkpt>
      <trkpt lat="42.471531" lon="-0.221046">
        <ele>1087.841802</ele>
        <time>2019-08-22T12:43:00.373Z</time>
      </trkpt>
      <trkpt lat="42.471531" lon="-0.220742">
        <ele>1087.596201</ele>
        <time>2019-08-22T12:43:02.936Z</time>
      </trkpt>
      <trkpt lat="42.471531" lon="-0.219683">
        <ele>1086.756995</ele>
        <time>2019-08-22T12:43:12.047Z</time>
      </trkpt>
      <trkpt lat="42.471852" lon="-0.218184">
        <ele>1085.963438</ele>
        <time>2019-08-22T12:43:26.739Z</time>
      </trkpt>
      <trkpt lat="42.472380" lon="-0.216415">
        <ele>1088.031210</ele>
        <time>2019-08-22T12:43:46.072Z</time>
      </trkpt>
      <trkpt lat="42.472465" lon="-0.215758">
        <ele>1089.559099</ele>
        <time>2019-08-22T12:43:57.235Z</time>
      </trkpt>
      <trkpt lat="42.472431" lon="-0.215060">
        <ele>1091.247879</ele>
        <time>2019-08-22T12:44:20.837Z</time>
      </trkpt>
      <trkpt lat="42.472311" lon="-0.214405">
        <ele>1097.137934</ele>
        <time>2019-08-22T12:44:49.686Z</time>
      </trkpt>
      <trkpt lat="42.472038" lon="-0.213795">
        <ele>1103.364888</ele>
        <time>2019-08-22T12:45:24.178Z</time>
      </trkpt>
      <trkpt lat="42.471756" lon="-0.213344">
        <ele>1108.524857</ele>
        <time>2019-08-22T12:45:56.349Z</time>
      </trkpt>
      <trkpt lat="42.471310" lon="-0.212839">
        <ele>1114.939505</ele>
        <time>2019-08-22T12:46:35.312Z</time>
      </trkpt>
      <trkpt lat="42.470283" lon="-0.211891">
        <ele>1127.373273</ele>
        <time>2019-08-22T12:47:43.901Z</time>
      </trkpt>
      <trkpt lat="42.469557" lon="-0.210917">
        <ele>1137.003066</ele>
        <time>2019-08-22T12:48:26.059Z</time>
      </trkpt>
      <trkpt lat="42.465855" lon="-0.203897">
        <ele>1194.352418</ele>
        <time>2019-08-22T12:54:02.874Z</time>
      </trkpt>
      <trkpt lat="42.465477" lon="-0.202804">
        <ele>1196.195548</ele>
        <time>2019-08-22T12:54:28.404Z</time>
      </trkpt>
      <trkpt lat="42.465384" lon="-0.202198">
        <ele>1196.719605</ele>
        <time>2019-08-22T12:54:34.673Z</time>
      </trkpt>
      <trkpt lat="42.465347" lon="-0.201580">
        <ele>1197.244558</ele>
        <time>2019-08-22T12:54:39.682Z</time>
      </trkpt>
      <trkpt lat="42.465370" lon="-0.200896">
        <ele>1196.339683</ele>
        <time>2019-08-22T12:54:44.881Z</time>
      </trkpt>
      <trkpt lat="42.465427" lon="-0.200117">
        <ele>1194.857530</ele>
        <time>2019-08-22T12:54:50.719Z</time>
      </trkpt>
      <trkpt lat="42.465606" lon="-0.198058">
        <ele>1192.017822</ele>
        <time>2019-08-22T12:55:07.373Z</time>
      </trkpt>
      <trkpt lat="42.465732" lon="-0.197468">
        <ele>1191.549751</ele>
        <time>2019-08-22T12:55:13.539Z</time>
      </trkpt>
      <trkpt lat="42.465919" lon="-0.196936">
        <ele>1191.100670</ele>
        <time>2019-08-22T12:55:19.543Z</time>
      </trkpt>
      <trkpt lat="42.466086" lon="-0.196628">
        <ele>1190.898261</ele>
        <time>2019-08-22T12:55:23.272Z</time>
      </trkpt>
      <trkpt lat="42.467096" lon="-0.195229">
        <ele>1191.029395</ele>
        <time>2019-08-22T12:55:44.375Z</time>
      </trkpt>
      <trkpt lat="42.468280" lon="-0.193446">
        <ele>1193.054525</ele>
        <time>2019-08-22T12:56:16.886Z</time>
      </trkpt>
      <trkpt lat="42.468484" lon="-0.193018">
        <ele>1193.829663</ele>
        <time>2019-08-22T12:56:26.525Z</time>
      </trkpt>
      <trkpt lat="42.468642" lon="-0.192502">
        <ele>1195.952045</ele>
        <time>2019-08-22T12:56:38.384Z</time>
      </trkpt>
      <trkpt lat="42.468711" lon="-0.192122">
        <ele>1197.438699</ele>
        <time>2019-08-22T12:56:47.392Z</time>
      </trkpt>
      <trkpt lat="42.468774" lon="-0.191579">
        <ele>1199.526829</ele>
        <time>2019-08-22T12:57:00.998Z</time>
      </trkpt>
      <trkpt lat="42.468791" lon="-0.191439">
        <ele>1200.065824</ele>
        <time>2019-08-22T12:57:05.996Z</time>
      </trkpt>
      <trkpt lat="42.468942" lon="-0.190785">
        <ele>1202.669120</ele>
        <time>2019-08-22T12:57:26.986Z</time>
      </trkpt>
      <trkpt lat="42.469078" lon="-0.190430">
        <ele>1204.861310</ele>
        <time>2019-08-22T12:57:42.116Z</time>
      </trkpt>
      <trkpt lat="42.469422" lon="-0.189830">
        <ele>1209.074690</ele>
        <time>2019-08-22T12:58:11.953Z</time>
      </trkpt>
      <trkpt lat="42.469651" lon="-0.189558">
        <ele>1211.363171</ele>
        <time>2019-08-22T12:58:27.821Z</time>
      </trkpt>
      <trkpt lat="42.469939" lon="-0.189316">
        <ele>1213.910023</ele>
        <time>2019-08-22T12:58:42.942Z</time>
      </trkpt>
      <trkpt lat="42.470528" lon="-0.188826">
        <ele>1214.864328</ele>
        <time>2019-08-22T12:59:08.640Z</time>
      </trkpt>
      <trkpt lat="42.485716" lon="-0.165859">
        <ele>1130.241337</ele>
        <time>2019-08-22T13:02:52.630Z</time>
      </trkpt>
      <trkpt lat="42.486157" lon="-0.165619">
        <ele>1126.786042</ele>
        <time>2019-08-22T13:02:56.723Z</time>
      </trkpt>
      <trkpt lat="42.486442" lon="-0.165463">
        <ele>1123.760621</ele>
        <time>2019-08-22T13:02:59.468Z</time>
      </trkpt>
      <trkpt lat="42.486506" lon="-0.165433">
        <ele>1123.094039</ele>
        <time>2019-08-22T13:03:00.028Z</time>
      </trkpt>
      <trkpt lat="42.486916" lon="-0.165240">
        <ele>1118.821819</ele>
        <time>2019-08-22T13:03:03.791Z</time>
      </trkpt>
      <trkpt lat="42.487678" lon="-0.164863">
        <ele>1110.762599</ele>
        <time>2019-08-22T13:03:10.646Z</time>
      </trkpt>
      <trkpt lat="42.487807" lon="-0.164795">
        <ele>1109.174498</ele>
        <time>2019-08-22T13:03:11.866Z</time>
      </trkpt>
      <trkpt lat="42.487976" lon="-0.164705">
        <ele>1107.091147</ele>
        <time>2019-08-22T13:03:13.410Z</time>
      </trkpt>
      <trkpt lat="42.488107" lon="-0.164608">
        <ele>1105.378514</ele>
        <time>2019-08-22T13:03:14.725Z</time>
      </trkpt>
      <trkpt lat="42.488194" lon="-0.164543">
        <ele>1104.238756</ele>
        <time>2019-08-22T13:03:15.557Z</time>
      </trkpt>
      <trkpt lat="42.488383" lon="-0.164404">
        <ele>1101.771687</ele>
        <time>2019-08-22T13:03:17.420Z</time>
      </trkpt>
      <trkpt lat="42.488788" lon="-0.164030">
        <ele>1096.149374</ele>
        <time>2019-08-22T13:03:21.605Z</time>
      </trkpt>
      <trkpt lat="42.489186" lon="-0.163487">
        <ele>1089.654689</ele>
        <time>2019-08-22T13:03:26.346Z</time>
      </trkpt>
      <trkpt lat="42.489325" lon="-0.163242">
        <ele>1086.994659</ele>
        <time>2019-08-22T13:03:28.243Z</time>
      </trkpt>
      <trkpt lat="42.489541" lon="-0.162836">
        <ele>1082.686637</ele>
        <time>2019-08-22T13:03:31.334Z</time>
      </trkpt>
      <trkpt lat="42.489710" lon="-0.162468">
        <ele>1078.956086</ele>
        <time>2019-08-22T13:03:34.060Z</time>
      </trkpt>
      <trkpt lat="42.489879" lon="-0.161977">
        <ele>1074.293417</ele>
        <time>2019-08-22T13:03:37.494Z</time>
      </trkpt>
      <trkpt lat="42.490067" lon="-0.161084">
        <ele>1067.165299</ele>
        <time>2019-08-22T13:03:43.398Z</time>
      </trkpt>
      <trkpt lat="42.490128" lon="-0.160160">
        <ele>1061.234596</ele>
        <time>2019-08-22T13:03:49.357Z</time>
      </trkpt>
      <trkpt lat="42.490130" lon="-0.159713">
        <ele>1058.376901</ele>
        <time>2019-08-22T13:03:52.286Z</time>
      </trkpt>
      <trkpt lat="42.490110" lon="-0.158813">
        <ele>1052.915656</ele>
        <time>2019-08-22T13:03:58.221Z</time>
      </trkpt>
      <trkpt lat="42.490135" lon="-0.158019">
        <ele>1048.871784</ele>
        <time>2019-08-22T13:04:03.475Z</time>
      </trkpt>
      <trkpt lat="42.490381" lon="-0.156726">
        <ele>1042.077033</ele>
        <time>2019-08-22T13:04:12.421Z</time>
      </trkpt>
      <trkpt lat="42.490933" lon="-0.155389">
        <ele>1035.449886</ele>
        <time>2019-08-22T13:04:22.721Z</time>
      </trkpt>
      <trkpt lat="42.491659" lon="-0.154748">
        <ele>1030.895456</ele>
        <time>2019-08-22T13:04:30.885Z</time>
      </trkpt>
      <trkpt lat="42.492633" lon="-0.153887">
        <ele>1028.197416</ele>
        <time>2019-08-22T13:04:41.904Z</time>
      </trkpt>
      <trkpt lat="42.493175" lon="-0.153408">
        <ele>1027.789240</ele>
        <time>2019-08-22T13:04:55.711Z</time>
      </trkpt>
      <trkpt lat="42.493213" lon="-0.153374">
        <ele>1028.021429</ele>
        <time>2019-08-22T13:04:57.732Z</time>
      </trkpt>
      <trkpt lat="42.493718" lon="-0.152928">
        <ele>1031.095045</ele>
        <time>2019-08-22T13:05:27.128Z</time>
      </trkpt>
      <trkpt lat="42.495053" lon="-0.151967">
        <ele>1035.094015</ele>
        <time>2019-08-22T13:06:20.111Z</time>
      </trkpt>
      <trkpt lat="42.495277" lon="-0.151927">
        <ele>1034.597212</ele>
        <time>2019-08-22T13:06:23.144Z</time>
      </trkpt>
      <trkpt lat="42.495692" lon="-0.151883">
        <ele>1033.681888</ele>
        <time>2019-08-22T13:06:28.768Z</time>
      </trkpt>
      <trkpt lat="42.496272" lon="-0.152032">
        <ele>1032.383852</ele>
        <time>2019-08-22T13:06:34.061Z</time>
      </trkpt>
      <trkpt lat="42.496673" lon="-0.152280">
        <ele>1026.848127</ele>
        <time>2019-08-22T13:06:37.759Z</time>
      </trkpt>
      <trkpt lat="42.497169" lon="-0.152746">
        <ele>1018.323469</ele>
        <time>2019-08-22T13:06:42.755Z</time>
      </trkpt>
      <trkpt lat="42.497666" lon="-0.153212">
        <ele>1009.787215</ele>
        <time>2019-08-22T13:06:47.778Z</time>
      </trkpt>
      <trkpt lat="42.497969" lon="-0.153356">
        <ele>1005.358527</ele>
        <time>2019-08-22T13:06:50.447Z</time>
      </trkpt>
      <trkpt lat="42.498159" lon="-0.153408">
        <ele>1002.804498</ele>
        <time>2019-08-22T13:06:52.031Z</time>
      </trkpt>
      <trkpt lat="42.498673" lon="-0.153440">
        <ele>996.024558</ele>
        <time>2019-08-22T13:06:56.330Z</time>
      </trkpt>
      <trkpt lat="42.499197" lon="-0.153259">
        <ele>988.899588</ele>
        <time>2019-08-22T13:07:00.827Z</time>
      </trkpt>
      <trkpt lat="42.499684" lon="-0.152886">
        <ele>982.509381</ele>
        <time>2019-08-22T13:07:05.607Z</time>
      </trkpt>
      <trkpt lat="42.499932" lon="-0.152492">
        <ele>980.528702</ele>
        <time>2019-08-22T13:07:09.146Z</time>
      </trkpt>
      <trkpt lat="42.499992" lon="-0.152380">
        <ele>979.999391</ele>
        <time>2019-08-22T13:07:10.140Z</time>
      </trkpt>
      <trkpt lat="42.500148" lon="-0.151998">
        <ele>978.329822</ele>
        <time>2019-08-22T13:07:13.298Z</time>
      </trkpt>
      <trkpt lat="42.500516" lon="-0.150017">
        <ele>970.781335</ele>
        <time>2019-08-22T13:07:28.413Z</time>
      </trkpt>
      <trkpt lat="42.500700" lon="-0.148938">
        <ele>966.883605</ele>
        <time>2019-08-22T13:07:36.092Z</time>
      </trkpt>
      <trkpt lat="42.500760" lon="-0.148604">
        <ele>965.673724</ele>
        <time>2019-08-22T13:07:38.455Z</time>
      </trkpt>
      <trkpt lat="42.500803" lon="-0.148227">
        <ele>963.958922</ele>
        <time>2019-08-22T13:07:41.040Z</time>
      </trkpt>
      <trkpt lat="42.500806" lon="-0.147725">
        <ele>961.461910</ele>
        <time>2019-08-22T13:07:44.395Z</time>
      </trkpt>
      <trkpt lat="42.500768" lon="-0.147334">
        <ele>959.500265</ele>
        <time>2019-08-22T13:07:47.034Z</time>
      </trkpt>
      <trkpt lat="42.500522" lon="-0.146530">
        <ele>955.170484</ele>
        <time>2019-08-22T13:07:52.888Z</time>
      </trkpt>
      <trkpt lat="42.499555" lon="-0.144352">
        <ele>939.763489</ele>
        <time>2019-08-22T13:08:09.427Z</time>
      </trkpt>
      <trkpt lat="42.499070" lon="-0.143414">
        <ele>931.135395</ele>
        <time>2019-08-22T13:08:16.701Z</time>
      </trkpt>
      <trkpt lat="42.498893" lon="-0.143051">
        <ele>927.651164</ele>
        <time>2019-08-22T13:08:19.418Z</time>
      </trkpt>
      <trkpt lat="42.498589" lon="-0.142391">
        <ele>921.420821</ele>
        <time>2019-08-22T13:08:24.303Z</time>
      </trkpt>
      <trkpt lat="42.498480" lon="-0.142096">
        <ele>918.779057</ele>
        <time>2019-08-22T13:08:26.374Z</time>
      </trkpt>
      <trkpt lat="42.498381" lon="-0.141763">
        <ele>916.247731</ele>
        <time>2019-08-22T13:08:28.615Z</time>
      </trkpt>
      <trkpt lat="42.498268" lon="-0.141168">
        <ele>912.044549</ele>
        <time>2019-08-22T13:08:32.536Z</time>
      </trkpt>
      <trkpt lat="42.498164" lon="-0.139509">
        <ele>900.903349</ele>
        <time>2019-08-22T13:08:43.282Z</time>
      </trkpt>
      <trkpt lat="42.498041" lon="-0.139019">
        <ele>898.319763</ele>
        <time>2019-08-22T13:08:46.796Z</time>
      </trkpt>
      <trkpt lat="42.497725" lon="-0.138356">
        <ele>894.379299</ele>
        <time>2019-08-22T13:08:52.175Z</time>
      </trkpt>
      <trkpt lat="42.497539" lon="-0.138081">
        <ele>892.516627</ele>
        <time>2019-08-22T13:08:54.754Z</time>
      </trkpt>
      <trkpt lat="42.497219" lon="-0.137609">
        <ele>889.272632</ele>
        <time>2019-08-22T13:08:58.993Z</time>
      </trkpt>
      <trkpt lat="42.496874" lon="-0.136992">
        <ele>883.364940</ele>
        <time>2019-08-22T13:09:04.027Z</time>
      </trkpt>
      <trkpt lat="42.496599" lon="-0.136301">
        <ele>877.374270</ele>
        <time>2019-08-22T13:09:09.011Z</time>
      </trkpt>
      <trkpt lat="42.496479" lon="-0.135884">
        <ele>873.959179</ele>
        <time>2019-08-22T13:09:11.804Z</time>
      </trkpt>
      <trkpt lat="42.496406" lon="-0.135548">
        <ele>871.286798</ele>
        <time>2019-08-22T13:09:13.991Z</time>
      </trkpt>
      <trkpt lat="42.496338" lon="-0.135061">
        <ele>866.603751</ele>
        <time>2019-08-22T13:09:17.051Z</time>
      </trkpt>
      <trkpt lat="42.496304" lon="-0.134674">
        <ele>862.813594</ele>
        <time>2019-08-22T13:09:19.451Z</time>
      </trkpt>
      <trkpt lat="42.496297" lon="-0.134369">
        <ele>859.846064</ele>
        <time>2019-08-22T13:09:21.340Z</time>
      </trkpt>
      <trkpt lat="42.496311" lon="-0.133953">
        <ele>855.796295</ele>
        <time>2019-08-22T13:09:23.904Z</time>
      </trkpt>
      <trkpt lat="42.496350" lon="-0.133494">
        <ele>851.303028</ele>
        <time>2019-08-22T13:09:26.783Z</time>
      </trkpt>
      <trkpt lat="42.496382" lon="-0.133247">
        <ele>848.864183</ele>
        <time>2019-08-22T13:09:28.334Z</time>
      </trkpt>
      <trkpt lat="42.496477" lon="-0.132423">
        <ele>842.229541</ele>
        <time>2019-08-22T13:09:33.587Z</time>
      </trkpt>
      <trkpt lat="42.496494" lon="-0.132170">
        <ele>840.336798</ele>
        <time>2019-08-22T13:09:35.176Z</time>
      </trkpt>
      <trkpt lat="42.496451" lon="-0.131267">
        <ele>833.595138</ele>
        <time>2019-08-22T13:09:40.926Z</time>
      </trkpt>
      <trkpt lat="42.496244" lon="-0.130089">
        <ele>825.546354</ele>
        <time>2019-08-22T13:09:48.856Z</time>
      </trkpt>
      <trkpt lat="42.496197" lon="-0.129212">
        <ele>820.472552</ele>
        <time>2019-08-22T13:09:54.646Z</time>
      </trkpt>
      <trkpt lat="42.496311" lon="-0.128324">
        <ele>815.271541</ele>
        <time>2019-08-22T13:10:00.538Z</time>
      </trkpt>
      <trkpt lat="42.496726" lon="-0.126781">
        <ele>805.818481</ele>
        <time>2019-08-22T13:10:11.277Z</time>
      </trkpt>
      <trkpt lat="42.496777" lon="-0.126292">
        <ele>802.976427</ele>
        <time>2019-08-22T13:10:14.514Z</time>
      </trkpt>
      <trkpt lat="42.496718" lon="-0.124721">
        <ele>794.184057</ele>
        <time>2019-08-22T13:10:24.856Z</time>
      </trkpt>
      <trkpt lat="42.496766" lon="-0.123807">
        <ele>789.111026</ele>
        <time>2019-08-22T13:10:30.906Z</time>
      </trkpt>
      <trkpt lat="42.496920" lon="-0.123097">
        <ele>785.355207</ele>
        <time>2019-08-22T13:10:35.765Z</time>
      </trkpt>
      <trkpt lat="42.497278" lon="-0.122267">
        <ele>780.837409</ele>
        <time>2019-08-22T13:10:42.174Z</time>
      </trkpt>
      <trkpt lat="42.497567" lon="-0.121843">
        <ele>778.124557</ele>
        <time>2019-08-22T13:10:46.064Z</time>
      </trkpt>
      <trkpt lat="42.497819" lon="-0.121573">
        <ele>776.078179</ele>
        <time>2019-08-22T13:10:49.084Z</time>
      </trkpt>
      <trkpt lat="42.498367" lon="-0.121135">
        <ele>772.931410</ele>
        <time>2019-08-22T13:10:55.153Z</time>
      </trkpt>
      <trkpt lat="42.498658" lon="-0.120990">
        <ele>771.429174</ele>
        <time>2019-08-22T13:10:58.062Z</time>
      </trkpt>
      <trkpt lat="42.498738" lon="-0.120966">
        <ele>771.032152</ele>
        <time>2019-08-22T13:10:58.826Z</time>
      </trkpt>
      <trkpt lat="42.499578" lon="-0.120615">
        <ele>766.843425</ele>
        <time>2019-08-22T13:11:07.204Z</time>
      </trkpt>
      <trkpt lat="42.499620" lon="-0.120582">
        <ele>766.659974</ele>
        <time>2019-08-22T13:11:07.694Z</time>
      </trkpt>
      <trkpt lat="42.499644" lon="-0.120547">
        <ele>766.526782</ele>
        <time>2019-08-22T13:11:08.033Z</time>
      </trkpt>
      <trkpt lat="42.499686" lon="-0.120417">
        <ele>766.131274</ele>
        <time>2019-08-22T13:11:09.469Z</time>
      </trkpt>
      <trkpt lat="42.499690" lon="-0.120234">
        <ele>765.621107</ele>
        <time>2019-08-22T13:11:11.281Z</time>
      </trkpt>
      <trkpt lat="42.499617" lon="-0.120081">
        <ele>765.113274</ele>
        <time>2019-08-22T13:11:13.158Z</time>
      </trkpt>
      <trkpt lat="42.499537" lon="-0.119988">
        <ele>764.715050</ele>
        <time>2019-08-22T13:11:14.605Z</time>
      </trkpt>
      <trkpt lat="42.499415" lon="-0.119852">
        <ele>764.118195</ele>
        <time>2019-08-22T13:11:16.762Z</time>
      </trkpt>
      <trkpt lat="42.499317" lon="-0.119633">
        <ele>763.404324</ele>
        <time>2019-08-22T13:11:19.417Z</time>
      </trkpt>
      <trkpt lat="42.499254" lon="-0.118929">
        <ele>761.428168</ele>
        <time>2019-08-22T13:11:26.620Z</time>
      </trkpt>
      <trkpt lat="42.499095" lon="-0.118453">
        <ele>760.342657</ele>
        <time>2019-08-22T13:11:32.401Z</time>
      </trkpt>
      <trkpt lat="42.498609" lon="-0.117653">
        <ele>760.768311</ele>
        <time>2019-08-22T13:11:49.726Z</time>
      </trkpt>
      <trkpt lat="42.498727" lon="-0.117664">
        <ele>760.834186</ele>
        <time>2019-08-22T13:11:52.422Z</time>
      </trkpt>
      <trkpt lat="42.498885" lon="-0.117667">
        <ele>760.922192</ele>
        <time>2019-08-22T13:11:56.198Z</time>
      </trkpt>
      <trkpt lat="42.499096" lon="-0.117366">
        <ele>761.092741</ele>
        <time>2019-08-22T13:12:04.314Z</time>
      </trkpt>
      <trkpt lat="42.499445" lon="-0.116868">
        <ele>761.610791</ele>
        <time>2019-08-22T13:12:18.842Z</time>
      </trkpt>
      <trkpt lat="42.499180" lon="-0.116530">
        <ele>762.425566</ele>
        <time>2019-08-22T13:12:27.598Z</time>
      </trkpt>
      <trkpt lat="42.499124" lon="-0.116459">
        <ele>762.597263</ele>
        <time>2019-08-22T13:12:29.261Z</time>
      </trkpt>
      <trkpt lat="42.498792" lon="-0.115876">
        <ele>763.813769</ele>
        <time>2019-08-22T13:12:43.791Z</time>
      </trkpt>
      <trkpt lat="42.498721" lon="-0.115746">
        <ele>764.080935</ele>
        <time>2019-08-22T13:12:46.915Z</time>
      </trkpt>
      <trkpt lat="42.498198" lon="-0.114781">
        <ele>765.865768</ele>
        <time>2019-08-22T13:13:05.935Z</time>
      </trkpt>
      <trkpt lat="42.497524" lon="-0.112871">
        <ele>768.282269</ele>
        <time>2019-08-22T13:13:40.708Z</time>
      </trkpt>
      <trkpt lat="42.497196" lon="-0.111943">
        <ele>768.185054</ele>
        <time>2019-08-22T13:13:52.019Z</time>
      </trkpt>
      <trkpt lat="42.497158" lon="-0.111836">
        <ele>768.173835</ele>
        <time>2019-08-22T13:13:53.069Z</time>
      </trkpt>
      <trkpt lat="42.497030" lon="-0.111573">
        <ele>768.144066</ele>
        <time>2019-08-22T13:13:56.293Z</time>
      </trkpt>
      <trkpt lat="42.496888" lon="-0.111396">
        <ele>768.119357</ele>
        <time>2019-08-22T13:13:58.612Z</time>
      </trkpt>
      <trkpt lat="42.496681" lon="-0.111154">
        <ele>768.084343</ele>
        <time>2019-08-22T13:14:02.009Z</time>
      </trkpt>
      <trkpt lat="42.496547" lon="-0.110969">
        <ele>768.050190</ele>
        <time>2019-08-22T13:14:04.245Z</time>
      </trkpt>
      <trkpt lat="42.496455" lon="-0.110777">
        <ele>767.969083</ele>
        <time>2019-08-22T13:14:06.331Z</time>
      </trkpt>
      <trkpt lat="42.495805" lon="-0.108605">
        <ele>767.112533</ele>
        <time>2019-08-22T13:14:30.017Z</time>
      </trkpt>
      <trkpt lat="42.494866" lon="-0.106802">
        <ele>765.991413</ele>
        <time>2019-08-22T13:14:51.204Z</time>
      </trkpt>
      <trkpt lat="42.494227" lon="-0.105973">
        <ele>765.077749</ele>
        <time>2019-08-22T13:15:01.446Z</time>
      </trkpt>
      <trkpt lat="42.493841" lon="-0.105579">
        <ele>764.569645</ele>
        <time>2019-08-22T13:15:07.212Z</time>
      </trkpt>
      <trkpt lat="42.493689" lon="-0.105325">
        <ele>764.315959</ele>
        <time>2019-08-22T13:15:10.110Z</time>
      </trkpt>
      <trkpt lat="42.492163" lon="-0.101180">
        <ele>762.172519</ele>
        <time>2019-08-22T13:15:57.959Z</time>
      </trkpt>
      <trkpt lat="42.492018" lon="-0.100859">
        <ele>761.901194</ele>
        <time>2019-08-22T13:16:00.896Z</time>
      </trkpt>
      <trkpt lat="42.491822" lon="-0.100670">
        <ele>761.378871</ele>
        <time>2019-08-22T13:16:03.326Z</time>
      </trkpt>
      <trkpt lat="42.491527" lon="-0.100509">
        <ele>760.170579</ele>
        <time>2019-08-22T13:16:06.521Z</time>
      </trkpt>
      <trkpt lat="42.491048" lon="-0.100220">
        <ele>758.178499</ele>
        <time>2019-08-22T13:16:11.669Z</time>
      </trkpt>
      <trkpt lat="42.490960" lon="-0.100123">
        <ele>757.747599</ele>
        <time>2019-08-22T13:16:12.731Z</time>
      </trkpt>
      <trkpt lat="42.490871" lon="-0.099941">
        <ele>757.135711</ele>
        <time>2019-08-22T13:16:14.276Z</time>
      </trkpt>
      <trkpt lat="42.490710" lon="-0.099464">
        <ele>755.665852</ele>
        <time>2019-08-22T13:16:18.000Z</time>
      </trkpt>
      <trkpt lat="42.490328" lon="-0.098291">
        <ele>753.527568</ele>
        <time>2019-08-22T13:16:27.306Z</time>
      </trkpt>
      <trkpt lat="42.490254" lon="-0.098051">
        <ele>753.169628</ele>
        <time>2019-08-22T13:16:29.395Z</time>
      </trkpt>
      <trkpt lat="42.489304" lon="-0.095183">
        <ele>751.670422</ele>
        <time>2019-08-22T13:17:04.381Z</time>
      </trkpt>
      <trkpt lat="42.488799" lon="-0.093683">
        <ele>751.170061</ele>
        <time>2019-08-22T13:17:22.655Z</time>
      </trkpt>
      <trkpt lat="42.488116" lon="-0.092378">
        <ele>750.048688</ele>
        <time>2019-08-22T13:17:37.095Z</time>
      </trkpt>
      <trkpt lat="42.487378" lon="-0.091617">
        <ele>748.008993</ele>
        <time>2019-08-22T13:17:47.035Z</time>
      </trkpt>
      <trkpt lat="42.487248" lon="-0.091397">
        <ele>747.551623</ele>
        <time>2019-08-22T13:17:49.214Z</time>
      </trkpt>
      <trkpt lat="42.486702" lon="-0.089658">
        <ele>743.867687</ele>
        <time>2019-08-22T13:18:03.668Z</time>
      </trkpt>
      <trkpt lat="42.486088" lon="-0.088662">
        <ele>741.448400</ele>
        <time>2019-08-22T13:18:13.482Z</time>
      </trkpt>
      <trkpt lat="42.485988" lon="-0.088310">
        <ele>741.182286</ele>
        <time>2019-08-22T13:18:16.427Z</time>
      </trkpt>
      <trkpt lat="42.485806" lon="-0.087159">
        <ele>740.351835</ele>
        <time>2019-08-22T13:18:26.353Z</time>
      </trkpt>
      <trkpt lat="42.485810" lon="-0.086435">
        <ele>739.984407</ele>
        <time>2019-08-22T13:18:35.789Z</time>
      </trkpt>
      <trkpt lat="42.485895" lon="-0.085845">
        <ele>741.489898</ele>
        <time>2019-08-22T13:18:48.000Z</time>
      </trkpt>
      <trkpt lat="42.485970" lon="-0.085700">
        <ele>741.933444</ele>
        <time>2019-08-22T13:18:51.190Z</time>
      </trkpt>
      <trkpt lat="42.486317" lon="-0.085349">
        <ele>743.403581</ele>
        <time>2019-08-22T13:19:04.148Z</time>
      </trkpt>
      <trkpt lat="42.486356" lon="-0.085242">
        <ele>743.702486</ele>
        <time>2019-08-22T13:19:06.813Z</time>
      </trkpt>
      <trkpt lat="42.486343" lon="-0.085146">
        <ele>743.946921</ele>
        <time>2019-08-22T13:19:09.756Z</time>
      </trkpt>
      <trkpt lat="42.486040" lon="-0.084606">
        <ele>745.646216</ele>
        <time>2019-08-22T13:19:25.326Z</time>
      </trkpt>
      <trkpt lat="42.485911" lon="-0.084429">
        <ele>746.192731</ele>
        <time>2019-08-22T13:19:31.701Z</time>
      </trkpt>
      <trkpt lat="42.485402" lon="-0.084179">
        <ele>747.542783</ele>
        <time>2019-08-22T13:19:49.021Z</time>
      </trkpt>
      <trkpt lat="42.485076" lon="-0.083954">
        <ele>748.455015</ele>
        <time>2019-08-22T13:20:00.021Z</time>
      </trkpt>
      <trkpt lat="42.483584" lon="-0.082783">
        <ele>749.560988</ele>
        <time>2019-08-22T13:20:28.913Z</time>
      </trkpt>
      <trkpt lat="42.483012" lon="-0.082202">
        <ele>748.855829</ele>
        <time>2019-08-22T13:20:36.813Z</time>
      </trkpt>
      <trkpt lat="42.482040" lon="-0.081436">
        <ele>744.865019</ele>
        <time>2019-08-22T13:20:47.922Z</time>
      </trkpt>
      <trkpt lat="42.481513" lon="-0.080539">
        <ele>741.486030</ele>
        <time>2019-08-22T13:20:55.983Z</time>
      </trkpt>
      <trkpt lat="42.480929" lon="-0.079199">
        <ele>736.975993</ele>
        <time>2019-08-22T13:21:07.052Z</time>
      </trkpt>
      <trkpt lat="42.480003" lon="-0.076620">
        <ele>730.409626</ele>
        <time>2019-08-22T13:21:28.688Z</time>
      </trkpt>
      <trkpt lat="42.479919" lon="-0.076346">
        <ele>729.809689</ele>
        <time>2019-08-22T13:21:31.024Z</time>
      </trkpt>
      <trkpt lat="42.479086" lon="-0.073178">
        <ele>726.786161</ele>
        <time>2019-08-22T13:22:01.256Z</time>
      </trkpt>
      <trkpt lat="42.478790" lon="-0.072068">
        <ele>725.983377</ele>
        <time>2019-08-22T13:22:12.532Z</time>
      </trkpt>
      <trkpt lat="42.478760" lon="-0.071938">
        <ele>725.890732</ele>
        <time>2019-08-22T13:22:13.748Z</time>
      </trkpt>
      <trkpt lat="42.478501" lon="-0.070960">
        <ele>724.671699</ele>
        <time>2019-08-22T13:22:22.886Z</time>
      </trkpt>
      <trkpt lat="42.477972" lon="-0.068948">
        <ele>721.608936</ele>
        <time>2019-08-22T13:22:39.838Z</time>
      </trkpt>
      <trkpt lat="42.477147" lon="-0.065737">
        <ele>716.142725</ele>
        <time>2019-08-22T13:23:07.470Z</time>
      </trkpt>
      <trkpt lat="42.477014" lon="-0.064859">
        <ele>714.547633</ele>
        <time>2019-08-22T13:23:14.411Z</time>
      </trkpt>
      <trkpt lat="42.477009" lon="-0.064828">
        <ele>714.491162</ele>
        <time>2019-08-22T13:23:14.653Z</time>
      </trkpt>
      <trkpt lat="42.476977" lon="-0.064593">
        <ele>714.002282</ele>
        <time>2019-08-22T13:23:16.465Z</time>
      </trkpt>
      <trkpt lat="42.476355" lon="-0.060440">
        <ele>703.696727</ele>
        <time>2019-08-22T13:23:47.612Z</time>
      </trkpt>
      <trkpt lat="42.475609" lon="-0.055418">
        <ele>697.591819</ele>
        <time>2019-08-22T13:24:31.416Z</time>
      </trkpt>
      <trkpt lat="42.475593" lon="-0.055422">
        <ele>697.570128</ele>
        <time>2019-08-22T13:24:31.806Z</time>
      </trkpt>
      <trkpt lat="42.474724" lon="-0.049554">
        <ele>692.879783</ele>
        <time>2019-08-22T13:25:25.702Z</time>
      </trkpt>
      <trkpt lat="42.474913" lon="-0.046947">
        <ele>690.482794</ele>
        <time>2019-08-22T13:25:49.154Z</time>
      </trkpt>
      <trkpt lat="42.475007" lon="-0.045914">
        <ele>689.321736</ele>
        <time>2019-08-22T13:25:57.834Z</time>
      </trkpt>
      <trkpt lat="42.475013" lon="-0.045740">
        <ele>689.127426</ele>
        <time>2019-08-22T13:25:59.329Z</time>
      </trkpt>
      <trkpt lat="42.474978" lon="-0.045459">
        <ele>688.801035</ele>
        <time>2019-08-22T13:26:01.574Z</time>
      </trkpt>
      <trkpt lat="42.474666" lon="-0.044157">
        <ele>687.071792</ele>
        <time>2019-08-22T13:26:12.703Z</time>
      </trkpt>
      <trkpt lat="42.474522" lon="-0.043768">
        <ele>686.522011</ele>
        <time>2019-08-22T13:26:16.271Z</time>
      </trkpt>
      <trkpt lat="42.474364" lon="-0.043471">
        <ele>686.059453</ele>
        <time>2019-08-22T13:26:19.352Z</time>
      </trkpt>
      <trkpt lat="42.474148" lon="-0.043073">
        <ele>685.681230</ele>
        <time>2019-08-22T13:26:23.838Z</time>
      </trkpt>
      <trkpt lat="42.473928" lon="-0.042683">
        <ele>685.486967</ele>
        <time>2019-08-22T13:26:28.438Z</time>
      </trkpt>
      <trkpt lat="42.473046" lon="-0.041273">
        <ele>684.779564</ele>
        <time>2019-08-22T13:26:47.339Z</time>
      </trkpt>
      <trkpt lat="42.472920" lon="-0.040933">
        <ele>684.678641</ele>
        <time>2019-08-22T13:26:51.312Z</time>
      </trkpt>
      <trkpt lat="42.472024" lon="-0.037915">
        <ele>683.918591</ele>
        <time>2019-08-22T13:27:23.994Z</time>
      </trkpt>
      <trkpt lat="42.472021" lon="-0.037621">
        <ele>683.862517</ele>
        <time>2019-08-22T13:27:27.048Z</time>
      </trkpt>
      <trkpt lat="42.472082" lon="-0.037293">
        <ele>683.798007</ele>
        <time>2019-08-22T13:27:30.584Z</time>
      </trkpt>
      <trkpt lat="42.473384" lon="-0.032213">
        <ele>683.268177</ele>
        <time>2019-08-22T13:28:28.893Z</time>
      </trkpt>
      <trkpt lat="42.473463" lon="-0.031916">
        <ele>682.993169</ele>
        <time>2019-08-22T13:28:31.680Z</time>
      </trkpt>
      <trkpt lat="42.473779" lon="-0.030689">
        <ele>681.861128</ele>
        <time>2019-08-22T13:28:42.856Z</time>
      </trkpt>
      <trkpt lat="42.473945" lon="-0.030220">
        <ele>681.408012</ele>
        <time>2019-08-22T13:28:47.326Z</time>
      </trkpt>
      <trkpt lat="42.474087" lon="-0.029953">
        <ele>681.165197</ele>
        <time>2019-08-22T13:28:50.072Z</time>
      </trkpt>
      <trkpt lat="42.474300" lon="-0.029717">
        <ele>681.002583</ele>
        <time>2019-08-22T13:28:53.308Z</time>
      </trkpt>
      <trkpt lat="42.476668" lon="-0.027513">
        <ele>679.812005</ele>
        <time>2019-08-22T13:29:32.670Z</time>
      </trkpt>
      <trkpt lat="42.476748" lon="-0.027438">
        <ele>679.789184</ele>
        <time>2019-08-22T13:29:34.061Z</time>
      </trkpt>
      <trkpt lat="42.478060" lon="-0.026747">
        <ele>680.174231</ele>
        <time>2019-08-22T13:29:55.196Z</time>
      </trkpt>
      <trkpt lat="42.479320" lon="-0.026730">
        <ele>681.457717</ele>
        <time>2019-08-22T13:30:18.708Z</time>
      </trkpt>
      <trkpt lat="42.479495" lon="-0.026611">
        <ele>681.794631</ele>
        <time>2019-08-22T13:30:23.832Z</time>
      </trkpt>
      <trkpt lat="42.479537" lon="-0.026504">
        <ele>681.948475</ele>
        <time>2019-08-22T13:30:25.432Z</time>
      </trkpt>
      <trkpt lat="42.479591" lon="-0.025530">
        <ele>683.188182</ele>
        <time>2019-08-22T13:30:42.955Z</time>
      </trkpt>
      <trkpt lat="42.479606" lon="-0.025100">
        <ele>683.529979</ele>
        <time>2019-08-22T13:30:50.359Z</time>
      </trkpt>
      <trkpt lat="42.479580" lon="-0.024980">
        <ele>683.524754</ele>
        <time>2019-08-22T13:30:51.738Z</time>
      </trkpt>
      <trkpt lat="42.479544" lon="-0.024923">
        <ele>683.521619</ele>
        <time>2019-08-22T13:30:55.359Z</time>
      </trkpt>
      <trkpt lat="42.479511" lon="-0.024868">
        <ele>683.518657</ele>
        <time>2019-08-22T13:30:55.850Z</time>
      </trkpt>
      <trkpt lat="42.478953" lon="-0.024554">
        <ele>683.484435</ele>
        <time>2019-08-22T13:31:05.726Z</time>
      </trkpt>
      <trkpt lat="42.478596" lon="-0.024213">
        <ele>683.459698</ele>
        <time>2019-08-22T13:31:14.653Z</time>
      </trkpt>
      <trkpt lat="42.477550" lon="-0.022357">
        <ele>679.566423</ele>
        <time>2019-08-22T13:31:31.994Z</time>
      </trkpt>
      <trkpt lat="42.476092" lon="-0.020222">
        <ele>673.762165</ele>
        <time>2019-08-22T13:31:54.344Z</time>
      </trkpt>
      <trkpt lat="42.475952" lon="-0.019665">
        <ele>672.844743</ele>
        <time>2019-08-22T13:31:59.151Z</time>
      </trkpt>
      <trkpt lat="42.475897" lon="-0.019100">
        <ele>672.090521</ele>
        <time>2019-08-22T13:32:03.858Z</time>
      </trkpt>
      <trkpt lat="42.475811" lon="-0.018759">
        <ele>671.613578</ele>
        <time>2019-08-22T13:32:06.834Z</time>
      </trkpt>
      <trkpt lat="42.475424" lon="-0.017777">
        <ele>670.140080</ele>
        <time>2019-08-22T13:32:16.179Z</time>
      </trkpt>
      <trkpt lat="42.475160" lon="-0.016703">
        <ele>669.236208</ele>
        <time>2019-08-22T13:32:25.738Z</time>
      </trkpt>
      <trkpt lat="42.475007" lon="-0.014314">
        <ele>668.413630</ele>
        <time>2019-08-22T13:32:48.659Z</time>
      </trkpt>
      <trkpt lat="42.475093" lon="-0.013990">
        <ele>668.487724</ele>
        <time>2019-08-22T13:32:53.017Z</time>
      </trkpt>
      <trkpt lat="42.475281" lon="-0.013704">
        <ele>668.570158</ele>
        <time>2019-08-22T13:32:58.581Z</time>
      </trkpt>
      <trkpt lat="42.475322" lon="-0.013609">
        <ele>668.593843</ele>
        <time>2019-08-22T13:32:59.718Z</time>
      </trkpt>
      <trkpt lat="42.475433" lon="-0.013068">
        <ele>668.723328</ele>
        <time>2019-08-22T13:33:07.907Z</time>
      </trkpt>
      <trkpt lat="42.475433" lon="-0.012868">
        <ele>668.898741</ele>
        <time>2019-08-22T13:33:11.033Z</time>
      </trkpt>
      <trkpt lat="42.475415" lon="-0.012805">
        <ele>668.957997</ele>
        <time>2019-08-22T13:33:12.310Z</time>
      </trkpt>
      <trkpt lat="42.475393" lon="-0.012730">
        <ele>669.028788</ele>
        <time>2019-08-22T13:33:13.060Z</time>
      </trkpt>
      <trkpt lat="42.474897" lon="-0.012216">
        <ele>669.771154</ele>
        <time>2019-08-22T13:33:26.539Z</time>
      </trkpt>
      <trkpt lat="42.474792" lon="-0.012008">
        <ele>669.992222</ele>
        <time>2019-08-22T13:33:30.311Z</time>
      </trkpt>
      <trkpt lat="42.474336" lon="-0.008912">
        <ele>672.287578</ele>
        <time>2019-08-22T13:34:12.181Z</time>
      </trkpt>
      <trkpt lat="42.474281" lon="-0.008659">
        <ele>672.463520</ele>
        <time>2019-08-22T13:34:16.078Z</time>
      </trkpt>
      <trkpt lat="42.474270" lon="-0.008607">
        <ele>672.529242</ele>
        <time>2019-08-22T13:34:16.889Z</time>
      </trkpt>
      <trkpt lat="42.474065" lon="-0.007932">
        <ele>673.416098</ele>
        <time>2019-08-22T13:34:28.215Z</time>
      </trkpt>
      <trkpt lat="42.473843" lon="-0.007250">
        <ele>674.321766</ele>
        <time>2019-08-22T13:34:39.896Z</time>
      </trkpt>
      <trkpt lat="42.473797" lon="-0.007123">
        <ele>674.493659</ele>
        <time>2019-08-22T13:34:42.111Z</time>
      </trkpt>
      <trkpt lat="42.473594" lon="-0.006605">
        <ele>675.206297</ele>
        <time>2019-08-22T13:34:52.062Z</time>
      </trkpt>
      <trkpt lat="42.473158" lon="-0.005394">
        <ele>676.842697</ele>
        <time>2019-08-22T13:35:15.117Z</time>
      </trkpt>
      <trkpt lat="42.473123" lon="-0.005148">
        <ele>677.146909</ele>
        <time>2019-08-22T13:35:19.298Z</time>
      </trkpt>
      <trkpt lat="42.473128" lon="-0.004414">
        <ele>678.038210</ele>
        <time>2019-08-22T13:35:30.378Z</time>
      </trkpt>
      <trkpt lat="42.473130" lon="-0.004244">
        <ele>678.244659</ele>
        <time>2019-08-22T13:35:32.627Z</time>
      </trkpt>
      <trkpt lat="42.473119" lon="-0.003978">
        <ele>678.467407</ele>
        <time>2019-08-22T13:35:36.175Z</time>
      </trkpt>
      <trkpt lat="42.473060" lon="-0.003713">
        <ele>678.620781</ele>
        <time>2019-08-22T13:35:39.510Z</time>
      </trkpt>
      <trkpt lat="42.472788" lon="-0.003013">
        <ele>679.059165</ele>
        <time>2019-08-22T13:35:50.152Z</time>
      </trkpt>
      <trkpt lat="42.472641" lon="-0.002774">
        <ele>679.231590</ele>
        <time>2019-08-22T13:35:54.688Z</time>
      </trkpt>
      <trkpt lat="42.472166" lon="-0.002220">
        <ele>679.702276</ele>
        <time>2019-08-22T13:36:06.027Z</time>
      </trkpt>
      <trkpt lat="42.472061" lon="-0.002060">
        <ele>679.731300</ele>
        <time>2019-08-22T13:36:07.926Z</time>
      </trkpt>
      <trkpt lat="42.471940" lon="-0.001868">
        <ele>679.726986</ele>
        <time>2019-08-22T13:36:11.846Z</time>
      </trkpt>
      <trkpt lat="42.471805" lon="-0.001692">
        <ele>679.722648</ele>
        <time>2019-08-22T13:36:14.236Z</time>
      </trkpt>
      <trkpt lat="42.470762" lon="-0.000687">
        <ele>679.693009</ele>
        <time>2019-08-22T13:36:33.597Z</time>
      </trkpt>
      <trkpt lat="42.470475" lon="-0.000501">
        <ele>679.546447</ele>
        <time>2019-08-22T13:36:37.239Z</time>
      </trkpt>
      <trkpt lat="42.470189" lon="-0.000397">
        <ele>679.396668</ele>
        <time>2019-08-22T13:36:40.801Z</time>
      </trkpt>
      <trkpt lat="42.469479" lon="-0.000361">
        <ele>679.037283</ele>
        <time>2019-08-22T13:36:51.479Z</time>
      </trkpt>
      <trkpt lat="42.469355" lon="-0.000273">
        <ele>678.966487</ele>
        <time>2019-08-22T13:36:53.038Z</time>
      </trkpt>
      <trkpt lat="42.469308" lon="-0.000150">
        <ele>678.914801</ele>
        <time>2019-08-22T13:36:56.240Z</time>
      </trkpt>
      <trkpt lat="42.469317" lon="0.000036">
        <ele>678.845253</ele>
        <time>2019-08-22T13:36:57.917Z</time>
      </trkpt>
      <trkpt lat="42.469342" lon="0.000158">
        <ele>678.798009</ele>
        <time>2019-08-22T13:36:58.817Z</time>
      </trkpt>
      <trkpt lat="42.469428" lon="0.000306">
        <ele>678.546959</ele>
        <time>2019-08-22T13:37:02.235Z</time>
      </trkpt>
      <trkpt lat="42.469626" lon="0.000477">
        <ele>678.036625</ele>
        <time>2019-08-22T13:37:04.601Z</time>
      </trkpt>
      <trkpt lat="42.469641" lon="0.000559">
        <ele>677.901156</ele>
        <time>2019-08-22T13:37:05.522Z</time>
      </trkpt>
      <trkpt lat="42.469636" lon="0.000629">
        <ele>677.788387</ele>
        <time>2019-08-22T13:37:07.406Z</time>
      </trkpt>
      <trkpt lat="42.469524" lon="0.000849">
        <ele>677.359761</ele>
        <time>2019-08-22T13:37:09.394Z</time>
      </trkpt>
      <trkpt lat="42.469445" lon="0.000903">
        <ele>677.167435</ele>
        <time>2019-08-22T13:37:10.340Z</time>
      </trkpt>
      <trkpt lat="42.469109" lon="0.000971">
        <ele>676.428938</ele>
        <time>2019-08-22T13:37:14.033Z</time>
      </trkpt>
      <trkpt lat="42.469005" lon="0.001003">
        <ele>676.197112</ele>
        <time>2019-08-22T13:37:16.395Z</time>
      </trkpt>
      <trkpt lat="42.468520" lon="0.001191">
        <ele>675.100559</ele>
        <time>2019-08-22T13:37:21.561Z</time>
      </trkpt>
      <trkpt lat="42.468267" lon="0.001250">
        <ele>674.035415</ele>
        <time>2019-08-22T13:37:24.159Z</time>
      </trkpt>
      <trkpt lat="42.467552" lon="0.001234">
        <ele>670.092963</ele>
        <time>2019-08-22T13:37:30.693Z</time>
      </trkpt>
      <trkpt lat="42.467334" lon="0.001347">
        <ele>668.806230</ele>
        <time>2019-08-22T13:37:32.778Z</time>
      </trkpt>
      <trkpt lat="42.467219" lon="0.001470">
        <ele>667.998642</ele>
        <time>2019-08-22T13:37:34.097Z</time>
      </trkpt>
      <trkpt lat="42.467172" lon="0.001953">
        <ele>666.017329</ele>
        <time>2019-08-22T13:37:37.391Z</time>
      </trkpt>
      <trkpt lat="42.466968" lon="0.002234">
        <ele>664.691263</ele>
        <time>2019-08-22T13:37:40.101Z</time>
      </trkpt>
      <trkpt lat="42.466583" lon="0.003293">
        <ele>662.344581</ele>
        <time>2019-08-22T13:37:48.620Z</time>
      </trkpt>
      <trkpt lat="42.466515" lon="0.003701">
        <ele>661.513172</ele>
        <time>2019-08-22T13:37:52.016Z</time>
      </trkpt>
      <trkpt lat="42.466722" lon="0.004060">
        <ele>660.607475</ele>
        <time>2019-08-22T13:37:56.638Z</time>
      </trkpt>
      <trkpt lat="42.466748" lon="0.004241">
        <ele>660.240951</ele>
        <time>2019-08-22T13:37:59.227Z</time>
      </trkpt>
      <trkpt lat="42.466661" lon="0.004533">
        <ele>660.044319</ele>
        <time>2019-08-22T13:38:02.785Z</time>
      </trkpt>
      <trkpt lat="42.466668" lon="0.004688">
        <ele>660.003410</ele>
        <time>2019-08-22T13:38:05.105Z</time>
      </trkpt>
      <trkpt lat="42.466991" lon="0.005128">
        <ele>659.839885</ele>
        <time>2019-08-22T13:38:12.342Z</time>
      </trkpt>
      <trkpt lat="42.467556" lon="0.005182">
        <ele>659.637614</ele>
        <time>2019-08-22T13:38:19.738Z</time>
      </trkpt>
      <trkpt lat="42.467717" lon="0.005289">
        <ele>659.573581</ele>
        <time>2019-08-22T13:38:22.769Z</time>
      </trkpt>
      <trkpt lat="42.467782" lon="0.005393">
        <ele>659.537673</ele>
        <time>2019-08-22T13:38:23.768Z</time>
      </trkpt>
      <trkpt lat="42.467742" lon="0.005660">
        <ele>659.458102</ele>
        <time>2019-08-22T13:38:27.166Z</time>
      </trkpt>
      <trkpt lat="42.467704" lon="0.005839">
        <ele>659.182177</ele>
        <time>2019-08-22T13:38:28.606Z</time>
      </trkpt>
      <trkpt lat="42.467691" lon="0.007118">
        <ele>657.287346</ele>
        <time>2019-08-22T13:38:39.608Z</time>
      </trkpt>
      <trkpt lat="42.467739" lon="0.007263">
        <ele>657.051912</ele>
        <time>2019-08-22T13:38:40.723Z</time>
      </trkpt>
      <trkpt lat="42.468242" lon="0.008032">
        <ele>655.505963</ele>
        <time>2019-08-22T13:38:48.502Z</time>
      </trkpt>
      <trkpt lat="42.468310" lon="0.008349">
        <ele>654.981770</ele>
        <time>2019-08-22T13:38:51.091Z</time>
      </trkpt>
      <trkpt lat="42.468320" lon="0.008633">
        <ele>654.530313</ele>
        <time>2019-08-22T13:38:53.443Z</time>
      </trkpt>
      <trkpt lat="42.468322" lon="0.008752">
        <ele>654.341313</ele>
        <time>2019-08-22T13:38:54.354Z</time>
      </trkpt>
      <trkpt lat="42.468377" lon="0.009130">
        <ele>653.729549</ele>
        <time>2019-08-22T13:38:57.583Z</time>
      </trkpt>
      <trkpt lat="42.468287" lon="0.009792">
        <ele>652.660704</ele>
        <time>2019-08-22T13:39:03.061Z</time>
      </trkpt>
      <trkpt lat="42.468280" lon="0.010678">
        <ele>651.430599</ele>
        <time>2019-08-22T13:39:10.313Z</time>
      </trkpt>
      <trkpt lat="42.468227" lon="0.010789">
        <ele>651.271486</ele>
        <time>2019-08-22T13:39:11.384Z</time>
      </trkpt>
      <trkpt lat="42.467939" lon="0.011003">
        <ele>650.735720</ele>
        <time>2019-08-22T13:39:14.999Z</time>
      </trkpt>
      <trkpt lat="42.467868" lon="0.011122">
        <ele>650.551543</ele>
        <time>2019-08-22T13:39:16.262Z</time>
      </trkpt>
      <trkpt lat="42.467752" lon="0.011674">
        <ele>649.860862</ele>
        <time>2019-08-22T13:39:21.037Z</time>
      </trkpt>
      <trkpt lat="42.467348" lon="0.012898">
        <ele>648.859292</ele>
        <time>2019-08-22T13:39:32.920Z</time>
      </trkpt>
      <trkpt lat="42.467334" lon="0.013084">
        <ele>648.805896</ele>
        <time>2019-08-22T13:39:34.759Z</time>
      </trkpt>
      <trkpt lat="42.467366" lon="0.013768">
        <ele>648.610160</ele>
        <time>2019-08-22T13:39:41.667Z</time>
      </trkpt>
      <trkpt lat="42.467381" lon="0.014101">
        <ele>648.514881</ele>
        <time>2019-08-22T13:39:45.386Z</time>
      </trkpt>
      <trkpt lat="42.467384" lon="0.014164">
        <ele>648.496851</ele>
        <time>2019-08-22T13:39:46.080Z</time>
      </trkpt>
      <trkpt lat="42.467411" lon="0.014733">
        <ele>648.366661</ele>
        <time>2019-08-22T13:39:52.662Z</time>
      </trkpt>
      <trkpt lat="42.467392" lon="0.015035">
        <ele>648.425901</ele>
        <time>2019-08-22T13:39:56.390Z</time>
      </trkpt>
      <trkpt lat="42.467197" lon="0.015872">
        <ele>648.597456</ele>
        <time>2019-08-22T13:40:07.391Z</time>
      </trkpt>
      <trkpt lat="42.467212" lon="0.016178">
        <ele>648.657395</ele>
        <time>2019-08-22T13:40:11.333Z</time>
      </trkpt>
      <trkpt lat="42.467682" lon="0.017899">
        <ele>648.554234</ele>
        <time>2019-08-22T13:40:31.096Z</time>
      </trkpt>
      <trkpt lat="42.467717" lon="0.018353">
        <ele>648.422062</ele>
        <time>2019-08-22T13:40:35.530Z</time>
      </trkpt>
      <trkpt lat="42.467731" lon="0.018961">
        <ele>648.245931</ele>
        <time>2019-08-22T13:40:41.350Z</time>
      </trkpt>
      <trkpt lat="42.467731" lon="0.019680">
        <ele>648.338808</ele>
        <time>2019-08-22T13:40:48.007Z</time>
      </trkpt>
      <trkpt lat="42.467641" lon="0.020505">
        <ele>648.940718</ele>
        <time>2019-08-22T13:40:57.311Z</time>
      </trkpt>
      <trkpt lat="42.467522" lon="0.020959">
        <ele>649.288459</ele>
        <time>2019-08-22T13:41:04.876Z</time>
      </trkpt>
      <trkpt lat="42.467280" lon="0.021288">
        <ele>649.623791</ele>
        <time>2019-08-22T13:41:12.768Z</time>
      </trkpt>
      <trkpt lat="42.467015" lon="0.021484">
        <ele>649.915736</ele>
        <time>2019-08-22T13:41:20.129Z</time>
      </trkpt>
      <trkpt lat="42.466503" lon="0.022170">
        <ele>650.552065</ele>
        <time>2019-08-22T13:41:41.826Z</time>
      </trkpt>
      <trkpt lat="42.466050" lon="0.023035">
        <ele>651.243784</ele>
        <time>2019-08-22T13:41:56.271Z</time>
      </trkpt>
      <trkpt lat="42.465987" lon="0.023345">
        <ele>651.453455</ele>
        <time>2019-08-22T13:41:59.930Z</time>
      </trkpt>
      <trkpt lat="42.465960" lon="0.023657">
        <ele>650.771271</ele>
        <time>2019-08-22T13:42:02.302Z</time>
      </trkpt>
      <trkpt lat="42.466174" lon="0.025284">
        <ele>646.671465</ele>
        <time>2019-08-22T13:42:14.325Z</time>
      </trkpt>
      <trkpt lat="42.466214" lon="0.025519">
        <ele>646.073176</ele>
        <time>2019-08-22T13:42:15.953Z</time>
      </trkpt>
      <trkpt lat="42.466138" lon="0.027193">
        <ele>643.164922</ele>
        <time>2019-08-22T13:42:28.351Z</time>
      </trkpt>
      <trkpt lat="42.465990" lon="0.030725">
        <ele>641.278889</ele>
        <time>2019-08-22T13:43:06.123Z</time>
      </trkpt>
      <trkpt lat="42.465944" lon="0.031189">
        <ele>641.024630</ele>
        <time>2019-08-22T13:43:11.377Z</time>
      </trkpt>
      <trkpt lat="42.465889" lon="0.031470">
        <ele>640.866742</ele>
        <time>2019-08-22T13:43:14.532Z</time>
      </trkpt>
      <trkpt lat="42.465685" lon="0.032125">
        <ele>640.480613</ele>
        <time>2019-08-22T13:43:21.649Z</time>
      </trkpt>
      <trkpt lat="42.463715" lon="0.036082">
        <ele>635.368493</ele>
        <time>2019-08-22T13:44:01.660Z</time>
      </trkpt>
      <trkpt lat="42.463590" lon="0.036547">
        <ele>634.790657</ele>
        <time>2019-08-22T13:44:05.857Z</time>
      </trkpt>
      <trkpt lat="42.463385" lon="0.037814">
        <ele>633.100994</ele>
        <time>2019-08-22T13:44:16.877Z</time>
      </trkpt>
      <trkpt lat="42.463297" lon="0.038556">
        <ele>632.058582</ele>
        <time>2019-08-22T13:44:23.167Z</time>
      </trkpt>
      <trkpt lat="42.463291" lon="0.039357">
        <ele>630.947489</ele>
        <time>2019-08-22T13:44:29.493Z</time>
      </trkpt>
      <trkpt lat="42.463371" lon="0.040204">
        <ele>629.473827</ele>
        <time>2019-08-22T13:44:36.210Z</time>
      </trkpt>
      <trkpt lat="42.463481" lon="0.040767">
        <ele>628.446230</ele>
        <time>2019-08-22T13:44:40.782Z</time>
      </trkpt>
      <trkpt lat="42.463697" lon="0.041519">
        <ele>627.022390</ele>
        <time>2019-08-22T13:44:47.107Z</time>
      </trkpt>
      <trkpt lat="42.465582" lon="0.047149">
        <ele>618.164160</ele>
        <time>2019-08-22T13:45:36.917Z</time>
      </trkpt>
      <trkpt lat="42.465775" lon="0.047969">
        <ele>617.479134</ele>
        <time>2019-08-22T13:45:44.650Z</time>
      </trkpt>
      <trkpt lat="42.465795" lon="0.048162">
        <ele>617.324024</ele>
        <time>2019-08-22T13:45:46.571Z</time>
      </trkpt>
      <trkpt lat="42.465819" lon="0.048530">
        <ele>617.066260</ele>
        <time>2019-08-22T13:45:50.562Z</time>
      </trkpt>
      <trkpt lat="42.465772" lon="0.049425">
        <ele>619.320265</ele>
        <time>2019-08-22T13:46:03.715Z</time>
      </trkpt>
      <trkpt lat="42.465664" lon="0.049978">
        <ele>620.757310</ele>
        <time>2019-08-22T13:46:15.122Z</time>
      </trkpt>
      <trkpt lat="42.465455" lon="0.050582">
        <ele>622.433247</ele>
        <time>2019-08-22T13:46:32.221Z</time>
      </trkpt>
      <trkpt lat="42.465180" lon="0.051103">
        <ele>625.432881</ele>
        <time>2019-08-22T13:46:52.434Z</time>
      </trkpt>
      <trkpt lat="42.464888" lon="0.051495">
        <ele>629.046381</ele>
        <time>2019-08-22T13:47:12.759Z</time>
      </trkpt>
      <trkpt lat="42.464544" lon="0.051839">
        <ele>632.805106</ele>
        <time>2019-08-22T13:47:35.813Z</time>
      </trkpt>
      <trkpt lat="42.464189" lon="0.052095">
        <ele>636.340782</ele>
        <time>2019-08-22T13:47:58.304Z</time>
      </trkpt>
      <trkpt lat="42.463481" lon="0.052367">
        <ele>641.428501</ele>
        <time>2019-08-22T13:48:37.200Z</time>
      </trkpt>
      <trkpt lat="42.463025" lon="0.052410">
        <ele>643.997445</ele>
        <time>2019-08-22T13:48:57.734Z</time>
      </trkpt>
      <trkpt lat="42.462548" lon="0.052339">
        <ele>646.694331</ele>
        <time>2019-08-22T13:49:15.755Z</time>
      </trkpt>
      <trkpt lat="42.461035" lon="0.051721">
        <ele>646.196743</ele>
        <time>2019-08-22T13:49:38.278Z</time>
      </trkpt>
      <trkpt lat="42.460208" lon="0.051377">
        <ele>642.471330</ele>
        <time>2019-08-22T13:49:46.114Z</time>
      </trkpt>
      <trkpt lat="42.459653" lon="0.051154">
        <ele>636.933952</ele>
        <time>2019-08-22T13:49:51.132Z</time>
      </trkpt>
      <trkpt lat="42.459133" lon="0.051022">
        <ele>631.873242</ele>
        <time>2019-08-22T13:49:55.650Z</time>
      </trkpt>
      <trkpt lat="42.458707" lon="0.050998">
        <ele>627.794680</ele>
        <time>2019-08-22T13:49:59.271Z</time>
      </trkpt>
      <trkpt lat="42.458320" lon="0.051063">
        <ele>624.426013</ele>
        <time>2019-08-22T13:50:02.597Z</time>
      </trkpt>
      <trkpt lat="42.457813" lon="0.051274">
        <ele>619.906378</ele>
        <time>2019-08-22T13:50:07.186Z</time>
      </trkpt>
      <trkpt lat="42.457346" lon="0.051624">
        <ele>615.358827</ele>
        <time>2019-08-22T13:50:11.886Z</time>
      </trkpt>
      <trkpt lat="42.456970" lon="0.052043">
        <ele>611.730026</ele>
        <time>2019-08-22T13:50:16.269Z</time>
      </trkpt>
      <trkpt lat="42.456146" lon="0.053399">
        <ele>607.518490</ele>
        <time>2019-08-22T13:50:29.211Z</time>
      </trkpt>
      <trkpt lat="42.455776" lon="0.053882">
        <ele>606.299122</ele>
        <time>2019-08-22T13:50:35.755Z</time>
      </trkpt>
      <trkpt lat="42.455190" lon="0.054470">
        <ele>606.921315</ele>
        <time>2019-08-22T13:50:48.142Z</time>
      </trkpt>
      <trkpt lat="42.453073" lon="0.056313">
        <ele>609.121462</ele>
        <time>2019-08-22T13:51:42.737Z</time>
      </trkpt>
      <trkpt lat="42.452624" lon="0.056579">
        <ele>608.528293</ele>
        <time>2019-08-22T13:51:48.082Z</time>
      </trkpt>
      <trkpt lat="42.452083" lon="0.056778">
        <ele>606.698181</ele>
        <time>2019-08-22T13:51:53.833Z</time>
      </trkpt>
      <trkpt lat="42.451799" lon="0.056859">
        <ele>605.750690</ele>
        <time>2019-08-22T13:51:56.700Z</time>
      </trkpt>
      <trkpt lat="42.451623" lon="0.056896">
        <ele>605.169227</ele>
        <time>2019-08-22T13:51:58.385Z</time>
      </trkpt>
      <trkpt lat="42.451165" lon="0.057028">
        <ele>603.640546</ele>
        <time>2019-08-22T13:52:02.891Z</time>
      </trkpt>
      <trkpt lat="42.450815" lon="0.057177">
        <ele>602.523854</ele>
        <time>2019-08-22T13:52:06.398Z</time>
      </trkpt>
      <trkpt lat="42.450542" lon="0.057329">
        <ele>601.636702</ele>
        <time>2019-08-22T13:52:09.218Z</time>
      </trkpt>
      <trkpt lat="42.450271" lon="0.057519">
        <ele>600.719566</ele>
        <time>2019-08-22T13:52:12.196Z</time>
      </trkpt>
      <trkpt lat="42.449887" lon="0.057869">
        <ele>599.328558</ele>
        <time>2019-08-22T13:52:17.150Z</time>
      </trkpt>
      <trkpt lat="42.449647" lon="0.058142">
        <ele>598.386722</ele>
        <time>2019-08-22T13:52:20.895Z</time>
      </trkpt>
      <trkpt lat="42.449356" lon="0.058556">
        <ele>597.696168</ele>
        <time>2019-08-22T13:52:26.063Z</time>
      </trkpt>
      <trkpt lat="42.449323" lon="0.058609">
        <ele>597.636924</ele>
        <time>2019-08-22T13:52:26.750Z</time>
      </trkpt>
      <trkpt lat="42.448983" lon="0.059150">
        <ele>597.029823</ele>
        <time>2019-08-22T13:52:33.245Z</time>
      </trkpt>
      <trkpt lat="42.448916" lon="0.059257">
        <ele>596.909933</ele>
        <time>2019-08-22T13:52:34.468Z</time>
      </trkpt>
      <trkpt lat="42.448653" lon="0.059710">
        <ele>596.417498</ele>
        <time>2019-08-22T13:52:39.782Z</time>
      </trkpt>
      <trkpt lat="42.446475" lon="0.063159">
        <ele>591.384022</ele>
        <time>2019-08-22T13:53:18.282Z</time>
      </trkpt>
      <trkpt lat="42.444834" lon="0.065722">
        <ele>587.027989</ele>
        <time>2019-08-22T13:53:46.238Z</time>
      </trkpt>
      <trkpt lat="42.444413" lon="0.066374">
        <ele>585.974400</ele>
        <time>2019-08-22T13:53:53.505Z</time>
      </trkpt>
      <trkpt lat="42.444209" lon="0.066737">
        <ele>585.419514</ele>
        <time>2019-08-22T13:53:57.376Z</time>
      </trkpt>
      <trkpt lat="42.443263" lon="0.068388">
        <ele>582.954243</ele>
        <time>2019-08-22T13:54:14.895Z</time>
      </trkpt>
      <trkpt lat="42.442875" lon="0.069053">
        <ele>581.983583</ele>
        <time>2019-08-22T13:54:22.048Z</time>
      </trkpt>
      <trkpt lat="42.442490" lon="0.069711">
        <ele>581.169357</ele>
        <time>2019-08-22T13:54:29.266Z</time>
      </trkpt>
      <trkpt lat="42.442430" lon="0.069815">
        <ele>581.077346</ele>
        <time>2019-08-22T13:54:30.413Z</time>
      </trkpt>
      <trkpt lat="42.442345" lon="0.069955">
        <ele>580.950985</ele>
        <time>2019-08-22T13:54:32.007Z</time>
      </trkpt>
      <trkpt lat="42.442325" lon="0.069987">
        <ele>580.921757</ele>
        <time>2019-08-22T13:54:32.373Z</time>
      </trkpt>
      <trkpt lat="42.442268" lon="0.070073">
        <ele>580.841187</ele>
        <time>2019-08-22T13:54:33.378Z</time>
      </trkpt>
      <trkpt lat="42.442160" lon="0.070253">
        <ele>580.679492</ele>
        <time>2019-08-22T13:54:35.430Z</time>
      </trkpt>
      <trkpt lat="42.442052" lon="0.070440">
        <ele>580.513982</ele>
        <time>2019-08-22T13:54:37.566Z</time>
      </trkpt>
      <trkpt lat="42.441994" lon="0.070538">
        <ele>580.426422</ele>
        <time>2019-08-22T13:54:38.708Z</time>
      </trkpt>
      <trkpt lat="42.441912" lon="0.070678">
        <ele>580.301841</ele>
        <time>2019-08-22T13:54:40.361Z</time>
      </trkpt>
      <trkpt lat="42.440879" lon="0.072440">
        <ele>579.284950</ele>
        <time>2019-08-22T13:55:02.396Z</time>
      </trkpt>
      <trkpt lat="42.440842" lon="0.072503">
        <ele>579.260866</ele>
        <time>2019-08-22T13:55:03.161Z</time>
      </trkpt>
      <trkpt lat="42.440654" lon="0.072824">
        <ele>579.138282</ele>
        <time>2019-08-22T13:55:07.395Z</time>
      </trkpt>
      <trkpt lat="42.440087" lon="0.073777">
        <ele>578.894464</ele>
        <time>2019-08-22T13:55:20.105Z</time>
      </trkpt>
      <trkpt lat="42.439814" lon="0.074238">
        <ele>578.826646</ele>
        <time>2019-08-22T13:55:26.411Z</time>
      </trkpt>
      <trkpt lat="42.439385" lon="0.074979">
        <ele>578.718585</ele>
        <time>2019-08-22T13:55:36.586Z</time>
      </trkpt>
      <trkpt lat="42.438650" lon="0.076234">
        <ele>578.068630</ele>
        <time>2019-08-22T13:55:52.779Z</time>
      </trkpt>
      <trkpt lat="42.438510" lon="0.076418">
        <ele>577.947819</ele>
        <time>2019-08-22T13:55:55.220Z</time>
      </trkpt>
      <trkpt lat="42.438165" lon="0.077040">
        <ele>577.592127</ele>
        <time>2019-08-22T13:56:02.291Z</time>
      </trkpt>
      <trkpt lat="42.437959" lon="0.077384">
        <ele>577.190613</ele>
        <time>2019-08-22T13:56:06.195Z</time>
      </trkpt>
      <trkpt lat="42.437502" lon="0.077977">
        <ele>576.382069</ele>
        <time>2019-08-22T13:56:13.606Z</time>
      </trkpt>
      <trkpt lat="42.437268" lon="0.078259">
        <ele>575.981906</ele>
        <time>2019-08-22T13:56:17.223Z</time>
      </trkpt>
      <trkpt lat="42.437061" lon="0.078551">
        <ele>575.600076</ele>
        <time>2019-08-22T13:56:20.733Z</time>
      </trkpt>
      <trkpt lat="42.437011" lon="0.078598">
        <ele>575.522316</ele>
        <time>2019-08-22T13:56:21.412Z</time>
      </trkpt>
      <trkpt lat="42.436714" lon="0.079131">
        <ele>575.038375</ele>
        <time>2019-08-22T13:56:27.342Z</time>
      </trkpt>
      <trkpt lat="42.436655" lon="0.079272">
        <ele>574.943289</ele>
        <time>2019-08-22T13:56:28.786Z</time>
      </trkpt>
      <trkpt lat="42.436428" lon="0.079807">
        <ele>574.581262</ele>
        <time>2019-08-22T13:56:34.442Z</time>
      </trkpt>
      <trkpt lat="42.436233" lon="0.080464">
        <ele>574.165835</ele>
        <time>2019-08-22T13:56:41.212Z</time>
      </trkpt>
      <trkpt lat="42.436032" lon="0.081445">
        <ele>573.862308</ele>
        <time>2019-08-22T13:56:51.156Z</time>
      </trkpt>
      <trkpt lat="42.435550" lon="0.083773">
        <ele>574.189245</ele>
        <time>2019-08-22T13:57:18.880Z</time>
      </trkpt>
      <trkpt lat="42.435534" lon="0.083900">
        <ele>574.265535</ele>
        <time>2019-08-22T13:57:20.572Z</time>
      </trkpt>
      <trkpt lat="42.435198" lon="0.086413">
        <ele>575.397661</ele>
        <time>2019-08-22T13:57:56.462Z</time>
      </trkpt>
      <trkpt lat="42.435153" lon="0.086779">
        <ele>575.417053</ele>
        <time>2019-08-22T13:58:01.064Z</time>
      </trkpt>
      <trkpt lat="42.434833" lon="0.089194">
        <ele>574.775517</ele>
        <time>2019-08-22T13:58:24.607Z</time>
      </trkpt>
      <trkpt lat="42.434480" lon="0.091835">
        <ele>572.967375</ele>
        <time>2019-08-22T13:58:48.591Z</time>
      </trkpt>
      <trkpt lat="42.434460" lon="0.091980">
        <ele>572.864907</ele>
        <time>2019-08-22T13:58:49.955Z</time>
      </trkpt>
      <trkpt lat="42.433087" lon="0.102309">
        <ele>567.204114</ele>
        <time>2019-08-22T14:00:29.210Z</time>
      </trkpt>
      <trkpt lat="42.432389" lon="0.107484">
        <ele>564.266528</ele>
        <time>2019-08-22T14:01:19.033Z</time>
      </trkpt>
      <trkpt lat="42.432213" lon="0.108455">
        <ele>563.183753</ele>
        <time>2019-08-22T14:01:27.573Z</time>
      </trkpt>
      <trkpt lat="42.431941" lon="0.109560">
        <ele>561.922308</ele>
        <time>2019-08-22T14:01:37.268Z</time>
      </trkpt>
      <trkpt lat="42.431665" lon="0.110396">
        <ele>561.100767</ele>
        <time>2019-08-22T14:01:44.937Z</time>
      </trkpt>
      <trkpt lat="42.431309" lon="0.111300">
        <ele>560.202141</ele>
        <time>2019-08-22T14:01:53.929Z</time>
      </trkpt>
      <trkpt lat="42.430981" lon="0.111988">
        <ele>559.686907</ele>
        <time>2019-08-22T14:02:01.595Z</time>
      </trkpt>
      <trkpt lat="42.423851" lon="0.124447">
        <ele>559.118953</ele>
        <time>2019-08-22T14:04:55.289Z</time>
      </trkpt>
      <trkpt lat="42.423393" lon="0.125149">
        <ele>558.803741</ele>
        <time>2019-08-22T14:05:04.125Z</time>
      </trkpt>
      <trkpt lat="42.423010" lon="0.125699">
        <ele>557.588548</ele>
        <time>2019-08-22T14:05:10.608Z</time>
      </trkpt>
      <trkpt lat="42.421939" lon="0.126943">
        <ele>553.951648</ele>
        <time>2019-08-22T14:05:25.151Z</time>
      </trkpt>
      <trkpt lat="42.419505" lon="0.129233">
        <ele>543.558472</ele>
        <time>2019-08-22T14:05:54.211Z</time>
      </trkpt>
      <trkpt lat="42.419112" lon="0.129739">
        <ele>541.828231</ele>
        <time>2019-08-22T14:06:00.143Z</time>
      </trkpt>
      <trkpt lat="42.418725" lon="0.130350">
        <ele>541.372960</ele>
        <time>2019-08-22T14:06:07.149Z</time>
      </trkpt>
      <trkpt lat="42.418292" lon="0.131362">
        <ele>540.752024</ele>
        <time>2019-08-22T14:06:18.948Z</time>
      </trkpt>
      <trkpt lat="42.417878" lon="0.132533">
        <ele>540.715171</ele>
        <time>2019-08-22T14:06:32.968Z</time>
      </trkpt>
      <trkpt lat="42.417074" lon="0.134225">
        <ele>541.443458</ele>
        <time>2019-08-22T14:06:57.990Z</time>
      </trkpt>
      <trkpt lat="42.416929" lon="0.134731">
        <ele>541.857412</ele>
        <time>2019-08-22T14:07:06.666Z</time>
      </trkpt>
      <trkpt lat="42.416855" lon="0.135248">
        <ele>542.259046</ele>
        <time>2019-08-22T14:07:14.750Z</time>
      </trkpt>
      <trkpt lat="42.416750" lon="0.136372">
        <ele>542.913336</ele>
        <time>2019-08-22T14:07:30.547Z</time>
      </trkpt>
      <trkpt lat="42.416728" lon="0.136557">
        <ele>542.815495</ele>
        <time>2019-08-22T14:07:33.063Z</time>
      </trkpt>
      <trkpt lat="42.416720" lon="0.136631">
        <ele>542.776445</ele>
        <time>2019-08-22T14:07:33.817Z</time>
      </trkpt>
      <trkpt lat="42.416705" lon="0.136733">
        <ele>542.722140</ele>
        <time>2019-08-22T14:07:34.984Z</time>
      </trkpt>
      <trkpt lat="42.416684" lon="0.136848">
        <ele>542.660285</ele>
        <time>2019-08-22T14:07:36.309Z</time>
      </trkpt>
      <trkpt lat="42.416587" lon="0.137158">
        <ele>542.484483</ele>
        <time>2019-08-22T14:07:39.822Z</time>
      </trkpt>
      <trkpt lat="42.416496" lon="0.137335">
        <ele>542.371862</ele>
        <time>2019-08-22T14:07:41.826Z</time>
      </trkpt>
      <trkpt lat="42.416291" lon="0.137557">
        <ele>542.186234</ele>
        <time>2019-08-22T14:07:44.971Z</time>
      </trkpt>
      <trkpt lat="42.415704" lon="0.137990">
        <ele>541.698824</ele>
        <time>2019-08-22T14:07:52.643Z</time>
      </trkpt>
      <trkpt lat="42.415466" lon="0.138164">
        <ele>541.291166</ele>
        <time>2019-08-22T14:07:55.499Z</time>
      </trkpt>
      <trkpt lat="42.415182" lon="0.138414">
        <ele>540.780633</ele>
        <time>2019-08-22T14:07:59.154Z</time>
      </trkpt>
      <trkpt lat="42.415026" lon="0.138583">
        <ele>540.479537</ele>
        <time>2019-08-22T14:08:01.423Z</time>
      </trkpt>
      <trkpt lat="42.414987" lon="0.138638">
        <ele>540.394674</ele>
        <time>2019-08-22T14:08:02.043Z</time>
      </trkpt>
      <trkpt lat="42.414578" lon="0.139136">
        <ele>539.565714</ele>
        <time>2019-08-22T14:08:08.517Z</time>
      </trkpt>
      <trkpt lat="42.414540" lon="0.139183">
        <ele>539.488150</ele>
        <time>2019-08-22T14:08:09.173Z</time>
      </trkpt>
      <trkpt lat="42.414444" lon="0.139602">
        <ele>538.995665</ele>
        <time>2019-08-22T14:08:13.315Z</time>
      </trkpt>
      <trkpt lat="42.414511" lon="0.140007">
        <ele>538.405861</ele>
        <time>2019-08-22T14:08:17.205Z</time>
      </trkpt>
      <trkpt lat="42.414557" lon="0.140244">
        <ele>538.057624</ele>
        <time>2019-08-22T14:08:19.491Z</time>
      </trkpt>
      <trkpt lat="42.414638" lon="0.140632">
        <ele>537.484633</ele>
        <time>2019-08-22T14:08:22.971Z</time>
      </trkpt>
      <trkpt lat="42.414823" lon="0.141581">
        <ele>536.089826</ele>
        <time>2019-08-22T14:08:30.726Z</time>
      </trkpt>
      <trkpt lat="42.414832" lon="0.141648">
        <ele>535.993052</ele>
        <time>2019-08-22T14:08:31.239Z</time>
      </trkpt>
      <trkpt lat="42.415093" lon="0.143586">
        <ele>532.455444</ele>
        <time>2019-08-22T14:08:46.140Z</time>
      </trkpt>
      <trkpt lat="42.415101" lon="0.143644">
        <ele>532.345368</ele>
        <time>2019-08-22T14:08:46.588Z</time>
      </trkpt>
      <trkpt lat="42.415106" lon="0.143682">
        <ele>532.273359</ele>
        <time>2019-08-22T14:08:46.877Z</time>
      </trkpt>
      <trkpt lat="42.415137" lon="0.144066">
        <ele>531.552706</ele>
        <time>2019-08-22T14:08:49.921Z</time>
      </trkpt>
      <trkpt lat="42.415126" lon="0.144154">
        <ele>531.386198</ele>
        <time>2019-08-22T14:08:50.652Z</time>
      </trkpt>
      <trkpt lat="42.415114" lon="0.144216">
        <ele>531.266624</ele>
        <time>2019-08-22T14:08:51.187Z</time>
      </trkpt>
      <trkpt lat="42.415101" lon="0.144269">
        <ele>531.162434</ele>
        <time>2019-08-22T14:08:51.665Z</time>
      </trkpt>
      <trkpt lat="42.415083" lon="0.144309">
        <ele>531.075041</ele>
        <time>2019-08-22T14:08:52.073Z</time>
      </trkpt>
      <trkpt lat="42.415074" lon="0.144355">
        <ele>531.010309</ele>
        <time>2019-08-22T14:08:52.481Z</time>
      </trkpt>
      <trkpt lat="42.415076" lon="0.144402">
        <ele>531.018495</ele>
        <time>2019-08-22T14:08:52.891Z</time>
      </trkpt>
      <trkpt lat="42.415089" lon="0.144446">
        <ele>531.026735</ele>
        <time>2019-08-22T14:08:53.303Z</time>
      </trkpt>
      <trkpt lat="42.415111" lon="0.144483">
        <ele>531.034996</ele>
        <time>2019-08-22T14:08:53.705Z</time>
      </trkpt>
      <trkpt lat="42.415139" lon="0.144509">
        <ele>531.042992</ele>
        <time>2019-08-22T14:08:54.113Z</time>
      </trkpt>
      <trkpt lat="42.415172" lon="0.144542">
        <ele>531.052653</ele>
        <time>2019-08-22T14:08:54.613Z</time>
      </trkpt>
      <trkpt lat="42.415246" lon="0.144676">
        <ele>531.081750</ele>
        <time>2019-08-22T14:08:56.208Z</time>
      </trkpt>
      <trkpt lat="42.415264" lon="0.144798">
        <ele>531.103383</ele>
        <time>2019-08-22T14:08:57.514Z</time>
      </trkpt>
      <trkpt lat="42.415280" lon="0.144974">
        <ele>531.134218</ele>
        <time>2019-08-22T14:08:59.450Z</time>
      </trkpt>
      <trkpt lat="42.415298" lon="0.145113">
        <ele>531.158756</ele>
        <time>2019-08-22T14:09:01.033Z</time>
      </trkpt>
      <trkpt lat="42.415390" lon="0.145793">
        <ele>531.278965</ele>
        <time>2019-08-22T14:09:10.364Z</time>
      </trkpt>
      <trkpt lat="42.415503" lon="0.146643">
        <ele>531.429141</ele>
        <time>2019-08-22T14:09:22.789Z</time>
      </trkpt>
      <trkpt lat="42.415499" lon="0.146918">
        <ele>531.509007</ele>
        <time>2019-08-22T14:09:26.704Z</time>
      </trkpt>
      <trkpt lat="42.415451" lon="0.147128">
        <ele>531.574397</ele>
        <time>2019-08-22T14:09:29.553Z</time>
      </trkpt>
      <trkpt lat="42.415332" lon="0.147343">
        <ele>531.654326</ele>
        <time>2019-08-22T14:09:33.250Z</time>
      </trkpt>
      <trkpt lat="42.415113" lon="0.147538">
        <ele>531.759918</ele>
        <time>2019-08-22T14:09:37.771Z</time>
      </trkpt>
      <trkpt lat="42.414913" lon="0.147698">
        <ele>531.853503</ele>
        <time>2019-08-22T14:09:41.505Z</time>
      </trkpt>
      <trkpt lat="42.414434" lon="0.148036">
        <ele>532.071110</ele>
        <time>2019-08-22T14:09:49.887Z</time>
      </trkpt>
      <trkpt lat="42.414405" lon="0.147961">
        <ele>532.096294</ele>
        <time>2019-08-22T14:09:51.072Z</time>
      </trkpt>
      <trkpt lat="42.413893" lon="0.148331">
        <ele>532.034772</ele>
        <time>2019-08-22T14:09:58.915Z</time>
      </trkpt>
      <trkpt lat="42.413787" lon="0.148411">
        <ele>532.000464</ele>
        <time>2019-08-22T14:10:00.538Z</time>
      </trkpt>
      <trkpt lat="42.413111" lon="0.148886">
        <ele>531.785152</ele>
        <time>2019-08-22T14:10:10.889Z</time>
      </trkpt>
      <trkpt lat="42.411782" lon="0.149844">
        <ele>531.663230</ele>
        <time>2019-08-22T14:10:32.249Z</time>
      </trkpt>
      <trkpt lat="42.411362" lon="0.150241">
        <ele>531.670860</ele>
        <time>2019-08-22T14:10:40.129Z</time>
      </trkpt>
      <trkpt lat="42.410922" lon="0.150901">
        <ele>531.881116</ele>
        <time>2019-08-22T14:10:50.616Z</time>
      </trkpt>
      <trkpt lat="42.410851" lon="0.151115">
        <ele>531.972611</ele>
        <time>2019-08-22T14:10:53.565Z</time>
      </trkpt>
      <trkpt lat="42.410851" lon="0.151180">
        <ele>531.997960</ele>
        <time>2019-08-22T14:10:54.408Z</time>
      </trkpt>
      <trkpt lat="42.410663" lon="0.151479">
        <ele>532.151117</ele>
        <time>2019-08-22T14:10:59.250Z</time>
      </trkpt>
      <trkpt lat="42.410601" lon="0.151578">
        <ele>532.201744</ele>
        <time>2019-08-22T14:11:00.944Z</time>
      </trkpt>
      <trkpt lat="42.410468" lon="0.151720">
        <ele>532.291196</ele>
        <time>2019-08-22T14:11:03.748Z</time>
      </trkpt>
      <trkpt lat="42.410385" lon="0.151791">
        <ele>532.343048</ele>
        <time>2019-08-22T14:11:05.470Z</time>
      </trkpt>
      <trkpt lat="42.410315" lon="0.151796">
        <ele>532.380073</ele>
        <time>2019-08-22T14:11:06.743Z</time>
      </trkpt>
      <trkpt lat="42.410208" lon="0.151973">
        <ele>532.469286</ele>
        <time>2019-08-22T14:11:09.554Z</time>
      </trkpt>
      <trkpt lat="42.410218" lon="0.152066">
        <ele>532.505937</ele>
        <time>2019-08-22T14:11:10.782Z</time>
      </trkpt>
      <trkpt lat="42.410193" lon="0.152218">
        <ele>532.566668</ele>
        <time>2019-08-22T14:11:12.900Z</time>
      </trkpt>
      <trkpt lat="42.410092" lon="0.152488">
        <ele>532.772456</ele>
        <time>2019-08-22T14:11:16.850Z</time>
      </trkpt>
      <trkpt lat="42.409982" lon="0.152669">
        <ele>532.997922</ele>
        <time>2019-08-22T14:11:20.103Z</time>
      </trkpt>
      <trkpt lat="42.409414" lon="0.153605">
        <ele>534.163177</ele>
        <time>2019-08-22T14:11:36.714Z</time>
      </trkpt>
      <trkpt lat="42.409330" lon="0.153745">
        <ele>534.336679</ele>
        <time>2019-08-22T14:11:39.331Z</time>
      </trkpt>
      <trkpt lat="42.408517" lon="0.155087">
        <ele>537.603031</ele>
        <time>2019-08-22T14:12:09.863Z</time>
      </trkpt>
      <trkpt lat="42.408308" lon="0.155432">
        <ele>538.692211</ele>
        <time>2019-08-22T14:12:19.814Z</time>
      </trkpt>
      <trkpt lat="42.407757" lon="0.156341">
        <ele>541.329990</ele>
        <time>2019-08-22T14:12:48.817Z</time>
      </trkpt>
      <trkpt lat="42.407159" lon="0.157312">
        <ele>543.310282</ele>
        <time>2019-08-22T14:13:14.827Z</time>
      </trkpt>
      <trkpt lat="42.406713" lon="0.158035">
        <ele>544.731940</ele>
        <time>2019-08-22T14:13:25.617Z</time>
      </trkpt>
      <trkpt lat="42.406452" lon="0.158544">
        <ele>544.791247</ele>
        <time>2019-08-22T14:13:30.815Z</time>
      </trkpt>
      <trkpt lat="42.406204" lon="0.159250">
        <ele>544.866069</ele>
        <time>2019-08-22T14:13:38.110Z</time>
      </trkpt>
      <trkpt lat="42.406020" lon="0.159992">
        <ele>544.940978</ele>
        <time>2019-08-22T14:13:45.484Z</time>
      </trkpt>
      <trkpt lat="42.405949" lon="0.160467">
        <ele>546.404013</ele>
        <time>2019-08-22T14:13:52.334Z</time>
      </trkpt>
      <trkpt lat="42.405728" lon="0.162596">
        <ele>557.907785</ele>
        <time>2019-08-22T14:15:10.060Z</time>
      </trkpt>
      <trkpt lat="42.405677" lon="0.162870">
        <ele>559.768506</ele>
        <time>2019-08-22T14:15:22.851Z</time>
      </trkpt>
      <trkpt lat="42.405571" lon="0.163381">
        <ele>563.304035</ele>
        <time>2019-08-22T14:15:44.464Z</time>
      </trkpt>
      <trkpt lat="42.405381" lon="0.164008">
        <ele>567.818506</ele>
        <time>2019-08-22T14:16:10.701Z</time>
      </trkpt>
      <trkpt lat="42.405065" lon="0.164577">
        <ele>572.560986</ele>
        <time>2019-08-22T14:16:39.287Z</time>
      </trkpt>
      <trkpt lat="42.404501" lon="0.165256">
        <ele>576.818234</ele>
        <time>2019-08-22T14:17:09.419Z</time>
      </trkpt>
      <trkpt lat="42.403739" lon="0.166087">
        <ele>581.271314</ele>
        <time>2019-08-22T14:17:38.993Z</time>
      </trkpt>
      <trkpt lat="42.402908" lon="0.166993">
        <ele>582.140561</ele>
        <time>2019-08-22T14:18:03.575Z</time>
      </trkpt>
      <trkpt lat="42.397794" lon="0.172451">
        <ele>579.101426</ele>
        <time>2019-08-22T14:19:25.579Z</time>
      </trkpt>
      <trkpt lat="42.395908" lon="0.174445">
        <ele>577.369731</ele>
        <time>2019-08-22T14:19:55.699Z</time>
      </trkpt>
      <trkpt lat="42.392480" lon="0.178085">
        <ele>574.927823</ele>
        <time>2019-08-22T14:20:53.488Z</time>
      </trkpt>
      <trkpt lat="42.390974" lon="0.179755">
        <ele>573.381306</ele>
        <time>2019-08-22T14:21:18.259Z</time>
      </trkpt>
      <trkpt lat="42.390376" lon="0.180641">
        <ele>571.589330</ele>
        <time>2019-08-22T14:21:28.512Z</time>
      </trkpt>
      <trkpt lat="42.390223" lon="0.180929">
        <ele>570.989638</ele>
        <time>2019-08-22T14:21:31.433Z</time>
      </trkpt>
      <trkpt lat="42.390094" lon="0.181337">
        <ele>570.239417</ele>
        <time>2019-08-22T14:21:34.918Z</time>
      </trkpt>
      <trkpt lat="42.389956" lon="0.182171">
        <ele>568.457201</ele>
        <time>2019-08-22T14:21:41.251Z</time>
      </trkpt>
      <trkpt lat="42.389939" lon="0.182717">
        <ele>566.595985</ele>
        <time>2019-08-22T14:21:45.180Z</time>
      </trkpt>
      <trkpt lat="42.390014" lon="0.183355">
        <ele>564.395738</ele>
        <time>2019-08-22T14:21:49.735Z</time>
      </trkpt>
      <trkpt lat="42.390169" lon="0.184023">
        <ele>562.011037</ele>
        <time>2019-08-22T14:21:54.621Z</time>
      </trkpt>
      <trkpt lat="42.390479" lon="0.184834">
        <ele>558.730185</ele>
        <time>2019-08-22T14:22:00.893Z</time>
      </trkpt>
      <trkpt lat="42.393425" lon="0.189634">
        <ele>537.557195</ele>
        <time>2019-08-22T14:22:44.474Z</time>
      </trkpt>
      <trkpt lat="42.394546" lon="0.191459">
        <ele>536.802073</ele>
        <time>2019-08-22T14:23:12.443Z</time>
      </trkpt>
      <trkpt lat="42.395178" lon="0.192736">
        <ele>537.786877</ele>
        <time>2019-08-22T14:23:36.692Z</time>
      </trkpt>
      <trkpt lat="42.395328" lon="0.193380">
        <ele>538.346302</ele>
        <time>2019-08-22T14:23:46.241Z</time>
      </trkpt>
      <trkpt lat="42.395357" lon="0.194035">
        <ele>538.889907</ele>
        <time>2019-08-22T14:23:54.962Z</time>
      </trkpt>
      <trkpt lat="42.395357" lon="0.194212">
        <ele>539.013677</ele>
        <time>2019-08-22T14:23:57.361Z</time>
      </trkpt>
      <trkpt lat="42.395351" lon="0.194467">
        <ele>539.110119</ele>
        <time>2019-08-22T14:24:00.496Z</time>
      </trkpt>
      <trkpt lat="42.395224" lon="0.195071">
        <ele>539.347512</ele>
        <time>2019-08-22T14:24:08.210Z</time>
      </trkpt>
      <trkpt lat="42.394609" lon="0.196726">
        <ele>540.069309</ele>
        <time>2019-08-22T14:24:31.164Z</time>
      </trkpt>
      <trkpt lat="42.394489" lon="0.197289">
        <ele>540.326618</ele>
        <time>2019-08-22T14:24:38.668Z</time>
      </trkpt>
      <trkpt lat="42.394447" lon="0.197884">
        <ele>540.589079</ele>
        <time>2019-08-22T14:24:46.461Z</time>
      </trkpt>
      <trkpt lat="42.394459" lon="0.198126">
        <ele>540.695583</ele>
        <time>2019-08-22T14:24:49.717Z</time>
      </trkpt>
      <trkpt lat="42.394931" lon="0.200868">
        <ele>541.534113</ele>
        <time>2019-08-22T14:25:24.444Z</time>
      </trkpt>
      <trkpt lat="42.395230" lon="0.202036">
        <ele>541.564900</ele>
        <time>2019-08-22T14:25:37.739Z</time>
      </trkpt>
      <trkpt lat="42.395690" lon="0.203180">
        <ele>541.510441</ele>
        <time>2019-08-22T14:25:51.540Z</time>
      </trkpt>
      <trkpt lat="42.396886" lon="0.205515">
        <ele>541.469035</ele>
        <time>2019-08-22T14:26:22.347Z</time>
      </trkpt>
      <trkpt lat="42.397139" lon="0.206154">
        <ele>541.628054</ele>
        <time>2019-08-22T14:26:30.419Z</time>
      </trkpt>
      <trkpt lat="42.397508" lon="0.207396">
        <ele>541.921671</ele>
        <time>2019-08-22T14:26:46.277Z</time>
      </trkpt>
      <trkpt lat="42.397801" lon="0.208828">
        <ele>543.558803</ele>
        <time>2019-08-22T14:27:07.306Z</time>
      </trkpt>
      <trkpt lat="42.398284" lon="0.210847">
        <ele>547.133658</ele>
        <time>2019-08-22T14:27:45.795Z</time>
      </trkpt>
      <trkpt lat="42.399590" lon="0.214723">
        <ele>556.882327</ele>
        <time>2019-08-22T14:29:15.204Z</time>
      </trkpt>
      <trkpt lat="42.400176" lon="0.215897">
        <ele>559.119978</ele>
        <time>2019-08-22T14:29:39.455Z</time>
      </trkpt>
      <trkpt lat="42.400820" lon="0.216759">
        <ele>560.807391</ele>
        <time>2019-08-22T14:29:57.062Z</time>
      </trkpt>
      <trkpt lat="42.402862" lon="0.218439">
        <ele>566.095209</ele>
        <time>2019-08-22T14:30:49.147Z</time>
      </trkpt>
      <trkpt lat="42.403114" lon="0.218707">
        <ele>567.051814</ele>
        <time>2019-08-22T14:30:59.005Z</time>
      </trkpt>
      <trkpt lat="42.403391" lon="0.219002">
        <ele>568.103881</ele>
        <time>2019-08-22T14:31:10.682Z</time>
      </trkpt>
      <trkpt lat="42.404659" lon="0.220798">
        <ele>577.768125</ele>
        <time>2019-08-22T14:32:18.779Z</time>
      </trkpt>
      <trkpt lat="42.405096" lon="0.221299">
        <ele>580.581649</ele>
        <time>2019-08-22T14:32:38.495Z</time>
      </trkpt>
      <trkpt lat="42.405491" lon="0.221596">
        <ele>582.788811</ele>
        <time>2019-08-22T14:32:55.432Z</time>
      </trkpt>
      <trkpt lat="42.406330" lon="0.222056">
        <ele>586.998848</ele>
        <time>2019-08-22T14:33:25.090Z</time>
      </trkpt>
      <trkpt lat="42.406534" lon="0.222130">
        <ele>587.565520</ele>
        <time>2019-08-22T14:33:32.138Z</time>
      </trkpt>
      <trkpt lat="42.406891" lon="0.222238">
        <ele>588.547038</ele>
        <time>2019-08-22T14:33:42.331Z</time>
      </trkpt>
      <trkpt lat="42.407487" lon="0.222418">
        <ele>590.185519</ele>
        <time>2019-08-22T14:33:56.732Z</time>
      </trkpt>
      <trkpt lat="42.407621" lon="0.222472">
        <ele>590.560650</ele>
        <time>2019-08-22T14:34:00.475Z</time>
      </trkpt>
      <trkpt lat="42.407800" lon="0.222545">
        <ele>591.062250</ele>
        <time>2019-08-22T14:34:04.238Z</time>
      </trkpt>
      <trkpt lat="42.408447" lon="0.222965">
        <ele>592.416064</ele>
        <time>2019-08-22T14:34:18.349Z</time>
      </trkpt>
      <trkpt lat="42.408884" lon="0.223425">
        <ele>593.303855</ele>
        <time>2019-08-22T14:34:28.365Z</time>
      </trkpt>
      <trkpt lat="42.409310" lon="0.224216">
        <ele>594.477864</ele>
        <time>2019-08-22T14:34:44.975Z</time>
      </trkpt>
      <trkpt lat="42.409436" lon="0.224547">
        <ele>595.475063</ele>
        <time>2019-08-22T14:34:52.049Z</time>
      </trkpt>
      <trkpt lat="42.409603" lon="0.225254">
        <ele>597.462750</ele>
        <time>2019-08-22T14:35:07.314Z</time>
      </trkpt>
      <trkpt lat="42.409634" lon="0.225577">
        <ele>598.334937</ele>
        <time>2019-08-22T14:35:15.111Z</time>
      </trkpt>
      <trkpt lat="42.409649" lon="0.226002">
        <ele>599.474276</ele>
        <time>2019-08-22T14:35:24.627Z</time>
      </trkpt>
      <trkpt lat="42.409648" lon="0.226027">
        <ele>599.541318</ele>
        <time>2019-08-22T14:35:25.426Z</time>
      </trkpt>
      <trkpt lat="42.409631" lon="0.226406">
        <ele>600.558053</ele>
        <time>2019-08-22T14:35:34.232Z</time>
      </trkpt>
      <trkpt lat="42.409579" lon="0.226793">
        <ele>601.909662</ele>
        <time>2019-08-22T14:35:43.709Z</time>
      </trkpt>
      <trkpt lat="42.409539" lon="0.227020">
        <ele>602.827558</ele>
        <time>2019-08-22T14:35:50.115Z</time>
      </trkpt>
      <trkpt lat="42.409420" lon="0.227699">
        <ele>605.572362</ele>
        <time>2019-08-22T14:36:07.264Z</time>
      </trkpt>
      <trkpt lat="42.408706" lon="0.231477">
        <ele>623.213414</ele>
        <time>2019-08-22T14:37:58.790Z</time>
      </trkpt>
      <trkpt lat="42.408537" lon="0.232664">
        <ele>630.568734</ele>
        <time>2019-08-22T14:38:50.674Z</time>
      </trkpt>
      <trkpt lat="42.408394" lon="0.234252">
        <ele>636.199507</ele>
        <time>2019-08-22T14:39:44.812Z</time>
      </trkpt>
      <trkpt lat="42.408348" lon="0.239304">
        <ele>621.421404</ele>
        <time>2019-08-22T14:40:20.159Z</time>
      </trkpt>
      <trkpt lat="42.408425" lon="0.240445">
        <ele>615.757909</ele>
        <time>2019-08-22T14:40:27.644Z</time>
      </trkpt>
      <trkpt lat="42.408575" lon="0.242048">
        <ele>609.469441</ele>
        <time>2019-08-22T14:40:38.461Z</time>
      </trkpt>
      <trkpt lat="42.408604" lon="0.242287">
        <ele>608.654868</ele>
        <time>2019-08-22T14:40:40.188Z</time>
      </trkpt>
      <trkpt lat="42.408613" lon="0.242376">
        <ele>608.352754</ele>
        <time>2019-08-22T14:40:40.819Z</time>
      </trkpt>
      <trkpt lat="42.408672" lon="0.242907">
        <ele>606.546819</ele>
        <time>2019-08-22T14:40:44.922Z</time>
      </trkpt>
      <trkpt lat="42.408733" lon="0.243392">
        <ele>604.892539</ele>
        <time>2019-08-22T14:40:48.830Z</time>
      </trkpt>
      <trkpt lat="42.408809" lon="0.244176">
        <ele>604.535432</ele>
        <time>2019-08-22T14:40:55.655Z</time>
      </trkpt>
      <trkpt lat="42.408660" lon="0.245499">
        <ele>603.931031</ele>
        <time>2019-08-22T14:41:09.750Z</time>
      </trkpt>
      <trkpt lat="42.407869" lon="0.248455">
        <ele>604.333082</ele>
        <time>2019-08-22T14:41:48.800Z</time>
      </trkpt>
      <trkpt lat="42.407500" lon="0.249782">
        <ele>603.906555</ele>
        <time>2019-08-22T14:42:02.417Z</time>
      </trkpt>
      <trkpt lat="42.407337" lon="0.250383">
        <ele>603.723221</ele>
        <time>2019-08-22T14:42:08.232Z</time>
      </trkpt>
      <trkpt lat="42.407224" lon="0.250875">
        <ele>603.770969</ele>
        <time>2019-08-22T14:42:13.118Z</time>
      </trkpt>
      <trkpt lat="42.407160" lon="0.251710">
        <ele>603.848764</ele>
        <time>2019-08-22T14:42:21.795Z</time>
      </trkpt>
      <trkpt lat="42.407212" lon="0.252188">
        <ele>603.893539</ele>
        <time>2019-08-22T14:42:27.302Z</time>
      </trkpt>
      <trkpt lat="42.407256" lon="0.252604">
        <ele>603.932483</ele>
        <time>2019-08-22T14:42:33.260Z</time>
      </trkpt>
      <trkpt lat="42.407365" lon="0.253350">
        <ele>605.007836</ele>
        <time>2019-08-22T14:42:45.082Z</time>
      </trkpt>
      <trkpt lat="42.407512" lon="0.254166">
        <ele>606.478071</ele>
        <time>2019-08-22T14:42:58.854Z</time>
      </trkpt>
      <trkpt lat="42.407534" lon="0.254245">
        <ele>606.625862</ele>
        <time>2019-08-22T14:43:00.883Z</time>
      </trkpt>
      <trkpt lat="42.407737" lon="0.254865">
        <ele>607.813029</ele>
        <time>2019-08-22T14:43:14.320Z</time>
      </trkpt>
      <trkpt lat="42.408206" lon="0.255696">
        <ele>611.552559</ele>
        <time>2019-08-22T14:43:37.929Z</time>
      </trkpt>
      <trkpt lat="42.408432" lon="0.255989">
        <ele>613.282009</ele>
        <time>2019-08-22T14:43:48.711Z</time>
      </trkpt>
      <trkpt lat="42.410405" lon="0.258527">
        <ele>631.929501</ele>
        <time>2019-08-22T14:45:45.417Z</time>
      </trkpt>
      <trkpt lat="42.412277" lon="0.261350">
        <ele>659.989004</ele>
        <time>2019-08-22T14:48:28.613Z</time>
      </trkpt>
      <trkpt lat="42.413013" lon="0.262488">
        <ele>669.035620</ele>
        <time>2019-08-22T14:49:21.508Z</time>
      </trkpt>
      <trkpt lat="42.415274" lon="0.265973">
        <ele>684.277834</ele>
        <time>2019-08-22T14:51:10.085Z</time>
      </trkpt>
      <trkpt lat="42.416289" lon="0.267516">
        <ele>688.068569</ele>
        <time>2019-08-22T14:51:45.908Z</time>
      </trkpt>
      <trkpt lat="42.417304" lon="0.269056">
        <ele>691.361556</ele>
        <time>2019-08-22T14:52:19.542Z</time>
      </trkpt>
      <trkpt lat="42.421404" lon="0.275371">
        <ele>708.836856</ele>
        <time>2019-08-22T14:55:09.387Z</time>
      </trkpt>
      <trkpt lat="42.423843" lon="0.279018">
        <ele>706.484351</ele>
        <time>2019-08-22T14:55:55.721Z</time>
      </trkpt>
      <trkpt lat="42.424171" lon="0.279386">
        <ele>705.228040</ele>
        <time>2019-08-22T14:56:00.038Z</time>
      </trkpt>
      <trkpt lat="42.425781" lon="0.280921">
        <ele>698.887671</ele>
        <time>2019-08-22T14:56:19.125Z</time>
      </trkpt>
      <trkpt lat="42.426140" lon="0.281388">
        <ele>697.175481</ele>
        <time>2019-08-22T14:56:24.135Z</time>
      </trkpt>
      <trkpt lat="42.426589" lon="0.282185">
        <ele>696.989712</ele>
        <time>2019-08-22T14:56:32.686Z</time>
      </trkpt>
      <trkpt lat="42.426920" lon="0.283130">
        <ele>697.799306</ele>
        <time>2019-08-22T14:56:47.216Z</time>
      </trkpt>
      <trkpt lat="42.427008" lon="0.283458">
        <ele>698.069424</ele>
        <time>2019-08-22T14:56:53.705Z</time>
      </trkpt>
      <trkpt lat="42.427439" lon="0.285059">
        <ele>704.755016</ele>
        <time>2019-08-22T14:57:37.836Z</time>
      </trkpt>
      <trkpt lat="42.427528" lon="0.285388">
        <ele>706.394058</ele>
        <time>2019-08-22T14:57:49.309Z</time>
      </trkpt>
      <trkpt lat="42.428265" lon="0.288099">
        <ele>724.223711</ele>
        <time>2019-08-22T14:59:36.760Z</time>
      </trkpt>
      <trkpt lat="42.428457" lon="0.288804">
        <ele>729.409174</ele>
        <time>2019-08-22T15:00:07.004Z</time>
      </trkpt>
      <trkpt lat="42.428580" lon="0.289320">
        <ele>733.219750</ele>
        <time>2019-08-22T15:00:28.769Z</time>
      </trkpt>
      <trkpt lat="42.428706" lon="0.289965">
        <ele>737.908514</ele>
        <time>2019-08-22T15:00:55.751Z</time>
      </trkpt>
      <trkpt lat="42.428774" lon="0.290417">
        <ele>741.150224</ele>
        <time>2019-08-22T15:01:13.434Z</time>
      </trkpt>
      <trkpt lat="42.428832" lon="0.290983">
        <ele>744.638664</ele>
        <time>2019-08-22T15:01:34.388Z</time>
      </trkpt>
      <trkpt lat="42.428897" lon="0.291746">
        <ele>748.674966</ele>
        <time>2019-08-22T15:02:02.401Z</time>
      </trkpt>
      <trkpt lat="42.428966" lon="0.292639">
        <ele>753.393459</ele>
        <time>2019-08-22T15:02:30.035Z</time>
      </trkpt>
      <trkpt lat="42.429032" lon="0.293288">
        <ele>756.447338</ele>
        <time>2019-08-22T15:02:47.369Z</time>
      </trkpt>
      <trkpt lat="42.429057" lon="0.293531">
        <ele>757.211690</ele>
        <time>2019-08-22T15:02:53.043Z</time>
      </trkpt>
      <trkpt lat="42.429353" lon="0.295341">
        <ele>762.987226</ele>
        <time>2019-08-22T15:03:33.029Z</time>
      </trkpt>
      <trkpt lat="42.429860" lon="0.297395">
        <ele>771.747770</ele>
        <time>2019-08-22T15:04:29.833Z</time>
      </trkpt>
      <trkpt lat="42.430078" lon="0.298090">
        <ele>775.632384</ele>
        <time>2019-08-22T15:04:54.575Z</time>
      </trkpt>
      <trkpt lat="42.430280" lon="0.298731">
        <ele>780.148476</ele>
        <time>2019-08-22T15:05:18.706Z</time>
      </trkpt>
      <trkpt lat="42.430730" lon="0.300163">
        <ele>790.535515</ele>
        <time>2019-08-22T15:06:19.348Z</time>
      </trkpt>
      <trkpt lat="42.430864" lon="0.300593">
        <ele>794.534700</ele>
        <time>2019-08-22T15:06:39.791Z</time>
      </trkpt>
      <trkpt lat="42.431179" lon="0.301615">
        <ele>804.024054</ele>
        <time>2019-08-22T15:07:30.374Z</time>
      </trkpt>
      <trkpt lat="42.431275" lon="0.301931">
        <ele>806.951920</ele>
        <time>2019-08-22T15:07:46.549Z</time>
      </trkpt>
      <trkpt lat="42.431369" lon="0.302237">
        <ele>809.791736</ele>
        <time>2019-08-22T15:08:02.091Z</time>
      </trkpt>
      <trkpt lat="42.431442" lon="0.302540">
        <ele>812.845938</ele>
        <time>2019-08-22T15:08:18.021Z</time>
      </trkpt>
      <trkpt lat="42.431587" lon="0.303603">
        <ele>823.382899</ele>
        <time>2019-08-22T15:09:13.081Z</time>
      </trkpt>
      <trkpt lat="42.431534" lon="0.304792">
        <ele>834.884662</ele>
        <time>2019-08-22T15:10:13.970Z</time>
      </trkpt>
      <trkpt lat="42.431356" lon="0.305716">
        <ele>843.241149</ele>
        <time>2019-08-22T15:10:59.220Z</time>
      </trkpt>
      <trkpt lat="42.431047" lon="0.307154">
        <ele>856.042863</ele>
        <time>2019-08-22T15:12:07.537Z</time>
      </trkpt>
      <trkpt lat="42.430582" lon="0.308973">
        <ele>868.207617</ele>
        <time>2019-08-22T15:13:17.876Z</time>
      </trkpt>
      <trkpt lat="42.430322" lon="0.309773">
        <ele>872.588755</ele>
        <time>2019-08-22T15:13:43.808Z</time>
      </trkpt>
      <trkpt lat="42.429727" lon="0.311366">
        <ele>879.685034</ele>
        <time>2019-08-22T15:14:29.140Z</time>
      </trkpt>
      <trkpt lat="42.429193" lon="0.312535">
        <ele>886.248895</ele>
        <time>2019-08-22T15:15:04.460Z</time>
      </trkpt>
      <trkpt lat="42.428293" lon="0.314202">
        <ele>898.704504</ele>
        <time>2019-08-22T15:16:16.899Z</time>
      </trkpt>
      <trkpt lat="42.427700" lon="0.315119">
        <ele>908.101629</ele>
        <time>2019-08-22T15:17:12.131Z</time>
      </trkpt>
      <trkpt lat="42.427159" lon="0.315869">
        <ele>916.058895</ele>
        <time>2019-08-22T15:18:01.691Z</time>
      </trkpt>
      <trkpt lat="42.426282" lon="0.316949">
        <ele>928.133765</ele>
        <time>2019-08-22T15:19:08.198Z</time>
      </trkpt>
      <trkpt lat="42.425192" lon="0.318077">
        <ele>936.098521</ele>
        <time>2019-08-22T15:20:00.986Z</time>
      </trkpt>
      <trkpt lat="42.425020" lon="0.318255">
        <ele>937.265454</ele>
        <time>2019-08-22T15:20:07.290Z</time>
      </trkpt>
      <trkpt lat="42.424482" lon="0.318827">
        <ele>940.008193</ele>
        <time>2019-08-22T15:20:25.658Z</time>
      </trkpt>
      <trkpt lat="42.424206" lon="0.319193">
        <ele>941.061700</ele>
        <time>2019-08-22T15:20:35.180Z</time>
      </trkpt>
      <trkpt lat="42.424023" lon="0.319489">
        <ele>941.839127</ele>
        <time>2019-08-22T15:20:41.790Z</time>
      </trkpt>
      <trkpt lat="42.423869" lon="0.319761">
        <ele>942.529353</ele>
        <time>2019-08-22T15:20:47.383Z</time>
      </trkpt>
      <trkpt lat="42.423791" lon="0.319920">
        <ele>942.913755</ele>
        <time>2019-08-22T15:20:50.630Z</time>
      </trkpt>
      <trkpt lat="42.423744" lon="0.320017">
        <ele>943.147385</ele>
        <time>2019-08-22T15:20:52.634Z</time>
      </trkpt>
      <trkpt lat="42.423387" lon="0.320905">
        <ele>945.855306</ele>
        <time>2019-08-22T15:21:13.841Z</time>
      </trkpt>
      <trkpt lat="42.423078" lon="0.321735">
        <ele>948.744471</ele>
        <time>2019-08-22T15:21:35.284Z</time>
      </trkpt>
      <trkpt lat="42.422960" lon="0.322054">
        <ele>949.853450</ele>
        <time>2019-08-22T15:21:44.266Z</time>
      </trkpt>
      <trkpt lat="42.422429" lon="0.323131">
        <ele>954.485680</ele>
        <time>2019-08-22T15:22:18.679Z</time>
      </trkpt>
      <trkpt lat="42.421807" lon="0.324218">
        <ele>959.860250</ele>
        <time>2019-08-22T15:22:56.729Z</time>
      </trkpt>
      <trkpt lat="42.417547" lon="0.331500">
        <ele>988.324962</ele>
        <time>2019-08-22T15:26:41.441Z</time>
      </trkpt>
      <trkpt lat="42.416018" lon="0.334168">
        <ele>986.734922</ele>
        <time>2019-08-22T15:27:09.246Z</time>
      </trkpt>
      <trkpt lat="42.415295" lon="0.335410">
        <ele>986.582170</ele>
        <time>2019-08-22T15:27:24.545Z</time>
      </trkpt>
      <trkpt lat="42.413069" lon="0.339210">
        <ele>990.410852</ele>
        <time>2019-08-22T15:28:41.228Z</time>
      </trkpt>
      <trkpt lat="42.412197" lon="0.341075">
        <ele>989.332686</ele>
        <time>2019-08-22T15:29:01.000Z</time>
      </trkpt>
      <trkpt lat="42.411569" lon="0.342019">
        <ele>988.394011</ele>
        <time>2019-08-22T15:29:11.261Z</time>
      </trkpt>
      <trkpt lat="42.411168" lon="0.342805">
        <ele>988.298210</ele>
        <time>2019-08-22T15:29:19.947Z</time>
      </trkpt>
      <trkpt lat="42.410905" lon="0.343714">
        <ele>988.200312</ele>
        <time>2019-08-22T15:29:33.021Z</time>
      </trkpt>
      <trkpt lat="42.410752" lon="0.345245">
        <ele>989.707842</ele>
        <time>2019-08-22T15:29:59.855Z</time>
      </trkpt>
      <trkpt lat="42.410738" lon="0.345393">
        <ele>989.871247</ele>
        <time>2019-08-22T15:30:03.731Z</time>
      </trkpt>
      <trkpt lat="42.410544" lon="0.347527">
        <ele>989.194244</ele>
        <time>2019-08-22T15:30:29.124Z</time>
      </trkpt>
      <trkpt lat="42.410472" lon="0.349685">
        <ele>984.525033</ele>
        <time>2019-08-22T15:30:44.714Z</time>
      </trkpt>
      <trkpt lat="42.410518" lon="0.350312">
        <ele>982.524246</ele>
        <time>2019-08-22T15:30:49.063Z</time>
      </trkpt>
      <trkpt lat="42.410695" lon="0.351070">
        <ele>979.999780</ele>
        <time>2019-08-22T15:30:54.739Z</time>
      </trkpt>
      <trkpt lat="42.411015" lon="0.352020">
        <ele>978.326253</ele>
        <time>2019-08-22T15:31:02.620Z</time>
      </trkpt>
      <trkpt lat="42.411064" lon="0.352192">
        <ele>978.040234</ele>
        <time>2019-08-22T15:31:04.015Z</time>
      </trkpt>
      <trkpt lat="42.411112" lon="0.352367">
        <ele>977.750608</ele>
        <time>2019-08-22T15:31:05.622Z</time>
      </trkpt>
      <trkpt lat="42.411130" lon="0.352467">
        <ele>977.590923</ele>
        <time>2019-08-22T15:31:06.516Z</time>
      </trkpt>
      <trkpt lat="42.411174" lon="0.352696">
        <ele>977.223817</ele>
        <time>2019-08-22T15:31:08.463Z</time>
      </trkpt>
      <trkpt lat="42.411215" lon="0.353185">
        <ele>976.460302</ele>
        <time>2019-08-22T15:31:12.938Z</time>
      </trkpt>
      <trkpt lat="42.411150" lon="0.354038">
        <ele>976.394821</ele>
        <time>2019-08-22T15:31:22.074Z</time>
      </trkpt>
      <trkpt lat="42.411007" lon="0.354587">
        <ele>976.650587</ele>
        <time>2019-08-22T15:31:30.742Z</time>
      </trkpt>
      <trkpt lat="42.410639" lon="0.355349">
        <ele>977.050620</ele>
        <time>2019-08-22T15:31:43.357Z</time>
      </trkpt>
      <trkpt lat="42.410545" lon="0.355507">
        <ele>977.139767</ele>
        <time>2019-08-22T15:31:45.520Z</time>
      </trkpt>
      <trkpt lat="42.410371" lon="0.355701">
        <ele>977.239241</ele>
        <time>2019-08-22T15:31:50.419Z</time>
      </trkpt>
      <trkpt lat="42.409070" lon="0.356753">
        <ele>977.785736</ele>
        <time>2019-08-22T15:32:15.966Z</time>
      </trkpt>
      <trkpt lat="42.408581" lon="0.357262">
        <ele>977.014443</ele>
        <time>2019-08-22T15:32:23.710Z</time>
      </trkpt>
      <trkpt lat="42.408140" lon="0.357977">
        <ele>975.841649</ele>
        <time>2019-08-22T15:32:31.526Z</time>
      </trkpt>
      <trkpt lat="42.407520" lon="0.359624">
        <ele>971.639294</ele>
        <time>2019-08-22T15:32:45.688Z</time>
      </trkpt>
      <trkpt lat="42.407373" lon="0.359914">
        <ele>970.534170</ele>
        <time>2019-08-22T15:32:48.246Z</time>
      </trkpt>
      <trkpt lat="42.407016" lon="0.360488">
        <ele>968.176334</ele>
        <time>2019-08-22T15:32:53.510Z</time>
      </trkpt>
      <trkpt lat="42.406616" lon="0.360953">
        <ele>964.421748</ele>
        <time>2019-08-22T15:32:58.321Z</time>
      </trkpt>
      <trkpt lat="42.405983" lon="0.361419">
        <ele>957.434689</ele>
        <time>2019-08-22T15:33:04.675Z</time>
      </trkpt>
      <trkpt lat="42.404484" lon="0.362113">
        <ele>938.752309</ele>
        <time>2019-08-22T15:33:17.990Z</time>
      </trkpt>
      <trkpt lat="42.404081" lon="0.362454">
        <ele>932.131342</ele>
        <time>2019-08-22T15:33:21.938Z</time>
      </trkpt>
      <trkpt lat="42.403867" lon="0.362680">
        <ele>928.350214</ele>
        <time>2019-08-22T15:33:24.195Z</time>
      </trkpt>
      <trkpt lat="42.403696" lon="0.362920">
        <ele>924.918937</ele>
        <time>2019-08-22T15:33:26.236Z</time>
      </trkpt>
      <trkpt lat="42.403366" lon="0.363566">
        <ele>918.516002</ele>
        <time>2019-08-22T15:33:31.090Z</time>
      </trkpt>
      <trkpt lat="42.403229" lon="0.363966">
        <ele>914.959138</ele>
        <time>2019-08-22T15:33:33.826Z</time>
      </trkpt>
      <trkpt lat="42.402842" lon="0.365860">
        <ele>902.390900</ele>
        <time>2019-08-22T15:33:46.674Z</time>
      </trkpt>
      <trkpt lat="42.402536" lon="0.366660">
        <ele>899.199316</ele>
        <time>2019-08-22T15:33:53.455Z</time>
      </trkpt>
      <trkpt lat="42.402345" lon="0.367023">
        <ele>897.620349</ele>
        <time>2019-08-22T15:33:56.889Z</time>
      </trkpt>
      <trkpt lat="42.401939" lon="0.367588">
        <ele>893.733642</ele>
        <time>2019-08-22T15:34:02.753Z</time>
      </trkpt>
      <trkpt lat="42.401667" lon="0.367860">
        <ele>890.933456</ele>
        <time>2019-08-22T15:34:05.928Z</time>
      </trkpt>
      <trkpt lat="42.401039" lon="0.368331">
        <ele>884.988265</ele>
        <time>2019-08-22T15:34:12.250Z</time>
      </trkpt>
      <trkpt lat="42.399363" lon="0.369427">
        <ele>861.472690</ele>
        <time>2019-08-22T15:34:27.759Z</time>
      </trkpt>
      <trkpt lat="42.398240" lon="0.370308">
        <ele>846.598053</ele>
        <time>2019-08-22T15:34:38.633Z</time>
      </trkpt>
      <trkpt lat="42.397117" lon="0.371651">
        <ele>834.259651</ele>
        <time>2019-08-22T15:34:52.017Z</time>
      </trkpt>
      <trkpt lat="42.395950" lon="0.373985">
        <ele>822.008382</ele>
        <time>2019-08-22T15:35:12.489Z</time>
      </trkpt>
      <trkpt lat="42.387814" lon="0.387833">
        <ele>694.685417</ele>
        <time>2019-08-22T15:37:05.315Z</time>
      </trkpt>
      <trkpt lat="42.387214" lon="0.388584">
        <ele>685.429035</ele>
        <time>2019-08-22T15:37:12.221Z</time>
      </trkpt>
      <trkpt lat="42.386815" lon="0.388988">
        <ele>679.394705</ele>
        <time>2019-08-22T15:37:16.414Z</time>
      </trkpt>
      <trkpt lat="42.385457" lon="0.390168">
        <ele>660.947859</ele>
        <time>2019-08-22T15:37:30.070Z</time>
      </trkpt>
      <trkpt lat="42.385291" lon="0.390376">
        <ele>658.550827</ele>
        <time>2019-08-22T15:37:32.007Z</time>
      </trkpt>
      <trkpt lat="42.385073" lon="0.390674">
        <ele>655.267718</ele>
        <time>2019-08-22T15:37:34.688Z</time>
      </trkpt>
      <trkpt lat="42.384886" lon="0.390987">
        <ele>652.116471</ele>
        <time>2019-08-22T15:37:37.272Z</time>
      </trkpt>
      <trkpt lat="42.384542" lon="0.391848">
        <ele>646.498616</ele>
        <time>2019-08-22T15:37:43.544Z</time>
      </trkpt>
      <trkpt lat="42.384429" lon="0.392266">
        <ele>644.408968</ele>
        <time>2019-08-22T15:37:46.456Z</time>
      </trkpt>
      <trkpt lat="42.384317" lon="0.393113">
        <ele>640.369408</ele>
        <time>2019-08-22T15:37:52.364Z</time>
      </trkpt>
      <trkpt lat="42.384303" lon="0.393353">
        <ele>639.239189</ele>
        <time>2019-08-22T15:37:54.043Z</time>
      </trkpt>
      <trkpt lat="42.384315" lon="0.393821">
        <ele>638.372707</ele>
        <time>2019-08-22T15:37:57.713Z</time>
      </trkpt>
      <trkpt lat="42.384357" lon="0.394206">
        <ele>638.778852</ele>
        <time>2019-08-22T15:38:01.309Z</time>
      </trkpt>
      <trkpt lat="42.384445" lon="0.394704">
        <ele>639.313231</ele>
        <time>2019-08-22T15:38:07.159Z</time>
      </trkpt>
      <trkpt lat="42.384687" lon="0.395496">
        <ele>640.207690</ele>
        <time>2019-08-22T15:38:23.477Z</time>
      </trkpt>
      <trkpt lat="42.384971" lon="0.396084">
        <ele>641.707007</ele>
        <time>2019-08-22T15:38:42.399Z</time>
      </trkpt>
      <trkpt lat="42.385532" lon="0.396827">
        <ele>645.972102</ele>
        <time>2019-08-22T15:39:14.243Z</time>
      </trkpt>
      <trkpt lat="42.386297" lon="0.397412">
        <ele>650.808306</ele>
        <time>2019-08-22T15:39:44.736Z</time>
      </trkpt>
      <trkpt lat="42.386882" lon="0.397638">
        <ele>654.789938</ele>
        <time>2019-08-22T15:40:05.547Z</time>
      </trkpt>
      <trkpt lat="42.387777" lon="0.397843">
        <ele>660.730924</ele>
        <time>2019-08-22T15:40:39.844Z</time>
      </trkpt>
      <trkpt lat="42.389327" lon="0.398128">
        <ele>678.126007</ele>
        <time>2019-08-22T15:42:14.880Z</time>
      </trkpt>
      <trkpt lat="42.389929" lon="0.398218">
        <ele>685.116104</ele>
        <time>2019-08-22T15:43:04.956Z</time>
      </trkpt>
      <trkpt lat="42.391606" lon="0.398380">
        <ele>702.279509</ele>
        <time>2019-08-22T15:44:57.212Z</time>
      </trkpt>
      <trkpt lat="42.395991" lon="0.398546">
        <ele>687.205601</ele>
        <time>2019-08-22T15:46:00.438Z</time>
      </trkpt>
      <trkpt lat="42.397266" lon="0.398502">
        <ele>676.565130</ele>
        <time>2019-08-22T15:46:11.227Z</time>
      </trkpt>
      <trkpt lat="42.398782" lon="0.398438">
        <ele>661.761707</ele>
        <time>2019-08-22T15:46:24.251Z</time>
      </trkpt>
      <trkpt lat="42.399342" lon="0.398272">
        <ele>660.518991</ele>
        <time>2019-08-22T15:46:29.719Z</time>
      </trkpt>
      <trkpt lat="42.399723" lon="0.398107">
        <ele>659.651849</ele>
        <time>2019-08-22T15:46:33.853Z</time>
      </trkpt>
      <trkpt lat="42.400548" lon="0.397753">
        <ele>658.177754</ele>
        <time>2019-08-22T15:46:48.035Z</time>
      </trkpt>
      <trkpt lat="42.401254" lon="0.397406">
        <ele>662.483991</ele>
        <time>2019-08-22T15:47:14.055Z</time>
      </trkpt>
      <trkpt lat="42.401430" lon="0.397378">
        <ele>663.500031</ele>
        <time>2019-08-22T15:47:22.606Z</time>
      </trkpt>
      <trkpt lat="42.401618" lon="0.397386">
        <ele>664.578466</ele>
        <time>2019-08-22T15:47:30.037Z</time>
      </trkpt>
      <trkpt lat="42.401660" lon="0.397442">
        <ele>664.916404</ele>
        <time>2019-08-22T15:47:33.334Z</time>
      </trkpt>
      <trkpt lat="42.401730" lon="0.397474">
        <ele>665.340002</ele>
        <time>2019-08-22T15:47:37.142Z</time>
      </trkpt>
      <trkpt lat="42.401813" lon="0.397596">
        <ele>666.042330</ele>
        <time>2019-08-22T15:47:42.086Z</time>
      </trkpt>
      <trkpt lat="42.401871" lon="0.397718">
        <ele>666.656647</ele>
        <time>2019-08-22T15:47:46.645Z</time>
      </trkpt>
      <trkpt lat="42.401903" lon="0.397860">
        <ele>667.285223</ele>
        <time>2019-08-22T15:47:52.985Z</time>
      </trkpt>
      <trkpt lat="42.402012" lon="0.398147">
        <ele>668.623646</ele>
        <time>2019-08-22T15:48:03.124Z</time>
      </trkpt>
      <trkpt lat="42.402194" lon="0.398375">
        <ele>669.957371</ele>
        <time>2019-08-22T15:48:14.834Z</time>
      </trkpt>
      <trkpt lat="42.403474" lon="0.399072">
        <ele>677.378813</ele>
        <time>2019-08-22T15:49:04.498Z</time>
      </trkpt>
      <trkpt lat="42.404036" lon="0.399461">
        <ele>678.613119</ele>
        <time>2019-08-22T15:49:18.973Z</time>
      </trkpt>
      <trkpt lat="42.404301" lon="0.399716">
        <ele>679.058692</ele>
        <time>2019-08-22T15:49:25.542Z</time>
      </trkpt>
      <trkpt lat="42.404486" lon="0.399923">
        <ele>679.387611</ele>
        <time>2019-08-22T15:49:29.900Z</time>
      </trkpt>
      <trkpt lat="42.404784" lon="0.400317">
        <ele>679.958437</ele>
        <time>2019-08-22T15:49:36.999Z</time>
      </trkpt>
      <trkpt lat="42.404916" lon="0.400526">
        <ele>680.236783</ele>
        <time>2019-08-22T15:49:40.063Z</time>
      </trkpt>
      <trkpt lat="42.404998" lon="0.400666">
        <ele>680.333366</ele>
        <time>2019-08-22T15:49:42.081Z</time>
      </trkpt>
      <trkpt lat="42.405139" lon="0.400946">
        <ele>680.306096</ele>
        <time>2019-08-22T15:49:45.660Z</time>
      </trkpt>
      <trkpt lat="42.405219" lon="0.401121">
        <ele>680.289535</ele>
        <time>2019-08-22T15:49:47.852Z</time>
      </trkpt>
      <trkpt lat="42.405385" lon="0.401540">
        <ele>680.251276</ele>
        <time>2019-08-22T15:49:52.606Z</time>
      </trkpt>
      <trkpt lat="42.405504" lon="0.401934">
        <ele>680.217024</ele>
        <time>2019-08-22T15:49:56.982Z</time>
      </trkpt>
      <trkpt lat="42.405582" lon="0.402277">
        <ele>680.188147</ele>
        <time>2019-08-22T15:50:00.684Z</time>
      </trkpt>
      <trkpt lat="42.405644" lon="0.402626">
        <ele>680.159265</ele>
        <time>2019-08-22T15:50:04.527Z</time>
      </trkpt>
      <trkpt lat="42.405986" lon="0.404710">
        <ele>680.322637</ele>
        <time>2019-08-22T15:50:28.279Z</time>
      </trkpt>
      <trkpt lat="42.406382" lon="0.407084">
        <ele>681.051102</ele>
        <time>2019-08-22T15:50:57.773Z</time>
      </trkpt>
      <trkpt lat="42.406454" lon="0.407505">
        <ele>681.203346</ele>
        <time>2019-08-22T15:51:03.570Z</time>
      </trkpt>
      <trkpt lat="42.406574" lon="0.408235">
        <ele>681.740261</ele>
        <time>2019-08-22T15:51:13.811Z</time>
      </trkpt>
      <trkpt lat="42.406657" lon="0.408722">
        <ele>682.116769</ele>
        <time>2019-08-22T15:51:20.955Z</time>
      </trkpt>
      <trkpt lat="42.406772" lon="0.409497">
        <ele>682.712255</ele>
        <time>2019-08-22T15:51:32.246Z</time>
      </trkpt>
      <trkpt lat="42.406799" lon="0.410547">
        <ele>684.170201</ele>
        <time>2019-08-22T15:51:47.100Z</time>
      </trkpt>
      <trkpt lat="42.406794" lon="0.410738">
        <ele>684.531222</ele>
        <time>2019-08-22T15:51:50.060Z</time>
      </trkpt>
      <trkpt lat="42.406759" lon="0.411059">
        <ele>685.144158</ele>
        <time>2019-08-22T15:51:54.655Z</time>
      </trkpt>
      <trkpt lat="42.406603" lon="0.412521">
        <ele>688.216334</ele>
        <time>2019-08-22T15:52:25.979Z</time>
      </trkpt>
      <trkpt lat="42.406587" lon="0.412958">
        <ele>689.900764</ele>
        <time>2019-08-22T15:52:36.601Z</time>
      </trkpt>
      <trkpt lat="42.406593" lon="0.413315">
        <ele>691.275498</ele>
        <time>2019-08-22T15:52:46.311Z</time>
      </trkpt>
      <trkpt lat="42.406742" lon="0.414520">
        <ele>695.979100</ele>
        <time>2019-08-22T15:53:20.716Z</time>
      </trkpt>
      <trkpt lat="42.407036" lon="0.415922">
        <ele>700.533647</ele>
        <time>2019-08-22T15:54:01.073Z</time>
      </trkpt>
      <trkpt lat="42.407390" lon="0.417512">
        <ele>704.258382</ele>
        <time>2019-08-22T15:54:32.470Z</time>
      </trkpt>
      <trkpt lat="42.407518" lon="0.418245">
        <ele>704.290168</ele>
        <time>2019-08-22T15:54:41.194Z</time>
      </trkpt>
      <trkpt lat="42.407605" lon="0.419186">
        <ele>704.330187</ele>
        <time>2019-08-22T15:54:50.018Z</time>
      </trkpt>
      <trkpt lat="42.407609" lon="0.419638">
        <ele>704.230562</ele>
        <time>2019-08-22T15:54:53.868Z</time>
      </trkpt>
      <trkpt lat="42.407580" lon="0.420144">
        <ele>703.766180</ele>
        <time>2019-08-22T15:54:58.107Z</time>
      </trkpt>
      <trkpt lat="42.407536" lon="0.420565">
        <ele>703.377126</ele>
        <time>2019-08-22T15:55:01.689Z</time>
      </trkpt>
      <trkpt lat="42.406870" lon="0.423745">
        <ele>701.053096</ele>
        <time>2019-08-22T15:55:31.406Z</time>
      </trkpt>
      <trkpt lat="42.406314" lon="0.426329">
        <ele>701.507757</ele>
        <time>2019-08-22T15:56:02.281Z</time>
      </trkpt>
      <trkpt lat="42.406083" lon="0.427521">
        <ele>703.372898</ele>
        <time>2019-08-22T15:56:22.814Z</time>
      </trkpt>
      <trkpt lat="42.406036" lon="0.427754">
        <ele>703.812291</ele>
        <time>2019-08-22T15:56:27.194Z</time>
      </trkpt>
      <trkpt lat="42.405914" lon="0.428362">
        <ele>704.958448</ele>
        <time>2019-08-22T15:56:38.766Z</time>
      </trkpt>
      <trkpt lat="42.405850" lon="0.428704">
        <ele>705.600268</ele>
        <time>2019-08-22T15:56:45.893Z</time>
      </trkpt>
      <trkpt lat="42.405507" lon="0.430325">
        <ele>710.737722</ele>
        <time>2019-08-22T15:57:24.902Z</time>
      </trkpt>
      <trkpt lat="42.405024" lon="0.432680">
        <ele>719.622549</ele>
        <time>2019-08-22T15:58:28.107Z</time>
      </trkpt>
      <trkpt lat="42.404899" lon="0.433236">
        <ele>721.888288</ele>
        <time>2019-08-22T15:58:44.307Z</time>
      </trkpt>
      <trkpt lat="42.404750" lon="0.433915">
        <ele>724.983144</ele>
        <time>2019-08-22T15:59:03.782Z</time>
      </trkpt>
      <trkpt lat="42.404699" lon="0.434179">
        <ele>726.335980</ele>
        <time>2019-08-22T15:59:11.358Z</time>
      </trkpt>
      <trkpt lat="42.404643" lon="0.434531">
        <ele>728.121075</ele>
        <time>2019-08-22T15:59:21.372Z</time>
      </trkpt>
      <trkpt lat="42.404611" lon="0.434836">
        <ele>729.648310</ele>
        <time>2019-08-22T15:59:30.022Z</time>
      </trkpt>
      <trkpt lat="42.404603" lon="0.435166">
        <ele>731.285178</ele>
        <time>2019-08-22T15:59:39.843Z</time>
      </trkpt>
      <trkpt lat="42.404610" lon="0.435596">
        <ele>733.417437</ele>
        <time>2019-08-22T15:59:53.515Z</time>
      </trkpt>
      <trkpt lat="42.404625" lon="0.435919">
        <ele>735.021884</ele>
        <time>2019-08-22T16:00:05.082Z</time>
      </trkpt>
      <trkpt lat="42.404624" lon="0.436184">
        <ele>736.813689</ele>
        <time>2019-08-22T16:00:14.916Z</time>
      </trkpt>
      <trkpt lat="42.404606" lon="0.436419">
        <ele>738.653641</ele>
        <time>2019-08-22T16:00:24.280Z</time>
      </trkpt>
      <trkpt lat="42.404566" lon="0.436681">
        <ele>740.737201</ele>
        <time>2019-08-22T16:00:34.678Z</time>
      </trkpt>
      <trkpt lat="42.404514" lon="0.436890">
        <ele>742.454765</ele>
        <time>2019-08-22T16:00:44.020Z</time>
      </trkpt>
      <trkpt lat="42.404455" lon="0.437087">
        <ele>744.110355</ele>
        <time>2019-08-22T16:00:52.345Z</time>
      </trkpt>
      <trkpt lat="42.404409" lon="0.437217">
        <ele>745.233013</ele>
        <time>2019-08-22T16:00:58.740Z</time>
      </trkpt>
      <trkpt lat="42.404279" lon="0.437496">
        <ele>747.802247</ele>
        <time>2019-08-22T16:01:12.445Z</time>
      </trkpt>
      <trkpt lat="42.404014" lon="0.438005">
        <ele>752.652500</ele>
        <time>2019-08-22T16:01:40.588Z</time>
      </trkpt>
      <trkpt lat="42.403714" lon="0.438805">
        <ele>761.054882</ele>
        <time>2019-08-22T16:02:24.321Z</time>
      </trkpt>
      <trkpt lat="42.403601" lon="0.439628">
        <ele>769.357434</ele>
        <time>2019-08-22T16:03:07.481Z</time>
      </trkpt>
      <trkpt lat="42.403624" lon="0.440175">
        <ele>774.791457</ele>
        <time>2019-08-22T16:03:35.442Z</time>
      </trkpt>
      <trkpt lat="42.403877" lon="0.441705">
        <ele>791.314059</ele>
        <time>2019-08-22T16:04:59.327Z</time>
      </trkpt>
      <trkpt lat="42.403864" lon="0.442252">
        <ele>797.192453</ele>
        <time>2019-08-22T16:05:29.622Z</time>
      </trkpt>
      <trkpt lat="42.403369" lon="0.444431">
        <ele>820.457743</ele>
        <time>2019-08-22T16:07:33.799Z</time>
      </trkpt>
      <trkpt lat="42.403127" lon="0.445357">
        <ele>829.663551</ele>
        <time>2019-08-22T16:08:20.289Z</time>
      </trkpt>
      <trkpt lat="42.402759" lon="0.446148">
        <ele>834.404273</ele>
        <time>2019-08-22T16:08:55.612Z</time>
      </trkpt>
      <trkpt lat="42.402324" lon="0.446651">
        <ele>838.332256</ele>
        <time>2019-08-22T16:09:17.278Z</time>
      </trkpt>
      <trkpt lat="42.401518" lon="0.447347">
        <ele>843.560864</ele>
        <time>2019-08-22T16:09:42.386Z</time>
      </trkpt>
      <trkpt lat="42.401096" lon="0.448035">
        <ele>846.357530</ele>
        <time>2019-08-22T16:09:57.468Z</time>
      </trkpt>
      <trkpt lat="42.400942" lon="0.448496">
        <ele>847.939682</ele>
        <time>2019-08-22T16:10:07.048Z</time>
      </trkpt>
      <trkpt lat="42.400857" lon="0.448991">
        <ele>850.688802</ele>
        <time>2019-08-22T16:10:25.346Z</time>
      </trkpt>
      <trkpt lat="42.400849" lon="0.449529">
        <ele>856.273654</ele>
        <time>2019-08-22T16:10:51.082Z</time>
      </trkpt>
      <trkpt lat="42.400915" lon="0.450515">
        <ele>866.548965</ele>
        <time>2019-08-22T16:11:45.582Z</time>
      </trkpt>
      <trkpt lat="42.400903" lon="0.450734">
        <ele>868.828138</ele>
        <time>2019-08-22T16:12:01.933Z</time>
      </trkpt>
      <trkpt lat="42.400871" lon="0.450960">
        <ele>871.216444</ele>
        <time>2019-08-22T16:12:12.312Z</time>
      </trkpt>
      <trkpt lat="42.400834" lon="0.451130">
        <ele>873.055856</ele>
        <time>2019-08-22T16:12:26.191Z</time>
      </trkpt>
      <trkpt lat="42.400689" lon="0.451520">
        <ele>877.618087</ele>
        <time>2019-08-22T16:12:53.510Z</time>
      </trkpt>
      <trkpt lat="42.400282" lon="0.452063">
        <ele>885.722749</ele>
        <time>2019-08-22T16:13:41.640Z</time>
      </trkpt>
      <trkpt lat="42.399945" lon="0.452278">
        <ele>891.007148</ele>
        <time>2019-08-22T16:14:12.596Z</time>
      </trkpt>
      <trkpt lat="42.399609" lon="0.452357">
        <ele>895.844714</ele>
        <time>2019-08-22T16:14:33.616Z</time>
      </trkpt>
      <trkpt lat="42.399427" lon="0.452368">
        <ele>898.429007</ele>
        <time>2019-08-22T16:14:43.066Z</time>
      </trkpt>
      <trkpt lat="42.399192" lon="0.452354">
        <ele>900.352388</ele>
        <time>2019-08-22T16:14:53.177Z</time>
      </trkpt>
      <trkpt lat="42.398411" lon="0.452316">
        <ele>903.375788</ele>
        <time>2019-08-22T16:15:18.610Z</time>
      </trkpt>
      <trkpt lat="42.397947" lon="0.452430">
        <ele>905.200169</ele>
        <time>2019-08-22T16:15:29.397Z</time>
      </trkpt>
      <trkpt lat="42.397768" lon="0.452511">
        <ele>905.930308</ele>
        <time>2019-08-22T16:15:33.464Z</time>
      </trkpt>
      <trkpt lat="42.397627" lon="0.452585">
        <ele>906.515330</ele>
        <time>2019-08-22T16:15:35.181Z</time>
      </trkpt>
      <trkpt lat="42.397235" lon="0.452883">
        <ele>909.406851</ele>
        <time>2019-08-22T16:15:43.870Z</time>
      </trkpt>
      <trkpt lat="42.397003" lon="0.453130">
        <ele>911.441341</ele>
        <time>2019-08-22T16:15:51.331Z</time>
      </trkpt>
      <trkpt lat="42.396691" lon="0.453604">
        <ele>914.673884</ele>
        <time>2019-08-22T16:16:09.694Z</time>
      </trkpt>
      <trkpt lat="42.396466" lon="0.454101">
        <ele>917.641704</ele>
        <time>2019-08-22T16:16:32.038Z</time>
      </trkpt>
      <trkpt lat="42.396335" lon="0.454742">
        <ele>924.290813</ele>
        <time>2019-08-22T16:17:07.808Z</time>
      </trkpt>
      <trkpt lat="42.396394" lon="0.456048">
        <ele>942.717353</ele>
        <time>2019-08-22T16:18:40.845Z</time>
      </trkpt>
      <trkpt lat="42.396241" lon="0.456677">
        <ele>952.043581</ele>
        <time>2019-08-22T16:19:32.748Z</time>
      </trkpt>
      <trkpt lat="42.396006" lon="0.457051">
        <ele>957.813679</ele>
        <time>2019-08-22T16:20:08.808Z</time>
      </trkpt>
      <trkpt lat="42.395722" lon="0.457295">
        <ele>962.886914</ele>
        <time>2019-08-22T16:20:39.026Z</time>
      </trkpt>
      <trkpt lat="42.395397" lon="0.457419">
        <ele>967.979948</ele>
        <time>2019-08-22T16:21:05.773Z</time>
      </trkpt>
      <trkpt lat="42.395003" lon="0.457483">
        <ele>973.965472</ele>
        <time>2019-08-22T16:21:33.528Z</time>
      </trkpt>
      <trkpt lat="42.394785" lon="0.457516">
        <ele>977.274168</ele>
        <time>2019-08-22T16:21:46.438Z</time>
      </trkpt>
      <trkpt lat="42.394478" lon="0.457594">
        <ele>980.905749</ele>
        <time>2019-08-22T16:22:02.038Z</time>
      </trkpt>
      <trkpt lat="42.394318" lon="0.457668">
        <ele>981.454948</ele>
        <time>2019-08-22T16:22:09.824Z</time>
      </trkpt>
      <trkpt lat="42.393974" lon="0.457877">
        <ele>982.679669</ele>
        <time>2019-08-22T16:22:22.769Z</time>
      </trkpt>
      <trkpt lat="42.393507" lon="0.458251">
        <ele>984.442061</ele>
        <time>2019-08-22T16:22:34.999Z</time>
      </trkpt>
      <trkpt lat="42.393379" lon="0.458345">
        <ele>984.915050</ele>
        <time>2019-08-22T16:22:37.311Z</time>
      </trkpt>
      <trkpt lat="42.392805" lon="0.458612">
        <ele>986.096253</ele>
        <time>2019-08-22T16:22:45.987Z</time>
      </trkpt>
      <trkpt lat="42.392255" lon="0.458643">
        <ele>984.633775</ele>
        <time>2019-08-22T16:22:52.963Z</time>
      </trkpt>
      <trkpt lat="42.391930" lon="0.458624">
        <ele>983.769526</ele>
        <time>2019-08-22T16:22:56.713Z</time>
      </trkpt>
      <trkpt lat="42.391759" lon="0.458623">
        <ele>983.315218</ele>
        <time>2019-08-22T16:22:58.657Z</time>
      </trkpt>
      <trkpt lat="42.391285" lon="0.458657">
        <ele>982.054152</ele>
        <time>2019-08-22T16:23:03.294Z</time>
      </trkpt>
      <trkpt lat="42.391038" lon="0.458740">
        <ele>980.494777</ele>
        <time>2019-08-22T16:23:05.640Z</time>
      </trkpt>
      <trkpt lat="42.390855" lon="0.458828">
        <ele>978.435240</ele>
        <time>2019-08-22T16:23:07.327Z</time>
      </trkpt>
      <trkpt lat="42.390325" lon="0.459265">
        <ele>971.854226</ele>
        <time>2019-08-22T16:23:12.668Z</time>
      </trkpt>
      <trkpt lat="42.390155" lon="0.459422">
        <ele>969.671859</ele>
        <time>2019-08-22T16:23:14.448Z</time>
      </trkpt>
      <trkpt lat="42.389984" lon="0.459553">
        <ele>967.588190</ele>
        <time>2019-08-22T16:23:16.077Z</time>
      </trkpt>
      <trkpt lat="42.389512" lon="0.459804">
        <ele>962.213850</ele>
        <time>2019-08-22T16:23:20.335Z</time>
      </trkpt>
      <trkpt lat="42.388527" lon="0.460101">
        <ele>951.611426</ele>
        <time>2019-08-22T16:23:28.730Z</time>
      </trkpt>
      <trkpt lat="42.388122" lon="0.460388">
        <ele>946.808693</ele>
        <time>2019-08-22T16:23:32.763Z</time>
      </trkpt>
      <trkpt lat="42.387738" lon="0.460986">
        <ele>943.466547</ele>
        <time>2019-08-22T16:23:38.498Z</time>
      </trkpt>
      <trkpt lat="42.387545" lon="0.461521">
        <ele>943.110873</ele>
        <time>2019-08-22T16:23:44.656Z</time>
      </trkpt>
      <trkpt lat="42.387352" lon="0.462310">
        <ele>942.614373</ele>
        <time>2019-08-22T16:23:59.353Z</time>
      </trkpt>
      <trkpt lat="42.387138" lon="0.462734">
        <ele>942.307600</ele>
        <time>2019-08-22T16:24:06.937Z</time>
      </trkpt>
      <trkpt lat="42.386968" lon="0.462934">
        <ele>941.265105</ele>
        <time>2019-08-22T16:24:09.909Z</time>
      </trkpt>
      <trkpt lat="42.386773" lon="0.463055">
        <ele>939.852804</ele>
        <time>2019-08-22T16:24:11.959Z</time>
      </trkpt>
      <trkpt lat="42.385937" lon="0.463203">
        <ele>934.301717</ele>
        <time>2019-08-22T16:24:19.666Z</time>
      </trkpt>
      <trkpt lat="42.385709" lon="0.463237">
        <ele>932.791485</ele>
        <time>2019-08-22T16:24:21.636Z</time>
      </trkpt>
      <trkpt lat="42.385316" lon="0.463325">
        <ele>930.242847</ele>
        <time>2019-08-22T16:24:25.031Z</time>
      </trkpt>
      <trkpt lat="42.384571" lon="0.463684">
        <ele>926.677598</ele>
        <time>2019-08-22T16:24:31.692Z</time>
      </trkpt>
      <trkpt lat="42.383478" lon="0.464560">
        <ele>926.283618</ele>
        <time>2019-08-22T16:24:51.159Z</time>
      </trkpt>
      <trkpt lat="42.383267" lon="0.464697">
        <ele>929.416440</ele>
        <time>2019-08-22T16:25:10.863Z</time>
      </trkpt>
      <trkpt lat="42.383096" lon="0.464770">
        <ele>931.816814</ele>
        <time>2019-08-22T16:25:21.127Z</time>
      </trkpt>
      <trkpt lat="42.382947" lon="0.464819">
        <ele>933.869554</ele>
        <time>2019-08-22T16:25:37.343Z</time>
      </trkpt>
      <trkpt lat="42.382319" lon="0.464910">
        <ele>942.324901</ele>
        <time>2019-08-22T16:26:28.499Z</time>
      </trkpt>
      <trkpt lat="42.381727" lon="0.464974">
        <ele>948.784402</ele>
        <time>2019-08-22T16:27:22.289Z</time>
      </trkpt>
      <trkpt lat="42.381384" lon="0.465018">
        <ele>951.634161</ele>
        <time>2019-08-22T16:27:51.489Z</time>
      </trkpt>
      <trkpt lat="42.380782" lon="0.465143">
        <ele>956.671705</ele>
        <time>2019-08-22T16:28:17.211Z</time>
      </trkpt>
      <trkpt lat="42.380502" lon="0.465269">
        <ele>959.112265</ele>
        <time>2019-08-22T16:28:25.173Z</time>
      </trkpt>
      <trkpt lat="42.380029" lon="0.465563">
        <ele>960.731880</ele>
        <time>2019-08-22T16:28:30.464Z</time>
      </trkpt>
      <trkpt lat="42.379415" lon="0.465985">
        <ele>959.367530</ele>
        <time>2019-08-22T16:28:37.035Z</time>
      </trkpt>
      <trkpt lat="42.379017" lon="0.466240">
        <ele>958.495096</ele>
        <time>2019-08-22T16:28:41.682Z</time>
      </trkpt>
      <trkpt lat="42.378216" lon="0.466793">
        <ele>959.657620</ele>
        <time>2019-08-22T16:28:56.712Z</time>
      </trkpt>
      <trkpt lat="42.377996" lon="0.466997">
        <ele>960.727030</ele>
        <time>2019-08-22T16:29:04.753Z</time>
      </trkpt>
      <trkpt lat="42.377803" lon="0.467211">
        <ele>961.727524</ele>
        <time>2019-08-22T16:29:13.414Z</time>
      </trkpt>
      <trkpt lat="42.377507" lon="0.467702">
        <ele>963.605004</ele>
        <time>2019-08-22T16:29:30.621Z</time>
      </trkpt>
      <trkpt lat="42.377077" lon="0.468618">
        <ele>968.561429</ele>
        <time>2019-08-22T16:30:06.001Z</time>
      </trkpt>
      <trkpt lat="42.376841" lon="0.469177">
        <ele>972.198675</ele>
        <time>2019-08-22T16:30:26.914Z</time>
      </trkpt>
      <trkpt lat="42.376607" lon="0.469742">
        <ele>975.857895</ele>
        <time>2019-08-22T16:30:48.772Z</time>
      </trkpt>
      <trkpt lat="42.376189" lon="0.471076">
        <ele>984.802290</ele>
        <time>2019-08-22T16:31:41.975Z</time>
      </trkpt>
      <trkpt lat="42.375823" lon="0.472978">
        <ele>997.437919</ele>
        <time>2019-08-22T16:32:54.950Z</time>
      </trkpt>
      <trkpt lat="42.375664" lon="0.473872">
        <ele>1003.306013</ele>
        <time>2019-08-22T16:33:29.134Z</time>
      </trkpt>
      <trkpt lat="42.375575" lon="0.474389">
        <ele>1006.693663</ele>
        <time>2019-08-22T16:33:48.819Z</time>
      </trkpt>
      <trkpt lat="42.374988" lon="0.477747">
        <ele>1025.752337</ele>
        <time>2019-08-22T16:35:48.486Z</time>
      </trkpt>
      <trkpt lat="42.374931" lon="0.478262">
        <ele>1027.392439</ele>
        <time>2019-08-22T16:36:02.128Z</time>
      </trkpt>
      <trkpt lat="42.374755" lon="0.480016">
        <ele>1031.759245</ele>
        <time>2019-08-22T16:36:35.776Z</time>
      </trkpt>
      <trkpt lat="42.374562" lon="0.482033">
        <ele>1031.567210</ele>
        <time>2019-08-22T16:36:54.825Z</time>
      </trkpt>
      <trkpt lat="42.374311" lon="0.483538">
        <ele>1030.119854</ele>
        <time>2019-08-22T16:37:07.794Z</time>
      </trkpt>
      <trkpt lat="42.374016" lon="0.485091">
        <ele>1029.713219</ele>
        <time>2019-08-22T16:37:22.130Z</time>
      </trkpt>
      <trkpt lat="42.373803" lon="0.486301">
        <ele>1030.570979</ele>
        <time>2019-08-22T16:37:38.693Z</time>
      </trkpt>
      <trkpt lat="42.373304" lon="0.488945">
        <ele>1036.746277</ele>
        <time>2019-08-22T16:38:38.393Z</time>
      </trkpt>
      <trkpt lat="42.372983" lon="0.490691">
        <ele>1039.798237</ele>
        <time>2019-08-22T16:39:16.817Z</time>
      </trkpt>
      <trkpt lat="42.372769" lon="0.491853">
        <ele>1040.121223</ele>
        <time>2019-08-22T16:39:30.503Z</time>
      </trkpt>
      <trkpt lat="42.372642" lon="0.492542">
        <ele>1038.064054</ele>
        <time>2019-08-22T16:39:36.024Z</time>
      </trkpt>
      <trkpt lat="42.372511" lon="0.493223">
        <ele>1036.025464</ele>
        <time>2019-08-22T16:39:40.843Z</time>
      </trkpt>
      <trkpt lat="42.372382" lon="0.493880">
        <ele>1034.043175</ele>
        <time>2019-08-22T16:39:45.459Z</time>
      </trkpt>
      <trkpt lat="42.372177" lon="0.494740">
        <ele>1029.954844</ele>
        <time>2019-08-22T16:39:51.518Z</time>
      </trkpt>
      <trkpt lat="42.372120" lon="0.494946">
        <ele>1028.959633</ele>
        <time>2019-08-22T16:39:52.974Z</time>
      </trkpt>
      <trkpt lat="42.371700" lon="0.496005">
        <ele>1023.521755</ele>
        <time>2019-08-22T16:40:01.130Z</time>
      </trkpt>
      <trkpt lat="42.371356" lon="0.496726">
        <ele>1020.674787</ele>
        <time>2019-08-22T16:40:07.114Z</time>
      </trkpt>
      <trkpt lat="42.371241" lon="0.496984">
        <ele>1019.723845</ele>
        <time>2019-08-22T16:40:09.346Z</time>
      </trkpt>
      <trkpt lat="42.371135" lon="0.497306">
        <ele>1018.611321</ele>
        <time>2019-08-22T16:40:11.913Z</time>
      </trkpt>
      <trkpt lat="42.370934" lon="0.498405">
        <ele>1015.092189</ele>
        <time>2019-08-22T16:40:20.185Z</time>
      </trkpt>
      <trkpt lat="42.370789" lon="0.499745">
        <ele>1011.490415</ele>
        <time>2019-08-22T16:40:30.091Z</time>
      </trkpt>
      <trkpt lat="42.371051" lon="0.503008">
        <ele>1003.036561</ele>
        <time>2019-08-22T16:40:54.536Z</time>
      </trkpt>
      <trkpt lat="42.370996" lon="0.503976">
        <ele>999.899849</ele>
        <time>2019-08-22T16:41:01.584Z</time>
      </trkpt>
      <trkpt lat="42.370823" lon="0.505623">
        <ele>994.294042</ele>
        <time>2019-08-22T16:41:13.281Z</time>
      </trkpt>
      <trkpt lat="42.370707" lon="0.506037">
        <ele>992.451644</ele>
        <time>2019-08-22T16:41:16.323Z</time>
      </trkpt>
      <trkpt lat="42.370506" lon="0.506447">
        <ele>990.404182</ele>
        <time>2019-08-22T16:41:19.685Z</time>
      </trkpt>
      <trkpt lat="42.369705" lon="0.507632">
        <ele>983.726027</ele>
        <time>2019-08-22T16:41:30.643Z</time>
      </trkpt>
      <trkpt lat="42.369436" lon="0.508142">
        <ele>981.136078</ele>
        <time>2019-08-22T16:41:34.919Z</time>
      </trkpt>
      <trkpt lat="42.369334" lon="0.508558">
        <ele>979.324478</ele>
        <time>2019-08-22T16:41:37.920Z</time>
      </trkpt>
      <trkpt lat="42.369224" lon="0.510447">
        <ele>972.074466</ele>
        <time>2019-08-22T16:41:51.015Z</time>
      </trkpt>
      <trkpt lat="42.369055" lon="0.511151">
        <ele>969.623481</ele>
        <time>2019-08-22T16:41:56.201Z</time>
      </trkpt>
      <trkpt lat="42.367855" lon="0.513165">
        <ele>962.976998</ele>
        <time>2019-08-22T16:42:15.299Z</time>
      </trkpt>
      <trkpt lat="42.367704" lon="0.513476">
        <ele>962.191257</ele>
        <time>2019-08-22T16:42:18.310Z</time>
      </trkpt>
      <trkpt lat="42.367520" lon="0.514127">
        <ele>961.010066</ele>
        <time>2019-08-22T16:42:24.151Z</time>
      </trkpt>
      <trkpt lat="42.366375" lon="0.519807">
        <ele>954.859984</ele>
        <time>2019-08-22T16:43:16.686Z</time>
      </trkpt>
      <trkpt lat="42.366248" lon="0.520512">
        <ele>953.654334</ele>
        <time>2019-08-22T16:43:22.108Z</time>
      </trkpt>
      <trkpt lat="42.366153" lon="0.520919">
        <ele>952.945171</ele>
        <time>2019-08-22T16:43:25.258Z</time>
      </trkpt>
      <trkpt lat="42.366106" lon="0.521219">
        <ele>952.233661</ele>
        <time>2019-08-22T16:43:27.510Z</time>
      </trkpt>
      <trkpt lat="42.366043" lon="0.521561">
        <ele>951.392865</ele>
        <time>2019-08-22T16:43:30.043Z</time>
      </trkpt>
      <trkpt lat="42.365517" lon="0.523994">
        <ele>946.013071</ele>
        <time>2019-08-22T16:43:49.199Z</time>
      </trkpt>
      <trkpt lat="42.365419" lon="0.524517">
        <ele>945.217814</ele>
        <time>2019-08-22T16:43:53.705Z</time>
      </trkpt>
      <trkpt lat="42.365289" lon="0.525064">
        <ele>944.370903</ele>
        <time>2019-08-22T16:43:58.615Z</time>
      </trkpt>
      <trkpt lat="42.365256" lon="0.525193">
        <ele>944.169694</ele>
        <time>2019-08-22T16:43:59.862Z</time>
      </trkpt>
      <trkpt lat="42.365100" lon="0.525597">
        <ele>943.501612</ele>
        <time>2019-08-22T16:44:03.845Z</time>
      </trkpt>
      <trkpt lat="42.364797" lon="0.526233">
        <ele>943.054591</ele>
        <time>2019-08-22T16:44:10.376Z</time>
      </trkpt>
      <trkpt lat="42.364179" lon="0.527105">
        <ele>942.340834</ele>
        <time>2019-08-22T16:44:21.534Z</time>
      </trkpt>
      <trkpt lat="42.363786" lon="0.527581">
        <ele>942.250414</ele>
        <time>2019-08-22T16:44:28.978Z</time>
      </trkpt>
      <trkpt lat="42.363638" lon="0.527754">
        <ele>942.446416</ele>
        <time>2019-08-22T16:44:32.123Z</time>
      </trkpt>
      <trkpt lat="42.363211" lon="0.528253">
        <ele>943.011847</ele>
        <time>2019-08-22T16:44:42.123Z</time>
      </trkpt>
      <trkpt lat="42.362418" lon="0.529194">
        <ele>944.159202</ele>
        <time>2019-08-22T16:45:05.095Z</time>
      </trkpt>
      <trkpt lat="42.361915" lon="0.529943">
        <ele>945.247240</ele>
        <time>2019-08-22T16:45:22.319Z</time>
      </trkpt>
      <trkpt lat="42.361067" lon="0.531522">
        <ele>946.472844</ele>
        <time>2019-08-22T16:45:49.376Z</time>
      </trkpt>
      <trkpt lat="42.359481" lon="0.534289">
        <ele>945.294319</ele>
        <time>2019-08-22T16:46:23.319Z</time>
      </trkpt>
      <trkpt lat="42.358724" lon="0.535892">
        <ele>942.063830</ele>
        <time>2019-08-22T16:46:39.336Z</time>
      </trkpt>
      <trkpt lat="42.358437" lon="0.536366">
        <ele>940.742334</ele>
        <time>2019-08-22T16:46:43.940Z</time>
      </trkpt>
      <trkpt lat="42.358135" lon="0.536713">
        <ele>939.416082</ele>
        <time>2019-08-22T16:46:47.752Z</time>
      </trkpt>
      <trkpt lat="42.357393" lon="0.537559">
        <ele>932.191595</ele>
        <time>2019-08-22T16:46:56.459Z</time>
      </trkpt>
      <trkpt lat="42.357140" lon="0.537857">
        <ele>929.694110</ele>
        <time>2019-08-22T16:46:59.401Z</time>
      </trkpt>
      <trkpt lat="42.357037" lon="0.537960">
        <ele>928.740490</ele>
        <time>2019-08-22T16:47:00.515Z</time>
      </trkpt>
      <trkpt lat="42.356914" lon="0.538078">
        <ele>927.617834</ele>
        <time>2019-08-22T16:47:01.834Z</time>
      </trkpt>
      <trkpt lat="42.356554" lon="0.538381">
        <ele>924.217983</ele>
        <time>2019-08-22T16:47:05.502Z</time>
      </trkpt>
      <trkpt lat="42.354227" lon="0.539804">
        <ele>904.552827</ele>
        <time>2019-08-22T16:47:27.970Z</time>
      </trkpt>
      <trkpt lat="42.353958" lon="0.540111">
        <ele>902.239190</ele>
        <time>2019-08-22T16:47:31.246Z</time>
      </trkpt>
      <trkpt lat="42.353745" lon="0.540456">
        <ele>900.054920</ele>
        <time>2019-08-22T16:47:34.400Z</time>
      </trkpt>
      <trkpt lat="42.353186" lon="0.541600">
        <ele>896.737135</ele>
        <time>2019-08-22T16:47:44.623Z</time>
      </trkpt>
      <trkpt lat="42.352734" lon="0.542817">
        <ele>893.925708</ele>
        <time>2019-08-22T16:47:55.716Z</time>
      </trkpt>
      <trkpt lat="42.352106" lon="0.546358">
        <ele>887.396056</ele>
        <time>2019-08-22T16:48:24.751Z</time>
      </trkpt>
      <trkpt lat="42.351866" lon="0.547176">
        <ele>885.594555</ele>
        <time>2019-08-22T16:48:31.339Z</time>
      </trkpt>
      <trkpt lat="42.351592" lon="0.547785">
        <ele>883.751593</ele>
        <time>2019-08-22T16:48:36.593Z</time>
      </trkpt>
      <trkpt lat="42.349774" lon="0.551877">
        <ele>870.151082</ele>
        <time>2019-08-22T16:49:11.274Z</time>
      </trkpt>
      <trkpt lat="42.349593" lon="0.552284">
        <ele>868.741004</ele>
        <time>2019-08-22T16:49:14.722Z</time>
      </trkpt>
      <trkpt lat="42.349374" lon="0.552893">
        <ele>866.730494</ele>
        <time>2019-08-22T16:49:19.654Z</time>
      </trkpt>
      <trkpt lat="42.349283" lon="0.553316">
        <ele>865.422670</ele>
        <time>2019-08-22T16:49:22.869Z</time>
      </trkpt>
      <trkpt lat="42.349037" lon="0.555188">
        <ele>858.770207</ele>
        <time>2019-08-22T16:49:36.343Z</time>
      </trkpt>
      <trkpt lat="42.348948" lon="0.555555">
        <ele>857.360866</ele>
        <time>2019-08-22T16:49:38.989Z</time>
      </trkpt>
      <trkpt lat="42.348786" lon="0.556025">
        <ele>855.468611</ele>
        <time>2019-08-22T16:49:42.530Z</time>
      </trkpt>
      <trkpt lat="42.348508" lon="0.556639">
        <ele>853.422659</ele>
        <time>2019-08-22T16:49:47.512Z</time>
      </trkpt>
      <trkpt lat="42.348216" lon="0.557217">
        <ele>851.472521</ele>
        <time>2019-08-22T16:49:52.467Z</time>
      </trkpt>
      <trkpt lat="42.348023" lon="0.557574">
        <ele>850.240496</ele>
        <time>2019-08-22T16:49:55.689Z</time>
      </trkpt>
      <trkpt lat="42.347400" lon="0.558444">
        <ele>849.101115</ele>
        <time>2019-08-22T16:50:05.893Z</time>
      </trkpt>
      <trkpt lat="42.344242" lon="0.562521">
        <ele>853.896222</ele>
        <time>2019-08-22T16:51:42.626Z</time>
      </trkpt>
      <trkpt lat="42.343880" lon="0.563106">
        <ele>854.180046</ele>
        <time>2019-08-22T16:51:49.176Z</time>
      </trkpt>
      <trkpt lat="42.343729" lon="0.563681">
        <ele>852.611662</ele>
        <time>2019-08-22T16:51:53.904Z</time>
      </trkpt>
      <trkpt lat="42.343727" lon="0.564294">
        <ele>850.914897</ele>
        <time>2019-08-22T16:51:58.383Z</time>
      </trkpt>
      <trkpt lat="42.343887" lon="0.565101">
        <ele>848.602202</ele>
        <time>2019-08-22T16:52:04.249Z</time>
      </trkpt>
      <trkpt lat="42.344129" lon="0.565941">
        <ele>846.401990</ele>
        <time>2019-08-22T16:52:10.634Z</time>
      </trkpt>
      <trkpt lat="42.344423" lon="0.566757">
        <ele>844.438075</ele>
        <time>2019-08-22T16:52:17.405Z</time>
      </trkpt>
      <trkpt lat="42.344438" lon="0.566946">
        <ele>844.026842</ele>
        <time>2019-08-22T16:52:18.877Z</time>
      </trkpt>
      <trkpt lat="42.344438" lon="0.567028">
        <ele>843.849444</ele>
        <time>2019-08-22T16:52:19.500Z</time>
      </trkpt>
      <trkpt lat="42.344464" lon="0.567119">
        <ele>843.638377</ele>
        <time>2019-08-22T16:52:20.290Z</time>
      </trkpt>
      <trkpt lat="42.344514" lon="0.567216">
        <ele>843.382534</ele>
        <time>2019-08-22T16:52:21.261Z</time>
      </trkpt>
      <trkpt lat="42.344566" lon="0.567283">
        <ele>843.172352</ele>
        <time>2019-08-22T16:52:22.029Z</time>
      </trkpt>
      <trkpt lat="42.344755" lon="0.567285">
        <ele>842.619125</ele>
        <time>2019-08-22T16:52:24.121Z</time>
      </trkpt>
      <trkpt lat="42.344880" lon="0.567307">
        <ele>842.250163</ele>
        <time>2019-08-22T16:52:25.635Z</time>
      </trkpt>
      <trkpt lat="42.345304" lon="0.567449">
        <ele>842.360268</ele>
        <time>2019-08-22T16:52:31.051Z</time>
      </trkpt>
      <trkpt lat="42.345790" lon="0.567727">
        <ele>842.570555</ele>
        <time>2019-08-22T16:52:39.358Z</time>
      </trkpt>
      <trkpt lat="42.346029" lon="0.567872">
        <ele>842.674942</ele>
        <time>2019-08-22T16:52:44.459Z</time>
      </trkpt>
      <trkpt lat="42.346520" lon="0.568163">
        <ele>842.888573</ele>
        <time>2019-08-22T16:52:55.414Z</time>
      </trkpt>
      <trkpt lat="42.347436" lon="0.568642">
        <ele>844.762661</ele>
        <time>2019-08-22T16:53:16.939Z</time>
      </trkpt>
      <trkpt lat="42.348919" lon="0.569087">
        <ele>848.140190</ele>
        <time>2019-08-22T16:53:53.489Z</time>
      </trkpt>
      <trkpt lat="42.349175" lon="0.569261">
        <ele>848.863957</ele>
        <time>2019-08-22T16:54:00.154Z</time>
      </trkpt>
      <trkpt lat="42.349399" lon="0.569549">
        <ele>849.644605</ele>
        <time>2019-08-22T16:54:08.030Z</time>
      </trkpt>
      <trkpt lat="42.349639" lon="0.569980">
        <ele>850.652191</ele>
        <time>2019-08-22T16:54:18.611Z</time>
      </trkpt>
      <trkpt lat="42.349832" lon="0.570362">
        <ele>851.606662</ele>
        <time>2019-08-22T16:54:27.719Z</time>
      </trkpt>
      <trkpt lat="42.350106" lon="0.570732">
        <ele>852.774407</ele>
        <time>2019-08-22T16:54:37.970Z</time>
      </trkpt>
      <trkpt lat="42.350274" lon="0.570909">
        <ele>853.416709</ele>
        <time>2019-08-22T16:54:43.716Z</time>
      </trkpt>
      <trkpt lat="42.350523" lon="0.571108">
        <ele>854.289083</ele>
        <time>2019-08-22T16:54:51.551Z</time>
      </trkpt>
      <trkpt lat="42.351789" lon="0.571997">
        <ele>858.220195</ele>
        <time>2019-08-22T16:55:30.568Z</time>
      </trkpt>
      <trkpt lat="42.352548" lon="0.572544">
        <ele>860.358804</ele>
        <time>2019-08-22T16:55:50.519Z</time>
      </trkpt>
      <trkpt lat="42.352777" lon="0.572715">
        <ele>861.004545</ele>
        <time>2019-08-22T16:55:56.306Z</time>
      </trkpt>
      <trkpt lat="42.353937" lon="0.573522">
        <ele>863.995016</ele>
        <time>2019-08-22T16:56:26.344Z</time>
      </trkpt>
      <trkpt lat="42.354372" lon="0.573692">
        <ele>865.033115</ele>
        <time>2019-08-22T16:56:38.221Z</time>
      </trkpt>
      <trkpt lat="42.354604" lon="0.573720">
        <ele>865.826429</ele>
        <time>2019-08-22T16:56:44.473Z</time>
      </trkpt>
      <trkpt lat="42.354839" lon="0.573714">
        <ele>866.647830</ele>
        <time>2019-08-22T16:56:51.102Z</time>
      </trkpt>
      <trkpt lat="42.355057" lon="0.573683">
        <ele>867.413870</ele>
        <time>2019-08-22T16:56:57.144Z</time>
      </trkpt>
      <trkpt lat="42.355535" lon="0.573529">
        <ele>869.131028</ele>
        <time>2019-08-22T16:57:11.466Z</time>
      </trkpt>
      <trkpt lat="42.355767" lon="0.573454">
        <ele>869.964613</ele>
        <time>2019-08-22T16:57:18.503Z</time>
      </trkpt>
      <trkpt lat="42.356154" lon="0.573411">
        <ele>871.321614</ele>
        <time>2019-08-22T16:57:30.282Z</time>
      </trkpt>
      <trkpt lat="42.356500" lon="0.573478">
        <ele>872.437813</ele>
        <time>2019-08-22T16:57:41.109Z</time>
      </trkpt>
      <trkpt lat="42.356847" lon="0.573628">
        <ele>873.597719</ele>
        <time>2019-08-22T16:57:52.163Z</time>
      </trkpt>
      <trkpt lat="42.357614" lon="0.574089">
        <ele>876.270018</ele>
        <time>2019-08-22T16:58:14.479Z</time>
      </trkpt>
      <trkpt lat="42.357854" lon="0.574280">
        <ele>877.125823</ele>
        <time>2019-08-22T16:58:21.498Z</time>
      </trkpt>
      <trkpt lat="42.358126" lon="0.574519">
        <ele>877.712127</ele>
        <time>2019-08-22T16:58:29.096Z</time>
      </trkpt>
      <trkpt lat="42.358369" lon="0.574789">
        <ele>878.280545</ele>
        <time>2019-08-22T16:58:36.065Z</time>
      </trkpt>
      <trkpt lat="42.358631" lon="0.575106">
        <ele>878.915915</ele>
        <time>2019-08-22T16:58:43.503Z</time>
      </trkpt>
      <trkpt lat="42.359182" lon="0.575784">
        <ele>880.262265</ele>
        <time>2019-08-22T16:58:58.931Z</time>
      </trkpt>
      <trkpt lat="42.359741" lon="0.576445">
        <ele>882.329422</ele>
        <time>2019-08-22T16:59:14.976Z</time>
      </trkpt>
      <trkpt lat="42.360095" lon="0.576794">
        <ele>883.574331</ele>
        <time>2019-08-22T16:59:26.080Z</time>
      </trkpt>
      <trkpt lat="42.360872" lon="0.577518">
        <ele>886.929996</ele>
        <time>2019-08-22T16:59:55.159Z</time>
      </trkpt>
      <trkpt lat="42.362049" lon="0.579193">
        <ele>895.686605</ele>
        <time>2019-08-22T17:00:59.070Z</time>
      </trkpt>
      <trkpt lat="42.362255" lon="0.579598">
        <ele>897.284065</ele>
        <time>2019-08-22T17:01:12.145Z</time>
      </trkpt>
      <trkpt lat="42.362585" lon="0.580545">
        <ele>900.685824</ele>
        <time>2019-08-22T17:01:37.426Z</time>
      </trkpt>
      <trkpt lat="42.362926" lon="0.581315">
        <ele>903.231874</ele>
        <time>2019-08-22T17:01:56.316Z</time>
      </trkpt>
      <trkpt lat="42.365006" lon="0.585110">
        <ele>911.781515</ele>
        <time>2019-08-22T17:03:19.544Z</time>
      </trkpt>
      <trkpt lat="42.365241" lon="0.585487">
        <ele>913.120966</ele>
        <time>2019-08-22T17:03:29.380Z</time>
      </trkpt>
      <trkpt lat="42.365651" lon="0.585957">
        <ele>915.095748</ele>
        <time>2019-08-22T17:03:44.772Z</time>
      </trkpt>
      <trkpt lat="42.366214" lon="0.586542">
        <ele>917.704465</ele>
        <time>2019-08-22T17:04:07.541Z</time>
      </trkpt>
      <trkpt lat="42.366928" lon="0.587259">
        <ele>922.397718</ele>
        <time>2019-08-22T17:04:38.012Z</time>
      </trkpt>
      <trkpt lat="42.367329" lon="0.587650">
        <ele>925.105483</ele>
        <time>2019-08-22T17:04:57.341Z</time>
      </trkpt>
      <trkpt lat="42.367776" lon="0.588081">
        <ele>928.107862</ele>
        <time>2019-08-22T17:05:18.805Z</time>
      </trkpt>
      <trkpt lat="42.368101" lon="0.588439">
        <ele>930.348967</ele>
        <time>2019-08-22T17:05:35.303Z</time>
      </trkpt>
      <trkpt lat="42.368200" lon="0.588574">
        <ele>931.100580</ele>
        <time>2019-08-22T17:05:41.100Z</time>
      </trkpt>
      <trkpt lat="42.368302" lon="0.588757">
        <ele>932.006398</ele>
        <time>2019-08-22T17:05:47.316Z</time>
      </trkpt>
      <trkpt lat="42.368497" lon="0.589165">
        <ele>933.926523</ele>
        <time>2019-08-22T17:06:00.132Z</time>
      </trkpt>
      <trkpt lat="42.368691" lon="0.589586">
        <ele>935.887138</ele>
        <time>2019-08-22T17:06:12.827Z</time>
      </trkpt>
      <trkpt lat="42.368769" lon="0.589737">
        <ele>936.615180</ele>
        <time>2019-08-22T17:06:17.659Z</time>
      </trkpt>
      <trkpt lat="42.368973" lon="0.590052">
        <ele>938.035971</ele>
        <time>2019-08-22T17:06:27.959Z</time>
      </trkpt>
      <trkpt lat="42.369582" lon="0.590727">
        <ele>940.892979</ele>
        <time>2019-08-22T17:06:51.375Z</time>
      </trkpt>
      <trkpt lat="42.369784" lon="0.590962">
        <ele>941.859769</ele>
        <time>2019-08-22T17:06:58.654Z</time>
      </trkpt>
      <trkpt lat="42.369937" lon="0.591148">
        <ele>942.606209</ele>
        <time>2019-08-22T17:07:04.140Z</time>
      </trkpt>
      <trkpt lat="42.370389" lon="0.591675">
        <ele>944.555559</ele>
        <time>2019-08-22T17:07:20.842Z</time>
      </trkpt>
      <trkpt lat="42.370828" lon="0.591954">
        <ele>945.774445</ele>
        <time>2019-08-22T17:07:34.222Z</time>
      </trkpt>
      <trkpt lat="42.371015" lon="0.592004">
        <ele>946.253505</ele>
        <time>2019-08-22T17:07:39.537Z</time>
      </trkpt>
      <trkpt lat="42.371348" lon="0.592072">
        <ele>947.099890</ele>
        <time>2019-08-22T17:07:47.421Z</time>
      </trkpt>
      <trkpt lat="42.371517" lon="0.592118">
        <ele>947.533132</ele>
        <time>2019-08-22T17:07:50.327Z</time>
      </trkpt>
      <trkpt lat="42.371655" lon="0.592174">
        <ele>947.895212</ele>
        <time>2019-08-22T17:07:54.534Z</time>
      </trkpt>
      <trkpt lat="42.371776" lon="0.592242">
        <ele>948.224485</ele>
        <time>2019-08-22T17:07:56.720Z</time>
      </trkpt>
      <trkpt lat="42.372125" lon="0.592606">
        <ele>949.119746</ele>
        <time>2019-08-22T17:08:06.227Z</time>
      </trkpt>
      <trkpt lat="42.372208" lon="0.592763">
        <ele>949.375766</ele>
        <time>2019-08-22T17:08:10.497Z</time>
      </trkpt>
      <trkpt lat="42.372309" lon="0.592970">
        <ele>949.704743</ele>
        <time>2019-08-22T17:08:13.848Z</time>
      </trkpt>
      <trkpt lat="42.372663" lon="0.593749">
        <ele>950.917592</ele>
        <time>2019-08-22T17:08:28.662Z</time>
      </trkpt>
      <trkpt lat="42.373106" lon="0.594320">
        <ele>952.069539</ele>
        <time>2019-08-22T17:08:41.240Z</time>
      </trkpt>
      <trkpt lat="42.374418" lon="0.595089">
        <ele>955.337140</ele>
        <time>2019-08-22T17:09:17.309Z</time>
      </trkpt>
      <trkpt lat="42.376332" lon="0.597096">
        <ele>959.650013</ele>
        <time>2019-08-22T17:10:11.902Z</time>
      </trkpt>
      <trkpt lat="42.376597" lon="0.597240">
        <ele>959.849100</ele>
        <time>2019-08-22T17:10:17.220Z</time>
      </trkpt>
      <trkpt lat="42.376987" lon="0.597262">
        <ele>960.121243</ele>
        <time>2019-08-22T17:10:23.982Z</time>
      </trkpt>
      <trkpt lat="42.377877" lon="0.596899">
        <ele>960.630452</ele>
        <time>2019-08-22T17:10:37.679Z</time>
      </trkpt>
      <trkpt lat="42.378005" lon="0.596864">
        <ele>960.614947</ele>
        <time>2019-08-22T17:10:39.603Z</time>
      </trkpt>
      <trkpt lat="42.378117" lon="0.596849">
        <ele>960.601584</ele>
        <time>2019-08-22T17:10:41.067Z</time>
      </trkpt>
      <trkpt lat="42.378545" lon="0.596930">
        <ele>960.550274</ele>
        <time>2019-08-22T17:10:47.097Z</time>
      </trkpt>
      <trkpt lat="42.378699" lon="0.596994">
        <ele>960.531147</ele>
        <time>2019-08-22T17:10:49.438Z</time>
      </trkpt>
      <trkpt lat="42.379125" lon="0.597259">
        <ele>960.475484</ele>
        <time>2019-08-22T17:10:56.102Z</time>
      </trkpt>
      <trkpt lat="42.379673" lon="0.597620">
        <ele>960.589876</ele>
        <time>2019-08-22T17:11:05.228Z</time>
      </trkpt>
      <trkpt lat="42.380195" lon="0.597946">
        <ele>960.896757</ele>
        <time>2019-08-22T17:11:13.950Z</time>
      </trkpt>
      <trkpt lat="42.380689" lon="0.598245">
        <ele>961.185625</ele>
        <time>2019-08-22T17:11:22.174Z</time>
      </trkpt>
      <trkpt lat="42.380966" lon="0.598360">
        <ele>961.340293</ele>
        <time>2019-08-22T17:11:28.218Z</time>
      </trkpt>
      <trkpt lat="42.381440" lon="0.598355">
        <ele>962.700007</ele>
        <time>2019-08-22T17:11:38.154Z</time>
      </trkpt>
      <trkpt lat="42.381613" lon="0.598313">
        <ele>963.323420</ele>
        <time>2019-08-22T17:11:43.001Z</time>
      </trkpt>
      <trkpt lat="42.382107" lon="0.598110">
        <ele>965.154559</ele>
        <time>2019-08-22T17:11:58.250Z</time>
      </trkpt>
      <trkpt lat="42.382264" lon="0.598059">
        <ele>965.727237</ele>
        <time>2019-08-22T17:12:03.619Z</time>
      </trkpt>
      <trkpt lat="42.382397" lon="0.598033">
        <ele>966.203875</ele>
        <time>2019-08-22T17:12:08.586Z</time>
      </trkpt>
      <trkpt lat="42.382829" lon="0.598061">
        <ele>967.737915</ele>
        <time>2019-08-22T17:12:22.594Z</time>
      </trkpt>
      <trkpt lat="42.383049" lon="0.598098">
        <ele>968.610702</ele>
        <time>2019-08-22T17:12:30.743Z</time>
      </trkpt>
      <trkpt lat="42.383778" lon="0.598240">
        <ele>971.525308</ele>
        <time>2019-08-22T17:12:57.212Z</time>
      </trkpt>
      <trkpt lat="42.386461" lon="0.598724">
        <ele>979.651638</ele>
        <time>2019-08-22T17:14:06.165Z</time>
      </trkpt>
      <trkpt lat="42.386911" lon="0.598716">
        <ele>980.718519</ele>
        <time>2019-08-22T17:14:15.624Z</time>
      </trkpt>
      <trkpt lat="42.387190" lon="0.598590">
        <ele>981.415753</ele>
        <time>2019-08-22T17:14:21.925Z</time>
      </trkpt>
      <trkpt lat="42.389356" lon="0.597070">
        <ele>988.497291</ele>
        <time>2019-08-22T17:15:25.209Z</time>
      </trkpt>
      <trkpt lat="42.389761" lon="0.596853">
        <ele>990.028428</ele>
        <time>2019-08-22T17:15:39.629Z</time>
      </trkpt>
      <trkpt lat="42.390293" lon="0.596754">
        <ele>992.511411</ele>
        <time>2019-08-22T17:15:58.198Z</time>
      </trkpt>
      <trkpt lat="42.391513" lon="0.596965">
        <ele>998.102845</ele>
        <time>2019-08-22T17:16:40.402Z</time>
      </trkpt>
      <trkpt lat="42.392173" lon="0.597022">
        <ele>999.816938</ele>
        <time>2019-08-22T17:16:59.583Z</time>
      </trkpt>
      <trkpt lat="42.392491" lon="0.596956">
        <ele>1000.650771</ele>
        <time>2019-08-22T17:17:07.831Z</time>
      </trkpt>
      <trkpt lat="42.392866" lon="0.596793">
        <ele>1001.671565</ele>
        <time>2019-08-22T17:17:16.951Z</time>
      </trkpt>
      <trkpt lat="42.393713" lon="0.596216">
        <ele>1002.832626</ele>
        <time>2019-08-22T17:17:33.780Z</time>
      </trkpt>
      <trkpt lat="42.394008" lon="0.596071">
        <ele>1002.936458</ele>
        <time>2019-08-22T17:17:38.147Z</time>
      </trkpt>
      <trkpt lat="42.394449" lon="0.596052">
        <ele>1003.082436</ele>
        <time>2019-08-22T17:17:43.834Z</time>
      </trkpt>
      <trkpt lat="42.394736" lon="0.596180">
        <ele>1003.182407</ele>
        <time>2019-08-22T17:17:47.803Z</time>
      </trkpt>
      <trkpt lat="42.394804" lon="0.596238">
        <ele>1003.208996</ele>
        <time>2019-08-22T17:17:49.378Z</time>
      </trkpt>
      <trkpt lat="42.394880" lon="0.596305">
        <ele>1003.250209</ele>
        <time>2019-08-22T17:17:50.674Z</time>
      </trkpt>
      <trkpt lat="42.395363" lon="0.596957">
        <ele>1006.009707</ele>
        <time>2019-08-22T17:18:06.172Z</time>
      </trkpt>
      <trkpt lat="42.395563" lon="0.597113">
        <ele>1006.943585</ele>
        <time>2019-08-22T17:18:12.570Z</time>
      </trkpt>
      <trkpt lat="42.395765" lon="0.597174">
        <ele>1007.780977</ele>
        <time>2019-08-22T17:18:21.269Z</time>
      </trkpt>
      <trkpt lat="42.395891" lon="0.597182">
        <ele>1008.291347</ele>
        <time>2019-08-22T17:18:24.579Z</time>
      </trkpt>
      <trkpt lat="42.396011" lon="0.597151">
        <ele>1008.785637</ele>
        <time>2019-08-22T17:18:29.879Z</time>
      </trkpt>
      <trkpt lat="42.396341" lon="0.596879">
        <ele>1010.348764</ele>
        <time>2019-08-22T17:18:46.267Z</time>
      </trkpt>
      <trkpt lat="42.396533" lon="0.596570">
        <ele>1012.188808</ele>
        <time>2019-08-22T17:18:57.951Z</time>
      </trkpt>
      <trkpt lat="42.396598" lon="0.596479">
        <ele>1012.797513</ele>
        <time>2019-08-22T17:19:04.331Z</time>
      </trkpt>
      <trkpt lat="42.396807" lon="0.596272">
        <ele>1014.483361</ele>
        <time>2019-08-22T17:19:13.962Z</time>
      </trkpt>
      <trkpt lat="42.397125" lon="0.596149">
        <ele>1016.636532</ele>
        <time>2019-08-22T17:19:29.384Z</time>
      </trkpt>
      <trkpt lat="42.397558" lon="0.596073">
        <ele>1019.479197</ele>
        <time>2019-08-22T17:19:49.581Z</time>
      </trkpt>
      <trkpt lat="42.397991" lon="0.596121">
        <ele>1022.235950</ele>
        <time>2019-08-22T17:20:07.940Z</time>
      </trkpt>
      <trkpt lat="42.398286" lon="0.596285">
        <ele>1022.494956</ele>
        <time>2019-08-22T17:20:14.252Z</time>
      </trkpt>
      <trkpt lat="42.398551" lon="0.596567">
        <ele>1022.768698</ele>
        <time>2019-08-22T17:20:19.824Z</time>
      </trkpt>
      <trkpt lat="42.398963" lon="0.597429">
        <ele>1023.384557</ele>
        <time>2019-08-22T17:20:30.085Z</time>
      </trkpt>
      <trkpt lat="42.399082" lon="0.597730">
        <ele>1023.589336</ele>
        <time>2019-08-22T17:20:33.337Z</time>
      </trkpt>
      <trkpt lat="42.399110" lon="0.597796">
        <ele>1023.634989</ele>
        <time>2019-08-22T17:20:34.320Z</time>
      </trkpt>
      <trkpt lat="42.399213" lon="0.598037">
        <ele>1023.772427</ele>
        <time>2019-08-22T17:20:37.048Z</time>
      </trkpt>
      <trkpt lat="42.399422" lon="0.598347">
        <ele>1023.959681</ele>
        <time>2019-08-22T17:20:41.083Z</time>
      </trkpt>
      <trkpt lat="42.399565" lon="0.598492">
        <ele>1024.067598</ele>
        <time>2019-08-22T17:20:43.240Z</time>
      </trkpt>
      <trkpt lat="42.399754" lon="0.598676">
        <ele>1024.208213</ele>
        <time>2019-08-22T17:20:46.279Z</time>
      </trkpt>
      <trkpt lat="42.399869" lon="0.598764">
        <ele>1024.288008</ele>
        <time>2019-08-22T17:20:47.937Z</time>
      </trkpt>
      <trkpt lat="42.400160" lon="0.599022">
        <ele>1024.498121</ele>
        <time>2019-08-22T17:20:52.530Z</time>
      </trkpt>
      <trkpt lat="42.400647" lon="0.599476">
        <ele>1025.739301</ele>
        <time>2019-08-22T17:21:07.924Z</time>
      </trkpt>
      <trkpt lat="42.400829" lon="0.599584">
        <ele>1027.150888</ele>
        <time>2019-08-22T17:21:15.464Z</time>
      </trkpt>
      <trkpt lat="42.401089" lon="0.599590">
        <ele>1028.998162</ele>
        <time>2019-08-22T17:21:22.617Z</time>
      </trkpt>
      <trkpt lat="42.401330" lon="0.599463">
        <ele>1030.835251</ele>
        <time>2019-08-22T17:21:37.614Z</time>
      </trkpt>
      <trkpt lat="42.401548" lon="0.599227">
        <ele>1032.817911</ele>
        <time>2019-08-22T17:21:51.361Z</time>
      </trkpt>
      <trkpt lat="42.401700" lon="0.599093">
        <ele>1034.106342</ele>
        <time>2019-08-22T17:21:57.306Z</time>
      </trkpt>
      <trkpt lat="42.401814" lon="0.599039">
        <ele>1034.964295</ele>
        <time>2019-08-22T17:22:04.937Z</time>
      </trkpt>
      <trkpt lat="42.402501" lon="0.598986">
        <ele>1040.867648</ele>
        <time>2019-08-22T17:22:40.290Z</time>
      </trkpt>
      <trkpt lat="42.402633" lon="0.599018">
        <ele>1042.240305</ele>
        <time>2019-08-22T17:22:50.402Z</time>
      </trkpt>
      <trkpt lat="42.402759" lon="0.599098">
        <ele>1043.664783</ele>
        <time>2019-08-22T17:22:56.008Z</time>
      </trkpt>
      <trkpt lat="42.403056" lon="0.599412">
        <ele>1047.521672</ele>
        <time>2019-08-22T17:23:20.628Z</time>
      </trkpt>
      <trkpt lat="42.403289" lon="0.599637">
        <ele>1050.450959</ele>
        <time>2019-08-22T17:23:41.610Z</time>
      </trkpt>
      <trkpt lat="42.404393" lon="0.600643">
        <ele>1059.103172</ele>
        <time>2019-08-22T17:24:42.499Z</time>
      </trkpt>
      <trkpt lat="42.404553" lon="0.600770">
        <ele>1059.838513</ele>
        <time>2019-08-22T17:24:47.561Z</time>
      </trkpt>
      <trkpt lat="42.404809" lon="0.600944">
        <ele>1060.974227</ele>
        <time>2019-08-22T17:24:54.045Z</time>
      </trkpt>
      <trkpt lat="42.404994" lon="0.601126">
        <ele>1061.880870</ele>
        <time>2019-08-22T17:24:58.509Z</time>
      </trkpt>
      <trkpt lat="42.405070" lon="0.601276">
        <ele>1062.413479</ele>
        <time>2019-08-22T17:25:00.060Z</time>
      </trkpt>
      <trkpt lat="42.405142" lon="0.601464">
        <ele>1063.033528</ele>
        <time>2019-08-22T17:25:02.309Z</time>
      </trkpt>
      <trkpt lat="42.405225" lon="0.601716">
        <ele>1063.081887</ele>
        <time>2019-08-22T17:25:04.390Z</time>
      </trkpt>
      <trkpt lat="42.405369" lon="0.602121">
        <ele>1063.061639</ele>
        <time>2019-08-22T17:25:08.942Z</time>
      </trkpt>
      <trkpt lat="42.405622" lon="0.602598">
        <ele>1063.035184</ele>
        <time>2019-08-22T17:25:14.143Z</time>
      </trkpt>
      <trkpt lat="42.405908" lon="0.603099">
        <ele>1063.006659</ele>
        <time>2019-08-22T17:25:20.035Z</time>
      </trkpt>
      <trkpt lat="42.406127" lon="0.603483">
        <ele>1062.984804</ele>
        <time>2019-08-22T17:25:25.763Z</time>
      </trkpt>
      <trkpt lat="42.406223" lon="0.603620">
        <ele>1063.379933</ele>
        <time>2019-08-22T17:25:31.560Z</time>
      </trkpt>
      <trkpt lat="42.406785" lon="0.604031">
        <ele>1065.473275</ele>
        <time>2019-08-22T17:25:48.999Z</time>
      </trkpt>
      <trkpt lat="42.407716" lon="0.605293">
        <ele>1069.145894</ele>
        <time>2019-08-22T17:26:30.289Z</time>
      </trkpt>
      <trkpt lat="42.407886" lon="0.605557">
        <ele>1069.394314</ele>
        <time>2019-08-22T17:26:35.340Z</time>
      </trkpt>
      <trkpt lat="42.408128" lon="0.606308">
        <ele>1069.975413</ele>
        <time>2019-08-22T17:26:44.849Z</time>
      </trkpt>
      <trkpt lat="42.408955" lon="0.607565">
        <ele>1071.266689</ele>
        <time>2019-08-22T17:27:01.985Z</time>
      </trkpt>
      <trkpt lat="42.409145" lon="0.607680">
        <ele>1071.501112</ele>
        <time>2019-08-22T17:27:05.575Z</time>
      </trkpt>
      <trkpt lat="42.409842" lon="0.607856">
        <ele>1072.299768</ele>
        <time>2019-08-22T17:27:20.663Z</time>
      </trkpt>
      <trkpt lat="42.410244" lon="0.608123">
        <ele>1073.104309</ele>
        <time>2019-08-22T17:27:31.958Z</time>
      </trkpt>
      <trkpt lat="42.410619" lon="0.608491">
        <ele>1074.537434</ele>
        <time>2019-08-22T17:27:44.823Z</time>
      </trkpt>
      <trkpt lat="42.410891" lon="0.608966">
        <ele>1075.910944</ele>
        <time>2019-08-22T17:27:57.577Z</time>
      </trkpt>
      <trkpt lat="42.411422" lon="0.609370">
        <ele>1077.795765</ele>
        <time>2019-08-22T17:28:14.974Z</time>
      </trkpt>
      <trkpt lat="42.411902" lon="0.610001">
        <ele>1079.395350</ele>
        <time>2019-08-22T17:28:32.087Z</time>
      </trkpt>
      <trkpt lat="42.412292" lon="0.610154">
        <ele>1080.297290</ele>
        <time>2019-08-22T17:28:41.498Z</time>
      </trkpt>
      <trkpt lat="42.413030" lon="0.610194">
        <ele>1081.937968</ele>
        <time>2019-08-22T17:28:57.700Z</time>
      </trkpt>
      <trkpt lat="42.413212" lon="0.610293">
        <ele>1082.415598</ele>
        <time>2019-08-22T17:29:02.073Z</time>
      </trkpt>
      <trkpt lat="42.413601" lon="0.610665">
        <ele>1083.720512</ele>
        <time>2019-08-22T17:29:12.955Z</time>
      </trkpt>
      <trkpt lat="42.413874" lon="0.611112">
        <ele>1084.894203</ele>
        <time>2019-08-22T17:29:23.035Z</time>
      </trkpt>
      <trkpt lat="42.414118" lon="0.611393">
        <ele>1085.771867</ele>
        <time>2019-08-22T17:29:31.340Z</time>
      </trkpt>
      <trkpt lat="42.415110" lon="0.612068">
        <ele>1089.834916</ele>
        <time>2019-08-22T17:30:05.367Z</time>
      </trkpt>
      <trkpt lat="42.415487" lon="0.612413">
        <ele>1091.834388</ele>
        <time>2019-08-22T17:30:20.855Z</time>
      </trkpt>
      <trkpt lat="42.415682" lon="0.612504">
        <ele>1092.740784</ele>
        <time>2019-08-22T17:30:27.984Z</time>
      </trkpt>
      <trkpt lat="42.416154" lon="0.612574">
        <ele>1094.827466</ele>
        <time>2019-08-22T17:30:43.930Z</time>
      </trkpt>
      <trkpt lat="42.417180" lon="0.612568">
        <ele>1099.319663</ele>
        <time>2019-08-22T17:31:17.207Z</time>
      </trkpt>
      <trkpt lat="42.417479" lon="0.612828">
        <ele>1100.875046</ele>
        <time>2019-08-22T17:31:28.472Z</time>
      </trkpt>
      <trkpt lat="42.417866" lon="0.613527">
        <ele>1103.781101</ele>
        <time>2019-08-22T17:31:48.950Z</time>
      </trkpt>
      <trkpt lat="42.418317" lon="0.613642">
        <ele>1105.997616</ele>
        <time>2019-08-22T17:32:04.178Z</time>
      </trkpt>
      <trkpt lat="42.418914" lon="0.613889">
        <ele>1109.012529</ele>
        <time>2019-08-22T17:32:25.955Z</time>
      </trkpt>
      <trkpt lat="42.420351" lon="0.614114">
        <ele>1115.599918</ele>
        <time>2019-08-22T17:33:16.921Z</time>
      </trkpt>
      <trkpt lat="42.420577" lon="0.614273">
        <ele>1116.718555</ele>
        <time>2019-08-22T17:33:24.942Z</time>
      </trkpt>
      <trkpt lat="42.421274" lon="0.614961">
        <ele>1120.394000</ele>
        <time>2019-08-22T17:33:49.801Z</time>
      </trkpt>
      <trkpt lat="42.421615" lon="0.615132">
        <ele>1121.814183</ele>
        <time>2019-08-22T17:34:00.146Z</time>
      </trkpt>
      <trkpt lat="42.422397" lon="0.615197">
        <ele>1124.874214</ele>
        <time>2019-08-22T17:34:23.297Z</time>
      </trkpt>
      <trkpt lat="42.422716" lon="0.615163">
        <ele>1126.123994</ele>
        <time>2019-08-22T17:34:33.648Z</time>
      </trkpt>
      <trkpt lat="42.423339" lon="0.614916">
        <ele>1129.504671</ele>
        <time>2019-08-22T17:34:56.464Z</time>
      </trkpt>
      <trkpt lat="42.424256" lon="0.614242">
        <ele>1135.185048</ele>
        <time>2019-08-22T17:35:36.476Z</time>
      </trkpt>
      <trkpt lat="42.424696" lon="0.614236">
        <ele>1137.443279</ele>
        <time>2019-08-22T17:35:52.825Z</time>
      </trkpt>
      <trkpt lat="42.425101" lon="0.614324">
        <ele>1139.435347</ele>
        <time>2019-08-22T17:36:07.325Z</time>
      </trkpt>
      <trkpt lat="42.426803" lon="0.615449">
        <ele>1148.391662</ele>
        <time>2019-08-22T17:37:09.522Z</time>
      </trkpt>
      <trkpt lat="42.427407" lon="0.616342">
        <ele>1152.442143</ele>
        <time>2019-08-22T17:37:38.795Z</time>
      </trkpt>
      <trkpt lat="42.427841" lon="0.616711">
        <ele>1155.293523</ele>
        <time>2019-08-22T17:37:55.325Z</time>
      </trkpt>
      <trkpt lat="42.428259" lon="0.617590">
        <ele>1159.968946</ele>
        <time>2019-08-22T17:38:24.147Z</time>
      </trkpt>
      <trkpt lat="42.428439" lon="0.617737">
        <ele>1161.242136</ele>
        <time>2019-08-22T17:38:32.783Z</time>
      </trkpt>
      <trkpt lat="42.428751" lon="0.617829">
        <ele>1163.176414</ele>
        <time>2019-08-22T17:38:47.791Z</time>
      </trkpt>
      <trkpt lat="42.428870" lon="0.617861">
        <ele>1163.911354</ele>
        <time>2019-08-22T17:38:53.574Z</time>
      </trkpt>
      <trkpt lat="42.428971" lon="0.617907">
        <ele>1164.693745</ele>
        <time>2019-08-22T17:38:59.026Z</time>
      </trkpt>
      <trkpt lat="42.429049" lon="0.617982">
        <ele>1165.442054</ele>
        <time>2019-08-22T17:39:02.767Z</time>
      </trkpt>
      <trkpt lat="42.429107" lon="0.618063">
        <ele>1166.093739</ele>
        <time>2019-08-22T17:39:05.957Z</time>
      </trkpt>
      <trkpt lat="42.429156" lon="0.618156">
        <ele>1166.753571</ele>
        <time>2019-08-22T17:39:10.376Z</time>
      </trkpt>
      <trkpt lat="42.429197" lon="0.618261">
        <ele>1167.439529</ele>
        <time>2019-08-22T17:39:15.047Z</time>
      </trkpt>
      <trkpt lat="42.429232" lon="0.618514">
        <ele>1168.925958</ele>
        <time>2019-08-22T17:39:22.378Z</time>
      </trkpt>
      <trkpt lat="42.429179" lon="0.618792">
        <ele>1170.584000</ele>
        <time>2019-08-22T17:39:32.756Z</time>
      </trkpt>
      <trkpt lat="42.429106" lon="0.618983">
        <ele>1171.826056</ele>
        <time>2019-08-22T17:39:39.399Z</time>
      </trkpt>
      <trkpt lat="42.429050" lon="0.619097">
        <ele>1172.616831</ele>
        <time>2019-08-22T17:39:45.366Z</time>
      </trkpt>
      <trkpt lat="42.428867" lon="0.619459">
        <ele>1175.150549</ele>
        <time>2019-08-22T17:40:00.012Z</time>
      </trkpt>
      <trkpt lat="42.428776" lon="0.619774">
        <ele>1177.103939</ele>
        <time>2019-08-22T17:40:11.804Z</time>
      </trkpt>
      <trkpt lat="42.428805" lon="0.620387">
        <ele>1179.915728</ele>
        <time>2019-08-22T17:40:33.824Z</time>
      </trkpt>
      <trkpt lat="42.428763" lon="0.620710">
        <ele>1181.250823</ele>
        <time>2019-08-22T17:40:43.773Z</time>
      </trkpt>
      <trkpt lat="42.428669" lon="0.620892">
        <ele>1182.155061</ele>
        <time>2019-08-22T17:40:51.639Z</time>
      </trkpt>
      <trkpt lat="42.428257" lon="0.621328">
        <ele>1185.038280</ele>
        <time>2019-08-22T17:41:07.935Z</time>
      </trkpt>
      <trkpt lat="42.428185" lon="0.621656">
        <ele>1186.431287</ele>
        <time>2019-08-22T17:41:15.677Z</time>
      </trkpt>
      <trkpt lat="42.428305" lon="0.622343">
        <ele>1188.789374</ele>
        <time>2019-08-22T17:41:31.375Z</time>
      </trkpt>
      <trkpt lat="42.428210" lon="0.623123">
        <ele>1190.654339</ele>
        <time>2019-08-22T17:41:47.880Z</time>
      </trkpt>
      <trkpt lat="42.428331" lon="0.624018">
        <ele>1192.800840</ele>
        <time>2019-08-22T17:42:05.696Z</time>
      </trkpt>
      <trkpt lat="42.428231" lon="0.624385">
        <ele>1193.723730</ele>
        <time>2019-08-22T17:42:13.152Z</time>
      </trkpt>
      <trkpt lat="42.428004" lon="0.624887">
        <ele>1195.213384</ele>
        <time>2019-08-22T17:42:24.428Z</time>
      </trkpt>
      <trkpt lat="42.427969" lon="0.625280">
        <ele>1196.220480</ele>
        <time>2019-08-22T17:42:32.642Z</time>
      </trkpt>
      <trkpt lat="42.428043" lon="0.625583">
        <ele>1197.032453</ele>
        <time>2019-08-22T17:42:39.450Z</time>
      </trkpt>
      <trkpt lat="42.428714" lon="0.627210">
        <ele>1201.348008</ele>
        <time>2019-08-22T17:43:21.057Z</time>
      </trkpt>
      <trkpt lat="42.428822" lon="0.627752">
        <ele>1202.428073</ele>
        <time>2019-08-22T17:43:32.696Z</time>
      </trkpt>
      <trkpt lat="42.428744" lon="0.629239">
        <ele>1204.828834</ele>
        <time>2019-08-22T17:43:56.796Z</time>
      </trkpt>
      <trkpt lat="42.428622" lon="0.630092">
        <ele>1205.157123</ele>
        <time>2019-08-22T17:44:06.644Z</time>
      </trkpt>
      <trkpt lat="42.428423" lon="0.630724">
        <ele>1205.416736</ele>
        <time>2019-08-22T17:44:13.196Z</time>
      </trkpt>
      <trkpt lat="42.427743" lon="0.632340">
        <ele>1208.965463</ele>
        <time>2019-08-22T17:44:39.312Z</time>
      </trkpt>
      <trkpt lat="42.427728" lon="0.632652">
        <ele>1209.777916</ele>
        <time>2019-08-22T17:44:48.758Z</time>
      </trkpt>
      <trkpt lat="42.427772" lon="0.632957">
        <ele>1210.585457</ele>
        <time>2019-08-22T17:44:58.955Z</time>
      </trkpt>
      <trkpt lat="42.428122" lon="0.633758">
        <ele>1212.648256</ele>
        <time>2019-08-22T17:45:28.708Z</time>
      </trkpt>
      <trkpt lat="42.428407" lon="0.634374">
        <ele>1213.888862</ele>
        <time>2019-08-22T17:45:40.807Z</time>
      </trkpt>
      <trkpt lat="42.428492" lon="0.634568">
        <ele>1214.273844</ele>
        <time>2019-08-22T17:45:44.731Z</time>
      </trkpt>
      <trkpt lat="42.428556" lon="0.634823">
        <ele>1214.733455</ele>
        <time>2019-08-22T17:45:48.093Z</time>
      </trkpt>
      <trkpt lat="42.428542" lon="0.635049">
        <ele>1215.120468</ele>
        <time>2019-08-22T17:45:51.664Z</time>
      </trkpt>
      <trkpt lat="42.428509" lon="0.635159">
        <ele>1215.323089</ele>
        <time>2019-08-22T17:45:54.116Z</time>
      </trkpt>
      <trkpt lat="42.428477" lon="0.635229">
        <ele>1215.463594</ele>
        <time>2019-08-22T17:45:54.659Z</time>
      </trkpt>
      <trkpt lat="42.428432" lon="0.635297">
        <ele>1215.619441</ele>
        <time>2019-08-22T17:45:56.765Z</time>
      </trkpt>
      <trkpt lat="42.428311" lon="0.635423">
        <ele>1215.972263</ele>
        <time>2019-08-22T17:45:59.446Z</time>
      </trkpt>
      <trkpt lat="42.428037" lon="0.635672">
        <ele>1215.597301</ele>
        <time>2019-08-22T17:46:04.409Z</time>
      </trkpt>
      <trkpt lat="42.427902" lon="0.635808">
        <ele>1215.260190</ele>
        <time>2019-08-22T17:46:06.079Z</time>
      </trkpt>
      <trkpt lat="42.427838" lon="0.635902">
        <ele>1215.071041</ele>
        <time>2019-08-22T17:46:07.541Z</time>
      </trkpt>
      <trkpt lat="42.427756" lon="0.636153">
        <ele>1214.665053</ele>
        <time>2019-08-22T17:46:09.679Z</time>
      </trkpt>
      <trkpt lat="42.427723" lon="0.636523">
        <ele>1214.113810</ele>
        <time>2019-08-22T17:46:12.212Z</time>
      </trkpt>
      <trkpt lat="42.427755" lon="0.638324">
        <ele>1213.017642</ele>
        <time>2019-08-22T17:46:27.085Z</time>
      </trkpt>
      <trkpt lat="42.427845" lon="0.639239">
        <ele>1213.649594</ele>
        <time>2019-08-22T17:46:42.716Z</time>
      </trkpt>
      <trkpt lat="42.427638" lon="0.640143">
        <ele>1214.663626</ele>
        <time>2019-08-22T17:46:58.861Z</time>
      </trkpt>
      <trkpt lat="42.427952" lon="0.641634">
        <ele>1219.323717</ele>
        <time>2019-08-22T17:47:30.912Z</time>
      </trkpt>
      <trkpt lat="42.428014" lon="0.642631">
        <ele>1223.338562</ele>
        <time>2019-08-22T17:47:58.975Z</time>
      </trkpt>
      <trkpt lat="42.427911" lon="0.644123">
        <ele>1233.394463</ele>
        <time>2019-08-22T17:48:52.644Z</time>
      </trkpt>
      <trkpt lat="42.427808" lon="0.644968">
        <ele>1239.851925</ele>
        <time>2019-08-22T17:49:32.754Z</time>
      </trkpt>
      <trkpt lat="42.428036" lon="0.645583">
        <ele>1247.040427</ele>
        <time>2019-08-22T17:50:07.528Z</time>
      </trkpt>
      <trkpt lat="42.428256" lon="0.645907">
        <ele>1251.638791</ele>
        <time>2019-08-22T17:50:30.332Z</time>
      </trkpt>
      <trkpt lat="42.428869" lon="0.646246">
        <ele>1261.008146</ele>
        <time>2019-08-22T17:51:21.548Z</time>
      </trkpt>
      <trkpt lat="42.429362" lon="0.646647">
        <ele>1269.303836</ele>
        <time>2019-08-22T17:52:06.898Z</time>
      </trkpt>
      <trkpt lat="42.430107" lon="0.646902">
        <ele>1280.473355</ele>
        <time>2019-08-22T17:53:00.207Z</time>
      </trkpt>
      <trkpt lat="42.430276" lon="0.646945">
        <ele>1282.972871</ele>
        <time>2019-08-22T17:53:15.549Z</time>
      </trkpt>
      <trkpt lat="42.430363" lon="0.646947">
        <ele>1284.237679</ele>
        <time>2019-08-22T17:53:20.378Z</time>
      </trkpt>
      <trkpt lat="42.430618" lon="0.646806">
        <ele>1288.241156</ele>
        <time>2019-08-22T17:53:41.676Z</time>
      </trkpt>
      <trkpt lat="42.430902" lon="0.646281">
        <ele>1292.621659</ele>
        <time>2019-08-22T17:54:14.937Z</time>
      </trkpt>
      <trkpt lat="42.431028" lon="0.646155">
        <ele>1293.869639</ele>
        <time>2019-08-22T17:54:26.226Z</time>
      </trkpt>
      <trkpt lat="42.431247" lon="0.646189">
        <ele>1295.626272</ele>
        <time>2019-08-22T17:54:35.559Z</time>
      </trkpt>
      <trkpt lat="42.431301" lon="0.646450">
        <ele>1297.220600</ele>
        <time>2019-08-22T17:54:48.492Z</time>
      </trkpt>
      <trkpt lat="42.431271" lon="0.646527">
        <ele>1297.732726</ele>
        <time>2019-08-22T17:54:49.375Z</time>
      </trkpt>
      <trkpt lat="42.431218" lon="0.646624">
        <ele>1298.442583</ele>
        <time>2019-08-22T17:54:51.919Z</time>
      </trkpt>
      <trkpt lat="42.430887" lon="0.646972">
        <ele>1301.781354</ele>
        <time>2019-08-22T17:55:03.204Z</time>
      </trkpt>
      <trkpt lat="42.430673" lon="0.647159">
        <ele>1303.800404</ele>
        <time>2019-08-22T17:55:09.186Z</time>
      </trkpt>
      <trkpt lat="42.430554" lon="0.647245">
        <ele>1304.105675</ele>
        <time>2019-08-22T17:55:13.500Z</time>
      </trkpt>
      <trkpt lat="42.430462" lon="0.647283">
        <ele>1304.323373</ele>
        <time>2019-08-22T17:55:17.202Z</time>
      </trkpt>
      <trkpt lat="42.430350" lon="0.647287">
        <ele>1304.576966</ele>
        <time>2019-08-22T17:55:18.382Z</time>
      </trkpt>
      <trkpt lat="42.429741" lon="0.647160">
        <ele>1305.971630</ele>
        <time>2019-08-22T17:55:37.576Z</time>
      </trkpt>
      <trkpt lat="42.428939" lon="0.647168">
        <ele>1307.786953</ele>
        <time>2019-08-22T17:55:48.359Z</time>
      </trkpt>
      <trkpt lat="42.428713" lon="0.647258">
        <ele>1309.052365</ele>
        <time>2019-08-22T17:55:54.391Z</time>
      </trkpt>
      <trkpt lat="42.428170" lon="0.647771">
        <ele>1312.974398</ele>
        <time>2019-08-22T17:56:20.210Z</time>
      </trkpt>
      <trkpt lat="42.427955" lon="0.647737">
        <ele>1314.256840</ele>
        <time>2019-08-22T17:56:29.865Z</time>
      </trkpt>
      <trkpt lat="42.427496" lon="0.647139">
        <ele>1318.029646</ele>
        <time>2019-08-22T17:56:58.699Z</time>
      </trkpt>
      <trkpt lat="42.427151" lon="0.646999">
        <ele>1320.419206</ele>
        <time>2019-08-22T17:57:15.809Z</time>
      </trkpt>
      <trkpt lat="42.426784" lon="0.646951">
        <ele>1322.944501</ele>
        <time>2019-08-22T17:57:33.009Z</time>
      </trkpt>
      <trkpt lat="42.426649" lon="0.646864">
        <ele>1323.968408</ele>
        <time>2019-08-22T17:57:39.432Z</time>
      </trkpt>
      <trkpt lat="42.426598" lon="0.646719">
        <ele>1324.780436</ele>
        <time>2019-08-22T17:57:44.434Z</time>
      </trkpt>
      <trkpt lat="42.426610" lon="0.645671">
        <ele>1330.079329</ele>
        <time>2019-08-22T17:58:12.090Z</time>
      </trkpt>
      <trkpt lat="42.426427" lon="0.645139">
        <ele>1334.361602</ele>
        <time>2019-08-22T17:58:30.218Z</time>
      </trkpt>
      <trkpt lat="42.426286" lon="0.644907">
        <ele>1336.787450</ele>
        <time>2019-08-22T17:58:41.060Z</time>
      </trkpt>
      <trkpt lat="42.426099" lon="0.644754">
        <ele>1339.176445</ele>
        <time>2019-08-22T17:58:55.044Z</time>
      </trkpt>
      <trkpt lat="42.425710" lon="0.644573">
        <ele>1343.674364</ele>
        <time>2019-08-22T17:59:20.120Z</time>
      </trkpt>
      <trkpt lat="42.425269" lon="0.644465">
        <ele>1348.575192</ele>
        <time>2019-08-22T17:59:49.714Z</time>
      </trkpt>
      <trkpt lat="42.425155" lon="0.644496">
        <ele>1349.846734</ele>
        <time>2019-08-22T17:59:59.555Z</time>
      </trkpt>
      <trkpt lat="42.425024" lon="0.644623">
        <ele>1351.700106</ele>
        <time>2019-08-22T18:00:11.361Z</time>
      </trkpt>
      <trkpt lat="42.424684" lon="0.645299">
        <ele>1358.856087</ele>
        <time>2019-08-22T18:00:54.756Z</time>
      </trkpt>
      <trkpt lat="42.424369" lon="0.646094">
        <ele>1366.749442</ele>
        <time>2019-08-22T18:01:43.075Z</time>
      </trkpt>
      <trkpt lat="42.423737" lon="0.647750">
        <ele>1371.400472</ele>
        <time>2019-08-22T18:02:33.581Z</time>
      </trkpt>
      <trkpt lat="42.423394" lon="0.648657">
        <ele>1371.060828</ele>
        <time>2019-08-22T18:02:40.473Z</time>
      </trkpt>
      <trkpt lat="42.423321" lon="0.648890">
        <ele>1369.827239</ele>
        <time>2019-08-22T18:02:42.102Z</time>
      </trkpt>
      <trkpt lat="42.423291" lon="0.649077">
        <ele>1367.919687</ele>
        <time>2019-08-22T18:02:43.297Z</time>
      </trkpt>
      <trkpt lat="42.423302" lon="0.649760">
        <ele>1361.109838</ele>
        <time>2019-08-22T18:02:47.602Z</time>
      </trkpt>
      <trkpt lat="42.423317" lon="0.649952">
        <ele>1359.185270</ele>
        <time>2019-08-22T18:02:48.783Z</time>
      </trkpt>
      <trkpt lat="42.423329" lon="0.650110">
        <ele>1357.601993</ele>
        <time>2019-08-22T18:02:49.780Z</time>
      </trkpt>
      <trkpt lat="42.423354" lon="0.650446">
        <ele>1354.235735</ele>
        <time>2019-08-22T18:02:51.840Z</time>
      </trkpt>
      <trkpt lat="42.423484" lon="0.651559">
        <ele>1342.373397</ele>
        <time>2019-08-22T18:02:58.730Z</time>
      </trkpt>
      <trkpt lat="42.424074" lon="0.654105">
        <ele>1312.925915</ele>
        <time>2019-08-22T18:03:15.086Z</time>
      </trkpt>
      <trkpt lat="42.424228" lon="0.654566">
        <ele>1308.407893</ele>
        <time>2019-08-22T18:03:18.217Z</time>
      </trkpt>
      <trkpt lat="42.424837" lon="0.655888">
        <ele>1295.868903</ele>
        <time>2019-08-22T18:03:28.069Z</time>
      </trkpt>
      <trkpt lat="42.425609" lon="0.657095">
        <ele>1291.020868</ele>
        <time>2019-08-22T18:03:39.465Z</time>
      </trkpt>
      <trkpt lat="42.426045" lon="0.657558">
        <ele>1289.198586</ele>
        <time>2019-08-22T18:03:47.691Z</time>
      </trkpt>
      <trkpt lat="42.426488" lon="0.657736">
        <ele>1289.277736</ele>
        <time>2019-08-22T18:03:56.812Z</time>
      </trkpt>
      <trkpt lat="42.426748" lon="0.657744">
        <ele>1289.322283</ele>
        <time>2019-08-22T18:04:02.506Z</time>
      </trkpt>
      <trkpt lat="42.427234" lon="0.657651">
        <ele>1289.406358</ele>
        <time>2019-08-22T18:04:13.832Z</time>
      </trkpt>
      <trkpt lat="42.427472" lon="0.657746">
        <ele>1289.448858</ele>
        <time>2019-08-22T18:04:17.248Z</time>
      </trkpt>
      <trkpt lat="42.427588" lon="0.657954">
        <ele>1289.481819</ele>
        <time>2019-08-22T18:04:19.400Z</time>
      </trkpt>
      <trkpt lat="42.427688" lon="0.658422">
        <ele>1287.866379</ele>
        <time>2019-08-22T18:04:23.091Z</time>
      </trkpt>
      <trkpt lat="42.427655" lon="0.659265">
        <ele>1284.716864</ele>
        <time>2019-08-22T18:04:29.091Z</time>
      </trkpt>
      <trkpt lat="42.427616" lon="0.659747">
        <ele>1282.907828</ele>
        <time>2019-08-22T18:04:32.380Z</time>
      </trkpt>
      <trkpt lat="42.427601" lon="0.660035">
        <ele>1281.830675</ele>
        <time>2019-08-22T18:04:34.280Z</time>
      </trkpt>
      <trkpt lat="42.427697" lon="0.661968">
        <ele>1272.230505</ele>
        <time>2019-08-22T18:04:47.011Z</time>
      </trkpt>
      <trkpt lat="42.428077" lon="0.664070">
        <ele>1259.647729</ele>
        <time>2019-08-22T18:05:01.638Z</time>
      </trkpt>
      <trkpt lat="42.428064" lon="0.664824">
        <ele>1254.973179</ele>
        <time>2019-08-22T18:05:06.469Z</time>
      </trkpt>
      <trkpt lat="42.428045" lon="0.665034">
        <ele>1253.661862</ele>
        <time>2019-08-22T18:05:07.834Z</time>
      </trkpt>
      <trkpt lat="42.428020" lon="0.665165">
        <ele>1252.823227</ele>
        <time>2019-08-22T18:05:08.655Z</time>
      </trkpt>
      <trkpt lat="42.427847" lon="0.665472">
        <ele>1249.388958</ele>
        <time>2019-08-22T18:05:11.094Z</time>
      </trkpt>
      <trkpt lat="42.427562" lon="0.665591">
        <ele>1245.615215</ele>
        <time>2019-08-22T18:05:13.603Z</time>
      </trkpt>
      <trkpt lat="42.427457" lon="0.665587">
        <ele>1244.286035</ele>
        <time>2019-08-22T18:05:14.460Z</time>
      </trkpt>
      <trkpt lat="42.427098" lon="0.665575">
        <ele>1239.741920</ele>
        <time>2019-08-22T18:05:17.466Z</time>
      </trkpt>
      <trkpt lat="42.426777" lon="0.665686">
        <ele>1235.549806</ele>
        <time>2019-08-22T18:05:20.252Z</time>
      </trkpt>
      <trkpt lat="42.426683" lon="0.665761">
        <ele>1234.169388</ele>
        <time>2019-08-22T18:05:21.150Z</time>
      </trkpt>
      <trkpt lat="42.426601" lon="0.665829">
        <ele>1232.952813</ele>
        <time>2019-08-22T18:05:21.992Z</time>
      </trkpt>
      <trkpt lat="42.426533" lon="0.665894">
        <ele>1231.899726</ele>
        <time>2019-08-22T18:05:22.723Z</time>
      </trkpt>
      <trkpt lat="42.426384" lon="0.666049">
        <ele>1229.639020</ele>
        <time>2019-08-22T18:05:24.287Z</time>
      </trkpt>
      <trkpt lat="42.426165" lon="0.666443">
        <ele>1227.726422</ele>
        <time>2019-08-22T18:05:27.377Z</time>
      </trkpt>
      <trkpt lat="42.426131" lon="0.667032">
        <ele>1225.435407</ele>
        <time>2019-08-22T18:05:31.306Z</time>
      </trkpt>
      <trkpt lat="42.426153" lon="0.667476">
        <ele>1223.709776</ele>
        <time>2019-08-22T18:05:34.381Z</time>
      </trkpt>
      <trkpt lat="42.426192" lon="0.668356">
        <ele>1220.291142</ele>
        <time>2019-08-22T18:05:43.024Z</time>
      </trkpt>
      <trkpt lat="42.426202" lon="0.668763">
        <ele>1220.606185</ele>
        <time>2019-08-22T18:05:50.464Z</time>
      </trkpt>
      <trkpt lat="42.426259" lon="0.669521">
        <ele>1221.237795</ele>
        <time>2019-08-22T18:06:07.458Z</time>
      </trkpt>
      <trkpt lat="42.426524" lon="0.670899">
        <ele>1221.532393</ele>
        <time>2019-08-22T18:06:26.551Z</time>
      </trkpt>
      <trkpt lat="42.426504" lon="0.671148">
        <ele>1220.276973</ele>
        <time>2019-08-22T18:06:28.544Z</time>
      </trkpt>
      <trkpt lat="42.426414" lon="0.671377">
        <ele>1218.976609</ele>
        <time>2019-08-22T18:06:30.412Z</time>
      </trkpt>
      <trkpt lat="42.426347" lon="0.671479">
        <ele>1218.292239</ele>
        <time>2019-08-22T18:06:32.139Z</time>
      </trkpt>
      <trkpt lat="42.426263" lon="0.671589">
        <ele>1217.498934</ele>
        <time>2019-08-22T18:06:33.118Z</time>
      </trkpt>
      <trkpt lat="42.426019" lon="0.671930">
        <ele>1215.118497</ele>
        <time>2019-08-22T18:06:36.270Z</time>
      </trkpt>
      <trkpt lat="42.425879" lon="0.672257">
        <ele>1213.223732</ele>
        <time>2019-08-22T18:06:38.788Z</time>
      </trkpt>
      <trkpt lat="42.424892" lon="0.675065">
        <ele>1188.737554</ele>
        <time>2019-08-22T18:06:58.197Z</time>
      </trkpt>
      <trkpt lat="42.424657" lon="0.676053">
        <ele>1183.650176</ele>
        <time>2019-08-22T18:07:04.957Z</time>
      </trkpt>
      <trkpt lat="42.424626" lon="0.676387">
        <ele>1182.000343</ele>
        <time>2019-08-22T18:07:07.234Z</time>
      </trkpt>
      <trkpt lat="42.424659" lon="0.676733">
        <ele>1180.290491</ele>
        <time>2019-08-22T18:07:09.662Z</time>
      </trkpt>
      <trkpt lat="42.424942" lon="0.678012">
        <ele>1175.279170</ele>
        <time>2019-08-22T18:07:19.655Z</time>
      </trkpt>
      <trkpt lat="42.425151" lon="0.678749">
        <ele>1173.220739</ele>
        <time>2019-08-22T18:07:25.835Z</time>
      </trkpt>
      <trkpt lat="42.425192" lon="0.679146">
        <ele>1172.175599</ele>
        <time>2019-08-22T18:07:28.836Z</time>
      </trkpt>
      <trkpt lat="42.425097" lon="0.679723">
        <ele>1170.597432</ele>
        <time>2019-08-22T18:07:33.088Z</time>
      </trkpt>
      <trkpt lat="42.425039" lon="0.680735">
        <ele>1165.089768</ele>
        <time>2019-08-22T18:07:40.013Z</time>
      </trkpt>
      <trkpt lat="42.424731" lon="0.682280">
        <ele>1156.145627</ele>
        <time>2019-08-22T18:07:50.371Z</time>
      </trkpt>
      <trkpt lat="42.424657" lon="0.683150">
        <ele>1150.204055</ele>
        <time>2019-08-22T18:07:55.964Z</time>
      </trkpt>
      <trkpt lat="42.424596" lon="0.683434">
        <ele>1148.197344</ele>
        <time>2019-08-22T18:07:57.849Z</time>
      </trkpt>
      <trkpt lat="42.424278" lon="0.684264">
        <ele>1141.852865</ele>
        <time>2019-08-22T18:08:03.852Z</time>
      </trkpt>
      <trkpt lat="42.424214" lon="0.684760">
        <ele>1139.049401</ele>
        <time>2019-08-22T18:08:07.111Z</time>
      </trkpt>
      <trkpt lat="42.424522" lon="0.687102">
        <ele>1127.693606</ele>
        <time>2019-08-22T18:08:23.055Z</time>
      </trkpt>
      <trkpt lat="42.424570" lon="0.688359">
        <ele>1124.516083</ele>
        <time>2019-08-22T18:08:32.314Z</time>
      </trkpt>
      <trkpt lat="42.424868" lon="0.689079">
        <ele>1122.432236</ele>
        <time>2019-08-22T18:08:39.068Z</time>
      </trkpt>
      <trkpt lat="42.425034" lon="0.690252">
        <ele>1121.655144</ele>
        <time>2019-08-22T18:08:50.242Z</time>
      </trkpt>
      <trkpt lat="42.425205" lon="0.690535">
        <ele>1121.443949</ele>
        <time>2019-08-22T18:08:54.007Z</time>
      </trkpt>
      <trkpt lat="42.425950" lon="0.691267">
        <ele>1120.046130</ele>
        <time>2019-08-22T18:09:06.768Z</time>
      </trkpt>
      <trkpt lat="42.426396" lon="0.691536">
        <ele>1118.286137</ele>
        <time>2019-08-22T18:09:12.128Z</time>
      </trkpt>
      <trkpt lat="42.427267" lon="0.692434">
        <ele>1114.208021</ele>
        <time>2019-08-22T18:09:22.578Z</time>
      </trkpt>
      <trkpt lat="42.427366" lon="0.692542">
        <ele>1113.056099</ele>
        <time>2019-08-22T18:09:23.797Z</time>
      </trkpt>
      <trkpt lat="42.427435" lon="0.692647">
        <ele>1112.115682</ele>
        <time>2019-08-22T18:09:24.678Z</time>
      </trkpt>
      <trkpt lat="42.427833" lon="0.693292">
        <ele>1106.491940</ele>
        <time>2019-08-22T18:09:30.141Z</time>
      </trkpt>
      <trkpt lat="42.428100" lon="0.693671">
        <ele>1102.987266</ele>
        <time>2019-08-22T18:09:33.468Z</time>
      </trkpt>
      <trkpt lat="42.428165" lon="0.693743">
        <ele>1102.226359</ele>
        <time>2019-08-22T18:09:34.178Z</time>
      </trkpt>
      <trkpt lat="42.428359" lon="0.693886">
        <ele>1100.224821</ele>
        <time>2019-08-22T18:09:36.085Z</time>
      </trkpt>
      <trkpt lat="42.428565" lon="0.693990">
        <ele>1098.232502</ele>
        <time>2019-08-22T18:09:37.958Z</time>
      </trkpt>
      <trkpt lat="42.428686" lon="0.694050">
        <ele>1096.605175</ele>
        <time>2019-08-22T18:09:39.039Z</time>
      </trkpt>
      <trkpt lat="42.428917" lon="0.694158">
        <ele>1093.432469</ele>
        <time>2019-08-22T18:09:41.138Z</time>
      </trkpt>
      <trkpt lat="42.429036" lon="0.694298">
        <ele>1091.386236</ele>
        <time>2019-08-22T18:09:42.459Z</time>
      </trkpt>
      <trkpt lat="42.429280" lon="0.695011">
        <ele>1083.854795</ele>
        <time>2019-08-22T18:09:47.361Z</time>
      </trkpt>
      <trkpt lat="42.429450" lon="0.695261">
        <ele>1080.597295</ele>
        <time>2019-08-22T18:09:49.465Z</time>
      </trkpt>
      <trkpt lat="42.429633" lon="0.695338">
        <ele>1078.109402</ele>
        <time>2019-08-22T18:09:51.054Z</time>
      </trkpt>
      <trkpt lat="42.430124" lon="0.695399">
        <ele>1070.292044</ele>
        <time>2019-08-22T18:09:55.160Z</time>
      </trkpt>
      <trkpt lat="42.430298" lon="0.695489">
        <ele>1066.757626</ele>
        <time>2019-08-22T18:09:56.701Z</time>
      </trkpt>
      <trkpt lat="42.430447" lon="0.695672">
        <ele>1062.941190</ele>
        <time>2019-08-22T18:09:58.367Z</time>
      </trkpt>
      <trkpt lat="42.430651" lon="0.696104">
        <ele>1055.757872</ele>
        <time>2019-08-22T18:10:01.477Z</time>
      </trkpt>
      <trkpt lat="42.430869" lon="0.696387">
        <ele>1050.028414</ele>
        <time>2019-08-22T18:10:03.952Z</time>
      </trkpt>
      <trkpt lat="42.431954" lon="0.696940">
        <ele>1025.184623</ele>
        <time>2019-08-22T18:10:13.408Z</time>
      </trkpt>
      <trkpt lat="42.432128" lon="0.697087">
        <ele>1020.415485</ele>
        <time>2019-08-22T18:10:15.084Z</time>
      </trkpt>
      <trkpt lat="42.432334" lon="0.697441">
        <ele>1012.677147</ele>
        <time>2019-08-22T18:10:17.805Z</time>
      </trkpt>
      <trkpt lat="42.432446" lon="0.697718">
        <ele>1007.255415</ele>
        <time>2019-08-22T18:10:19.712Z</time>
      </trkpt>
      <trkpt lat="42.432621" lon="0.698148">
        <ele>998.826284</ele>
        <time>2019-08-22T18:10:22.675Z</time>
      </trkpt>
      <trkpt lat="42.432664" lon="0.698255">
        <ele>997.152251</ele>
        <time>2019-08-22T18:10:23.416Z</time>
      </trkpt>
      <trkpt lat="42.432722" lon="0.698365">
        <ele>995.298411</ele>
        <time>2019-08-22T18:10:24.234Z</time>
      </trkpt>
      <trkpt lat="42.432858" lon="0.698505">
        <ele>992.124956</ele>
        <time>2019-08-22T18:10:25.630Z</time>
      </trkpt>
      <trkpt lat="42.433042" lon="0.698580">
        <ele>988.554913</ele>
        <time>2019-08-22T18:10:27.195Z</time>
      </trkpt>
      <trkpt lat="42.433791" lon="0.698580">
        <ele>974.638625</ele>
        <time>2019-08-22T18:10:33.328Z</time>
      </trkpt>
      <trkpt lat="42.434100" lon="0.698730">
        <ele>968.540101</ele>
        <time>2019-08-22T18:10:36.048Z</time>
      </trkpt>
      <trkpt lat="42.434261" lon="0.699107">
        <ele>963.457621</ele>
        <time>2019-08-22T18:10:38.762Z</time>
      </trkpt>
      <trkpt lat="42.434490" lon="0.700144">
        <ele>953.294099</ele>
        <time>2019-08-22T18:10:45.476Z</time>
      </trkpt>
      <trkpt lat="42.434872" lon="0.701072">
        <ele>943.316953</ele>
        <time>2019-08-22T18:10:52.106Z</time>
      </trkpt>
      <trkpt lat="42.435033" lon="0.701275">
        <ele>941.281183</ele>
        <time>2019-08-22T18:10:53.991Z</time>
      </trkpt>
      <trkpt lat="42.435403" lon="0.701570">
        <ele>937.911649</ele>
        <time>2019-08-22T18:10:57.695Z</time>
      </trkpt>
      <trkpt lat="42.435843" lon="0.701666">
        <ele>934.413685</ele>
        <time>2019-08-22T18:11:01.610Z</time>
      </trkpt>
      <trkpt lat="42.436244" lon="0.701526">
        <ele>931.163510</ele>
        <time>2019-08-22T18:11:05.349Z</time>
      </trkpt>
      <trkpt lat="42.436465" lon="0.701335">
        <ele>929.106109</ele>
        <time>2019-08-22T18:11:07.796Z</time>
      </trkpt>
      <trkpt lat="42.437303" lon="0.700341">
        <ele>925.346540</ele>
        <time>2019-08-22T18:11:18.818Z</time>
      </trkpt>
      <trkpt lat="42.438459" lon="0.699376">
        <ele>924.447374</ele>
        <time>2019-08-22T18:11:34.207Z</time>
      </trkpt>
      <trkpt lat="42.438988" lon="0.698935">
        <ele>925.953837</ele>
        <time>2019-08-22T18:11:51.596Z</time>
      </trkpt>
      <trkpt lat="42.439240" lon="0.698755">
        <ele>926.644781</ele>
        <time>2019-08-22T18:12:02.181Z</time>
      </trkpt>
      <trkpt lat="42.439474" lon="0.698672">
        <ele>927.231467</ele>
        <time>2019-08-22T18:12:08.633Z</time>
      </trkpt>
      <trkpt lat="42.439542" lon="0.698655">
        <ele>927.399877</ele>
        <time>2019-08-22T18:12:13.234Z</time>
      </trkpt>
      <trkpt lat="42.439748" lon="0.698626">
        <ele>928.754519</ele>
        <time>2019-08-22T18:12:20.202Z</time>
      </trkpt>
      <trkpt lat="42.439832" lon="0.698625">
        <ele>929.303961</ele>
        <time>2019-08-22T18:12:22.965Z</time>
      </trkpt>
      <trkpt lat="42.439904" lon="0.698638">
        <ele>929.779056</ele>
        <time>2019-08-22T18:12:28.020Z</time>
      </trkpt>
      <trkpt lat="42.440204" lon="0.698788">
        <ele>931.870595</ele>
        <time>2019-08-22T18:12:39.898Z</time>
      </trkpt>
      <trkpt lat="42.440237" lon="0.698820">
        <ele>932.136014</ele>
        <time>2019-08-22T18:12:43.590Z</time>
      </trkpt>
      <trkpt lat="42.440205" lon="0.698887">
        <ele>932.521239</ele>
        <time>2019-08-22T18:12:46.804Z</time>
      </trkpt>
      <trkpt lat="42.440091" lon="0.699442">
        <ele>935.302026</ele>
        <time>2019-08-22T18:13:05.406Z</time>
      </trkpt>
      <trkpt lat="42.439880" lon="0.701756">
        <ele>943.232541</ele>
        <time>2019-08-22T18:14:11.597Z</time>
      </trkpt>
      <trkpt lat="42.439802" lon="0.702007">
        <ele>943.956106</ele>
        <time>2019-08-22T18:14:15.970Z</time>
      </trkpt>
      <trkpt lat="42.439430" lon="0.702496">
        <ele>945.355919</ele>
        <time>2019-08-22T18:14:24.221Z</time>
      </trkpt>
      <trkpt lat="42.439272" lon="0.703278">
        <ele>942.040133</ele>
        <time>2019-08-22T18:14:30.875Z</time>
      </trkpt>
      <trkpt lat="42.438892" lon="0.707150">
        <ele>920.657743</ele>
        <time>2019-08-22T18:14:56.295Z</time>
      </trkpt>
      <trkpt lat="42.438833" lon="0.707350">
        <ele>919.336063</ele>
        <time>2019-08-22T18:14:57.632Z</time>
      </trkpt>
      <trkpt lat="42.438810" lon="0.707449">
        <ele>918.717683</ele>
        <time>2019-08-22T18:14:58.276Z</time>
      </trkpt>
      <trkpt lat="42.438845" lon="0.707784">
        <ele>916.701846</ele>
        <time>2019-08-22T18:15:00.467Z</time>
      </trkpt>
      <trkpt lat="42.439007" lon="0.707906">
        <ele>915.205568</ele>
        <time>2019-08-22T18:15:02.067Z</time>
      </trkpt>
      <trkpt lat="42.439497" lon="0.707823">
        <ele>911.218906</ele>
        <time>2019-08-22T18:15:06.379Z</time>
      </trkpt>
      <trkpt lat="42.439788" lon="0.707682">
        <ele>908.723922</ele>
        <time>2019-08-22T18:15:09.109Z</time>
      </trkpt>
      <trkpt lat="42.439857" lon="0.707666">
        <ele>908.158773</ele>
        <time>2019-08-22T18:15:09.714Z</time>
      </trkpt>
      <trkpt lat="42.439922" lon="0.707662">
        <ele>907.633473</ele>
        <time>2019-08-22T18:15:10.255Z</time>
      </trkpt>
      <trkpt lat="42.440084" lon="0.707717">
        <ele>906.285187</ele>
        <time>2019-08-22T18:15:11.827Z</time>
      </trkpt>
      <trkpt lat="42.440230" lon="0.707851">
        <ele>905.369132</ele>
        <time>2019-08-22T18:15:13.555Z</time>
      </trkpt>
      <trkpt lat="42.440500" lon="0.708334">
        <ele>904.340298</ele>
        <time>2019-08-22T18:15:18.176Z</time>
      </trkpt>
      <trkpt lat="42.440771" lon="0.708451">
        <ele>903.685895</ele>
        <time>2019-08-22T18:15:21.123Z</time>
      </trkpt>
      <trkpt lat="42.441136" lon="0.708189">
        <ele>902.735547</ele>
        <time>2019-08-22T18:15:25.657Z</time>
      </trkpt>
      <trkpt lat="42.441400" lon="0.708121">
        <ele>902.117255</ele>
        <time>2019-08-22T18:15:29.103Z</time>
      </trkpt>
      <trkpt lat="42.441881" lon="0.707654">
        <ele>901.811024</ele>
        <time>2019-08-22T18:15:37.686Z</time>
      </trkpt>
      <trkpt lat="42.442546" lon="0.707469">
        <ele>902.682619</ele>
        <time>2019-08-22T18:15:50.231Z</time>
      </trkpt>
      <trkpt lat="42.443068" lon="0.707015">
        <ele>903.478972</ele>
        <time>2019-08-22T18:16:04.322Z</time>
      </trkpt>
      <trkpt lat="42.443288" lon="0.706930">
        <ele>903.815136</ele>
        <time>2019-08-22T18:16:09.995Z</time>
      </trkpt>
      <trkpt lat="42.448031" lon="0.706999">
        <ele>917.944718</ele>
        <time>2019-08-22T18:18:19.697Z</time>
      </trkpt>
      <trkpt lat="42.448108" lon="0.706973">
        <ele>918.156318</ele>
        <time>2019-08-22T18:18:21.465Z</time>
      </trkpt>
      <trkpt lat="42.448205" lon="0.706922">
        <ele>918.433755</ele>
        <time>2019-08-22T18:18:23.663Z</time>
      </trkpt>
      <trkpt lat="42.448271" lon="0.706877">
        <ele>918.630764</ele>
        <time>2019-08-22T18:18:25.226Z</time>
      </trkpt>
      <trkpt lat="42.449076" lon="0.706327">
        <ele>921.520701</ele>
        <time>2019-08-22T18:18:45.485Z</time>
      </trkpt>
      <trkpt lat="42.449209" lon="0.706266">
        <ele>922.023926</ele>
        <time>2019-08-22T18:18:48.884Z</time>
      </trkpt>
      <trkpt lat="42.449261" lon="0.706270">
        <ele>922.210592</ele>
        <time>2019-08-22T18:18:50.199Z</time>
      </trkpt>
      <trkpt lat="42.449309" lon="0.706286">
        <ele>922.387750</ele>
        <time>2019-08-22T18:18:51.493Z</time>
      </trkpt>
      <trkpt lat="42.449339" lon="0.706319">
        <ele>922.526228</ele>
        <time>2019-08-22T18:18:52.485Z</time>
      </trkpt>
      <trkpt lat="42.449487" lon="0.706521">
        <ele>923.279033</ele>
        <time>2019-08-22T18:18:58.144Z</time>
      </trkpt>
      <trkpt lat="42.449613" lon="0.706725">
        <ele>923.982570</ele>
        <time>2019-08-22T18:19:03.760Z</time>
      </trkpt>
      <trkpt lat="42.450200" lon="0.707658">
        <ele>928.591769</ele>
        <time>2019-08-22T18:19:36.363Z</time>
      </trkpt>
      <trkpt lat="42.450677" lon="0.708281">
        <ele>933.771314</ele>
        <time>2019-08-22T18:20:09.411Z</time>
      </trkpt>
      <trkpt lat="42.451425" lon="0.709113">
        <ele>940.805650</ele>
        <time>2019-08-22T18:20:58.418Z</time>
      </trkpt>
      <trkpt lat="42.451529" lon="0.709299">
        <ele>941.558421</ele>
        <time>2019-08-22T18:21:04.130Z</time>
      </trkpt>
      <trkpt lat="42.451542" lon="0.709383">
        <ele>941.835268</ele>
        <time>2019-08-22T18:21:10.343Z</time>
      </trkpt>
      <trkpt lat="42.450968" lon="0.709537">
        <ele>944.393284</ele>
        <time>2019-08-22T18:21:29.505Z</time>
      </trkpt>
      <trkpt lat="42.449364" lon="0.710018">
        <ele>947.417822</ele>
        <time>2019-08-22T18:22:05.086Z</time>
      </trkpt>
      <trkpt lat="42.449030" lon="0.710076">
        <ele>947.180722</ele>
        <time>2019-08-22T18:22:09.065Z</time>
      </trkpt>
      <trkpt lat="42.448740" lon="0.710126">
        <ele>946.974881</ele>
        <time>2019-08-22T18:22:12.063Z</time>
      </trkpt>
      <trkpt lat="42.448635" lon="0.710127">
        <ele>946.900946</ele>
        <time>2019-08-22T18:22:13.216Z</time>
      </trkpt>
      <trkpt lat="42.448322" lon="0.710129">
        <ele>946.341101</ele>
        <time>2019-08-22T18:22:16.309Z</time>
      </trkpt>
      <trkpt lat="42.448240" lon="0.710125">
        <ele>945.870415</ele>
        <time>2019-08-22T18:22:17.168Z</time>
      </trkpt>
      <trkpt lat="42.447465" lon="0.710091">
        <ele>941.422405</ele>
        <time>2019-08-22T18:22:24.559Z</time>
      </trkpt>
      <trkpt lat="42.447369" lon="0.710087">
        <ele>940.871454</ele>
        <time>2019-08-22T18:22:25.397Z</time>
      </trkpt>
      <trkpt lat="42.445320" lon="0.710076">
        <ele>928.507821</ele>
        <time>2019-08-22T18:22:43.669Z</time>
      </trkpt>
      <trkpt lat="42.445020" lon="0.710168">
        <ele>926.595880</ele>
        <time>2019-08-22T18:22:46.562Z</time>
      </trkpt>
      <trkpt lat="42.444930" lon="0.710195">
        <ele>926.022899</ele>
        <time>2019-08-22T18:22:47.477Z</time>
      </trkpt>
      <trkpt lat="42.444574" lon="0.710380">
        <ele>924.922204</ele>
        <time>2019-08-22T18:22:51.318Z</time>
      </trkpt>
      <trkpt lat="42.444036" lon="0.710685">
        <ele>924.214581</ele>
        <time>2019-08-22T18:22:57.633Z</time>
      </trkpt>
      <trkpt lat="42.443233" lon="0.711140">
        <ele>923.158486</ele>
        <time>2019-08-22T18:23:11.662Z</time>
      </trkpt>
      <trkpt lat="42.442268" lon="0.711538">
        <ele>922.448889</ele>
        <time>2019-08-22T18:23:29.089Z</time>
      </trkpt>
      <trkpt lat="42.437331" lon="0.713302">
        <ele>913.523391</ele>
        <time>2019-08-22T18:24:25.295Z</time>
      </trkpt>
      <trkpt lat="42.435529" lon="0.714508">
        <ele>908.977697</ele>
        <time>2019-08-22T18:24:47.172Z</time>
      </trkpt>
      <trkpt lat="42.435228" lon="0.714591">
        <ele>908.202719</ele>
        <time>2019-08-22T18:24:50.334Z</time>
      </trkpt>
      <trkpt lat="42.434163" lon="0.714856">
        <ele>905.655117</ele>
        <time>2019-08-22T18:25:01.484Z</time>
      </trkpt>
      <trkpt lat="42.433646" lon="0.715165">
        <ele>904.471821</ele>
        <time>2019-08-22T18:25:07.434Z</time>
      </trkpt>
      <trkpt lat="42.433298" lon="0.715641">
        <ele>903.436303</ele>
        <time>2019-08-22T18:25:12.953Z</time>
      </trkpt>
      <trkpt lat="42.433160" lon="0.715986">
        <ele>902.829808</ele>
        <time>2019-08-22T18:25:16.399Z</time>
      </trkpt>
      <trkpt lat="42.432654" lon="0.717731">
        <ele>901.526124</ele>
        <time>2019-08-22T18:25:34.338Z</time>
      </trkpt>
      <trkpt lat="42.431794" lon="0.719442">
        <ele>899.345075</ele>
        <time>2019-08-22T18:25:52.423Z</time>
      </trkpt>
      <trkpt lat="42.431755" lon="0.719531">
        <ele>899.220772</ele>
        <time>2019-08-22T18:25:53.184Z</time>
      </trkpt>
      <trkpt lat="42.431769" lon="0.719629">
        <ele>899.100894</ele>
        <time>2019-08-22T18:25:53.955Z</time>
      </trkpt>
      <trkpt lat="42.431691" lon="0.720195">
        <ele>898.409407</ele>
        <time>2019-08-22T18:25:58.589Z</time>
      </trkpt>
      <trkpt lat="42.431691" lon="0.720292">
        <ele>898.292915</ele>
        <time>2019-08-22T18:25:59.435Z</time>
      </trkpt>
      <trkpt lat="42.431667" lon="0.720373">
        <ele>898.188999</ele>
        <time>2019-08-22T18:26:00.099Z</time>
      </trkpt>
      <trkpt lat="42.431300" lon="0.721290">
        <ele>897.060124</ele>
        <time>2019-08-22T18:26:08.675Z</time>
      </trkpt>
      <trkpt lat="42.431235" lon="0.721381">
        <ele>896.923079</ele>
        <time>2019-08-22T18:26:09.653Z</time>
      </trkpt>
      <trkpt lat="42.431117" lon="0.721509">
        <ele>896.701444</ele>
        <time>2019-08-22T18:26:11.611Z</time>
      </trkpt>
      <trkpt lat="42.430787" lon="0.722550">
        <ele>895.427657</ele>
        <time>2019-08-22T18:26:22.204Z</time>
      </trkpt>
      <trkpt lat="42.430309" lon="0.724015">
        <ele>892.717903</ele>
        <time>2019-08-22T18:26:35.432Z</time>
      </trkpt>
      <trkpt lat="42.430061" lon="0.724416">
        <ele>891.832850</ele>
        <time>2019-08-22T18:26:39.360Z</time>
      </trkpt>
      <trkpt lat="42.430007" lon="0.724463">
        <ele>891.685740</ele>
        <time>2019-08-22T18:26:40.103Z</time>
      </trkpt>
      <trkpt lat="42.429923" lon="0.724521">
        <ele>891.469648</ele>
        <time>2019-08-22T18:26:40.945Z</time>
      </trkpt>
      <trkpt lat="42.429558" lon="0.724706">
        <ele>889.889055</ele>
        <time>2019-08-22T18:26:44.770Z</time>
      </trkpt>
      <trkpt lat="42.429292" lon="0.724833">
        <ele>888.726597</ele>
        <time>2019-08-22T18:26:47.569Z</time>
      </trkpt>
      <trkpt lat="42.429191" lon="0.724892">
        <ele>888.273258</ele>
        <time>2019-08-22T18:26:48.562Z</time>
      </trkpt>
      <trkpt lat="42.428850" lon="0.725234">
        <ele>886.524550</ele>
        <time>2019-08-22T18:26:52.628Z</time>
      </trkpt>
      <trkpt lat="42.427852" lon="0.726653">
        <ele>881.363394</ele>
        <time>2019-08-22T18:27:06.807Z</time>
      </trkpt>
      <trkpt lat="42.427560" lon="0.727316">
        <ele>879.558489</ele>
        <time>2019-08-22T18:27:12.890Z</time>
      </trkpt>
      <trkpt lat="42.427512" lon="0.727458">
        <ele>879.193366</ele>
        <time>2019-08-22T18:27:14.034Z</time>
      </trkpt>
      <trkpt lat="42.427342" lon="0.728028">
        <ele>877.950229</ele>
        <time>2019-08-22T18:27:18.879Z</time>
      </trkpt>
      <trkpt lat="42.427133" lon="0.728704">
        <ele>876.818963</ele>
        <time>2019-08-22T18:27:24.830Z</time>
      </trkpt>
      <trkpt lat="42.427095" lon="0.728832">
        <ele>876.606008</ele>
        <time>2019-08-22T18:27:25.865Z</time>
      </trkpt>
      <trkpt lat="42.426980" lon="0.729221">
        <ele>875.959203</ele>
        <time>2019-08-22T18:27:29.292Z</time>
      </trkpt>
      <trkpt lat="42.426501" lon="0.731161">
        <ele>872.758574</ele>
        <time>2019-08-22T18:27:46.146Z</time>
      </trkpt>
      <trkpt lat="42.426394" lon="0.731357">
        <ele>872.373104</ele>
        <time>2019-08-22T18:27:48.119Z</time>
      </trkpt>
      <trkpt lat="42.426161" lon="0.731593">
        <ele>871.749904</ele>
        <time>2019-08-22T18:27:51.257Z</time>
      </trkpt>
      <trkpt lat="42.425901" lon="0.731802">
        <ele>871.102277</ele>
        <time>2019-08-22T18:27:54.471Z</time>
      </trkpt>
      <trkpt lat="42.425822" lon="0.731862">
        <ele>870.908267</ele>
        <time>2019-08-22T18:27:55.377Z</time>
      </trkpt>
      <trkpt lat="42.425682" lon="0.731970">
        <ele>870.505435</ele>
        <time>2019-08-22T18:27:57.155Z</time>
      </trkpt>
      <trkpt lat="42.425580" lon="0.732043">
        <ele>870.163270</ele>
        <time>2019-08-22T18:27:58.341Z</time>
      </trkpt>
      <trkpt lat="42.425504" lon="0.732099">
        <ele>869.906661</ele>
        <time>2019-08-22T18:27:59.199Z</time>
      </trkpt>
      <trkpt lat="42.425343" lon="0.732205">
        <ele>869.375713</ele>
        <time>2019-08-22T18:28:01.074Z</time>
      </trkpt>
      <trkpt lat="42.425304" lon="0.732229">
        <ele>869.248660</ele>
        <time>2019-08-22T18:28:01.495Z</time>
      </trkpt>
      <trkpt lat="42.425102" lon="0.732328">
        <ele>868.611507</ele>
        <time>2019-08-22T18:28:03.711Z</time>
      </trkpt>
      <trkpt lat="42.425039" lon="0.732351">
        <ele>868.417977</ele>
        <time>2019-08-22T18:28:04.374Z</time>
      </trkpt>
      <trkpt lat="42.424767" lon="0.732448">
        <ele>867.583715</ele>
        <time>2019-08-22T18:28:07.221Z</time>
      </trkpt>
      <trkpt lat="42.424574" lon="0.732505">
        <ele>866.997813</ele>
        <time>2019-08-22T18:28:09.213Z</time>
      </trkpt>
      <trkpt lat="42.424481" lon="0.732533">
        <ele>866.715237</ele>
        <time>2019-08-22T18:28:10.148Z</time>
      </trkpt>
      <trkpt lat="42.424203" lon="0.732628">
        <ele>865.864834</ele>
        <time>2019-08-22T18:28:13.090Z</time>
      </trkpt>
      <trkpt lat="42.424079" lon="0.732684">
        <ele>865.477139</ele>
        <time>2019-08-22T18:28:14.442Z</time>
      </trkpt>
      <trkpt lat="42.423927" lon="0.732752">
        <ele>865.044297</ele>
        <time>2019-08-22T18:28:16.049Z</time>
      </trkpt>
      <trkpt lat="42.422911" lon="0.733358">
        <ele>862.119026</ele>
        <time>2019-08-22T18:28:27.739Z</time>
      </trkpt>
      <trkpt lat="42.422001" lon="0.734065">
        <ele>859.261426</ele>
        <time>2019-08-22T18:28:38.880Z</time>
      </trkpt>
      <trkpt lat="42.420338" lon="0.734968">
        <ele>854.145016</ele>
        <time>2019-08-22T18:28:57.228Z</time>
      </trkpt>
      <trkpt lat="42.420031" lon="0.735121">
        <ele>853.184783</ele>
        <time>2019-08-22T18:29:00.590Z</time>
      </trkpt>
      <trkpt lat="42.419958" lon="0.735156">
        <ele>852.957469</ele>
        <time>2019-08-22T18:29:01.322Z</time>
      </trkpt>
      <trkpt lat="42.419235" lon="0.735488">
        <ele>850.716521</ele>
        <time>2019-08-22T18:29:09.171Z</time>
      </trkpt>
      <trkpt lat="42.419056" lon="0.735570">
        <ele>850.220753</ele>
        <time>2019-08-22T18:29:11.194Z</time>
      </trkpt>
      <trkpt lat="42.418840" lon="0.735665">
        <ele>849.901407</ele>
        <time>2019-08-22T18:29:13.551Z</time>
      </trkpt>
      <trkpt lat="42.418808" lon="0.735676">
        <ele>849.854983</ele>
        <time>2019-08-22T18:29:13.916Z</time>
      </trkpt>
      <trkpt lat="42.418772" lon="0.735686">
        <ele>849.803307</ele>
        <time>2019-08-22T18:29:14.317Z</time>
      </trkpt>
      <trkpt lat="42.418732" lon="0.735692">
        <ele>849.746715</ele>
        <time>2019-08-22T18:29:14.763Z</time>
      </trkpt>
      <trkpt lat="42.418687" lon="0.735697">
        <ele>849.683224</ele>
        <time>2019-08-22T18:29:15.258Z</time>
      </trkpt>
      <trkpt lat="42.418582" lon="0.735693">
        <ele>849.535516</ele>
        <time>2019-08-22T18:29:16.319Z</time>
      </trkpt>
      <trkpt lat="42.417966" lon="0.735596">
        <ele>848.663471</ele>
        <time>2019-08-22T18:29:23.675Z</time>
      </trkpt>
      <trkpt lat="42.417612" lon="0.735689">
        <ele>848.156405</ele>
        <time>2019-08-22T18:29:27.987Z</time>
      </trkpt>
      <trkpt lat="42.416034" lon="0.736656">
        <ele>847.049845</ele>
        <time>2019-08-22T18:29:52.836Z</time>
      </trkpt>
      <trkpt lat="42.414808" lon="0.737547">
        <ele>845.159916</ele>
        <time>2019-08-22T18:30:09.270Z</time>
      </trkpt>
      <trkpt lat="42.414741" lon="0.737571">
        <ele>845.044706</ele>
        <time>2019-08-22T18:30:09.978Z</time>
      </trkpt>
      <trkpt lat="42.414677" lon="0.737591">
        <ele>844.935517</ele>
        <time>2019-08-22T18:30:10.630Z</time>
      </trkpt>
      <trkpt lat="42.414612" lon="0.737609">
        <ele>844.825226</ele>
        <time>2019-08-22T18:30:11.454Z</time>
      </trkpt>
      <trkpt lat="42.414501" lon="0.737638">
        <ele>844.637297</ele>
        <time>2019-08-22T18:30:12.758Z</time>
      </trkpt>
      <trkpt lat="42.414404" lon="0.737661">
        <ele>844.473592</ele>
        <time>2019-08-22T18:30:13.767Z</time>
      </trkpt>
      <trkpt lat="42.413855" lon="0.737876">
        <ele>843.586053</ele>
        <time>2019-08-22T18:30:19.895Z</time>
      </trkpt>
      <trkpt lat="42.413418" lon="0.738243">
        <ele>842.878511</ele>
        <time>2019-08-22T18:30:25.379Z</time>
      </trkpt>
      <trkpt lat="42.413349" lon="0.738318">
        <ele>842.756771</ele>
        <time>2019-08-22T18:30:26.283Z</time>
      </trkpt>
      <trkpt lat="42.413278" lon="0.738398">
        <ele>842.629686</ele>
        <time>2019-08-22T18:30:27.382Z</time>
      </trkpt>
      <trkpt lat="42.413228" lon="0.738462">
        <ele>842.535021</ele>
        <time>2019-08-22T18:30:28.148Z</time>
      </trkpt>
      <trkpt lat="42.413043" lon="0.738813">
        <ele>842.096884</ele>
        <time>2019-08-22T18:30:31.891Z</time>
      </trkpt>
      <trkpt lat="42.412952" lon="0.739507">
        <ele>841.408338</ele>
        <time>2019-08-22T18:30:39.727Z</time>
      </trkpt>
      <trkpt lat="42.412937" lon="0.739563">
        <ele>841.402311</ele>
        <time>2019-08-22T18:30:40.316Z</time>
      </trkpt>
      <trkpt lat="42.412921" lon="0.739617">
        <ele>841.396425</ele>
        <time>2019-08-22T18:30:41.014Z</time>
      </trkpt>
      <trkpt lat="42.412825" lon="0.739810">
        <ele>841.372882</ele>
        <time>2019-08-22T18:30:44.024Z</time>
      </trkpt>
      <trkpt lat="42.412801" lon="0.739840">
        <ele>841.368407</ele>
        <time>2019-08-22T18:30:44.758Z</time>
      </trkpt>
      <trkpt lat="42.412750" lon="0.739893">
        <ele>841.359599</ele>
        <time>2019-08-22T18:30:45.949Z</time>
      </trkpt>
      <trkpt lat="42.412709" lon="0.739926">
        <ele>841.353064</ele>
        <time>2019-08-22T18:30:46.639Z</time>
      </trkpt>
      <trkpt lat="42.412667" lon="0.739953">
        <ele>841.346694</ele>
        <time>2019-08-22T18:30:47.381Z</time>
      </trkpt>
      <trkpt lat="42.412629" lon="0.739974">
        <ele>841.341070</ele>
        <time>2019-08-22T18:30:48.098Z</time>
      </trkpt>
      <trkpt lat="42.412444" lon="0.740036">
        <ele>841.314956</ele>
        <time>2019-08-22T18:30:51.643Z</time>
      </trkpt>
      <trkpt lat="42.412397" lon="0.740049">
        <ele>841.308383</ele>
        <time>2019-08-22T18:30:52.566Z</time>
      </trkpt>
      <trkpt lat="42.411887" lon="0.740158">
        <ele>841.237637</ele>
        <time>2019-08-22T18:31:01.008Z</time>
      </trkpt>
      <trkpt lat="42.411307" lon="0.740263">
        <ele>840.960906</ele>
        <time>2019-08-22T18:31:08.332Z</time>
      </trkpt>
      <trkpt lat="42.410928" lon="0.740332">
        <ele>839.530116</ele>
        <time>2019-08-22T18:31:12.486Z</time>
      </trkpt>
      <trkpt lat="42.410862" lon="0.740344">
        <ele>839.280961</ele>
        <time>2019-08-22T18:31:13.172Z</time>
      </trkpt>
      <trkpt lat="42.410626" lon="0.740385">
        <ele>838.390728</ele>
        <time>2019-08-22T18:31:15.662Z</time>
      </trkpt>
      <trkpt lat="42.410052" lon="0.740498">
        <ele>836.220527</ele>
        <time>2019-08-22T18:31:21.288Z</time>
      </trkpt>
      <trkpt lat="42.410016" lon="0.740505">
        <ele>836.084452</ele>
        <time>2019-08-22T18:31:21.610Z</time>
      </trkpt>
      <trkpt lat="42.409730" lon="0.740622">
        <ele>834.966629</ele>
        <time>2019-08-22T18:31:24.413Z</time>
      </trkpt>
      <trkpt lat="42.409529" lon="0.740759">
        <ele>834.017950</ele>
        <time>2019-08-22T18:31:26.470Z</time>
      </trkpt>
      <trkpt lat="42.409258" lon="0.741015">
        <ele>832.356696</ele>
        <time>2019-08-22T18:31:29.456Z</time>
      </trkpt>
      <trkpt lat="42.409025" lon="0.741237">
        <ele>830.924344</ele>
        <time>2019-08-22T18:31:32.019Z</time>
      </trkpt>
      <trkpt lat="42.408969" lon="0.741291">
        <ele>830.578706</ele>
        <time>2019-08-22T18:31:32.655Z</time>
      </trkpt>
      <trkpt lat="42.408951" lon="0.741308">
        <ele>830.468372</ele>
        <time>2019-08-22T18:31:32.855Z</time>
      </trkpt>
      <trkpt lat="42.408446" lon="0.741798">
        <ele>827.344910</ele>
        <time>2019-08-22T18:31:38.705Z</time>
      </trkpt>
      <trkpt lat="42.408248" lon="0.741995">
        <ele>826.109621</ele>
        <time>2019-08-22T18:31:41.155Z</time>
      </trkpt>
      <trkpt lat="42.408126" lon="0.742118">
        <ele>825.385770</ele>
        <time>2019-08-22T18:31:42.684Z</time>
      </trkpt>
      <trkpt lat="42.407979" lon="0.742264">
        <ele>825.267236</ele>
        <time>2019-08-22T18:31:44.582Z</time>
      </trkpt>
      <trkpt lat="42.407873" lon="0.742370">
        <ele>825.181558</ele>
        <time>2019-08-22T18:31:45.930Z</time>
      </trkpt>
      <trkpt lat="42.407744" lon="0.742473">
        <ele>825.084184</ele>
        <time>2019-08-22T18:31:47.598Z</time>
      </trkpt>
      <trkpt lat="42.407616" lon="0.742602">
        <ele>824.980437</ele>
        <time>2019-08-22T18:31:49.320Z</time>
      </trkpt>
      <trkpt lat="42.407521" lon="0.742664">
        <ele>824.911866</ele>
        <time>2019-08-22T18:31:50.697Z</time>
      </trkpt>
      <trkpt lat="42.407435" lon="0.742707">
        <ele>824.852255</ele>
        <time>2019-08-22T18:31:51.973Z</time>
      </trkpt>
      <trkpt lat="42.407064" lon="0.742651">
        <ele>824.609521</ele>
        <time>2019-08-22T18:31:57.017Z</time>
      </trkpt>
      <trkpt lat="42.406794" lon="0.742533">
        <ele>824.425040</ele>
        <time>2019-08-22T18:32:02.264Z</time>
      </trkpt>
      <trkpt lat="42.406609" lon="0.742457">
        <ele>824.299332</ele>
        <time>2019-08-22T18:32:06.081Z</time>
      </trkpt>
      <trkpt lat="42.406333" lon="0.742327">
        <ele>824.423172</ele>
        <time>2019-08-22T18:32:13.241Z</time>
      </trkpt>
      <trkpt lat="42.406233" lon="0.742283">
        <ele>824.544765</ele>
        <time>2019-08-22T18:32:15.610Z</time>
      </trkpt>
      <trkpt lat="42.406122" lon="0.742233">
        <ele>824.680042</ele>
        <time>2019-08-22T18:32:18.811Z</time>
      </trkpt>
      <trkpt lat="42.405717" lon="0.742209">
        <ele>825.148844</ele>
        <time>2019-08-22T18:32:27.508Z</time>
      </trkpt>
      <trkpt lat="42.405530" lon="0.742257">
        <ele>825.368947</ele>
        <time>2019-08-22T18:32:31.088Z</time>
      </trkpt>
      <trkpt lat="42.405376" lon="0.742300">
        <ele>825.550782</ele>
        <time>2019-08-22T18:32:34.494Z</time>
      </trkpt>
      <trkpt lat="42.404903" lon="0.742407">
        <ele>826.105352</ele>
        <time>2019-08-22T18:32:42.024Z</time>
      </trkpt>
      <trkpt lat="42.404644" lon="0.742380">
        <ele>826.288777</ele>
        <time>2019-08-22T18:32:46.763Z</time>
      </trkpt>
      <trkpt lat="42.404605" lon="0.742368">
        <ele>826.282740</ele>
        <time>2019-08-22T18:32:47.598Z</time>
      </trkpt>
      <trkpt lat="42.404405" lon="0.742307">
        <ele>826.251795</ele>
        <time>2019-08-22T18:32:50.346Z</time>
      </trkpt>
      <trkpt lat="42.403887" lon="0.742152">
        <ele>826.171718</ele>
        <time>2019-08-22T18:32:58.787Z</time>
      </trkpt>
      <trkpt lat="42.403854" lon="0.742150">
        <ele>826.166732</ele>
        <time>2019-08-22T18:32:59.096Z</time>
      </trkpt>
      <trkpt lat="42.403746" lon="0.742144">
        <ele>826.150416</ele>
        <time>2019-08-22T18:33:00.535Z</time>
      </trkpt>
      <trkpt lat="42.403334" lon="0.742179">
        <ele>826.088104</ele>
        <time>2019-08-22T18:33:05.905Z</time>
      </trkpt>
      <trkpt lat="42.403195" lon="0.742198">
        <ele>826.067015</ele>
        <time>2019-08-22T18:33:08.103Z</time>
      </trkpt>
      <trkpt lat="42.403094" lon="0.742213">
        <ele>826.051678</ele>
        <time>2019-08-22T18:33:09.232Z</time>
      </trkpt>
      <trkpt lat="42.402834" lon="0.742237">
        <ele>826.070355</ele>
        <time>2019-08-22T18:33:12.568Z</time>
      </trkpt>
      <trkpt lat="42.402243" lon="0.742304">
        <ele>826.262442</ele>
        <time>2019-08-22T18:33:21.807Z</time>
      </trkpt>
      <trkpt lat="42.401668" lon="0.742347">
        <ele>826.448961</ele>
        <time>2019-08-22T18:33:32.073Z</time>
      </trkpt>
      <trkpt lat="42.401552" lon="0.742342">
        <ele>826.486552</ele>
        <time>2019-08-22T18:33:34.751Z</time>
      </trkpt>
      <trkpt lat="42.401414" lon="0.742323">
        <ele>826.531478</ele>
        <time>2019-08-22T18:33:36.584Z</time>
      </trkpt>
      <trkpt lat="42.401281" lon="0.742245">
        <ele>826.578422</ele>
        <time>2019-08-22T18:33:39.140Z</time>
      </trkpt>
      <trkpt lat="42.401241" lon="0.742304">
        <ele>826.597578</ele>
        <time>2019-08-22T18:33:40.942Z</time>
      </trkpt>
      <trkpt lat="42.401122" lon="0.742493">
        <ele>826.728976</ele>
        <time>2019-08-22T18:33:43.253Z</time>
      </trkpt>
      <trkpt lat="42.401104" lon="0.742514">
        <ele>826.749366</ele>
        <time>2019-08-22T18:33:44.135Z</time>
      </trkpt>
      <trkpt lat="42.400993" lon="0.742648">
        <ele>826.876983</ele>
        <time>2019-08-22T18:33:46.906Z</time>
      </trkpt>
      <trkpt lat="42.400850" lon="0.742708">
        <ele>827.005462</ele>
        <time>2019-08-22T18:33:48.800Z</time>
      </trkpt>
      <trkpt lat="42.400028" lon="0.743027">
        <ele>827.739304</ele>
        <time>2019-08-22T18:34:01.613Z</time>
      </trkpt>
      <trkpt lat="42.399807" lon="0.743110">
        <ele>827.936127</ele>
        <time>2019-08-22T18:34:04.990Z</time>
      </trkpt>
      <trkpt lat="42.399683" lon="0.743157">
        <ele>828.046634</ele>
        <time>2019-08-22T18:34:09.741Z</time>
      </trkpt>
      <trkpt lat="42.398634" lon="0.743544">
        <ele>833.483678</ele>
        <time>2019-08-22T18:34:38.343Z</time>
      </trkpt>
      <trkpt lat="42.398542" lon="0.743587">
        <ele>834.024445</ele>
        <time>2019-08-22T18:34:40.918Z</time>
      </trkpt>
      <trkpt lat="42.398418" lon="0.743657">
        <ele>834.770891</ele>
        <time>2019-08-22T18:34:45.516Z</time>
      </trkpt>
      <trkpt lat="42.398322" lon="0.743725">
        <ele>835.372858</ele>
        <time>2019-08-22T18:34:51.351Z</time>
      </trkpt>
      <trkpt lat="42.397351" lon="0.744678">
        <ele>846.618426</ele>
        <time>2019-08-22T18:35:59.656Z</time>
      </trkpt>
      <trkpt lat="42.396701" lon="0.745361">
        <ele>856.581234</ele>
        <time>2019-08-22T18:36:58.009Z</time>
      </trkpt>
      <trkpt lat="42.396187" lon="0.745905">
        <ele>862.936781</ele>
        <time>2019-08-22T18:37:40.476Z</time>
      </trkpt>
      <trkpt lat="42.395463" lon="0.746450">
        <ele>869.563304</ele>
        <time>2019-08-22T18:38:25.899Z</time>
      </trkpt>
      <trkpt lat="42.394442" lon="0.746996">
        <ele>872.289922</ele>
        <time>2019-08-22T18:38:52.858Z</time>
      </trkpt>
      <trkpt lat="42.394232" lon="0.746996">
        <ele>871.443001</ele>
        <time>2019-08-22T18:38:55.217Z</time>
      </trkpt>
      <trkpt lat="42.392164" lon="0.746628">
        <ele>856.654024</ele>
        <time>2019-08-22T18:39:13.662Z</time>
      </trkpt>
      <trkpt lat="42.391539" lon="0.746067">
        <ele>848.849583</ele>
        <time>2019-08-22T18:39:19.952Z</time>
      </trkpt>
      <trkpt lat="42.391203" lon="0.745925">
        <ele>844.705608</ele>
        <time>2019-08-22T18:39:22.872Z</time>
      </trkpt>
      <trkpt lat="42.390193" lon="0.745654">
        <ele>832.359257</ele>
        <time>2019-08-22T18:39:31.492Z</time>
      </trkpt>
      <trkpt lat="42.389908" lon="0.745684">
        <ele>828.931530</ele>
        <time>2019-08-22T18:39:33.938Z</time>
      </trkpt>
      <trkpt lat="42.389582" lon="0.745823">
        <ele>826.540055</ele>
        <time>2019-08-22T18:39:38.247Z</time>
      </trkpt>
      <trkpt lat="42.389285" lon="0.746126">
        <ele>825.994292</ele>
        <time>2019-08-22T18:39:43.206Z</time>
      </trkpt>
      <trkpt lat="42.389156" lon="0.746426">
        <ele>825.618013</ele>
        <time>2019-08-22T18:39:47.004Z</time>
      </trkpt>
      <trkpt lat="42.389112" lon="0.746760">
        <ele>825.250261</ele>
        <time>2019-08-22T18:39:51.149Z</time>
      </trkpt>
      <trkpt lat="42.389042" lon="0.747376">
        <ele>824.574695</ele>
        <time>2019-08-22T18:40:00.917Z</time>
      </trkpt>
      <trkpt lat="42.388983" lon="0.748101">
        <ele>825.375026</ele>
        <time>2019-08-22T18:40:18.833Z</time>
      </trkpt>
      <trkpt lat="42.389022" lon="0.748551">
        <ele>827.089083</ele>
        <time>2019-08-22T18:40:34.248Z</time>
      </trkpt>
      <trkpt lat="42.389292" lon="0.748963">
        <ele>829.172790</ele>
        <time>2019-08-22T18:40:50.524Z</time>
      </trkpt>
      <trkpt lat="42.389729" lon="0.749390">
        <ele>831.933132</ele>
        <time>2019-08-22T18:41:08.928Z</time>
      </trkpt>
      <trkpt lat="42.389921" lon="0.749765">
        <ele>833.539593</ele>
        <time>2019-08-22T18:41:19.801Z</time>
      </trkpt>
      <trkpt lat="42.389944" lon="0.749942">
        <ele>833.955387</ele>
        <time>2019-08-22T18:41:26.371Z</time>
      </trkpt>
      <trkpt lat="42.389941" lon="0.750100">
        <ele>834.321054</ele>
        <time>2019-08-22T18:41:29.180Z</time>
      </trkpt>
      <trkpt lat="42.389911" lon="0.750247">
        <ele>834.673895</ele>
        <time>2019-08-22T18:41:30.682Z</time>
      </trkpt>
      <trkpt lat="42.389641" lon="0.751191">
        <ele>837.015969</ele>
        <time>2019-08-22T18:41:49.328Z</time>
      </trkpt>
      <trkpt lat="42.389579" lon="0.751539">
        <ele>837.844193</ele>
        <time>2019-08-22T18:41:56.772Z</time>
      </trkpt>
      <trkpt lat="42.389582" lon="0.751833">
        <ele>838.524455</ele>
        <time>2019-08-22T18:42:04.342Z</time>
      </trkpt>
      <trkpt lat="42.389771" lon="0.752407">
        <ele>840.035030</ele>
        <time>2019-08-22T18:42:14.596Z</time>
      </trkpt>
      <trkpt lat="42.390189" lon="0.752799">
        <ele>841.718574</ele>
        <time>2019-08-22T18:42:27.486Z</time>
      </trkpt>
      <trkpt lat="42.390278" lon="0.752864">
        <ele>842.053386</ele>
        <time>2019-08-22T18:42:32.067Z</time>
      </trkpt>
      <trkpt lat="42.390605" lon="0.753102">
        <ele>843.282587</ele>
        <time>2019-08-22T18:42:42.970Z</time>
      </trkpt>
      <trkpt lat="42.390711" lon="0.753246">
        <ele>843.779751</ele>
        <time>2019-08-22T18:42:45.777Z</time>
      </trkpt>
      <trkpt lat="42.390762" lon="0.753419">
        <ele>844.235254</ele>
        <time>2019-08-22T18:42:49.489Z</time>
      </trkpt>
      <trkpt lat="42.390774" lon="0.753529">
        <ele>844.507163</ele>
        <time>2019-08-22T18:42:54.122Z</time>
      </trkpt>
      <trkpt lat="42.390787" lon="0.753657">
        <ele>844.823115</ele>
        <time>2019-08-22T18:42:55.375Z</time>
      </trkpt>
      <trkpt lat="42.390716" lon="0.754158">
        <ele>846.051087</ele>
        <time>2019-08-22T18:43:06.763Z</time>
      </trkpt>
      <trkpt lat="42.390611" lon="0.754368">
        <ele>846.660521</ele>
        <time>2019-08-22T18:43:12.716Z</time>
      </trkpt>
      <trkpt lat="42.390108" lon="0.754917">
        <ele>848.762744</ele>
        <time>2019-08-22T18:43:31.021Z</time>
      </trkpt>
      <trkpt lat="42.389875" lon="0.755383">
        <ele>850.115117</ele>
        <time>2019-08-22T18:43:41.724Z</time>
      </trkpt>
      <trkpt lat="42.389775" lon="0.755753">
        <ele>851.072418</ele>
        <time>2019-08-22T18:43:49.084Z</time>
      </trkpt>
      <trkpt lat="42.389812" lon="0.756166">
        <ele>852.111093</ele>
        <time>2019-08-22T18:43:57.147Z</time>
      </trkpt>
      <trkpt lat="42.389965" lon="0.756292">
        <ele>852.716444</ele>
        <time>2019-08-22T18:44:02.030Z</time>
      </trkpt>
      <trkpt lat="42.390690" lon="0.756045">
        <ele>855.243598</ele>
        <time>2019-08-22T18:44:22.808Z</time>
      </trkpt>
      <trkpt lat="42.390972" lon="0.756053">
        <ele>856.197069</ele>
        <time>2019-08-22T18:44:31.557Z</time>
      </trkpt>
      <trkpt lat="42.391485" lon="0.756351">
        <ele>858.382585</ele>
        <time>2019-08-22T18:44:49.365Z</time>
      </trkpt>
      <trkpt lat="42.391685" lon="0.756690">
        <ele>859.732858</ele>
        <time>2019-08-22T18:44:59.462Z</time>
      </trkpt>
      <trkpt lat="42.391858" lon="0.757048">
        <ele>861.064276</ele>
        <time>2019-08-22T18:45:09.345Z</time>
      </trkpt>
      <trkpt lat="42.392100" lon="0.757548">
        <ele>862.924671</ele>
        <time>2019-08-22T18:45:22.929Z</time>
      </trkpt>
      <trkpt lat="42.392428" lon="0.758168">
        <ele>865.493165</ele>
        <time>2019-08-22T18:45:41.299Z</time>
      </trkpt>
      <trkpt lat="42.393015" lon="0.758631">
        <ele>869.015864</ele>
        <time>2019-08-22T18:46:05.044Z</time>
      </trkpt>
      <trkpt lat="42.393108" lon="0.758790">
        <ele>869.792623</ele>
        <time>2019-08-22T18:46:10.301Z</time>
      </trkpt>
      <trkpt lat="42.393698" lon="0.760621">
        <ele>877.326906</ele>
        <time>2019-08-22T18:47:05.876Z</time>
      </trkpt>
      <trkpt lat="42.393788" lon="0.761536">
        <ele>880.749846</ele>
        <time>2019-08-22T18:47:30.741Z</time>
      </trkpt>
      <trkpt lat="42.393865" lon="0.761717">
        <ele>881.524413</ele>
        <time>2019-08-22T18:47:35.969Z</time>
      </trkpt>
      <trkpt lat="42.394480" lon="0.762626">
        <ele>883.426998</ele>
        <time>2019-08-22T18:48:01.309Z</time>
      </trkpt>
      <trkpt lat="42.394564" lon="0.762886">
        <ele>883.624581</ele>
        <time>2019-08-22T18:48:05.541Z</time>
      </trkpt>
      <trkpt lat="42.394525" lon="0.763421">
        <ele>883.998872</ele>
        <time>2019-08-22T18:48:11.562Z</time>
      </trkpt>
      <trkpt lat="42.394186" lon="0.764463">
        <ele>883.888792</ele>
        <time>2019-08-22T18:48:21.171Z</time>
      </trkpt>
      <trkpt lat="42.394108" lon="0.764622">
        <ele>883.601992</ele>
        <time>2019-08-22T18:48:22.669Z</time>
      </trkpt>
      <trkpt lat="42.393821" lon="0.764928">
        <ele>882.858810</ele>
        <time>2019-08-22T18:48:26.513Z</time>
      </trkpt>
      <trkpt lat="42.393713" lon="0.765230">
        <ele>882.354652</ele>
        <time>2019-08-22T18:48:29.125Z</time>
      </trkpt>
      <trkpt lat="42.393666" lon="0.765937">
        <ele>881.288077</ele>
        <time>2019-08-22T18:48:34.756Z</time>
      </trkpt>
      <trkpt lat="42.393728" lon="0.766581">
        <ele>880.872754</ele>
        <time>2019-08-22T18:48:40.193Z</time>
      </trkpt>
      <trkpt lat="42.393546" lon="0.767228">
        <ele>880.923983</ele>
        <time>2019-08-22T18:48:46.865Z</time>
      </trkpt>
      <trkpt lat="42.393570" lon="0.767410">
        <ele>880.937663</ele>
        <time>2019-08-22T18:48:48.961Z</time>
      </trkpt>
      <trkpt lat="42.393707" lon="0.767699">
        <ele>880.963073</ele>
        <time>2019-08-22T18:48:53.222Z</time>
      </trkpt>
      <trkpt lat="42.393930" lon="0.767995">
        <ele>880.994360</ele>
        <time>2019-08-22T18:48:59.153Z</time>
      </trkpt>
      <trkpt lat="42.393995" lon="0.768251">
        <ele>881.014391</ele>
        <time>2019-08-22T18:49:03.192Z</time>
      </trkpt>
      <trkpt lat="42.393996" lon="0.768599">
        <ele>881.361345</ele>
        <time>2019-08-22T18:49:08.742Z</time>
      </trkpt>
      <trkpt lat="42.393722" lon="0.769586">
        <ele>883.297584</ele>
        <time>2019-08-22T18:49:27.071Z</time>
      </trkpt>
      <trkpt lat="42.393723" lon="0.769836">
        <ele>883.756665</ele>
        <time>2019-08-22T18:49:31.894Z</time>
      </trkpt>
      <trkpt lat="42.393978" lon="0.770233">
        <ele>884.722822</ele>
        <time>2019-08-22T18:49:42.272Z</time>
      </trkpt>
      <trkpt lat="42.394096" lon="0.770552">
        <ele>885.377968</ele>
        <time>2019-08-22T18:49:49.563Z</time>
      </trkpt>
      <trkpt lat="42.394153" lon="0.770825">
        <ele>886.041304</ele>
        <time>2019-08-22T18:49:55.384Z</time>
      </trkpt>
      <trkpt lat="42.394116" lon="0.771259">
        <ele>887.129049</ele>
        <time>2019-08-22T18:50:04.558Z</time>
      </trkpt>
      <trkpt lat="42.394158" lon="0.771650">
        <ele>888.112801</ele>
        <time>2019-08-22T18:50:12.983Z</time>
      </trkpt>
      <trkpt lat="42.394506" lon="0.772571">
        <ele>890.688592</ele>
        <time>2019-08-22T18:50:34.745Z</time>
      </trkpt>
      <trkpt lat="42.394681" lon="0.773494">
        <ele>892.943976</ele>
        <time>2019-08-22T18:50:54.831Z</time>
      </trkpt>
      <trkpt lat="42.394673" lon="0.773807">
        <ele>893.662756</ele>
        <time>2019-08-22T18:51:01.273Z</time>
      </trkpt>
      <trkpt lat="42.394342" lon="0.774937">
        <ele>896.452711</ele>
        <time>2019-08-22T18:51:25.255Z</time>
      </trkpt>
      <trkpt lat="42.394322" lon="0.775138">
        <ele>896.918186</ele>
        <time>2019-08-22T18:51:29.212Z</time>
      </trkpt>
      <trkpt lat="42.394586" lon="0.775611">
        <ele>898.466075</ele>
        <time>2019-08-22T18:51:40.708Z</time>
      </trkpt>
      <trkpt lat="42.394647" lon="0.775862">
        <ele>899.173268</ele>
        <time>2019-08-22T18:51:46.088Z</time>
      </trkpt>
      <trkpt lat="42.394635" lon="0.776195">
        <ele>900.065542</ele>
        <time>2019-08-22T18:51:52.934Z</time>
      </trkpt>
      <trkpt lat="42.394900" lon="0.776782">
        <ele>901.906809</ele>
        <time>2019-08-22T18:52:07.943Z</time>
      </trkpt>
      <trkpt lat="42.394930" lon="0.776965">
        <ele>902.408494</ele>
        <time>2019-08-22T18:52:12.121Z</time>
      </trkpt>
      <trkpt lat="42.394909" lon="0.777127">
        <ele>902.848684</ele>
        <time>2019-08-22T18:52:15.921Z</time>
      </trkpt>
      <trkpt lat="42.394698" lon="0.777667">
        <ele>905.142666</ele>
        <time>2019-08-22T18:52:30.517Z</time>
      </trkpt>
      <trkpt lat="42.394579" lon="0.778306">
        <ele>908.335110</ele>
        <time>2019-08-22T18:52:48.396Z</time>
      </trkpt>
      <trkpt lat="42.394544" lon="0.779506">
        <ele>914.152873</ele>
        <time>2019-08-22T18:53:26.978Z</time>
      </trkpt>
      <trkpt lat="42.394670" lon="0.782068">
        <ele>930.296466</ele>
        <time>2019-08-22T18:55:03.519Z</time>
      </trkpt>
      <trkpt lat="42.394598" lon="0.782445">
        <ele>932.665014</ele>
        <time>2019-08-22T18:55:17.614Z</time>
      </trkpt>
      <trkpt lat="42.394283" lon="0.783001">
        <ele>936.780745</ele>
        <time>2019-08-22T18:55:41.607Z</time>
      </trkpt>
      <trkpt lat="42.394169" lon="0.783396">
        <ele>939.271543</ele>
        <time>2019-08-22T18:55:55.117Z</time>
      </trkpt>
      <trkpt lat="42.393916" lon="0.785121">
        <ele>949.454575</ele>
        <time>2019-08-22T18:56:55.772Z</time>
      </trkpt>
      <trkpt lat="42.393847" lon="0.785366">
        <ele>950.939679</ele>
        <time>2019-08-22T18:57:04.444Z</time>
      </trkpt>
      <trkpt lat="42.393804" lon="0.785430">
        <ele>951.429722</ele>
        <time>2019-08-22T18:57:07.887Z</time>
      </trkpt>
      <trkpt lat="42.393748" lon="0.785461">
        <ele>951.893694</ele>
        <time>2019-08-22T18:57:10.445Z</time>
      </trkpt>
      <trkpt lat="42.393667" lon="0.785464">
        <ele>952.515119</ele>
        <time>2019-08-22T18:57:14.409Z</time>
      </trkpt>
      <trkpt lat="42.393461" lon="0.785459">
        <ele>954.095197</ele>
        <time>2019-08-22T18:57:23.751Z</time>
      </trkpt>
      <trkpt lat="42.393098" lon="0.785450">
        <ele>956.879528</ele>
        <time>2019-08-22T18:57:40.388Z</time>
      </trkpt>
      <trkpt lat="42.392312" lon="0.785534">
        <ele>962.724880</ele>
        <time>2019-08-22T18:58:14.819Z</time>
      </trkpt>
      <trkpt lat="42.391947" lon="0.785689">
        <ele>965.495935</ele>
        <time>2019-08-22T18:58:30.294Z</time>
      </trkpt>
      <trkpt lat="42.391752" lon="0.785905">
        <ele>967.320993</ele>
        <time>2019-08-22T18:58:39.636Z</time>
      </trkpt>
      <trkpt lat="42.391312" lon="0.786624">
        <ele>972.316649</ele>
        <time>2019-08-22T18:59:10.718Z</time>
      </trkpt>
      <trkpt lat="42.391208" lon="0.786926">
        <ele>975.261950</ele>
        <time>2019-08-22T18:59:24.657Z</time>
      </trkpt>
      <trkpt lat="42.391145" lon="0.787060">
        <ele>976.668307</ele>
        <time>2019-08-22T18:59:28.307Z</time>
      </trkpt>
      <trkpt lat="42.391106" lon="0.787115">
        <ele>977.343353</ele>
        <time>2019-08-22T18:59:31.173Z</time>
      </trkpt>
      <trkpt lat="42.391007" lon="0.787163">
        <ele>978.603919</ele>
        <time>2019-08-22T18:59:38.942Z</time>
      </trkpt>
      <trkpt lat="42.390849" lon="0.787228">
        <ele>980.583455</ele>
        <time>2019-08-22T18:59:45.896Z</time>
      </trkpt>
      <trkpt lat="42.390720" lon="0.787263">
        <ele>982.160596</ele>
        <time>2019-08-22T18:59:53.602Z</time>
      </trkpt>
      <trkpt lat="42.390650" lon="0.787333">
        <ele>983.203781</ele>
        <time>2019-08-22T19:00:01.123Z</time>
      </trkpt>
      <trkpt lat="42.390370" lon="0.787680">
        <ele>987.754028</ele>
        <time>2019-08-22T19:00:25.506Z</time>
      </trkpt>
      <trkpt lat="42.389693" lon="0.787574">
        <ele>996.661845</ele>
        <time>2019-08-22T19:01:17.646Z</time>
      </trkpt>
      <trkpt lat="42.389539" lon="0.787632">
        <ele>999.271944</ele>
        <time>2019-08-22T19:01:29.879Z</time>
      </trkpt>
      <trkpt lat="42.388744" lon="0.788414">
        <ele>1015.317486</ele>
        <time>2019-08-22T19:02:50.576Z</time>
      </trkpt>
      <trkpt lat="42.388542" lon="0.788390">
        <ele>1018.628566</ele>
        <time>2019-08-22T19:03:07.258Z</time>
      </trkpt>
      <trkpt lat="42.388287" lon="0.788226">
        <ele>1023.238282</ele>
        <time>2019-08-22T19:03:31.182Z</time>
      </trkpt>
      <trkpt lat="42.388007" lon="0.788208">
        <ele>1026.866527</ele>
        <time>2019-08-22T19:03:54.309Z</time>
      </trkpt>
      <trkpt lat="42.387718" lon="0.788357">
        <ele>1030.865379</ele>
        <time>2019-08-22T19:04:17.538Z</time>
      </trkpt>
      <trkpt lat="42.387254" lon="0.788748">
        <ele>1037.932606</ele>
        <time>2019-08-22T19:04:55.678Z</time>
      </trkpt>
      <trkpt lat="42.387169" lon="0.788783">
        <ele>1039.081452</ele>
        <time>2019-08-22T19:05:02.247Z</time>
      </trkpt>
      <trkpt lat="42.387119" lon="0.788840">
        <ele>1039.926676</ele>
        <time>2019-08-22T19:05:05.875Z</time>
      </trkpt>
      <trkpt lat="42.386973" lon="0.789108">
        <ele>1043.107262</ele>
        <time>2019-08-22T19:05:19.405Z</time>
      </trkpt>
      <trkpt lat="42.386791" lon="0.789215">
        <ele>1045.673018</ele>
        <time>2019-08-22T19:05:29.074Z</time>
      </trkpt>
      <trkpt lat="42.386665" lon="0.789060">
        <ele>1047.081824</ele>
        <time>2019-08-22T19:05:37.849Z</time>
      </trkpt>
      <trkpt lat="42.386681" lon="0.788830">
        <ele>1048.003417</ele>
        <time>2019-08-22T19:05:44.636Z</time>
      </trkpt>
      <trkpt lat="42.386747" lon="0.788760">
        <ele>1048.456241</ele>
        <time>2019-08-22T19:05:49.068Z</time>
      </trkpt>
      <trkpt lat="42.386865" lon="0.788664">
        <ele>1049.199777</ele>
        <time>2019-08-22T19:05:55.004Z</time>
      </trkpt>
      <trkpt lat="42.387222" lon="0.788362">
        <ele>1051.473380</ele>
        <time>2019-08-22T19:06:09.663Z</time>
      </trkpt>
      <trkpt lat="42.387405" lon="0.788103">
        <ele>1052.903218</ele>
        <time>2019-08-22T19:06:16.943Z</time>
      </trkpt>
      <trkpt lat="42.388377" lon="0.787240">
        <ele>1058.834202</ele>
        <time>2019-08-22T19:06:51.983Z</time>
      </trkpt>
      <trkpt lat="42.388526" lon="0.787229">
        <ele>1059.545469</ele>
        <time>2019-08-22T19:06:54.182Z</time>
      </trkpt>
      <trkpt lat="42.388620" lon="0.787219">
        <ele>1059.994904</ele>
        <time>2019-08-22T19:07:00.341Z</time>
      </trkpt>
      <trkpt lat="42.388698" lon="0.787191">
        <ele>1060.379538</ele>
        <time>2019-08-22T19:07:02.945Z</time>
      </trkpt>
      <trkpt lat="42.388740" lon="0.787101">
        <ele>1060.754330</ele>
        <time>2019-08-22T19:07:04.963Z</time>
      </trkpt>
      <trkpt lat="42.388717" lon="0.786866">
        <ele>1061.588879</ele>
        <time>2019-08-22T19:07:11.315Z</time>
      </trkpt>
      <trkpt lat="42.388663" lon="0.786789">
        <ele>1061.962690</ele>
        <time>2019-08-22T19:07:14.892Z</time>
      </trkpt>
      <trkpt lat="42.388467" lon="0.786781">
        <ele>1062.897353</ele>
        <time>2019-08-22T19:07:19.256Z</time>
      </trkpt>
      <trkpt lat="42.388356" lon="0.786867">
        <ele>1063.506940</ele>
        <time>2019-08-22T19:07:27.063Z</time>
      </trkpt>
      <trkpt lat="42.388227" lon="0.787002">
        <ele>1064.284090</ele>
        <time>2019-08-22T19:07:31.949Z</time>
      </trkpt>
      <trkpt lat="42.387914" lon="0.787320">
        <ele>1066.189956</ele>
        <time>2019-08-22T19:07:46.515Z</time>
      </trkpt>
      <trkpt lat="42.387251" lon="0.787594">
        <ele>1069.593631</ele>
        <time>2019-08-22T19:08:15.413Z</time>
      </trkpt>
      <trkpt lat="42.386868" lon="0.787887">
        <ele>1071.753645</ele>
        <time>2019-08-22T19:08:30.271Z</time>
      </trkpt>
      <trkpt lat="42.386400" lon="0.788068">
        <ele>1074.070912</ele>
        <time>2019-08-22T19:08:41.216Z</time>
      </trkpt>
      <trkpt lat="42.385824" lon="0.788790">
        <ele>1077.377587</ele>
        <time>2019-08-22T19:09:01.358Z</time>
      </trkpt>
      <trkpt lat="42.385701" lon="0.788875">
        <ele>1077.959323</ele>
        <time>2019-08-22T19:09:05.515Z</time>
      </trkpt>
      <trkpt lat="42.385241" lon="0.788995">
        <ele>1079.932728</ele>
        <time>2019-08-22T19:09:21.788Z</time>
      </trkpt>
      <trkpt lat="42.384798" lon="0.789347">
        <ele>1083.054573</ele>
        <time>2019-08-22T19:09:42.434Z</time>
      </trkpt>
      <trkpt lat="42.384438" lon="0.790038">
        <ele>1088.527185</ele>
        <time>2019-08-22T19:10:11.925Z</time>
      </trkpt>
      <trkpt lat="42.384258" lon="0.790059">
        <ele>1090.110190</ele>
        <time>2019-08-22T19:10:21.603Z</time>
      </trkpt>
      <trkpt lat="42.384109" lon="0.789966">
        <ele>1091.547795</ele>
        <time>2019-08-22T19:10:30.470Z</time>
      </trkpt>
      <trkpt lat="42.383981" lon="0.789862">
        <ele>1092.855805</ele>
        <time>2019-08-22T19:10:39.032Z</time>
      </trkpt>
      <trkpt lat="42.383716" lon="0.789470">
        <ele>1096.294974</ele>
        <time>2019-08-22T19:11:01.453Z</time>
      </trkpt>
      <trkpt lat="42.383532" lon="0.789424">
        <ele>1097.985323</ele>
        <time>2019-08-22T19:11:12.042Z</time>
      </trkpt>
      <trkpt lat="42.383415" lon="0.789569">
        <ele>1099.448417</ele>
        <time>2019-08-22T19:11:20.905Z</time>
      </trkpt>
      <trkpt lat="42.383199" lon="0.790390">
        <ele>1105.386318</ele>
        <time>2019-08-22T19:11:54.907Z</time>
      </trkpt>
      <trkpt lat="42.382908" lon="0.790616">
        <ele>1108.480774</ele>
        <time>2019-08-22T19:12:12.014Z</time>
      </trkpt>
      <trkpt lat="42.382517" lon="0.790751">
        <ele>1112.202758</ele>
        <time>2019-08-22T19:12:32.005Z</time>
      </trkpt>
      <trkpt lat="42.382289" lon="0.791089">
        <ele>1114.681618</ele>
        <time>2019-08-22T19:12:48.209Z</time>
      </trkpt>
      <trkpt lat="42.382129" lon="0.791236">
        <ele>1115.817457</ele>
        <time>2019-08-22T19:12:57.059Z</time>
      </trkpt>
      <trkpt lat="42.381925" lon="0.791309">
        <ele>1117.056917</ele>
        <time>2019-08-22T19:13:06.669Z</time>
      </trkpt>
      <trkpt lat="42.381646" lon="0.791298">
        <ele>1118.696469</ele>
        <time>2019-08-22T19:13:19.038Z</time>
      </trkpt>
      <trkpt lat="42.381281" lon="0.791002">
        <ele>1121.195745</ele>
        <time>2019-08-22T19:13:35.723Z</time>
      </trkpt>
      <trkpt lat="42.381066" lon="0.790967">
        <ele>1122.467762</ele>
        <time>2019-08-22T19:13:41.420Z</time>
      </trkpt>
      <trkpt lat="42.380816" lon="0.791078">
        <ele>1124.013237</ele>
        <time>2019-08-22T19:13:48.937Z</time>
      </trkpt>
      <trkpt lat="42.380412" lon="0.791539">
        <ele>1123.915680</ele>
        <time>2019-08-22T19:14:01.109Z</time>
      </trkpt>
      <trkpt lat="42.380372" lon="0.791613">
        <ele>1123.887848</ele>
        <time>2019-08-22T19:14:03.501Z</time>
      </trkpt>
      <trkpt lat="42.380345" lon="0.791662">
        <ele>1123.869293</ele>
        <time>2019-08-22T19:14:03.898Z</time>
      </trkpt>
      <trkpt lat="42.379827" lon="0.792447">
        <ele>1123.549801</ele>
        <time>2019-08-22T19:14:12.864Z</time>
      </trkpt>
      <trkpt lat="42.379676" lon="0.792873">
        <ele>1123.406383</ele>
        <time>2019-08-22T19:14:16.189Z</time>
      </trkpt>
      <trkpt lat="42.379296" lon="0.792958">
        <ele>1124.366450</ele>
        <time>2019-08-22T19:14:20.594Z</time>
      </trkpt>
      <trkpt lat="42.379193" lon="0.793055">
        <ele>1124.733338</ele>
        <time>2019-08-22T19:14:22.558Z</time>
      </trkpt>
      <trkpt lat="42.378773" lon="0.793943">
        <ele>1127.010909</ele>
        <time>2019-08-22T19:14:41.543Z</time>
      </trkpt>
      <trkpt lat="42.378697" lon="0.794101">
        <ele>1127.418168</ele>
        <time>2019-08-22T19:14:45.878Z</time>
      </trkpt>
      <trkpt lat="42.378637" lon="0.794197">
        <ele>1127.689793</ele>
        <time>2019-08-22T19:14:52.191Z</time>
      </trkpt>
      <trkpt lat="42.378493" lon="0.794235">
        <ele>1128.118784</ele>
        <time>2019-08-22T19:14:56.915Z</time>
      </trkpt>
      <trkpt lat="42.378427" lon="0.794213">
        <ele>1128.317536</ele>
        <time>2019-08-22T19:14:59.313Z</time>
      </trkpt>
      <trkpt lat="42.378337" lon="0.794122">
        <ele>1128.648035</ele>
        <time>2019-08-22T19:15:07.616Z</time>
      </trkpt>
      <trkpt lat="42.378246" lon="0.793934">
        <ele>1130.452919</ele>
        <time>2019-08-22T19:15:14.019Z</time>
      </trkpt>
      <trkpt lat="42.378006" lon="0.793085">
        <ele>1137.752624</ele>
        <time>2019-08-22T19:15:54.001Z</time>
      </trkpt>
      <trkpt lat="42.377918" lon="0.792920">
        <ele>1139.386831</ele>
        <time>2019-08-22T19:16:02.215Z</time>
      </trkpt>
      <trkpt lat="42.377429" lon="0.792335">
        <ele>1146.480771</ele>
        <time>2019-08-22T19:16:49.533Z</time>
      </trkpt>
      <trkpt lat="42.377339" lon="0.792303">
        <ele>1147.492294</ele>
        <time>2019-08-22T19:16:54.852Z</time>
      </trkpt>
      <trkpt lat="42.377197" lon="0.792358">
        <ele>1148.894264</ele>
        <time>2019-08-22T19:17:03.071Z</time>
      </trkpt>
      <trkpt lat="42.377131" lon="0.792532">
        <ele>1150.109897</ele>
        <time>2019-08-22T19:17:10.818Z</time>
      </trkpt>
      <trkpt lat="42.377140" lon="0.793284">
        <ele>1154.784180</ele>
        <time>2019-08-22T19:17:38.582Z</time>
      </trkpt>
      <trkpt lat="42.377050" lon="0.793492">
        <ele>1156.282328</ele>
        <time>2019-08-22T19:17:46.865Z</time>
      </trkpt>
      <trkpt lat="42.376678" lon="0.793767">
        <ele>1159.848286</ele>
        <time>2019-08-22T19:18:05.540Z</time>
      </trkpt>
      <trkpt lat="42.376429" lon="0.794060">
        <ele>1162.623993</ele>
        <time>2019-08-22T19:18:19.267Z</time>
      </trkpt>
      <trkpt lat="42.375931" lon="0.794975">
        <ele>1169.034020</ele>
        <time>2019-08-22T19:18:53.032Z</time>
      </trkpt>
      <trkpt lat="42.375351" lon="0.796276">
        <ele>1177.775183</ele>
        <time>2019-08-22T19:19:44.957Z</time>
      </trkpt>
      <trkpt lat="42.374797" lon="0.797218">
        <ele>1187.479805</ele>
        <time>2019-08-22T19:20:36.062Z</time>
      </trkpt>
      <trkpt lat="42.374479" lon="0.797667">
        <ele>1192.493197</ele>
        <time>2019-08-22T19:21:05.322Z</time>
      </trkpt>
      <trkpt lat="42.373877" lon="0.798162">
        <ele>1199.727494</ele>
        <time>2019-08-22T19:21:50.497Z</time>
      </trkpt>
      <trkpt lat="42.373781" lon="0.798356">
        <ele>1201.377091</ele>
        <time>2019-08-22T19:22:01.000Z</time>
      </trkpt>
      <trkpt lat="42.373588" lon="0.799195">
        <ele>1207.585050</ele>
        <time>2019-08-22T19:22:37.063Z</time>
      </trkpt>
      <trkpt lat="42.373478" lon="0.799415">
        <ele>1209.461790</ele>
        <time>2019-08-22T19:22:47.042Z</time>
      </trkpt>
      <trkpt lat="42.373214" lon="0.799754">
        <ele>1212.941624</ele>
        <time>2019-08-22T19:23:03.960Z</time>
      </trkpt>
      <trkpt lat="42.372904" lon="0.799984">
        <ele>1214.522175</ele>
        <time>2019-08-22T19:23:17.795Z</time>
      </trkpt>
      <trkpt lat="42.372889" lon="0.800159">
        <ele>1214.902462</ele>
        <time>2019-08-22T19:23:22.086Z</time>
      </trkpt>
      <trkpt lat="42.372940" lon="0.800302">
        <ele>1215.245228</ele>
        <time>2019-08-22T19:23:25.528Z</time>
      </trkpt>
      <trkpt lat="42.373429" lon="0.800968">
        <ele>1217.272092</ele>
        <time>2019-08-22T19:23:40.558Z</time>
      </trkpt>
      <trkpt lat="42.373570" lon="0.801363">
        <ele>1218.219043</ele>
        <time>2019-08-22T19:23:45.311Z</time>
      </trkpt>
      <trkpt lat="42.373604" lon="0.802083">
        <ele>1220.260252</ele>
        <time>2019-08-22T19:23:55.761Z</time>
      </trkpt>
      <trkpt lat="42.373587" lon="0.803282">
        <ele>1224.432735</ele>
        <time>2019-08-22T19:24:22.797Z</time>
      </trkpt>
      <trkpt lat="42.373594" lon="0.803479">
        <ele>1225.118955</ele>
        <time>2019-08-22T19:24:28.334Z</time>
      </trkpt>
      <trkpt lat="42.373577" lon="0.803612">
        <ele>1225.588581</ele>
        <time>2019-08-22T19:24:32.536Z</time>
      </trkpt>
      <trkpt lat="42.373539" lon="0.803709">
        <ele>1225.970592</ele>
        <time>2019-08-22T19:24:35.487Z</time>
      </trkpt>
      <trkpt lat="42.373475" lon="0.803814">
        <ele>1226.444215</ele>
        <time>2019-08-22T19:24:39.485Z</time>
      </trkpt>
      <trkpt lat="42.373347" lon="0.803977">
        <ele>1227.271892</ele>
        <time>2019-08-22T19:24:48.147Z</time>
      </trkpt>
      <trkpt lat="42.372995" lon="0.804803">
        <ele>1233.763970</ele>
        <time>2019-08-22T19:25:25.654Z</time>
      </trkpt>
      <trkpt lat="42.372736" lon="0.805201">
        <ele>1237.479023</ele>
        <time>2019-08-22T19:25:49.156Z</time>
      </trkpt>
      <trkpt lat="42.372168" lon="0.805403">
        <ele>1243.047073</ele>
        <time>2019-08-22T19:26:23.015Z</time>
      </trkpt>
      <trkpt lat="42.371922" lon="0.805588">
        <ele>1245.082999</ele>
        <time>2019-08-22T19:26:36.497Z</time>
      </trkpt>
      <trkpt lat="42.371760" lon="0.805801">
        <ele>1246.101277</ele>
        <time>2019-08-22T19:26:46.444Z</time>
      </trkpt>
      <trkpt lat="42.371515" lon="0.806629">
        <ele>1249.072322</ele>
        <time>2019-08-22T19:27:10.242Z</time>
      </trkpt>
      <trkpt lat="42.371127" lon="0.807346">
        <ele>1252.032805</ele>
        <time>2019-08-22T19:27:25.918Z</time>
      </trkpt>
      <trkpt lat="42.371117" lon="0.807912">
        <ele>1252.862600</ele>
        <time>2019-08-22T19:27:32.636Z</time>
      </trkpt>
      <trkpt lat="42.370895" lon="0.808797">
        <ele>1253.445540</ele>
        <time>2019-08-22T19:27:44.452Z</time>
      </trkpt>
      <trkpt lat="42.370724" lon="0.809184">
        <ele>1253.726796</ele>
        <time>2019-08-22T19:27:51.619Z</time>
      </trkpt>
      <trkpt lat="42.370537" lon="0.809402">
        <ele>1253.935150</ele>
        <time>2019-08-22T19:27:56.756Z</time>
      </trkpt>
      <trkpt lat="42.370347" lon="0.809542">
        <ele>1254.117782</ele>
        <time>2019-08-22T19:28:01.003Z</time>
      </trkpt>
      <trkpt lat="42.370194" lon="0.809653">
        <ele>1253.908672</ele>
        <time>2019-08-22T19:28:03.000Z</time>
      </trkpt>
      <trkpt lat="42.370106" lon="0.809713">
        <ele>1253.758099</ele>
        <time>2019-08-22T19:28:04.446Z</time>
      </trkpt>
      <trkpt lat="42.369999" lon="0.809787">
        <ele>1253.574481</ele>
        <time>2019-08-22T19:28:06.953Z</time>
      </trkpt>
      <trkpt lat="42.369781" lon="0.809922">
        <ele>1253.208137</ele>
        <time>2019-08-22T19:28:09.688Z</time>
      </trkpt>
      <trkpt lat="42.369729" lon="0.809935">
        <ele>1253.127330</ele>
        <time>2019-08-22T19:28:11.079Z</time>
      </trkpt>
      <trkpt lat="42.369670" lon="0.809951">
        <ele>1253.035378</ele>
        <time>2019-08-22T19:28:11.947Z</time>
      </trkpt>
      <trkpt lat="42.369593" lon="0.809960">
        <ele>1252.917274</ele>
        <time>2019-08-22T19:28:12.735Z</time>
      </trkpt>
      <trkpt lat="42.369493" lon="0.809954">
        <ele>1252.764311</ele>
        <time>2019-08-22T19:28:13.853Z</time>
      </trkpt>
      <trkpt lat="42.369197" lon="0.809931">
        <ele>1252.311238</ele>
        <time>2019-08-22T19:28:17.354Z</time>
      </trkpt>
      <trkpt lat="42.368937" lon="0.809910">
        <ele>1251.913217</ele>
        <time>2019-08-22T19:28:20.589Z</time>
      </trkpt>
      <trkpt lat="42.368289" lon="0.809911">
        <ele>1249.735242</ele>
        <time>2019-08-22T19:28:26.934Z</time>
      </trkpt>
      <trkpt lat="42.367648" lon="0.810275">
        <ele>1245.966766</ele>
        <time>2019-08-22T19:28:33.195Z</time>
      </trkpt>
      <trkpt lat="42.367458" lon="0.810210">
        <ele>1244.904335</ele>
        <time>2019-08-22T19:28:34.960Z</time>
      </trkpt>
      <trkpt lat="42.367113" lon="0.809881">
        <ele>1242.616388</ele>
        <time>2019-08-22T19:28:38.849Z</time>
      </trkpt>
      <trkpt lat="42.366927" lon="0.809928">
        <ele>1241.614390</ele>
        <time>2019-08-22T19:28:40.631Z</time>
      </trkpt>
      <trkpt lat="42.366788" lon="0.810188">
        <ele>1240.969696</ele>
        <time>2019-08-22T19:28:42.893Z</time>
      </trkpt>
      <trkpt lat="42.366398" lon="0.811354">
        <ele>1238.398524</ele>
        <time>2019-08-22T19:28:52.535Z</time>
      </trkpt>
      <trkpt lat="42.366273" lon="0.811604">
        <ele>1237.792116</ele>
        <time>2019-08-22T19:28:55.126Z</time>
      </trkpt>
      <trkpt lat="42.365908" lon="0.811905">
        <ele>1236.692701</ele>
        <time>2019-08-22T19:29:00.704Z</time>
      </trkpt>
      <trkpt lat="42.365432" lon="0.812421">
        <ele>1235.915859</ele>
        <time>2019-08-22T19:29:09.502Z</time>
      </trkpt>
      <trkpt lat="42.364531" lon="0.812730">
        <ele>1234.731889</ele>
        <time>2019-08-22T19:29:21.030Z</time>
      </trkpt>
      <trkpt lat="42.364028" lon="0.813096">
        <ele>1232.161866</ele>
        <time>2019-08-22T19:29:26.809Z</time>
      </trkpt>
      <trkpt lat="42.363913" lon="0.813247">
        <ele>1231.126508</ele>
        <time>2019-08-22T19:29:28.353Z</time>
      </trkpt>
      <trkpt lat="42.363630" lon="0.814017">
        <ele>1227.020454</ele>
        <time>2019-08-22T19:29:34.151Z</time>
      </trkpt>
      <trkpt lat="42.363598" lon="0.814209">
        <ele>1226.080719</ele>
        <time>2019-08-22T19:29:35.438Z</time>
      </trkpt>
      <trkpt lat="42.363614" lon="0.815009">
        <ele>1221.968217</ele>
        <time>2019-08-22T19:29:40.578Z</time>
      </trkpt>
      <trkpt lat="42.363313" lon="0.815592">
        <ele>1216.850036</ele>
        <time>2019-08-22T19:29:45.077Z</time>
      </trkpt>
      <trkpt lat="42.363260" lon="0.816138">
        <ele>1212.887085</ele>
        <time>2019-08-22T19:29:48.561Z</time>
      </trkpt>
      <trkpt lat="42.363145" lon="0.816384">
        <ele>1210.792229</ele>
        <time>2019-08-22T19:29:50.408Z</time>
      </trkpt>
      <trkpt lat="42.362882" lon="0.816622">
        <ele>1207.710908</ele>
        <time>2019-08-22T19:29:53.140Z</time>
      </trkpt>
      <trkpt lat="42.362258" lon="0.817010">
        <ele>1203.146087</ele>
        <time>2019-08-22T19:29:59.181Z</time>
      </trkpt>
      <trkpt lat="42.361683" lon="0.817527">
        <ele>1199.747336</ele>
        <time>2019-08-22T19:30:05.600Z</time>
      </trkpt>
      <trkpt lat="42.360873" lon="0.817578">
        <ele>1196.385703</ele>
        <time>2019-08-22T19:30:14.430Z</time>
      </trkpt>
      <trkpt lat="42.360598" lon="0.817639">
        <ele>1196.238761</ele>
        <time>2019-08-22T19:30:18.100Z</time>
      </trkpt>
      <trkpt lat="42.360371" lon="0.817808">
        <ele>1196.102147</ele>
        <time>2019-08-22T19:30:21.696Z</time>
      </trkpt>
      <trkpt lat="42.360056" lon="0.817988">
        <ele>1195.921848</ele>
        <time>2019-08-22T19:30:26.784Z</time>
      </trkpt>
      <trkpt lat="42.360024" lon="0.818006">
        <ele>1195.903575</ele>
        <time>2019-08-22T19:30:27.587Z</time>
      </trkpt>
      <trkpt lat="42.359845" lon="0.818094">
        <ele>1195.803153</ele>
        <time>2019-08-22T19:30:30.518Z</time>
      </trkpt>
      <trkpt lat="42.359365" lon="0.818590">
        <ele>1195.374797</ele>
        <time>2019-08-22T19:30:39.810Z</time>
      </trkpt>
      <trkpt lat="42.358782" lon="0.818869">
        <ele>1193.778651</ele>
        <time>2019-08-22T19:30:47.143Z</time>
      </trkpt>
      <trkpt lat="42.358603" lon="0.819019">
        <ele>1193.235212</ele>
        <time>2019-08-22T19:30:49.378Z</time>
      </trkpt>
      <trkpt lat="42.358480" lon="0.819276">
        <ele>1192.651191</ele>
        <time>2019-08-22T19:30:51.707Z</time>
      </trkpt>
      <trkpt lat="42.358119" lon="0.820146">
        <ele>1190.652340</ele>
        <time>2019-08-22T19:30:58.916Z</time>
      </trkpt>
      <trkpt lat="42.358027" lon="0.820413">
        <ele>1189.650312</ele>
        <time>2019-08-22T19:31:00.951Z</time>
      </trkpt>
      <trkpt lat="42.357687" lon="0.821613">
        <ele>1185.278984</ele>
        <time>2019-08-22T19:31:09.896Z</time>
      </trkpt>
      <trkpt lat="42.357655" lon="0.821851">
        <ele>1184.456176</ele>
        <time>2019-08-22T19:31:11.572Z</time>
      </trkpt>
      <trkpt lat="42.357704" lon="0.822059">
        <ele>1183.713618</ele>
        <time>2019-08-22T19:31:13.108Z</time>
      </trkpt>
      <trkpt lat="42.358101" lon="0.822763">
        <ele>1181.977138</ele>
        <time>2019-08-22T19:31:19.647Z</time>
      </trkpt>
      <trkpt lat="42.358143" lon="0.823023">
        <ele>1181.682948</ele>
        <time>2019-08-22T19:31:21.732Z</time>
      </trkpt>
      <trkpt lat="42.358055" lon="0.823250">
        <ele>1181.399589</ele>
        <time>2019-08-22T19:31:23.855Z</time>
      </trkpt>
      <trkpt lat="42.357950" lon="0.823365">
        <ele>1181.197523</ele>
        <time>2019-08-22T19:31:25.363Z</time>
      </trkpt>
      <trkpt lat="42.357629" lon="0.823606">
        <ele>1180.648388</ele>
        <time>2019-08-22T19:31:29.939Z</time>
      </trkpt>
      <trkpt lat="42.357514" lon="0.823659">
        <ele>1180.466657</ele>
        <time>2019-08-22T19:31:31.722Z</time>
      </trkpt>
      <trkpt lat="42.357273" lon="0.823662">
        <ele>1180.106128</ele>
        <time>2019-08-22T19:31:35.335Z</time>
      </trkpt>
      <trkpt lat="42.356752" lon="0.823775">
        <ele>1180.792927</ele>
        <time>2019-08-22T19:31:45.187Z</time>
      </trkpt>
      <trkpt lat="42.356296" lon="0.823988">
        <ele>1181.895569</ele>
        <time>2019-08-22T19:31:56.375Z</time>
      </trkpt>
      <trkpt lat="42.356061" lon="0.824098">
        <ele>1182.463944</ele>
        <time>2019-08-22T19:32:02.788Z</time>
      </trkpt>
      <trkpt lat="42.355447" lon="0.824454">
        <ele>1183.990785</ele>
        <time>2019-08-22T19:32:21.181Z</time>
      </trkpt>
      <trkpt lat="42.354553" lon="0.825188">
        <ele>1188.647010</ele>
        <time>2019-08-22T19:32:52.925Z</time>
      </trkpt>
      <trkpt lat="42.353723" lon="0.826759">
        <ele>1196.892863</ele>
        <time>2019-08-22T19:33:45.068Z</time>
      </trkpt>
      <trkpt lat="42.353143" lon="0.827746">
        <ele>1203.672049</ele>
        <time>2019-08-22T19:34:27.819Z</time>
      </trkpt>
      <trkpt lat="42.353014" lon="0.828188">
        <ele>1206.801943</ele>
        <time>2019-08-22T19:34:46.361Z</time>
      </trkpt>
      <trkpt lat="42.352996" lon="0.828795">
        <ele>1211.796433</ele>
        <time>2019-08-22T19:35:12.097Z</time>
      </trkpt>
      <trkpt lat="42.353134" lon="0.829249">
        <ele>1215.832415</ele>
        <time>2019-08-22T19:35:34.120Z</time>
      </trkpt>
      <trkpt lat="42.353439" lon="0.829718">
        <ele>1220.968692</ele>
        <time>2019-08-22T19:36:03.349Z</time>
      </trkpt>
      <trkpt lat="42.353538" lon="0.830349">
        <ele>1226.287135</ele>
        <time>2019-08-22T19:36:33.757Z</time>
      </trkpt>
      <trkpt lat="42.354031" lon="0.831164">
        <ele>1235.062415</ele>
        <time>2019-08-22T19:37:22.013Z</time>
      </trkpt>
      <trkpt lat="42.354270" lon="0.831431">
        <ele>1238.556658</ele>
        <time>2019-08-22T19:37:40.547Z</time>
      </trkpt>
      <trkpt lat="42.354443" lon="0.831527">
        <ele>1240.664781</ele>
        <time>2019-08-22T19:37:51.562Z</time>
      </trkpt>
      <trkpt lat="42.354904" lon="0.831503">
        <ele>1245.854748</ele>
        <time>2019-08-22T19:38:17.894Z</time>
      </trkpt>
      <trkpt lat="42.355077" lon="0.831557">
        <ele>1247.804088</ele>
        <time>2019-08-22T19:38:27.785Z</time>
      </trkpt>
      <trkpt lat="42.355468" lon="0.831910">
        <ele>1252.964818</ele>
        <time>2019-08-22T19:38:52.996Z</time>
      </trkpt>
      <trkpt lat="42.355807" lon="0.831996">
        <ele>1256.751727</ele>
        <time>2019-08-22T19:39:12.201Z</time>
      </trkpt>
      <trkpt lat="42.356447" lon="0.832628">
        <ele>1265.496292</ele>
        <time>2019-08-22T19:40:02.430Z</time>
      </trkpt>
      <trkpt lat="42.357025" lon="0.832763">
        <ele>1273.011969</ele>
        <time>2019-08-22T19:40:38.355Z</time>
      </trkpt>
      <trkpt lat="42.357130" lon="0.832851">
        <ele>1274.594506</ele>
        <time>2019-08-22T19:40:48.112Z</time>
      </trkpt>
      <trkpt lat="42.357182" lon="0.832939">
        <ele>1275.661390</ele>
        <time>2019-08-22T19:40:53.966Z</time>
      </trkpt>
      <trkpt lat="42.357175" lon="0.833241">
        <ele>1278.522319</ele>
        <time>2019-08-22T19:41:07.726Z</time>
      </trkpt>
      <trkpt lat="42.357025" lon="0.833621">
        <ele>1282.601574</ele>
        <time>2019-08-22T19:41:28.795Z</time>
      </trkpt>
      <trkpt lat="42.357014" lon="0.834687">
        <ele>1292.501320</ele>
        <time>2019-08-22T19:42:25.105Z</time>
      </trkpt>
      <trkpt lat="42.357169" lon="0.835440">
        <ele>1299.580219</ele>
        <time>2019-08-22T19:43:02.187Z</time>
      </trkpt>
      <trkpt lat="42.357610" lon="0.835943">
        <ele>1306.648409</ele>
        <time>2019-08-22T19:43:38.396Z</time>
      </trkpt>
      <trkpt lat="42.357729" lon="0.836357">
        <ele>1310.564371</ele>
        <time>2019-08-22T19:43:58.637Z</time>
      </trkpt>
      <trkpt lat="42.357222" lon="0.838086">
        <ele>1322.953665</ele>
        <time>2019-08-22T19:45:11.807Z</time>
      </trkpt>
      <trkpt lat="42.357119" lon="0.839234">
        <ele>1328.203361</ele>
        <time>2019-08-22T19:45:47.651Z</time>
      </trkpt>
      <trkpt lat="42.357505" lon="0.841487">
        <ele>1333.224345</ele>
        <time>2019-08-22T19:46:29.982Z</time>
      </trkpt>
      <trkpt lat="42.357534" lon="0.841643">
        <ele>1333.241004</ele>
        <time>2019-08-22T19:46:32.123Z</time>
      </trkpt>
      <trkpt lat="42.357560" lon="0.841780">
        <ele>1333.255652</ele>
        <time>2019-08-22T19:46:33.311Z</time>
      </trkpt>
      <trkpt lat="42.357636" lon="0.841952">
        <ele>1333.276406</ele>
        <time>2019-08-22T19:46:36.194Z</time>
      </trkpt>
      <trkpt lat="42.357799" lon="0.842139">
        <ele>1333.306353</ele>
        <time>2019-08-22T19:46:38.864Z</time>
      </trkpt>
      <trkpt lat="42.357964" lon="0.842311">
        <ele>1333.335542</ele>
        <time>2019-08-22T19:46:42.565Z</time>
      </trkpt>
      <trkpt lat="42.358121" lon="0.842414">
        <ele>1333.359993</ele>
        <time>2019-08-22T19:46:44.485Z</time>
      </trkpt>
      <trkpt lat="42.358494" lon="0.842420">
        <ele>1333.412270</ele>
        <time>2019-08-22T19:46:49.111Z</time>
      </trkpt>
      <trkpt lat="42.359428" lon="0.842167">
        <ele>1331.429047</ele>
        <time>2019-08-22T19:47:00.152Z</time>
      </trkpt>
      <trkpt lat="42.360029" lon="0.841767">
        <ele>1329.890931</ele>
        <time>2019-08-22T19:47:07.504Z</time>
      </trkpt>
      <trkpt lat="42.360248" lon="0.841772">
        <ele>1329.387914</ele>
        <time>2019-08-22T19:47:09.880Z</time>
      </trkpt>
      <trkpt lat="42.360506" lon="0.842066">
        <ele>1326.912015</ele>
        <time>2019-08-22T19:47:12.969Z</time>
      </trkpt>
      <trkpt lat="42.360655" lon="0.842117">
        <ele>1325.675976</ele>
        <time>2019-08-22T19:47:14.360Z</time>
      </trkpt>
      <trkpt lat="42.360708" lon="0.842121">
        <ele>1325.249070</ele>
        <time>2019-08-22T19:47:14.803Z</time>
      </trkpt>
      <trkpt lat="42.360837" lon="0.842128">
        <ele>1324.210776</ele>
        <time>2019-08-22T19:47:16.054Z</time>
      </trkpt>
      <trkpt lat="42.360897" lon="0.842132">
        <ele>1323.727651</ele>
        <time>2019-08-22T19:47:16.662Z</time>
      </trkpt>
      <trkpt lat="42.360956" lon="0.842145">
        <ele>1323.246906</ele>
        <time>2019-08-22T19:47:17.171Z</time>
      </trkpt>
      <trkpt lat="42.361181" lon="0.842294">
        <ele>1321.232362</ele>
        <time>2019-08-22T19:47:19.377Z</time>
      </trkpt>
      <trkpt lat="42.361476" lon="0.842738">
        <ele>1317.684073</ele>
        <time>2019-08-22T19:47:23.231Z</time>
      </trkpt>
      <trkpt lat="42.361525" lon="0.842832">
        <ele>1317.000460</ele>
        <time>2019-08-22T19:47:23.952Z</time>
      </trkpt>
      <trkpt lat="42.361565" lon="0.842915">
        <ele>1316.411594</ele>
        <time>2019-08-22T19:47:24.555Z</time>
      </trkpt>
      <trkpt lat="42.361716" lon="0.843744">
        <ele>1309.790685</ele>
        <time>2019-08-22T19:47:29.949Z</time>
      </trkpt>
      <trkpt lat="42.361962" lon="0.844449">
        <ele>1303.103928</ele>
        <time>2019-08-22T19:47:34.841Z</time>
      </trkpt>
      <trkpt lat="42.362283" lon="0.846184">
        <ele>1288.056783</ele>
        <time>2019-08-22T19:47:46.052Z</time>
      </trkpt>
      <trkpt lat="42.362371" lon="0.846403">
        <ele>1286.019833</ele>
        <time>2019-08-22T19:47:47.633Z</time>
      </trkpt>
      <trkpt lat="42.362540" lon="0.846536">
        <ele>1283.857960</ele>
        <time>2019-08-22T19:47:49.290Z</time>
      </trkpt>
      <trkpt lat="42.363301" lon="0.846661">
        <ele>1275.380756</ele>
        <time>2019-08-22T19:47:55.862Z</time>
      </trkpt>
      <trkpt lat="42.363965" lon="0.847244">
        <ele>1267.852385</ele>
        <time>2019-08-22T19:48:02.633Z</time>
      </trkpt>
      <trkpt lat="42.364471" lon="0.847319">
        <ele>1263.150537</ele>
        <time>2019-08-22T19:48:07.028Z</time>
      </trkpt>
      <trkpt lat="42.364766" lon="0.847227">
        <ele>1260.354226</ele>
        <time>2019-08-22T19:48:09.763Z</time>
      </trkpt>
      <trkpt lat="42.364808" lon="0.847202">
        <ele>1259.930411</ele>
        <time>2019-08-22T19:48:10.142Z</time>
      </trkpt>
      <trkpt lat="42.364855" lon="0.847176">
        <ele>1259.461409</ele>
        <time>2019-08-22T19:48:10.579Z</time>
      </trkpt>
      <trkpt lat="42.364969" lon="0.847150">
        <ele>1258.393549</ele>
        <time>2019-08-22T19:48:11.648Z</time>
      </trkpt>
      <trkpt lat="42.365080" lon="0.847230">
        <ele>1257.301892</ele>
        <time>2019-08-22T19:48:12.820Z</time>
      </trkpt>
      <trkpt lat="42.365123" lon="0.847403">
        <ele>1256.461617</ele>
        <time>2019-08-22T19:48:13.972Z</time>
      </trkpt>
      <trkpt lat="42.365085" lon="0.847520">
        <ele>1255.873258</ele>
        <time>2019-08-22T19:48:14.873Z</time>
      </trkpt>
      <trkpt lat="42.364500" lon="0.847837">
        <ele>1251.947068</ele>
        <time>2019-08-22T19:48:20.545Z</time>
      </trkpt>
      <trkpt lat="42.364221" lon="0.848279">
        <ele>1249.270830</ele>
        <time>2019-08-22T19:48:24.490Z</time>
      </trkpt>
      <trkpt lat="42.364202" lon="0.848430">
        <ele>1248.565672</ele>
        <time>2019-08-22T19:48:25.548Z</time>
      </trkpt>
      <trkpt lat="42.364277" lon="0.848536">
        <ele>1247.890028</ele>
        <time>2019-08-22T19:48:26.627Z</time>
      </trkpt>
      <trkpt lat="42.364386" lon="0.848532">
        <ele>1247.210644</ele>
        <time>2019-08-22T19:48:27.721Z</time>
      </trkpt>
      <trkpt lat="42.364647" lon="0.848139">
        <ele>1244.796674</ele>
        <time>2019-08-22T19:48:31.364Z</time>
      </trkpt>
      <trkpt lat="42.364945" lon="0.847939">
        <ele>1242.750675</ele>
        <time>2019-08-22T19:48:34.535Z</time>
      </trkpt>
      <trkpt lat="42.365051" lon="0.847984">
        <ele>1242.067344</ele>
        <time>2019-08-22T19:48:35.516Z</time>
      </trkpt>
      <trkpt lat="42.365082" lon="0.848092">
        <ele>1241.540770</ele>
        <time>2019-08-22T19:48:36.339Z</time>
      </trkpt>
      <trkpt lat="42.364975" lon="0.848255">
        <ele>1240.549832</ele>
        <time>2019-08-22T19:48:37.893Z</time>
      </trkpt>
      <trkpt lat="42.364937" lon="0.848272">
        <ele>1240.303655</ele>
        <time>2019-08-22T19:48:38.228Z</time>
      </trkpt>
      <trkpt lat="42.364875" lon="0.848294">
        <ele>1239.909403</ele>
        <time>2019-08-22T19:48:38.808Z</time>
      </trkpt>
      <trkpt lat="42.364700" lon="0.848410">
        <ele>1238.710806</ele>
        <time>2019-08-22T19:48:40.640Z</time>
      </trkpt>
      <trkpt lat="42.364634" lon="0.848618">
        <ele>1237.682000</ele>
        <time>2019-08-22T19:48:42.128Z</time>
      </trkpt>
      <trkpt lat="42.364605" lon="0.849723">
        <ele>1231.820209</ele>
        <time>2019-08-22T19:48:49.423Z</time>
      </trkpt>
      <trkpt lat="42.364711" lon="0.849964">
        <ele>1230.122352</ele>
        <time>2019-08-22T19:48:51.228Z</time>
      </trkpt>
      <trkpt lat="42.365424" lon="0.851111">
        <ele>1221.048353</ele>
        <time>2019-08-22T19:49:00.963Z</time>
      </trkpt>
      <trkpt lat="42.365795" lon="0.851550">
        <ele>1219.091425</ele>
        <time>2019-08-22T19:49:05.225Z</time>
      </trkpt>
      <trkpt lat="42.365922" lon="0.851787">
        <ele>1218.394361</ele>
        <time>2019-08-22T19:49:07.349Z</time>
      </trkpt>
      <trkpt lat="42.366016" lon="0.852198">
        <ele>1217.369990</ele>
        <time>2019-08-22T19:49:10.456Z</time>
      </trkpt>
      <trkpt lat="42.365994" lon="0.852754">
        <ele>1216.044299</ele>
        <time>2019-08-22T19:49:14.965Z</time>
      </trkpt>
      <trkpt lat="42.365979" lon="0.852823">
        <ele>1215.873051</ele>
        <time>2019-08-22T19:49:15.421Z</time>
      </trkpt>
      <trkpt lat="42.365953" lon="0.852888">
        <ele>1215.697067</ele>
        <time>2019-08-22T19:49:16.372Z</time>
      </trkpt>
      <trkpt lat="42.365838" lon="0.852981">
        <ele>1215.265372</ele>
        <time>2019-08-22T19:49:20.546Z</time>
      </trkpt>
      <trkpt lat="42.365811" lon="0.852980">
        <ele>1215.178334</ele>
        <time>2019-08-22T19:49:20.823Z</time>
      </trkpt>
      <trkpt lat="42.365779" lon="0.852969">
        <ele>1215.071941</ele>
        <time>2019-08-22T19:49:21.900Z</time>
      </trkpt>
      <trkpt lat="42.365700" lon="0.852908">
        <ele>1214.778852</ele>
        <time>2019-08-22T19:49:22.829Z</time>
      </trkpt>
      <trkpt lat="42.365661" lon="0.852852">
        <ele>1214.730477</ele>
        <time>2019-08-22T19:49:23.490Z</time>
      </trkpt>
      <trkpt lat="42.365573" lon="0.852709">
        <ele>1215.516438</ele>
        <time>2019-08-22T19:49:29.051Z</time>
      </trkpt>
      <trkpt lat="42.364703" lon="0.851229">
        <ele>1223.503757</ele>
        <time>2019-08-22T19:50:26.650Z</time>
      </trkpt>
      <trkpt lat="42.363976" lon="0.850116">
        <ele>1228.571524</ele>
        <time>2019-08-22T19:51:14.291Z</time>
      </trkpt>
      <trkpt lat="42.362881" lon="0.848966">
        <ele>1231.286699</ele>
        <time>2019-08-22T19:51:47.098Z</time>
      </trkpt>
      <trkpt lat="42.362674" lon="0.848954">
        <ele>1230.639171</ele>
        <time>2019-08-22T19:51:49.324Z</time>
      </trkpt>
      <trkpt lat="42.362527" lon="0.849198">
        <ele>1229.912157</ele>
        <time>2019-08-22T19:51:51.392Z</time>
      </trkpt>
      <trkpt lat="42.362385" lon="0.849926">
        <ele>1228.173423</ele>
        <time>2019-08-22T19:51:56.521Z</time>
      </trkpt>
      <trkpt lat="42.362406" lon="0.850316">
        <ele>1227.270421</ele>
        <time>2019-08-22T19:51:59.394Z</time>
      </trkpt>
      <trkpt lat="42.362416" lon="0.850410">
        <ele>1227.051112</ele>
        <time>2019-08-22T19:52:00.013Z</time>
      </trkpt>
      <trkpt lat="42.362427" lon="0.850684">
        <ele>1226.333766</ele>
        <time>2019-08-22T19:52:01.972Z</time>
      </trkpt>
      <trkpt lat="42.362368" lon="0.850899">
        <ele>1225.731692</ele>
        <time>2019-08-22T19:52:03.670Z</time>
      </trkpt>
      <trkpt lat="42.362280" lon="0.851132">
        <ele>1225.044760</ele>
        <time>2019-08-22T19:52:05.540Z</time>
      </trkpt>
      <trkpt lat="42.362259" lon="0.851226">
        <ele>1224.786963</ele>
        <time>2019-08-22T19:52:07.006Z</time>
      </trkpt>
      <trkpt lat="42.362299" lon="0.851422">
        <ele>1224.253169</ele>
        <time>2019-08-22T19:52:08.402Z</time>
      </trkpt>
      <trkpt lat="42.362375" lon="0.851486">
        <ele>1223.935154</ele>
        <time>2019-08-22T19:52:09.283Z</time>
      </trkpt>
      <trkpt lat="42.362480" lon="0.851481">
        <ele>1223.561880</ele>
        <time>2019-08-22T19:52:10.480Z</time>
      </trkpt>
      <trkpt lat="42.362565" lon="0.851362">
        <ele>1223.127386</ele>
        <time>2019-08-22T19:52:11.619Z</time>
      </trkpt>
      <trkpt lat="42.362600" lon="0.851208">
        <ele>1222.704423</ele>
        <time>2019-08-22T19:52:12.813Z</time>
      </trkpt>
      <trkpt lat="42.362671" lon="0.850744">
        <ele>1221.460515</ele>
        <time>2019-08-22T19:52:16.303Z</time>
      </trkpt>
      <trkpt lat="42.362774" lon="0.850259">
        <ele>1219.703334</ele>
        <time>2019-08-22T19:52:20.539Z</time>
      </trkpt>
      <trkpt lat="42.362931" lon="0.850165">
        <ele>1218.569196</ele>
        <time>2019-08-22T19:52:22.425Z</time>
      </trkpt>
      <trkpt lat="42.363117" lon="0.850290">
        <ele>1217.197287</ele>
        <time>2019-08-22T19:52:24.943Z</time>
      </trkpt>
      <trkpt lat="42.363603" lon="0.850877">
        <ele>1212.894035</ele>
        <time>2019-08-22T19:52:31.236Z</time>
      </trkpt>
      <trkpt lat="42.363725" lon="0.851220">
        <ele>1211.035888</ele>
        <time>2019-08-22T19:52:33.675Z</time>
      </trkpt>
      <trkpt lat="42.363950" lon="0.852312">
        <ele>1199.811393</ele>
        <time>2019-08-22T19:52:40.705Z</time>
      </trkpt>
      <trkpt lat="42.364621" lon="0.853971">
        <ele>1174.037612</ele>
        <time>2019-08-22T19:52:52.158Z</time>
      </trkpt>
      <trkpt lat="42.365094" lon="0.854605">
        <ele>1159.042564</ele>
        <time>2019-08-22T19:52:57.588Z</time>
      </trkpt>
      <trkpt lat="42.365398" lon="0.854832">
        <ele>1151.221937</ele>
        <time>2019-08-22T19:53:00.418Z</time>
      </trkpt>
      <trkpt lat="42.365571" lon="0.855047">
        <ele>1145.931499</ele>
        <time>2019-08-22T19:53:02.332Z</time>
      </trkpt>
      <trkpt lat="42.365847" lon="0.856118">
        <ele>1128.246928</ele>
        <time>2019-08-22T19:53:09.181Z</time>
      </trkpt>
      <trkpt lat="42.366394" lon="0.856799">
        <ele>1113.847457</ele>
        <time>2019-08-22T19:53:15.239Z</time>
      </trkpt>
      <trkpt lat="42.366637" lon="0.857528">
        <ele>1102.399144</ele>
        <time>2019-08-22T19:53:20.133Z</time>
      </trkpt>
      <trkpt lat="42.366806" lon="0.857866">
        <ele>1099.224016</ele>
        <time>2019-08-22T19:53:22.662Z</time>
      </trkpt>
      <trkpt lat="42.366877" lon="0.857915">
        <ele>1098.665587</ele>
        <time>2019-08-22T19:53:23.389Z</time>
      </trkpt>
      <trkpt lat="42.366940" lon="0.857914">
        <ele>1098.224126</ele>
        <time>2019-08-22T19:53:23.906Z</time>
      </trkpt>
      <trkpt lat="42.367083" lon="0.857876">
        <ele>1097.203017</ele>
        <time>2019-08-22T19:53:25.244Z</time>
      </trkpt>
      <trkpt lat="42.367203" lon="0.857962">
        <ele>1096.251597</ele>
        <time>2019-08-22T19:53:26.592Z</time>
      </trkpt>
      <trkpt lat="42.367176" lon="0.858177">
        <ele>1095.122589</ele>
        <time>2019-08-22T19:53:28.052Z</time>
      </trkpt>
      <trkpt lat="42.367038" lon="0.858261">
        <ele>1094.062358</ele>
        <time>2019-08-22T19:53:29.550Z</time>
      </trkpt>
      <trkpt lat="42.366874" lon="0.858264">
        <ele>1092.913130</ele>
        <time>2019-08-22T19:53:31.178Z</time>
      </trkpt>
      <trkpt lat="42.366630" lon="0.858052">
        <ele>1090.881498</ele>
        <time>2019-08-22T19:53:33.947Z</time>
      </trkpt>
      <trkpt lat="42.366383" lon="0.857608">
        <ele>1088.006689</ele>
        <time>2019-08-22T19:53:37.743Z</time>
      </trkpt>
      <trkpt lat="42.366250" lon="0.857246">
        <ele>1085.954291</ele>
        <time>2019-08-22T19:53:40.955Z</time>
      </trkpt>
      <trkpt lat="42.366145" lon="0.857057">
        <ele>1084.753838</ele>
        <time>2019-08-22T19:53:42.935Z</time>
      </trkpt>
      <trkpt lat="42.366065" lon="0.857020">
        <ele>1084.172956</ele>
        <time>2019-08-22T19:53:43.701Z</time>
      </trkpt>
      <trkpt lat="42.365974" lon="0.857133">
        <ele>1083.324412</ele>
        <time>2019-08-22T19:53:45.070Z</time>
      </trkpt>
      <trkpt lat="42.366016" lon="0.857304">
        <ele>1082.409600</ele>
        <time>2019-08-22T19:53:46.575Z</time>
      </trkpt>
      <trkpt lat="42.366165" lon="0.857629">
        <ele>1080.467881</ele>
        <time>2019-08-22T19:53:49.143Z</time>
      </trkpt>
      <trkpt lat="42.366582" lon="0.858877">
        <ele>1071.390420</ele>
        <time>2019-08-22T19:53:57.823Z</time>
      </trkpt>
      <trkpt lat="42.366749" lon="0.859168">
        <ele>1067.761224</ele>
        <time>2019-08-22T19:54:00.075Z</time>
      </trkpt>
      <trkpt lat="42.367101" lon="0.859447">
        <ele>1062.323379</ele>
        <time>2019-08-22T19:54:03.463Z</time>
      </trkpt>
      <trkpt lat="42.367519" lon="0.859630">
        <ele>1056.466870</ele>
        <time>2019-08-22T19:54:07.120Z</time>
      </trkpt>
      <trkpt lat="42.367597" lon="0.859686">
        <ele>1055.289841</ele>
        <time>2019-08-22T19:54:07.852Z</time>
      </trkpt>
      <trkpt lat="42.367649" lon="0.859834">
        <ele>1053.675723</ele>
        <time>2019-08-22T19:54:08.893Z</time>
      </trkpt>
      <trkpt lat="42.367612" lon="0.859949">
        <ele>1052.440326</ele>
        <time>2019-08-22T19:54:09.675Z</time>
      </trkpt>
      <trkpt lat="42.367531" lon="0.860023">
        <ele>1051.339073</ele>
        <time>2019-08-22T19:54:10.490Z</time>
      </trkpt>
      <trkpt lat="42.367440" lon="0.860078">
        <ele>1050.416734</ele>
        <time>2019-08-22T19:54:11.324Z</time>
      </trkpt>
      <trkpt lat="42.367179" lon="0.860231">
        <ele>1047.784411</ele>
        <time>2019-08-22T19:54:13.755Z</time>
      </trkpt>
      <trkpt lat="42.367125" lon="0.860330">
        <ele>1046.942977</ele>
        <time>2019-08-22T19:54:14.539Z</time>
      </trkpt>
      <trkpt lat="42.367086" lon="0.860857">
        <ele>1043.321414</ele>
        <time>2019-08-22T19:54:17.967Z</time>
      </trkpt>
      <trkpt lat="42.367106" lon="0.861070">
        <ele>1041.853244</ele>
        <time>2019-08-22T19:54:19.313Z</time>
      </trkpt>
      <trkpt lat="42.367135" lon="0.861290">
        <ele>1040.325169</ele>
        <time>2019-08-22T19:54:20.763Z</time>
      </trkpt>
      <trkpt lat="42.367221" lon="0.861330">
        <ele>1039.483573</ele>
        <time>2019-08-22T19:54:21.617Z</time>
      </trkpt>
      <trkpt lat="42.367313" lon="0.861215">
        <ele>1038.324569</ele>
        <time>2019-08-22T19:54:22.681Z</time>
      </trkpt>
      <trkpt lat="42.367427" lon="0.860670">
        <ele>1034.960500</ele>
        <time>2019-08-22T19:54:26.489Z</time>
      </trkpt>
      <trkpt lat="42.367485" lon="0.860580">
        <ele>1034.738491</ele>
        <time>2019-08-22T19:54:27.587Z</time>
      </trkpt>
      <trkpt lat="42.367646" lon="0.860568">
        <ele>1034.332788</ele>
        <time>2019-08-22T19:54:29.040Z</time>
      </trkpt>
      <trkpt lat="42.367691" lon="0.860637">
        <ele>1034.161696</ele>
        <time>2019-08-22T19:54:29.651Z</time>
      </trkpt>
      <trkpt lat="42.367686" lon="0.860744">
        <ele>1033.962389</ele>
        <time>2019-08-22T19:54:30.652Z</time>
      </trkpt>
      <trkpt lat="42.367639" lon="0.860886">
        <ele>1033.673138</ele>
        <time>2019-08-22T19:54:32.000Z</time>
      </trkpt>
      <trkpt lat="42.367534" lon="0.861075">
        <ele>1033.233548</ele>
        <time>2019-08-22T19:54:33.565Z</time>
      </trkpt>
      <trkpt lat="42.367488" lon="0.861199">
        <ele>1032.975610</ele>
        <time>2019-08-22T19:54:35.401Z</time>
      </trkpt>
      <trkpt lat="42.367468" lon="0.861752">
        <ele>1031.946366</ele>
        <time>2019-08-22T19:54:40.305Z</time>
      </trkpt>
      <trkpt lat="42.367412" lon="0.862016">
        <ele>1031.435770</ele>
        <time>2019-08-22T19:54:42.428Z</time>
      </trkpt>
      <trkpt lat="42.367277" lon="0.862291">
        <ele>1030.821994</ele>
        <time>2019-08-22T19:54:46.451Z</time>
      </trkpt>
      <trkpt lat="42.367160" lon="0.862327">
        <ele>1030.663303</ele>
        <time>2019-08-22T19:54:47.715Z</time>
      </trkpt>
      <trkpt lat="42.366960" lon="0.862055">
        <ele>1030.923607</ele>
        <time>2019-08-22T19:54:54.822Z</time>
      </trkpt>
      <trkpt lat="42.366539" lon="0.861127">
        <ele>1031.662289</ele>
        <time>2019-08-22T19:55:18.751Z</time>
      </trkpt>
      <trkpt lat="42.366213" lon="0.860563">
        <ele>1032.148033</ele>
        <time>2019-08-22T19:55:25.378Z</time>
      </trkpt>
      <trkpt lat="42.366126" lon="0.860409">
        <ele>1032.249959</ele>
        <time>2019-08-22T19:55:28.504Z</time>
      </trkpt>
      <trkpt lat="42.366063" lon="0.860259">
        <ele>1031.283168</ele>
        <time>2019-08-22T19:55:29.798Z</time>
      </trkpt>
      <trkpt lat="42.365934" lon="0.860152">
        <ele>1030.135769</ele>
        <time>2019-08-22T19:55:31.281Z</time>
      </trkpt>
      <trkpt lat="42.365907" lon="0.860170">
        <ele>1029.907517</ele>
        <time>2019-08-22T19:55:32.822Z</time>
      </trkpt>
      <trkpt lat="42.365884" lon="0.860201">
        <ele>1029.661354</ele>
        <time>2019-08-22T19:55:33.112Z</time>
      </trkpt>
      <trkpt lat="42.365865" lon="0.860281">
        <ele>1029.190503</ele>
        <time>2019-08-22T19:55:33.743Z</time>
      </trkpt>
      <trkpt lat="42.365913" lon="0.860441">
        <ele>1028.222897</ele>
        <time>2019-08-22T19:55:34.902Z</time>
      </trkpt>
      <trkpt lat="42.366152" lon="0.860866">
        <ele>1025.230214</ele>
        <time>2019-08-22T19:55:38.496Z</time>
      </trkpt>
      <trkpt lat="42.366524" lon="0.862128">
        <ele>1017.020576</ele>
        <time>2019-08-22T19:55:47.096Z</time>
      </trkpt>
      <trkpt lat="42.366597" lon="0.863043">
        <ele>1008.845853</ele>
        <time>2019-08-22T19:55:52.758Z</time>
      </trkpt>
      <trkpt lat="42.366513" lon="0.863385">
        <ele>1005.644587</ele>
        <time>2019-08-22T19:55:55.008Z</time>
      </trkpt>
      <trkpt lat="42.366176" lon="0.863978">
        <ele>998.999368</ele>
        <time>2019-08-22T19:55:59.736Z</time>
      </trkpt>
      <trkpt lat="42.365855" lon="0.864503">
        <ele>994.381468</ele>
        <time>2019-08-22T19:56:04.089Z</time>
      </trkpt>
      <trkpt lat="42.365755" lon="0.864666">
        <ele>993.163758</ele>
        <time>2019-08-22T19:56:05.471Z</time>
      </trkpt>
      <trkpt lat="42.365636" lon="0.864803">
        <ele>991.948462</ele>
        <time>2019-08-22T19:56:06.847Z</time>
      </trkpt>
      <trkpt lat="42.365298" lon="0.864914">
        <ele>989.242872</ele>
        <time>2019-08-22T19:56:09.948Z</time>
      </trkpt>
      <trkpt lat="42.365083" lon="0.865149">
        <ele>987.093091</ele>
        <time>2019-08-22T19:56:12.436Z</time>
      </trkpt>
      <trkpt lat="42.364454" lon="0.866517">
        <ele>978.753644</ele>
        <time>2019-08-22T19:56:23.294Z</time>
      </trkpt>
      <trkpt lat="42.364206" lon="0.867497">
        <ele>973.857058</ele>
        <time>2019-08-22T19:56:30.241Z</time>
      </trkpt>
      <trkpt lat="42.364014" lon="0.867718">
        <ele>972.244578</ele>
        <time>2019-08-22T19:56:32.548Z</time>
      </trkpt>
      <trkpt lat="42.363729" lon="0.867894">
        <ele>970.549537</ele>
        <time>2019-08-22T19:56:35.420Z</time>
      </trkpt>
      <trkpt lat="42.363693" lon="0.867931">
        <ele>970.330525</ele>
        <time>2019-08-22T19:56:35.822Z</time>
      </trkpt>
      <trkpt lat="42.363669" lon="0.868095">
        <ele>969.732020</ele>
        <time>2019-08-22T19:56:36.922Z</time>
      </trkpt>
      <trkpt lat="42.363738" lon="0.868148">
        <ele>969.347627</ele>
        <time>2019-08-22T19:56:37.687Z</time>
      </trkpt>
      <trkpt lat="42.364043" lon="0.867899">
        <ele>967.621872</ele>
        <time>2019-08-22T19:56:41.010Z</time>
      </trkpt>
      <trkpt lat="42.364191" lon="0.867904">
        <ele>966.904590</ele>
        <time>2019-08-22T19:56:42.448Z</time>
      </trkpt>
      <trkpt lat="42.364180" lon="0.868062">
        <ele>966.336468</ele>
        <time>2019-08-22T19:56:43.512Z</time>
      </trkpt>
      <trkpt lat="42.363967" lon="0.868241">
        <ele>965.121723</ele>
        <time>2019-08-22T19:56:46.006Z</time>
      </trkpt>
      <trkpt lat="42.363915" lon="0.868293">
        <ele>964.808472</ele>
        <time>2019-08-22T19:56:46.585Z</time>
      </trkpt>
      <trkpt lat="42.363886" lon="0.868335">
        <ele>964.602685</ele>
        <time>2019-08-22T19:56:46.975Z</time>
      </trkpt>
      <trkpt lat="42.363783" lon="0.868573">
        <ele>963.615288</ele>
        <time>2019-08-22T19:56:49.129Z</time>
      </trkpt>
      <trkpt lat="42.363705" lon="0.868799">
        <ele>962.746355</ele>
        <time>2019-08-22T19:56:50.874Z</time>
      </trkpt>
      <trkpt lat="42.363639" lon="0.869006">
        <ele>962.189891</ele>
        <time>2019-08-22T19:56:52.928Z</time>
      </trkpt>
      <trkpt lat="42.363621" lon="0.869060">
        <ele>962.043671</ele>
        <time>2019-08-22T19:56:53.408Z</time>
      </trkpt>
      <trkpt lat="42.363348" lon="0.869925">
        <ele>959.722029</ele>
        <time>2019-08-22T19:57:00.602Z</time>
      </trkpt>
      <trkpt lat="42.363297" lon="0.870070">
        <ele>959.325653</ele>
        <time>2019-08-22T19:57:01.716Z</time>
      </trkpt>
      <trkpt lat="42.363011" lon="0.870640">
        <ele>957.625023</ele>
        <time>2019-08-22T19:57:06.929Z</time>
      </trkpt>
      <trkpt lat="42.362571" lon="0.871248">
        <ele>955.152195</ele>
        <time>2019-08-22T19:57:13.135Z</time>
      </trkpt>
      <trkpt lat="42.361514" lon="0.872238">
        <ele>949.596547</ele>
        <time>2019-08-22T19:57:25.341Z</time>
      </trkpt>
      <trkpt lat="42.360720" lon="0.873227">
        <ele>945.699225</ele>
        <time>2019-08-22T19:57:35.931Z</time>
      </trkpt>
      <trkpt lat="42.360399" lon="0.873821">
        <ele>943.790072</ele>
        <time>2019-08-22T19:57:41.611Z</time>
      </trkpt>
      <trkpt lat="42.360221" lon="0.874251">
        <ele>942.488962</ele>
        <time>2019-08-22T19:57:45.342Z</time>
      </trkpt>
      <trkpt lat="42.360169" lon="0.874377">
        <ele>942.070653</ele>
        <time>2019-08-22T19:57:46.456Z</time>
      </trkpt>
      <trkpt lat="42.359790" lon="0.875438">
        <ele>938.654864</ele>
        <time>2019-08-22T19:57:59.117Z</time>
      </trkpt>
      <trkpt lat="42.359641" lon="0.876039">
        <ele>936.817429</ele>
        <time>2019-08-22T19:58:03.747Z</time>
      </trkpt>
      <trkpt lat="42.359237" lon="0.877390">
        <ele>930.896806</ele>
        <time>2019-08-22T19:58:13.682Z</time>
      </trkpt>
      <trkpt lat="42.358715" lon="0.878462">
        <ele>925.109052</ele>
        <time>2019-08-22T19:58:22.274Z</time>
      </trkpt>
      <trkpt lat="42.358310" lon="0.879655">
        <ele>919.935357</ele>
        <time>2019-08-22T19:58:31.246Z</time>
      </trkpt>
      <trkpt lat="42.358181" lon="0.880290">
        <ele>917.369783</ele>
        <time>2019-08-22T19:58:35.861Z</time>
      </trkpt>
      <trkpt lat="42.358116" lon="0.880895">
        <ele>915.051248</ele>
        <time>2019-08-22T19:58:40.181Z</time>
      </trkpt>
      <trkpt lat="42.358092" lon="0.881568">
        <ele>913.241184</ele>
        <time>2019-08-22T19:58:45.025Z</time>
      </trkpt>
      <trkpt lat="42.358128" lon="0.882112">
        <ele>911.773924</ele>
        <time>2019-08-22T19:58:49.049Z</time>
      </trkpt>
      <trkpt lat="42.358179" lon="0.882459">
        <ele>910.823478</ele>
        <time>2019-08-22T19:58:51.698Z</time>
      </trkpt>
      <trkpt lat="42.358193" lon="0.882548">
        <ele>910.579030</ele>
        <time>2019-08-22T19:58:52.632Z</time>
      </trkpt>
      <trkpt lat="42.358430" lon="0.883445">
        <ele>908.277163</ele>
        <time>2019-08-22T19:59:02.997Z</time>
      </trkpt>
      <trkpt lat="42.358730" lon="0.884571">
        <ele>906.368917</ele>
        <time>2019-08-22T19:59:12.327Z</time>
      </trkpt>
      <trkpt lat="42.359263" lon="0.886349">
        <ele>903.939210</ele>
        <time>2019-08-22T19:59:28.884Z</time>
      </trkpt>
      <trkpt lat="42.359394" lon="0.887017">
        <ele>903.311551</ele>
        <time>2019-08-22T19:59:35.420Z</time>
      </trkpt>
      <trkpt lat="42.359439" lon="0.887514">
        <ele>902.856815</ele>
        <time>2019-08-22T19:59:39.926Z</time>
      </trkpt>
      <trkpt lat="42.359438" lon="0.887585">
        <ele>902.792324</ele>
        <time>2019-08-22T19:59:40.544Z</time>
      </trkpt>
      <trkpt lat="42.359438" lon="0.887886">
        <ele>902.459569</ele>
        <time>2019-08-22T19:59:43.239Z</time>
      </trkpt>
      <trkpt lat="42.359425" lon="0.888175">
        <ele>901.829986</ele>
        <time>2019-08-22T19:59:45.633Z</time>
      </trkpt>
      <trkpt lat="42.359414" lon="0.888409">
        <ele>901.320133</ele>
        <time>2019-08-22T19:59:47.600Z</time>
      </trkpt>
      <trkpt lat="42.359361" lon="0.888813">
        <ele>900.427912</ele>
        <time>2019-08-22T19:59:50.904Z</time>
      </trkpt>
      <trkpt lat="42.359346" lon="0.888934">
        <ele>900.161125</ele>
        <time>2019-08-22T19:59:51.824Z</time>
      </trkpt>
      <trkpt lat="42.359121" lon="0.889812">
        <ele>898.140389</ele>
        <time>2019-08-22T19:59:58.757Z</time>
      </trkpt>
      <trkpt lat="42.358820" lon="0.890538">
        <ele>895.575345</ele>
        <time>2019-08-22T20:00:04.665Z</time>
      </trkpt>
      <trkpt lat="42.358311" lon="0.891315">
        <ele>891.501274</ele>
        <time>2019-08-22T20:00:11.782Z</time>
      </trkpt>
      <trkpt lat="42.357501" lon="0.892145">
        <ele>886.284475</ele>
        <time>2019-08-22T20:00:21.175Z</time>
      </trkpt>
      <trkpt lat="42.357110" lon="0.892642">
        <ele>883.750485</ele>
        <time>2019-08-22T20:00:26.244Z</time>
      </trkpt>
      <trkpt lat="42.356831" lon="0.893010">
        <ele>881.910088</ele>
        <time>2019-08-22T20:00:29.968Z</time>
      </trkpt>
      <trkpt lat="42.356492" lon="0.893762">
        <ele>878.856665</ele>
        <time>2019-08-22T20:00:36.346Z</time>
      </trkpt>
      <trkpt lat="42.356215" lon="0.894674">
        <ele>875.605724</ele>
        <time>2019-08-22T20:00:43.446Z</time>
      </trkpt>
      <trkpt lat="42.355935" lon="0.895427">
        <ele>872.826479</ele>
        <time>2019-08-22T20:00:49.410Z</time>
      </trkpt>
      <trkpt lat="42.355728" lon="0.895811">
        <ele>871.259360</ele>
        <time>2019-08-22T20:00:52.705Z</time>
      </trkpt>
      <trkpt lat="42.355490" lon="0.896198">
        <ele>869.823260</ele>
        <time>2019-08-22T20:00:56.228Z</time>
      </trkpt>
      <trkpt lat="42.355052" lon="0.896747">
        <ele>867.532818</ele>
        <time>2019-08-22T20:01:02.003Z</time>
      </trkpt>
      <trkpt lat="42.354937" lon="0.896884">
        <ele>866.945020</ele>
        <time>2019-08-22T20:01:03.521Z</time>
      </trkpt>
      <trkpt lat="42.354587" lon="0.897300">
        <ele>865.157857</ele>
        <time>2019-08-22T20:01:08.151Z</time>
      </trkpt>
      <trkpt lat="42.354417" lon="0.897501">
        <ele>864.295199</ele>
        <time>2019-08-22T20:01:10.483Z</time>
      </trkpt>
      <trkpt lat="42.353958" lon="0.898054">
        <ele>863.520571</ele>
        <time>2019-08-22T20:01:17.366Z</time>
      </trkpt>
      <trkpt lat="42.353901" lon="0.898118">
        <ele>863.427214</ele>
        <time>2019-08-22T20:01:18.281Z</time>
      </trkpt>
      <trkpt lat="42.353077" lon="0.899057">
        <ele>862.069368</ele>
        <time>2019-08-22T20:01:32.522Z</time>
      </trkpt>
      <trkpt lat="42.352548" lon="0.899663">
        <ele>860.531517</ele>
        <time>2019-08-22T20:01:40.845Z</time>
      </trkpt>
      <trkpt lat="42.352161" lon="0.900011">
        <ele>859.479399</ele>
        <time>2019-08-22T20:01:46.068Z</time>
      </trkpt>
      <trkpt lat="42.350439" lon="0.901267">
        <ele>852.391881</ele>
        <time>2019-08-22T20:02:05.253Z</time>
      </trkpt>
      <trkpt lat="42.349941" lon="0.901712">
        <ele>849.792452</ele>
        <time>2019-08-22T20:02:10.792Z</time>
      </trkpt>
      <trkpt lat="42.349527" lon="0.902081">
        <ele>847.567349</ele>
        <time>2019-08-22T20:02:15.443Z</time>
      </trkpt>
      <trkpt lat="42.348900" lon="0.902708">
        <ele>844.067981</ele>
        <time>2019-08-22T20:02:22.912Z</time>
      </trkpt>
      <trkpt lat="42.348785" lon="0.902838">
        <ele>843.395384</ele>
        <time>2019-08-22T20:02:24.364Z</time>
      </trkpt>
      <trkpt lat="42.348178" lon="0.903522">
        <ele>839.942814</ele>
        <time>2019-08-22T20:02:32.334Z</time>
      </trkpt>
      <trkpt lat="42.347827" lon="0.903919">
        <ele>837.974744</ele>
        <time>2019-08-22T20:02:36.857Z</time>
      </trkpt>
      <trkpt lat="42.347764" lon="0.903983">
        <ele>837.635835</ele>
        <time>2019-08-22T20:02:37.581Z</time>
      </trkpt>
      <trkpt lat="42.347607" lon="0.904146">
        <ele>836.784508</ele>
        <time>2019-08-22T20:02:39.469Z</time>
      </trkpt>
      <trkpt lat="42.347152" lon="0.904616">
        <ele>834.315589</ele>
        <time>2019-08-22T20:02:44.870Z</time>
      </trkpt>
      <trkpt lat="42.346747" lon="0.905083">
        <ele>831.517470</ele>
        <time>2019-08-22T20:02:49.864Z</time>
      </trkpt>
      <trkpt lat="42.346605" lon="0.905288">
        <ele>830.425543</ele>
        <time>2019-08-22T20:02:51.743Z</time>
      </trkpt>
      <trkpt lat="42.346159" lon="0.905849">
        <ele>827.223379</ele>
        <time>2019-08-22T20:02:57.367Z</time>
      </trkpt>
      <trkpt lat="42.345587" lon="0.906965">
        <ele>823.052333</ele>
        <time>2019-08-22T20:03:07.000Z</time>
      </trkpt>
      <trkpt lat="42.345290" lon="0.907665">
        <ele>821.093853</ele>
        <time>2019-08-22T20:03:13.273Z</time>
      </trkpt>
      <trkpt lat="42.344948" lon="0.908902">
        <ele>817.925416</ele>
        <time>2019-08-22T20:03:23.586Z</time>
      </trkpt>
      <trkpt lat="42.344439" lon="0.911491">
        <ele>811.173632</ele>
        <time>2019-08-22T20:03:43.569Z</time>
      </trkpt>
      <trkpt lat="42.344032" lon="0.912969">
        <ele>806.420707</ele>
        <time>2019-08-22T20:03:54.827Z</time>
      </trkpt>
      <trkpt lat="42.343795" lon="0.913666">
        <ele>803.958629</ele>
        <time>2019-08-22T20:04:00.270Z</time>
      </trkpt>
      <trkpt lat="42.343336" lon="0.914760">
        <ele>799.857730</ele>
        <time>2019-08-22T20:04:09.263Z</time>
      </trkpt>
      <trkpt lat="42.342860" lon="0.915622">
        <ele>796.228492</ele>
        <time>2019-08-22T20:04:16.937Z</time>
      </trkpt>
      <trkpt lat="42.342205" lon="0.916522">
        <ele>791.809718</ele>
        <time>2019-08-22T20:04:25.744Z</time>
      </trkpt>
      <trkpt lat="42.342004" lon="0.916802">
        <ele>790.444175</ele>
        <time>2019-08-22T20:04:28.456Z</time>
      </trkpt>
      <trkpt lat="42.341496" lon="0.917511">
        <ele>787.645629</ele>
        <time>2019-08-22T20:04:35.471Z</time>
      </trkpt>
      <trkpt lat="42.341200" lon="0.918028">
        <ele>785.956230</ele>
        <time>2019-08-22T20:04:40.212Z</time>
      </trkpt>
      <trkpt lat="42.340723" lon="0.919074">
        <ele>782.958843</ele>
        <time>2019-08-22T20:04:49.701Z</time>
      </trkpt>
      <trkpt lat="42.340035" lon="0.920840">
        <ele>779.933141</ele>
        <time>2019-08-22T20:05:06.606Z</time>
      </trkpt>
      <trkpt lat="42.339266" lon="0.921866">
        <ele>776.039131</ele>
        <time>2019-08-22T20:05:17.540Z</time>
      </trkpt>
      <trkpt lat="42.338440" lon="0.922420">
        <ele>772.387457</ele>
        <time>2019-08-22T20:05:26.283Z</time>
      </trkpt>
      <trkpt lat="42.337044" lon="0.923152">
        <ele>765.623834</ele>
        <time>2019-08-22T20:05:40.416Z</time>
      </trkpt>
      <trkpt lat="42.336413" lon="0.923751">
        <ele>763.399388</ele>
        <time>2019-08-22T20:05:48.205Z</time>
      </trkpt>
      <trkpt lat="42.335839" lon="0.924463">
        <ele>761.953700</ele>
        <time>2019-08-22T20:05:56.924Z</time>
      </trkpt>
      <trkpt lat="42.335399" lon="0.925350">
        <ele>760.909843</ele>
        <time>2019-08-22T20:06:07.321Z</time>
      </trkpt>
      <trkpt lat="42.334948" lon="0.926881">
        <ele>760.768708</ele>
        <time>2019-08-22T20:06:25.820Z</time>
      </trkpt>
      <trkpt lat="42.334577" lon="0.927947">
        <ele>760.533208</ele>
        <time>2019-08-22T20:06:38.425Z</time>
      </trkpt>
      <trkpt lat="42.333250" lon="0.929966">
        <ele>759.735569</ele>
        <time>2019-08-22T20:07:04.820Z</time>
      </trkpt>
      <trkpt lat="42.332656" lon="0.931425">
        <ele>759.093361</ele>
        <time>2019-08-22T20:07:21.482Z</time>
      </trkpt>
      <trkpt lat="42.332237" lon="0.932023">
        <ele>758.504775</ele>
        <time>2019-08-22T20:07:29.729Z</time>
      </trkpt>
      <trkpt lat="42.331757" lon="0.932461">
        <ele>757.945263</ele>
        <time>2019-08-22T20:07:36.947Z</time>
      </trkpt>
      <trkpt lat="42.331484" lon="0.932621">
        <ele>757.657755</ele>
        <time>2019-08-22T20:07:40.434Z</time>
      </trkpt>
      <trkpt lat="42.331061" lon="0.932782">
        <ele>756.592742</ele>
        <time>2019-08-22T20:07:45.398Z</time>
      </trkpt>
      <trkpt lat="42.329677" lon="0.933031">
        <ele>752.167112</ele>
        <time>2019-08-22T20:07:59.398Z</time>
      </trkpt>
      <trkpt lat="42.328700" lon="0.933303">
        <ele>748.113742</ele>
        <time>2019-08-22T20:08:08.860Z</time>
      </trkpt>
      <trkpt lat="42.328122" lon="0.933743">
        <ele>745.343702</ele>
        <time>2019-08-22T20:08:15.236Z</time>
      </trkpt>
      <trkpt lat="42.327927" lon="0.933934">
        <ele>744.338183</ele>
        <time>2019-08-22T20:08:17.627Z</time>
      </trkpt>
      <trkpt lat="42.327369" lon="0.934785">
        <ele>742.838596</ele>
        <time>2019-08-22T20:08:26.433Z</time>
      </trkpt>
      <trkpt lat="42.326706" lon="0.936240">
        <ele>740.707477</ele>
        <time>2019-08-22T20:08:43.034Z</time>
      </trkpt>
      <trkpt lat="42.326525" lon="0.936548">
        <ele>740.283959</ele>
        <time>2019-08-22T20:08:46.452Z</time>
      </trkpt>
      <trkpt lat="42.326230" lon="0.936864">
        <ele>739.736068</ele>
        <time>2019-08-22T20:08:50.943Z</time>
      </trkpt>
      <trkpt lat="42.325847" lon="0.937079">
        <ele>739.132310</ele>
        <time>2019-08-22T20:08:55.526Z</time>
      </trkpt>
      <trkpt lat="42.325800" lon="0.937085">
        <ele>739.063576</ele>
        <time>2019-08-22T20:08:56.529Z</time>
      </trkpt>
      <trkpt lat="42.325670" lon="0.937090">
        <ele>738.874222</ele>
        <time>2019-08-22T20:08:57.869Z</time>
      </trkpt>
      <trkpt lat="42.325498" lon="0.936936">
        <ele>738.573898</ele>
        <time>2019-08-22T20:09:00.108Z</time>
      </trkpt>
      <trkpt lat="42.325383" lon="0.936821">
        <ele>738.274114</ele>
        <time>2019-08-22T20:09:01.678Z</time>
      </trkpt>
      <trkpt lat="42.325253" lon="0.936831">
        <ele>737.972797</ele>
        <time>2019-08-22T20:09:03.573Z</time>
      </trkpt>
      <trkpt lat="42.325030" lon="0.936975">
        <ele>737.400962</ele>
        <time>2019-08-22T20:09:07.492Z</time>
      </trkpt>
      <trkpt lat="42.324902" lon="0.937329">
        <ele>736.726755</ele>
        <time>2019-08-22T20:09:11.971Z</time>
      </trkpt>
      <trkpt lat="42.324915" lon="0.937499">
        <ele>736.434351</ele>
        <time>2019-08-22T20:09:13.773Z</time>
      </trkpt>
      <trkpt lat="42.324715" lon="0.937557">
        <ele>735.961015</ele>
        <time>2019-08-22T20:09:16.918Z</time>
      </trkpt>
      <trkpt lat="42.324735" lon="0.937598">
        <ele>735.876976</ele>
        <time>2019-08-22T20:09:17.301Z</time>
      </trkpt>
      <trkpt lat="42.324806" lon="0.937777">
        <ele>735.529436</ele>
        <time>2019-08-22T20:09:18.774Z</time>
      </trkpt>
      <trkpt lat="42.325005" lon="0.938102">
        <ele>734.807464</ele>
        <time>2019-08-22T20:09:21.981Z</time>
      </trkpt>
      <trkpt lat="42.325285" lon="0.938565">
        <ele>735.068977</ele>
        <time>2019-08-22T20:09:26.950Z</time>
      </trkpt>
      <trkpt lat="42.325528" lon="0.938950">
        <ele>736.139192</ele>
        <time>2019-08-22T20:09:31.794Z</time>
      </trkpt>
      <trkpt lat="42.325992" lon="0.939383">
        <ele>737.751172</ele>
        <time>2019-08-22T20:09:48.512Z</time>
      </trkpt>
      <trkpt lat="42.326070" lon="0.939455">
        <ele>738.021208</ele>
        <time>2019-08-22T20:09:51.249Z</time>
      </trkpt>
      <trkpt lat="42.325787" lon="0.939975">
        <ele>739.386295</ele>
        <time>2019-08-22T20:10:12.713Z</time>
      </trkpt>
      <trkpt lat="42.325801" lon="0.940154">
        <ele>740.423857</ele>
        <time>2019-08-22T20:10:19.749Z</time>
      </trkpt>
      <trkpt lat="42.325802" lon="0.940225">
        <ele>740.946578</ele>
        <time>2019-08-22T20:10:21.978Z</time>
      </trkpt>
      <trkpt lat="42.325802" lon="0.940250">
        <ele>741.130601</ele>
        <time>2019-08-22T20:10:22.733Z</time>
      </trkpt>
      <trkpt lat="42.325784" lon="0.940585">
        <ele>743.603018</ele>
        <time>2019-08-22T20:10:36.145Z</time>
      </trkpt>
      <trkpt lat="42.325779" lon="0.940670">
        <ele>744.230675</ele>
        <time>2019-08-22T20:10:39.327Z</time>
      </trkpt>
      <trkpt lat="42.325769" lon="0.940857">
        <ele>745.610766</ele>
        <time>2019-08-22T20:10:46.149Z</time>
      </trkpt>
      <trkpt lat="42.325808" lon="0.941078">
        <ele>747.283232</ele>
        <time>2019-08-22T20:10:59.207Z</time>
      </trkpt>
      <trkpt lat="42.326319" lon="0.941831">
        <ele>754.806948</ele>
        <time>2019-08-22T20:11:49.666Z</time>
      </trkpt>
      <trkpt lat="42.326639" lon="0.942059">
        <ele>758.544785</ele>
        <time>2019-08-22T20:12:13.736Z</time>
      </trkpt>
      <trkpt lat="42.326851" lon="0.942298">
        <ele>761.669230</ele>
        <time>2019-08-22T20:12:27.886Z</time>
      </trkpt>
      <trkpt lat="42.326887" lon="0.942376">
        <ele>762.438860</ele>
        <time>2019-08-22T20:12:35.413Z</time>
      </trkpt>
      <trkpt lat="42.326881" lon="0.942425">
        <ele>762.854574</ele>
        <time>2019-08-22T20:12:36.862Z</time>
      </trkpt>
      <trkpt lat="42.326813" lon="0.942465">
        <ele>763.694067</ele>
        <time>2019-08-22T20:12:41.054Z</time>
      </trkpt>
      <trkpt lat="42.326363" lon="0.942283">
        <ele>769.011488</ele>
        <time>2019-08-22T20:13:17.134Z</time>
      </trkpt>
      <trkpt lat="42.326142" lon="0.942100">
        <ele>771.945104</ele>
        <time>2019-08-22T20:13:40.650Z</time>
      </trkpt>
      <trkpt lat="42.326014" lon="0.942059">
        <ele>773.434300</ele>
        <time>2019-08-22T20:13:50.026Z</time>
      </trkpt>
      <trkpt lat="42.325627" lon="0.942417">
        <ele>779.178294</ele>
        <time>2019-08-22T20:14:34.253Z</time>
      </trkpt>
      <trkpt lat="42.325504" lon="0.942621">
        <ele>782.372355</ele>
        <time>2019-08-22T20:14:51.281Z</time>
      </trkpt>
      <trkpt lat="42.325465" lon="0.942855">
        <ele>785.282911</ele>
        <time>2019-08-22T20:15:05.716Z</time>
      </trkpt>
      <trkpt lat="42.325598" lon="0.942884">
        <ele>787.493865</ele>
        <time>2019-08-22T20:15:26.092Z</time>
      </trkpt>
      <trkpt lat="42.325689" lon="0.943001">
        <ele>789.554417</ele>
        <time>2019-08-22T20:15:42.069Z</time>
      </trkpt>
      <trkpt lat="42.325691" lon="0.943487">
        <ele>795.451509</ele>
        <time>2019-08-22T20:16:34.125Z</time>
      </trkpt>
      <trkpt lat="42.325618" lon="0.943791">
        <ele>799.329856</ele>
        <time>2019-08-22T20:17:11.385Z</time>
      </trkpt>
      <trkpt lat="42.325485" lon="0.944002">
        <ele>802.694266</ele>
        <time>2019-08-22T20:17:41.570Z</time>
      </trkpt>
      <trkpt lat="42.325483" lon="0.944136">
        <ele>804.320525</ele>
        <time>2019-08-22T20:17:58.644Z</time>
      </trkpt>
      <trkpt lat="42.325657" lon="0.944892">
        <ele>815.544867</ele>
        <time>2019-08-22T20:19:35.393Z</time>
      </trkpt>
      <trkpt lat="42.325697" lon="0.945469">
        <ele>824.290167</ele>
        <time>2019-08-22T20:20:43.594Z</time>
      </trkpt>
      <trkpt lat="42.325809" lon="0.945935">
        <ele>831.684483</ele>
        <time>2019-08-22T20:21:42.342Z</time>
      </trkpt>
      <trkpt lat="42.325855" lon="0.946318">
        <ele>837.539822</ele>
        <time>2019-08-22T20:22:29.435Z</time>
      </trkpt>
      <trkpt lat="42.325829" lon="0.946675">
        <ele>842.953122</ele>
        <time>2019-08-22T20:23:13.143Z</time>
      </trkpt>
      <trkpt lat="42.325984" lon="0.947183">
        <ele>851.260000</ele>
        <time>2019-08-22T20:24:20.184Z</time>
      </trkpt>
      <trkpt lat="42.325936" lon="0.947504">
        <ele>856.211511</ele>
        <time>2019-08-22T20:25:00.176Z</time>
      </trkpt>
      <trkpt lat="42.326121" lon="0.947863">
        <ele>862.827658</ele>
        <time>2019-08-22T20:25:53.514Z</time>
      </trkpt>
      <trkpt lat="42.326082" lon="0.948297">
        <ele>869.437636</ele>
        <time>2019-08-22T20:26:46.567Z</time>
      </trkpt>
      <trkpt lat="42.326118" lon="0.948840">
        <ele>877.680246</ele>
        <time>2019-08-22T20:27:51.790Z</time>
      </trkpt>
      <trkpt lat="42.326272" lon="0.949666">
        <ele>887.148623</ele>
        <time>2019-08-22T20:29:31.053Z</time>
      </trkpt>
      <trkpt lat="42.326261" lon="0.950010">
        <ele>890.537724</ele>
        <time>2019-08-22T20:30:08.838Z</time>
      </trkpt>
      <trkpt lat="42.326323" lon="0.950600">
        <ele>896.403362</ele>
        <time>2019-08-22T20:31:07.261Z</time>
      </trkpt>
      <trkpt lat="42.326421" lon="0.950882">
        <ele>899.470384</ele>
        <time>2019-08-22T20:31:36.182Z</time>
      </trkpt>
      <trkpt lat="42.326433" lon="0.951094">
        <ele>901.563166</ele>
        <time>2019-08-22T20:31:53.282Z</time>
      </trkpt>
      <trkpt lat="42.326362" lon="0.951269">
        <ele>903.527974</ele>
        <time>2019-08-22T20:32:12.638Z</time>
      </trkpt>
      <trkpt lat="42.326404" lon="0.951307">
        <ele>904.200696</ele>
        <time>2019-08-22T20:32:14.072Z</time>
      </trkpt>
      <trkpt lat="42.326565" lon="0.951480">
        <ele>904.522690</ele>
        <time>2019-08-22T20:32:25.897Z</time>
      </trkpt>
      <trkpt lat="42.326690" lon="0.951436">
        <ele>904.360072</ele>
        <time>2019-08-22T20:32:33.809Z</time>
      </trkpt>
      <trkpt lat="42.326952" lon="0.950928">
        <ele>903.783536</ele>
        <time>2019-08-22T20:32:51.516Z</time>
      </trkpt>
      <trkpt lat="42.326877" lon="0.950745">
        <ele>903.588778</ele>
        <time>2019-08-22T20:32:57.711Z</time>
      </trkpt>
      <trkpt lat="42.326506" lon="0.950481">
        <ele>903.060990</ele>
        <time>2019-08-22T20:33:10.606Z</time>
      </trkpt>
      <trkpt lat="42.326483" lon="0.950355">
        <ele>902.940186</ele>
        <time>2019-08-22T20:33:12.934Z</time>
      </trkpt>
      <trkpt lat="42.326528" lon="0.950303">
        <ele>902.865670</ele>
        <time>2019-08-22T20:33:14.441Z</time>
      </trkpt>
      <trkpt lat="42.326830" lon="0.950174">
        <ele>902.466941</ele>
        <time>2019-08-22T20:33:22.512Z</time>
      </trkpt>
      <trkpt lat="42.326932" lon="0.950198">
        <ele>901.440124</ele>
        <time>2019-08-22T20:33:25.117Z</time>
      </trkpt>
      <trkpt lat="42.327352" lon="0.950621">
        <ele>896.244476</ele>
        <time>2019-08-22T20:33:38.201Z</time>
      </trkpt>
      <trkpt lat="42.327457" lon="0.951068">
        <ele>892.803956</ele>
        <time>2019-08-22T20:33:46.735Z</time>
      </trkpt>
      <trkpt lat="42.327553" lon="0.951014">
        <ele>891.772346</ele>
        <time>2019-08-22T20:33:49.231Z</time>
      </trkpt>
      <trkpt lat="42.327624" lon="0.950824">
        <ele>890.210673</ele>
        <time>2019-08-22T20:33:53.059Z</time>
      </trkpt>
      <trkpt lat="42.327490" lon="0.950267">
        <ele>885.913901</ele>
        <time>2019-08-22T20:34:03.551Z</time>
      </trkpt>
      <trkpt lat="42.327553" lon="0.950152">
        <ele>884.863956</ele>
        <time>2019-08-22T20:34:06.086Z</time>
      </trkpt>
      <trkpt lat="42.327699" lon="0.950080">
        <ele>883.119411</ele>
        <time>2019-08-22T20:34:09.806Z</time>
      </trkpt>
      <trkpt lat="42.327782" lon="0.949891">
        <ele>881.255188</ele>
        <time>2019-08-22T20:34:13.707Z</time>
      </trkpt>
      <trkpt lat="42.327881" lon="0.949850">
        <ele>880.067558</ele>
        <time>2019-08-22T20:34:16.177Z</time>
      </trkpt>
      <trkpt lat="42.328306" lon="0.949992">
        <ele>875.046008</ele>
        <time>2019-08-22T20:34:26.569Z</time>
      </trkpt>
      <trkpt lat="42.328656" lon="0.949866">
        <ele>870.891523</ele>
        <time>2019-08-22T20:34:35.227Z</time>
      </trkpt>
      <trkpt lat="42.328971" lon="0.949853">
        <ele>867.276587</ele>
        <time>2019-08-22T20:34:42.768Z</time>
      </trkpt>
      <trkpt lat="42.329044" lon="0.949940">
        <ele>866.160579</ele>
        <time>2019-08-22T20:34:45.123Z</time>
      </trkpt>
      <trkpt lat="42.329348" lon="0.950714">
        <ele>860.343227</ele>
        <time>2019-08-22T20:35:00.978Z</time>
      </trkpt>
      <trkpt lat="42.329748" lon="0.951019">
        <ele>856.693200</ele>
        <time>2019-08-22T20:35:12.457Z</time>
      </trkpt>
      <trkpt lat="42.329768" lon="0.951079">
        <ele>856.306418</ele>
        <time>2019-08-22T20:35:13.716Z</time>
      </trkpt>
      <trkpt lat="42.329640" lon="0.951195">
        <ele>855.081685</ele>
        <time>2019-08-22T20:35:17.663Z</time>
      </trkpt>
      <trkpt lat="42.329614" lon="0.951318">
        <ele>854.329892</ele>
        <time>2019-08-22T20:35:20.122Z</time>
      </trkpt>
      <trkpt lat="42.329799" lon="0.951746">
        <ele>851.416336</ele>
        <time>2019-08-22T20:35:29.855Z</time>
      </trkpt>
      <trkpt lat="42.330071" lon="0.952150">
        <ele>848.969005</ele>
        <time>2019-08-22T20:35:40.916Z</time>
      </trkpt>
      <trkpt lat="42.330221" lon="0.952471">
        <ele>847.884403</ele>
        <time>2019-08-22T20:35:48.834Z</time>
      </trkpt>
      <trkpt lat="42.330397" lon="0.952658">
        <ele>847.019773</ele>
        <time>2019-08-22T20:35:55.309Z</time>
      </trkpt>
      <trkpt lat="42.330661" lon="0.953069">
        <ele>845.464725</ele>
        <time>2019-08-22T20:36:07.228Z</time>
      </trkpt>
      <trkpt lat="42.330982" lon="0.953091">
        <ele>844.222994</ele>
        <time>2019-08-22T20:36:16.981Z</time>
      </trkpt>
      <trkpt lat="42.331469" lon="0.953217">
        <ele>841.930555</ele>
        <time>2019-08-22T20:36:32.184Z</time>
      </trkpt>
      <trkpt lat="42.331611" lon="0.953506">
        <ele>840.080847</ele>
        <time>2019-08-22T20:36:39.093Z</time>
      </trkpt>
      <trkpt lat="42.331761" lon="0.953583">
        <ele>838.924022</ele>
        <time>2019-08-22T20:36:43.388Z</time>
      </trkpt>
      <trkpt lat="42.332719" lon="0.953503">
        <ele>832.003276</ele>
        <time>2019-08-22T20:37:07.998Z</time>
      </trkpt>
      <trkpt lat="42.332810" lon="0.953533">
        <ele>831.327922</ele>
        <time>2019-08-22T20:37:10.334Z</time>
      </trkpt>
      <trkpt lat="42.332853" lon="0.953633">
        <ele>830.711279</ele>
        <time>2019-08-22T20:37:12.298Z</time>
      </trkpt>
      <trkpt lat="42.332991" lon="0.953927">
        <ele>828.333517</ele>
        <time>2019-08-22T20:37:18.803Z</time>
      </trkpt>
      <trkpt lat="42.333098" lon="0.954021">
        <ele>826.891305</ele>
        <time>2019-08-22T20:37:21.773Z</time>
      </trkpt>
      <trkpt lat="42.333277" lon="0.953965">
        <ele>824.814478</ele>
        <time>2019-08-22T20:37:26.324Z</time>
      </trkpt>
      <trkpt lat="42.333490" lon="0.953654">
        <ele>821.271711</ele>
        <time>2019-08-22T20:37:33.760Z</time>
      </trkpt>
      <trkpt lat="42.334447" lon="0.954114">
        <ele>809.791145</ele>
        <time>2019-08-22T20:37:57.875Z</time>
      </trkpt>
      <trkpt lat="42.334716" lon="0.954388">
        <ele>806.903655</ele>
        <time>2019-08-22T20:38:06.202Z</time>
      </trkpt>
      <trkpt lat="42.334910" lon="0.954855">
        <ele>803.617257</ele>
        <time>2019-08-22T20:38:16.087Z</time>
      </trkpt>
      <trkpt lat="42.335312" lon="0.955330">
        <ele>799.187547</ele>
        <time>2019-08-22T20:38:29.559Z</time>
      </trkpt>
      <trkpt lat="42.335361" lon="0.955579">
        <ele>797.606768</ele>
        <time>2019-08-22T20:38:34.516Z</time>
      </trkpt>
      <trkpt lat="42.335289" lon="0.955813">
        <ele>796.051819</ele>
        <time>2019-08-22T20:38:39.428Z</time>
      </trkpt>
      <trkpt lat="42.335475" lon="0.955979">
        <ele>794.336976</ele>
        <time>2019-08-22T20:38:45.424Z</time>
      </trkpt>
      <trkpt lat="42.335504" lon="0.955996">
        <ele>794.187769</ele>
        <time>2019-08-22T20:38:46.212Z</time>
      </trkpt>
      <trkpt lat="42.336248" lon="0.956317">
        <ele>790.501113</ele>
        <time>2019-08-22T20:39:07.696Z</time>
      </trkpt>
      <trkpt lat="42.336645" lon="0.956677">
        <ele>788.244816</ele>
        <time>2019-08-22T20:39:21.124Z</time>
      </trkpt>
      <trkpt lat="42.337227" lon="0.957321">
        <ele>785.280087</ele>
        <time>2019-08-22T20:39:42.556Z</time>
      </trkpt>
      <trkpt lat="42.337873" lon="0.957897">
        <ele>783.236249</ele>
        <time>2019-08-22T20:40:05.839Z</time>
      </trkpt>
      <trkpt lat="42.338469" lon="0.957599">
        <ele>781.557724</ele>
        <time>2019-08-22T20:40:25.394Z</time>
      </trkpt>
      <trkpt lat="42.338665" lon="0.957686">
        <ele>781.386918</ele>
        <time>2019-08-22T20:40:32.104Z</time>
      </trkpt>
      <trkpt lat="42.338942" lon="0.957620">
        <ele>781.717365</ele>
        <time>2019-08-22T20:40:41.503Z</time>
      </trkpt>
      <trkpt lat="42.339158" lon="0.957494">
        <ele>781.993722</ele>
        <time>2019-08-22T20:40:50.516Z</time>
      </trkpt>
      <trkpt lat="42.339477" lon="0.957325">
        <ele>782.396217</ele>
        <time>2019-08-22T20:41:04.299Z</time>
      </trkpt>
      <trkpt lat="42.339744" lon="0.957172">
        <ele>782.736886</ele>
        <time>2019-08-22T20:41:12.278Z</time>
      </trkpt>
      <trkpt lat="42.339853" lon="0.957225">
        <ele>782.872966</ele>
        <time>2019-08-22T20:41:15.315Z</time>
      </trkpt>
      <trkpt lat="42.339931" lon="0.957263">
        <ele>782.970367</ele>
        <time>2019-08-22T20:41:17.596Z</time>
      </trkpt>
      <trkpt lat="42.340111" lon="0.957329">
        <ele>783.189472</ele>
        <time>2019-08-22T20:41:23.946Z</time>
      </trkpt>
      <trkpt lat="42.340090" lon="0.957425">
        <ele>783.276414</ele>
        <time>2019-08-22T20:41:25.775Z</time>
      </trkpt>
      <trkpt lat="42.340089" lon="0.957575">
        <ele>783.503220</ele>
        <time>2019-08-22T20:41:28.659Z</time>
      </trkpt>
      <trkpt lat="42.340103" lon="0.957634">
        <ele>783.795738</ele>
        <time>2019-08-22T20:41:30.944Z</time>
      </trkpt>
      <trkpt lat="42.340163" lon="0.957809">
        <ele>784.706395</ele>
        <time>2019-08-22T20:41:34.877Z</time>
      </trkpt>
      <trkpt lat="42.340307" lon="0.957998">
        <ele>785.987718</ele>
        <time>2019-08-22T20:41:41.570Z</time>
      </trkpt>
      <trkpt lat="42.342020" lon="0.959996">
        <ele>801.862655</ele>
        <time>2019-08-22T20:43:22.111Z</time>
      </trkpt>
      <trkpt lat="42.342618" lon="0.960703">
        <ele>808.239373</ele>
        <time>2019-08-22T20:44:03.004Z</time>
      </trkpt>
      <trkpt lat="42.342865" lon="0.960968">
        <ele>809.314292</ele>
        <time>2019-08-22T20:44:17.336Z</time>
      </trkpt>
      <trkpt lat="42.342912" lon="0.961036">
        <ele>809.314292</ele>
        <time>2019-08-22T20:44:21.098Z</time>
      </trkpt>
      <trkpt lat="42.343145" lon="0.961317">
        <ele>809.314292</ele>
        <time>2019-08-22T20:44:34.277Z</time>
      </trkpt>
      <trkpt lat="42.343515" lon="0.961743">
        <ele>809.314292</ele>
        <time>2019-08-22T20:44:53.749Z</time>
      </trkpt>
      <trkpt lat="42.300454" lon="1.036160">
        <ele>566.533807</ele>
        <time>2019-08-22T10:38:43.183Z</time>
      </trkpt>
      <trkpt lat="42.301687" lon="1.038070">
        <ele>568.971953</ele>
        <time>2019-08-22T10:39:33.860Z</time>
      </trkpt>
      <trkpt lat="42.302211" lon="1.039439">
        <ele>571.290668</ele>
        <time>2019-08-22T10:40:00.082Z</time>
      </trkpt>
      <trkpt lat="42.302416" lon="1.040688">
        <ele>572.073930</ele>
        <time>2019-08-22T10:40:16.471Z</time>
      </trkpt>
      <trkpt lat="42.302416" lon="1.041551">
        <ele>572.566378</ele>
        <time>2019-08-22T10:40:26.521Z</time>
      </trkpt>
      <trkpt lat="42.301889" lon="1.043558">
        <ele>573.321683</ele>
        <time>2019-08-22T10:40:52.596Z</time>
      </trkpt>
      <trkpt lat="42.301978" lon="1.044642">
        <ele>574.116301</ele>
        <time>2019-08-22T10:41:07.527Z</time>
      </trkpt>
      <trkpt lat="42.302358" lon="1.045569">
        <ele>574.958015</ele>
        <time>2019-08-22T10:41:22.399Z</time>
      </trkpt>
      <trkpt lat="42.303558" lon="1.047576">
        <ele>577.914754</ele>
        <time>2019-08-22T10:42:02.061Z</time>
      </trkpt>
      <trkpt lat="42.304649" lon="1.049099">
        <ele>581.580879</ele>
        <time>2019-08-22T10:42:41.010Z</time>
      </trkpt>
      <trkpt lat="42.304978" lon="1.049635">
        <ele>582.792726</ele>
        <time>2019-08-22T10:42:54.409Z</time>
      </trkpt>
      <trkpt lat="42.305168" lon="1.050235">
        <ele>583.610383</ele>
        <time>2019-08-22T10:43:06.685Z</time>
      </trkpt>
      <trkpt lat="42.305705" lon="1.052525">
        <ele>585.071299</ele>
        <time>2019-08-22T10:43:42.174Z</time>
      </trkpt>
      <trkpt lat="42.305719" lon="1.052821">
        <ele>584.798275</ele>
        <time>2019-08-22T10:43:46.041Z</time>
      </trkpt>
      <trkpt lat="42.305769" lon="1.053355">
        <ele>584.302806</ele>
        <time>2019-08-22T10:43:52.489Z</time>
      </trkpt>
      <trkpt lat="42.305782" lon="1.054318">
        <ele>583.292429</ele>
        <time>2019-08-22T10:44:03.078Z</time>
      </trkpt>
      <trkpt lat="42.305907" lon="1.055022">
        <ele>581.485520</ele>
        <time>2019-08-22T10:44:10.638Z</time>
      </trkpt>
      <trkpt lat="42.306096" lon="1.055691">
        <ele>579.698220</ele>
        <time>2019-08-22T10:44:18.039Z</time>
      </trkpt>
      <trkpt lat="42.306237" lon="1.056020">
        <ele>578.749230</ele>
        <time>2019-08-22T10:44:22.071Z</time>
      </trkpt>
      <trkpt lat="42.306389" lon="1.056123">
        <ele>578.175487</ele>
        <time>2019-08-22T10:44:24.546Z</time>
      </trkpt>
      <trkpt lat="42.307331" lon="1.056487">
        <ele>576.845846</ele>
        <time>2019-08-22T10:44:39.917Z</time>
      </trkpt>
      <trkpt lat="42.307868" lon="1.056622">
        <ele>576.431555</ele>
        <time>2019-08-22T10:44:50.484Z</time>
      </trkpt>
      <trkpt lat="42.308221" lon="1.056788">
        <ele>576.148078</ele>
        <time>2019-08-22T10:44:59.033Z</time>
      </trkpt>
      <trkpt lat="42.308771" lon="1.057461">
        <ele>576.690464</ele>
        <time>2019-08-22T10:45:17.232Z</time>
      </trkpt>
      <trkpt lat="42.308839" lon="1.057662">
        <ele>576.858488</ele>
        <time>2019-08-22T10:45:21.071Z</time>
      </trkpt>
      <trkpt lat="42.308896" lon="1.057546">
        <ele>576.964359</ele>
        <time>2019-08-22T10:45:25.954Z</time>
      </trkpt>
      <trkpt lat="42.309030" lon="1.057792">
        <ele>577.196614</ele>
        <time>2019-08-22T10:45:30.025Z</time>
      </trkpt>
      <trkpt lat="42.309517" lon="1.059661">
        <ele>578.607998</ele>
        <time>2019-08-22T10:45:57.848Z</time>
      </trkpt>
      <trkpt lat="42.309856" lon="1.060312">
        <ele>579.141337</ele>
        <time>2019-08-22T10:46:07.638Z</time>
      </trkpt>
      <trkpt lat="42.310056" lon="1.060533">
        <ele>579.375290</ele>
        <time>2019-08-22T10:46:12.123Z</time>
      </trkpt>
      <trkpt lat="42.310193" lon="1.060684">
        <ele>579.539204</ele>
        <time>2019-08-22T10:46:15.450Z</time>
      </trkpt>
      <trkpt lat="42.310470" lon="1.060925">
        <ele>580.261826</ele>
        <time>2019-08-22T10:46:22.356Z</time>
      </trkpt>
      <trkpt lat="42.310755" lon="1.061078">
        <ele>580.934552</ele>
        <time>2019-08-22T10:46:29.417Z</time>
      </trkpt>
      <trkpt lat="42.311202" lon="1.061163">
        <ele>581.924864</ele>
        <time>2019-08-22T10:46:40.420Z</time>
      </trkpt>
      <trkpt lat="42.311501" lon="1.061149">
        <ele>582.581227</ele>
        <time>2019-08-22T10:46:48.006Z</time>
      </trkpt>
      <trkpt lat="42.311715" lon="1.061092">
        <ele>583.059738</ele>
        <time>2019-08-22T10:46:53.751Z</time>
      </trkpt>
      <trkpt lat="42.312011" lon="1.060943">
        <ele>583.773250</ele>
        <time>2019-08-22T10:47:02.221Z</time>
      </trkpt>
      <trkpt lat="42.313343" lon="1.060041">
        <ele>587.287072</ele>
        <time>2019-08-22T10:47:39.997Z</time>
      </trkpt>
      <trkpt lat="42.313717" lon="1.059930">
        <ele>587.798410</ele>
        <time>2019-08-22T10:47:47.378Z</time>
      </trkpt>
      <trkpt lat="42.314248" lon="1.059878">
        <ele>588.004869</ele>
        <time>2019-08-22T10:47:56.669Z</time>
      </trkpt>
      <trkpt lat="42.316603" lon="1.060003">
        <ele>588.423519</ele>
        <time>2019-08-22T10:48:30.225Z</time>
      </trkpt>
      <trkpt lat="42.317169" lon="1.059973">
        <ele>588.477951</ele>
        <time>2019-08-22T10:48:39.167Z</time>
      </trkpt>
      <trkpt lat="42.317554" lon="1.060098">
        <ele>588.842155</ele>
        <time>2019-08-22T10:48:45.860Z</time>
      </trkpt>
      <trkpt lat="42.318175" lon="1.060502">
        <ele>589.476036</ele>
        <time>2019-08-22T10:48:58.483Z</time>
      </trkpt>
      <trkpt lat="42.319609" lon="1.062302">
        <ele>591.855401</ele>
        <time>2019-08-22T10:49:37.931Z</time>
      </trkpt>
      <trkpt lat="42.320267" lon="1.062608">
        <ele>592.858383</ele>
        <time>2019-08-22T10:49:52.349Z</time>
      </trkpt>
      <trkpt lat="42.320843" lon="1.062739">
        <ele>593.812085</ele>
        <time>2019-08-22T10:50:04.780Z</time>
      </trkpt>
      <trkpt lat="42.321647" lon="1.063159">
        <ele>595.219383</ele>
        <time>2019-08-22T10:50:23.497Z</time>
      </trkpt>
      <trkpt lat="42.321857" lon="1.063282">
        <ele>595.555295</ele>
        <time>2019-08-22T10:50:28.383Z</time>
      </trkpt>
      <trkpt lat="42.322642" lon="1.063748">
        <ele>596.514039</ele>
        <time>2019-08-22T10:50:46.966Z</time>
      </trkpt>
      <trkpt lat="42.322832" lon="1.063903">
        <ele>596.762186</ele>
        <time>2019-08-22T10:50:51.337Z</time>
      </trkpt>
      <trkpt lat="42.323217" lon="1.064369">
        <ele>597.339989</ele>
        <time>2019-08-22T10:51:00.187Z</time>
      </trkpt>
      <trkpt lat="42.323278" lon="1.064443">
        <ele>597.431629</ele>
        <time>2019-08-22T10:51:01.267Z</time>
      </trkpt>
      <trkpt lat="42.323429" lon="1.064656">
        <ele>597.367323</ele>
        <time>2019-08-22T10:51:04.756Z</time>
      </trkpt>
      <trkpt lat="42.323506" lon="1.064793">
        <ele>597.279792</ele>
        <time>2019-08-22T10:51:06.587Z</time>
      </trkpt>
      <trkpt lat="42.323619" lon="1.064927">
        <ele>597.176406</ele>
        <time>2019-08-22T10:51:08.670Z</time>
      </trkpt>
      <trkpt lat="42.323772" lon="1.065041">
        <ele>597.056236</ele>
        <time>2019-08-22T10:51:11.357Z</time>
      </trkpt>
      <trkpt lat="42.324027" lon="1.065284">
        <ele>596.841642</ele>
        <time>2019-08-22T10:51:15.392Z</time>
      </trkpt>
      <trkpt lat="42.324074" lon="1.065331">
        <ele>596.801431</ele>
        <time>2019-08-22T10:51:16.128Z</time>
      </trkpt>
      <trkpt lat="42.324101" lon="1.065358">
        <ele>596.778331</ele>
        <time>2019-08-22T10:51:16.493Z</time>
      </trkpt>
      <trkpt lat="42.324181" lon="1.065407">
        <ele>596.717915</ele>
        <time>2019-08-22T10:51:17.531Z</time>
      </trkpt>
      <trkpt lat="42.324195" lon="1.065415">
        <ele>596.707459</ele>
        <time>2019-08-22T10:51:17.738Z</time>
      </trkpt>
      <trkpt lat="42.324841" lon="1.065642">
        <ele>596.248293</ele>
        <time>2019-08-22T10:51:25.687Z</time>
      </trkpt>
      <trkpt lat="42.325156" lon="1.065870">
        <ele>595.838933</ele>
        <time>2019-08-22T10:51:29.685Z</time>
      </trkpt>
      <trkpt lat="42.325589" lon="1.066291">
        <ele>595.226999</ele>
        <time>2019-08-22T10:51:35.720Z</time>
      </trkpt>
      <trkpt lat="42.325996" lon="1.066570">
        <ele>594.703400</ele>
        <time>2019-08-22T10:51:41.527Z</time>
      </trkpt>
      <trkpt lat="42.326100" lon="1.066644">
        <ele>594.568551</ele>
        <time>2019-08-22T10:51:43.090Z</time>
      </trkpt>
      <trkpt lat="42.326566" lon="1.067011">
        <ele>594.120836</ele>
        <time>2019-08-22T10:51:49.781Z</time>
      </trkpt>
      <trkpt lat="42.326602" lon="1.067041">
        <ele>594.107844</ele>
        <time>2019-08-22T10:51:50.231Z</time>
      </trkpt>
      <trkpt lat="42.326667" lon="1.067091">
        <ele>594.084869</ele>
        <time>2019-08-22T10:51:51.719Z</time>
      </trkpt>
      <trkpt lat="42.327211" lon="1.067330">
        <ele>593.909126</ele>
        <time>2019-08-22T10:51:58.829Z</time>
      </trkpt>
      <trkpt lat="42.327337" lon="1.067379">
        <ele>593.868844</ele>
        <time>2019-08-22T10:52:00.687Z</time>
      </trkpt>
      <trkpt lat="42.327439" lon="1.067417">
        <ele>593.836337</ele>
        <time>2019-08-22T10:52:02.083Z</time>
      </trkpt>
      <trkpt lat="42.327526" lon="1.067448">
        <ele>593.808694</ele>
        <time>2019-08-22T10:52:03.399Z</time>
      </trkpt>
      <trkpt lat="42.327555" lon="1.067453">
        <ele>593.799711</ele>
        <time>2019-08-22T10:52:03.703Z</time>
      </trkpt>
      <trkpt lat="42.327917" lon="1.067413">
        <ele>593.688114</ele>
        <time>2019-08-22T10:52:09.287Z</time>
      </trkpt>
      <trkpt lat="42.328247" lon="1.067581">
        <ele>593.863243</ele>
        <time>2019-08-22T10:52:15.286Z</time>
      </trkpt>
      <trkpt lat="42.328361" lon="1.067638">
        <ele>594.033574</ele>
        <time>2019-08-22T10:52:17.516Z</time>
      </trkpt>
      <trkpt lat="42.328519" lon="1.067713">
        <ele>594.268241</ele>
        <time>2019-08-22T10:52:20.717Z</time>
      </trkpt>
      <trkpt lat="42.329397" lon="1.068148">
        <ele>595.578651</ele>
        <time>2019-08-22T10:52:39.385Z</time>
      </trkpt>
      <trkpt lat="42.329739" lon="1.068216">
        <ele>596.063095</ele>
        <time>2019-08-22T10:52:47.506Z</time>
      </trkpt>
      <trkpt lat="42.330140" lon="1.068204">
        <ele>597.208227</ele>
        <time>2019-08-22T10:52:57.968Z</time>
      </trkpt>
      <trkpt lat="42.330775" lon="1.067975">
        <ele>599.262611</ele>
        <time>2019-08-22T10:53:15.604Z</time>
      </trkpt>
      <trkpt lat="42.331657" lon="1.067336">
        <ele>602.679242</ele>
        <time>2019-08-22T10:53:43.522Z</time>
      </trkpt>
      <trkpt lat="42.332200" lon="1.066904">
        <ele>605.571684</ele>
        <time>2019-08-22T10:54:05.306Z</time>
      </trkpt>
      <trkpt lat="42.332379" lon="1.066760">
        <ele>606.527926</ele>
        <time>2019-08-22T10:54:13.411Z</time>
      </trkpt>
      <trkpt lat="42.332439" lon="1.066703">
        <ele>606.864569</ele>
        <time>2019-08-22T10:54:15.589Z</time>
      </trkpt>
      <trkpt lat="42.332523" lon="1.066625">
        <ele>607.332384</ele>
        <time>2019-08-22T10:54:18.648Z</time>
      </trkpt>
      <trkpt lat="42.332642" lon="1.066514">
        <ele>607.996083</ele>
        <time>2019-08-22T10:54:22.926Z</time>
      </trkpt>
      <trkpt lat="42.332668" lon="1.066489">
        <ele>608.142549</ele>
        <time>2019-08-22T10:54:26.361Z</time>
      </trkpt>
      <trkpt lat="42.333705" lon="1.065636">
        <ele>612.071660</ele>
        <time>2019-08-22T10:55:04.383Z</time>
      </trkpt>
      <trkpt lat="42.334203" lon="1.065290">
        <ele>613.494978</ele>
        <time>2019-08-22T10:55:19.443Z</time>
      </trkpt>
      <trkpt lat="42.334363" lon="1.065270">
        <ele>613.903487</ele>
        <time>2019-08-22T10:55:22.013Z</time>
      </trkpt>
      <trkpt lat="42.335166" lon="1.064900">
        <ele>613.927408</ele>
        <time>2019-08-22T10:55:37.941Z</time>
      </trkpt>
      <trkpt lat="42.335866" lon="1.064713">
        <ele>613.081948</ele>
        <time>2019-08-22T10:55:48.654Z</time>
      </trkpt>
      <trkpt lat="42.336696" lon="1.064804">
        <ele>612.872061</ele>
        <time>2019-08-22T10:56:03.498Z</time>
      </trkpt>
      <trkpt lat="42.336886" lon="1.064933">
        <ele>613.136549</ele>
        <time>2019-08-22T10:56:07.836Z</time>
      </trkpt>
      <trkpt lat="42.337046" lon="1.065173">
        <ele>613.433775</ele>
        <time>2019-08-22T10:56:13.824Z</time>
      </trkpt>
      <trkpt lat="42.337081" lon="1.066223">
        <ele>614.400406</ele>
        <time>2019-08-22T10:56:36.204Z</time>
      </trkpt>
      <trkpt lat="42.337112" lon="1.066358">
        <ele>614.530413</ele>
        <time>2019-08-22T10:56:39.539Z</time>
      </trkpt>
      <trkpt lat="42.337126" lon="1.066420">
        <ele>614.590034</ele>
        <time>2019-08-22T10:56:41.693Z</time>
      </trkpt>
      <trkpt lat="42.337065" lon="1.067227">
        <ele>615.553968</ele>
        <time>2019-08-22T10:56:59.148Z</time>
      </trkpt>
      <trkpt lat="42.337061" lon="1.067980">
        <ele>616.488271</ele>
        <time>2019-08-22T10:57:15.868Z</time>
      </trkpt>
      <trkpt lat="42.337061" lon="1.068102">
        <ele>616.639641</ele>
        <time>2019-08-22T10:57:17.931Z</time>
      </trkpt>
      <trkpt lat="42.337090" lon="1.068353">
        <ele>616.954848</ele>
        <time>2019-08-22T10:57:23.660Z</time>
      </trkpt>
      <trkpt lat="42.337189" lon="1.068455">
        <ele>617.163725</ele>
        <time>2019-08-22T10:57:26.532Z</time>
      </trkpt>
      <trkpt lat="42.337793" lon="1.068566">
        <ele>617.614730</ele>
        <time>2019-08-22T10:57:39.199Z</time>
      </trkpt>
      <trkpt lat="42.339434" lon="1.068512">
        <ele>616.979645</ele>
        <time>2019-08-22T10:58:08.775Z</time>
      </trkpt>
      <trkpt lat="42.340082" lon="1.068909">
        <ele>617.094840</ele>
        <time>2019-08-22T10:58:22.247Z</time>
      </trkpt>
      <trkpt lat="42.340492" lon="1.069151">
        <ele>617.167279</ele>
        <time>2019-08-22T10:58:31.504Z</time>
      </trkpt>
      <trkpt lat="42.341194" lon="1.069619">
        <ele>617.711920</ele>
        <time>2019-08-22T10:58:46.028Z</time>
      </trkpt>
      <trkpt lat="42.341874" lon="1.069914">
        <ele>618.988468</ele>
        <time>2019-08-22T10:59:01.735Z</time>
      </trkpt>
      <trkpt lat="42.342367" lon="1.069857">
        <ele>619.872977</ele>
        <time>2019-08-22T10:59:13.463Z</time>
      </trkpt>
      <trkpt lat="42.343305" lon="1.069124">
        <ele>621.423140</ele>
        <time>2019-08-22T10:59:39.405Z</time>
      </trkpt>
      <trkpt lat="42.343886" lon="1.068273">
        <ele>622.513187</ele>
        <time>2019-08-22T10:59:55.222Z</time>
      </trkpt>
      <trkpt lat="42.344401" lon="1.067851">
        <ele>624.208039</ele>
        <time>2019-08-22T11:00:03.090Z</time>
      </trkpt>
      <trkpt lat="42.344911" lon="1.067673">
        <ele>626.070412</ele>
        <time>2019-08-22T11:00:12.621Z</time>
      </trkpt>
      <trkpt lat="42.345420" lon="1.067730">
        <ele>627.876367</ele>
        <time>2019-08-22T11:00:26.751Z</time>
      </trkpt>
      <trkpt lat="42.345849" lon="1.067787">
        <ele>630.145035</ele>
        <time>2019-08-22T11:00:48.083Z</time>
      </trkpt>
      <trkpt lat="42.346554" lon="1.068058">
        <ele>639.547092</ele>
        <time>2019-08-22T11:01:39.002Z</time>
      </trkpt>
      <trkpt lat="42.347606" lon="1.068435">
        <ele>652.295021</ele>
        <time>2019-08-22T11:03:09.347Z</time>
      </trkpt>
      <trkpt lat="42.348621" lon="1.069002">
        <ele>653.404246</ele>
        <time>2019-08-22T11:03:58.659Z</time>
      </trkpt>
      <trkpt lat="42.349471" lon="1.069629">
        <ele>649.323938</ele>
        <time>2019-08-22T11:04:10.172Z</time>
      </trkpt>
      <trkpt lat="42.350284" lon="1.070387">
        <ele>636.831337</ele>
        <time>2019-08-22T11:04:21.659Z</time>
      </trkpt>
      <trkpt lat="42.350505" lon="1.070675">
        <ele>632.949010</ele>
        <time>2019-08-22T11:04:24.233Z</time>
      </trkpt>
      <trkpt lat="42.351709" lon="1.072250">
        <ele>623.814140</ele>
        <time>2019-08-22T11:04:39.914Z</time>
      </trkpt>
      <trkpt lat="42.352123" lon="1.072967">
        <ele>622.689489</ele>
        <time>2019-08-22T11:04:51.837Z</time>
      </trkpt>
      <trkpt lat="42.352765" lon="1.073710">
        <ele>622.938692</ele>
        <time>2019-08-22T11:05:06.358Z</time>
      </trkpt>
      <trkpt lat="42.353470" lon="1.074116">
        <ele>623.377062</ele>
        <time>2019-08-22T11:05:19.843Z</time>
      </trkpt>
      <trkpt lat="42.354150" lon="1.074347">
        <ele>624.241255</ele>
        <time>2019-08-22T11:05:33.059Z</time>
      </trkpt>
      <trkpt lat="42.356337" lon="1.074834">
        <ele>627.625477</ele>
        <time>2019-08-22T11:06:20.447Z</time>
      </trkpt>
      <trkpt lat="42.358334" lon="1.076085">
        <ele>631.561932</ele>
        <time>2019-08-22T11:07:10.065Z</time>
      </trkpt>
      <trkpt lat="42.358919" lon="1.077049">
        <ele>632.640373</ele>
        <time>2019-08-22T11:07:27.251Z</time>
      </trkpt>
      <trkpt lat="42.359332" lon="1.078386">
        <ele>633.801434</ele>
        <time>2019-08-22T11:07:47.906Z</time>
      </trkpt>
      <trkpt lat="42.359372" lon="1.078517">
        <ele>633.882213</ele>
        <time>2019-08-22T11:07:49.978Z</time>
      </trkpt>
      <trkpt lat="42.359439" lon="1.078733">
        <ele>634.015717</ele>
        <time>2019-08-22T11:07:52.962Z</time>
      </trkpt>
      <trkpt lat="42.359460" lon="1.078815">
        <ele>634.065176</ele>
        <time>2019-08-22T11:07:54.309Z</time>
      </trkpt>
      <trkpt lat="42.359522" lon="1.079204">
        <ele>634.291965</ele>
        <time>2019-08-22T11:07:59.686Z</time>
      </trkpt>
      <trkpt lat="42.359561" lon="1.079570">
        <ele>634.502705</ele>
        <time>2019-08-22T11:08:04.851Z</time>
      </trkpt>
      <trkpt lat="42.359583" lon="1.079843">
        <ele>634.659209</ele>
        <time>2019-08-22T11:08:08.367Z</time>
      </trkpt>
      <trkpt lat="42.359579" lon="1.080158">
        <ele>634.838753</ele>
        <time>2019-08-22T11:08:12.224Z</time>
      </trkpt>
      <trkpt lat="42.359519" lon="1.080650">
        <ele>635.084578</ele>
        <time>2019-08-22T11:08:18.391Z</time>
      </trkpt>
      <trkpt lat="42.359493" lon="1.080797">
        <ele>635.096082</ele>
        <time>2019-08-22T11:08:20.494Z</time>
      </trkpt>
      <trkpt lat="42.359437" lon="1.081101">
        <ele>635.119927</ele>
        <time>2019-08-22T11:08:24.759Z</time>
      </trkpt>
      <trkpt lat="42.359315" lon="1.082003">
        <ele>635.189715</ele>
        <time>2019-08-22T11:08:34.532Z</time>
      </trkpt>
      <trkpt lat="42.359328" lon="1.082488">
        <ele>635.226652</ele>
        <time>2019-08-22T11:08:39.544Z</time>
      </trkpt>
      <trkpt lat="42.359464" lon="1.083057">
        <ele>635.353324</ele>
        <time>2019-08-22T11:08:45.703Z</time>
      </trkpt>
      <trkpt lat="42.359529" lon="1.083203">
        <ele>635.493963</ele>
        <time>2019-08-22T11:08:47.225Z</time>
      </trkpt>
      <trkpt lat="42.359655" lon="1.083490">
        <ele>635.769407</ele>
        <time>2019-08-22T11:08:51.568Z</time>
      </trkpt>
      <trkpt lat="42.359838" lon="1.083834">
        <ele>636.119141</ele>
        <time>2019-08-22T11:08:57.186Z</time>
      </trkpt>
      <trkpt lat="42.359885" lon="1.083924">
        <ele>636.210072</ele>
        <time>2019-08-22T11:08:58.547Z</time>
      </trkpt>
      <trkpt lat="42.360101" lon="1.084371">
        <ele>636.650747</ele>
        <time>2019-08-22T11:09:06.574Z</time>
      </trkpt>
      <trkpt lat="42.360224" lon="1.084724">
        <ele>636.972760</ele>
        <time>2019-08-22T11:09:13.339Z</time>
      </trkpt>
      <trkpt lat="42.360315" lon="1.085074">
        <ele>637.283826</ele>
        <time>2019-08-22T11:09:19.757Z</time>
      </trkpt>
      <trkpt lat="42.360335" lon="1.085150">
        <ele>637.400085</ele>
        <time>2019-08-22T11:09:21.340Z</time>
      </trkpt>
      <trkpt lat="42.360382" lon="1.085435">
        <ele>637.820894</ele>
        <time>2019-08-22T11:09:26.608Z</time>
      </trkpt>
      <trkpt lat="42.360450" lon="1.085849">
        <ele>638.432056</ele>
        <time>2019-08-22T11:09:34.034Z</time>
      </trkpt>
      <trkpt lat="42.360607" lon="1.086843">
        <ele>639.896832</ele>
        <time>2019-08-22T11:09:51.667Z</time>
      </trkpt>
      <trkpt lat="42.361112" lon="1.088586">
        <ele>641.840862</ele>
        <time>2019-08-22T11:10:19.969Z</time>
      </trkpt>
      <trkpt lat="42.361276" lon="1.090035">
        <ele>643.033412</ele>
        <time>2019-08-22T11:10:39.331Z</time>
      </trkpt>
      <trkpt lat="42.361357" lon="1.090344">
        <ele>643.261961</ele>
        <time>2019-08-22T11:10:43.810Z</time>
      </trkpt>
      <trkpt lat="42.361768" lon="1.091259">
        <ele>644.008386</ele>
        <time>2019-08-22T11:10:58.850Z</time>
      </trkpt>
      <trkpt lat="42.363198" lon="1.094027">
        <ele>646.180124</ele>
        <time>2019-08-22T11:11:45.636Z</time>
      </trkpt>
      <trkpt lat="42.364106" lon="1.095519">
        <ele>646.673093</ele>
        <time>2019-08-22T11:12:07.412Z</time>
      </trkpt>
      <trkpt lat="42.365734" lon="1.097707">
        <ele>647.847186</ele>
        <time>2019-08-22T11:12:45.839Z</time>
      </trkpt>
      <trkpt lat="42.366326" lon="1.099195">
        <ele>648.879674</ele>
        <time>2019-08-22T11:13:09.284Z</time>
      </trkpt>
      <trkpt lat="42.366485" lon="1.100680">
        <ele>649.777707</ele>
        <time>2019-08-22T11:13:29.415Z</time>
      </trkpt>
      <trkpt lat="42.367129" lon="1.102100">
        <ele>650.846572</ele>
        <time>2019-08-22T11:13:51.146Z</time>
      </trkpt>
      <trkpt lat="42.367680" lon="1.103805">
        <ele>652.363362</ele>
        <time>2019-08-22T11:14:17.933Z</time>
      </trkpt>
      <trkpt lat="42.368108" lon="1.104399">
        <ele>653.220541</ele>
        <time>2019-08-22T11:14:30.539Z</time>
      </trkpt>
      <trkpt lat="42.368522" lon="1.104872">
        <ele>654.034829</ele>
        <time>2019-08-22T11:14:41.690Z</time>
      </trkpt>
      <trkpt lat="42.369123" lon="1.105244">
        <ele>655.028102</ele>
        <time>2019-08-22T11:14:55.642Z</time>
      </trkpt>
      <trkpt lat="42.369610" lon="1.105677">
        <ele>656.146310</ele>
        <time>2019-08-22T11:15:08.043Z</time>
      </trkpt>
      <trkpt lat="42.371400" lon="1.107960">
        <ele>661.813647</ele>
        <time>2019-08-22T11:16:06.589Z</time>
      </trkpt>
      <trkpt lat="42.372029" lon="1.108595">
        <ele>663.884637</ele>
        <time>2019-08-22T11:16:28.106Z</time>
      </trkpt>
      <trkpt lat="42.372532" lon="1.108935">
        <ele>665.491649</ele>
        <time>2019-08-22T11:16:43.926Z</time>
      </trkpt>
      <trkpt lat="42.373270" lon="1.109171">
        <ele>667.659127</ele>
        <time>2019-08-22T11:17:04.606Z</time>
      </trkpt>
      <trkpt lat="42.374157" lon="1.109763">
        <ele>669.539917</ele>
        <time>2019-08-22T11:17:27.254Z</time>
      </trkpt>
      <trkpt lat="42.375009" lon="1.110511">
        <ele>670.833202</ele>
        <time>2019-08-22T11:17:45.301Z</time>
      </trkpt>
      <trkpt lat="42.375915" lon="1.111733">
        <ele>672.629386</ele>
        <time>2019-08-22T11:18:08.906Z</time>
      </trkpt>
      <trkpt lat="42.376412" lon="1.112045">
        <ele>673.410990</ele>
        <time>2019-08-22T11:18:21.604Z</time>
      </trkpt>
      <trkpt lat="42.376699" lon="1.112122">
        <ele>673.823400</ele>
        <time>2019-08-22T11:18:28.774Z</time>
      </trkpt>
      <trkpt lat="42.376753" lon="1.112130">
        <ele>673.898876</ele>
        <time>2019-08-22T11:18:30.458Z</time>
      </trkpt>
      <trkpt lat="42.376984" lon="1.112165">
        <ele>674.221834</ele>
        <time>2019-08-22T11:18:35.980Z</time>
      </trkpt>
      <trkpt lat="42.377210" lon="1.112166">
        <ele>674.535842</ele>
        <time>2019-08-22T11:18:41.549Z</time>
      </trkpt>
      <trkpt lat="42.377674" lon="1.112050">
        <ele>675.191429</ele>
        <time>2019-08-22T11:18:52.226Z</time>
      </trkpt>
      <trkpt lat="42.377925" lon="1.111961">
        <ele>675.551936</ele>
        <time>2019-08-22T11:18:58.174Z</time>
      </trkpt>
      <trkpt lat="42.378211" lon="1.111871">
        <ele>675.959903</ele>
        <time>2019-08-22T11:19:02.717Z</time>
      </trkpt>
      <trkpt lat="42.378534" lon="1.111738">
        <ele>675.621580</ele>
        <time>2019-08-22T11:19:06.929Z</time>
      </trkpt>
      <trkpt lat="42.378871" lon="1.111632">
        <ele>674.779646</ele>
        <time>2019-08-22T11:19:10.817Z</time>
      </trkpt>
      <trkpt lat="42.379329" lon="1.111583">
        <ele>673.661631</ele>
        <time>2019-08-22T11:19:15.599Z</time>
      </trkpt>
      <trkpt lat="42.379507" lon="1.111608">
        <ele>673.226144</ele>
        <time>2019-08-22T11:19:17.335Z</time>
      </trkpt>
      <trkpt lat="42.379710" lon="1.111651">
        <ele>672.726133</ele>
        <time>2019-08-22T11:19:19.384Z</time>
      </trkpt>
      <trkpt lat="42.380278" lon="1.111974">
        <ele>671.424138</ele>
        <time>2019-08-22T11:19:25.515Z</time>
      </trkpt>
      <trkpt lat="42.380458" lon="1.112155">
        <ele>671.080914</ele>
        <time>2019-08-22T11:19:27.764Z</time>
      </trkpt>
      <trkpt lat="42.380531" lon="1.112228">
        <ele>670.941991</ele>
        <time>2019-08-22T11:19:28.747Z</time>
      </trkpt>
      <trkpt lat="42.381217" lon="1.113177">
        <ele>669.440630</ele>
        <time>2019-08-22T11:19:40.031Z</time>
      </trkpt>
      <trkpt lat="42.381419" lon="1.113464">
        <ele>669.016750</ele>
        <time>2019-08-22T11:19:44.615Z</time>
      </trkpt>
      <trkpt lat="42.382180" lon="1.114508">
        <ele>670.480236</ele>
        <time>2019-08-22T11:20:08.431Z</time>
      </trkpt>
      <trkpt lat="42.382296" lon="1.114655">
        <ele>670.694864</ele>
        <time>2019-08-22T11:20:12.138Z</time>
      </trkpt>
      <trkpt lat="42.382545" lon="1.114953">
        <ele>671.143794</ele>
        <time>2019-08-22T11:20:19.454Z</time>
      </trkpt>
      <trkpt lat="42.383056" lon="1.115513">
        <ele>671.495735</ele>
        <time>2019-08-22T11:20:32.140Z</time>
      </trkpt>
      <trkpt lat="42.383098" lon="1.115559">
        <ele>671.503170</ele>
        <time>2019-08-22T11:20:33.066Z</time>
      </trkpt>
      <trkpt lat="42.383432" lon="1.115910">
        <ele>671.561361</ele>
        <time>2019-08-22T11:20:40.197Z</time>
      </trkpt>
      <trkpt lat="42.383706" lon="1.116162">
        <ele>671.606948</ele>
        <time>2019-08-22T11:20:45.275Z</time>
      </trkpt>
      <trkpt lat="42.384204" lon="1.116469">
        <ele>671.682256</ele>
        <time>2019-08-22T11:20:52.275Z</time>
      </trkpt>
      <trkpt lat="42.384588" lon="1.116591">
        <ele>671.046202</ele>
        <time>2019-08-22T11:20:56.640Z</time>
      </trkpt>
      <trkpt lat="42.385387" lon="1.116701">
        <ele>669.745956</ele>
        <time>2019-08-22T11:21:05.533Z</time>
      </trkpt>
      <trkpt lat="42.385733" lon="1.116758">
        <ele>669.181653</ele>
        <time>2019-08-22T11:21:09.511Z</time>
      </trkpt>
      <trkpt lat="42.385810" lon="1.116779">
        <ele>669.054486</ele>
        <time>2019-08-22T11:21:10.310Z</time>
      </trkpt>
      <trkpt lat="42.386156" lon="1.116899">
        <ele>668.631442</ele>
        <time>2019-08-22T11:21:14.453Z</time>
      </trkpt>
      <trkpt lat="42.386501" lon="1.117107">
        <ele>668.342550</ele>
        <time>2019-08-22T11:21:18.919Z</time>
      </trkpt>
      <trkpt lat="42.387025" lon="1.117653">
        <ele>667.836751</ele>
        <time>2019-08-22T11:21:27.214Z</time>
      </trkpt>
      <trkpt lat="42.387087" lon="1.117745">
        <ele>667.766386</ele>
        <time>2019-08-22T11:21:28.256Z</time>
      </trkpt>
      <trkpt lat="42.387136" lon="1.117822">
        <ele>667.708961</ele>
        <time>2019-08-22T11:21:29.435Z</time>
      </trkpt>
      <trkpt lat="42.387519" lon="1.118640">
        <ele>667.558697</ele>
        <time>2019-08-22T11:21:40.373Z</time>
      </trkpt>
      <trkpt lat="42.387577" lon="1.118792">
        <ele>667.626824</ele>
        <time>2019-08-22T11:21:42.376Z</time>
      </trkpt>
      <trkpt lat="42.387679" lon="1.119060">
        <ele>667.746879</ele>
        <time>2019-08-22T11:21:46.062Z</time>
      </trkpt>
      <trkpt lat="42.387851" lon="1.119603">
        <ele>667.982149</ele>
        <time>2019-08-22T11:21:53.534Z</time>
      </trkpt>
      <trkpt lat="42.387873" lon="1.119689">
        <ele>668.018391</ele>
        <time>2019-08-22T11:21:54.678Z</time>
      </trkpt>
      <trkpt lat="42.387895" lon="1.119787">
        <ele>668.059177</ele>
        <time>2019-08-22T11:21:56.276Z</time>
      </trkpt>
      <trkpt lat="42.388135" lon="1.121217">
        <ele>668.892729</ele>
        <time>2019-08-22T11:22:15.987Z</time>
      </trkpt>
      <trkpt lat="42.388315" lon="1.121716">
        <ele>669.311829</ele>
        <time>2019-08-22T11:22:23.828Z</time>
      </trkpt>
      <trkpt lat="42.388544" lon="1.122124">
        <ele>669.698557</ele>
        <time>2019-08-22T11:22:30.978Z</time>
      </trkpt>
      <trkpt lat="42.388942" lon="1.122572">
        <ele>670.232052</ele>
        <time>2019-08-22T11:22:40.987Z</time>
      </trkpt>
      <trkpt lat="42.390060" lon="1.123323">
        <ele>671.741233</ele>
        <time>2019-08-22T11:23:06.059Z</time>
      </trkpt>
      <trkpt lat="42.390578" lon="1.123857">
        <ele>672.538355</ele>
        <time>2019-08-22T11:23:18.741Z</time>
      </trkpt>
      <trkpt lat="42.390691" lon="1.123999">
        <ele>672.736894</ele>
        <time>2019-08-22T11:23:21.984Z</time>
      </trkpt>
      <trkpt lat="42.390930" lon="1.124327">
        <ele>673.175136</ele>
        <time>2019-08-22T11:23:27.912Z</time>
      </trkpt>
      <trkpt lat="42.391083" lon="1.124545">
        <ele>673.461168</ele>
        <time>2019-08-22T11:23:31.497Z</time>
      </trkpt>
      <trkpt lat="42.391157" lon="1.124653">
        <ele>673.601287</ele>
        <time>2019-08-22T11:23:33.509Z</time>
      </trkpt>
      <trkpt lat="42.391169" lon="1.124702">
        <ele>673.650387</ele>
        <time>2019-08-22T11:23:34.745Z</time>
      </trkpt>
      <trkpt lat="42.391488" lon="1.125140">
        <ele>674.235461</ele>
        <time>2019-08-22T11:23:43.520Z</time>
      </trkpt>
      <trkpt lat="42.391801" lon="1.125451">
        <ele>674.773554</ele>
        <time>2019-08-22T11:23:52.728Z</time>
      </trkpt>
      <trkpt lat="42.391874" lon="1.125508">
        <ele>674.980582</ele>
        <time>2019-08-22T11:23:54.472Z</time>
      </trkpt>
      <trkpt lat="42.391921" lon="1.125536">
        <ele>675.106732</ele>
        <time>2019-08-22T11:23:55.113Z</time>
      </trkpt>
      <trkpt lat="42.392235" lon="1.125694">
        <ele>675.929702</ele>
        <time>2019-08-22T11:24:03.588Z</time>
      </trkpt>
      <trkpt lat="42.392289" lon="1.125714">
        <ele>676.067240</ele>
        <time>2019-08-22T11:24:04.332Z</time>
      </trkpt>
      <trkpt lat="42.392349" lon="1.125734">
        <ele>676.219047</ele>
        <time>2019-08-22T11:24:06.025Z</time>
      </trkpt>
      <trkpt lat="42.392719" lon="1.125788">
        <ele>677.133313</ele>
        <time>2019-08-22T11:24:15.265Z</time>
      </trkpt>
      <trkpt lat="42.392781" lon="1.125785">
        <ele>677.285730</ele>
        <time>2019-08-22T11:24:17.322Z</time>
      </trkpt>
      <trkpt lat="42.392844" lon="1.125777">
        <ele>677.441185</ele>
        <time>2019-08-22T11:24:19.627Z</time>
      </trkpt>
      <trkpt lat="42.393113" lon="1.125730">
        <ele>678.107532</ele>
        <time>2019-08-22T11:24:25.275Z</time>
      </trkpt>
      <trkpt lat="42.393140" lon="1.125700">
        <ele>678.193339</ele>
        <time>2019-08-22T11:24:26.814Z</time>
      </trkpt>
      <trkpt lat="42.393250" lon="1.125682">
        <ele>678.465549</ele>
        <time>2019-08-22T11:24:30.051Z</time>
      </trkpt>
      <trkpt lat="42.393890" lon="1.125576">
        <ele>679.634617</ele>
        <time>2019-08-22T11:24:46.482Z</time>
      </trkpt>
      <trkpt lat="42.394416" lon="1.125658">
        <ele>680.359516</ele>
        <time>2019-08-22T11:24:59.008Z</time>
      </trkpt>
      <trkpt lat="42.398268" lon="1.127399">
        <ele>682.099560</ele>
        <time>2019-08-22T11:26:02.656Z</time>
      </trkpt>
      <trkpt lat="42.398657" lon="1.127629">
        <ele>682.152103</ele>
        <time>2019-08-22T11:26:08.749Z</time>
      </trkpt>
      <trkpt lat="42.399580" lon="1.128801">
        <ele>682.122401</ele>
        <time>2019-08-22T11:26:26.889Z</time>
      </trkpt>
      <trkpt lat="42.400055" lon="1.129848">
        <ele>682.453102</ele>
        <time>2019-08-22T11:26:40.676Z</time>
      </trkpt>
      <trkpt lat="42.400434" lon="1.130508">
        <ele>683.018873</ele>
        <time>2019-08-22T11:26:51.287Z</time>
      </trkpt>
      <trkpt lat="42.400985" lon="1.130956">
        <ele>683.607820</ele>
        <time>2019-08-22T11:27:04.077Z</time>
      </trkpt>
      <trkpt lat="42.401294" lon="1.131045">
        <ele>684.150283</ele>
        <time>2019-08-22T11:27:11.034Z</time>
      </trkpt>
      <trkpt lat="42.401621" lon="1.131053">
        <ele>684.994727</ele>
        <time>2019-08-22T11:27:18.743Z</time>
      </trkpt>
      <trkpt lat="42.402243" lon="1.130911">
        <ele>686.623376</ele>
        <time>2019-08-22T11:27:34.969Z</time>
      </trkpt>
      <trkpt lat="42.402715" lon="1.130681">
        <ele>687.918563</ele>
        <time>2019-08-22T11:27:48.556Z</time>
      </trkpt>
      <trkpt lat="42.403358" lon="1.130259">
        <ele>689.626349</ele>
        <time>2019-08-22T11:28:08.422Z</time>
      </trkpt>
      <trkpt lat="42.404470" lon="1.129405">
        <ele>692.579803</ele>
        <time>2019-08-22T11:28:38.777Z</time>
      </trkpt>
      <trkpt lat="42.404998" lon="1.129129">
        <ele>692.687653</ele>
        <time>2019-08-22T11:28:48.300Z</time>
      </trkpt>
      <trkpt lat="42.405539" lon="1.128896">
        <ele>692.795833</ele>
        <time>2019-08-22T11:28:56.500Z</time>
      </trkpt>
      <trkpt lat="42.405758" lon="1.128820">
        <ele>692.838913</ele>
        <time>2019-08-22T11:28:59.537Z</time>
      </trkpt>
      <trkpt lat="42.406099" lon="1.128673">
        <ele>692.907106</ele>
        <time>2019-08-22T11:29:04.279Z</time>
      </trkpt>
      <trkpt lat="42.406652" lon="1.128449">
        <ele>692.821462</ele>
        <time>2019-08-22T11:29:11.942Z</time>
      </trkpt>
      <trkpt lat="42.406822" lon="1.128371">
        <ele>692.785867</ele>
        <time>2019-08-22T11:29:14.700Z</time>
      </trkpt>
      <trkpt lat="42.407256" lon="1.128285">
        <ele>692.698886</ele>
        <time>2019-08-22T11:29:21.539Z</time>
      </trkpt>
      <trkpt lat="42.407565" lon="1.128176">
        <ele>692.635565</ele>
        <time>2019-08-22T11:29:26.488Z</time>
      </trkpt>
      <trkpt lat="42.408052" lon="1.127736">
        <ele>692.276534</ele>
        <time>2019-08-22T11:29:34.409Z</time>
      </trkpt>
      <trkpt lat="42.408293" lon="1.127518">
        <ele>691.909302</ele>
        <time>2019-08-22T11:29:38.044Z</time>
      </trkpt>
      <trkpt lat="42.408405" lon="1.127424">
        <ele>691.742341</ele>
        <time>2019-08-22T11:29:39.560Z</time>
      </trkpt>
      <trkpt lat="42.408757" lon="1.127195">
        <ele>691.247516</ele>
        <time>2019-08-22T11:29:43.992Z</time>
      </trkpt>
      <trkpt lat="42.409143" lon="1.127207">
        <ele>690.758269</ele>
        <time>2019-08-22T11:29:48.447Z</time>
      </trkpt>
      <trkpt lat="42.409227" lon="1.127242">
        <ele>690.646905</ele>
        <time>2019-08-22T11:29:49.415Z</time>
      </trkpt>
      <trkpt lat="42.409300" lon="1.127285">
        <ele>690.546034</ele>
        <time>2019-08-22T11:29:50.294Z</time>
      </trkpt>
      <trkpt lat="42.409664" lon="1.127667">
        <ele>690.028408</ele>
        <time>2019-08-22T11:29:55.572Z</time>
      </trkpt>
      <trkpt lat="42.409708" lon="1.127735">
        <ele>689.961074</ele>
        <time>2019-08-22T11:29:56.256Z</time>
      </trkpt>
      <trkpt lat="42.409792" lon="1.127874">
        <ele>689.827309</ele>
        <time>2019-08-22T11:29:57.697Z</time>
      </trkpt>
      <trkpt lat="42.409882" lon="1.128020">
        <ele>689.685671</ele>
        <time>2019-08-22T11:29:59.403Z</time>
      </trkpt>
      <trkpt lat="42.409914" lon="1.128075">
        <ele>689.633524</ele>
        <time>2019-08-22T11:30:00.042Z</time>
      </trkpt>
      <trkpt lat="42.409937" lon="1.128112">
        <ele>689.597506</ele>
        <time>2019-08-22T11:30:00.438Z</time>
      </trkpt>
      <trkpt lat="42.410006" lon="1.128230">
        <ele>689.485411</ele>
        <time>2019-08-22T11:30:01.731Z</time>
      </trkpt>
      <trkpt lat="42.410277" lon="1.128695">
        <ele>689.044251</ele>
        <time>2019-08-22T11:30:06.692Z</time>
      </trkpt>
      <trkpt lat="42.410299" lon="1.128733">
        <ele>689.008291</ele>
        <time>2019-08-22T11:30:07.182Z</time>
      </trkpt>
      <trkpt lat="42.410754" lon="1.129488">
        <ele>688.716395</ele>
        <time>2019-08-22T11:30:17.813Z</time>
      </trkpt>
      <trkpt lat="42.410939" lon="1.129798">
        <ele>689.101901</ele>
        <time>2019-08-22T11:30:23.375Z</time>
      </trkpt>
      <trkpt lat="42.410954" lon="1.129825">
        <ele>689.134580</ele>
        <time>2019-08-22T11:30:23.656Z</time>
      </trkpt>
      <trkpt lat="42.411090" lon="1.130115">
        <ele>689.466846</ele>
        <time>2019-08-22T11:30:28.610Z</time>
      </trkpt>
      <trkpt lat="42.411350" lon="1.130566">
        <ele>690.020241</ele>
        <time>2019-08-22T11:30:36.868Z</time>
      </trkpt>
      <trkpt lat="42.411372" lon="1.130608">
        <ele>690.070045</ele>
        <time>2019-08-22T11:30:37.470Z</time>
      </trkpt>
      <trkpt lat="42.411503" lon="1.130841">
        <ele>690.353286</ele>
        <time>2019-08-22T11:30:43.525Z</time>
      </trkpt>
      <trkpt lat="42.411605" lon="1.131013">
        <ele>690.566648</ele>
        <time>2019-08-22T11:30:46.579Z</time>
      </trkpt>
      <trkpt lat="42.411738" lon="1.131284">
        <ele>690.940920</ele>
        <time>2019-08-22T11:30:53.165Z</time>
      </trkpt>
      <trkpt lat="42.411844" lon="1.131502">
        <ele>691.471696</ele>
        <time>2019-08-22T11:30:57.400Z</time>
      </trkpt>
      <trkpt lat="42.411876" lon="1.131571">
        <ele>691.637384</ele>
        <time>2019-08-22T11:30:59.771Z</time>
      </trkpt>
      <trkpt lat="42.411925" lon="1.131663">
        <ele>691.868052</ele>
        <time>2019-08-22T11:31:01.439Z</time>
      </trkpt>
      <trkpt lat="42.411969" lon="1.131734">
        <ele>692.056539</ele>
        <time>2019-08-22T11:31:02.747Z</time>
      </trkpt>
      <trkpt lat="42.412017" lon="1.131800">
        <ele>692.244918</ele>
        <time>2019-08-22T11:31:04.249Z</time>
      </trkpt>
      <trkpt lat="42.412073" lon="1.131862">
        <ele>692.444118</ele>
        <time>2019-08-22T11:31:06.247Z</time>
      </trkpt>
      <trkpt lat="42.412138" lon="1.131927">
        <ele>692.666639</ele>
        <time>2019-08-22T11:31:09.236Z</time>
      </trkpt>
      <trkpt lat="42.412195" lon="1.131979">
        <ele>692.855911</ele>
        <time>2019-08-22T11:31:10.715Z</time>
      </trkpt>
      <trkpt lat="42.412256" lon="1.132028">
        <ele>693.051235</ele>
        <time>2019-08-22T11:31:12.202Z</time>
      </trkpt>
      <trkpt lat="42.412314" lon="1.132066">
        <ele>693.228679</ele>
        <time>2019-08-22T11:31:13.730Z</time>
      </trkpt>
      <trkpt lat="42.412344" lon="1.132084">
        <ele>693.319046</ele>
        <time>2019-08-22T11:31:14.541Z</time>
      </trkpt>
      <trkpt lat="42.412368" lon="1.132098">
        <ele>693.391014</ele>
        <time>2019-08-22T11:31:15.279Z</time>
      </trkpt>
      <trkpt lat="42.412436" lon="1.132138">
        <ele>693.595192</ele>
        <time>2019-08-22T11:31:18.561Z</time>
      </trkpt>
      <trkpt lat="42.413882" lon="1.132674">
        <ele>696.298708</ele>
        <time>2019-08-22T11:31:56.693Z</time>
      </trkpt>
      <trkpt lat="42.414216" lon="1.132690">
        <ele>696.543957</ele>
        <time>2019-08-22T11:32:02.047Z</time>
      </trkpt>
      <trkpt lat="42.414537" lon="1.132603">
        <ele>696.784182</ele>
        <time>2019-08-22T11:32:06.662Z</time>
      </trkpt>
      <trkpt lat="42.414580" lon="1.132587">
        <ele>696.816905</ele>
        <time>2019-08-22T11:32:07.233Z</time>
      </trkpt>
      <trkpt lat="42.414689" lon="1.132540">
        <ele>696.900847</ele>
        <time>2019-08-22T11:32:08.500Z</time>
      </trkpt>
      <trkpt lat="42.415503" lon="1.132232">
        <ele>696.271622</ele>
        <time>2019-08-22T11:32:18.658Z</time>
      </trkpt>
      <trkpt lat="42.416035" lon="1.132170">
        <ele>695.498332</ele>
        <time>2019-08-22T11:32:24.450Z</time>
      </trkpt>
      <trkpt lat="42.416418" lon="1.132207">
        <ele>694.942261</ele>
        <time>2019-08-22T11:32:28.725Z</time>
      </trkpt>
      <trkpt lat="42.416490" lon="1.132223">
        <ele>694.836597</ele>
        <time>2019-08-22T11:32:29.542Z</time>
      </trkpt>
      <trkpt lat="42.416601" lon="1.132245">
        <ele>694.674135</ele>
        <time>2019-08-22T11:32:30.843Z</time>
      </trkpt>
      <trkpt lat="42.416753" lon="1.132277">
        <ele>694.494787</ele>
        <time>2019-08-22T11:32:32.769Z</time>
      </trkpt>
      <trkpt lat="42.416861" lon="1.132293">
        <ele>694.490305</ele>
        <time>2019-08-22T11:32:34.110Z</time>
      </trkpt>
      <trkpt lat="42.416946" lon="1.132300">
        <ele>694.486792</ele>
        <time>2019-08-22T11:32:35.183Z</time>
      </trkpt>
      <trkpt lat="42.417026" lon="1.132304">
        <ele>694.483490</ele>
        <time>2019-08-22T11:32:36.190Z</time>
      </trkpt>
      <trkpt lat="42.417186" lon="1.132358">
        <ele>694.476687</ele>
        <time>2019-08-22T11:32:38.385Z</time>
      </trkpt>
      <trkpt lat="42.417281" lon="1.132424">
        <ele>694.472283</ele>
        <time>2019-08-22T11:32:39.811Z</time>
      </trkpt>
      <trkpt lat="42.417303" lon="1.132475">
        <ele>694.470484</ele>
        <time>2019-08-22T11:32:40.344Z</time>
      </trkpt>
      <trkpt lat="42.417329" lon="1.132506">
        <ele>694.469055</ele>
        <time>2019-08-22T11:32:40.882Z</time>
      </trkpt>
      <trkpt lat="42.417368" lon="1.132530">
        <ele>694.467288</ele>
        <time>2019-08-22T11:32:41.442Z</time>
      </trkpt>
      <trkpt lat="42.417413" lon="1.132534">
        <ele>694.465427</ele>
        <time>2019-08-22T11:32:42.157Z</time>
      </trkpt>
      <trkpt lat="42.417455" lon="1.132517">
        <ele>694.463619</ele>
        <time>2019-08-22T11:32:42.826Z</time>
      </trkpt>
      <trkpt lat="42.417595" lon="1.132518">
        <ele>694.457844</ele>
        <time>2019-08-22T11:32:44.807Z</time>
      </trkpt>
      <trkpt lat="42.417742" lon="1.132523">
        <ele>694.451777</ele>
        <time>2019-08-22T11:32:46.954Z</time>
      </trkpt>
      <trkpt lat="42.417997" lon="1.132574">
        <ele>694.441144</ele>
        <time>2019-08-22T11:32:51.009Z</time>
      </trkpt>
      <trkpt lat="42.418306" lon="1.132563">
        <ele>694.428392</ele>
        <time>2019-08-22T11:32:56.544Z</time>
      </trkpt>
      <trkpt lat="42.418980" lon="1.132807">
        <ele>695.533394</ele>
        <time>2019-08-22T11:33:10.070Z</time>
      </trkpt>
      <trkpt lat="42.420297" lon="1.133543">
        <ele>698.561140</ele>
        <time>2019-08-22T11:33:44.902Z</time>
      </trkpt>
      <trkpt lat="42.420519" lon="1.133605">
        <ele>699.153738</ele>
        <time>2019-08-22T11:33:51.604Z</time>
      </trkpt>
      <trkpt lat="42.420959" lon="1.133616">
        <ele>700.304261</ele>
        <time>2019-08-22T11:34:03.554Z</time>
      </trkpt>
      <trkpt lat="42.421484" lon="1.133565">
        <ele>701.680334</ele>
        <time>2019-08-22T11:34:17.178Z</time>
      </trkpt>
      <trkpt lat="42.421904" lon="1.133424">
        <ele>702.811589</ele>
        <time>2019-08-22T11:34:27.783Z</time>
      </trkpt>
      <trkpt lat="42.422016" lon="1.133386">
        <ele>702.919106</ele>
        <time>2019-08-22T11:34:30.170Z</time>
      </trkpt>
      <trkpt lat="42.422926" lon="1.132957">
        <ele>703.703791</ele>
        <time>2019-08-22T11:34:50.022Z</time>
      </trkpt>
      <trkpt lat="42.423164" lon="1.132823">
        <ele>703.913689</ele>
        <time>2019-08-22T11:34:53.911Z</time>
      </trkpt>
      <trkpt lat="42.423506" lon="1.132639">
        <ele>704.213371</ele>
        <time>2019-08-22T11:34:58.676Z</time>
      </trkpt>
      <trkpt lat="42.423956" lon="1.132358">
        <ele>704.338538</ele>
        <time>2019-08-22T11:35:05.059Z</time>
      </trkpt>
      <trkpt lat="42.424115" lon="1.132268">
        <ele>704.357152</ele>
        <time>2019-08-22T11:35:07.472Z</time>
      </trkpt>
      <trkpt lat="42.424358" lon="1.132162">
        <ele>704.384727</ele>
        <time>2019-08-22T11:35:10.891Z</time>
      </trkpt>
      <trkpt lat="42.424591" lon="1.132138">
        <ele>704.409968</ele>
        <time>2019-08-22T11:35:14.332Z</time>
      </trkpt>
      <trkpt lat="42.425679" lon="1.132274">
        <ele>704.775811</ele>
        <time>2019-08-22T11:35:33.600Z</time>
      </trkpt>
      <trkpt lat="42.426074" lon="1.132129">
        <ele>705.110334</ele>
        <time>2019-08-22T11:35:41.870Z</time>
      </trkpt>
      <trkpt lat="42.426684" lon="1.131550">
        <ele>705.719162</ele>
        <time>2019-08-22T11:35:56.332Z</time>
      </trkpt>
      <trkpt lat="42.427062" lon="1.131235">
        <ele>705.970980</ele>
        <time>2019-08-22T11:36:03.736Z</time>
      </trkpt>
      <trkpt lat="42.427145" lon="1.131177">
        <ele>705.977572</ele>
        <time>2019-08-22T11:36:04.832Z</time>
      </trkpt>
      <trkpt lat="42.427798" lon="1.130839">
        <ele>706.026916</ele>
        <time>2019-08-22T11:36:13.883Z</time>
      </trkpt>
      <trkpt lat="42.428363" lon="1.130850">
        <ele>706.066802</ele>
        <time>2019-08-22T11:36:22.859Z</time>
      </trkpt>
      <trkpt lat="42.428660" lon="1.130991">
        <ele>706.120410</ele>
        <time>2019-08-22T11:36:27.841Z</time>
      </trkpt>
      <trkpt lat="42.428726" lon="1.131022">
        <ele>706.224575</ele>
        <time>2019-08-22T11:36:28.929Z</time>
      </trkpt>
      <trkpt lat="42.428990" lon="1.131241">
        <ele>706.686184</ele>
        <time>2019-08-22T11:36:34.456Z</time>
      </trkpt>
      <trkpt lat="42.429226" lon="1.131507">
        <ele>707.143968</ele>
        <time>2019-08-22T11:36:40.688Z</time>
      </trkpt>
      <trkpt lat="42.429815" lon="1.132234">
        <ele>708.332123</ele>
        <time>2019-08-22T11:36:57.624Z</time>
      </trkpt>
      <trkpt lat="42.430181" lon="1.132538">
        <ele>708.993023</ele>
        <time>2019-08-22T11:37:09.585Z</time>
      </trkpt>
      <trkpt lat="42.431566" lon="1.132927">
        <ele>711.317846</ele>
        <time>2019-08-22T11:37:39.911Z</time>
      </trkpt>
      <trkpt lat="42.431989" lon="1.133099">
        <ele>711.849406</ele>
        <time>2019-08-22T11:37:47.690Z</time>
      </trkpt>
      <trkpt lat="42.432415" lon="1.133129">
        <ele>712.121895</ele>
        <time>2019-08-22T11:37:55.108Z</time>
      </trkpt>
      <trkpt lat="42.432801" lon="1.133015">
        <ele>712.374256</ele>
        <time>2019-08-22T11:38:01.883Z</time>
      </trkpt>
      <trkpt lat="42.433105" lon="1.132802">
        <ele>712.592875</ele>
        <time>2019-08-22T11:38:07.703Z</time>
      </trkpt>
      <trkpt lat="42.433783" lon="1.131877">
        <ele>712.982670</ele>
        <time>2019-08-22T11:38:23.874Z</time>
      </trkpt>
      <trkpt lat="42.434142" lon="1.131548">
        <ele>713.072428</ele>
        <time>2019-08-22T11:38:31.021Z</time>
      </trkpt>
      <trkpt lat="42.435617" lon="1.130686">
        <ele>713.201542</ele>
        <time>2019-08-22T11:38:54.464Z</time>
      </trkpt>
      <trkpt lat="42.435828" lon="1.130622">
        <ele>713.188555</ele>
        <time>2019-08-22T11:38:57.442Z</time>
      </trkpt>
      <trkpt lat="42.436322" lon="1.130605">
        <ele>713.158873</ele>
        <time>2019-08-22T11:39:04.720Z</time>
      </trkpt>
      <trkpt lat="42.436587" lon="1.130651">
        <ele>713.142825</ele>
        <time>2019-08-22T11:39:08.372Z</time>
      </trkpt>
      <trkpt lat="42.436629" lon="1.130658">
        <ele>713.140284</ele>
        <time>2019-08-22T11:39:09.075Z</time>
      </trkpt>
      <trkpt lat="42.436737" lon="1.130688">
        <ele>713.154321</ele>
        <time>2019-08-22T11:39:10.930Z</time>
      </trkpt>
      <trkpt lat="42.436852" lon="1.130728">
        <ele>713.173454</ele>
        <time>2019-08-22T11:39:12.472Z</time>
      </trkpt>
      <trkpt lat="42.437048" lon="1.130842">
        <ele>713.207827</ele>
        <time>2019-08-22T11:39:15.851Z</time>
      </trkpt>
      <trkpt lat="42.437289" lon="1.131004">
        <ele>713.251181</ele>
        <time>2019-08-22T11:39:19.640Z</time>
      </trkpt>
      <trkpt lat="42.437415" lon="1.131089">
        <ele>713.273863</ele>
        <time>2019-08-22T11:39:21.977Z</time>
      </trkpt>
      <trkpt lat="42.437572" lon="1.131194">
        <ele>713.302078</ele>
        <time>2019-08-22T11:39:24.397Z</time>
      </trkpt>
      <trkpt lat="42.438898" lon="1.132086">
        <ele>713.999355</ele>
        <time>2019-08-22T11:39:48.996Z</time>
      </trkpt>
      <trkpt lat="42.440854" lon="1.133429">
        <ele>716.412734</ele>
        <time>2019-08-22T11:40:31.119Z</time>
      </trkpt>
      <trkpt lat="42.441101" lon="1.133599">
        <ele>716.795717</ele>
        <time>2019-08-22T11:40:37.013Z</time>
      </trkpt>
      <trkpt lat="42.441716" lon="1.134015">
        <ele>717.821721</ele>
        <time>2019-08-22T11:40:52.076Z</time>
      </trkpt>
      <trkpt lat="42.441825" lon="1.134096">
        <ele>718.030964</ele>
        <time>2019-08-22T11:40:54.999Z</time>
      </trkpt>
      <trkpt lat="42.442135" lon="1.134297">
        <ele>718.609401</ele>
        <time>2019-08-22T11:41:02.738Z</time>
      </trkpt>
      <trkpt lat="42.442196" lon="1.134325">
        <ele>718.717805</ele>
        <time>2019-08-22T11:41:04.249Z</time>
      </trkpt>
      <trkpt lat="42.442656" lon="1.134646">
        <ele>719.588696</ele>
        <time>2019-08-22T11:41:15.578Z</time>
      </trkpt>
      <trkpt lat="42.443030" lon="1.134885">
        <ele>720.284688</ele>
        <time>2019-08-22T11:41:24.126Z</time>
      </trkpt>
      <trkpt lat="42.443375" lon="1.135115">
        <ele>720.679955</ele>
        <time>2019-08-22T11:41:31.762Z</time>
      </trkpt>
      <trkpt lat="42.443603" lon="1.135266">
        <ele>720.894773</ele>
        <time>2019-08-22T11:41:36.549Z</time>
      </trkpt>
      <trkpt lat="42.443786" lon="1.135387">
        <ele>721.067139</ele>
        <time>2019-08-22T11:41:40.413Z</time>
      </trkpt>
      <trkpt lat="42.443853" lon="1.135418">
        <ele>721.127069</ele>
        <time>2019-08-22T11:41:41.679Z</time>
      </trkpt>
      <trkpt lat="42.443937" lon="1.135436">
        <ele>721.199058</ele>
        <time>2019-08-22T11:41:43.196Z</time>
      </trkpt>
      <trkpt lat="42.444020" lon="1.135440">
        <ele>721.269362</ele>
        <time>2019-08-22T11:41:44.714Z</time>
      </trkpt>
      <trkpt lat="42.444346" lon="1.135456">
        <ele>721.545502</ele>
        <time>2019-08-22T11:41:50.475Z</time>
      </trkpt>
      <trkpt lat="42.444485" lon="1.135450">
        <ele>721.663225</ele>
        <time>2019-08-22T11:41:52.946Z</time>
      </trkpt>
      <trkpt lat="42.444694" lon="1.135446">
        <ele>721.840161</ele>
        <time>2019-08-22T11:41:56.433Z</time>
      </trkpt>
      <trkpt lat="42.445742" lon="1.135461">
        <ele>722.328958</ele>
        <time>2019-08-22T11:42:12.756Z</time>
      </trkpt>
      <trkpt lat="42.445909" lon="1.135457">
        <ele>722.398103</ele>
        <time>2019-08-22T11:42:15.714Z</time>
      </trkpt>
      <trkpt lat="42.446372" lon="1.135536">
        <ele>722.591289</ele>
        <time>2019-08-22T11:42:23.561Z</time>
      </trkpt>
      <trkpt lat="42.446577" lon="1.135618">
        <ele>722.679774</ele>
        <time>2019-08-22T11:42:27.370Z</time>
      </trkpt>
      <trkpt lat="42.446683" lon="1.135684">
        <ele>722.759018</ele>
        <time>2019-08-22T11:42:29.317Z</time>
      </trkpt>
      <trkpt lat="42.446992" lon="1.135944">
        <ele>723.039717</ele>
        <time>2019-08-22T11:42:35.698Z</time>
      </trkpt>
      <trkpt lat="42.447042" lon="1.135998">
        <ele>723.089060</ele>
        <time>2019-08-22T11:42:36.557Z</time>
      </trkpt>
      <trkpt lat="42.447275" lon="1.136318">
        <ele>723.345075</ele>
        <time>2019-08-22T11:42:42.274Z</time>
      </trkpt>
      <trkpt lat="42.447470" lon="1.136727">
        <ele>723.622379</ele>
        <time>2019-08-22T11:42:48.005Z</time>
      </trkpt>
      <trkpt lat="42.447631" lon="1.137218">
        <ele>723.928356</ele>
        <time>2019-08-22T11:42:54.908Z</time>
      </trkpt>
      <trkpt lat="42.447673" lon="1.137430">
        <ele>724.053360</ele>
        <time>2019-08-22T11:42:58.630Z</time>
      </trkpt>
      <trkpt lat="42.447716" lon="1.137648">
        <ele>724.339392</ele>
        <time>2019-08-22T11:43:01.739Z</time>
      </trkpt>
      <trkpt lat="42.447781" lon="1.138173">
        <ele>725.113041</ele>
        <time>2019-08-22T11:43:11.330Z</time>
      </trkpt>
      <trkpt lat="42.447809" lon="1.138680">
        <ele>725.851925</ele>
        <time>2019-08-22T11:43:20.426Z</time>
      </trkpt>
      <trkpt lat="42.447790" lon="1.139445">
        <ele>726.964330</ele>
        <time>2019-08-22T11:43:34.171Z</time>
      </trkpt>
      <trkpt lat="42.447761" lon="1.140042">
        <ele>727.754162</ele>
        <time>2019-08-22T11:43:43.378Z</time>
      </trkpt>
      <trkpt lat="42.447758" lon="1.140150">
        <ele>727.851922</ele>
        <time>2019-08-22T11:43:45.132Z</time>
      </trkpt>
      <trkpt lat="42.447683" lon="1.141269">
        <ele>728.868274</ele>
        <time>2019-08-22T11:44:02.933Z</time>
      </trkpt>
      <trkpt lat="42.447687" lon="1.141418">
        <ele>729.003140</ele>
        <time>2019-08-22T11:44:05.365Z</time>
      </trkpt>
      <trkpt lat="42.447691" lon="1.141590">
        <ele>729.158799</ele>
        <time>2019-08-22T11:44:07.405Z</time>
      </trkpt>
      <trkpt lat="42.447878" lon="1.142680">
        <ele>730.062880</ele>
        <time>2019-08-22T11:44:21.316Z</time>
      </trkpt>
      <trkpt lat="42.448100" lon="1.143215">
        <ele>730.443168</ele>
        <time>2019-08-22T11:44:28.834Z</time>
      </trkpt>
      <trkpt lat="42.448226" lon="1.143384">
        <ele>730.592019</ele>
        <time>2019-08-22T11:44:31.208Z</time>
      </trkpt>
      <trkpt lat="42.448452" lon="1.143664">
        <ele>730.849126</ele>
        <time>2019-08-22T11:44:36.852Z</time>
      </trkpt>
      <trkpt lat="42.449449" lon="1.144858">
        <ele>732.600555</ele>
        <time>2019-08-22T11:45:05.140Z</time>
      </trkpt>
      <trkpt lat="42.449692" lon="1.145309">
        <ele>733.295793</ele>
        <time>2019-08-22T11:45:14.469Z</time>
      </trkpt>
      <trkpt lat="42.449784" lon="1.145818">
        <ele>733.948212</ele>
        <time>2019-08-22T11:45:23.004Z</time>
      </trkpt>
      <trkpt lat="42.449845" lon="1.148966">
        <ele>739.513827</ele>
        <time>2019-08-22T11:46:12.231Z</time>
      </trkpt>
      <trkpt lat="42.449864" lon="1.149129">
        <ele>740.384745</ele>
        <time>2019-08-22T11:46:15.355Z</time>
      </trkpt>
      <trkpt lat="42.449980" lon="1.149443">
        <ele>742.238009</ele>
        <time>2019-08-22T11:46:23.737Z</time>
      </trkpt>
      <trkpt lat="42.450421" lon="1.150214">
        <ele>747.386423</ele>
        <time>2019-08-22T11:46:59.252Z</time>
      </trkpt>
      <trkpt lat="42.450514" lon="1.150494">
        <ele>749.006951</ele>
        <time>2019-08-22T11:47:14.328Z</time>
      </trkpt>
      <trkpt lat="42.450525" lon="1.150641">
        <ele>749.786730</ele>
        <time>2019-08-22T11:47:20.220Z</time>
      </trkpt>
      <trkpt lat="42.450544" lon="1.150915">
        <ele>751.628061</ele>
        <time>2019-08-22T11:47:33.328Z</time>
      </trkpt>
      <trkpt lat="42.450520" lon="1.151608">
        <ele>757.034468</ele>
        <time>2019-08-22T11:48:02.522Z</time>
      </trkpt>
      <trkpt lat="42.450541" lon="1.151711">
        <ele>757.867213</ele>
        <time>2019-08-22T11:48:06.598Z</time>
      </trkpt>
      <trkpt lat="42.450553" lon="1.151777">
        <ele>758.396927</ele>
        <time>2019-08-22T11:48:09.497Z</time>
      </trkpt>
      <trkpt lat="42.450574" lon="1.151905">
        <ele>759.418775</ele>
        <time>2019-08-22T11:48:17.215Z</time>
      </trkpt>
      <trkpt lat="42.450729" lon="1.152227">
        <ele>762.414846</ele>
        <time>2019-08-22T11:48:31.966Z</time>
      </trkpt>
      <trkpt lat="42.450817" lon="1.152322">
        <ele>763.603068</ele>
        <time>2019-08-22T11:48:40.571Z</time>
      </trkpt>
      <trkpt lat="42.451044" lon="1.152570">
        <ele>766.682481</ele>
        <time>2019-08-22T11:48:57.138Z</time>
      </trkpt>
      <trkpt lat="42.451143" lon="1.152640">
        <ele>767.861808</ele>
        <time>2019-08-22T11:49:03.806Z</time>
      </trkpt>
      <trkpt lat="42.451211" lon="1.152687">
        <ele>768.667989</ele>
        <time>2019-08-22T11:49:06.798Z</time>
      </trkpt>
      <trkpt lat="42.451377" lon="1.152861">
        <ele>770.107491</ele>
        <time>2019-08-22T11:49:20.151Z</time>
      </trkpt>
      <trkpt lat="42.451524" lon="1.153004">
        <ele>771.005094</ele>
        <time>2019-08-22T11:49:26.135Z</time>
      </trkpt>
      <trkpt lat="42.451642" lon="1.153218">
        <ele>771.982923</ele>
        <time>2019-08-22T11:49:36.607Z</time>
      </trkpt>
      <trkpt lat="42.451818" lon="1.153680">
        <ele>773.885994</ele>
        <time>2019-08-22T11:49:47.137Z</time>
      </trkpt>
      <trkpt lat="42.451914" lon="1.155415">
        <ele>779.471550</ele>
        <time>2019-08-22T11:50:21.372Z</time>
      </trkpt>
      <trkpt lat="42.452006" lon="1.155999">
        <ele>780.762795</ele>
        <time>2019-08-22T11:50:33.987Z</time>
      </trkpt>
      <trkpt lat="42.452088" lon="1.156214">
        <ele>781.286124</ele>
        <time>2019-08-22T11:50:38.325Z</time>
      </trkpt>
      <trkpt lat="42.452152" lon="1.156342">
        <ele>781.620461</ele>
        <time>2019-08-22T11:50:42.319Z</time>
      </trkpt>
      <trkpt lat="42.452264" lon="1.156543">
        <ele>782.165095</ele>
        <time>2019-08-22T11:50:46.802Z</time>
      </trkpt>
      <trkpt lat="42.452522" lon="1.157005">
        <ele>783.417939</ele>
        <time>2019-08-22T11:50:57.649Z</time>
      </trkpt>
      <trkpt lat="42.452902" lon="1.157542">
        <ele>784.308395</ele>
        <time>2019-08-22T11:51:11.571Z</time>
      </trkpt>
      <trkpt lat="42.454289" lon="1.159110">
        <ele>785.960078</ele>
        <time>2019-08-22T11:51:45.453Z</time>
      </trkpt>
      <trkpt lat="42.454541" lon="1.159578">
        <ele>785.745684</ele>
        <time>2019-08-22T11:51:52.292Z</time>
      </trkpt>
      <trkpt lat="42.454748" lon="1.160199">
        <ele>785.493526</ele>
        <time>2019-08-22T11:51:58.032Z</time>
      </trkpt>
      <trkpt lat="42.455009" lon="1.161250">
        <ele>785.523816</ele>
        <time>2019-08-22T11:52:07.053Z</time>
      </trkpt>
      <trkpt lat="42.455192" lon="1.161725">
        <ele>785.721645</ele>
        <time>2019-08-22T11:52:12.040Z</time>
      </trkpt>
      <trkpt lat="42.455434" lon="1.162238">
        <ele>785.946436</ele>
        <time>2019-08-22T11:52:19.204Z</time>
      </trkpt>
      <trkpt lat="42.455478" lon="1.162345">
        <ele>785.991659</ele>
        <time>2019-08-22T11:52:20.053Z</time>
      </trkpt>
      <trkpt lat="42.455518" lon="1.162499">
        <ele>786.051933</ele>
        <time>2019-08-22T11:52:24.555Z</time>
      </trkpt>
      <trkpt lat="42.455818" lon="1.165654">
        <ele>794.703965</ele>
        <time>2019-08-22T11:53:43.766Z</time>
      </trkpt>
      <trkpt lat="42.456101" lon="1.166672">
        <ele>796.472856</ele>
        <time>2019-08-22T11:54:06.111Z</time>
      </trkpt>
      <trkpt lat="42.456496" lon="1.167505">
        <ele>798.082951</ele>
        <time>2019-08-22T11:54:18.747Z</time>
      </trkpt>
      <trkpt lat="42.456671" lon="1.167696">
        <ele>797.926259</ele>
        <time>2019-08-22T11:54:21.552Z</time>
      </trkpt>
      <trkpt lat="42.456931" lon="1.167895">
        <ele>797.631121</ele>
        <time>2019-08-22T11:54:25.154Z</time>
      </trkpt>
      <trkpt lat="42.457333" lon="1.168197">
        <ele>797.176817</ele>
        <time>2019-08-22T11:54:30.524Z</time>
      </trkpt>
      <trkpt lat="42.457994" lon="1.168964">
        <ele>796.343955</ele>
        <time>2019-08-22T11:54:40.416Z</time>
      </trkpt>
      <trkpt lat="42.458952" lon="1.169609">
        <ele>796.145375</ele>
        <time>2019-08-22T11:54:55.608Z</time>
      </trkpt>
      <trkpt lat="42.459857" lon="1.170800">
        <ele>795.788716</ele>
        <time>2019-08-22T11:55:15.808Z</time>
      </trkpt>
      <trkpt lat="42.460061" lon="1.171103">
        <ele>795.667077</ele>
        <time>2019-08-22T11:55:20.226Z</time>
      </trkpt>
      <trkpt lat="42.460264" lon="1.171541">
        <ele>795.513694</ele>
        <time>2019-08-22T11:55:25.499Z</time>
      </trkpt>
      <trkpt lat="42.460654" lon="1.172889">
        <ele>795.010658</ele>
        <time>2019-08-22T11:55:38.219Z</time>
      </trkpt>
      <trkpt lat="42.460842" lon="1.173324">
        <ele>794.808480</ele>
        <time>2019-08-22T11:55:42.463Z</time>
      </trkpt>
      <trkpt lat="42.461566" lon="1.174490">
        <ele>794.662614</ele>
        <time>2019-08-22T11:55:59.551Z</time>
      </trkpt>
      <trkpt lat="42.461635" lon="1.174614">
        <ele>794.845194</ele>
        <time>2019-08-22T11:56:01.088Z</time>
      </trkpt>
      <trkpt lat="42.461775" lon="1.174904">
        <ele>795.252597</ele>
        <time>2019-08-22T11:56:06.973Z</time>
      </trkpt>
      <trkpt lat="42.461864" lon="1.175101">
        <ele>795.524146</ele>
        <time>2019-08-22T11:56:09.917Z</time>
      </trkpt>
      <trkpt lat="42.462132" lon="1.175764">
        <ele>796.412836</ele>
        <time>2019-08-22T11:56:22.865Z</time>
      </trkpt>
      <trkpt lat="42.462177" lon="1.175877">
        <ele>796.563786</ele>
        <time>2019-08-22T11:56:24.527Z</time>
      </trkpt>
      <trkpt lat="42.462442" lon="1.176614">
        <ele>797.643795</ele>
        <time>2019-08-22T11:56:40.425Z</time>
      </trkpt>
      <trkpt lat="42.462688" lon="1.177734">
        <ele>799.479089</ele>
        <time>2019-08-22T11:57:01.423Z</time>
      </trkpt>
      <trkpt lat="42.462958" lon="1.178269">
        <ele>800.497116</ele>
        <time>2019-08-22T11:57:10.884Z</time>
      </trkpt>
      <trkpt lat="42.464390" lon="1.180704">
        <ele>805.234678</ele>
        <time>2019-08-22T11:58:04.484Z</time>
      </trkpt>
      <trkpt lat="42.465127" lon="1.181482">
        <ele>806.986670</ele>
        <time>2019-08-22T11:58:26.289Z</time>
      </trkpt>
      <trkpt lat="42.465560" lon="1.182104">
        <ele>808.174468</ele>
        <time>2019-08-22T11:58:39.405Z</time>
      </trkpt>
      <trkpt lat="42.465873" lon="1.182704">
        <ele>809.294558</ele>
        <time>2019-08-22T11:58:50.142Z</time>
      </trkpt>
      <trkpt lat="42.466062" lon="1.183403">
        <ele>810.429287</ele>
        <time>2019-08-22T11:59:01.708Z</time>
      </trkpt>
      <trkpt lat="42.466153" lon="1.184595">
        <ele>812.871026</ele>
        <time>2019-08-22T11:59:24.418Z</time>
      </trkpt>
      <trkpt lat="42.466140" lon="1.185070">
        <ele>814.672313</ele>
        <time>2019-08-22T11:59:35.483Z</time>
      </trkpt>
      <trkpt lat="42.465872" lon="1.186686">
        <ele>820.949134</ele>
        <time>2019-08-22T12:00:23.066Z</time>
      </trkpt>
      <trkpt lat="42.465842" lon="1.187485">
        <ele>823.341720</ele>
        <time>2019-08-22T12:00:46.691Z</time>
      </trkpt>
      <trkpt lat="42.465924" lon="1.188502">
        <ele>826.363853</ele>
        <time>2019-08-22T12:01:12.547Z</time>
      </trkpt>
      <trkpt lat="42.466471" lon="1.190267">
        <ele>826.759577</ele>
        <time>2019-08-22T12:01:35.948Z</time>
      </trkpt>
      <trkpt lat="42.466700" lon="1.191155">
        <ele>825.624931</ele>
        <time>2019-08-22T12:01:42.862Z</time>
      </trkpt>
      <trkpt lat="42.467188" lon="1.192092">
        <ele>822.476231</ele>
        <time>2019-08-22T12:01:50.865Z</time>
      </trkpt>
      <trkpt lat="42.467258" lon="1.192430">
        <ele>821.374534</ele>
        <time>2019-08-22T12:01:53.292Z</time>
      </trkpt>
      <trkpt lat="42.467271" lon="1.192751">
        <ele>820.365678</ele>
        <time>2019-08-22T12:01:55.566Z</time>
      </trkpt>
      <trkpt lat="42.467086" lon="1.193871">
        <ele>817.261102</ele>
        <time>2019-08-22T12:02:03.997Z</time>
      </trkpt>
      <trkpt lat="42.466991" lon="1.195033">
        <ele>815.558028</ele>
        <time>2019-08-22T12:02:13.273Z</time>
      </trkpt>
      <trkpt lat="42.466772" lon="1.196321">
        <ele>814.447073</ele>
        <time>2019-08-22T12:02:25.223Z</time>
      </trkpt>
      <trkpt lat="42.466800" lon="1.197976">
        <ele>815.906998</ele>
        <time>2019-08-22T12:02:45.116Z</time>
      </trkpt>
      <trkpt lat="42.466649" lon="1.198911">
        <ele>818.460372</ele>
        <time>2019-08-22T12:03:09.965Z</time>
      </trkpt>
      <trkpt lat="42.466637" lon="1.199063">
        <ele>819.095189</ele>
        <time>2019-08-22T12:03:13.701Z</time>
      </trkpt>
      <trkpt lat="42.466641" lon="1.199330">
        <ele>820.204191</ele>
        <time>2019-08-22T12:03:21.728Z</time>
      </trkpt>
      <trkpt lat="42.466684" lon="1.199592">
        <ele>821.318805</ele>
        <time>2019-08-22T12:03:28.922Z</time>
      </trkpt>
      <trkpt lat="42.466825" lon="1.199946">
        <ele>822.989469</ele>
        <time>2019-08-22T12:03:41.969Z</time>
      </trkpt>
      <trkpt lat="42.467044" lon="1.200247">
        <ele>824.745129</ele>
        <time>2019-08-22T12:03:55.214Z</time>
      </trkpt>
      <trkpt lat="42.467748" lon="1.200951">
        <ele>828.035233</ele>
        <time>2019-08-22T12:04:27.977Z</time>
      </trkpt>
      <trkpt lat="42.468228" lon="1.201344">
        <ele>829.606269</ele>
        <time>2019-08-22T12:04:44.268Z</time>
      </trkpt>
      <trkpt lat="42.468471" lon="1.201474">
        <ele>830.338169</ele>
        <time>2019-08-22T12:04:48.045Z</time>
      </trkpt>
      <trkpt lat="42.468822" lon="1.201662">
        <ele>831.395525</ele>
        <time>2019-08-22T12:04:53.827Z</time>
      </trkpt>
      <trkpt lat="42.469883" lon="1.202445">
        <ele>829.601863</ele>
        <time>2019-08-22T12:05:07.603Z</time>
      </trkpt>
      <trkpt lat="42.470355" lon="1.202607">
        <ele>828.841668</ele>
        <time>2019-08-22T12:05:12.949Z</time>
      </trkpt>
      <trkpt lat="42.470957" lon="1.202659">
        <ele>827.887984</ele>
        <time>2019-08-22T12:05:19.382Z</time>
      </trkpt>
      <trkpt lat="42.471357" lon="1.202592">
        <ele>827.248712</ele>
        <time>2019-08-22T12:05:23.656Z</time>
      </trkpt>
      <trkpt lat="42.471719" lon="1.202468">
        <ele>826.656492</ele>
        <time>2019-08-22T12:05:27.737Z</time>
      </trkpt>
      <trkpt lat="42.472737" lon="1.201875">
        <ele>826.821645</ele>
        <time>2019-08-22T12:05:43.140Z</time>
      </trkpt>
      <trkpt lat="42.473062" lon="1.201824">
        <ele>827.417843</ele>
        <time>2019-08-22T12:05:50.565Z</time>
      </trkpt>
      <trkpt lat="42.473499" lon="1.201881">
        <ele>828.217860</ele>
        <time>2019-08-22T12:06:02.012Z</time>
      </trkpt>
      <trkpt lat="42.474380" lon="1.202201">
        <ele>830.282505</ele>
        <time>2019-08-22T12:06:28.585Z</time>
      </trkpt>
      <trkpt lat="42.476425" lon="1.203253">
        <ele>835.194358</ele>
        <time>2019-08-22T12:07:22.506Z</time>
      </trkpt>
      <trkpt lat="42.476818" lon="1.203390">
        <ele>835.785860</ele>
        <time>2019-08-22T12:07:29.521Z</time>
      </trkpt>
      <trkpt lat="42.477140" lon="1.203381">
        <ele>836.255335</ele>
        <time>2019-08-22T12:07:34.987Z</time>
      </trkpt>
      <trkpt lat="42.477586" lon="1.203225">
        <ele>836.910436</ele>
        <time>2019-08-22T12:07:42.576Z</time>
      </trkpt>
      <trkpt lat="42.478091" lon="1.203227">
        <ele>837.609481</ele>
        <time>2019-08-22T12:07:51.355Z</time>
      </trkpt>
      <trkpt lat="42.478460" lon="1.203421">
        <ele>838.157322</ele>
        <time>2019-08-22T12:07:59.474Z</time>
      </trkpt>
      <trkpt lat="42.478662" lon="1.203633">
        <ele>838.510917</ele>
        <time>2019-08-22T12:08:05.484Z</time>
      </trkpt>
      <trkpt lat="42.478923" lon="1.204069">
        <ele>839.084205</ele>
        <time>2019-08-22T12:08:15.783Z</time>
      </trkpt>
      <trkpt lat="42.479372" lon="1.205326">
        <ele>839.912420</ele>
        <time>2019-08-22T12:08:40.213Z</time>
      </trkpt>
      <trkpt lat="42.479493" lon="1.205495">
        <ele>840.051483</ele>
        <time>2019-08-22T12:08:43.339Z</time>
      </trkpt>
      <trkpt lat="42.479816" lon="1.205820">
        <ele>840.373475</ele>
        <time>2019-08-22T12:08:48.442Z</time>
      </trkpt>
      <trkpt lat="42.480670" lon="1.206410">
        <ele>838.272777</ele>
        <time>2019-08-22T12:08:58.671Z</time>
      </trkpt>
      <trkpt lat="42.480819" lon="1.206510">
        <ele>837.778198</ele>
        <time>2019-08-22T12:09:00.250Z</time>
      </trkpt>
      <trkpt lat="42.481145" lon="1.206691">
        <ele>836.730242</ele>
        <time>2019-08-22T12:09:03.679Z</time>
      </trkpt>
      <trkpt lat="42.481843" lon="1.207010">
        <ele>835.291069</ele>
        <time>2019-08-22T12:09:10.953Z</time>
      </trkpt>
      <trkpt lat="42.482663" lon="1.207222">
        <ele>835.712634</ele>
        <time>2019-08-22T12:09:21.053Z</time>
      </trkpt>
      <trkpt lat="42.483198" lon="1.207524">
        <ele>836.005289</ele>
        <time>2019-08-22T12:09:36.194Z</time>
      </trkpt>
      <trkpt lat="42.483555" lon="1.208017">
        <ele>838.092608</ele>
        <time>2019-08-22T12:09:53.534Z</time>
      </trkpt>
      <trkpt lat="42.484134" lon="1.209412">
        <ele>845.018578</ele>
        <time>2019-08-22T12:10:44.506Z</time>
      </trkpt>
      <trkpt lat="42.484640" lon="1.210043">
        <ele>847.207916</ele>
        <time>2019-08-22T12:11:08.386Z</time>
      </trkpt>
      <trkpt lat="42.484931" lon="1.210507">
        <ele>847.826166</ele>
        <time>2019-08-22T12:11:21.382Z</time>
      </trkpt>
      <trkpt lat="42.485160" lon="1.210777">
        <ele>848.243839</ele>
        <time>2019-08-22T12:11:27.907Z</time>
      </trkpt>
      <trkpt lat="42.485378" lon="1.210971">
        <ele>848.602733</ele>
        <time>2019-08-22T12:11:31.175Z</time>
      </trkpt>
      <trkpt lat="42.485414" lon="1.211004">
        <ele>848.662542</ele>
        <time>2019-08-22T12:11:31.816Z</time>
      </trkpt>
      <trkpt lat="42.485613" lon="1.211250">
        <ele>849.033172</ele>
        <time>2019-08-22T12:11:34.674Z</time>
      </trkpt>
      <trkpt lat="42.485788" lon="1.211539">
        <ele>847.522566</ele>
        <time>2019-08-22T12:11:37.403Z</time>
      </trkpt>
      <trkpt lat="42.486124" lon="1.212020">
        <ele>843.876641</ele>
        <time>2019-08-22T12:11:41.825Z</time>
      </trkpt>
      <trkpt lat="42.486480" lon="1.212296">
        <ele>840.816572</ele>
        <time>2019-08-22T12:11:45.381Z</time>
      </trkpt>
      <trkpt lat="42.487028" lon="1.212499">
        <ele>836.577445</ele>
        <time>2019-08-22T12:11:50.327Z</time>
      </trkpt>
      <trkpt lat="42.487277" lon="1.212473">
        <ele>834.925774</ele>
        <time>2019-08-22T12:11:52.461Z</time>
      </trkpt>
      <trkpt lat="42.487599" lon="1.212310">
        <ele>832.914100</ele>
        <time>2019-08-22T12:11:55.430Z</time>
      </trkpt>
      <trkpt lat="42.487859" lon="1.212002">
        <ele>830.893471</ele>
        <time>2019-08-22T12:11:58.457Z</time>
      </trkpt>
      <trkpt lat="42.488283" lon="1.211248">
        <ele>826.800907</ele>
        <time>2019-08-22T12:12:05.023Z</time>
      </trkpt>
      <trkpt lat="42.488467" lon="1.211030">
        <ele>825.370843</ele>
        <time>2019-08-22T12:12:07.771Z</time>
      </trkpt>
      <trkpt lat="42.488833" lon="1.210789">
        <ele>827.299660</ele>
        <time>2019-08-22T12:12:14.681Z</time>
      </trkpt>
      <trkpt lat="42.489159" lon="1.210704">
        <ele>829.198786</ele>
        <time>2019-08-22T12:12:23.830Z</time>
      </trkpt>
      <trkpt lat="42.490344" lon="1.210699">
        <ele>836.257624</ele>
        <time>2019-08-22T12:13:21.210Z</time>
      </trkpt>
      <trkpt lat="42.490944" lon="1.210849">
        <ele>841.628479</ele>
        <time>2019-08-22T12:14:03.556Z</time>
      </trkpt>
      <trkpt lat="42.491309" lon="1.211091">
        <ele>845.205050</ele>
        <time>2019-08-22T12:14:29.666Z</time>
      </trkpt>
      <trkpt lat="42.491345" lon="1.211151">
        <ele>845.707167</ele>
        <time>2019-08-22T12:14:35.859Z</time>
      </trkpt>
      <trkpt lat="42.491550" lon="1.211485">
        <ele>848.528019</ele>
        <time>2019-08-22T12:14:45.654Z</time>
      </trkpt>
      <trkpt lat="42.491567" lon="1.211514">
        <ele>848.768502</ele>
        <time>2019-08-22T12:14:48.666Z</time>
      </trkpt>
      <trkpt lat="42.491673" lon="1.211698">
        <ele>850.284176</ele>
        <time>2019-08-22T12:14:54.462Z</time>
      </trkpt>
      <trkpt lat="42.491759" lon="1.211843">
        <ele>851.130870</ele>
        <time>2019-08-22T12:14:55.615Z</time>
      </trkpt>
      <trkpt lat="42.491802" lon="1.211916">
        <ele>850.640191</ele>
        <time>2019-08-22T12:15:01.525Z</time>
      </trkpt>
      <trkpt lat="42.491978" lon="1.212074">
        <ele>849.136936</ele>
        <time>2019-08-22T12:15:04.476Z</time>
      </trkpt>
      <trkpt lat="42.492436" lon="1.212312">
        <ele>845.643722</ele>
        <time>2019-08-22T12:15:11.534Z</time>
      </trkpt>
      <trkpt lat="42.492688" lon="1.212396">
        <ele>843.795520</ele>
        <time>2019-08-22T12:15:14.663Z</time>
      </trkpt>
      <trkpt lat="42.492796" lon="1.212416">
        <ele>843.019189</ele>
        <time>2019-08-22T12:15:15.783Z</time>
      </trkpt>
      <trkpt lat="42.492967" lon="1.212393">
        <ele>841.795325</ele>
        <time>2019-08-22T12:15:17.372Z</time>
      </trkpt>
      <trkpt lat="42.492998" lon="1.212382">
        <ele>841.567106</ele>
        <time>2019-08-22T12:15:17.651Z</time>
      </trkpt>
      <trkpt lat="42.493130" lon="1.212320">
        <ele>840.572194</ele>
        <time>2019-08-22T12:15:18.813Z</time>
      </trkpt>
      <trkpt lat="42.493816" lon="1.211550">
        <ele>832.281184</ele>
        <time>2019-08-22T12:15:26.251Z</time>
      </trkpt>
      <trkpt lat="42.493888" lon="1.211521">
        <ele>831.501074</ele>
        <time>2019-08-22T12:15:26.880Z</time>
      </trkpt>
      <trkpt lat="42.493949" lon="1.211488">
        <ele>830.818953</ele>
        <time>2019-08-22T12:15:27.424Z</time>
      </trkpt>
      <trkpt lat="42.494296" lon="1.211502">
        <ele>827.213251</ele>
        <time>2019-08-22T12:15:30.329Z</time>
      </trkpt>
      <trkpt lat="42.494368" lon="1.211532">
        <ele>826.430928</ele>
        <time>2019-08-22T12:15:30.997Z</time>
      </trkpt>
      <trkpt lat="42.494524" lon="1.211596">
        <ele>824.738127</ele>
        <time>2019-08-22T12:15:32.700Z</time>
      </trkpt>
      <trkpt lat="42.494809" lon="1.211714">
        <ele>821.643112</ele>
        <time>2019-08-22T12:15:35.607Z</time>
      </trkpt>
      <trkpt lat="42.494851" lon="1.211731">
        <ele>821.187867</ele>
        <time>2019-08-22T12:15:36.199Z</time>
      </trkpt>
      <trkpt lat="42.495241" lon="1.211848">
        <ele>819.259660</ele>
        <time>2019-08-22T12:15:40.175Z</time>
      </trkpt>
      <trkpt lat="42.495421" lon="1.211982">
        <ele>818.841859</ele>
        <time>2019-08-22T12:15:42.320Z</time>
      </trkpt>
      <trkpt lat="42.495498" lon="1.212008">
        <ele>818.680401</ele>
        <time>2019-08-22T12:15:43.555Z</time>
      </trkpt>
      <trkpt lat="42.495528" lon="1.212127">
        <ele>818.491721</ele>
        <time>2019-08-22T12:15:44.691Z</time>
      </trkpt>
      <trkpt lat="42.495543" lon="1.212460">
        <ele>817.991198</ele>
        <time>2019-08-22T12:15:48.164Z</time>
      </trkpt>
      <trkpt lat="42.495565" lon="1.212564">
        <ele>817.828875</ele>
        <time>2019-08-22T12:15:49.301Z</time>
      </trkpt>
      <trkpt lat="42.495677" lon="1.213022">
        <ele>817.104944</ele>
        <time>2019-08-22T12:15:53.129Z</time>
      </trkpt>
      <trkpt lat="42.495815" lon="1.213429">
        <ele>816.432865</ele>
        <time>2019-08-22T12:15:56.686Z</time>
      </trkpt>
      <trkpt lat="42.495890" lon="1.213660">
        <ele>816.075518</ele>
        <time>2019-08-22T12:15:58.747Z</time>
      </trkpt>
      <trkpt lat="42.496374" lon="1.215175">
        <ele>814.208004</ele>
        <time>2019-08-22T12:16:12.784Z</time>
      </trkpt>
      <trkpt lat="42.496708" lon="1.215805">
        <ele>813.387926</ele>
        <time>2019-08-22T12:16:19.088Z</time>
      </trkpt>
      <trkpt lat="42.496739" lon="1.215858">
        <ele>813.397230</ele>
        <time>2019-08-22T12:16:19.693Z</time>
      </trkpt>
      <trkpt lat="42.496907" lon="1.216139">
        <ele>813.446986</ele>
        <time>2019-08-22T12:16:22.991Z</time>
      </trkpt>
      <trkpt lat="42.498329" lon="1.217986">
        <ele>814.604444</ele>
        <time>2019-08-22T12:16:57.542Z</time>
      </trkpt>
      <trkpt lat="42.499910" lon="1.219581">
        <ele>817.977142</ele>
        <time>2019-08-22T12:17:44.028Z</time>
      </trkpt>
      <trkpt lat="42.500768" lon="1.220246">
        <ele>819.680602</ele>
        <time>2019-08-22T12:18:05.619Z</time>
      </trkpt>
      <trkpt lat="42.501445" lon="1.220735">
        <ele>820.048826</ele>
        <time>2019-08-22T12:18:18.974Z</time>
      </trkpt>
      <trkpt lat="42.501751" lon="1.220917">
        <ele>820.133423</ele>
        <time>2019-08-22T12:18:23.877Z</time>
      </trkpt>
      <trkpt lat="42.504609" lon="1.222425">
        <ele>821.353668</ele>
        <time>2019-08-22T12:19:06.934Z</time>
      </trkpt>
      <trkpt lat="42.505194" lon="1.223068">
        <ele>823.326285</ele>
        <time>2019-08-22T12:19:27.576Z</time>
      </trkpt>
      <trkpt lat="42.505353" lon="1.223243">
        <ele>823.862718</ele>
        <time>2019-08-22T12:19:34.806Z</time>
      </trkpt>
      <trkpt lat="42.506542" lon="1.224731">
        <ele>828.757221</ele>
        <time>2019-08-22T12:20:25.631Z</time>
      </trkpt>
      <trkpt lat="42.506961" lon="1.225110">
        <ele>830.345552</ele>
        <time>2019-08-22T12:20:36.892Z</time>
      </trkpt>
      <trkpt lat="42.510024" lon="1.226878">
        <ele>831.707057</ele>
        <time>2019-08-22T12:21:29.534Z</time>
      </trkpt>
      <trkpt lat="42.510204" lon="1.227177">
        <ele>831.765933</ele>
        <time>2019-08-22T12:21:33.784Z</time>
      </trkpt>
      <trkpt lat="42.510284" lon="1.227422">
        <ele>831.800419</ele>
        <time>2019-08-22T12:21:36.788Z</time>
      </trkpt>
      <trkpt lat="42.510277" lon="1.227795">
        <ele>831.845422</ele>
        <time>2019-08-22T12:21:40.904Z</time>
      </trkpt>
      <trkpt lat="42.510157" lon="1.228326">
        <ele>831.912410</ele>
        <time>2019-08-22T12:21:47.056Z</time>
      </trkpt>
      <trkpt lat="42.509632" lon="1.229383">
        <ele>832.066138</ele>
        <time>2019-08-22T12:22:01.664Z</time>
      </trkpt>
      <trkpt lat="42.509553" lon="1.229782">
        <ele>832.316208</ele>
        <time>2019-08-22T12:22:06.713Z</time>
      </trkpt>
      <trkpt lat="42.509573" lon="1.230194">
        <ele>832.585730</ele>
        <time>2019-08-22T12:22:11.987Z</time>
      </trkpt>
      <trkpt lat="42.509838" lon="1.230625">
        <ele>832.952087</ele>
        <time>2019-08-22T12:22:19.487Z</time>
      </trkpt>
      <trkpt lat="42.511054" lon="1.231682">
        <ele>834.605471</ele>
        <time>2019-08-22T12:22:48.267Z</time>
      </trkpt>
      <trkpt lat="42.511393" lon="1.232061">
        <ele>835.251105</ele>
        <time>2019-08-22T12:22:57.585Z</time>
      </trkpt>
      <trkpt lat="42.511613" lon="1.232399">
        <ele>835.739617</ele>
        <time>2019-08-22T12:23:04.581Z</time>
      </trkpt>
      <trkpt lat="42.511785" lon="1.232665">
        <ele>836.122963</ele>
        <time>2019-08-22T12:23:09.973Z</time>
      </trkpt>
      <trkpt lat="42.512191" lon="1.232898">
        <ele>837.089832</ele>
        <time>2019-08-22T12:23:19.227Z</time>
      </trkpt>
      <trkpt lat="42.512869" lon="1.233051">
        <ele>838.794327</ele>
        <time>2019-08-22T12:23:34.913Z</time>
      </trkpt>
      <trkpt lat="42.513261" lon="1.233204">
        <ele>839.805892</ele>
        <time>2019-08-22T12:23:46.551Z</time>
      </trkpt>
      <trkpt lat="42.513885" lon="1.233782">
        <ele>841.655830</ele>
        <time>2019-08-22T12:24:07.921Z</time>
      </trkpt>
      <trkpt lat="42.514103" lon="1.233882">
        <ele>842.211610</ele>
        <time>2019-08-22T12:24:13.217Z</time>
      </trkpt>
      <trkpt lat="42.514217" lon="1.233935">
        <ele>842.502653</ele>
        <time>2019-08-22T12:24:17.451Z</time>
      </trkpt>
      <trkpt lat="42.514536" lon="1.233955">
        <ele>843.273900</ele>
        <time>2019-08-22T12:24:25.546Z</time>
      </trkpt>
      <trkpt lat="42.514948" lon="1.233775">
        <ele>844.319255</ele>
        <time>2019-08-22T12:24:36.773Z</time>
      </trkpt>
      <trkpt lat="42.516350" lon="1.232911">
        <ele>845.106719</ele>
        <time>2019-08-22T12:25:02.235Z</time>
      </trkpt>
      <trkpt lat="42.517022" lon="1.232858">
        <ele>845.081160</ele>
        <time>2019-08-22T12:25:10.184Z</time>
      </trkpt>
      <trkpt lat="42.517753" lon="1.232911">
        <ele>844.883317</ele>
        <time>2019-08-22T12:25:19.166Z</time>
      </trkpt>
      <trkpt lat="42.518962" lon="1.233257">
        <ele>844.910838</ele>
        <time>2019-08-22T12:25:38.452Z</time>
      </trkpt>
      <trkpt lat="42.519308" lon="1.233503">
        <ele>845.358068</ele>
        <time>2019-08-22T12:25:46.375Z</time>
      </trkpt>
      <trkpt lat="42.519985" lon="1.234367">
        <ele>846.422178</ele>
        <time>2019-08-22T12:26:06.202Z</time>
      </trkpt>
      <trkpt lat="42.520660" lon="1.235339">
        <ele>846.945257</ele>
        <time>2019-08-22T12:26:24.151Z</time>
      </trkpt>
      <trkpt lat="42.520811" lon="1.235551">
        <ele>847.021647</ele>
        <time>2019-08-22T12:26:27.825Z</time>
      </trkpt>
      <trkpt lat="42.520846" lon="1.235624">
        <ele>847.044211</ele>
        <time>2019-08-22T12:26:28.669Z</time>
      </trkpt>
      <trkpt lat="42.521158" lon="1.235958">
        <ele>847.183926</ele>
        <time>2019-08-22T12:26:34.155Z</time>
      </trkpt>
      <trkpt lat="42.521196" lon="1.235986">
        <ele>847.199128</ele>
        <time>2019-08-22T12:26:34.602Z</time>
      </trkpt>
      <trkpt lat="42.521207" lon="1.236024">
        <ele>847.209707</ele>
        <time>2019-08-22T12:26:34.977Z</time>
      </trkpt>
      <trkpt lat="42.521225" lon="1.236057">
        <ele>847.220344</ele>
        <time>2019-08-22T12:26:35.302Z</time>
      </trkpt>
      <trkpt lat="42.521249" lon="1.236082">
        <ele>847.230981</ele>
        <time>2019-08-22T12:26:35.699Z</time>
      </trkpt>
      <trkpt lat="42.521277" lon="1.236098">
        <ele>847.241662</ele>
        <time>2019-08-22T12:26:36.702Z</time>
      </trkpt>
      <trkpt lat="42.521318" lon="1.236164">
        <ele>847.264027</ele>
        <time>2019-08-22T12:26:37.800Z</time>
      </trkpt>
      <trkpt lat="42.521567" lon="1.236523">
        <ele>847.596875</ele>
        <time>2019-08-22T12:26:42.990Z</time>
      </trkpt>
      <trkpt lat="42.521606" lon="1.236542">
        <ele>847.647988</ele>
        <time>2019-08-22T12:26:43.854Z</time>
      </trkpt>
      <trkpt lat="42.521656" lon="1.236605">
        <ele>847.732155</ele>
        <time>2019-08-22T12:26:44.686Z</time>
      </trkpt>
      <trkpt lat="42.521724" lon="1.236694">
        <ele>847.848696</ele>
        <time>2019-08-22T12:26:45.795Z</time>
      </trkpt>
      <trkpt lat="42.521788" lon="1.236778">
        <ele>847.958531</ele>
        <time>2019-08-22T12:26:47.419Z</time>
      </trkpt>
      <trkpt lat="42.521844" lon="1.236862">
        <ele>848.061502</ele>
        <time>2019-08-22T12:26:48.898Z</time>
      </trkpt>
      <trkpt lat="42.521998" lon="1.237130">
        <ele>848.370442</ele>
        <time>2019-08-22T12:26:52.085Z</time>
      </trkpt>
      <trkpt lat="42.522128" lon="1.237492">
        <ele>848.736525</ele>
        <time>2019-08-22T12:26:58.171Z</time>
      </trkpt>
      <trkpt lat="42.522141" lon="1.237545">
        <ele>848.787306</ele>
        <time>2019-08-22T12:26:58.690Z</time>
      </trkpt>
      <trkpt lat="42.522155" lon="1.237606">
        <ele>848.845387</ele>
        <time>2019-08-22T12:27:00.637Z</time>
      </trkpt>
      <trkpt lat="42.522199" lon="1.237933">
        <ele>849.147577</ele>
        <time>2019-08-22T12:27:06.720Z</time>
      </trkpt>
      <trkpt lat="42.522191" lon="1.238360">
        <ele>849.555111</ele>
        <time>2019-08-22T12:27:14.784Z</time>
      </trkpt>
      <trkpt lat="42.522027" lon="1.239106">
        <ele>852.129418</ele>
        <time>2019-08-22T12:27:32.847Z</time>
      </trkpt>
      <trkpt lat="42.521944" lon="1.239394">
        <ele>853.152011</ele>
        <time>2019-08-22T12:27:38.640Z</time>
      </trkpt>
      <trkpt lat="42.521895" lon="1.239559">
        <ele>853.740269</ele>
        <time>2019-08-22T12:27:44.500Z</time>
      </trkpt>
      <trkpt lat="42.521809" lon="1.239991">
        <ele>855.220024</ele>
        <time>2019-08-22T12:27:55.154Z</time>
      </trkpt>
      <trkpt lat="42.521832" lon="1.240363">
        <ele>856.454495</ele>
        <time>2019-08-22T12:28:02.766Z</time>
      </trkpt>
      <trkpt lat="42.521847" lon="1.240421">
        <ele>856.657758</ele>
        <time>2019-08-22T12:28:05.266Z</time>
      </trkpt>
      <trkpt lat="42.521863" lon="1.240472">
        <ele>856.841051</ele>
        <time>2019-08-22T12:28:06.794Z</time>
      </trkpt>
      <trkpt lat="42.522432" lon="1.241548">
        <ele>862.611110</ele>
        <time>2019-08-22T12:28:46.761Z</time>
      </trkpt>
      <trkpt lat="42.522772" lon="1.241957">
        <ele>865.432743</ele>
        <time>2019-08-22T12:29:04.819Z</time>
      </trkpt>
      <trkpt lat="42.522845" lon="1.242019">
        <ele>865.967544</ele>
        <time>2019-08-22T12:29:08.191Z</time>
      </trkpt>
      <trkpt lat="42.523013" lon="1.242154">
        <ele>867.180022</ele>
        <time>2019-08-22T12:29:15.930Z</time>
      </trkpt>
      <trkpt lat="42.523908" lon="1.242852">
        <ele>872.524376</ele>
        <time>2019-08-22T12:29:57.711Z</time>
      </trkpt>
      <trkpt lat="42.524157" lon="1.243147">
        <ele>874.123306</ele>
        <time>2019-08-22T12:30:10.576Z</time>
      </trkpt>
      <trkpt lat="42.524333" lon="1.243455">
        <ele>875.512658</ele>
        <time>2019-08-22T12:30:19.427Z</time>
      </trkpt>
      <trkpt lat="42.524376" lon="1.243545">
        <ele>875.895016</ele>
        <time>2019-08-22T12:30:22.036Z</time>
      </trkpt>
      <trkpt lat="42.524477" lon="1.243784">
        <ele>876.877144</ele>
        <time>2019-08-22T12:30:27.308Z</time>
      </trkpt>
      <trkpt lat="42.524845" lon="1.244714">
        <ele>877.415075</ele>
        <time>2019-08-22T12:30:42.467Z</time>
      </trkpt>
      <trkpt lat="42.525296" lon="1.246361">
        <ele>878.015580</ele>
        <time>2019-08-22T12:30:57.191Z</time>
      </trkpt>
      <trkpt lat="42.525322" lon="1.246432">
        <ele>878.281891</ele>
        <time>2019-08-22T12:30:57.733Z</time>
      </trkpt>
      <trkpt lat="42.525388" lon="1.246618">
        <ele>878.975317</ele>
        <time>2019-08-22T12:31:00.778Z</time>
      </trkpt>
      <trkpt lat="42.525496" lon="1.246775">
        <ele>879.696721</ele>
        <time>2019-08-22T12:31:06.126Z</time>
      </trkpt>
      <trkpt lat="42.525605" lon="1.246858">
        <ele>880.266408</ele>
        <time>2019-08-22T12:31:08.594Z</time>
      </trkpt>
      <trkpt lat="42.525627" lon="1.246875">
        <ele>880.381800</ele>
        <time>2019-08-22T12:31:09.404Z</time>
      </trkpt>
      <trkpt lat="42.525773" lon="1.246955">
        <ele>881.099454</ele>
        <time>2019-08-22T12:31:15.141Z</time>
      </trkpt>
      <trkpt lat="42.526083" lon="1.247113">
        <ele>882.608772</ele>
        <time>2019-08-22T12:31:26.631Z</time>
      </trkpt>
      <trkpt lat="42.526431" lon="1.247262">
        <ele>884.271989</ele>
        <time>2019-08-22T12:31:41.744Z</time>
      </trkpt>
      <trkpt lat="42.527010" lon="1.247511">
        <ele>888.952213</ele>
        <time>2019-08-22T12:32:13.212Z</time>
      </trkpt>
      <trkpt lat="42.527630" lon="1.247817">
        <ele>895.742117</ele>
        <time>2019-08-22T12:32:56.495Z</time>
      </trkpt>
      <trkpt lat="42.528631" lon="1.248707">
        <ele>906.597248</ele>
        <time>2019-08-22T12:34:01.780Z</time>
      </trkpt>
      <trkpt lat="42.529294" lon="1.249000">
        <ele>911.168928</ele>
        <time>2019-08-22T12:34:29.128Z</time>
      </trkpt>
      <trkpt lat="42.530133" lon="1.249246">
        <ele>916.344003</ele>
        <time>2019-08-22T12:34:58.751Z</time>
      </trkpt>
      <trkpt lat="42.530377" lon="1.249362">
        <ele>917.249523</ele>
        <time>2019-08-22T12:35:06.793Z</time>
      </trkpt>
      <trkpt lat="42.530577" lon="1.249538">
        <ele>918.084405</ele>
        <time>2019-08-22T12:35:14.270Z</time>
      </trkpt>
      <trkpt lat="42.530753" lon="1.249792">
        <ele>918.984270</ele>
        <time>2019-08-22T12:35:22.372Z</time>
      </trkpt>
      <trkpt lat="42.530802" lon="1.249985">
        <ele>919.511136</ele>
        <time>2019-08-22T12:35:27.213Z</time>
      </trkpt>
      <trkpt lat="42.530726" lon="1.250989">
        <ele>922.116084</ele>
        <time>2019-08-22T12:35:48.676Z</time>
      </trkpt>
      <trkpt lat="42.530815" lon="1.251516">
        <ele>921.268233</ele>
        <time>2019-08-22T12:35:55.051Z</time>
      </trkpt>
      <trkpt lat="42.530975" lon="1.251773">
        <ele>920.732298</ele>
        <time>2019-08-22T12:35:57.867Z</time>
      </trkpt>
      <trkpt lat="42.531159" lon="1.251890">
        <ele>920.293049</ele>
        <time>2019-08-22T12:36:00.021Z</time>
      </trkpt>
      <trkpt lat="42.531543" lon="1.251957">
        <ele>919.456134</ele>
        <time>2019-08-22T12:36:03.878Z</time>
      </trkpt>
      <trkpt lat="42.531794" lon="1.251908">
        <ele>918.907968</ele>
        <time>2019-08-22T12:36:06.309Z</time>
      </trkpt>
      <trkpt lat="42.531924" lon="1.251882">
        <ele>918.623915</ele>
        <time>2019-08-22T12:36:07.601Z</time>
      </trkpt>
      <trkpt lat="42.532306" lon="1.251762">
        <ele>917.403952</ele>
        <time>2019-08-22T12:36:11.332Z</time>
      </trkpt>
      <trkpt lat="42.532774" lon="1.251617">
        <ele>915.526201</ele>
        <time>2019-08-22T12:36:15.826Z</time>
      </trkpt>
      <trkpt lat="42.532944" lon="1.251565">
        <ele>914.844540</ele>
        <time>2019-08-22T12:36:17.497Z</time>
      </trkpt>
      <trkpt lat="42.533380" lon="1.251431">
        <ele>913.095877</ele>
        <time>2019-08-22T12:36:21.692Z</time>
      </trkpt>
      <trkpt lat="42.533624" lon="1.251430">
        <ele>912.141434</ele>
        <time>2019-08-22T12:36:24.211Z</time>
      </trkpt>
      <trkpt lat="42.533808" lon="1.251484">
        <ele>911.405056</ele>
        <time>2019-08-22T12:36:26.244Z</time>
      </trkpt>
      <trkpt lat="42.534171" lon="1.251828">
        <ele>911.079249</ele>
        <time>2019-08-22T12:36:31.813Z</time>
      </trkpt>
      <trkpt lat="42.534447" lon="1.252556">
        <ele>910.891677</ele>
        <time>2019-08-22T12:36:41.025Z</time>
      </trkpt>
      <trkpt lat="42.534498" lon="1.252972">
        <ele>910.795059</ele>
        <time>2019-08-22T12:36:45.976Z</time>
      </trkpt>
      <trkpt lat="42.534782" lon="1.253836">
        <ele>910.732559</ele>
        <time>2019-08-22T12:36:57.065Z</time>
      </trkpt>
      <trkpt lat="42.534834" lon="1.254252">
        <ele>910.872130</ele>
        <time>2019-08-22T12:37:01.990Z</time>
      </trkpt>
      <trkpt lat="42.534663" lon="1.255465">
        <ele>911.280647</ele>
        <time>2019-08-22T12:37:16.265Z</time>
      </trkpt>
      <trkpt lat="42.534520" lon="1.255852">
        <ele>911.423854</ele>
        <time>2019-08-22T12:37:21.819Z</time>
      </trkpt>
      <trkpt lat="42.534181" lon="1.256455">
        <ele>912.038093</ele>
        <time>2019-08-22T12:37:33.045Z</time>
      </trkpt>
      <trkpt lat="42.534019" lon="1.257094">
        <ele>912.621182</ele>
        <time>2019-08-22T12:37:43.949Z</time>
      </trkpt>
      <trkpt lat="42.533997" lon="1.257405">
        <ele>912.890765</ele>
        <time>2019-08-22T12:37:48.561Z</time>
      </trkpt>
      <trkpt lat="42.534133" lon="1.258136">
        <ele>913.541310</ele>
        <time>2019-08-22T12:37:59.230Z</time>
      </trkpt>
      <trkpt lat="42.534213" lon="1.258536">
        <ele>913.491391</ele>
        <time>2019-08-22T12:38:04.814Z</time>
      </trkpt>
      <trkpt lat="42.534325" lon="1.259091">
        <ele>913.399550</ele>
        <time>2019-08-22T12:38:11.599Z</time>
      </trkpt>
      <trkpt lat="42.534433" lon="1.260257">
        <ele>913.211988</ele>
        <time>2019-08-22T12:38:22.596Z</time>
      </trkpt>
      <trkpt lat="42.534409" lon="1.260991">
        <ele>913.227383</ele>
        <time>2019-08-22T12:38:29.225Z</time>
      </trkpt>
      <trkpt lat="42.534439" lon="1.261465">
        <ele>913.293912</ele>
        <time>2019-08-22T12:38:33.912Z</time>
      </trkpt>
      <trkpt lat="42.534503" lon="1.261696">
        <ele>913.328424</ele>
        <time>2019-08-22T12:38:36.019Z</time>
      </trkpt>
      <trkpt lat="42.534578" lon="1.261855">
        <ele>913.354824</ele>
        <time>2019-08-22T12:38:38.965Z</time>
      </trkpt>
      <trkpt lat="42.535091" lon="1.262788">
        <ele>913.657460</ele>
        <time>2019-08-22T12:38:53.873Z</time>
      </trkpt>
      <trkpt lat="42.535170" lon="1.263025">
        <ele>914.163038</ele>
        <time>2019-08-22T12:38:58.854Z</time>
      </trkpt>
      <trkpt lat="42.535294" lon="1.263562">
        <ele>915.256810</ele>
        <time>2019-08-22T12:39:08.827Z</time>
      </trkpt>
      <trkpt lat="42.535323" lon="1.263715">
        <ele>915.563864</ele>
        <time>2019-08-22T12:39:11.585Z</time>
      </trkpt>
      <trkpt lat="42.535483" lon="1.264555">
        <ele>917.250166</ele>
        <time>2019-08-22T12:39:29.619Z</time>
      </trkpt>
      <trkpt lat="42.535792" lon="1.266487">
        <ele>921.814575</ele>
        <time>2019-08-22T12:40:10.188Z</time>
      </trkpt>
      <trkpt lat="42.536363" lon="1.269277">
        <ele>929.093088</ele>
        <time>2019-08-22T12:41:10.448Z</time>
      </trkpt>
      <trkpt lat="42.536899" lon="1.272822">
        <ele>939.170824</ele>
        <time>2019-08-22T12:42:31.226Z</time>
      </trkpt>
      <trkpt lat="42.536845" lon="1.273838">
        <ele>942.014454</ele>
        <time>2019-08-22T12:42:54.376Z</time>
      </trkpt>
      <trkpt lat="42.536822" lon="1.274293">
        <ele>943.287616</ele>
        <time>2019-08-22T12:43:04.226Z</time>
      </trkpt>
      <trkpt lat="42.536811" lon="1.274658">
        <ele>944.303078</ele>
        <time>2019-08-22T12:43:11.857Z</time>
      </trkpt>
      <trkpt lat="42.536809" lon="1.274698">
        <ele>944.411700</ele>
        <time>2019-08-22T12:43:12.715Z</time>
      </trkpt>
      <trkpt lat="42.536812" lon="1.275052">
        <ele>945.370858</ele>
        <time>2019-08-22T12:43:20.209Z</time>
      </trkpt>
      <trkpt lat="42.536897" lon="1.276951">
        <ele>950.525311</ele>
        <time>2019-08-22T12:44:01.164Z</time>
      </trkpt>
      <trkpt lat="42.536914" lon="1.277505">
        <ele>952.651460</ele>
        <time>2019-08-22T12:44:14.098Z</time>
      </trkpt>
      <trkpt lat="42.536909" lon="1.277714">
        <ele>953.500010</ele>
        <time>2019-08-22T12:44:19.481Z</time>
      </trkpt>
      <trkpt lat="42.536892" lon="1.277884">
        <ele>954.196179</ele>
        <time>2019-08-22T12:44:23.512Z</time>
      </trkpt>
      <trkpt lat="42.536868" lon="1.278049">
        <ele>954.878655</ele>
        <time>2019-08-22T12:44:27.615Z</time>
      </trkpt>
      <trkpt lat="42.536809" lon="1.278315">
        <ele>956.005904</ele>
        <time>2019-08-22T12:44:35.015Z</time>
      </trkpt>
      <trkpt lat="42.536596" lon="1.278893">
        <ele>958.628358</ele>
        <time>2019-08-22T12:44:54.729Z</time>
      </trkpt>
      <trkpt lat="42.535897" lon="1.280050">
        <ele>964.894731</ele>
        <time>2019-08-22T12:45:40.277Z</time>
      </trkpt>
      <trkpt lat="42.535867" lon="1.280142">
        <ele>965.322786</ele>
        <time>2019-08-22T12:45:44.711Z</time>
      </trkpt>
      <trkpt lat="42.535837" lon="1.280231">
        <ele>965.739200</ele>
        <time>2019-08-22T12:45:47.533Z</time>
      </trkpt>
      <trkpt lat="42.535805" lon="1.280810">
        <ele>968.209626</ele>
        <time>2019-08-22T12:46:02.085Z</time>
      </trkpt>
      <trkpt lat="42.535816" lon="1.280875">
        <ele>968.493386</ele>
        <time>2019-08-22T12:46:03.701Z</time>
      </trkpt>
      <trkpt lat="42.535848" lon="1.281060">
        <ele>969.301913</ele>
        <time>2019-08-22T12:46:08.350Z</time>
      </trkpt>
      <trkpt lat="42.535883" lon="1.281264">
        <ele>970.193101</ele>
        <time>2019-08-22T12:46:14.048Z</time>
      </trkpt>
      <trkpt lat="42.535938" lon="1.281600">
        <ele>971.374225</ele>
        <time>2019-08-22T12:46:22.744Z</time>
      </trkpt>
      <trkpt lat="42.535952" lon="1.281686">
        <ele>971.569670</ele>
        <time>2019-08-22T12:46:25.166Z</time>
      </trkpt>
      <trkpt lat="42.535988" lon="1.282200">
        <ele>972.715429</ele>
        <time>2019-08-22T12:46:37.336Z</time>
      </trkpt>
      <trkpt lat="42.535944" lon="1.282844">
        <ele>974.150662</ele>
        <time>2019-08-22T12:46:48.693Z</time>
      </trkpt>
      <trkpt lat="42.535828" lon="1.283366">
        <ele>975.360567</ele>
        <time>2019-08-22T12:46:58.272Z</time>
      </trkpt>
      <trkpt lat="42.535255" lon="1.285047">
        <ele>978.176400</ele>
        <time>2019-08-22T12:47:30.333Z</time>
      </trkpt>
      <trkpt lat="42.535147" lon="1.285753">
        <ele>979.083522</ele>
        <time>2019-08-22T12:47:40.939Z</time>
      </trkpt>
      <trkpt lat="42.535150" lon="1.286285">
        <ele>979.680514</ele>
        <time>2019-08-22T12:47:48.166Z</time>
      </trkpt>
      <trkpt lat="42.535675" lon="1.289277">
        <ele>982.617525</ele>
        <time>2019-08-22T12:48:31.460Z</time>
      </trkpt>
      <trkpt lat="42.535914" lon="1.290136">
        <ele>983.895970</ele>
        <time>2019-08-22T12:48:47.558Z</time>
      </trkpt>
      <trkpt lat="42.536874" lon="1.293046">
        <ele>989.328859</ele>
        <time>2019-08-22T12:49:45.259Z</time>
      </trkpt>
      <trkpt lat="42.537398" lon="1.295888">
        <ele>995.412073</ele>
        <time>2019-08-22T12:50:39.532Z</time>
      </trkpt>
      <trkpt lat="42.537420" lon="1.295947">
        <ele>995.600031</ele>
        <time>2019-08-22T12:50:41.706Z</time>
      </trkpt>
      <trkpt lat="42.537504" lon="1.296173">
        <ele>996.319535</ele>
        <time>2019-08-22T12:50:46.998Z</time>
      </trkpt>
      <trkpt lat="42.537759" lon="1.296715">
        <ele>998.147430</ele>
        <time>2019-08-22T12:51:00.426Z</time>
      </trkpt>
      <trkpt lat="42.537833" lon="1.296892">
        <ele>998.725893</ele>
        <time>2019-08-22T12:51:05.603Z</time>
      </trkpt>
      <trkpt lat="42.537968" lon="1.297219">
        <ele>999.791334</ele>
        <time>2019-08-22T12:51:14.069Z</time>
      </trkpt>
      <trkpt lat="42.537989" lon="1.297269">
        <ele>999.954924</ele>
        <time>2019-08-22T12:51:15.433Z</time>
      </trkpt>
      <trkpt lat="42.538143" lon="1.297641">
        <ele>1001.278424</ele>
        <time>2019-08-22T12:51:27.039Z</time>
      </trkpt>
      <trkpt lat="42.538449" lon="1.298557">
        <ele>1005.365943</ele>
        <time>2019-08-22T12:51:54.105Z</time>
      </trkpt>
      <trkpt lat="42.538498" lon="1.298704">
        <ele>1006.021665</ele>
        <time>2019-08-22T12:51:58.326Z</time>
      </trkpt>
      <trkpt lat="42.538631" lon="1.299079">
        <ele>1007.713087</ele>
        <time>2019-08-22T12:52:09.946Z</time>
      </trkpt>
      <trkpt lat="42.538770" lon="1.299471">
        <ele>1009.481114</ele>
        <time>2019-08-22T12:52:22.283Z</time>
      </trkpt>
      <trkpt lat="42.538952" lon="1.300122">
        <ele>1012.350733</ele>
        <time>2019-08-22T12:52:41.537Z</time>
      </trkpt>
      <trkpt lat="42.539046" lon="1.300730">
        <ele>1014.943483</ele>
        <time>2019-08-22T12:52:59.774Z</time>
      </trkpt>
      <trkpt lat="42.538913" lon="1.302682">
        <ele>1022.935338</ele>
        <time>2019-08-22T12:53:52.859Z</time>
      </trkpt>
      <trkpt lat="42.538953" lon="1.303102">
        <ele>1024.543663</ele>
        <time>2019-08-22T12:54:03.755Z</time>
      </trkpt>
      <trkpt lat="42.539064" lon="1.303443">
        <ele>1025.959442</ele>
        <time>2019-08-22T12:54:13.344Z</time>
      </trkpt>
      <trkpt lat="42.539526" lon="1.304317">
        <ele>1030.044491</ele>
        <time>2019-08-22T12:54:41.331Z</time>
      </trkpt>
      <trkpt lat="42.539821" lon="1.305063">
        <ele>1032.685697</ele>
        <time>2019-08-22T12:55:03.196Z</time>
      </trkpt>
      <trkpt lat="42.540099" lon="1.306045">
        <ele>1035.908527</ele>
        <time>2019-08-22T12:55:29.273Z</time>
      </trkpt>
      <trkpt lat="42.540317" lon="1.306816">
        <ele>1037.851693</ele>
        <time>2019-08-22T12:55:45.052Z</time>
      </trkpt>
      <trkpt lat="42.540451" lon="1.307234">
        <ele>1038.025236</ele>
        <time>2019-08-22T12:55:52.151Z</time>
      </trkpt>
      <trkpt lat="42.540556" lon="1.307495">
        <ele>1038.138446</ele>
        <time>2019-08-22T12:55:56.003Z</time>
      </trkpt>
      <trkpt lat="42.540589" lon="1.307566">
        <ele>1038.170405</ele>
        <time>2019-08-22T12:55:57.190Z</time>
      </trkpt>
      <trkpt lat="42.540669" lon="1.307741">
        <ele>1038.248809</ele>
        <time>2019-08-22T12:55:59.094Z</time>
      </trkpt>
      <trkpt lat="42.541768" lon="1.309544">
        <ele>1039.675970</ele>
        <time>2019-08-22T12:56:21.746Z</time>
      </trkpt>
      <trkpt lat="42.542795" lon="1.311229">
        <ele>1043.626696</ele>
        <time>2019-08-22T12:57:02.880Z</time>
      </trkpt>
      <trkpt lat="42.543468" lon="1.312280">
        <ele>1048.038615</ele>
        <time>2019-08-22T12:57:39.298Z</time>
      </trkpt>
      <trkpt lat="42.543756" lon="1.312634">
        <ele>1049.888142</ele>
        <time>2019-08-22T12:57:53.509Z</time>
      </trkpt>
      <trkpt lat="42.544199" lon="1.313035">
        <ele>1052.513423</ele>
        <time>2019-08-22T12:58:14.464Z</time>
      </trkpt>
      <trkpt lat="42.545106" lon="1.313738">
        <ele>1057.419832</ele>
        <time>2019-08-22T12:58:49.931Z</time>
      </trkpt>
      <trkpt lat="42.545407" lon="1.314006">
        <ele>1057.780267</ele>
        <time>2019-08-22T12:58:59.635Z</time>
      </trkpt>
      <trkpt lat="42.545436" lon="1.314032">
        <ele>1057.815066</ele>
        <time>2019-08-22T12:59:00.080Z</time>
      </trkpt>
      <trkpt lat="42.546609" lon="1.315305">
        <ele>1058.981750</ele>
        <time>2019-08-22T12:59:23.607Z</time>
      </trkpt>
      <trkpt lat="42.547603" lon="1.316342">
        <ele>1057.592886</ele>
        <time>2019-08-22T12:59:37.542Z</time>
      </trkpt>
      <trkpt lat="42.547960" lon="1.316811">
        <ele>1057.166191</ele>
        <time>2019-08-22T12:59:44.178Z</time>
      </trkpt>
      <trkpt lat="42.547984" lon="1.316829">
        <ele>1057.166191</ele>
        <time>2019-08-22T12:59:44.446Z</time>
      </trkpt>
      <trkpt lat="42.548034" lon="1.316869">
        <ele>1057.166191</ele>
        <time>2019-08-22T12:59:45.376Z</time>
      </trkpt>
      <trkpt lat="42.548327" lon="1.317097">
        <ele>1057.166191</ele>
        <time>2019-08-22T12:59:50.211Z</time>
      </trkpt>
      <trkpt lat="42.548450" lon="1.317193">
        <ele>1057.166191</ele>
        <time>2019-08-22T12:59:52.487Z</time>
      </trkpt>
      <trkpt lat="42.548521" lon="1.317227">
        <ele>1057.166191</ele>
        <time>2019-08-22T12:59:53.808Z</time>
      </trkpt>
      <trkpt lat="42.548715" lon="1.317315">
        <ele>1057.166191</ele>
        <time>2019-08-22T12:59:57.111Z</time>
      </trkpt>
      <trkpt lat="42.548742" lon="1.317268">
        <ele>1057.166191</ele>
        <time>2019-08-22T12:59:58.039Z</time>
      </trkpt>
      <trkpt lat="42.548875" lon="1.317299">
        <ele>1057.166191</ele>
        <time>2019-08-22T13:00:01.198Z</time>
      </trkpt>
      <trkpt lat="42.548908" lon="1.317307">
        <ele>1057.166191</ele>
        <time>2019-08-22T13:00:02.116Z</time>
      </trkpt>
      <trkpt lat="42.548908" lon="1.317307">
        <ele>1057.166191</ele>
        <time>2019-08-22T13:00:02.116Z</time>
      </trkpt>
      <trkpt lat="42.300454" lon="1.036160">
        <ele>566.533807</ele>
        <time>2019-08-22T11:36:29.237Z</time>
      </trkpt>
      <trkpt lat="42.300454" lon="1.036160">
        <ele>566.533807</ele>
        <time>2019-08-22T11:36:29.279Z</time>
      </trkpt>
      <trkpt lat="42.301687" lon="1.038070">
        <ele>568.971953</ele>
        <time>2019-08-22T11:37:19.851Z</time>
      </trkpt>
      <trkpt lat="42.302211" lon="1.039439">
        <ele>571.290668</ele>
        <time>2019-08-22T11:37:46.072Z</time>
      </trkpt>
      <trkpt lat="42.302416" lon="1.040688">
        <ele>572.073930</ele>
        <time>2019-08-22T11:38:02.462Z</time>
      </trkpt>
      <trkpt lat="42.302416" lon="1.041551">
        <ele>572.566378</ele>
        <time>2019-08-22T11:38:12.511Z</time>
      </trkpt>
      <trkpt lat="42.301889" lon="1.043558">
        <ele>573.321683</ele>
        <time>2019-08-22T11:38:38.587Z</time>
      </trkpt>
      <trkpt lat="42.301978" lon="1.044642">
        <ele>574.116301</ele>
        <time>2019-08-22T11:38:53.517Z</time>
      </trkpt>
      <trkpt lat="42.302358" lon="1.045569">
        <ele>574.958015</ele>
        <time>2019-08-22T11:39:08.389Z</time>
      </trkpt>
      <trkpt lat="42.303558" lon="1.047576">
        <ele>577.914754</ele>
        <time>2019-08-22T11:39:48.051Z</time>
      </trkpt>
      <trkpt lat="42.304649" lon="1.049099">
        <ele>581.580879</ele>
        <time>2019-08-22T11:40:27.001Z</time>
      </trkpt>
      <trkpt lat="42.304978" lon="1.049635">
        <ele>582.792726</ele>
        <time>2019-08-22T11:40:40.399Z</time>
      </trkpt>
      <trkpt lat="42.305168" lon="1.050235">
        <ele>583.610383</ele>
        <time>2019-08-22T11:40:52.675Z</time>
      </trkpt>
      <trkpt lat="42.305705" lon="1.052525">
        <ele>585.071299</ele>
        <time>2019-08-22T11:41:28.164Z</time>
      </trkpt>
      <trkpt lat="42.305719" lon="1.052821">
        <ele>584.798275</ele>
        <time>2019-08-22T11:41:32.031Z</time>
      </trkpt>
      <trkpt lat="42.305769" lon="1.053355">
        <ele>584.302806</ele>
        <time>2019-08-22T11:41:38.480Z</time>
      </trkpt>
      <trkpt lat="42.305782" lon="1.054318">
        <ele>583.292429</ele>
        <time>2019-08-22T11:41:49.069Z</time>
      </trkpt>
      <trkpt lat="42.305907" lon="1.055022">
        <ele>581.485520</ele>
        <time>2019-08-22T11:41:56.629Z</time>
      </trkpt>
      <trkpt lat="42.306096" lon="1.055691">
        <ele>579.698220</ele>
        <time>2019-08-22T11:42:04.029Z</time>
      </trkpt>
      <trkpt lat="42.306237" lon="1.056020">
        <ele>578.749230</ele>
        <time>2019-08-22T11:42:08.061Z</time>
      </trkpt>
      <trkpt lat="42.306389" lon="1.056123">
        <ele>578.175487</ele>
        <time>2019-08-22T11:42:10.536Z</time>
      </trkpt>
      <trkpt lat="42.307331" lon="1.056487">
        <ele>576.845846</ele>
        <time>2019-08-22T11:42:25.908Z</time>
      </trkpt>
      <trkpt lat="42.307868" lon="1.056622">
        <ele>576.431555</ele>
        <time>2019-08-22T11:42:36.475Z</time>
      </trkpt>
      <trkpt lat="42.308221" lon="1.056788">
        <ele>576.148078</ele>
        <time>2019-08-22T11:42:45.023Z</time>
      </trkpt>
      <trkpt lat="42.308771" lon="1.057461">
        <ele>576.690464</ele>
        <time>2019-08-22T11:43:03.223Z</time>
      </trkpt>
      <trkpt lat="42.308839" lon="1.057662">
        <ele>576.858488</ele>
        <time>2019-08-22T11:43:07.061Z</time>
      </trkpt>
      <trkpt lat="42.308896" lon="1.057546">
        <ele>576.964359</ele>
        <time>2019-08-22T11:43:11.944Z</time>
      </trkpt>
      <trkpt lat="42.309030" lon="1.057792">
        <ele>577.196614</ele>
        <time>2019-08-22T11:43:16.015Z</time>
      </trkpt>
      <trkpt lat="42.309517" lon="1.059661">
        <ele>578.607998</ele>
        <time>2019-08-22T11:43:43.838Z</time>
      </trkpt>
      <trkpt lat="42.309856" lon="1.060312">
        <ele>579.141337</ele>
        <time>2019-08-22T11:43:53.628Z</time>
      </trkpt>
      <trkpt lat="42.310056" lon="1.060533">
        <ele>579.375290</ele>
        <time>2019-08-22T11:43:58.114Z</time>
      </trkpt>
      <trkpt lat="42.310193" lon="1.060684">
        <ele>579.539204</ele>
        <time>2019-08-22T11:44:01.440Z</time>
      </trkpt>
      <trkpt lat="42.310470" lon="1.060925">
        <ele>580.261826</ele>
        <time>2019-08-22T11:44:08.346Z</time>
      </trkpt>
      <trkpt lat="42.310755" lon="1.061078">
        <ele>580.934552</ele>
        <time>2019-08-22T11:44:15.408Z</time>
      </trkpt>
      <trkpt lat="42.311202" lon="1.061163">
        <ele>581.924864</ele>
        <time>2019-08-22T11:44:26.411Z</time>
      </trkpt>
      <trkpt lat="42.311501" lon="1.061149">
        <ele>582.581227</ele>
        <time>2019-08-22T11:44:33.996Z</time>
      </trkpt>
      <trkpt lat="42.311715" lon="1.061092">
        <ele>583.059738</ele>
        <time>2019-08-22T11:44:39.741Z</time>
      </trkpt>
      <trkpt lat="42.312011" lon="1.060943">
        <ele>583.773250</ele>
        <time>2019-08-22T11:44:48.212Z</time>
      </trkpt>
      <trkpt lat="42.313343" lon="1.060041">
        <ele>587.287072</ele>
        <time>2019-08-22T11:45:25.988Z</time>
      </trkpt>
      <trkpt lat="42.313717" lon="1.059930">
        <ele>587.798410</ele>
        <time>2019-08-22T11:45:33.368Z</time>
      </trkpt>
      <trkpt lat="42.314248" lon="1.059878">
        <ele>588.004869</ele>
        <time>2019-08-22T11:45:42.659Z</time>
      </trkpt>
      <trkpt lat="42.316603" lon="1.060003">
        <ele>588.423519</ele>
        <time>2019-08-22T11:46:16.215Z</time>
      </trkpt>
      <trkpt lat="42.317169" lon="1.059973">
        <ele>588.477951</ele>
        <time>2019-08-22T11:46:25.157Z</time>
      </trkpt>
      <trkpt lat="42.317554" lon="1.060098">
        <ele>588.842155</ele>
        <time>2019-08-22T11:46:31.851Z</time>
      </trkpt>
      <trkpt lat="42.318175" lon="1.060502">
        <ele>589.476036</ele>
        <time>2019-08-22T11:46:44.473Z</time>
      </trkpt>
      <trkpt lat="42.319609" lon="1.062302">
        <ele>591.855401</ele>
        <time>2019-08-22T11:47:23.921Z</time>
      </trkpt>
      <trkpt lat="42.320267" lon="1.062608">
        <ele>592.858383</ele>
        <time>2019-08-22T11:47:38.339Z</time>
      </trkpt>
      <trkpt lat="42.320843" lon="1.062739">
        <ele>593.812085</ele>
        <time>2019-08-22T11:47:50.770Z</time>
      </trkpt>
      <trkpt lat="42.321647" lon="1.063159">
        <ele>595.219383</ele>
        <time>2019-08-22T11:48:09.487Z</time>
      </trkpt>
      <trkpt lat="42.321857" lon="1.063282">
        <ele>595.555295</ele>
        <time>2019-08-22T11:48:14.374Z</time>
      </trkpt>
      <trkpt lat="42.322642" lon="1.063748">
        <ele>596.514039</ele>
        <time>2019-08-22T11:48:32.957Z</time>
      </trkpt>
      <trkpt lat="42.322832" lon="1.063903">
        <ele>596.762186</ele>
        <time>2019-08-22T11:48:37.328Z</time>
      </trkpt>
      <trkpt lat="42.323217" lon="1.064369">
        <ele>597.339989</ele>
        <time>2019-08-22T11:48:46.177Z</time>
      </trkpt>
      <trkpt lat="42.323278" lon="1.064443">
        <ele>597.431629</ele>
        <time>2019-08-22T11:48:47.258Z</time>
      </trkpt>
      <trkpt lat="42.323429" lon="1.064656">
        <ele>597.367323</ele>
        <time>2019-08-22T11:48:50.746Z</time>
      </trkpt>
      <trkpt lat="42.323506" lon="1.064793">
        <ele>597.279792</ele>
        <time>2019-08-22T11:48:52.578Z</time>
      </trkpt>
      <trkpt lat="42.323619" lon="1.064927">
        <ele>597.176406</ele>
        <time>2019-08-22T11:48:54.661Z</time>
      </trkpt>
      <trkpt lat="42.323772" lon="1.065041">
        <ele>597.056236</ele>
        <time>2019-08-22T11:48:57.347Z</time>
      </trkpt>
      <trkpt lat="42.324027" lon="1.065284">
        <ele>596.841642</ele>
        <time>2019-08-22T11:49:01.382Z</time>
      </trkpt>
      <trkpt lat="42.324074" lon="1.065331">
        <ele>596.801431</ele>
        <time>2019-08-22T11:49:02.118Z</time>
      </trkpt>
      <trkpt lat="42.324101" lon="1.065358">
        <ele>596.778331</ele>
        <time>2019-08-22T11:49:02.483Z</time>
      </trkpt>
      <trkpt lat="42.324181" lon="1.065407">
        <ele>596.717915</ele>
        <time>2019-08-22T11:49:03.521Z</time>
      </trkpt>
      <trkpt lat="42.324195" lon="1.065415">
        <ele>596.707459</ele>
        <time>2019-08-22T11:49:03.728Z</time>
      </trkpt>
      <trkpt lat="42.324841" lon="1.065642">
        <ele>596.248293</ele>
        <time>2019-08-22T11:49:11.678Z</time>
      </trkpt>
      <trkpt lat="42.325156" lon="1.065870">
        <ele>595.838933</ele>
        <time>2019-08-22T11:49:15.676Z</time>
      </trkpt>
      <trkpt lat="42.325589" lon="1.066291">
        <ele>595.226999</ele>
        <time>2019-08-22T11:49:21.710Z</time>
      </trkpt>
      <trkpt lat="42.325996" lon="1.066570">
        <ele>594.703400</ele>
        <time>2019-08-22T11:49:27.518Z</time>
      </trkpt>
      <trkpt lat="42.326100" lon="1.066644">
        <ele>594.568551</ele>
        <time>2019-08-22T11:49:29.080Z</time>
      </trkpt>
      <trkpt lat="42.326566" lon="1.067011">
        <ele>594.120836</ele>
        <time>2019-08-22T11:49:35.772Z</time>
      </trkpt>
      <trkpt lat="42.326602" lon="1.067041">
        <ele>594.107844</ele>
        <time>2019-08-22T11:49:36.222Z</time>
      </trkpt>
      <trkpt lat="42.326667" lon="1.067091">
        <ele>594.084869</ele>
        <time>2019-08-22T11:49:37.710Z</time>
      </trkpt>
      <trkpt lat="42.327211" lon="1.067330">
        <ele>593.909126</ele>
        <time>2019-08-22T11:49:44.820Z</time>
      </trkpt>
      <trkpt lat="42.327337" lon="1.067379">
        <ele>593.868844</ele>
        <time>2019-08-22T11:49:46.678Z</time>
      </trkpt>
      <trkpt lat="42.327439" lon="1.067417">
        <ele>593.836337</ele>
        <time>2019-08-22T11:49:48.074Z</time>
      </trkpt>
      <trkpt lat="42.327526" lon="1.067448">
        <ele>593.808694</ele>
        <time>2019-08-22T11:49:49.389Z</time>
      </trkpt>
      <trkpt lat="42.327555" lon="1.067453">
        <ele>593.799711</ele>
        <time>2019-08-22T11:49:49.694Z</time>
      </trkpt>
      <trkpt lat="42.327917" lon="1.067413">
        <ele>593.688114</ele>
        <time>2019-08-22T11:49:55.277Z</time>
      </trkpt>
      <trkpt lat="42.328247" lon="1.067581">
        <ele>593.863243</ele>
        <time>2019-08-22T11:50:01.276Z</time>
      </trkpt>
      <trkpt lat="42.328361" lon="1.067638">
        <ele>594.033574</ele>
        <time>2019-08-22T11:50:03.506Z</time>
      </trkpt>
      <trkpt lat="42.328519" lon="1.067713">
        <ele>594.268241</ele>
        <time>2019-08-22T11:50:06.707Z</time>
      </trkpt>
      <trkpt lat="42.329397" lon="1.068148">
        <ele>595.578651</ele>
        <time>2019-08-22T11:50:25.376Z</time>
      </trkpt>
      <trkpt lat="42.329739" lon="1.068216">
        <ele>596.063095</ele>
        <time>2019-08-22T11:50:33.496Z</time>
      </trkpt>
      <trkpt lat="42.330140" lon="1.068204">
        <ele>597.208227</ele>
        <time>2019-08-22T11:50:43.958Z</time>
      </trkpt>
      <trkpt lat="42.330775" lon="1.067975">
        <ele>599.262611</ele>
        <time>2019-08-22T11:51:01.595Z</time>
      </trkpt>
      <trkpt lat="42.331657" lon="1.067336">
        <ele>602.679242</ele>
        <time>2019-08-22T11:51:29.512Z</time>
      </trkpt>
      <trkpt lat="42.332200" lon="1.066904">
        <ele>605.571684</ele>
        <time>2019-08-22T11:51:51.297Z</time>
      </trkpt>
      <trkpt lat="42.332379" lon="1.066760">
        <ele>606.527926</ele>
        <time>2019-08-22T11:51:59.401Z</time>
      </trkpt>
      <trkpt lat="42.332439" lon="1.066703">
        <ele>606.864569</ele>
        <time>2019-08-22T11:52:01.579Z</time>
      </trkpt>
      <trkpt lat="42.332523" lon="1.066625">
        <ele>607.332384</ele>
        <time>2019-08-22T11:52:04.639Z</time>
      </trkpt>
      <trkpt lat="42.332642" lon="1.066514">
        <ele>607.996083</ele>
        <time>2019-08-22T11:52:08.917Z</time>
      </trkpt>
      <trkpt lat="42.332668" lon="1.066489">
        <ele>608.142549</ele>
        <time>2019-08-22T11:52:12.351Z</time>
      </trkpt>
      <trkpt lat="42.333705" lon="1.065636">
        <ele>612.071660</ele>
        <time>2019-08-22T11:52:50.373Z</time>
      </trkpt>
      <trkpt lat="42.334203" lon="1.065290">
        <ele>613.494978</ele>
        <time>2019-08-22T11:53:05.433Z</time>
      </trkpt>
      <trkpt lat="42.334363" lon="1.065270">
        <ele>613.903487</ele>
        <time>2019-08-22T11:53:08.003Z</time>
      </trkpt>
      <trkpt lat="42.335166" lon="1.064900">
        <ele>613.927408</ele>
        <time>2019-08-22T11:53:23.932Z</time>
      </trkpt>
      <trkpt lat="42.335866" lon="1.064713">
        <ele>613.081948</ele>
        <time>2019-08-22T11:53:34.644Z</time>
      </trkpt>
      <trkpt lat="42.336696" lon="1.064804">
        <ele>612.872061</ele>
        <time>2019-08-22T11:53:49.488Z</time>
      </trkpt>
      <trkpt lat="42.336886" lon="1.064933">
        <ele>613.136549</ele>
        <time>2019-08-22T11:53:53.826Z</time>
      </trkpt>
      <trkpt lat="42.337046" lon="1.065173">
        <ele>613.433775</ele>
        <time>2019-08-22T11:53:59.814Z</time>
      </trkpt>
      <trkpt lat="42.337081" lon="1.066223">
        <ele>614.400406</ele>
        <time>2019-08-22T11:54:22.194Z</time>
      </trkpt>
      <trkpt lat="42.337112" lon="1.066358">
        <ele>614.530413</ele>
        <time>2019-08-22T11:54:25.530Z</time>
      </trkpt>
      <trkpt lat="42.337126" lon="1.066420">
        <ele>614.590034</ele>
        <time>2019-08-22T11:54:27.684Z</time>
      </trkpt>
      <trkpt lat="42.337065" lon="1.067227">
        <ele>615.553968</ele>
        <time>2019-08-22T11:54:45.138Z</time>
      </trkpt>
      <trkpt lat="42.337061" lon="1.067980">
        <ele>616.488271</ele>
        <time>2019-08-22T11:55:01.858Z</time>
      </trkpt>
      <trkpt lat="42.337061" lon="1.068102">
        <ele>616.639641</ele>
        <time>2019-08-22T11:55:03.921Z</time>
      </trkpt>
      <trkpt lat="42.337090" lon="1.068353">
        <ele>616.954848</ele>
        <time>2019-08-22T11:55:09.651Z</time>
      </trkpt>
      <trkpt lat="42.337189" lon="1.068455">
        <ele>617.163725</ele>
        <time>2019-08-22T11:55:12.522Z</time>
      </trkpt>
      <trkpt lat="42.337793" lon="1.068566">
        <ele>617.614730</ele>
        <time>2019-08-22T11:55:25.189Z</time>
      </trkpt>
      <trkpt lat="42.339434" lon="1.068512">
        <ele>616.979645</ele>
        <time>2019-08-22T11:55:54.766Z</time>
      </trkpt>
      <trkpt lat="42.340082" lon="1.068909">
        <ele>617.094840</ele>
        <time>2019-08-22T11:56:08.237Z</time>
      </trkpt>
      <trkpt lat="42.340492" lon="1.069151">
        <ele>617.167279</ele>
        <time>2019-08-22T11:56:17.494Z</time>
      </trkpt>
      <trkpt lat="42.341194" lon="1.069619">
        <ele>617.711920</ele>
        <time>2019-08-22T11:56:32.018Z</time>
      </trkpt>
      <trkpt lat="42.341874" lon="1.069914">
        <ele>618.988468</ele>
        <time>2019-08-22T11:56:47.725Z</time>
      </trkpt>
      <trkpt lat="42.342367" lon="1.069857">
        <ele>619.872977</ele>
        <time>2019-08-22T11:56:59.453Z</time>
      </trkpt>
      <trkpt lat="42.343305" lon="1.069124">
        <ele>621.423140</ele>
        <time>2019-08-22T11:57:25.395Z</time>
      </trkpt>
      <trkpt lat="42.343886" lon="1.068273">
        <ele>622.513187</ele>
        <time>2019-08-22T11:57:41.212Z</time>
      </trkpt>
      <trkpt lat="42.344401" lon="1.067851">
        <ele>624.208039</ele>
        <time>2019-08-22T11:57:49.080Z</time>
      </trkpt>
      <trkpt lat="42.344911" lon="1.067673">
        <ele>626.070412</ele>
        <time>2019-08-22T11:57:58.611Z</time>
      </trkpt>
      <trkpt lat="42.345420" lon="1.067730">
        <ele>627.876367</ele>
        <time>2019-08-22T11:58:12.742Z</time>
      </trkpt>
      <trkpt lat="42.345849" lon="1.067787">
        <ele>630.145035</ele>
        <time>2019-08-22T11:58:34.074Z</time>
      </trkpt>
      <trkpt lat="42.346554" lon="1.068058">
        <ele>639.547092</ele>
        <time>2019-08-22T11:59:24.993Z</time>
      </trkpt>
      <trkpt lat="42.347606" lon="1.068435">
        <ele>652.295021</ele>
        <time>2019-08-22T12:00:55.338Z</time>
      </trkpt>
      <trkpt lat="42.348621" lon="1.069002">
        <ele>653.404246</ele>
        <time>2019-08-22T12:01:44.649Z</time>
      </trkpt>
      <trkpt lat="42.349471" lon="1.069629">
        <ele>649.323938</ele>
        <time>2019-08-22T12:01:56.162Z</time>
      </trkpt>
      <trkpt lat="42.350284" lon="1.070387">
        <ele>636.831337</ele>
        <time>2019-08-22T12:02:07.649Z</time>
      </trkpt>
      <trkpt lat="42.350505" lon="1.070675">
        <ele>632.949010</ele>
        <time>2019-08-22T12:02:10.223Z</time>
      </trkpt>
      <trkpt lat="42.351709" lon="1.072250">
        <ele>623.814140</ele>
        <time>2019-08-22T12:02:25.904Z</time>
      </trkpt>
      <trkpt lat="42.352123" lon="1.072967">
        <ele>622.689489</ele>
        <time>2019-08-22T12:02:37.828Z</time>
      </trkpt>
      <trkpt lat="42.352765" lon="1.073710">
        <ele>622.938692</ele>
        <time>2019-08-22T12:02:52.348Z</time>
      </trkpt>
      <trkpt lat="42.353470" lon="1.074116">
        <ele>623.377062</ele>
        <time>2019-08-22T12:03:05.834Z</time>
      </trkpt>
      <trkpt lat="42.354150" lon="1.074347">
        <ele>624.241255</ele>
        <time>2019-08-22T12:03:19.049Z</time>
      </trkpt>
      <trkpt lat="42.356337" lon="1.074834">
        <ele>627.625477</ele>
        <time>2019-08-22T12:04:06.438Z</time>
      </trkpt>
      <trkpt lat="42.358334" lon="1.076085">
        <ele>631.561932</ele>
        <time>2019-08-22T12:04:56.056Z</time>
      </trkpt>
      <trkpt lat="42.358919" lon="1.077049">
        <ele>632.640373</ele>
        <time>2019-08-22T12:05:13.241Z</time>
      </trkpt>
      <trkpt lat="42.359332" lon="1.078386">
        <ele>633.801434</ele>
        <time>2019-08-22T12:05:33.897Z</time>
      </trkpt>
      <trkpt lat="42.359372" lon="1.078517">
        <ele>633.882213</ele>
        <time>2019-08-22T12:05:35.968Z</time>
      </trkpt>
      <trkpt lat="42.359439" lon="1.078733">
        <ele>634.015717</ele>
        <time>2019-08-22T12:05:38.952Z</time>
      </trkpt>
      <trkpt lat="42.359460" lon="1.078815">
        <ele>634.065176</ele>
        <time>2019-08-22T12:05:40.300Z</time>
      </trkpt>
      <trkpt lat="42.359522" lon="1.079204">
        <ele>634.291965</ele>
        <time>2019-08-22T12:05:45.677Z</time>
      </trkpt>
      <trkpt lat="42.359561" lon="1.079570">
        <ele>634.502705</ele>
        <time>2019-08-22T12:05:50.841Z</time>
      </trkpt>
      <trkpt lat="42.359583" lon="1.079843">
        <ele>634.659209</ele>
        <time>2019-08-22T12:05:54.357Z</time>
      </trkpt>
      <trkpt lat="42.359579" lon="1.080158">
        <ele>634.838753</ele>
        <time>2019-08-22T12:05:58.214Z</time>
      </trkpt>
      <trkpt lat="42.359519" lon="1.080650">
        <ele>635.084578</ele>
        <time>2019-08-22T12:06:04.381Z</time>
      </trkpt>
      <trkpt lat="42.359493" lon="1.080797">
        <ele>635.096082</ele>
        <time>2019-08-22T12:06:06.485Z</time>
      </trkpt>
      <trkpt lat="42.359437" lon="1.081101">
        <ele>635.119927</ele>
        <time>2019-08-22T12:06:10.750Z</time>
      </trkpt>
      <trkpt lat="42.359315" lon="1.082003">
        <ele>635.189715</ele>
        <time>2019-08-22T12:06:20.522Z</time>
      </trkpt>
      <trkpt lat="42.359328" lon="1.082488">
        <ele>635.226652</ele>
        <time>2019-08-22T12:06:25.534Z</time>
      </trkpt>
      <trkpt lat="42.359464" lon="1.083057">
        <ele>635.353324</ele>
        <time>2019-08-22T12:06:31.693Z</time>
      </trkpt>
      <trkpt lat="42.359529" lon="1.083203">
        <ele>635.493963</ele>
        <time>2019-08-22T12:06:33.215Z</time>
      </trkpt>
      <trkpt lat="42.359655" lon="1.083490">
        <ele>635.769407</ele>
        <time>2019-08-22T12:06:37.559Z</time>
      </trkpt>
      <trkpt lat="42.359838" lon="1.083834">
        <ele>636.119141</ele>
        <time>2019-08-22T12:06:43.176Z</time>
      </trkpt>
      <trkpt lat="42.359885" lon="1.083924">
        <ele>636.210072</ele>
        <time>2019-08-22T12:06:44.538Z</time>
      </trkpt>
      <trkpt lat="42.360101" lon="1.084371">
        <ele>636.650747</ele>
        <time>2019-08-22T12:06:52.565Z</time>
      </trkpt>
      <trkpt lat="42.360224" lon="1.084724">
        <ele>636.972760</ele>
        <time>2019-08-22T12:06:59.329Z</time>
      </trkpt>
      <trkpt lat="42.360315" lon="1.085074">
        <ele>637.283826</ele>
        <time>2019-08-22T12:07:05.747Z</time>
      </trkpt>
      <trkpt lat="42.360335" lon="1.085150">
        <ele>637.400085</ele>
        <time>2019-08-22T12:07:07.330Z</time>
      </trkpt>
      <trkpt lat="42.360382" lon="1.085435">
        <ele>637.820894</ele>
        <time>2019-08-22T12:07:12.599Z</time>
      </trkpt>
      <trkpt lat="42.360450" lon="1.085849">
        <ele>638.432056</ele>
        <time>2019-08-22T12:07:20.024Z</time>
      </trkpt>
      <trkpt lat="42.360607" lon="1.086843">
        <ele>639.896832</ele>
        <time>2019-08-22T12:07:37.657Z</time>
      </trkpt>
      <trkpt lat="42.361112" lon="1.088586">
        <ele>641.840862</ele>
        <time>2019-08-22T12:08:05.959Z</time>
      </trkpt>
      <trkpt lat="42.361276" lon="1.090035">
        <ele>643.033412</ele>
        <time>2019-08-22T12:08:25.321Z</time>
      </trkpt>
      <trkpt lat="42.361357" lon="1.090344">
        <ele>643.261961</ele>
        <time>2019-08-22T12:08:29.800Z</time>
      </trkpt>
      <trkpt lat="42.361768" lon="1.091259">
        <ele>644.008386</ele>
        <time>2019-08-22T12:08:44.841Z</time>
      </trkpt>
      <trkpt lat="42.363198" lon="1.094027">
        <ele>646.180124</ele>
        <time>2019-08-22T12:09:31.627Z</time>
      </trkpt>
      <trkpt lat="42.364106" lon="1.095519">
        <ele>646.673093</ele>
        <time>2019-08-22T12:09:53.403Z</time>
      </trkpt>
      <trkpt lat="42.365734" lon="1.097707">
        <ele>647.847186</ele>
        <time>2019-08-22T12:10:31.829Z</time>
      </trkpt>
      <trkpt lat="42.366326" lon="1.099195">
        <ele>648.879674</ele>
        <time>2019-08-22T12:10:55.275Z</time>
      </trkpt>
      <trkpt lat="42.366485" lon="1.100680">
        <ele>649.777707</ele>
        <time>2019-08-22T12:11:15.405Z</time>
      </trkpt>
      <trkpt lat="42.367129" lon="1.102100">
        <ele>650.846572</ele>
        <time>2019-08-22T12:11:37.137Z</time>
      </trkpt>
      <trkpt lat="42.367680" lon="1.103805">
        <ele>652.363362</ele>
        <time>2019-08-22T12:12:03.924Z</time>
      </trkpt>
      <trkpt lat="42.368108" lon="1.104399">
        <ele>653.220541</ele>
        <time>2019-08-22T12:12:16.530Z</time>
      </trkpt>
      <trkpt lat="42.368522" lon="1.104872">
        <ele>654.034829</ele>
        <time>2019-08-22T12:12:27.681Z</time>
      </trkpt>
      <trkpt lat="42.369123" lon="1.105244">
        <ele>655.028102</ele>
        <time>2019-08-22T12:12:41.632Z</time>
      </trkpt>
      <trkpt lat="42.369610" lon="1.105677">
        <ele>656.146310</ele>
        <time>2019-08-22T12:12:54.033Z</time>
      </trkpt>
      <trkpt lat="42.371400" lon="1.107960">
        <ele>661.813647</ele>
        <time>2019-08-22T12:13:52.580Z</time>
      </trkpt>
      <trkpt lat="42.372029" lon="1.108595">
        <ele>663.884637</ele>
        <time>2019-08-22T12:14:14.097Z</time>
      </trkpt>
      <trkpt lat="42.372532" lon="1.108935">
        <ele>665.491649</ele>
        <time>2019-08-22T12:14:29.917Z</time>
      </trkpt>
      <trkpt lat="42.373270" lon="1.109171">
        <ele>667.659127</ele>
        <time>2019-08-22T12:14:50.596Z</time>
      </trkpt>
      <trkpt lat="42.374157" lon="1.109763">
        <ele>669.539917</ele>
        <time>2019-08-22T12:15:13.245Z</time>
      </trkpt>
      <trkpt lat="42.375009" lon="1.110511">
        <ele>670.833202</ele>
        <time>2019-08-22T12:15:31.291Z</time>
      </trkpt>
      <trkpt lat="42.375915" lon="1.111733">
        <ele>672.629386</ele>
        <time>2019-08-22T12:15:54.897Z</time>
      </trkpt>
      <trkpt lat="42.376412" lon="1.112045">
        <ele>673.410990</ele>
        <time>2019-08-22T12:16:07.595Z</time>
      </trkpt>
      <trkpt lat="42.376699" lon="1.112122">
        <ele>673.823400</ele>
        <time>2019-08-22T12:16:14.764Z</time>
      </trkpt>
      <trkpt lat="42.376753" lon="1.112130">
        <ele>673.898876</ele>
        <time>2019-08-22T12:16:16.449Z</time>
      </trkpt>
      <trkpt lat="42.376984" lon="1.112165">
        <ele>674.221834</ele>
        <time>2019-08-22T12:16:21.971Z</time>
      </trkpt>
      <trkpt lat="42.377210" lon="1.112166">
        <ele>674.535842</ele>
        <time>2019-08-22T12:16:27.539Z</time>
      </trkpt>
      <trkpt lat="42.377674" lon="1.112050">
        <ele>675.191429</ele>
        <time>2019-08-22T12:16:38.217Z</time>
      </trkpt>
      <trkpt lat="42.377925" lon="1.111961">
        <ele>675.551936</ele>
        <time>2019-08-22T12:16:44.165Z</time>
      </trkpt>
      <trkpt lat="42.378211" lon="1.111871">
        <ele>675.959903</ele>
        <time>2019-08-22T12:16:48.708Z</time>
      </trkpt>
      <trkpt lat="42.378534" lon="1.111738">
        <ele>675.621580</ele>
        <time>2019-08-22T12:16:52.920Z</time>
      </trkpt>
      <trkpt lat="42.378871" lon="1.111632">
        <ele>674.779646</ele>
        <time>2019-08-22T12:16:56.808Z</time>
      </trkpt>
      <trkpt lat="42.379329" lon="1.111583">
        <ele>673.661631</ele>
        <time>2019-08-22T12:17:01.590Z</time>
      </trkpt>
      <trkpt lat="42.379507" lon="1.111608">
        <ele>673.226144</ele>
        <time>2019-08-22T12:17:03.325Z</time>
      </trkpt>
      <trkpt lat="42.379710" lon="1.111651">
        <ele>672.726133</ele>
        <time>2019-08-22T12:17:05.374Z</time>
      </trkpt>
      <trkpt lat="42.380278" lon="1.111974">
        <ele>671.424138</ele>
        <time>2019-08-22T12:17:11.506Z</time>
      </trkpt>
      <trkpt lat="42.380458" lon="1.112155">
        <ele>671.080914</ele>
        <time>2019-08-22T12:17:13.754Z</time>
      </trkpt>
      <trkpt lat="42.380531" lon="1.112228">
        <ele>670.941991</ele>
        <time>2019-08-22T12:17:14.738Z</time>
      </trkpt>
      <trkpt lat="42.381217" lon="1.113177">
        <ele>669.440630</ele>
        <time>2019-08-22T12:17:26.021Z</time>
      </trkpt>
      <trkpt lat="42.381419" lon="1.113464">
        <ele>669.016750</ele>
        <time>2019-08-22T12:17:30.605Z</time>
      </trkpt>
      <trkpt lat="42.382180" lon="1.114508">
        <ele>670.480236</ele>
        <time>2019-08-22T12:17:54.422Z</time>
      </trkpt>
      <trkpt lat="42.382296" lon="1.114655">
        <ele>670.694864</ele>
        <time>2019-08-22T12:17:58.128Z</time>
      </trkpt>
      <trkpt lat="42.382545" lon="1.114953">
        <ele>671.143794</ele>
        <time>2019-08-22T12:18:05.445Z</time>
      </trkpt>
      <trkpt lat="42.383056" lon="1.115513">
        <ele>671.495735</ele>
        <time>2019-08-22T12:18:18.130Z</time>
      </trkpt>
      <trkpt lat="42.383098" lon="1.115559">
        <ele>671.503170</ele>
        <time>2019-08-22T12:18:19.056Z</time>
      </trkpt>
      <trkpt lat="42.383432" lon="1.115910">
        <ele>671.561361</ele>
        <time>2019-08-22T12:18:26.188Z</time>
      </trkpt>
      <trkpt lat="42.383706" lon="1.116162">
        <ele>671.606948</ele>
        <time>2019-08-22T12:18:31.265Z</time>
      </trkpt>
      <trkpt lat="42.384204" lon="1.116469">
        <ele>671.682256</ele>
        <time>2019-08-22T12:18:38.265Z</time>
      </trkpt>
      <trkpt lat="42.384588" lon="1.116591">
        <ele>671.046202</ele>
        <time>2019-08-22T12:18:42.630Z</time>
      </trkpt>
      <trkpt lat="42.385387" lon="1.116701">
        <ele>669.745956</ele>
        <time>2019-08-22T12:18:51.524Z</time>
      </trkpt>
      <trkpt lat="42.385733" lon="1.116758">
        <ele>669.181653</ele>
        <time>2019-08-22T12:18:55.501Z</time>
      </trkpt>
      <trkpt lat="42.385810" lon="1.116779">
        <ele>669.054486</ele>
        <time>2019-08-22T12:18:56.301Z</time>
      </trkpt>
      <trkpt lat="42.386156" lon="1.116899">
        <ele>668.631442</ele>
        <time>2019-08-22T12:19:00.443Z</time>
      </trkpt>
      <trkpt lat="42.386501" lon="1.117107">
        <ele>668.342550</ele>
        <time>2019-08-22T12:19:04.909Z</time>
      </trkpt>
      <trkpt lat="42.387025" lon="1.117653">
        <ele>667.836751</ele>
        <time>2019-08-22T12:19:13.204Z</time>
      </trkpt>
      <trkpt lat="42.387087" lon="1.117745">
        <ele>667.766386</ele>
        <time>2019-08-22T12:19:14.246Z</time>
      </trkpt>
      <trkpt lat="42.387136" lon="1.117822">
        <ele>667.708961</ele>
        <time>2019-08-22T12:19:15.426Z</time>
      </trkpt>
      <trkpt lat="42.387519" lon="1.118640">
        <ele>667.558697</ele>
        <time>2019-08-22T12:19:26.363Z</time>
      </trkpt>
      <trkpt lat="42.387577" lon="1.118792">
        <ele>667.626824</ele>
        <time>2019-08-22T12:19:28.367Z</time>
      </trkpt>
      <trkpt lat="42.387679" lon="1.119060">
        <ele>667.746879</ele>
        <time>2019-08-22T12:19:32.052Z</time>
      </trkpt>
      <trkpt lat="42.387851" lon="1.119603">
        <ele>667.982149</ele>
        <time>2019-08-22T12:19:39.525Z</time>
      </trkpt>
      <trkpt lat="42.387873" lon="1.119689">
        <ele>668.018391</ele>
        <time>2019-08-22T12:19:40.669Z</time>
      </trkpt>
      <trkpt lat="42.387895" lon="1.119787">
        <ele>668.059177</ele>
        <time>2019-08-22T12:19:42.266Z</time>
      </trkpt>
      <trkpt lat="42.388135" lon="1.121217">
        <ele>668.892729</ele>
        <time>2019-08-22T12:20:01.978Z</time>
      </trkpt>
      <trkpt lat="42.388315" lon="1.121716">
        <ele>669.311829</ele>
        <time>2019-08-22T12:20:09.819Z</time>
      </trkpt>
      <trkpt lat="42.388544" lon="1.122124">
        <ele>669.698557</ele>
        <time>2019-08-22T12:20:16.969Z</time>
      </trkpt>
      <trkpt lat="42.388942" lon="1.122572">
        <ele>670.232052</ele>
        <time>2019-08-22T12:20:26.978Z</time>
      </trkpt>
      <trkpt lat="42.390060" lon="1.123323">
        <ele>671.741233</ele>
        <time>2019-08-22T12:20:52.050Z</time>
      </trkpt>
      <trkpt lat="42.390578" lon="1.123857">
        <ele>672.538355</ele>
        <time>2019-08-22T12:21:04.731Z</time>
      </trkpt>
      <trkpt lat="42.390691" lon="1.123999">
        <ele>672.736894</ele>
        <time>2019-08-22T12:21:07.975Z</time>
      </trkpt>
      <trkpt lat="42.390930" lon="1.124327">
        <ele>673.175136</ele>
        <time>2019-08-22T12:21:13.902Z</time>
      </trkpt>
      <trkpt lat="42.391083" lon="1.124545">
        <ele>673.461168</ele>
        <time>2019-08-22T12:21:17.487Z</time>
      </trkpt>
      <trkpt lat="42.391157" lon="1.124653">
        <ele>673.601287</ele>
        <time>2019-08-22T12:21:19.499Z</time>
      </trkpt>
      <trkpt lat="42.391169" lon="1.124702">
        <ele>673.650387</ele>
        <time>2019-08-22T12:21:20.736Z</time>
      </trkpt>
      <trkpt lat="42.391488" lon="1.125140">
        <ele>674.235461</ele>
        <time>2019-08-22T12:21:29.511Z</time>
      </trkpt>
      <trkpt lat="42.391801" lon="1.125451">
        <ele>674.773554</ele>
        <time>2019-08-22T12:21:38.718Z</time>
      </trkpt>
      <trkpt lat="42.391874" lon="1.125508">
        <ele>674.980582</ele>
        <time>2019-08-22T12:21:40.463Z</time>
      </trkpt>
      <trkpt lat="42.391921" lon="1.125536">
        <ele>675.106732</ele>
        <time>2019-08-22T12:21:41.103Z</time>
      </trkpt>
      <trkpt lat="42.392235" lon="1.125694">
        <ele>675.929702</ele>
        <time>2019-08-22T12:21:49.578Z</time>
      </trkpt>
      <trkpt lat="42.392289" lon="1.125714">
        <ele>676.067240</ele>
        <time>2019-08-22T12:21:50.322Z</time>
      </trkpt>
      <trkpt lat="42.392349" lon="1.125734">
        <ele>676.219047</ele>
        <time>2019-08-22T12:21:52.016Z</time>
      </trkpt>
      <trkpt lat="42.392719" lon="1.125788">
        <ele>677.133313</ele>
        <time>2019-08-22T12:22:01.255Z</time>
      </trkpt>
      <trkpt lat="42.392781" lon="1.125785">
        <ele>677.285730</ele>
        <time>2019-08-22T12:22:03.313Z</time>
      </trkpt>
      <trkpt lat="42.392844" lon="1.125777">
        <ele>677.441185</ele>
        <time>2019-08-22T12:22:05.618Z</time>
      </trkpt>
      <trkpt lat="42.393113" lon="1.125730">
        <ele>678.107532</ele>
        <time>2019-08-22T12:22:11.265Z</time>
      </trkpt>
      <trkpt lat="42.393140" lon="1.125700">
        <ele>678.193339</ele>
        <time>2019-08-22T12:22:12.805Z</time>
      </trkpt>
      <trkpt lat="42.393250" lon="1.125682">
        <ele>678.465549</ele>
        <time>2019-08-22T12:22:16.041Z</time>
      </trkpt>
      <trkpt lat="42.393890" lon="1.125576">
        <ele>679.634617</ele>
        <time>2019-08-22T12:22:32.472Z</time>
      </trkpt>
      <trkpt lat="42.394416" lon="1.125658">
        <ele>680.359516</ele>
        <time>2019-08-22T12:22:44.998Z</time>
      </trkpt>
      <trkpt lat="42.398268" lon="1.127399">
        <ele>682.099560</ele>
        <time>2019-08-22T12:23:48.646Z</time>
      </trkpt>
      <trkpt lat="42.398657" lon="1.127629">
        <ele>682.152103</ele>
        <time>2019-08-22T12:23:54.739Z</time>
      </trkpt>
      <trkpt lat="42.399580" lon="1.128801">
        <ele>682.122401</ele>
        <time>2019-08-22T12:24:12.879Z</time>
      </trkpt>
      <trkpt lat="42.400055" lon="1.129848">
        <ele>682.453102</ele>
        <time>2019-08-22T12:24:26.666Z</time>
      </trkpt>
      <trkpt lat="42.400434" lon="1.130508">
        <ele>683.018873</ele>
        <time>2019-08-22T12:24:37.277Z</time>
      </trkpt>
      <trkpt lat="42.400985" lon="1.130956">
        <ele>683.607820</ele>
        <time>2019-08-22T12:24:50.068Z</time>
      </trkpt>
      <trkpt lat="42.401294" lon="1.131045">
        <ele>684.150283</ele>
        <time>2019-08-22T12:24:57.024Z</time>
      </trkpt>
      <trkpt lat="42.401621" lon="1.131053">
        <ele>684.994727</ele>
        <time>2019-08-22T12:25:04.734Z</time>
      </trkpt>
      <trkpt lat="42.402243" lon="1.130911">
        <ele>686.623376</ele>
        <time>2019-08-22T12:25:20.959Z</time>
      </trkpt>
      <trkpt lat="42.402715" lon="1.130681">
        <ele>687.918563</ele>
        <time>2019-08-22T12:25:34.547Z</time>
      </trkpt>
      <trkpt lat="42.403358" lon="1.130259">
        <ele>689.626349</ele>
        <time>2019-08-22T12:25:54.413Z</time>
      </trkpt>
      <trkpt lat="42.404470" lon="1.129405">
        <ele>692.579803</ele>
        <time>2019-08-22T12:26:24.767Z</time>
      </trkpt>
      <trkpt lat="42.404998" lon="1.129129">
        <ele>692.687653</ele>
        <time>2019-08-22T12:26:34.290Z</time>
      </trkpt>
      <trkpt lat="42.405539" lon="1.128896">
        <ele>692.795833</ele>
        <time>2019-08-22T12:26:42.490Z</time>
      </trkpt>
      <trkpt lat="42.405758" lon="1.128820">
        <ele>692.838913</ele>
        <time>2019-08-22T12:26:45.527Z</time>
      </trkpt>
      <trkpt lat="42.406099" lon="1.128673">
        <ele>692.907106</ele>
        <time>2019-08-22T12:26:50.269Z</time>
      </trkpt>
      <trkpt lat="42.406652" lon="1.128449">
        <ele>692.821462</ele>
        <time>2019-08-22T12:26:57.932Z</time>
      </trkpt>
      <trkpt lat="42.406822" lon="1.128371">
        <ele>692.785867</ele>
        <time>2019-08-22T12:27:00.691Z</time>
      </trkpt>
      <trkpt lat="42.407256" lon="1.128285">
        <ele>692.698886</ele>
        <time>2019-08-22T12:27:07.529Z</time>
      </trkpt>
      <trkpt lat="42.407565" lon="1.128176">
        <ele>692.635565</ele>
        <time>2019-08-22T12:27:12.478Z</time>
      </trkpt>
      <trkpt lat="42.408052" lon="1.127736">
        <ele>692.276534</ele>
        <time>2019-08-22T12:27:20.400Z</time>
      </trkpt>
      <trkpt lat="42.408293" lon="1.127518">
        <ele>691.909302</ele>
        <time>2019-08-22T12:27:24.035Z</time>
      </trkpt>
      <trkpt lat="42.408405" lon="1.127424">
        <ele>691.742341</ele>
        <time>2019-08-22T12:27:25.550Z</time>
      </trkpt>
      <trkpt lat="42.408757" lon="1.127195">
        <ele>691.247516</ele>
        <time>2019-08-22T12:27:29.983Z</time>
      </trkpt>
      <trkpt lat="42.409143" lon="1.127207">
        <ele>690.758269</ele>
        <time>2019-08-22T12:27:34.438Z</time>
      </trkpt>
      <trkpt lat="42.409227" lon="1.127242">
        <ele>690.646905</ele>
        <time>2019-08-22T12:27:35.405Z</time>
      </trkpt>
      <trkpt lat="42.409300" lon="1.127285">
        <ele>690.546034</ele>
        <time>2019-08-22T12:27:36.285Z</time>
      </trkpt>
      <trkpt lat="42.409664" lon="1.127667">
        <ele>690.028408</ele>
        <time>2019-08-22T12:27:41.562Z</time>
      </trkpt>
      <trkpt lat="42.409708" lon="1.127735">
        <ele>689.961074</ele>
        <time>2019-08-22T12:27:42.247Z</time>
      </trkpt>
      <trkpt lat="42.409792" lon="1.127874">
        <ele>689.827309</ele>
        <time>2019-08-22T12:27:43.688Z</time>
      </trkpt>
      <trkpt lat="42.409882" lon="1.128020">
        <ele>689.685671</ele>
        <time>2019-08-22T12:27:45.393Z</time>
      </trkpt>
      <trkpt lat="42.409914" lon="1.128075">
        <ele>689.633524</ele>
        <time>2019-08-22T12:27:46.032Z</time>
      </trkpt>
      <trkpt lat="42.409937" lon="1.128112">
        <ele>689.597506</ele>
        <time>2019-08-22T12:27:46.429Z</time>
      </trkpt>
      <trkpt lat="42.410006" lon="1.128230">
        <ele>689.485411</ele>
        <time>2019-08-22T12:27:47.721Z</time>
      </trkpt>
      <trkpt lat="42.410277" lon="1.128695">
        <ele>689.044251</ele>
        <time>2019-08-22T12:27:52.682Z</time>
      </trkpt>
      <trkpt lat="42.410299" lon="1.128733">
        <ele>689.008291</ele>
        <time>2019-08-22T12:27:53.173Z</time>
      </trkpt>
      <trkpt lat="42.410754" lon="1.129488">
        <ele>688.716395</ele>
        <time>2019-08-22T12:28:03.804Z</time>
      </trkpt>
      <trkpt lat="42.410939" lon="1.129798">
        <ele>689.101901</ele>
        <time>2019-08-22T12:28:09.366Z</time>
      </trkpt>
      <trkpt lat="42.410954" lon="1.129825">
        <ele>689.134580</ele>
        <time>2019-08-22T12:28:09.647Z</time>
      </trkpt>
      <trkpt lat="42.411090" lon="1.130115">
        <ele>689.466846</ele>
        <time>2019-08-22T12:28:14.600Z</time>
      </trkpt>
      <trkpt lat="42.411350" lon="1.130566">
        <ele>690.020241</ele>
        <time>2019-08-22T12:28:22.858Z</time>
      </trkpt>
      <trkpt lat="42.411372" lon="1.130608">
        <ele>690.070045</ele>
        <time>2019-08-22T12:28:23.460Z</time>
      </trkpt>
      <trkpt lat="42.411503" lon="1.130841">
        <ele>690.353286</ele>
        <time>2019-08-22T12:28:29.515Z</time>
      </trkpt>
      <trkpt lat="42.411605" lon="1.131013">
        <ele>690.566648</ele>
        <time>2019-08-22T12:28:32.570Z</time>
      </trkpt>
      <trkpt lat="42.411738" lon="1.131284">
        <ele>690.940920</ele>
        <time>2019-08-22T12:28:39.156Z</time>
      </trkpt>
      <trkpt lat="42.411844" lon="1.131502">
        <ele>691.471696</ele>
        <time>2019-08-22T12:28:43.391Z</time>
      </trkpt>
      <trkpt lat="42.411876" lon="1.131571">
        <ele>691.637384</ele>
        <time>2019-08-22T12:28:45.761Z</time>
      </trkpt>
      <trkpt lat="42.411925" lon="1.131663">
        <ele>691.868052</ele>
        <time>2019-08-22T12:28:47.429Z</time>
      </trkpt>
      <trkpt lat="42.411969" lon="1.131734">
        <ele>692.056539</ele>
        <time>2019-08-22T12:28:48.738Z</time>
      </trkpt>
      <trkpt lat="42.412017" lon="1.131800">
        <ele>692.244918</ele>
        <time>2019-08-22T12:28:50.240Z</time>
      </trkpt>
      <trkpt lat="42.412073" lon="1.131862">
        <ele>692.444118</ele>
        <time>2019-08-22T12:28:52.237Z</time>
      </trkpt>
      <trkpt lat="42.412138" lon="1.131927">
        <ele>692.666639</ele>
        <time>2019-08-22T12:28:55.226Z</time>
      </trkpt>
      <trkpt lat="42.412195" lon="1.131979">
        <ele>692.855911</ele>
        <time>2019-08-22T12:28:56.706Z</time>
      </trkpt>
      <trkpt lat="42.412256" lon="1.132028">
        <ele>693.051235</ele>
        <time>2019-08-22T12:28:58.192Z</time>
      </trkpt>
      <trkpt lat="42.412314" lon="1.132066">
        <ele>693.228679</ele>
        <time>2019-08-22T12:28:59.721Z</time>
      </trkpt>
      <trkpt lat="42.412344" lon="1.132084">
        <ele>693.319046</ele>
        <time>2019-08-22T12:29:00.532Z</time>
      </trkpt>
      <trkpt lat="42.412368" lon="1.132098">
        <ele>693.391014</ele>
        <time>2019-08-22T12:29:01.269Z</time>
      </trkpt>
      <trkpt lat="42.412436" lon="1.132138">
        <ele>693.595192</ele>
        <time>2019-08-22T12:29:04.552Z</time>
      </trkpt>
      <trkpt lat="42.413882" lon="1.132674">
        <ele>696.298708</ele>
        <time>2019-08-22T12:29:42.683Z</time>
      </trkpt>
      <trkpt lat="42.414216" lon="1.132690">
        <ele>696.543957</ele>
        <time>2019-08-22T12:29:48.038Z</time>
      </trkpt>
      <trkpt lat="42.414537" lon="1.132603">
        <ele>696.784182</ele>
        <time>2019-08-22T12:29:52.652Z</time>
      </trkpt>
      <trkpt lat="42.414580" lon="1.132587">
        <ele>696.816905</ele>
        <time>2019-08-22T12:29:53.223Z</time>
      </trkpt>
      <trkpt lat="42.414689" lon="1.132540">
        <ele>696.900847</ele>
        <time>2019-08-22T12:29:54.490Z</time>
      </trkpt>
      <trkpt lat="42.415503" lon="1.132232">
        <ele>696.271622</ele>
        <time>2019-08-22T12:30:04.648Z</time>
      </trkpt>
      <trkpt lat="42.416035" lon="1.132170">
        <ele>695.498332</ele>
        <time>2019-08-22T12:30:10.440Z</time>
      </trkpt>
      <trkpt lat="42.416418" lon="1.132207">
        <ele>694.942261</ele>
        <time>2019-08-22T12:30:14.715Z</time>
      </trkpt>
      <trkpt lat="42.416490" lon="1.132223">
        <ele>694.836597</ele>
        <time>2019-08-22T12:30:15.532Z</time>
      </trkpt>
      <trkpt lat="42.416601" lon="1.132245">
        <ele>694.674135</ele>
        <time>2019-08-22T12:30:16.834Z</time>
      </trkpt>
      <trkpt lat="42.416753" lon="1.132277">
        <ele>694.494787</ele>
        <time>2019-08-22T12:30:18.759Z</time>
      </trkpt>
      <trkpt lat="42.416861" lon="1.132293">
        <ele>694.490305</ele>
        <time>2019-08-22T12:30:20.101Z</time>
      </trkpt>
      <trkpt lat="42.416946" lon="1.132300">
        <ele>694.486792</ele>
        <time>2019-08-22T12:30:21.173Z</time>
      </trkpt>
      <trkpt lat="42.417026" lon="1.132304">
        <ele>694.483490</ele>
        <time>2019-08-22T12:30:22.180Z</time>
      </trkpt>
      <trkpt lat="42.417186" lon="1.132358">
        <ele>694.476687</ele>
        <time>2019-08-22T12:30:24.376Z</time>
      </trkpt>
      <trkpt lat="42.417281" lon="1.132424">
        <ele>694.472283</ele>
        <time>2019-08-22T12:30:25.801Z</time>
      </trkpt>
      <trkpt lat="42.417303" lon="1.132475">
        <ele>694.470484</ele>
        <time>2019-08-22T12:30:26.335Z</time>
      </trkpt>
      <trkpt lat="42.417329" lon="1.132506">
        <ele>694.469055</ele>
        <time>2019-08-22T12:30:26.872Z</time>
      </trkpt>
      <trkpt lat="42.417368" lon="1.132530">
        <ele>694.467288</ele>
        <time>2019-08-22T12:30:27.432Z</time>
      </trkpt>
      <trkpt lat="42.417413" lon="1.132534">
        <ele>694.465427</ele>
        <time>2019-08-22T12:30:28.147Z</time>
      </trkpt>
      <trkpt lat="42.417455" lon="1.132517">
        <ele>694.463619</ele>
        <time>2019-08-22T12:30:28.816Z</time>
      </trkpt>
      <trkpt lat="42.417595" lon="1.132518">
        <ele>694.457844</ele>
        <time>2019-08-22T12:30:30.798Z</time>
      </trkpt>
      <trkpt lat="42.417742" lon="1.132523">
        <ele>694.451777</ele>
        <time>2019-08-22T12:30:32.945Z</time>
      </trkpt>
      <trkpt lat="42.417997" lon="1.132574">
        <ele>694.441144</ele>
        <time>2019-08-22T12:30:37.000Z</time>
      </trkpt>
      <trkpt lat="42.418306" lon="1.132563">
        <ele>694.428392</ele>
        <time>2019-08-22T12:30:42.534Z</time>
      </trkpt>
      <trkpt lat="42.418980" lon="1.132807">
        <ele>695.533394</ele>
        <time>2019-08-22T12:30:56.061Z</time>
      </trkpt>
      <trkpt lat="42.420297" lon="1.133543">
        <ele>698.561140</ele>
        <time>2019-08-22T12:31:30.892Z</time>
      </trkpt>
      <trkpt lat="42.420519" lon="1.133605">
        <ele>699.153738</ele>
        <time>2019-08-22T12:31:37.595Z</time>
      </trkpt>
      <trkpt lat="42.420959" lon="1.133616">
        <ele>700.304261</ele>
        <time>2019-08-22T12:31:49.545Z</time>
      </trkpt>
      <trkpt lat="42.421484" lon="1.133565">
        <ele>701.680334</ele>
        <time>2019-08-22T12:32:03.168Z</time>
      </trkpt>
      <trkpt lat="42.421904" lon="1.133424">
        <ele>702.811589</ele>
        <time>2019-08-22T12:32:13.773Z</time>
      </trkpt>
      <trkpt lat="42.422016" lon="1.133386">
        <ele>702.919106</ele>
        <time>2019-08-22T12:32:16.160Z</time>
      </trkpt>
      <trkpt lat="42.422926" lon="1.132957">
        <ele>703.703791</ele>
        <time>2019-08-22T12:32:36.012Z</time>
      </trkpt>
      <trkpt lat="42.423164" lon="1.132823">
        <ele>703.913689</ele>
        <time>2019-08-22T12:32:39.902Z</time>
      </trkpt>
      <trkpt lat="42.423506" lon="1.132639">
        <ele>704.213371</ele>
        <time>2019-08-22T12:32:44.666Z</time>
      </trkpt>
      <trkpt lat="42.423956" lon="1.132358">
        <ele>704.338538</ele>
        <time>2019-08-22T12:32:51.049Z</time>
      </trkpt>
      <trkpt lat="42.424115" lon="1.132268">
        <ele>704.357152</ele>
        <time>2019-08-22T12:32:53.462Z</time>
      </trkpt>
      <trkpt lat="42.424358" lon="1.132162">
        <ele>704.384727</ele>
        <time>2019-08-22T12:32:56.882Z</time>
      </trkpt>
      <trkpt lat="42.424591" lon="1.132138">
        <ele>704.409968</ele>
        <time>2019-08-22T12:33:00.322Z</time>
      </trkpt>
      <trkpt lat="42.425679" lon="1.132274">
        <ele>704.775811</ele>
        <time>2019-08-22T12:33:19.591Z</time>
      </trkpt>
      <trkpt lat="42.426074" lon="1.132129">
        <ele>705.110334</ele>
        <time>2019-08-22T12:33:27.861Z</time>
      </trkpt>
      <trkpt lat="42.426684" lon="1.131550">
        <ele>705.719162</ele>
        <time>2019-08-22T12:33:42.323Z</time>
      </trkpt>
      <trkpt lat="42.427062" lon="1.131235">
        <ele>705.970980</ele>
        <time>2019-08-22T12:33:49.726Z</time>
      </trkpt>
      <trkpt lat="42.427145" lon="1.131177">
        <ele>705.977572</ele>
        <time>2019-08-22T12:33:50.822Z</time>
      </trkpt>
      <trkpt lat="42.427798" lon="1.130839">
        <ele>706.026916</ele>
        <time>2019-08-22T12:33:59.873Z</time>
      </trkpt>
      <trkpt lat="42.428363" lon="1.130850">
        <ele>706.066802</ele>
        <time>2019-08-22T12:34:08.850Z</time>
      </trkpt>
      <trkpt lat="42.428660" lon="1.130991">
        <ele>706.120410</ele>
        <time>2019-08-22T12:34:13.832Z</time>
      </trkpt>
      <trkpt lat="42.428726" lon="1.131022">
        <ele>706.224575</ele>
        <time>2019-08-22T12:34:14.920Z</time>
      </trkpt>
      <trkpt lat="42.428990" lon="1.131241">
        <ele>706.686184</ele>
        <time>2019-08-22T12:34:20.447Z</time>
      </trkpt>
      <trkpt lat="42.429226" lon="1.131507">
        <ele>707.143968</ele>
        <time>2019-08-22T12:34:26.678Z</time>
      </trkpt>
      <trkpt lat="42.429815" lon="1.132234">
        <ele>708.332123</ele>
        <time>2019-08-22T12:34:43.614Z</time>
      </trkpt>
      <trkpt lat="42.430181" lon="1.132538">
        <ele>708.993023</ele>
        <time>2019-08-22T12:34:55.575Z</time>
      </trkpt>
      <trkpt lat="42.431566" lon="1.132927">
        <ele>711.317846</ele>
        <time>2019-08-22T12:35:25.901Z</time>
      </trkpt>
      <trkpt lat="42.431989" lon="1.133099">
        <ele>711.849406</ele>
        <time>2019-08-22T12:35:33.681Z</time>
      </trkpt>
      <trkpt lat="42.432415" lon="1.133129">
        <ele>712.121895</ele>
        <time>2019-08-22T12:35:41.099Z</time>
      </trkpt>
      <trkpt lat="42.432801" lon="1.133015">
        <ele>712.374256</ele>
        <time>2019-08-22T12:35:47.874Z</time>
      </trkpt>
      <trkpt lat="42.433105" lon="1.132802">
        <ele>712.592875</ele>
        <time>2019-08-22T12:35:53.693Z</time>
      </trkpt>
      <trkpt lat="42.433783" lon="1.131877">
        <ele>712.982670</ele>
        <time>2019-08-22T12:36:09.865Z</time>
      </trkpt>
      <trkpt lat="42.434142" lon="1.131548">
        <ele>713.072428</ele>
        <time>2019-08-22T12:36:17.011Z</time>
      </trkpt>
      <trkpt lat="42.435617" lon="1.130686">
        <ele>713.201542</ele>
        <time>2019-08-22T12:36:40.454Z</time>
      </trkpt>
      <trkpt lat="42.435828" lon="1.130622">
        <ele>713.188555</ele>
        <time>2019-08-22T12:36:43.433Z</time>
      </trkpt>
      <trkpt lat="42.436322" lon="1.130605">
        <ele>713.158873</ele>
        <time>2019-08-22T12:36:50.710Z</time>
      </trkpt>
      <trkpt lat="42.436587" lon="1.130651">
        <ele>713.142825</ele>
        <time>2019-08-22T12:36:54.362Z</time>
      </trkpt>
      <trkpt lat="42.436629" lon="1.130658">
        <ele>713.140284</ele>
        <time>2019-08-22T12:36:55.066Z</time>
      </trkpt>
      <trkpt lat="42.436737" lon="1.130688">
        <ele>713.154321</ele>
        <time>2019-08-22T12:36:56.920Z</time>
      </trkpt>
      <trkpt lat="42.436852" lon="1.130728">
        <ele>713.173454</ele>
        <time>2019-08-22T12:36:58.462Z</time>
      </trkpt>
      <trkpt lat="42.437048" lon="1.130842">
        <ele>713.207827</ele>
        <time>2019-08-22T12:37:01.842Z</time>
      </trkpt>
      <trkpt lat="42.437289" lon="1.131004">
        <ele>713.251181</ele>
        <time>2019-08-22T12:37:05.630Z</time>
      </trkpt>
      <trkpt lat="42.437415" lon="1.131089">
        <ele>713.273863</ele>
        <time>2019-08-22T12:37:07.967Z</time>
      </trkpt>
      <trkpt lat="42.437572" lon="1.131194">
        <ele>713.302078</ele>
        <time>2019-08-22T12:37:10.388Z</time>
      </trkpt>
      <trkpt lat="42.438898" lon="1.132086">
        <ele>713.999355</ele>
        <time>2019-08-22T12:37:34.986Z</time>
      </trkpt>
      <trkpt lat="42.440854" lon="1.133429">
        <ele>716.412734</ele>
        <time>2019-08-22T12:38:17.109Z</time>
      </trkpt>
      <trkpt lat="42.441101" lon="1.133599">
        <ele>716.795717</ele>
        <time>2019-08-22T12:38:23.004Z</time>
      </trkpt>
      <trkpt lat="42.441716" lon="1.134015">
        <ele>717.821721</ele>
        <time>2019-08-22T12:38:38.066Z</time>
      </trkpt>
      <trkpt lat="42.441825" lon="1.134096">
        <ele>718.030964</ele>
        <time>2019-08-22T12:38:40.989Z</time>
      </trkpt>
      <trkpt lat="42.442135" lon="1.134297">
        <ele>718.609401</ele>
        <time>2019-08-22T12:38:48.728Z</time>
      </trkpt>
      <trkpt lat="42.442196" lon="1.134325">
        <ele>718.717805</ele>
        <time>2019-08-22T12:38:50.239Z</time>
      </trkpt>
      <trkpt lat="42.442656" lon="1.134646">
        <ele>719.588696</ele>
        <time>2019-08-22T12:39:01.568Z</time>
      </trkpt>
      <trkpt lat="42.443030" lon="1.134885">
        <ele>720.284688</ele>
        <time>2019-08-22T12:39:10.116Z</time>
      </trkpt>
      <trkpt lat="42.443375" lon="1.135115">
        <ele>720.679955</ele>
        <time>2019-08-22T12:39:17.753Z</time>
      </trkpt>
      <trkpt lat="42.443603" lon="1.135266">
        <ele>720.894773</ele>
        <time>2019-08-22T12:39:22.540Z</time>
      </trkpt>
      <trkpt lat="42.443786" lon="1.135387">
        <ele>721.067139</ele>
        <time>2019-08-22T12:39:26.404Z</time>
      </trkpt>
      <trkpt lat="42.443853" lon="1.135418">
        <ele>721.127069</ele>
        <time>2019-08-22T12:39:27.670Z</time>
      </trkpt>
      <trkpt lat="42.443937" lon="1.135436">
        <ele>721.199058</ele>
        <time>2019-08-22T12:39:29.186Z</time>
      </trkpt>
      <trkpt lat="42.444020" lon="1.135440">
        <ele>721.269362</ele>
        <time>2019-08-22T12:39:30.704Z</time>
      </trkpt>
      <trkpt lat="42.444346" lon="1.135456">
        <ele>721.545502</ele>
        <time>2019-08-22T12:39:36.465Z</time>
      </trkpt>
      <trkpt lat="42.444485" lon="1.135450">
        <ele>721.663225</ele>
        <time>2019-08-22T12:39:38.937Z</time>
      </trkpt>
      <trkpt lat="42.444694" lon="1.135446">
        <ele>721.840161</ele>
        <time>2019-08-22T12:39:42.424Z</time>
      </trkpt>
      <trkpt lat="42.445742" lon="1.135461">
        <ele>722.328958</ele>
        <time>2019-08-22T12:39:58.747Z</time>
      </trkpt>
      <trkpt lat="42.445909" lon="1.135457">
        <ele>722.398103</ele>
        <time>2019-08-22T12:40:01.704Z</time>
      </trkpt>
      <trkpt lat="42.446372" lon="1.135536">
        <ele>722.591289</ele>
        <time>2019-08-22T12:40:09.552Z</time>
      </trkpt>
      <trkpt lat="42.446577" lon="1.135618">
        <ele>722.679774</ele>
        <time>2019-08-22T12:40:13.360Z</time>
      </trkpt>
      <trkpt lat="42.446683" lon="1.135684">
        <ele>722.759018</ele>
        <time>2019-08-22T12:40:15.307Z</time>
      </trkpt>
      <trkpt lat="42.446992" lon="1.135944">
        <ele>723.039717</ele>
        <time>2019-08-22T12:40:21.688Z</time>
      </trkpt>
      <trkpt lat="42.447042" lon="1.135998">
        <ele>723.089060</ele>
        <time>2019-08-22T12:40:22.547Z</time>
      </trkpt>
      <trkpt lat="42.447275" lon="1.136318">
        <ele>723.345075</ele>
        <time>2019-08-22T12:40:28.264Z</time>
      </trkpt>
      <trkpt lat="42.447470" lon="1.136727">
        <ele>723.622379</ele>
        <time>2019-08-22T12:40:33.995Z</time>
      </trkpt>
      <trkpt lat="42.447631" lon="1.137218">
        <ele>723.928356</ele>
        <time>2019-08-22T12:40:40.899Z</time>
      </trkpt>
      <trkpt lat="42.447673" lon="1.137430">
        <ele>724.053360</ele>
        <time>2019-08-22T12:40:44.620Z</time>
      </trkpt>
      <trkpt lat="42.447716" lon="1.137648">
        <ele>724.339392</ele>
        <time>2019-08-22T12:40:47.730Z</time>
      </trkpt>
      <trkpt lat="42.447781" lon="1.138173">
        <ele>725.113041</ele>
        <time>2019-08-22T12:40:57.320Z</time>
      </trkpt>
      <trkpt lat="42.447809" lon="1.138680">
        <ele>725.851925</ele>
        <time>2019-08-22T12:41:06.416Z</time>
      </trkpt>
      <trkpt lat="42.447790" lon="1.139445">
        <ele>726.964330</ele>
        <time>2019-08-22T12:41:20.161Z</time>
      </trkpt>
      <trkpt lat="42.447761" lon="1.140042">
        <ele>727.754162</ele>
        <time>2019-08-22T12:41:29.368Z</time>
      </trkpt>
      <trkpt lat="42.447758" lon="1.140150">
        <ele>727.851922</ele>
        <time>2019-08-22T12:41:31.122Z</time>
      </trkpt>
      <trkpt lat="42.447683" lon="1.141269">
        <ele>728.868274</ele>
        <time>2019-08-22T12:41:48.923Z</time>
      </trkpt>
      <trkpt lat="42.447687" lon="1.141418">
        <ele>729.003140</ele>
        <time>2019-08-22T12:41:51.355Z</time>
      </trkpt>
      <trkpt lat="42.447691" lon="1.141590">
        <ele>729.158799</ele>
        <time>2019-08-22T12:41:53.396Z</time>
      </trkpt>
      <trkpt lat="42.447878" lon="1.142680">
        <ele>730.062880</ele>
        <time>2019-08-22T12:42:07.307Z</time>
      </trkpt>
      <trkpt lat="42.448100" lon="1.143215">
        <ele>730.443168</ele>
        <time>2019-08-22T12:42:14.825Z</time>
      </trkpt>
      <trkpt lat="42.448226" lon="1.143384">
        <ele>730.592019</ele>
        <time>2019-08-22T12:42:17.198Z</time>
      </trkpt>
      <trkpt lat="42.448452" lon="1.143664">
        <ele>730.849126</ele>
        <time>2019-08-22T12:42:22.843Z</time>
      </trkpt>
      <trkpt lat="42.449449" lon="1.144858">
        <ele>732.600555</ele>
        <time>2019-08-22T12:42:51.130Z</time>
      </trkpt>
      <trkpt lat="42.449692" lon="1.145309">
        <ele>733.295793</ele>
        <time>2019-08-22T12:43:00.459Z</time>
      </trkpt>
      <trkpt lat="42.449784" lon="1.145818">
        <ele>733.948212</ele>
        <time>2019-08-22T12:43:08.994Z</time>
      </trkpt>
      <trkpt lat="42.449845" lon="1.148966">
        <ele>739.513827</ele>
        <time>2019-08-22T12:43:58.221Z</time>
      </trkpt>
      <trkpt lat="42.449864" lon="1.149129">
        <ele>740.384745</ele>
        <time>2019-08-22T12:44:01.346Z</time>
      </trkpt>
      <trkpt lat="42.449980" lon="1.149443">
        <ele>742.238009</ele>
        <time>2019-08-22T12:44:09.727Z</time>
      </trkpt>
      <trkpt lat="42.450421" lon="1.150214">
        <ele>747.386423</ele>
        <time>2019-08-22T12:44:45.243Z</time>
      </trkpt>
      <trkpt lat="42.450514" lon="1.150494">
        <ele>749.006951</ele>
        <time>2019-08-22T12:45:00.319Z</time>
      </trkpt>
      <trkpt lat="42.450525" lon="1.150641">
        <ele>749.786730</ele>
        <time>2019-08-22T12:45:06.212Z</time>
      </trkpt>
      <trkpt lat="42.450544" lon="1.150915">
        <ele>751.628061</ele>
        <time>2019-08-22T12:45:19.319Z</time>
      </trkpt>
      <trkpt lat="42.450520" lon="1.151608">
        <ele>757.034468</ele>
        <time>2019-08-22T12:45:48.511Z</time>
      </trkpt>
      <trkpt lat="42.450541" lon="1.151711">
        <ele>757.867213</ele>
        <time>2019-08-22T12:45:52.587Z</time>
      </trkpt>
      <trkpt lat="42.450553" lon="1.151777">
        <ele>758.396927</ele>
        <time>2019-08-22T12:45:55.489Z</time>
      </trkpt>
      <trkpt lat="42.450574" lon="1.151905">
        <ele>759.418775</ele>
        <time>2019-08-22T12:46:03.205Z</time>
      </trkpt>
      <trkpt lat="42.450729" lon="1.152227">
        <ele>762.414846</ele>
        <time>2019-08-22T12:46:17.957Z</time>
      </trkpt>
      <trkpt lat="42.450817" lon="1.152322">
        <ele>763.603068</ele>
        <time>2019-08-22T12:46:26.561Z</time>
      </trkpt>
      <trkpt lat="42.451044" lon="1.152570">
        <ele>766.682481</ele>
        <time>2019-08-22T12:46:43.128Z</time>
      </trkpt>
      <trkpt lat="42.451143" lon="1.152640">
        <ele>767.861808</ele>
        <time>2019-08-22T12:46:49.796Z</time>
      </trkpt>
      <trkpt lat="42.451211" lon="1.152687">
        <ele>768.667989</ele>
        <time>2019-08-22T12:46:52.789Z</time>
      </trkpt>
      <trkpt lat="42.451377" lon="1.152861">
        <ele>770.107491</ele>
        <time>2019-08-22T12:47:06.142Z</time>
      </trkpt>
      <trkpt lat="42.451524" lon="1.153004">
        <ele>771.005094</ele>
        <time>2019-08-22T12:47:12.125Z</time>
      </trkpt>
      <trkpt lat="42.451642" lon="1.153218">
        <ele>771.982923</ele>
        <time>2019-08-22T12:47:22.598Z</time>
      </trkpt>
      <trkpt lat="42.451818" lon="1.153680">
        <ele>773.885994</ele>
        <time>2019-08-22T12:47:33.128Z</time>
      </trkpt>
      <trkpt lat="42.451914" lon="1.155415">
        <ele>779.471550</ele>
        <time>2019-08-22T12:48:07.362Z</time>
      </trkpt>
      <trkpt lat="42.452006" lon="1.155999">
        <ele>780.762795</ele>
        <time>2019-08-22T12:48:19.977Z</time>
      </trkpt>
      <trkpt lat="42.452088" lon="1.156214">
        <ele>781.286124</ele>
        <time>2019-08-22T12:48:24.316Z</time>
      </trkpt>
      <trkpt lat="42.452152" lon="1.156342">
        <ele>781.620461</ele>
        <time>2019-08-22T12:48:28.310Z</time>
      </trkpt>
      <trkpt lat="42.452264" lon="1.156543">
        <ele>782.165095</ele>
        <time>2019-08-22T12:48:32.793Z</time>
      </trkpt>
      <trkpt lat="42.452522" lon="1.157005">
        <ele>783.417939</ele>
        <time>2019-08-22T12:48:43.639Z</time>
      </trkpt>
      <trkpt lat="42.452902" lon="1.157542">
        <ele>784.308395</ele>
        <time>2019-08-22T12:48:57.562Z</time>
      </trkpt>
      <trkpt lat="42.454289" lon="1.159110">
        <ele>785.960078</ele>
        <time>2019-08-22T12:49:31.443Z</time>
      </trkpt>
      <trkpt lat="42.454541" lon="1.159578">
        <ele>785.745684</ele>
        <time>2019-08-22T12:49:38.283Z</time>
      </trkpt>
      <trkpt lat="42.454748" lon="1.160199">
        <ele>785.493526</ele>
        <time>2019-08-22T12:49:44.023Z</time>
      </trkpt>
      <trkpt lat="42.455009" lon="1.161250">
        <ele>785.523816</ele>
        <time>2019-08-22T12:49:53.044Z</time>
      </trkpt>
      <trkpt lat="42.455192" lon="1.161725">
        <ele>785.721645</ele>
        <time>2019-08-22T12:49:58.031Z</time>
      </trkpt>
      <trkpt lat="42.455434" lon="1.162238">
        <ele>785.946436</ele>
        <time>2019-08-22T12:50:05.194Z</time>
      </trkpt>
      <trkpt lat="42.455478" lon="1.162345">
        <ele>785.991659</ele>
        <time>2019-08-22T12:50:06.043Z</time>
      </trkpt>
      <trkpt lat="42.455518" lon="1.162499">
        <ele>786.051933</ele>
        <time>2019-08-22T12:50:10.546Z</time>
      </trkpt>
      <trkpt lat="42.455818" lon="1.165654">
        <ele>794.703965</ele>
        <time>2019-08-22T12:51:29.757Z</time>
      </trkpt>
      <trkpt lat="42.456101" lon="1.166672">
        <ele>796.472856</ele>
        <time>2019-08-22T12:51:52.102Z</time>
      </trkpt>
      <trkpt lat="42.456496" lon="1.167505">
        <ele>798.082951</ele>
        <time>2019-08-22T12:52:04.738Z</time>
      </trkpt>
      <trkpt lat="42.456671" lon="1.167696">
        <ele>797.926259</ele>
        <time>2019-08-22T12:52:07.543Z</time>
      </trkpt>
      <trkpt lat="42.456931" lon="1.167895">
        <ele>797.631121</ele>
        <time>2019-08-22T12:52:11.144Z</time>
      </trkpt>
      <trkpt lat="42.457333" lon="1.168197">
        <ele>797.176817</ele>
        <time>2019-08-22T12:52:16.515Z</time>
      </trkpt>
      <trkpt lat="42.457994" lon="1.168964">
        <ele>796.343955</ele>
        <time>2019-08-22T12:52:26.406Z</time>
      </trkpt>
      <trkpt lat="42.458952" lon="1.169609">
        <ele>796.145375</ele>
        <time>2019-08-22T12:52:41.598Z</time>
      </trkpt>
      <trkpt lat="42.459857" lon="1.170800">
        <ele>795.788716</ele>
        <time>2019-08-22T12:53:01.799Z</time>
      </trkpt>
      <trkpt lat="42.460061" lon="1.171103">
        <ele>795.667077</ele>
        <time>2019-08-22T12:53:06.216Z</time>
      </trkpt>
      <trkpt lat="42.460264" lon="1.171541">
        <ele>795.513694</ele>
        <time>2019-08-22T12:53:11.489Z</time>
      </trkpt>
      <trkpt lat="42.460654" lon="1.172889">
        <ele>795.010658</ele>
        <time>2019-08-22T12:53:24.210Z</time>
      </trkpt>
      <trkpt lat="42.460842" lon="1.173324">
        <ele>794.808480</ele>
        <time>2019-08-22T12:53:28.454Z</time>
      </trkpt>
      <trkpt lat="42.461566" lon="1.174490">
        <ele>794.662614</ele>
        <time>2019-08-22T12:53:45.542Z</time>
      </trkpt>
      <trkpt lat="42.461635" lon="1.174614">
        <ele>794.845194</ele>
        <time>2019-08-22T12:53:47.078Z</time>
      </trkpt>
      <trkpt lat="42.461775" lon="1.174904">
        <ele>795.252597</ele>
        <time>2019-08-22T12:53:52.964Z</time>
      </trkpt>
      <trkpt lat="42.461864" lon="1.175101">
        <ele>795.524146</ele>
        <time>2019-08-22T12:53:55.907Z</time>
      </trkpt>
      <trkpt lat="42.462132" lon="1.175764">
        <ele>796.412836</ele>
        <time>2019-08-22T12:54:08.856Z</time>
      </trkpt>
      <trkpt lat="42.462177" lon="1.175877">
        <ele>796.563786</ele>
        <time>2019-08-22T12:54:10.517Z</time>
      </trkpt>
      <trkpt lat="42.462442" lon="1.176614">
        <ele>797.643795</ele>
        <time>2019-08-22T12:54:26.416Z</time>
      </trkpt>
      <trkpt lat="42.462688" lon="1.177734">
        <ele>799.479089</ele>
        <time>2019-08-22T12:54:47.414Z</time>
      </trkpt>
      <trkpt lat="42.462958" lon="1.178269">
        <ele>800.497116</ele>
        <time>2019-08-22T12:54:56.874Z</time>
      </trkpt>
      <trkpt lat="42.464390" lon="1.180704">
        <ele>805.234678</ele>
        <time>2019-08-22T12:55:50.475Z</time>
      </trkpt>
      <trkpt lat="42.465127" lon="1.181482">
        <ele>806.986670</ele>
        <time>2019-08-22T12:56:12.280Z</time>
      </trkpt>
      <trkpt lat="42.465560" lon="1.182104">
        <ele>808.174468</ele>
        <time>2019-08-22T12:56:25.396Z</time>
      </trkpt>
      <trkpt lat="42.465873" lon="1.182704">
        <ele>809.294558</ele>
        <time>2019-08-22T12:56:36.132Z</time>
      </trkpt>
      <trkpt lat="42.466062" lon="1.183403">
        <ele>810.429287</ele>
        <time>2019-08-22T12:56:47.699Z</time>
      </trkpt>
      <trkpt lat="42.466153" lon="1.184595">
        <ele>812.871026</ele>
        <time>2019-08-22T12:57:10.409Z</time>
      </trkpt>
      <trkpt lat="42.466140" lon="1.185070">
        <ele>814.672313</ele>
        <time>2019-08-22T12:57:21.474Z</time>
      </trkpt>
      <trkpt lat="42.465872" lon="1.186686">
        <ele>820.949134</ele>
        <time>2019-08-22T12:58:09.056Z</time>
      </trkpt>
      <trkpt lat="42.465842" lon="1.187485">
        <ele>823.341720</ele>
        <time>2019-08-22T12:58:32.682Z</time>
      </trkpt>
      <trkpt lat="42.465924" lon="1.188502">
        <ele>826.363853</ele>
        <time>2019-08-22T12:58:58.537Z</time>
      </trkpt>
      <trkpt lat="42.466471" lon="1.190267">
        <ele>826.759577</ele>
        <time>2019-08-22T12:59:21.939Z</time>
      </trkpt>
      <trkpt lat="42.466700" lon="1.191155">
        <ele>825.624931</ele>
        <time>2019-08-22T12:59:28.852Z</time>
      </trkpt>
      <trkpt lat="42.467188" lon="1.192092">
        <ele>822.476231</ele>
        <time>2019-08-22T12:59:36.855Z</time>
      </trkpt>
      <trkpt lat="42.467258" lon="1.192430">
        <ele>821.374534</ele>
        <time>2019-08-22T12:59:39.282Z</time>
      </trkpt>
      <trkpt lat="42.467271" lon="1.192751">
        <ele>820.365678</ele>
        <time>2019-08-22T12:59:41.557Z</time>
      </trkpt>
      <trkpt lat="42.467086" lon="1.193871">
        <ele>817.261102</ele>
        <time>2019-08-22T12:59:49.987Z</time>
      </trkpt>
      <trkpt lat="42.466991" lon="1.195033">
        <ele>815.558028</ele>
        <time>2019-08-22T12:59:59.263Z</time>
      </trkpt>
      <trkpt lat="42.466772" lon="1.196321">
        <ele>814.447073</ele>
        <time>2019-08-22T13:00:11.213Z</time>
      </trkpt>
      <trkpt lat="42.466800" lon="1.197976">
        <ele>815.906998</ele>
        <time>2019-08-22T13:00:31.107Z</time>
      </trkpt>
      <trkpt lat="42.466649" lon="1.198911">
        <ele>818.460372</ele>
        <time>2019-08-22T13:00:55.956Z</time>
      </trkpt>
      <trkpt lat="42.466637" lon="1.199063">
        <ele>819.095189</ele>
        <time>2019-08-22T13:00:59.692Z</time>
      </trkpt>
      <trkpt lat="42.466641" lon="1.199330">
        <ele>820.204191</ele>
        <time>2019-08-22T13:01:07.719Z</time>
      </trkpt>
      <trkpt lat="42.466684" lon="1.199592">
        <ele>821.318805</ele>
        <time>2019-08-22T13:01:14.913Z</time>
      </trkpt>
      <trkpt lat="42.466825" lon="1.199946">
        <ele>822.989469</ele>
        <time>2019-08-22T13:01:27.959Z</time>
      </trkpt>
      <trkpt lat="42.467044" lon="1.200247">
        <ele>824.745129</ele>
        <time>2019-08-22T13:01:41.205Z</time>
      </trkpt>
      <trkpt lat="42.467748" lon="1.200951">
        <ele>828.035233</ele>
        <time>2019-08-22T13:02:13.968Z</time>
      </trkpt>
      <trkpt lat="42.468228" lon="1.201344">
        <ele>829.606269</ele>
        <time>2019-08-22T13:02:30.258Z</time>
      </trkpt>
      <trkpt lat="42.468471" lon="1.201474">
        <ele>830.338169</ele>
        <time>2019-08-22T13:02:34.036Z</time>
      </trkpt>
      <trkpt lat="42.468822" lon="1.201662">
        <ele>831.395525</ele>
        <time>2019-08-22T13:02:39.817Z</time>
      </trkpt>
      <trkpt lat="42.469883" lon="1.202445">
        <ele>829.601863</ele>
        <time>2019-08-22T13:02:53.593Z</time>
      </trkpt>
      <trkpt lat="42.470355" lon="1.202607">
        <ele>828.841668</ele>
        <time>2019-08-22T13:02:58.940Z</time>
      </trkpt>
      <trkpt lat="42.470957" lon="1.202659">
        <ele>827.887984</ele>
        <time>2019-08-22T13:03:05.372Z</time>
      </trkpt>
      <trkpt lat="42.471357" lon="1.202592">
        <ele>827.248712</ele>
        <time>2019-08-22T13:03:09.646Z</time>
      </trkpt>
      <trkpt lat="42.471719" lon="1.202468">
        <ele>826.656492</ele>
        <time>2019-08-22T13:03:13.727Z</time>
      </trkpt>
      <trkpt lat="42.472737" lon="1.201875">
        <ele>826.821645</ele>
        <time>2019-08-22T13:03:29.131Z</time>
      </trkpt>
      <trkpt lat="42.473062" lon="1.201824">
        <ele>827.417843</ele>
        <time>2019-08-22T13:03:36.556Z</time>
      </trkpt>
      <trkpt lat="42.473499" lon="1.201881">
        <ele>828.217860</ele>
        <time>2019-08-22T13:03:48.002Z</time>
      </trkpt>
      <trkpt lat="42.474380" lon="1.202201">
        <ele>830.282505</ele>
        <time>2019-08-22T13:04:14.576Z</time>
      </trkpt>
      <trkpt lat="42.476425" lon="1.203253">
        <ele>835.194358</ele>
        <time>2019-08-22T13:05:08.496Z</time>
      </trkpt>
      <trkpt lat="42.476818" lon="1.203390">
        <ele>835.785860</ele>
        <time>2019-08-22T13:05:15.512Z</time>
      </trkpt>
      <trkpt lat="42.477140" lon="1.203381">
        <ele>836.255335</ele>
        <time>2019-08-22T13:05:20.977Z</time>
      </trkpt>
      <trkpt lat="42.477586" lon="1.203225">
        <ele>836.910436</ele>
        <time>2019-08-22T13:05:28.566Z</time>
      </trkpt>
      <trkpt lat="42.478091" lon="1.203227">
        <ele>837.609481</ele>
        <time>2019-08-22T13:05:37.345Z</time>
      </trkpt>
      <trkpt lat="42.478460" lon="1.203421">
        <ele>838.157322</ele>
        <time>2019-08-22T13:05:45.465Z</time>
      </trkpt>
      <trkpt lat="42.478662" lon="1.203633">
        <ele>838.510917</ele>
        <time>2019-08-22T13:05:51.475Z</time>
      </trkpt>
      <trkpt lat="42.478923" lon="1.204069">
        <ele>839.084205</ele>
        <time>2019-08-22T13:06:01.774Z</time>
      </trkpt>
      <trkpt lat="42.479372" lon="1.205326">
        <ele>839.912420</ele>
        <time>2019-08-22T13:06:26.203Z</time>
      </trkpt>
      <trkpt lat="42.479493" lon="1.205495">
        <ele>840.051483</ele>
        <time>2019-08-22T13:06:29.329Z</time>
      </trkpt>
      <trkpt lat="42.479816" lon="1.205820">
        <ele>840.373475</ele>
        <time>2019-08-22T13:06:34.433Z</time>
      </trkpt>
      <trkpt lat="42.480670" lon="1.206410">
        <ele>838.272777</ele>
        <time>2019-08-22T13:06:44.661Z</time>
      </trkpt>
      <trkpt lat="42.480819" lon="1.206510">
        <ele>837.778198</ele>
        <time>2019-08-22T13:06:46.240Z</time>
      </trkpt>
      <trkpt lat="42.481145" lon="1.206691">
        <ele>836.730242</ele>
        <time>2019-08-22T13:06:49.669Z</time>
      </trkpt>
      <trkpt lat="42.481843" lon="1.207010">
        <ele>835.291069</ele>
        <time>2019-08-22T13:06:56.943Z</time>
      </trkpt>
      <trkpt lat="42.482663" lon="1.207222">
        <ele>835.712634</ele>
        <time>2019-08-22T13:07:07.044Z</time>
      </trkpt>
      <trkpt lat="42.483198" lon="1.207524">
        <ele>836.005289</ele>
        <time>2019-08-22T13:07:22.185Z</time>
      </trkpt>
      <trkpt lat="42.483555" lon="1.208017">
        <ele>838.092608</ele>
        <time>2019-08-22T13:07:39.524Z</time>
      </trkpt>
      <trkpt lat="42.484134" lon="1.209412">
        <ele>845.018578</ele>
        <time>2019-08-22T13:08:30.497Z</time>
      </trkpt>
      <trkpt lat="42.484640" lon="1.210043">
        <ele>847.207916</ele>
        <time>2019-08-22T13:08:54.377Z</time>
      </trkpt>
      <trkpt lat="42.484931" lon="1.210507">
        <ele>847.826166</ele>
        <time>2019-08-22T13:09:07.373Z</time>
      </trkpt>
      <trkpt lat="42.485160" lon="1.210777">
        <ele>848.243839</ele>
        <time>2019-08-22T13:09:13.897Z</time>
      </trkpt>
      <trkpt lat="42.485378" lon="1.210971">
        <ele>848.602733</ele>
        <time>2019-08-22T13:09:17.166Z</time>
      </trkpt>
      <trkpt lat="42.485414" lon="1.211004">
        <ele>848.662542</ele>
        <time>2019-08-22T13:09:17.806Z</time>
      </trkpt>
      <trkpt lat="42.485613" lon="1.211250">
        <ele>849.033172</ele>
        <time>2019-08-22T13:09:20.665Z</time>
      </trkpt>
      <trkpt lat="42.485788" lon="1.211539">
        <ele>847.522566</ele>
        <time>2019-08-22T13:09:23.393Z</time>
      </trkpt>
      <trkpt lat="42.486124" lon="1.212020">
        <ele>843.876641</ele>
        <time>2019-08-22T13:09:27.815Z</time>
      </trkpt>
      <trkpt lat="42.486480" lon="1.212296">
        <ele>840.816572</ele>
        <time>2019-08-22T13:09:31.372Z</time>
      </trkpt>
      <trkpt lat="42.487028" lon="1.212499">
        <ele>836.577445</ele>
        <time>2019-08-22T13:09:36.317Z</time>
      </trkpt>
      <trkpt lat="42.487277" lon="1.212473">
        <ele>834.925774</ele>
        <time>2019-08-22T13:09:38.452Z</time>
      </trkpt>
      <trkpt lat="42.487599" lon="1.212310">
        <ele>832.914100</ele>
        <time>2019-08-22T13:09:41.420Z</time>
      </trkpt>
      <trkpt lat="42.487859" lon="1.212002">
        <ele>830.893471</ele>
        <time>2019-08-22T13:09:44.447Z</time>
      </trkpt>
      <trkpt lat="42.488283" lon="1.211248">
        <ele>826.800907</ele>
        <time>2019-08-22T13:09:51.013Z</time>
      </trkpt>
      <trkpt lat="42.488467" lon="1.211030">
        <ele>825.370843</ele>
        <time>2019-08-22T13:09:53.761Z</time>
      </trkpt>
      <trkpt lat="42.488833" lon="1.210789">
        <ele>827.299660</ele>
        <time>2019-08-22T13:10:00.672Z</time>
      </trkpt>
      <trkpt lat="42.489159" lon="1.210704">
        <ele>829.198786</ele>
        <time>2019-08-22T13:10:09.820Z</time>
      </trkpt>
      <trkpt lat="42.490344" lon="1.210699">
        <ele>836.257624</ele>
        <time>2019-08-22T13:11:07.201Z</time>
      </trkpt>
      <trkpt lat="42.490944" lon="1.210849">
        <ele>841.628479</ele>
        <time>2019-08-22T13:11:49.547Z</time>
      </trkpt>
      <trkpt lat="42.491309" lon="1.211091">
        <ele>845.205050</ele>
        <time>2019-08-22T13:12:15.656Z</time>
      </trkpt>
      <trkpt lat="42.491345" lon="1.211151">
        <ele>845.707167</ele>
        <time>2019-08-22T13:12:21.849Z</time>
      </trkpt>
      <trkpt lat="42.491550" lon="1.211485">
        <ele>848.528019</ele>
        <time>2019-08-22T13:12:31.645Z</time>
      </trkpt>
      <trkpt lat="42.491567" lon="1.211514">
        <ele>848.768502</ele>
        <time>2019-08-22T13:12:34.656Z</time>
      </trkpt>
      <trkpt lat="42.491673" lon="1.211698">
        <ele>850.284176</ele>
        <time>2019-08-22T13:12:40.452Z</time>
      </trkpt>
      <trkpt lat="42.491759" lon="1.211843">
        <ele>851.130870</ele>
        <time>2019-08-22T13:12:41.606Z</time>
      </trkpt>
      <trkpt lat="42.491802" lon="1.211916">
        <ele>850.640191</ele>
        <time>2019-08-22T13:12:47.515Z</time>
      </trkpt>
      <trkpt lat="42.491978" lon="1.212074">
        <ele>849.136936</ele>
        <time>2019-08-22T13:12:50.466Z</time>
      </trkpt>
      <trkpt lat="42.492436" lon="1.212312">
        <ele>845.643722</ele>
        <time>2019-08-22T13:12:57.525Z</time>
      </trkpt>
      <trkpt lat="42.492688" lon="1.212396">
        <ele>843.795520</ele>
        <time>2019-08-22T13:13:00.653Z</time>
      </trkpt>
      <trkpt lat="42.492796" lon="1.212416">
        <ele>843.019189</ele>
        <time>2019-08-22T13:13:01.773Z</time>
      </trkpt>
      <trkpt lat="42.492967" lon="1.212393">
        <ele>841.795325</ele>
        <time>2019-08-22T13:13:03.362Z</time>
      </trkpt>
      <trkpt lat="42.492998" lon="1.212382">
        <ele>841.567106</ele>
        <time>2019-08-22T13:13:03.642Z</time>
      </trkpt>
      <trkpt lat="42.493130" lon="1.212320">
        <ele>840.572194</ele>
        <time>2019-08-22T13:13:04.804Z</time>
      </trkpt>
      <trkpt lat="42.493816" lon="1.211550">
        <ele>832.281184</ele>
        <time>2019-08-22T13:13:12.242Z</time>
      </trkpt>
      <trkpt lat="42.493888" lon="1.211521">
        <ele>831.501074</ele>
        <time>2019-08-22T13:13:12.871Z</time>
      </trkpt>
      <trkpt lat="42.493949" lon="1.211488">
        <ele>830.818953</ele>
        <time>2019-08-22T13:13:13.415Z</time>
      </trkpt>
      <trkpt lat="42.494296" lon="1.211502">
        <ele>827.213251</ele>
        <time>2019-08-22T13:13:16.319Z</time>
      </trkpt>
      <trkpt lat="42.494368" lon="1.211532">
        <ele>826.430928</ele>
        <time>2019-08-22T13:13:16.988Z</time>
      </trkpt>
      <trkpt lat="42.494524" lon="1.211596">
        <ele>824.738127</ele>
        <time>2019-08-22T13:13:18.690Z</time>
      </trkpt>
      <trkpt lat="42.494809" lon="1.211714">
        <ele>821.643112</ele>
        <time>2019-08-22T13:13:21.597Z</time>
      </trkpt>
      <trkpt lat="42.494851" lon="1.211731">
        <ele>821.187867</ele>
        <time>2019-08-22T13:13:22.190Z</time>
      </trkpt>
      <trkpt lat="42.495241" lon="1.211848">
        <ele>819.259660</ele>
        <time>2019-08-22T13:13:26.166Z</time>
      </trkpt>
      <trkpt lat="42.495421" lon="1.211982">
        <ele>818.841859</ele>
        <time>2019-08-22T13:13:28.311Z</time>
      </trkpt>
      <trkpt lat="42.495498" lon="1.212008">
        <ele>818.680401</ele>
        <time>2019-08-22T13:13:29.546Z</time>
      </trkpt>
      <trkpt lat="42.495528" lon="1.212127">
        <ele>818.491721</ele>
        <time>2019-08-22T13:13:30.681Z</time>
      </trkpt>
      <trkpt lat="42.495543" lon="1.212460">
        <ele>817.991198</ele>
        <time>2019-08-22T13:13:34.154Z</time>
      </trkpt>
      <trkpt lat="42.495565" lon="1.212564">
        <ele>817.828875</ele>
        <time>2019-08-22T13:13:35.292Z</time>
      </trkpt>
      <trkpt lat="42.495677" lon="1.213022">
        <ele>817.104944</ele>
        <time>2019-08-22T13:13:39.119Z</time>
      </trkpt>
      <trkpt lat="42.495815" lon="1.213429">
        <ele>816.432865</ele>
        <time>2019-08-22T13:13:42.677Z</time>
      </trkpt>
      <trkpt lat="42.495890" lon="1.213660">
        <ele>816.075518</ele>
        <time>2019-08-22T13:13:44.738Z</time>
      </trkpt>
      <trkpt lat="42.496374" lon="1.215175">
        <ele>814.208004</ele>
        <time>2019-08-22T13:13:58.775Z</time>
      </trkpt>
      <trkpt lat="42.496708" lon="1.215805">
        <ele>813.387926</ele>
        <time>2019-08-22T13:14:05.078Z</time>
      </trkpt>
      <trkpt lat="42.496739" lon="1.215858">
        <ele>813.397230</ele>
        <time>2019-08-22T13:14:05.683Z</time>
      </trkpt>
      <trkpt lat="42.496907" lon="1.216139">
        <ele>813.446986</ele>
        <time>2019-08-22T13:14:08.982Z</time>
      </trkpt>
      <trkpt lat="42.498329" lon="1.217986">
        <ele>814.604444</ele>
        <time>2019-08-22T13:14:43.532Z</time>
      </trkpt>
      <trkpt lat="42.499910" lon="1.219581">
        <ele>817.977142</ele>
        <time>2019-08-22T13:15:30.019Z</time>
      </trkpt>
      <trkpt lat="42.500768" lon="1.220246">
        <ele>819.680602</ele>
        <time>2019-08-22T13:15:51.610Z</time>
      </trkpt>
      <trkpt lat="42.501445" lon="1.220735">
        <ele>820.048826</ele>
        <time>2019-08-22T13:16:04.965Z</time>
      </trkpt>
      <trkpt lat="42.501751" lon="1.220917">
        <ele>820.133423</ele>
        <time>2019-08-22T13:16:09.867Z</time>
      </trkpt>
      <trkpt lat="42.504609" lon="1.222425">
        <ele>821.353668</ele>
        <time>2019-08-22T13:16:52.924Z</time>
      </trkpt>
      <trkpt lat="42.505194" lon="1.223068">
        <ele>823.326285</ele>
        <time>2019-08-22T13:17:13.567Z</time>
      </trkpt>
      <trkpt lat="42.505353" lon="1.223243">
        <ele>823.862718</ele>
        <time>2019-08-22T13:17:20.796Z</time>
      </trkpt>
      <trkpt lat="42.506542" lon="1.224731">
        <ele>828.757221</ele>
        <time>2019-08-22T13:18:11.621Z</time>
      </trkpt>
      <trkpt lat="42.506961" lon="1.225110">
        <ele>830.345552</ele>
        <time>2019-08-22T13:18:22.882Z</time>
      </trkpt>
      <trkpt lat="42.510024" lon="1.226878">
        <ele>831.707057</ele>
        <time>2019-08-22T13:19:15.524Z</time>
      </trkpt>
      <trkpt lat="42.510204" lon="1.227177">
        <ele>831.765933</ele>
        <time>2019-08-22T13:19:19.774Z</time>
      </trkpt>
      <trkpt lat="42.510284" lon="1.227422">
        <ele>831.800419</ele>
        <time>2019-08-22T13:19:22.778Z</time>
      </trkpt>
      <trkpt lat="42.510277" lon="1.227795">
        <ele>831.845422</ele>
        <time>2019-08-22T13:19:26.895Z</time>
      </trkpt>
      <trkpt lat="42.510157" lon="1.228326">
        <ele>831.912410</ele>
        <time>2019-08-22T13:19:33.046Z</time>
      </trkpt>
      <trkpt lat="42.509632" lon="1.229383">
        <ele>832.066138</ele>
        <time>2019-08-22T13:19:47.654Z</time>
      </trkpt>
      <trkpt lat="42.509553" lon="1.229782">
        <ele>832.316208</ele>
        <time>2019-08-22T13:19:52.704Z</time>
      </trkpt>
      <trkpt lat="42.509573" lon="1.230194">
        <ele>832.585730</ele>
        <time>2019-08-22T13:19:57.977Z</time>
      </trkpt>
      <trkpt lat="42.509838" lon="1.230625">
        <ele>832.952087</ele>
        <time>2019-08-22T13:20:05.477Z</time>
      </trkpt>
      <trkpt lat="42.511054" lon="1.231682">
        <ele>834.605471</ele>
        <time>2019-08-22T13:20:34.257Z</time>
      </trkpt>
      <trkpt lat="42.511393" lon="1.232061">
        <ele>835.251105</ele>
        <time>2019-08-22T13:20:43.575Z</time>
      </trkpt>
      <trkpt lat="42.511613" lon="1.232399">
        <ele>835.739617</ele>
        <time>2019-08-22T13:20:50.571Z</time>
      </trkpt>
      <trkpt lat="42.511785" lon="1.232665">
        <ele>836.122963</ele>
        <time>2019-08-22T13:20:55.963Z</time>
      </trkpt>
      <trkpt lat="42.512191" lon="1.232898">
        <ele>837.089832</ele>
        <time>2019-08-22T13:21:05.218Z</time>
      </trkpt>
      <trkpt lat="42.512869" lon="1.233051">
        <ele>838.794327</ele>
        <time>2019-08-22T13:21:20.904Z</time>
      </trkpt>
      <trkpt lat="42.513261" lon="1.233204">
        <ele>839.805892</ele>
        <time>2019-08-22T13:21:32.541Z</time>
      </trkpt>
      <trkpt lat="42.513885" lon="1.233782">
        <ele>841.655830</ele>
        <time>2019-08-22T13:21:53.911Z</time>
      </trkpt>
      <trkpt lat="42.514103" lon="1.233882">
        <ele>842.211610</ele>
        <time>2019-08-22T13:21:59.208Z</time>
      </trkpt>
      <trkpt lat="42.514217" lon="1.233935">
        <ele>842.502653</ele>
        <time>2019-08-22T13:22:03.442Z</time>
      </trkpt>
      <trkpt lat="42.514536" lon="1.233955">
        <ele>843.273900</ele>
        <time>2019-08-22T13:22:11.536Z</time>
      </trkpt>
      <trkpt lat="42.514948" lon="1.233775">
        <ele>844.319255</ele>
        <time>2019-08-22T13:22:22.763Z</time>
      </trkpt>
      <trkpt lat="42.516350" lon="1.232911">
        <ele>845.106719</ele>
        <time>2019-08-22T13:22:48.225Z</time>
      </trkpt>
      <trkpt lat="42.517022" lon="1.232858">
        <ele>845.081160</ele>
        <time>2019-08-22T13:22:56.174Z</time>
      </trkpt>
      <trkpt lat="42.517753" lon="1.232911">
        <ele>844.883317</ele>
        <time>2019-08-22T13:23:05.157Z</time>
      </trkpt>
      <trkpt lat="42.518962" lon="1.233257">
        <ele>844.910838</ele>
        <time>2019-08-22T13:23:24.443Z</time>
      </trkpt>
      <trkpt lat="42.519308" lon="1.233503">
        <ele>845.358068</ele>
        <time>2019-08-22T13:23:32.366Z</time>
      </trkpt>
      <trkpt lat="42.519985" lon="1.234367">
        <ele>846.422178</ele>
        <time>2019-08-22T13:23:52.193Z</time>
      </trkpt>
      <trkpt lat="42.520660" lon="1.235339">
        <ele>846.945257</ele>
        <time>2019-08-22T13:24:10.142Z</time>
      </trkpt>
      <trkpt lat="42.520811" lon="1.235551">
        <ele>847.021647</ele>
        <time>2019-08-22T13:24:13.816Z</time>
      </trkpt>
      <trkpt lat="42.520846" lon="1.235624">
        <ele>847.044211</ele>
        <time>2019-08-22T13:24:14.660Z</time>
      </trkpt>
      <trkpt lat="42.521158" lon="1.235958">
        <ele>847.183926</ele>
        <time>2019-08-22T13:24:20.146Z</time>
      </trkpt>
      <trkpt lat="42.521196" lon="1.235986">
        <ele>847.199128</ele>
        <time>2019-08-22T13:24:20.593Z</time>
      </trkpt>
      <trkpt lat="42.521207" lon="1.236024">
        <ele>847.209707</ele>
        <time>2019-08-22T13:24:20.967Z</time>
      </trkpt>
      <trkpt lat="42.521225" lon="1.236057">
        <ele>847.220344</ele>
        <time>2019-08-22T13:24:21.292Z</time>
      </trkpt>
      <trkpt lat="42.521249" lon="1.236082">
        <ele>847.230981</ele>
        <time>2019-08-22T13:24:21.690Z</time>
      </trkpt>
      <trkpt lat="42.521277" lon="1.236098">
        <ele>847.241662</ele>
        <time>2019-08-22T13:24:22.692Z</time>
      </trkpt>
      <trkpt lat="42.521318" lon="1.236164">
        <ele>847.264027</ele>
        <time>2019-08-22T13:24:23.790Z</time>
      </trkpt>
      <trkpt lat="42.521567" lon="1.236523">
        <ele>847.596875</ele>
        <time>2019-08-22T13:24:28.981Z</time>
      </trkpt>
      <trkpt lat="42.521606" lon="1.236542">
        <ele>847.647988</ele>
        <time>2019-08-22T13:24:29.844Z</time>
      </trkpt>
      <trkpt lat="42.521656" lon="1.236605">
        <ele>847.732155</ele>
        <time>2019-08-22T13:24:30.676Z</time>
      </trkpt>
      <trkpt lat="42.521724" lon="1.236694">
        <ele>847.848696</ele>
        <time>2019-08-22T13:24:31.785Z</time>
      </trkpt>
      <trkpt lat="42.521788" lon="1.236778">
        <ele>847.958531</ele>
        <time>2019-08-22T13:24:33.410Z</time>
      </trkpt>
      <trkpt lat="42.521844" lon="1.236862">
        <ele>848.061502</ele>
        <time>2019-08-22T13:24:34.888Z</time>
      </trkpt>
      <trkpt lat="42.521998" lon="1.237130">
        <ele>848.370442</ele>
        <time>2019-08-22T13:24:38.075Z</time>
      </trkpt>
      <trkpt lat="42.522128" lon="1.237492">
        <ele>848.736525</ele>
        <time>2019-08-22T13:24:44.161Z</time>
      </trkpt>
      <trkpt lat="42.522141" lon="1.237545">
        <ele>848.787306</ele>
        <time>2019-08-22T13:24:44.681Z</time>
      </trkpt>
      <trkpt lat="42.522155" lon="1.237606">
        <ele>848.845387</ele>
        <time>2019-08-22T13:24:46.627Z</time>
      </trkpt>
      <trkpt lat="42.522199" lon="1.237933">
        <ele>849.147577</ele>
        <time>2019-08-22T13:24:52.710Z</time>
      </trkpt>
      <trkpt lat="42.522191" lon="1.238360">
        <ele>849.555111</ele>
        <time>2019-08-22T13:25:00.774Z</time>
      </trkpt>
      <trkpt lat="42.522027" lon="1.239106">
        <ele>852.129418</ele>
        <time>2019-08-22T13:25:18.838Z</time>
      </trkpt>
      <trkpt lat="42.521944" lon="1.239394">
        <ele>853.152011</ele>
        <time>2019-08-22T13:25:24.630Z</time>
      </trkpt>
      <trkpt lat="42.521895" lon="1.239559">
        <ele>853.740269</ele>
        <time>2019-08-22T13:25:30.490Z</time>
      </trkpt>
      <trkpt lat="42.521809" lon="1.239991">
        <ele>855.220024</ele>
        <time>2019-08-22T13:25:41.144Z</time>
      </trkpt>
      <trkpt lat="42.521832" lon="1.240363">
        <ele>856.454495</ele>
        <time>2019-08-22T13:25:48.757Z</time>
      </trkpt>
      <trkpt lat="42.521847" lon="1.240421">
        <ele>856.657758</ele>
        <time>2019-08-22T13:25:51.256Z</time>
      </trkpt>
      <trkpt lat="42.521863" lon="1.240472">
        <ele>856.841051</ele>
        <time>2019-08-22T13:25:52.785Z</time>
      </trkpt>
      <trkpt lat="42.522432" lon="1.241548">
        <ele>862.611110</ele>
        <time>2019-08-22T13:26:32.752Z</time>
      </trkpt>
      <trkpt lat="42.522772" lon="1.241957">
        <ele>865.432743</ele>
        <time>2019-08-22T13:26:50.809Z</time>
      </trkpt>
      <trkpt lat="42.522845" lon="1.242019">
        <ele>865.967544</ele>
        <time>2019-08-22T13:26:54.182Z</time>
      </trkpt>
      <trkpt lat="42.523013" lon="1.242154">
        <ele>867.180022</ele>
        <time>2019-08-22T13:27:01.921Z</time>
      </trkpt>
      <trkpt lat="42.523908" lon="1.242852">
        <ele>872.524376</ele>
        <time>2019-08-22T13:27:43.702Z</time>
      </trkpt>
      <trkpt lat="42.524157" lon="1.243147">
        <ele>874.123306</ele>
        <time>2019-08-22T13:27:56.566Z</time>
      </trkpt>
      <trkpt lat="42.524333" lon="1.243455">
        <ele>875.512658</ele>
        <time>2019-08-22T13:28:05.417Z</time>
      </trkpt>
      <trkpt lat="42.524376" lon="1.243545">
        <ele>875.895016</ele>
        <time>2019-08-22T13:28:08.027Z</time>
      </trkpt>
      <trkpt lat="42.524477" lon="1.243784">
        <ele>876.877144</ele>
        <time>2019-08-22T13:28:13.298Z</time>
      </trkpt>
      <trkpt lat="42.524845" lon="1.244714">
        <ele>877.415075</ele>
        <time>2019-08-22T13:28:28.457Z</time>
      </trkpt>
      <trkpt lat="42.525296" lon="1.246361">
        <ele>878.015580</ele>
        <time>2019-08-22T13:28:43.181Z</time>
      </trkpt>
      <trkpt lat="42.525322" lon="1.246432">
        <ele>878.281891</ele>
        <time>2019-08-22T13:28:43.723Z</time>
      </trkpt>
      <trkpt lat="42.525388" lon="1.246618">
        <ele>878.975317</ele>
        <time>2019-08-22T13:28:46.769Z</time>
      </trkpt>
      <trkpt lat="42.525496" lon="1.246775">
        <ele>879.696721</ele>
        <time>2019-08-22T13:28:52.117Z</time>
      </trkpt>
      <trkpt lat="42.525605" lon="1.246858">
        <ele>880.266408</ele>
        <time>2019-08-22T13:28:54.584Z</time>
      </trkpt>
      <trkpt lat="42.525627" lon="1.246875">
        <ele>880.381800</ele>
        <time>2019-08-22T13:28:55.395Z</time>
      </trkpt>
      <trkpt lat="42.525773" lon="1.246955">
        <ele>881.099454</ele>
        <time>2019-08-22T13:29:01.131Z</time>
      </trkpt>
      <trkpt lat="42.526083" lon="1.247113">
        <ele>882.608772</ele>
        <time>2019-08-22T13:29:12.621Z</time>
      </trkpt>
      <trkpt lat="42.526431" lon="1.247262">
        <ele>884.271989</ele>
        <time>2019-08-22T13:29:27.734Z</time>
      </trkpt>
      <trkpt lat="42.527010" lon="1.247511">
        <ele>888.952213</ele>
        <time>2019-08-22T13:29:59.203Z</time>
      </trkpt>
      <trkpt lat="42.527630" lon="1.247817">
        <ele>895.742117</ele>
        <time>2019-08-22T13:30:42.486Z</time>
      </trkpt>
      <trkpt lat="42.528631" lon="1.248707">
        <ele>906.597248</ele>
        <time>2019-08-22T13:31:47.771Z</time>
      </trkpt>
      <trkpt lat="42.529294" lon="1.249000">
        <ele>911.168928</ele>
        <time>2019-08-22T13:32:15.119Z</time>
      </trkpt>
      <trkpt lat="42.530133" lon="1.249246">
        <ele>916.344003</ele>
        <time>2019-08-22T13:32:44.742Z</time>
      </trkpt>
      <trkpt lat="42.530377" lon="1.249362">
        <ele>917.249523</ele>
        <time>2019-08-22T13:32:52.783Z</time>
      </trkpt>
      <trkpt lat="42.530577" lon="1.249538">
        <ele>918.084405</ele>
        <time>2019-08-22T13:33:00.260Z</time>
      </trkpt>
      <trkpt lat="42.530753" lon="1.249792">
        <ele>918.984270</ele>
        <time>2019-08-22T13:33:08.362Z</time>
      </trkpt>
      <trkpt lat="42.530802" lon="1.249985">
        <ele>919.511136</ele>
        <time>2019-08-22T13:33:13.204Z</time>
      </trkpt>
      <trkpt lat="42.530726" lon="1.250989">
        <ele>922.116084</ele>
        <time>2019-08-22T13:33:34.667Z</time>
      </trkpt>
      <trkpt lat="42.530815" lon="1.251516">
        <ele>921.268233</ele>
        <time>2019-08-22T13:33:41.042Z</time>
      </trkpt>
      <trkpt lat="42.530975" lon="1.251773">
        <ele>920.732298</ele>
        <time>2019-08-22T13:33:43.857Z</time>
      </trkpt>
      <trkpt lat="42.531159" lon="1.251890">
        <ele>920.293049</ele>
        <time>2019-08-22T13:33:46.011Z</time>
      </trkpt>
      <trkpt lat="42.531543" lon="1.251957">
        <ele>919.456134</ele>
        <time>2019-08-22T13:33:49.868Z</time>
      </trkpt>
      <trkpt lat="42.531794" lon="1.251908">
        <ele>918.907968</ele>
        <time>2019-08-22T13:33:52.300Z</time>
      </trkpt>
      <trkpt lat="42.531924" lon="1.251882">
        <ele>918.623915</ele>
        <time>2019-08-22T13:33:53.592Z</time>
      </trkpt>
      <trkpt lat="42.532306" lon="1.251762">
        <ele>917.403952</ele>
        <time>2019-08-22T13:33:57.323Z</time>
      </trkpt>
      <trkpt lat="42.532774" lon="1.251617">
        <ele>915.526201</ele>
        <time>2019-08-22T13:34:01.817Z</time>
      </trkpt>
      <trkpt lat="42.532944" lon="1.251565">
        <ele>914.844540</ele>
        <time>2019-08-22T13:34:03.487Z</time>
      </trkpt>
      <trkpt lat="42.533380" lon="1.251431">
        <ele>913.095877</ele>
        <time>2019-08-22T13:34:07.682Z</time>
      </trkpt>
      <trkpt lat="42.533624" lon="1.251430">
        <ele>912.141434</ele>
        <time>2019-08-22T13:34:10.201Z</time>
      </trkpt>
      <trkpt lat="42.533808" lon="1.251484">
        <ele>911.405056</ele>
        <time>2019-08-22T13:34:12.235Z</time>
      </trkpt>
      <trkpt lat="42.534171" lon="1.251828">
        <ele>911.079249</ele>
        <time>2019-08-22T13:34:17.804Z</time>
      </trkpt>
      <trkpt lat="42.534447" lon="1.252556">
        <ele>910.891677</ele>
        <time>2019-08-22T13:34:27.015Z</time>
      </trkpt>
      <trkpt lat="42.534498" lon="1.252972">
        <ele>910.795059</ele>
        <time>2019-08-22T13:34:31.967Z</time>
      </trkpt>
      <trkpt lat="42.534782" lon="1.253836">
        <ele>910.732559</ele>
        <time>2019-08-22T13:34:43.055Z</time>
      </trkpt>
      <trkpt lat="42.534834" lon="1.254252">
        <ele>910.872130</ele>
        <time>2019-08-22T13:34:47.980Z</time>
      </trkpt>
      <trkpt lat="42.534663" lon="1.255465">
        <ele>911.280647</ele>
        <time>2019-08-22T13:35:02.256Z</time>
      </trkpt>
      <trkpt lat="42.534520" lon="1.255852">
        <ele>911.423854</ele>
        <time>2019-08-22T13:35:07.809Z</time>
      </trkpt>
      <trkpt lat="42.534181" lon="1.256455">
        <ele>912.038093</ele>
        <time>2019-08-22T13:35:19.036Z</time>
      </trkpt>
      <trkpt lat="42.534019" lon="1.257094">
        <ele>912.621182</ele>
        <time>2019-08-22T13:35:29.940Z</time>
      </trkpt>
      <trkpt lat="42.533997" lon="1.257405">
        <ele>912.890765</ele>
        <time>2019-08-22T13:35:34.551Z</time>
      </trkpt>
      <trkpt lat="42.534133" lon="1.258136">
        <ele>913.541310</ele>
        <time>2019-08-22T13:35:45.221Z</time>
      </trkpt>
      <trkpt lat="42.534213" lon="1.258536">
        <ele>913.491391</ele>
        <time>2019-08-22T13:35:50.805Z</time>
      </trkpt>
      <trkpt lat="42.534325" lon="1.259091">
        <ele>913.399550</ele>
        <time>2019-08-22T13:35:57.590Z</time>
      </trkpt>
      <trkpt lat="42.534433" lon="1.260257">
        <ele>913.211988</ele>
        <time>2019-08-22T13:36:08.587Z</time>
      </trkpt>
      <trkpt lat="42.534409" lon="1.260991">
        <ele>913.227383</ele>
        <time>2019-08-22T13:36:15.216Z</time>
      </trkpt>
      <trkpt lat="42.534439" lon="1.261465">
        <ele>913.293912</ele>
        <time>2019-08-22T13:36:19.902Z</time>
      </trkpt>
      <trkpt lat="42.534503" lon="1.261696">
        <ele>913.328424</ele>
        <time>2019-08-22T13:36:22.010Z</time>
      </trkpt>
      <trkpt lat="42.534578" lon="1.261855">
        <ele>913.354824</ele>
        <time>2019-08-22T13:36:24.955Z</time>
      </trkpt>
      <trkpt lat="42.535091" lon="1.262788">
        <ele>913.657460</ele>
        <time>2019-08-22T13:36:39.863Z</time>
      </trkpt>
      <trkpt lat="42.535170" lon="1.263025">
        <ele>914.163038</ele>
        <time>2019-08-22T13:36:44.844Z</time>
      </trkpt>
      <trkpt lat="42.535294" lon="1.263562">
        <ele>915.256810</ele>
        <time>2019-08-22T13:36:54.817Z</time>
      </trkpt>
      <trkpt lat="42.535323" lon="1.263715">
        <ele>915.563864</ele>
        <time>2019-08-22T13:36:57.575Z</time>
      </trkpt>
      <trkpt lat="42.535483" lon="1.264555">
        <ele>917.250166</ele>
        <time>2019-08-22T13:37:15.609Z</time>
      </trkpt>
      <trkpt lat="42.535792" lon="1.266487">
        <ele>921.814575</ele>
        <time>2019-08-22T13:37:56.178Z</time>
      </trkpt>
      <trkpt lat="42.536363" lon="1.269277">
        <ele>929.093088</ele>
        <time>2019-08-22T13:38:56.438Z</time>
      </trkpt>
      <trkpt lat="42.536899" lon="1.272822">
        <ele>939.170824</ele>
        <time>2019-08-22T13:40:17.216Z</time>
      </trkpt>
      <trkpt lat="42.536845" lon="1.273838">
        <ele>942.014454</ele>
        <time>2019-08-22T13:40:40.366Z</time>
      </trkpt>
      <trkpt lat="42.536822" lon="1.274293">
        <ele>943.287616</ele>
        <time>2019-08-22T13:40:50.216Z</time>
      </trkpt>
      <trkpt lat="42.536811" lon="1.274658">
        <ele>944.303078</ele>
        <time>2019-08-22T13:40:57.847Z</time>
      </trkpt>
      <trkpt lat="42.536809" lon="1.274698">
        <ele>944.411700</ele>
        <time>2019-08-22T13:40:58.706Z</time>
      </trkpt>
      <trkpt lat="42.536812" lon="1.275052">
        <ele>945.370858</ele>
        <time>2019-08-22T13:41:06.200Z</time>
      </trkpt>
      <trkpt lat="42.536897" lon="1.276951">
        <ele>950.525311</ele>
        <time>2019-08-22T13:41:47.154Z</time>
      </trkpt>
      <trkpt lat="42.536914" lon="1.277505">
        <ele>952.651460</ele>
        <time>2019-08-22T13:42:00.088Z</time>
      </trkpt>
      <trkpt lat="42.536909" lon="1.277714">
        <ele>953.500010</ele>
        <time>2019-08-22T13:42:05.471Z</time>
      </trkpt>
      <trkpt lat="42.536892" lon="1.277884">
        <ele>954.196179</ele>
        <time>2019-08-22T13:42:09.502Z</time>
      </trkpt>
      <trkpt lat="42.536868" lon="1.278049">
        <ele>954.878655</ele>
        <time>2019-08-22T13:42:13.605Z</time>
      </trkpt>
      <trkpt lat="42.536809" lon="1.278315">
        <ele>956.005904</ele>
        <time>2019-08-22T13:42:21.005Z</time>
      </trkpt>
      <trkpt lat="42.536596" lon="1.278893">
        <ele>958.628358</ele>
        <time>2019-08-22T13:42:40.720Z</time>
      </trkpt>
      <trkpt lat="42.535897" lon="1.280050">
        <ele>964.894731</ele>
        <time>2019-08-22T13:43:26.267Z</time>
      </trkpt>
      <trkpt lat="42.535867" lon="1.280142">
        <ele>965.322786</ele>
        <time>2019-08-22T13:43:30.701Z</time>
      </trkpt>
      <trkpt lat="42.535837" lon="1.280231">
        <ele>965.739200</ele>
        <time>2019-08-22T13:43:33.523Z</time>
      </trkpt>
      <trkpt lat="42.535805" lon="1.280810">
        <ele>968.209626</ele>
        <time>2019-08-22T13:43:48.076Z</time>
      </trkpt>
      <trkpt lat="42.535816" lon="1.280875">
        <ele>968.493386</ele>
        <time>2019-08-22T13:43:49.691Z</time>
      </trkpt>
      <trkpt lat="42.535848" lon="1.281060">
        <ele>969.301913</ele>
        <time>2019-08-22T13:43:54.340Z</time>
      </trkpt>
      <trkpt lat="42.535883" lon="1.281264">
        <ele>970.193101</ele>
        <time>2019-08-22T13:44:00.038Z</time>
      </trkpt>
      <trkpt lat="42.535938" lon="1.281600">
        <ele>971.374225</ele>
        <time>2019-08-22T13:44:08.734Z</time>
      </trkpt>
      <trkpt lat="42.535952" lon="1.281686">
        <ele>971.569670</ele>
        <time>2019-08-22T13:44:11.156Z</time>
      </trkpt>
      <trkpt lat="42.535988" lon="1.282200">
        <ele>972.715429</ele>
        <time>2019-08-22T13:44:23.326Z</time>
      </trkpt>
      <trkpt lat="42.535944" lon="1.282844">
        <ele>974.150662</ele>
        <time>2019-08-22T13:44:34.684Z</time>
      </trkpt>
      <trkpt lat="42.535828" lon="1.283366">
        <ele>975.360567</ele>
        <time>2019-08-22T13:44:44.263Z</time>
      </trkpt>
      <trkpt lat="42.535255" lon="1.285047">
        <ele>978.176400</ele>
        <time>2019-08-22T13:45:16.323Z</time>
      </trkpt>
      <trkpt lat="42.535147" lon="1.285753">
        <ele>979.083522</ele>
        <time>2019-08-22T13:45:26.930Z</time>
      </trkpt>
      <trkpt lat="42.535150" lon="1.286285">
        <ele>979.680514</ele>
        <time>2019-08-22T13:45:34.157Z</time>
      </trkpt>
      <trkpt lat="42.535675" lon="1.289277">
        <ele>982.617525</ele>
        <time>2019-08-22T13:46:17.451Z</time>
      </trkpt>
      <trkpt lat="42.535914" lon="1.290136">
        <ele>983.895970</ele>
        <time>2019-08-22T13:46:33.548Z</time>
      </trkpt>
      <trkpt lat="42.536874" lon="1.293046">
        <ele>989.328859</ele>
        <time>2019-08-22T13:47:31.250Z</time>
      </trkpt>
      <trkpt lat="42.537398" lon="1.295888">
        <ele>995.412073</ele>
        <time>2019-08-22T13:48:25.523Z</time>
      </trkpt>
      <trkpt lat="42.537420" lon="1.295947">
        <ele>995.600031</ele>
        <time>2019-08-22T13:48:27.697Z</time>
      </trkpt>
      <trkpt lat="42.537504" lon="1.296173">
        <ele>996.319535</ele>
        <time>2019-08-22T13:48:32.988Z</time>
      </trkpt>
      <trkpt lat="42.537759" lon="1.296715">
        <ele>998.147430</ele>
        <time>2019-08-22T13:48:46.416Z</time>
      </trkpt>
      <trkpt lat="42.537833" lon="1.296892">
        <ele>998.725893</ele>
        <time>2019-08-22T13:48:51.593Z</time>
      </trkpt>
      <trkpt lat="42.537968" lon="1.297219">
        <ele>999.791334</ele>
        <time>2019-08-22T13:49:00.059Z</time>
      </trkpt>
      <trkpt lat="42.537989" lon="1.297269">
        <ele>999.954924</ele>
        <time>2019-08-22T13:49:01.424Z</time>
      </trkpt>
      <trkpt lat="42.538143" lon="1.297641">
        <ele>1001.278424</ele>
        <time>2019-08-22T13:49:13.029Z</time>
      </trkpt>
      <trkpt lat="42.538449" lon="1.298557">
        <ele>1005.365943</ele>
        <time>2019-08-22T13:49:40.096Z</time>
      </trkpt>
      <trkpt lat="42.538498" lon="1.298704">
        <ele>1006.021665</ele>
        <time>2019-08-22T13:49:44.317Z</time>
      </trkpt>
      <trkpt lat="42.538631" lon="1.299079">
        <ele>1007.713087</ele>
        <time>2019-08-22T13:49:55.936Z</time>
      </trkpt>
      <trkpt lat="42.538770" lon="1.299471">
        <ele>1009.481114</ele>
        <time>2019-08-22T13:50:08.273Z</time>
      </trkpt>
      <trkpt lat="42.538952" lon="1.300122">
        <ele>1012.350733</ele>
        <time>2019-08-22T13:50:27.527Z</time>
      </trkpt>
      <trkpt lat="42.539046" lon="1.300730">
        <ele>1014.943483</ele>
        <time>2019-08-22T13:50:45.765Z</time>
      </trkpt>
      <trkpt lat="42.538913" lon="1.302682">
        <ele>1022.935338</ele>
        <time>2019-08-22T13:51:38.850Z</time>
      </trkpt>
      <trkpt lat="42.538953" lon="1.303102">
        <ele>1024.543663</ele>
        <time>2019-08-22T13:51:49.746Z</time>
      </trkpt>
      <trkpt lat="42.539064" lon="1.303443">
        <ele>1025.959442</ele>
        <time>2019-08-22T13:51:59.335Z</time>
      </trkpt>
      <trkpt lat="42.539526" lon="1.304317">
        <ele>1030.044491</ele>
        <time>2019-08-22T13:52:27.321Z</time>
      </trkpt>
      <trkpt lat="42.539821" lon="1.305063">
        <ele>1032.685697</ele>
        <time>2019-08-22T13:52:49.186Z</time>
      </trkpt>
      <trkpt lat="42.540099" lon="1.306045">
        <ele>1035.908527</ele>
        <time>2019-08-22T13:53:15.264Z</time>
      </trkpt>
      <trkpt lat="42.540317" lon="1.306816">
        <ele>1037.851693</ele>
        <time>2019-08-22T13:53:31.043Z</time>
      </trkpt>
      <trkpt lat="42.540451" lon="1.307234">
        <ele>1038.025236</ele>
        <time>2019-08-22T13:53:38.143Z</time>
      </trkpt>
      <trkpt lat="42.540556" lon="1.307495">
        <ele>1038.138446</ele>
        <time>2019-08-22T13:53:41.992Z</time>
      </trkpt>
      <trkpt lat="42.540589" lon="1.307566">
        <ele>1038.170405</ele>
        <time>2019-08-22T13:53:43.179Z</time>
      </trkpt>
      <trkpt lat="42.540669" lon="1.307741">
        <ele>1038.248809</ele>
        <time>2019-08-22T13:53:45.085Z</time>
      </trkpt>
      <trkpt lat="42.541768" lon="1.309544">
        <ele>1039.675970</ele>
        <time>2019-08-22T13:54:07.737Z</time>
      </trkpt>
      <trkpt lat="42.542795" lon="1.311229">
        <ele>1043.626696</ele>
        <time>2019-08-22T13:54:48.870Z</time>
      </trkpt>
      <trkpt lat="42.543468" lon="1.312280">
        <ele>1048.038615</ele>
        <time>2019-08-22T13:55:25.287Z</time>
      </trkpt>
      <trkpt lat="42.543756" lon="1.312634">
        <ele>1049.888142</ele>
        <time>2019-08-22T13:55:39.501Z</time>
      </trkpt>
      <trkpt lat="42.544199" lon="1.313035">
        <ele>1052.513423</ele>
        <time>2019-08-22T13:56:00.455Z</time>
      </trkpt>
      <trkpt lat="42.545106" lon="1.313738">
        <ele>1057.419832</ele>
        <time>2019-08-22T13:56:35.921Z</time>
      </trkpt>
      <trkpt lat="42.545407" lon="1.314006">
        <ele>1057.780267</ele>
        <time>2019-08-22T13:56:45.626Z</time>
      </trkpt>
      <trkpt lat="42.545436" lon="1.314032">
        <ele>1057.815066</ele>
        <time>2019-08-22T13:56:46.070Z</time>
      </trkpt>
      <trkpt lat="42.546609" lon="1.315305">
        <ele>1059.000083</ele>
        <time>2019-08-22T13:57:09.597Z</time>
      </trkpt>
      <trkpt lat="42.547603" lon="1.316342">
        <ele>1057.755042</ele>
        <time>2019-08-22T13:57:23.533Z</time>
      </trkpt>
      <trkpt lat="42.547960" lon="1.316811">
        <ele>1057.617837</ele>
        <time>2019-08-22T13:57:30.621Z</time>
      </trkpt>
      <trkpt lat="42.547984" lon="1.316829">
        <ele>1057.678075</ele>
        <time>2019-08-22T13:57:30.899Z</time>
      </trkpt>
      <trkpt lat="42.548034" lon="1.316869">
        <ele>1057.805576</ele>
        <time>2019-08-22T13:57:31.901Z</time>
      </trkpt>
      <trkpt lat="42.548327" lon="1.317097">
        <ele>1058.547527</ele>
        <time>2019-08-22T13:57:37.762Z</time>
      </trkpt>
      <trkpt lat="42.548450" lon="1.317193">
        <ele>1058.859226</ele>
        <time>2019-08-22T13:57:40.318Z</time>
      </trkpt>
      <trkpt lat="42.548521" lon="1.317227">
        <ele>1059.024625</ele>
        <time>2019-08-22T13:57:41.766Z</time>
      </trkpt>
      <trkpt lat="42.548715" lon="1.317315">
        <ele>1059.473984</ele>
        <time>2019-08-22T13:57:46.290Z</time>
      </trkpt>
      <trkpt lat="42.548742" lon="1.317268">
        <ele>1059.570443</ele>
        <time>2019-08-22T13:57:47.523Z</time>
      </trkpt>
      <trkpt lat="42.548875" lon="1.317299">
        <ele>1059.866902</ele>
        <time>2019-08-22T13:57:51.443Z</time>
      </trkpt>
      <trkpt lat="42.548875" lon="1.317299">
        <ele>1059.866902</ele>
        <time>2019-08-22T13:57:51.473Z</time>
      </trkpt>
      <trkpt lat="42.548875" lon="1.317299">
        <ele>1059.866902</ele>
        <time>2019-08-22T13:57:51.476Z</time>
      </trkpt>
      <trkpt lat="42.548865" lon="1.317383">
        <ele>1060.004614</ele>
        <time>2019-08-22T13:57:53.605Z</time>
      </trkpt>
      <trkpt lat="42.548895" lon="1.317395">
        <ele>1060.073322</ele>
        <time>2019-08-22T13:57:54.388Z</time>
      </trkpt>
      <trkpt lat="42.549029" lon="1.317450">
        <ele>1060.380866</ele>
        <time>2019-08-22T13:57:58.545Z</time>
      </trkpt>
      <trkpt lat="42.549257" lon="1.317517">
        <ele>1060.893353</ele>
        <time>2019-08-22T13:58:05.622Z</time>
      </trkpt>
      <trkpt lat="42.549358" lon="1.317528">
        <ele>1061.115950</ele>
        <time>2019-08-22T13:58:08.996Z</time>
      </trkpt>
      <trkpt lat="42.549413" lon="1.317541">
        <ele>1061.238595</ele>
        <time>2019-08-22T13:58:10.798Z</time>
      </trkpt>
      <trkpt lat="42.549508" lon="1.317591">
        <ele>1061.757639</ele>
        <time>2019-08-22T13:58:14.107Z</time>
      </trkpt>
      <trkpt lat="42.549625" lon="1.317653">
        <ele>1062.621559</ele>
        <time>2019-08-22T13:58:19.166Z</time>
      </trkpt>
      <trkpt lat="42.549865" lon="1.318015">
        <ele>1065.089349</ele>
        <time>2019-08-22T13:58:33.580Z</time>
      </trkpt>
      <trkpt lat="42.549907" lon="1.318161">
        <ele>1065.883569</ele>
        <time>2019-08-22T13:58:37.908Z</time>
      </trkpt>
      <trkpt lat="42.549920" lon="1.318207">
        <ele>1066.133225</ele>
        <time>2019-08-22T13:58:39.565Z</time>
      </trkpt>
      <trkpt lat="42.549957" lon="1.318412">
        <ele>1067.202727</ele>
        <time>2019-08-22T13:58:45.448Z</time>
      </trkpt>
      <trkpt lat="42.549961" lon="1.318444">
        <ele>1067.367196</ele>
        <time>2019-08-22T13:58:46.874Z</time>
      </trkpt>
      <trkpt lat="42.550092" lon="1.319405">
        <ele>1072.319457</ele>
        <time>2019-08-22T13:59:19.055Z</time>
      </trkpt>
      <trkpt lat="42.549952" lon="1.319479">
        <ele>1073.352861</ele>
        <time>2019-08-22T13:59:27.230Z</time>
      </trkpt>
      <trkpt lat="42.549935" lon="1.319564">
        <ele>1073.846990</ele>
        <time>2019-08-22T13:59:31.040Z</time>
      </trkpt>
      <trkpt lat="42.549899" lon="1.320186">
        <ele>1078.469403</ele>
        <time>2019-08-22T13:59:56.491Z</time>
      </trkpt>
      <trkpt lat="42.549932" lon="1.320319">
        <ele>1079.509148</ele>
        <time>2019-08-22T14:00:02.515Z</time>
      </trkpt>
      <trkpt lat="42.549943" lon="1.320364">
        <ele>1079.860413</ele>
        <time>2019-08-22T14:00:05.192Z</time>
      </trkpt>
      <trkpt lat="42.550200" lon="1.320866">
        <ele>1084.389458</ele>
        <time>2019-08-22T14:00:32.442Z</time>
      </trkpt>
      <trkpt lat="42.550206" lon="1.320922">
        <ele>1084.808708</ele>
        <time>2019-08-22T14:00:35.213Z</time>
      </trkpt>
      <trkpt lat="42.550283" lon="1.321624">
        <ele>1090.066922</ele>
        <time>2019-08-22T14:01:08.855Z</time>
      </trkpt>
      <trkpt lat="42.550377" lon="1.321868">
        <ele>1092.160336</ele>
        <time>2019-08-22T14:01:21.044Z</time>
      </trkpt>
      <trkpt lat="42.550409" lon="1.321928">
        <ele>1092.800006</ele>
        <time>2019-08-22T14:01:25.972Z</time>
      </trkpt>
      <trkpt lat="42.550539" lon="1.322580">
        <ele>1098.633007</ele>
        <time>2019-08-22T14:01:58.019Z</time>
      </trkpt>
      <trkpt lat="42.550532" lon="1.323126">
        <ele>1103.348762</ele>
        <time>2019-08-22T14:02:25.364Z</time>
      </trkpt>
      <trkpt lat="42.550299" lon="1.324861">
        <ele>1117.407795</ele>
        <time>2019-08-22T14:03:55.781Z</time>
      </trkpt>
      <trkpt lat="42.550393" lon="1.325841">
        <ele>1124.192406</ele>
        <time>2019-08-22T14:04:38.201Z</time>
      </trkpt>
      <trkpt lat="42.550557" lon="1.326264">
        <ele>1127.473963</ele>
        <time>2019-08-22T14:04:55.755Z</time>
      </trkpt>
      <trkpt lat="42.550508" lon="1.326466">
        <ele>1128.933959</ele>
        <time>2019-08-22T14:05:03.496Z</time>
      </trkpt>
      <trkpt lat="42.550460" lon="1.326487">
        <ele>1129.403928</ele>
        <time>2019-08-22T14:05:05.681Z</time>
      </trkpt>
      <trkpt lat="42.550391" lon="1.326406">
        <ele>1129.986586</ele>
        <time>2019-08-22T14:05:09.397Z</time>
      </trkpt>
      <trkpt lat="42.550335" lon="1.326103">
        <ele>1131.212139</ele>
        <time>2019-08-22T14:05:19.790Z</time>
      </trkpt>
      <trkpt lat="42.550251" lon="1.325810">
        <ele>1132.445599</ele>
        <time>2019-08-22T14:05:28.662Z</time>
      </trkpt>
      <trkpt lat="42.550010" lon="1.324885">
        <ele>1136.294793</ele>
        <time>2019-08-22T14:05:56.918Z</time>
      </trkpt>
      <trkpt lat="42.549892" lon="1.324023">
        <ele>1140.016214</ele>
        <time>2019-08-22T14:06:22.377Z</time>
      </trkpt>
      <trkpt lat="42.549661" lon="1.323849">
        <ele>1142.176727</ele>
        <time>2019-08-22T14:06:33.586Z</time>
      </trkpt>
      <trkpt lat="42.549393" lon="1.323820">
        <ele>1144.375417</ele>
        <time>2019-08-22T14:06:46.470Z</time>
      </trkpt>
      <trkpt lat="42.548675" lon="1.323385">
        <ele>1150.805634</ele>
        <time>2019-08-22T14:07:29.911Z</time>
      </trkpt>
      <trkpt lat="42.548404" lon="1.323068">
        <ele>1153.731297</ele>
        <time>2019-08-22T14:07:52.452Z</time>
      </trkpt>
      <trkpt lat="42.548317" lon="1.323083">
        <ele>1154.629100</ele>
        <time>2019-08-22T14:07:58.255Z</time>
      </trkpt>
      <trkpt lat="42.548270" lon="1.323200">
        <ele>1155.705310</ele>
        <time>2019-08-22T14:08:04.874Z</time>
      </trkpt>
      <trkpt lat="42.548382" lon="1.323505">
        <ele>1158.457463</ele>
        <time>2019-08-22T14:08:21.054Z</time>
      </trkpt>
      <trkpt lat="42.548616" lon="1.323799">
        <ele>1161.952753</ele>
        <time>2019-08-22T14:08:41.510Z</time>
      </trkpt>
      <trkpt lat="42.548740" lon="1.324362">
        <ele>1166.698254</ele>
        <time>2019-08-22T14:09:09.583Z</time>
      </trkpt>
      <trkpt lat="42.548834" lon="1.325019">
        <ele>1172.103159</ele>
        <time>2019-08-22T14:09:41.709Z</time>
      </trkpt>
      <trkpt lat="42.548724" lon="1.325806">
        <ele>1178.472148</ele>
        <time>2019-08-22T14:10:19.444Z</time>
      </trkpt>
      <trkpt lat="42.548867" lon="1.326510">
        <ele>1184.250172</ele>
        <time>2019-08-22T14:10:53.601Z</time>
      </trkpt>
      <trkpt lat="42.548912" lon="1.326599">
        <ele>1185.104252</ele>
        <time>2019-08-22T14:10:58.391Z</time>
      </trkpt>
      <trkpt lat="42.549032" lon="1.326667">
        <ele>1186.500847</ele>
        <time>2019-08-22T14:11:06.320Z</time>
      </trkpt>
      <trkpt lat="42.549369" lon="1.326623">
        <ele>1190.136931</ele>
        <time>2019-08-22T14:11:26.872Z</time>
      </trkpt>
      <trkpt lat="42.549507" lon="1.326763">
        <ele>1191.987246</ele>
        <time>2019-08-22T14:11:37.730Z</time>
      </trkpt>
      <trkpt lat="42.549587" lon="1.326978">
        <ele>1193.883063</ele>
        <time>2019-08-22T14:11:48.934Z</time>
      </trkpt>
      <trkpt lat="42.549620" lon="1.327900">
        <ele>1201.109335</ele>
        <time>2019-08-22T14:12:34.220Z</time>
      </trkpt>
      <trkpt lat="42.549553" lon="1.328622">
        <ele>1206.806087</ele>
        <time>2019-08-22T14:13:09.038Z</time>
      </trkpt>
      <trkpt lat="42.549625" lon="1.329394">
        <ele>1212.716512</ele>
        <time>2019-08-22T14:13:43.935Z</time>
      </trkpt>
      <trkpt lat="42.549868" lon="1.330864">
        <ele>1221.941744</ele>
        <time>2019-08-22T14:14:42.161Z</time>
      </trkpt>
      <trkpt lat="42.549842" lon="1.331389">
        <ele>1225.163780</ele>
        <time>2019-08-22T14:15:03.311Z</time>
      </trkpt>
      <trkpt lat="42.549872" lon="1.331656">
        <ele>1226.817633</ele>
        <time>2019-08-22T14:15:12.166Z</time>
      </trkpt>
      <trkpt lat="42.550114" lon="1.332011">
        <ele>1229.568394</ele>
        <time>2019-08-22T14:15:30.741Z</time>
      </trkpt>
      <trkpt lat="42.550148" lon="1.332114">
        <ele>1230.206774</ele>
        <time>2019-08-22T14:15:33.314Z</time>
      </trkpt>
      <trkpt lat="42.550178" lon="1.332203">
        <ele>1230.760352</ele>
        <time>2019-08-22T14:15:40.103Z</time>
      </trkpt>
      <trkpt lat="42.550324" lon="1.332972">
        <ele>1235.251940</ele>
        <time>2019-08-22T14:16:08.059Z</time>
      </trkpt>
      <trkpt lat="42.550479" lon="1.333176">
        <ele>1236.909495</ele>
        <time>2019-08-22T14:16:20.565Z</time>
      </trkpt>
      <trkpt lat="42.550819" lon="1.333385">
        <ele>1239.775074</ele>
        <time>2019-08-22T14:16:39.761Z</time>
      </trkpt>
      <trkpt lat="42.551297" lon="1.334748">
        <ele>1245.566002</ele>
        <time>2019-08-22T14:17:32.601Z</time>
      </trkpt>
      <trkpt lat="42.551423" lon="1.334981">
        <ele>1246.601041</ele>
        <time>2019-08-22T14:17:40.393Z</time>
      </trkpt>
      <trkpt lat="42.551654" lon="1.335337">
        <ele>1248.299881</ele>
        <time>2019-08-22T14:17:51.821Z</time>
      </trkpt>
      <trkpt lat="42.552170" lon="1.335846">
        <ele>1248.899037</ele>
        <time>2019-08-22T14:18:07.796Z</time>
      </trkpt>
      <trkpt lat="42.552293" lon="1.336039">
        <ele>1248.565242</ele>
        <time>2019-08-22T14:18:11.558Z</time>
      </trkpt>
      <trkpt lat="42.552374" lon="1.336586">
        <ele>1247.835473</ele>
        <time>2019-08-22T14:18:18.804Z</time>
      </trkpt>
      <trkpt lat="42.552327" lon="1.336818">
        <ele>1247.520759</ele>
        <time>2019-08-22T14:18:21.620Z</time>
      </trkpt>
      <trkpt lat="42.552206" lon="1.337045">
        <ele>1247.154275</ele>
        <time>2019-08-22T14:18:24.719Z</time>
      </trkpt>
      <trkpt lat="42.552219" lon="1.337184">
        <ele>1246.971008</ele>
        <time>2019-08-22T14:18:26.183Z</time>
      </trkpt>
      <trkpt lat="42.552555" lon="1.337611">
        <ele>1245.325668</ele>
        <time>2019-08-22T14:18:32.354Z</time>
      </trkpt>
      <trkpt lat="42.552848" lon="1.338200">
        <ele>1240.911404</ele>
        <time>2019-08-22T14:18:39.037Z</time>
      </trkpt>
      <trkpt lat="42.553012" lon="1.338275">
        <ele>1239.452310</ele>
        <time>2019-08-22T14:18:41.190Z</time>
      </trkpt>
      <trkpt lat="42.553272" lon="1.338164">
        <ele>1237.154312</ele>
        <time>2019-08-22T14:18:44.539Z</time>
      </trkpt>
      <trkpt lat="42.553437" lon="1.338196">
        <ele>1235.749017</ele>
        <time>2019-08-22T14:18:46.574Z</time>
      </trkpt>
      <trkpt lat="42.553768" lon="1.338567">
        <ele>1232.129911</ele>
        <time>2019-08-22T14:18:51.844Z</time>
      </trkpt>
      <trkpt lat="42.553835" lon="1.338579">
        <ele>1231.560116</ele>
        <time>2019-08-22T14:18:52.672Z</time>
      </trkpt>
      <trkpt lat="42.553974" lon="1.338489">
        <ele>1229.981836</ele>
        <time>2019-08-22T14:18:54.534Z</time>
      </trkpt>
      <trkpt lat="42.554407" lon="1.337930">
        <ele>1223.456712</ele>
        <time>2019-08-22T14:19:01.734Z</time>
      </trkpt>
      <trkpt lat="42.554534" lon="1.337872">
        <ele>1221.993496</ele>
        <time>2019-08-22T14:19:03.335Z</time>
      </trkpt>
      <trkpt lat="42.554645" lon="1.337955">
        <ele>1220.609661</ele>
        <time>2019-08-22T14:19:04.872Z</time>
      </trkpt>
      <trkpt lat="42.554836" lon="1.338432">
        <ele>1216.242421</ele>
        <time>2019-08-22T14:19:09.712Z</time>
      </trkpt>
      <trkpt lat="42.555275" lon="1.338705">
        <ele>1210.960028</ele>
        <time>2019-08-22T14:19:15.525Z</time>
      </trkpt>
      <trkpt lat="42.555546" lon="1.339143">
        <ele>1206.286149</ele>
        <time>2019-08-22T14:19:20.599Z</time>
      </trkpt>
      <trkpt lat="42.555677" lon="1.339249">
        <ele>1204.594480</ele>
        <time>2019-08-22T14:19:22.449Z</time>
      </trkpt>
      <trkpt lat="42.555972" lon="1.339253">
        <ele>1201.322014</ele>
        <time>2019-08-22T14:19:25.985Z</time>
      </trkpt>
      <trkpt lat="42.556145" lon="1.339415">
        <ele>1198.990754</ele>
        <time>2019-08-22T14:19:28.505Z</time>
      </trkpt>
      <trkpt lat="42.556206" lon="1.339416">
        <ele>1198.314059</ele>
        <time>2019-08-22T14:19:29.230Z</time>
      </trkpt>
      <trkpt lat="42.556400" lon="1.339175">
        <ele>1195.397105</ele>
        <time>2019-08-22T14:19:32.383Z</time>
      </trkpt>
      <trkpt lat="42.556479" lon="1.338846">
        <ele>1192.569653</ele>
        <time>2019-08-22T14:19:35.457Z</time>
      </trkpt>
      <trkpt lat="42.556674" lon="1.338721">
        <ele>1190.912424</ele>
        <time>2019-08-22T14:19:38.071Z</time>
      </trkpt>
      <trkpt lat="42.556889" lon="1.338732">
        <ele>1189.744187</ele>
        <time>2019-08-22T14:19:40.691Z</time>
      </trkpt>
      <trkpt lat="42.557029" lon="1.338613">
        <ele>1188.847306</ele>
        <time>2019-08-22T14:19:42.719Z</time>
      </trkpt>
      <trkpt lat="42.557220" lon="1.338034">
        <ele>1186.309910</ele>
        <time>2019-08-22T14:19:48.792Z</time>
      </trkpt>
      <trkpt lat="42.557372" lon="1.338001">
        <ele>1185.474093</ele>
        <time>2019-08-22T14:19:51.016Z</time>
      </trkpt>
      <trkpt lat="42.557601" lon="1.338168">
        <ele>1184.062626</ele>
        <time>2019-08-22T14:19:54.576Z</time>
      </trkpt>
      <trkpt lat="42.558020" lon="1.338212">
        <ele>1181.908075</ele>
        <time>2019-08-22T14:20:01.622Z</time>
      </trkpt>
      <trkpt lat="42.558048" lon="1.338160">
        <ele>1182.119054</ele>
        <time>2019-08-22T14:20:04.209Z</time>
      </trkpt>
      <trkpt lat="42.558117" lon="1.338027">
        <ele>1182.651892</ele>
        <time>2019-08-22T14:20:05.824Z</time>
      </trkpt>
      <trkpt lat="42.558178" lon="1.337998">
        <ele>1182.939293</ele>
        <time>2019-08-22T14:20:09.263Z</time>
      </trkpt>
      <trkpt lat="42.558397" lon="1.338086">
        <ele>1183.954888</ele>
        <time>2019-08-22T14:20:16.447Z</time>
      </trkpt>
      <trkpt lat="42.558634" lon="1.338277">
        <ele>1185.180461</ele>
        <time>2019-08-22T14:20:26.959Z</time>
      </trkpt>
      <trkpt lat="42.559144" lon="1.338383">
        <ele>1187.474716</ele>
        <time>2019-08-22T14:20:48.560Z</time>
      </trkpt>
      <trkpt lat="42.559322" lon="1.338774">
        <ele>1188.980243</ele>
        <time>2019-08-22T14:21:05.920Z</time>
      </trkpt>
      <trkpt lat="42.559663" lon="1.339079">
        <ele>1190.941081</ele>
        <time>2019-08-22T14:21:27.235Z</time>
      </trkpt>
      <trkpt lat="42.560246" lon="1.339815">
        <ele>1195.023059</ele>
        <time>2019-08-22T14:22:02.649Z</time>
      </trkpt>
      <trkpt lat="42.560315" lon="1.340171">
        <ele>1196.413338</ele>
        <time>2019-08-22T14:22:13.516Z</time>
      </trkpt>
      <trkpt lat="42.560500" lon="1.340419">
        <ele>1197.746404</ele>
        <time>2019-08-22T14:22:22.676Z</time>
      </trkpt>
      <trkpt lat="42.560956" lon="1.340724">
        <ele>1199.537557</ele>
        <time>2019-08-22T14:22:37.758Z</time>
      </trkpt>
      <trkpt lat="42.561400" lon="1.340889">
        <ele>1200.396299</ele>
        <time>2019-08-22T14:22:49.294Z</time>
      </trkpt>
      <trkpt lat="42.561685" lon="1.340814">
        <ele>1200.937857</ele>
        <time>2019-08-22T14:22:56.418Z</time>
      </trkpt>
      <trkpt lat="42.561816" lon="1.340878">
        <ele>1201.197576</ele>
        <time>2019-08-22T14:22:59.841Z</time>
      </trkpt>
      <trkpt lat="42.562178" lon="1.341216">
        <ele>1202.017161</ele>
        <time>2019-08-22T14:23:11.577Z</time>
      </trkpt>
      <trkpt lat="42.562379" lon="1.341546">
        <ele>1202.724759</ele>
        <time>2019-08-22T14:23:20.809Z</time>
      </trkpt>
      <trkpt lat="42.562428" lon="1.341749">
        <ele>1203.213871</ele>
        <time>2019-08-22T14:23:25.770Z</time>
      </trkpt>
      <trkpt lat="42.562429" lon="1.341893">
        <ele>1203.543589</ele>
        <time>2019-08-22T14:23:29.040Z</time>
      </trkpt>
      <trkpt lat="42.562370" lon="1.342046">
        <ele>1203.939006</ele>
        <time>2019-08-22T14:23:33.006Z</time>
      </trkpt>
      <trkpt lat="42.562127" lon="1.342380">
        <ele>1205.013911</ele>
        <time>2019-08-22T14:23:44.348Z</time>
      </trkpt>
      <trkpt lat="42.561745" lon="1.342711">
        <ele>1206.422624</ele>
        <time>2019-08-22T14:24:00.005Z</time>
      </trkpt>
      <trkpt lat="42.561683" lon="1.343234">
        <ele>1207.635511</ele>
        <time>2019-08-22T14:24:13.773Z</time>
      </trkpt>
      <trkpt lat="42.561401" lon="1.343579">
        <ele>1208.737752</ele>
        <time>2019-08-22T14:24:26.984Z</time>
      </trkpt>
      <trkpt lat="42.561288" lon="1.343840">
        <ele>1209.363350</ele>
        <time>2019-08-22T14:24:34.140Z</time>
      </trkpt>
      <trkpt lat="42.561288" lon="1.344090">
        <ele>1209.879945</ele>
        <time>2019-08-22T14:24:39.746Z</time>
      </trkpt>
      <trkpt lat="42.561522" lon="1.344572">
        <ele>1211.072830</ele>
        <time>2019-08-22T14:24:52.016Z</time>
      </trkpt>
      <trkpt lat="42.561621" lon="1.344994">
        <ele>1211.988003</ele>
        <time>2019-08-22T14:25:01.586Z</time>
      </trkpt>
      <trkpt lat="42.561589" lon="1.345459">
        <ele>1212.953051</ele>
        <time>2019-08-22T14:25:12.219Z</time>
      </trkpt>
      <trkpt lat="42.561435" lon="1.345921">
        <ele>1214.578429</ele>
        <time>2019-08-22T14:25:24.410Z</time>
      </trkpt>
      <trkpt lat="42.561377" lon="1.346018">
        <ele>1214.995718</ele>
        <time>2019-08-22T14:25:27.623Z</time>
      </trkpt>
      <trkpt lat="42.561263" lon="1.346077">
        <ele>1215.548942</ele>
        <time>2019-08-22T14:25:31.576Z</time>
      </trkpt>
      <trkpt lat="42.560793" lon="1.345923">
        <ele>1217.741370</ele>
        <time>2019-08-22T14:25:49.290Z</time>
      </trkpt>
      <trkpt lat="42.560652" lon="1.345984">
        <ele>1218.412418</ele>
        <time>2019-08-22T14:25:55.204Z</time>
      </trkpt>
      <trkpt lat="42.560425" lon="1.347309">
        <ele>1223.841605</ele>
        <time>2019-08-22T14:26:39.504Z</time>
      </trkpt>
      <trkpt lat="42.560298" lon="1.347496">
        <ele>1225.124523</ele>
        <time>2019-08-22T14:26:50.289Z</time>
      </trkpt>
      <trkpt lat="42.560061" lon="1.347540">
        <ele>1226.762519</ele>
        <time>2019-08-22T14:27:01.558Z</time>
      </trkpt>
      <trkpt lat="42.559491" lon="1.347324">
        <ele>1230.814871</ele>
        <time>2019-08-22T14:27:31.261Z</time>
      </trkpt>
      <trkpt lat="42.559379" lon="1.347337">
        <ele>1231.584606</ele>
        <time>2019-08-22T14:27:35.873Z</time>
      </trkpt>
      <trkpt lat="42.559291" lon="1.347371">
        <ele>1232.211125</ele>
        <time>2019-08-22T14:27:41.873Z</time>
      </trkpt>
      <trkpt lat="42.559070" lon="1.347530">
        <ele>1233.819686</ele>
        <time>2019-08-22T14:27:51.814Z</time>
      </trkpt>
      <trkpt lat="42.558674" lon="1.347433">
        <ele>1235.834452</ele>
        <time>2019-08-22T14:28:09.970Z</time>
      </trkpt>
      <trkpt lat="42.558246" lon="1.347802">
        <ele>1238.373028</ele>
        <time>2019-08-22T14:28:32.243Z</time>
      </trkpt>
      <trkpt lat="42.557923" lon="1.347815">
        <ele>1239.990984</ele>
        <time>2019-08-22T14:28:45.618Z</time>
      </trkpt>
      <trkpt lat="42.557467" lon="1.347937">
        <ele>1242.318066</ele>
        <time>2019-08-22T14:29:00.995Z</time>
      </trkpt>
      <trkpt lat="42.557342" lon="1.347882">
        <ele>1242.897702</ele>
        <time>2019-08-22T14:29:04.971Z</time>
      </trkpt>
      <trkpt lat="42.556864" lon="1.347424">
        <ele>1245.298497</ele>
        <time>2019-08-22T14:29:21.948Z</time>
      </trkpt>
      <trkpt lat="42.556334" lon="1.347301">
        <ele>1247.504891</ele>
        <time>2019-08-22T14:29:42.118Z</time>
      </trkpt>
      <trkpt lat="42.556079" lon="1.347389">
        <ele>1248.584557</ele>
        <time>2019-08-22T14:29:51.908Z</time>
      </trkpt>
      <trkpt lat="42.555754" lon="1.347832">
        <ele>1250.908986</ele>
        <time>2019-08-22T14:30:12.316Z</time>
      </trkpt>
      <trkpt lat="42.555692" lon="1.347890">
        <ele>1251.461369</ele>
        <time>2019-08-22T14:30:15.732Z</time>
      </trkpt>
      <trkpt lat="42.555542" lon="1.348008">
        <ele>1252.733214</ele>
        <time>2019-08-22T14:30:22.762Z</time>
      </trkpt>
      <trkpt lat="42.555510" lon="1.348052">
        <ele>1253.067355</ele>
        <time>2019-08-22T14:30:26.400Z</time>
      </trkpt>
      <trkpt lat="42.555323" lon="1.348336">
        <ele>1255.125874</ele>
        <time>2019-08-22T14:30:38.686Z</time>
      </trkpt>
      <trkpt lat="42.554927" lon="1.348576">
        <ele>1258.307392</ele>
        <time>2019-08-22T14:31:01.913Z</time>
      </trkpt>
      <trkpt lat="42.554380" lon="1.348735">
        <ele>1262.411277</ele>
        <time>2019-08-22T14:31:32.154Z</time>
      </trkpt>
      <trkpt lat="42.553888" lon="1.348785">
        <ele>1265.686666</ele>
        <time>2019-08-22T14:31:57.533Z</time>
      </trkpt>
      <trkpt lat="42.553745" lon="1.348877">
        <ele>1266.710432</ele>
        <time>2019-08-22T14:32:06.508Z</time>
      </trkpt>
      <trkpt lat="42.553703" lon="1.349086">
        <ele>1267.742855</ele>
        <time>2019-08-22T14:32:12.579Z</time>
      </trkpt>
      <trkpt lat="42.553730" lon="1.349492">
        <ele>1269.685588</ele>
        <time>2019-08-22T14:32:26.966Z</time>
      </trkpt>
      <trkpt lat="42.553599" lon="1.349930">
        <ele>1271.938443</ele>
        <time>2019-08-22T14:32:41.966Z</time>
      </trkpt>
      <trkpt lat="42.553646" lon="1.350327">
        <ele>1273.854696</ele>
        <time>2019-08-22T14:32:54.320Z</time>
      </trkpt>
      <trkpt lat="42.553673" lon="1.350375">
        <ele>1274.142514</ele>
        <time>2019-08-22T14:32:56.456Z</time>
      </trkpt>
      <trkpt lat="42.553750" lon="1.350493">
        <ele>1274.872514</ele>
        <time>2019-08-22T14:32:59.009Z</time>
      </trkpt>
      <trkpt lat="42.553771" lon="1.350549">
        <ele>1275.126324</ele>
        <time>2019-08-22T14:33:02.341Z</time>
      </trkpt>
      <trkpt lat="42.553629" lon="1.351556">
        <ele>1279.267543</ele>
        <time>2019-08-22T14:33:33.075Z</time>
      </trkpt>
      <trkpt lat="42.553705" lon="1.352855">
        <ele>1284.530850</ele>
        <time>2019-08-22T14:34:13.374Z</time>
      </trkpt>
      <trkpt lat="42.553533" lon="1.353803">
        <ele>1289.217752</ele>
        <time>2019-08-22T14:34:47.601Z</time>
      </trkpt>
      <trkpt lat="42.553624" lon="1.354004">
        <ele>1290.354313</ele>
        <time>2019-08-22T14:34:56.388Z</time>
      </trkpt>
      <trkpt lat="42.554071" lon="1.354047">
        <ele>1293.284884</ele>
        <time>2019-08-22T14:35:18.172Z</time>
      </trkpt>
      <trkpt lat="42.554680" lon="1.354596">
        <ele>1297.605572</ele>
        <time>2019-08-22T14:35:51.186Z</time>
      </trkpt>
      <trkpt lat="42.554838" lon="1.354541">
        <ele>1298.381264</ele>
        <time>2019-08-22T14:35:58.227Z</time>
      </trkpt>
      <trkpt lat="42.555015" lon="1.354314">
        <ele>1299.539227</ele>
        <time>2019-08-22T14:36:08.017Z</time>
      </trkpt>
      <trkpt lat="42.555189" lon="1.354200">
        <ele>1300.458027</ele>
        <time>2019-08-22T14:36:15.588Z</time>
      </trkpt>
      <trkpt lat="42.555441" lon="1.354166">
        <ele>1301.662340</ele>
        <time>2019-08-22T14:36:25.178Z</time>
      </trkpt>
      <trkpt lat="42.555582" lon="1.354320">
        <ele>1302.522952</ele>
        <time>2019-08-22T14:36:31.848Z</time>
      </trkpt>
      <trkpt lat="42.555812" lon="1.355101">
        <ele>1305.473941</ele>
        <time>2019-08-22T14:36:54.100Z</time>
      </trkpt>
      <trkpt lat="42.555925" lon="1.355208">
        <ele>1306.134692</ele>
        <time>2019-08-22T14:36:58.714Z</time>
      </trkpt>
      <trkpt lat="42.556017" lon="1.355184">
        <ele>1306.583991</ele>
        <time>2019-08-22T14:37:01.670Z</time>
      </trkpt>
      <trkpt lat="42.556184" lon="1.354947">
        <ele>1307.742652</ele>
        <time>2019-08-22T14:37:09.843Z</time>
      </trkpt>
      <trkpt lat="42.556337" lon="1.354876">
        <ele>1308.518117</ele>
        <time>2019-08-22T14:37:15.304Z</time>
      </trkpt>
      <trkpt lat="42.556608" lon="1.354955">
        <ele>1309.847446</ele>
        <time>2019-08-22T14:37:25.890Z</time>
      </trkpt>
      <trkpt lat="42.556876" lon="1.355229">
        <ele>1311.456482</ele>
        <time>2019-08-22T14:37:39.991Z</time>
      </trkpt>
      <trkpt lat="42.557273" lon="1.354852">
        <ele>1313.890370</ele>
        <time>2019-08-22T14:38:01.356Z</time>
      </trkpt>
      <trkpt lat="42.557740" lon="1.354880">
        <ele>1317.250447</ele>
        <time>2019-08-22T14:38:24.117Z</time>
      </trkpt>
      <trkpt lat="42.558196" lon="1.355096">
        <ele>1320.721972</ele>
        <time>2019-08-22T14:38:49.531Z</time>
      </trkpt>
      <trkpt lat="42.558666" lon="1.355547">
        <ele>1324.859035</ele>
        <time>2019-08-22T14:39:18.817Z</time>
      </trkpt>
      <trkpt lat="42.559419" lon="1.355810">
        <ele>1329.427088</ele>
        <time>2019-08-22T14:39:55.035Z</time>
      </trkpt>
      <trkpt lat="42.559596" lon="1.355726">
        <ele>1330.427470</ele>
        <time>2019-08-22T14:40:02.589Z</time>
      </trkpt>
      <trkpt lat="42.559865" lon="1.355225">
        <ele>1332.863893</ele>
        <time>2019-08-22T14:40:19.952Z</time>
      </trkpt>
      <trkpt lat="42.560056" lon="1.355017">
        <ele>1334.170260</ele>
        <time>2019-08-22T14:40:29.292Z</time>
      </trkpt>
      <trkpt lat="42.560503" lon="1.355036">
        <ele>1336.651686</ele>
        <time>2019-08-22T14:40:46.709Z</time>
      </trkpt>
      <trkpt lat="42.560857" lon="1.354680">
        <ele>1339.476573</ele>
        <time>2019-08-22T14:41:03.997Z</time>
      </trkpt>
      <trkpt lat="42.561050" lon="1.354603">
        <ele>1340.766488</ele>
        <time>2019-08-22T14:41:12.188Z</time>
      </trkpt>
      <trkpt lat="42.561253" lon="1.354602">
        <ele>1342.068207</ele>
        <time>2019-08-22T14:41:21.036Z</time>
      </trkpt>
      <trkpt lat="42.562397" lon="1.354820">
        <ele>1349.935126</ele>
        <time>2019-08-22T14:42:20.268Z</time>
      </trkpt>
      <trkpt lat="42.563134" lon="1.355306">
        <ele>1356.487323</ele>
        <time>2019-08-22T14:43:06.913Z</time>
      </trkpt>
      <trkpt lat="42.563419" lon="1.355377">
        <ele>1358.804522</ele>
        <time>2019-08-22T14:43:22.064Z</time>
      </trkpt>
      <trkpt lat="42.563782" lon="1.355590">
        <ele>1361.966939</ele>
        <time>2019-08-22T14:43:41.571Z</time>
      </trkpt>
      <trkpt lat="42.564017" lon="1.355614">
        <ele>1363.010295</ele>
        <time>2019-08-22T14:43:52.332Z</time>
      </trkpt>
      <trkpt lat="42.564597" lon="1.355838">
        <ele>1365.640149</ele>
        <time>2019-08-22T14:44:16.911Z</time>
      </trkpt>
      <trkpt lat="42.564948" lon="1.356055">
        <ele>1367.322161</ele>
        <time>2019-08-22T14:44:30.306Z</time>
      </trkpt>
      <trkpt lat="42.565197" lon="1.356029">
        <ele>1368.411314</ele>
        <time>2019-08-22T14:44:38.265Z</time>
      </trkpt>
      <trkpt lat="42.565428" lon="1.355930">
        <ele>1369.467753</ele>
        <time>2019-08-22T14:44:45.558Z</time>
      </trkpt>
      <trkpt lat="42.565927" lon="1.356242">
        <ele>1371.523013</ele>
        <time>2019-08-22T14:45:01.796Z</time>
      </trkpt>
      <trkpt lat="42.566307" lon="1.356184">
        <ele>1372.909223</ele>
        <time>2019-08-22T14:45:13.597Z</time>
      </trkpt>
      <trkpt lat="42.566691" lon="1.356255">
        <ele>1374.314104</ele>
        <time>2019-08-22T14:45:26.849Z</time>
      </trkpt>
      <trkpt lat="42.566913" lon="1.356366">
        <ele>1375.171704</ele>
        <time>2019-08-22T14:45:35.556Z</time>
      </trkpt>
      <trkpt lat="42.567159" lon="1.356193">
        <ele>1376.175990</ele>
        <time>2019-08-22T14:45:46.240Z</time>
      </trkpt>
      <trkpt lat="42.567372" lon="1.356175">
        <ele>1377.763685</ele>
        <time>2019-08-22T14:45:54.969Z</time>
      </trkpt>
      <trkpt lat="42.567842" lon="1.356572">
        <ele>1382.567729</ele>
        <time>2019-08-22T14:46:21.582Z</time>
      </trkpt>
      <trkpt lat="42.568345" lon="1.356891">
        <ele>1387.385989</ele>
        <time>2019-08-22T14:46:52.528Z</time>
      </trkpt>
      <trkpt lat="42.568620" lon="1.356899">
        <ele>1389.773272</ele>
        <time>2019-08-22T14:47:09.436Z</time>
      </trkpt>
      <trkpt lat="42.568929" lon="1.357031">
        <ele>1393.062558</ele>
        <time>2019-08-22T14:47:31.435Z</time>
      </trkpt>
      <trkpt lat="42.569101" lon="1.357168">
        <ele>1396.152454</ele>
        <time>2019-08-22T14:47:46.071Z</time>
      </trkpt>
      <trkpt lat="42.569302" lon="1.357096">
        <ele>1399.373559</ele>
        <time>2019-08-22T14:48:01.419Z</time>
      </trkpt>
      <trkpt lat="42.569806" lon="1.357154">
        <ele>1407.211177</ele>
        <time>2019-08-22T14:48:42.588Z</time>
      </trkpt>
      <trkpt lat="42.570113" lon="1.357315">
        <ele>1412.310691</ele>
        <time>2019-08-22T14:49:10.916Z</time>
      </trkpt>
      <trkpt lat="42.570342" lon="1.357571">
        <ele>1416.906940</ele>
        <time>2019-08-22T14:49:37.263Z</time>
      </trkpt>
      <trkpt lat="42.570513" lon="1.357657">
        <ele>1419.732535</ele>
        <time>2019-08-22T14:49:53.757Z</time>
      </trkpt>
      <trkpt lat="42.570676" lon="1.357911">
        <ele>1424.033443</ele>
        <time>2019-08-22T14:50:20.469Z</time>
      </trkpt>
      <trkpt lat="42.570771" lon="1.358444">
        <ele>1431.056861</ele>
        <time>2019-08-22T14:50:59.378Z</time>
      </trkpt>
      <trkpt lat="42.570923" lon="1.358782">
        <ele>1436.129030</ele>
        <time>2019-08-22T14:51:27.199Z</time>
      </trkpt>
      <trkpt lat="42.571015" lon="1.359324">
        <ele>1443.252605</ele>
        <time>2019-08-22T14:52:01.830Z</time>
      </trkpt>
      <trkpt lat="42.571084" lon="1.359416">
        <ele>1444.934347</ele>
        <time>2019-08-22T14:52:09.068Z</time>
      </trkpt>
      <trkpt lat="42.571149" lon="1.359435">
        <ele>1446.090648</ele>
        <time>2019-08-22T14:52:16.696Z</time>
      </trkpt>
      <trkpt lat="42.571225" lon="1.359471">
        <ele>1447.490465</ele>
        <time>2019-08-22T14:52:23.814Z</time>
      </trkpt>
      <trkpt lat="42.571457" lon="1.359698">
        <ele>1452.038042</ele>
        <time>2019-08-22T14:52:47.477Z</time>
      </trkpt>
      <trkpt lat="42.571566" lon="1.359990">
        <ele>1454.896455</ele>
        <time>2019-08-22T14:53:02.319Z</time>
      </trkpt>
      <trkpt lat="42.571814" lon="1.360385">
        <ele>1459.428655</ele>
        <time>2019-08-22T14:53:30.011Z</time>
      </trkpt>
      <trkpt lat="42.572133" lon="1.360518">
        <ele>1463.385106</ele>
        <time>2019-08-22T14:53:53.024Z</time>
      </trkpt>
      <trkpt lat="42.572158" lon="1.360579">
        <ele>1463.994643</ele>
        <time>2019-08-22T14:53:56.303Z</time>
      </trkpt>
      <trkpt lat="42.572168" lon="1.360713">
        <ele>1465.170636</ele>
        <time>2019-08-22T14:54:07.371Z</time>
      </trkpt>
      <trkpt lat="42.572183" lon="1.360754">
        <ele>1465.570364</ele>
        <time>2019-08-22T14:54:09.335Z</time>
      </trkpt>
      <trkpt lat="42.572394" lon="1.361089">
        <ele>1469.419273</ele>
        <time>2019-08-22T14:54:25.963Z</time>
      </trkpt>
      <trkpt lat="42.572480" lon="1.361373">
        <ele>1472.100423</ele>
        <time>2019-08-22T14:54:35.591Z</time>
      </trkpt>
      <trkpt lat="42.572806" lon="1.361848">
        <ele>1477.133399</ele>
        <time>2019-08-22T14:55:02.801Z</time>
      </trkpt>
      <trkpt lat="42.572930" lon="1.362125">
        <ele>1479.625092</ele>
        <time>2019-08-22T14:55:14.773Z</time>
      </trkpt>
      <trkpt lat="42.573060" lon="1.362667">
        <ele>1484.006593</ele>
        <time>2019-08-22T14:55:44.354Z</time>
      </trkpt>
      <trkpt lat="42.573005" lon="1.363425">
        <ele>1489.861189</ele>
        <time>2019-08-22T14:56:22.354Z</time>
      </trkpt>
      <trkpt lat="42.573026" lon="1.363625">
        <ele>1491.428325</ele>
        <time>2019-08-22T14:56:30.933Z</time>
      </trkpt>
      <trkpt lat="42.573122" lon="1.363862">
        <ele>1493.665234</ele>
        <time>2019-08-22T14:56:45.383Z</time>
      </trkpt>
      <trkpt lat="42.573108" lon="1.364270">
        <ele>1497.043030</ele>
        <time>2019-08-22T14:57:01.925Z</time>
      </trkpt>
      <trkpt lat="42.573108" lon="1.364347">
        <ele>1497.679815</ele>
        <time>2019-08-22T14:57:08.299Z</time>
      </trkpt>
      <trkpt lat="42.573177" lon="1.364492">
        <ele>1499.107527</ele>
        <time>2019-08-22T14:57:14.021Z</time>
      </trkpt>
      <trkpt lat="42.573188" lon="1.364554">
        <ele>1499.634933</ele>
        <time>2019-08-22T14:57:18.266Z</time>
      </trkpt>
      <trkpt lat="42.573131" lon="1.364901">
        <ele>1502.575124</ele>
        <time>2019-08-22T14:57:34.076Z</time>
      </trkpt>
      <trkpt lat="42.573332" lon="1.365473">
        <ele>1507.816472</ele>
        <time>2019-08-22T14:58:08.289Z</time>
      </trkpt>
      <trkpt lat="42.573358" lon="1.365788">
        <ele>1510.437805</ele>
        <time>2019-08-22T14:58:23.849Z</time>
      </trkpt>
      <trkpt lat="42.573487" lon="1.366306">
        <ele>1513.864372</ele>
        <time>2019-08-22T14:58:48.994Z</time>
      </trkpt>
      <trkpt lat="42.573667" lon="1.366678">
        <ele>1516.404707</ele>
        <time>2019-08-22T14:59:06.030Z</time>
      </trkpt>
      <trkpt lat="42.573688" lon="1.366723">
        <ele>1516.708752</ele>
        <time>2019-08-22T14:59:07.789Z</time>
      </trkpt>
      <trkpt lat="42.573693" lon="1.366790">
        <ele>1517.093086</ele>
        <time>2019-08-22T14:59:10.243Z</time>
      </trkpt>
      <trkpt lat="42.573673" lon="1.366991">
        <ele>1518.250638</ele>
        <time>2019-08-22T14:59:19.237Z</time>
      </trkpt>
      <trkpt lat="42.573680" lon="1.367047">
        <ele>1518.574807</ele>
        <time>2019-08-22T14:59:19.893Z</time>
      </trkpt>
      <trkpt lat="42.573968" lon="1.367448">
        <ele>1521.771547</ele>
        <time>2019-08-22T14:59:37.937Z</time>
      </trkpt>
      <trkpt lat="42.574074" lon="1.367675">
        <ele>1523.305555</ele>
        <time>2019-08-22T14:59:48.047Z</time>
      </trkpt>
      <trkpt lat="42.574457" lon="1.369014">
        <ele>1530.307777</ele>
        <time>2019-08-22T15:00:35.205Z</time>
      </trkpt>
      <trkpt lat="42.574336" lon="1.369845">
        <ele>1534.200606</ele>
        <time>2019-08-22T15:01:01.522Z</time>
      </trkpt>
      <trkpt lat="42.574321" lon="1.370376">
        <ele>1536.668511</ele>
        <time>2019-08-22T15:01:19.715Z</time>
      </trkpt>
      <trkpt lat="42.574124" lon="1.370871">
        <ele>1540.490015</ele>
        <time>2019-08-22T15:01:40.764Z</time>
      </trkpt>
      <trkpt lat="42.574185" lon="1.371273">
        <ele>1543.277686</ele>
        <time>2019-08-22T15:01:57.535Z</time>
      </trkpt>
      <trkpt lat="42.574121" lon="1.371728">
        <ele>1546.423831</ele>
        <time>2019-08-22T15:02:17.524Z</time>
      </trkpt>
      <trkpt lat="42.574019" lon="1.372070">
        <ele>1548.929907</ele>
        <time>2019-08-22T15:02:34.030Z</time>
      </trkpt>
      <trkpt lat="42.573817" lon="1.372408">
        <ele>1551.886407</ele>
        <time>2019-08-22T15:02:54.258Z</time>
      </trkpt>
      <trkpt lat="42.573665" lon="1.372507">
        <ele>1553.471767</ele>
        <time>2019-08-22T15:03:05.329Z</time>
      </trkpt>
      <trkpt lat="42.573445" lon="1.372516">
        <ele>1555.736797</ele>
        <time>2019-08-22T15:03:19.574Z</time>
      </trkpt>
      <trkpt lat="42.573144" lon="1.373093">
        <ele>1561.095488</ele>
        <time>2019-08-22T15:03:53.674Z</time>
      </trkpt>
      <trkpt lat="42.572628" lon="1.373476">
        <ele>1567.147102</ele>
        <time>2019-08-22T15:04:30.799Z</time>
      </trkpt>
      <trkpt lat="42.572366" lon="1.373896">
        <ele>1571.318529</ele>
        <time>2019-08-22T15:04:54.371Z</time>
      </trkpt>
      <trkpt lat="42.572309" lon="1.374201">
        <ele>1572.928840</ele>
        <time>2019-08-22T15:05:06.872Z</time>
      </trkpt>
      <trkpt lat="42.572360" lon="1.374731">
        <ele>1575.423760</ele>
        <time>2019-08-22T15:05:26.399Z</time>
      </trkpt>
      <trkpt lat="42.572251" lon="1.375290">
        <ele>1578.122932</ele>
        <time>2019-08-22T15:05:45.646Z</time>
      </trkpt>
      <trkpt lat="42.572297" lon="1.375876">
        <ele>1580.873713</ele>
        <time>2019-08-22T15:06:03.437Z</time>
      </trkpt>
      <trkpt lat="42.572214" lon="1.376641">
        <ele>1584.171621</ele>
        <time>2019-08-22T15:06:25.083Z</time>
      </trkpt>
      <trkpt lat="42.572176" lon="1.376812">
        <ele>1584.819295</ele>
        <time>2019-08-22T15:06:30.041Z</time>
      </trkpt>
      <trkpt lat="42.571911" lon="1.377267">
        <ele>1586.922777</ele>
        <time>2019-08-22T15:06:46.938Z</time>
      </trkpt>
      <trkpt lat="42.571857" lon="1.377741">
        <ele>1588.661988</ele>
        <time>2019-08-22T15:07:01.037Z</time>
      </trkpt>
      <trkpt lat="42.571691" lon="1.378417">
        <ele>1591.245912</ele>
        <time>2019-08-22T15:07:23.037Z</time>
      </trkpt>
      <trkpt lat="42.571692" lon="1.378726">
        <ele>1592.208360</ele>
        <time>2019-08-22T15:07:31.455Z</time>
      </trkpt>
      <trkpt lat="42.571703" lon="1.378832">
        <ele>1592.451381</ele>
        <time>2019-08-22T15:07:36.730Z</time>
      </trkpt>
      <trkpt lat="42.571727" lon="1.378887">
        <ele>1592.596518</ele>
        <time>2019-08-22T15:07:37.625Z</time>
      </trkpt>
      <trkpt lat="42.571810" lon="1.378966">
        <ele>1592.908981</ele>
        <time>2019-08-22T15:07:39.176Z</time>
      </trkpt>
      <trkpt lat="42.571854" lon="1.379047">
        <ele>1593.137483</ele>
        <time>2019-08-22T15:07:44.265Z</time>
      </trkpt>
      <trkpt lat="42.571865" lon="1.379175">
        <ele>1593.430043</ele>
        <time>2019-08-22T15:07:48.806Z</time>
      </trkpt>
      <trkpt lat="42.571623" lon="1.379649">
        <ele>1594.739437</ele>
        <time>2019-08-22T15:08:06.040Z</time>
      </trkpt>
      <trkpt lat="42.571533" lon="1.379925">
        <ele>1595.424699</ele>
        <time>2019-08-22T15:08:10.926Z</time>
      </trkpt>
      <trkpt lat="42.571529" lon="1.380221">
        <ele>1596.096801</ele>
        <time>2019-08-22T15:08:17.685Z</time>
      </trkpt>
      <trkpt lat="42.571722" lon="1.381113">
        <ele>1597.549593</ele>
        <time>2019-08-22T15:08:34.751Z</time>
      </trkpt>
      <trkpt lat="42.571755" lon="1.381709">
        <ele>1597.664872</ele>
        <time>2019-08-22T15:08:42.509Z</time>
      </trkpt>
      <trkpt lat="42.571755" lon="1.381786">
        <ele>1597.679724</ele>
        <time>2019-08-22T15:08:43.290Z</time>
      </trkpt>
      <trkpt lat="42.571737" lon="1.381843">
        <ele>1597.691686</ele>
        <time>2019-08-22T15:08:43.983Z</time>
      </trkpt>
      <trkpt lat="42.571395" lon="1.382441">
        <ele>1597.837723</ele>
        <time>2019-08-22T15:08:55.255Z</time>
      </trkpt>
      <trkpt lat="42.571225" lon="1.383292">
        <ele>1598.881251</ele>
        <time>2019-08-22T15:09:10.587Z</time>
      </trkpt>
      <trkpt lat="42.571172" lon="1.383383">
        <ele>1599.309133</ele>
        <time>2019-08-22T15:09:12.459Z</time>
      </trkpt>
      <trkpt lat="42.571090" lon="1.383494">
        <ele>1599.888977</ele>
        <time>2019-08-22T15:09:14.996Z</time>
      </trkpt>
      <trkpt lat="42.571026" lon="1.383556">
        <ele>1600.282690</ele>
        <time>2019-08-22T15:09:17.758Z</time>
      </trkpt>
      <trkpt lat="42.570641" lon="1.383734">
        <ele>1602.319441</ele>
        <time>2019-08-22T15:09:33.107Z</time>
      </trkpt>
      <trkpt lat="42.570473" lon="1.384000">
        <ele>1603.611824</ele>
        <time>2019-08-22T15:09:43.880Z</time>
      </trkpt>
      <trkpt lat="42.570388" lon="1.384620">
        <ele>1605.937715</ele>
        <time>2019-08-22T15:10:07.207Z</time>
      </trkpt>
      <trkpt lat="42.570206" lon="1.385274">
        <ele>1609.412992</ele>
        <time>2019-08-22T15:10:36.222Z</time>
      </trkpt>
      <trkpt lat="42.570162" lon="1.385944">
        <ele>1613.330018</ele>
        <time>2019-08-22T15:11:04.227Z</time>
      </trkpt>
      <trkpt lat="42.570194" lon="1.386314">
        <ele>1615.499408</ele>
        <time>2019-08-22T15:11:19.106Z</time>
      </trkpt>
      <trkpt lat="42.570505" lon="1.386996">
        <ele>1620.170530</ele>
        <time>2019-08-22T15:11:48.799Z</time>
      </trkpt>
      <trkpt lat="42.570657" lon="1.387831">
        <ele>1623.308404</ele>
        <time>2019-08-22T15:12:16.703Z</time>
      </trkpt>
      <trkpt lat="42.570899" lon="1.388393">
        <ele>1625.321904</ele>
        <time>2019-08-22T15:12:34.672Z</time>
      </trkpt>
      <trkpt lat="42.571137" lon="1.389148">
        <ele>1627.861920</ele>
        <time>2019-08-22T15:12:53.973Z</time>
      </trkpt>
      <trkpt lat="42.571296" lon="1.390051">
        <ele>1630.296906</ele>
        <time>2019-08-22T15:13:14.069Z</time>
      </trkpt>
      <trkpt lat="42.571278" lon="1.390373">
        <ele>1631.076614</ele>
        <time>2019-08-22T15:13:21.331Z</time>
      </trkpt>
      <trkpt lat="42.571039" lon="1.391540">
        <ele>1634.001280</ele>
        <time>2019-08-22T15:13:51.277Z</time>
      </trkpt>
      <trkpt lat="42.571016" lon="1.392261">
        <ele>1636.786987</ele>
        <time>2019-08-22T15:14:11.725Z</time>
      </trkpt>
      <trkpt lat="42.570853" lon="1.392921">
        <ele>1640.056453</ele>
        <time>2019-08-22T15:14:33.744Z</time>
      </trkpt>
      <trkpt lat="42.570648" lon="1.393451">
        <ele>1642.868143</ele>
        <time>2019-08-22T15:14:54.765Z</time>
      </trkpt>
      <trkpt lat="42.570158" lon="1.394313">
        <ele>1648.710037</ele>
        <time>2019-08-22T15:15:36.932Z</time>
      </trkpt>
      <trkpt lat="42.570112" lon="1.394507">
        <ele>1650.039391</ele>
        <time>2019-08-22T15:15:45.204Z</time>
      </trkpt>
      <trkpt lat="42.570171" lon="1.394952">
        <ele>1652.988610</ele>
        <time>2019-08-22T15:16:05.123Z</time>
      </trkpt>
      <trkpt lat="42.570238" lon="1.395150">
        <ele>1654.409890</ele>
        <time>2019-08-22T15:16:15.743Z</time>
      </trkpt>
      <trkpt lat="42.570610" lon="1.395852">
        <ele>1660.050908</ele>
        <time>2019-08-22T15:16:51.499Z</time>
      </trkpt>
      <trkpt lat="42.570655" lon="1.396068">
        <ele>1661.515067</ele>
        <time>2019-08-22T15:17:00.443Z</time>
      </trkpt>
      <trkpt lat="42.570641" lon="1.396249">
        <ele>1662.746827</ele>
        <time>2019-08-22T15:17:06.680Z</time>
      </trkpt>
      <trkpt lat="42.570597" lon="1.396399">
        <ele>1663.871166</ele>
        <time>2019-08-22T15:17:14.003Z</time>
      </trkpt>
      <trkpt lat="42.570399" lon="1.397018">
        <ele>1668.570639</ele>
        <time>2019-08-22T15:17:37.904Z</time>
      </trkpt>
      <trkpt lat="42.570353" lon="1.397335">
        <ele>1670.820533</ele>
        <time>2019-08-22T15:17:52.137Z</time>
      </trkpt>
      <trkpt lat="42.570389" lon="1.397874">
        <ele>1674.589298</ele>
        <time>2019-08-22T15:18:16.359Z</time>
      </trkpt>
      <trkpt lat="42.570823" lon="1.398522">
        <ele>1680.830715</ele>
        <time>2019-08-22T15:18:59.106Z</time>
      </trkpt>
      <trkpt lat="42.570831" lon="1.398581">
        <ele>1681.284651</ele>
        <time>2019-08-22T15:19:01.313Z</time>
      </trkpt>
      <trkpt lat="42.570812" lon="1.398650">
        <ele>1681.842053</ele>
        <time>2019-08-22T15:19:05.413Z</time>
      </trkpt>
      <trkpt lat="42.570709" lon="1.398845">
        <ele>1683.657833</ele>
        <time>2019-08-22T15:19:20.634Z</time>
      </trkpt>
      <trkpt lat="42.570297" lon="1.399118">
        <ele>1688.368094</ele>
        <time>2019-08-22T15:19:52.729Z</time>
      </trkpt>
      <trkpt lat="42.570184" lon="1.399165">
        <ele>1689.582371</ele>
        <time>2019-08-22T15:20:04.062Z</time>
      </trkpt>
      <trkpt lat="42.569889" lon="1.399201">
        <ele>1692.625593</ele>
        <time>2019-08-22T15:20:25.203Z</time>
      </trkpt>
      <trkpt lat="42.569135" lon="1.399428">
        <ele>1700.357729</ele>
        <time>2019-08-22T15:21:29.000Z</time>
      </trkpt>
      <trkpt lat="42.568968" lon="1.399567">
        <ele>1702.235519</ele>
        <time>2019-08-22T15:21:41.016Z</time>
      </trkpt>
      <trkpt lat="42.568252" lon="1.400495">
        <ele>1711.724473</ele>
        <time>2019-08-22T15:22:51.772Z</time>
      </trkpt>
      <trkpt lat="42.567847" lon="1.400703">
        <ele>1716.553712</ele>
        <time>2019-08-22T15:23:25.164Z</time>
      </trkpt>
      <trkpt lat="42.567433" lon="1.401012">
        <ele>1723.865251</ele>
        <time>2019-08-22T15:24:08.271Z</time>
      </trkpt>
      <trkpt lat="42.567243" lon="1.401308">
        <ele>1728.340740</ele>
        <time>2019-08-22T15:24:35.994Z</time>
      </trkpt>
      <trkpt lat="42.567032" lon="1.401512">
        <ele>1732.349573</ele>
        <time>2019-08-22T15:25:03.184Z</time>
      </trkpt>
      <trkpt lat="42.566952" lon="1.401782">
        <ele>1735.666842</ele>
        <time>2019-08-22T15:25:27.240Z</time>
      </trkpt>
      <trkpt lat="42.566827" lon="1.401968">
        <ele>1738.536927</ele>
        <time>2019-08-22T15:25:44.866Z</time>
      </trkpt>
      <trkpt lat="42.566422" lon="1.402118">
        <ele>1745.440501</ele>
        <time>2019-08-22T15:26:34.188Z</time>
      </trkpt>
      <trkpt lat="42.566314" lon="1.402055">
        <ele>1747.564621</ele>
        <time>2019-08-22T15:26:49.249Z</time>
      </trkpt>
      <trkpt lat="42.566240" lon="1.401979">
        <ele>1749.241307</ele>
        <time>2019-08-22T15:27:01.270Z</time>
      </trkpt>
      <trkpt lat="42.566172" lon="1.401956">
        <ele>1750.507665</ele>
        <time>2019-08-22T15:27:08.901Z</time>
      </trkpt>
      <trkpt lat="42.565696" lon="1.401893">
        <ele>1759.150069</ele>
        <time>2019-08-22T15:28:01.052Z</time>
      </trkpt>
      <trkpt lat="42.565334" lon="1.401943">
        <ele>1765.725409</ele>
        <time>2019-08-22T15:28:41.299Z</time>
      </trkpt>
      <trkpt lat="42.565331" lon="1.401974">
        <ele>1766.141539</ele>
        <time>2019-08-22T15:28:44.123Z</time>
      </trkpt>
      <trkpt lat="42.565324" lon="1.402080">
        <ele>1767.557970</ele>
        <time>2019-08-22T15:28:52.469Z</time>
      </trkpt>
      <trkpt lat="42.565336" lon="1.402119">
        <ele>1768.120503</ele>
        <time>2019-08-22T15:28:56.875Z</time>
      </trkpt>
      <trkpt lat="42.565846" lon="1.402389">
        <ele>1776.933624</ele>
        <time>2019-08-22T15:29:50.135Z</time>
      </trkpt>
      <trkpt lat="42.566200" lon="1.402668">
        <ele>1781.580038</ele>
        <time>2019-08-22T15:30:25.391Z</time>
      </trkpt>
      <trkpt lat="42.566687" lon="1.402695">
        <ele>1787.112906</ele>
        <time>2019-08-22T15:31:11.526Z</time>
      </trkpt>
      <trkpt lat="42.566790" lon="1.402788">
        <ele>1788.517046</ele>
        <time>2019-08-22T15:31:19.618Z</time>
      </trkpt>
      <trkpt lat="42.567158" lon="1.402853">
        <ele>1792.729657</ele>
        <time>2019-08-22T15:31:43.164Z</time>
      </trkpt>
      <trkpt lat="42.567235" lon="1.402920">
        <ele>1793.767815</ele>
        <time>2019-08-22T15:31:49.174Z</time>
      </trkpt>
      <trkpt lat="42.567388" lon="1.403583">
        <ele>1798.638089</ele>
        <time>2019-08-22T15:32:22.509Z</time>
      </trkpt>
      <trkpt lat="42.567452" lon="1.404528">
        <ele>1804.732661</ele>
        <time>2019-08-22T15:33:11.804Z</time>
      </trkpt>
      <trkpt lat="42.567422" lon="1.404647">
        <ele>1805.540435</ele>
        <time>2019-08-22T15:33:18.501Z</time>
      </trkpt>
      <trkpt lat="42.567338" lon="1.404683">
        <ele>1806.308544</ele>
        <time>2019-08-22T15:33:25.219Z</time>
      </trkpt>
      <trkpt lat="42.567253" lon="1.404438">
        <ele>1808.047825</ele>
        <time>2019-08-22T15:33:39.752Z</time>
      </trkpt>
      <trkpt lat="42.567202" lon="1.404035">
        <ele>1810.673905</ele>
        <time>2019-08-22T15:34:02.853Z</time>
      </trkpt>
      <trkpt lat="42.567143" lon="1.403922">
        <ele>1811.694699</ele>
        <time>2019-08-22T15:34:10.808Z</time>
      </trkpt>
      <trkpt lat="42.567045" lon="1.403903">
        <ele>1812.881192</ele>
        <time>2019-08-22T15:34:18.941Z</time>
      </trkpt>
      <trkpt lat="42.567058" lon="1.404403">
        <ele>1817.297525</ele>
        <time>2019-08-22T15:34:49.596Z</time>
      </trkpt>
      <trkpt lat="42.566980" lon="1.404942">
        <ele>1822.146346</ele>
        <time>2019-08-22T15:35:25.090Z</time>
      </trkpt>
      <trkpt lat="42.566478" lon="1.406035">
        <ele>1833.366674</ele>
        <time>2019-08-22T15:36:49.701Z</time>
      </trkpt>
      <trkpt lat="42.566332" lon="1.406790">
        <ele>1838.870474</ele>
        <time>2019-08-22T15:37:37.626Z</time>
      </trkpt>
      <trkpt lat="42.566392" lon="1.407467">
        <ele>1843.678311</ele>
        <time>2019-08-22T15:38:15.945Z</time>
      </trkpt>
      <trkpt lat="42.566267" lon="1.408060">
        <ele>1848.027327</ele>
        <time>2019-08-22T15:38:47.761Z</time>
      </trkpt>
      <trkpt lat="42.566357" lon="1.408615">
        <ele>1850.976391</ele>
        <time>2019-08-22T15:39:14.272Z</time>
      </trkpt>
      <trkpt lat="42.566348" lon="1.409262">
        <ele>1853.177943</ele>
        <time>2019-08-22T15:39:41.254Z</time>
      </trkpt>
      <trkpt lat="42.566382" lon="1.409228">
        <ele>1853.372999</ele>
        <time>2019-08-22T15:39:43.439Z</time>
      </trkpt>
      <trkpt lat="42.566373" lon="1.409598">
        <ele>1854.632462</ele>
        <time>2019-08-22T15:39:57.748Z</time>
      </trkpt>
      <trkpt lat="42.566247" lon="1.410137">
        <ele>1856.556350</ele>
        <time>2019-08-22T15:40:18.780Z</time>
      </trkpt>
      <trkpt lat="42.566242" lon="1.410728">
        <ele>1858.675624</ele>
        <time>2019-08-22T15:40:41.164Z</time>
      </trkpt>
      <trkpt lat="42.566333" lon="1.411267">
        <ele>1861.316813</ele>
        <time>2019-08-22T15:41:03.123Z</time>
      </trkpt>
      <trkpt lat="42.566482" lon="1.411783">
        <ele>1863.964027</ele>
        <time>2019-08-22T15:41:26.474Z</time>
      </trkpt>
      <trkpt lat="42.567378" lon="1.413178">
        <ele>1875.156087</ele>
        <time>2019-08-22T15:43:02.238Z</time>
      </trkpt>
      <trkpt lat="42.567373" lon="1.413322">
        <ele>1876.414353</ele>
        <time>2019-08-22T15:43:11.142Z</time>
      </trkpt>
      <trkpt lat="42.567043" lon="1.414497">
        <ele>1887.390488</ele>
        <time>2019-08-22T15:44:33.891Z</time>
      </trkpt>
      <trkpt lat="42.566660" lon="1.414703">
        <ele>1892.397472</ele>
        <time>2019-08-22T15:45:12.167Z</time>
      </trkpt>
      <trkpt lat="42.566257" lon="1.414710">
        <ele>1897.773890</ele>
        <time>2019-08-22T15:45:50.085Z</time>
      </trkpt>
      <trkpt lat="42.566075" lon="1.414593">
        <ele>1900.460125</ele>
        <time>2019-08-22T15:46:08.958Z</time>
      </trkpt>
      <trkpt lat="42.565832" lon="1.414247">
        <ele>1905.157334</ele>
        <time>2019-08-22T15:46:41.456Z</time>
      </trkpt>
      <trkpt lat="42.565640" lon="1.414202">
        <ele>1907.756473</ele>
        <time>2019-08-22T15:46:59.147Z</time>
      </trkpt>
      <trkpt lat="42.565415" lon="1.414280">
        <ele>1910.854237</ele>
        <time>2019-08-22T15:47:20.104Z</time>
      </trkpt>
      <trkpt lat="42.565247" lon="1.414412">
        <ele>1913.443534</ele>
        <time>2019-08-22T15:47:37.345Z</time>
      </trkpt>
      <trkpt lat="42.565112" lon="1.414652">
        <ele>1916.207173</ele>
        <time>2019-08-22T15:47:56.789Z</time>
      </trkpt>
      <trkpt lat="42.565230" lon="1.414880">
        <ele>1918.455526</ele>
        <time>2019-08-22T15:48:14.317Z</time>
      </trkpt>
      <trkpt lat="42.565862" lon="1.415183">
        <ele>1925.797953</ele>
        <time>2019-08-22T15:49:07.981Z</time>
      </trkpt>
      <trkpt lat="42.566387" lon="1.415663">
        <ele>1932.731629</ele>
        <time>2019-08-22T15:49:58.041Z</time>
      </trkpt>
      <trkpt lat="42.566423" lon="1.415772">
        <ele>1933.695442</ele>
        <time>2019-08-22T15:50:04.903Z</time>
      </trkpt>
      <trkpt lat="42.566348" lon="1.415843">
        <ele>1934.697042</ele>
        <time>2019-08-22T15:50:12.322Z</time>
      </trkpt>
      <trkpt lat="42.566257" lon="1.415803">
        <ele>1935.646643</ele>
        <time>2019-08-22T15:50:19.933Z</time>
      </trkpt>
      <trkpt lat="42.566117" lon="1.415618">
        <ele>1937.513034</ele>
        <time>2019-08-22T15:50:34.996Z</time>
      </trkpt>
      <trkpt lat="42.565757" lon="1.415433">
        <ele>1941.190468</ele>
        <time>2019-08-22T15:51:04.643Z</time>
      </trkpt>
      <trkpt lat="42.565140" lon="1.415555">
        <ele>1947.147292</ele>
        <time>2019-08-22T15:51:51.224Z</time>
      </trkpt>
      <trkpt lat="42.564865" lon="1.415363">
        <ele>1950.101567</ele>
        <time>2019-08-22T15:52:13.707Z</time>
      </trkpt>
      <trkpt lat="42.564570" lon="1.415262">
        <ele>1952.894056</ele>
        <time>2019-08-22T15:52:35.827Z</time>
      </trkpt>
      <trkpt lat="42.564097" lon="1.415327">
        <ele>1956.824687</ele>
        <time>2019-08-22T15:53:11.007Z</time>
      </trkpt>
      <trkpt lat="42.563838" lon="1.415227">
        <ele>1959.050937</ele>
        <time>2019-08-22T15:53:30.386Z</time>
      </trkpt>
      <trkpt lat="42.563523" lon="1.414932">
        <ele>1962.214731</ele>
        <time>2019-08-22T15:53:56.989Z</time>
      </trkpt>
      <trkpt lat="42.563498" lon="1.414788">
        <ele>1963.115641</ele>
        <time>2019-08-22T15:54:04.372Z</time>
      </trkpt>
      <trkpt lat="42.563725" lon="1.414213">
        <ele>1967.078005</ele>
        <time>2019-08-22T15:54:36.285Z</time>
      </trkpt>
      <trkpt lat="42.563742" lon="1.414063">
        <ele>1967.834685</ele>
        <time>2019-08-22T15:54:43.741Z</time>
      </trkpt>
      <trkpt lat="42.563702" lon="1.413900">
        <ele>1968.691302</ele>
        <time>2019-08-22T15:54:52.202Z</time>
      </trkpt>
      <trkpt lat="42.563600" lon="1.413785">
        <ele>1969.588810</ele>
        <time>2019-08-22T15:55:00.976Z</time>
      </trkpt>
      <trkpt lat="42.563277" lon="1.413823">
        <ele>1971.783528</ele>
        <time>2019-08-22T15:55:22.689Z</time>
      </trkpt>
      <trkpt lat="42.562320" lon="1.413312">
        <ele>1978.744865</ele>
        <time>2019-08-22T15:56:28.586Z</time>
      </trkpt>
      <trkpt lat="42.562358" lon="1.412878">
        <ele>1980.445712</ele>
        <time>2019-08-22T15:56:47.434Z</time>
      </trkpt>
      <trkpt lat="42.562452" lon="1.412622">
        <ele>1981.474613</ele>
        <time>2019-08-22T15:56:59.439Z</time>
      </trkpt>
      <trkpt lat="42.562705" lon="1.411478">
        <ele>1985.770994</ele>
        <time>2019-08-22T15:57:48.902Z</time>
      </trkpt>
      <trkpt lat="42.563117" lon="1.410785">
        <ele>1988.897517</ele>
        <time>2019-08-22T15:58:24.541Z</time>
      </trkpt>
      <trkpt lat="42.563120" lon="1.410643">
        <ele>1989.368557</ele>
        <time>2019-08-22T15:58:30.114Z</time>
      </trkpt>
      <trkpt lat="42.563057" lon="1.410555">
        <ele>1989.775477</ele>
        <time>2019-08-22T15:58:34.923Z</time>
      </trkpt>
      <trkpt lat="42.562963" lon="1.410590">
        <ele>1990.214284</ele>
        <time>2019-08-22T15:58:40.126Z</time>
      </trkpt>
      <trkpt lat="42.562785" lon="1.410827">
        <ele>1991.336654</ele>
        <time>2019-08-22T15:58:53.391Z</time>
      </trkpt>
      <trkpt lat="42.562385" lon="1.411183">
        <ele>1993.489844</ele>
        <time>2019-08-22T15:59:18.949Z</time>
      </trkpt>
      <trkpt lat="42.562022" lon="1.411773">
        <ele>1996.038956</ele>
        <time>2019-08-22T15:59:49.132Z</time>
      </trkpt>
      <trkpt lat="42.561430" lon="1.412310">
        <ele>2002.443770</ele>
        <time>2019-08-22T16:00:35.206Z</time>
      </trkpt>
      <trkpt lat="42.561327" lon="1.412348">
        <ele>2003.411443</ele>
        <time>2019-08-22T16:00:41.755Z</time>
      </trkpt>
      <trkpt lat="42.560917" lon="1.412180">
        <ele>2007.294151</ele>
        <time>2019-08-22T16:01:15.701Z</time>
      </trkpt>
      <trkpt lat="42.560648" lon="1.412281">
        <ele>2009.824478</ele>
        <time>2019-08-22T16:01:38.990Z</time>
      </trkpt>
      <trkpt lat="42.560536" lon="1.412471">
        <ele>2011.449541</ele>
        <time>2019-08-22T16:01:53.391Z</time>
      </trkpt>
      <trkpt lat="42.560541" lon="1.412494">
        <ele>2011.609680</ele>
        <time>2019-08-22T16:01:55.803Z</time>
      </trkpt>
      <trkpt lat="42.560475" lon="1.412737">
        <ele>2013.861326</ele>
        <time>2019-08-22T16:02:10.825Z</time>
      </trkpt>
      <trkpt lat="42.560323" lon="1.413148">
        <ele>2018.630741</ele>
        <time>2019-08-22T16:02:41.305Z</time>
      </trkpt>
      <trkpt lat="42.560054" lon="1.413508">
        <ele>2023.948920</ele>
        <time>2019-08-22T16:03:16.713Z</time>
      </trkpt>
      <trkpt lat="42.559673" lon="1.413886">
        <ele>2030.592977</ele>
        <time>2019-08-22T16:04:03.071Z</time>
      </trkpt>
      <trkpt lat="42.558567" lon="1.414544">
        <ele>2047.283858</ele>
        <time>2019-08-22T16:05:59.551Z</time>
      </trkpt>
      <trkpt lat="42.557977" lon="1.414979">
        <ele>2056.439323</ele>
        <time>2019-08-22T16:06:59.209Z</time>
      </trkpt>
      <trkpt lat="42.557400" lon="1.415514">
        <ele>2065.664126</ele>
        <time>2019-08-22T16:08:01.419Z</time>
      </trkpt>
      <trkpt lat="42.556892" lon="1.415558">
        <ele>2072.039418</ele>
        <time>2019-08-22T16:08:46.074Z</time>
      </trkpt>
      <trkpt lat="42.556448" lon="1.415283">
        <ele>2078.151616</ele>
        <time>2019-08-22T16:09:28.690Z</time>
      </trkpt>
      <trkpt lat="42.556158" lon="1.414915">
        <ele>2083.123329</ele>
        <time>2019-08-22T16:10:02.943Z</time>
      </trkpt>
      <trkpt lat="42.556001" lon="1.414866">
        <ele>2085.124801</ele>
        <time>2019-08-22T16:10:16.781Z</time>
      </trkpt>
      <trkpt lat="42.555510" lon="1.414879">
        <ele>2091.005355</ele>
        <time>2019-08-22T16:10:59.281Z</time>
      </trkpt>
      <trkpt lat="42.555080" lon="1.415014">
        <ele>2096.290252</ele>
        <time>2019-08-22T16:11:37.128Z</time>
      </trkpt>
      <trkpt lat="42.554763" lon="1.414605">
        <ele>2101.527048</ele>
        <time>2019-08-22T16:12:13.976Z</time>
      </trkpt>
      <trkpt lat="42.554426" lon="1.414552">
        <ele>2105.589415</ele>
        <time>2019-08-22T16:12:42.640Z</time>
      </trkpt>
      <trkpt lat="42.554182" lon="1.414184">
        <ele>2109.673039</ele>
        <time>2019-08-22T16:13:13.228Z</time>
      </trkpt>
      <trkpt lat="42.553845" lon="1.413521">
        <ele>2116.225462</ele>
        <time>2019-08-22T16:14:02.090Z</time>
      </trkpt>
      <trkpt lat="42.553746" lon="1.413491">
        <ele>2117.345585</ele>
        <time>2019-08-22T16:14:10.292Z</time>
      </trkpt>
      <trkpt lat="42.553708" lon="1.413580">
        <ele>2118.182369</ele>
        <time>2019-08-22T16:14:16.526Z</time>
      </trkpt>
      <trkpt lat="42.553732" lon="1.413702">
        <ele>2119.209551</ele>
        <time>2019-08-22T16:14:23.942Z</time>
      </trkpt>
      <trkpt lat="42.553911" lon="1.414054">
        <ele>2122.688873</ele>
        <time>2019-08-22T16:14:49.231Z</time>
      </trkpt>
      <trkpt lat="42.554076" lon="1.414910">
        <ele>2129.801938</ele>
        <time>2019-08-22T16:15:40.548Z</time>
      </trkpt>
      <trkpt lat="42.554257" lon="1.415171">
        <ele>2132.651510</ele>
        <time>2019-08-22T16:16:01.170Z</time>
      </trkpt>
      <trkpt lat="42.554438" lon="1.415853">
        <ele>2138.414144</ele>
        <time>2019-08-22T16:16:44.428Z</time>
      </trkpt>
      <trkpt lat="42.554596" lon="1.416195">
        <ele>2141.623276</ele>
        <time>2019-08-22T16:17:08.514Z</time>
      </trkpt>
      <trkpt lat="42.554768" lon="1.416413">
        <ele>2144.162650</ele>
        <time>2019-08-22T16:17:27.327Z</time>
      </trkpt>
      <trkpt lat="42.555293" lon="1.416766">
        <ele>2150.905260</ele>
        <time>2019-08-22T16:18:15.627Z</time>
      </trkpt>
      <trkpt lat="42.555337" lon="1.416881">
        <ele>2152.023690</ele>
        <time>2019-08-22T16:18:23.534Z</time>
      </trkpt>
      <trkpt lat="42.555319" lon="1.416978">
        <ele>2152.887024</ele>
        <time>2019-08-22T16:18:29.884Z</time>
      </trkpt>
      <trkpt lat="42.555245" lon="1.417012">
        <ele>2153.802361</ele>
        <time>2019-08-22T16:18:36.648Z</time>
      </trkpt>
      <trkpt lat="42.555041" lon="1.416887">
        <ele>2156.424733</ele>
        <time>2019-08-22T16:18:55.508Z</time>
      </trkpt>
      <trkpt lat="42.554694" lon="1.416815">
        <ele>2160.537592</ele>
        <time>2019-08-22T16:19:25.564Z</time>
      </trkpt>
      <trkpt lat="42.554093" lon="1.416529">
        <ele>2167.935665</ele>
        <time>2019-08-22T16:20:20.221Z</time>
      </trkpt>
      <trkpt lat="42.553609" lon="1.416041">
        <ele>2174.664449</ele>
        <time>2019-08-22T16:21:10.735Z</time>
      </trkpt>
      <trkpt lat="42.552840" lon="1.414752">
        <ele>2188.096467</ele>
        <time>2019-08-22T16:22:49.329Z</time>
      </trkpt>
      <trkpt lat="42.552762" lon="1.414705">
        <ele>2188.924533</ele>
        <time>2019-08-22T16:22:55.891Z</time>
      </trkpt>
      <trkpt lat="42.552724" lon="1.414759">
        <ele>2189.458335</ele>
        <time>2019-08-22T16:23:00.283Z</time>
      </trkpt>
      <trkpt lat="42.552929" lon="1.415204">
        <ele>2193.209935</ele>
        <time>2019-08-22T16:23:29.870Z</time>
      </trkpt>
      <trkpt lat="42.553022" lon="1.415781">
        <ele>2197.431857</ele>
        <time>2019-08-22T16:24:02.689Z</time>
      </trkpt>
      <trkpt lat="42.553207" lon="1.416401">
        <ele>2202.213321</ele>
        <time>2019-08-22T16:24:39.384Z</time>
      </trkpt>
      <trkpt lat="42.553466" lon="1.416967">
        <ele>2206.874880</ele>
        <time>2019-08-22T16:25:15.643Z</time>
      </trkpt>
      <trkpt lat="42.553732" lon="1.417192">
        <ele>2209.805819</ele>
        <time>2019-08-22T16:25:38.291Z</time>
      </trkpt>
      <trkpt lat="42.553941" lon="1.417494">
        <ele>2212.660340</ele>
        <time>2019-08-22T16:26:00.363Z</time>
      </trkpt>
      <trkpt lat="42.554301" lon="1.418218">
        <ele>2218.677755</ele>
        <time>2019-08-22T16:26:49.109Z</time>
      </trkpt>
      <trkpt lat="42.554319" lon="1.418367">
        <ele>2219.717898</ele>
        <time>2019-08-22T16:26:57.407Z</time>
      </trkpt>
      <trkpt lat="42.554218" lon="1.418724">
        <ele>2222.419879</ele>
        <time>2019-08-22T16:27:19.529Z</time>
      </trkpt>
      <trkpt lat="42.554604" lon="1.419038">
        <ele>2226.838903</ele>
        <time>2019-08-22T16:27:53.985Z</time>
      </trkpt>
      <trkpt lat="42.554963" lon="1.419489">
        <ele>2231.642251</ele>
        <time>2019-08-22T16:28:31.883Z</time>
      </trkpt>
      <trkpt lat="42.554938" lon="1.419557">
        <ele>2232.192010</ele>
        <time>2019-08-22T16:28:36.455Z</time>
      </trkpt>
      <trkpt lat="42.554655" lon="1.419381">
        <ele>2235.248850</ele>
        <time>2019-08-22T16:28:59.841Z</time>
      </trkpt>
      <trkpt lat="42.553961" lon="1.419187">
        <ele>2241.700917</ele>
        <time>2019-08-22T16:29:53.582Z</time>
      </trkpt>
      <trkpt lat="42.553732" lon="1.419179">
        <ele>2243.628877</ele>
        <time>2019-08-22T16:30:10.710Z</time>
      </trkpt>
      <trkpt lat="42.553582" lon="1.419254">
        <ele>2244.974225</ele>
        <time>2019-08-22T16:30:22.508Z</time>
      </trkpt>
      <trkpt lat="42.553476" lon="1.419218">
        <ele>2245.893843</ele>
        <time>2019-08-22T16:30:30.316Z</time>
      </trkpt>
      <trkpt lat="42.553423" lon="1.419120">
        <ele>2246.647584</ele>
        <time>2019-08-22T16:30:36.516Z</time>
      </trkpt>
      <trkpt lat="42.553451" lon="1.418763">
        <ele>2248.873425</ele>
        <time>2019-08-22T16:30:54.855Z</time>
      </trkpt>
      <trkpt lat="42.553416" lon="1.418602">
        <ele>2249.914151</ele>
        <time>2019-08-22T16:31:03.118Z</time>
      </trkpt>
      <trkpt lat="42.553250" lon="1.418186">
        <ele>2252.847369</ele>
        <time>2019-08-22T16:31:26.501Z</time>
      </trkpt>
      <trkpt lat="42.553114" lon="1.417988">
        <ele>2254.365306</ele>
        <time>2019-08-22T16:31:39.773Z</time>
      </trkpt>
      <trkpt lat="42.552102" lon="1.417202">
        <ele>2261.994187</ele>
        <time>2019-08-22T16:32:54.304Z</time>
      </trkpt>
      <trkpt lat="42.551156" lon="1.415929">
        <ele>2270.339520</ele>
        <time>2019-08-22T16:34:14.864Z</time>
      </trkpt>
      <trkpt lat="42.551066" lon="1.415850">
        <ele>2270.990219</ele>
        <time>2019-08-22T16:34:21.336Z</time>
      </trkpt>
      <trkpt lat="42.550543" lon="1.415708">
        <ele>2274.228375</ele>
        <time>2019-08-22T16:34:54.137Z</time>
      </trkpt>
      <trkpt lat="42.550137" lon="1.415815">
        <ele>2276.764637</ele>
        <time>2019-08-22T16:35:19.864Z</time>
      </trkpt>
      <trkpt lat="42.548422" lon="1.416774">
        <ele>2288.970719</ele>
        <time>2019-08-22T16:37:19.726Z</time>
      </trkpt>
      <trkpt lat="42.547306" lon="1.417556">
        <ele>2294.593154</ele>
        <time>2019-08-22T16:38:35.793Z</time>
      </trkpt>
      <trkpt lat="42.547030" lon="1.417841">
        <ele>2296.145621</ele>
        <time>2019-08-22T16:38:52.159Z</time>
      </trkpt>
      <trkpt lat="42.546820" lon="1.418206">
        <ele>2295.791481</ele>
        <time>2019-08-22T16:39:03.737Z</time>
      </trkpt>
      <trkpt lat="42.546613" lon="1.418652">
        <ele>2294.509588</ele>
        <time>2019-08-22T16:39:16.119Z</time>
      </trkpt>
      <trkpt lat="42.546575" lon="1.418774">
        <ele>2294.187475</ele>
        <time>2019-08-22T16:39:19.355Z</time>
      </trkpt>
      <trkpt lat="42.546425" lon="1.419258">
        <ele>2292.910551</ele>
        <time>2019-08-22T16:39:30.390Z</time>
      </trkpt>
      <trkpt lat="42.546394" lon="1.419395">
        <ele>2292.562025</ele>
        <time>2019-08-22T16:39:33.112Z</time>
      </trkpt>
      <trkpt lat="42.546380" lon="1.419537">
        <ele>2292.213621</ele>
        <time>2019-08-22T16:39:36.064Z</time>
      </trkpt>
      <trkpt lat="42.546369" lon="1.419654">
        <ele>2291.926786</ele>
        <time>2019-08-22T16:39:38.849Z</time>
      </trkpt>
      <trkpt lat="42.546359" lon="1.419741">
        <ele>2291.712654</ele>
        <time>2019-08-22T16:39:40.531Z</time>
      </trkpt>
      <trkpt lat="42.546384" lon="1.419837">
        <ele>2291.465039</ele>
        <time>2019-08-22T16:39:41.177Z</time>
      </trkpt>
      <trkpt lat="42.546449" lon="1.419950">
        <ele>2291.116398</ele>
        <time>2019-08-22T16:39:42.168Z</time>
      </trkpt>
      <trkpt lat="42.546817" lon="1.420105">
        <ele>2289.105981</ele>
        <time>2019-08-22T16:39:45.663Z</time>
      </trkpt>
      <trkpt lat="42.548037" lon="1.421300">
        <ele>2279.602648</ele>
        <time>2019-08-22T16:39:59.251Z</time>
      </trkpt>
      <trkpt lat="42.548401" lon="1.421814">
        <ele>2277.192244</ele>
        <time>2019-08-22T16:40:04.248Z</time>
      </trkpt>
      <trkpt lat="42.549154" lon="1.423368">
        <ele>2271.183895</ele>
        <time>2019-08-22T16:40:17.615Z</time>
      </trkpt>
      <trkpt lat="42.549451" lon="1.423774">
        <ele>2269.634080</ele>
        <time>2019-08-22T16:40:21.885Z</time>
      </trkpt>
      <trkpt lat="42.549708" lon="1.423958">
        <ele>2268.565751</ele>
        <time>2019-08-22T16:40:24.823Z</time>
      </trkpt>
      <trkpt lat="42.550181" lon="1.424197">
        <ele>2266.710027</ele>
        <time>2019-08-22T16:40:29.903Z</time>
      </trkpt>
      <trkpt lat="42.550726" lon="1.424319">
        <ele>2264.638449</ele>
        <time>2019-08-22T16:40:35.415Z</time>
      </trkpt>
      <trkpt lat="42.552051" lon="1.424283">
        <ele>2256.790618</ele>
        <time>2019-08-22T16:40:47.782Z</time>
      </trkpt>
      <trkpt lat="42.553002" lon="1.424396">
        <ele>2249.786386</ele>
        <time>2019-08-22T16:40:56.182Z</time>
      </trkpt>
      <trkpt lat="42.553427" lon="1.424642">
        <ele>2245.800302</ele>
        <time>2019-08-22T16:41:00.208Z</time>
      </trkpt>
      <trkpt lat="42.553777" lon="1.425054">
        <ele>2241.803526</ele>
        <time>2019-08-22T16:41:04.222Z</time>
      </trkpt>
      <trkpt lat="42.553893" lon="1.425334">
        <ele>2239.761908</ele>
        <time>2019-08-22T16:41:06.283Z</time>
      </trkpt>
      <trkpt lat="42.554703" lon="1.428279">
        <ele>2220.898758</ele>
        <time>2019-08-22T16:41:26.740Z</time>
      </trkpt>
      <trkpt lat="42.554696" lon="1.428785">
        <ele>2218.102205</ele>
        <time>2019-08-22T16:41:30.066Z</time>
      </trkpt>
      <trkpt lat="42.554634" lon="1.429239">
        <ele>2215.550738</ele>
        <time>2019-08-22T16:41:33.098Z</time>
      </trkpt>
      <trkpt lat="42.554356" lon="1.430108">
        <ele>2210.315512</ele>
        <time>2019-08-22T16:41:39.346Z</time>
      </trkpt>
      <trkpt lat="42.554295" lon="1.430493">
        <ele>2208.601457</ele>
        <time>2019-08-22T16:41:41.974Z</time>
      </trkpt>
      <trkpt lat="42.554298" lon="1.431500">
        <ele>2204.252504</ele>
        <time>2019-08-22T16:41:48.788Z</time>
      </trkpt>
      <trkpt lat="42.554379" lon="1.431967">
        <ele>2202.180525</ele>
        <time>2019-08-22T16:41:52.084Z</time>
      </trkpt>
      <trkpt lat="42.554546" lon="1.432258">
        <ele>2200.587426</ele>
        <time>2019-08-22T16:41:54.653Z</time>
      </trkpt>
      <trkpt lat="42.554873" lon="1.432461">
        <ele>2198.499313</ele>
        <time>2019-08-22T16:41:58.091Z</time>
      </trkpt>
      <trkpt lat="42.555214" lon="1.432524">
        <ele>2196.514398</ele>
        <time>2019-08-22T16:42:01.386Z</time>
      </trkpt>
      <trkpt lat="42.556175" lon="1.432540">
        <ele>2190.971226</ele>
        <time>2019-08-22T16:42:10.323Z</time>
      </trkpt>
      <trkpt lat="42.556519" lon="1.432622">
        <ele>2188.717059</ele>
        <time>2019-08-22T16:42:13.437Z</time>
      </trkpt>
      <trkpt lat="42.557502" lon="1.433196">
        <ele>2178.638602</ele>
        <time>2019-08-22T16:42:22.759Z</time>
      </trkpt>
      <trkpt lat="42.557607" lon="1.433333">
        <ele>2177.266973</ele>
        <time>2019-08-22T16:42:24.002Z</time>
      </trkpt>
      <trkpt lat="42.557692" lon="1.433864">
        <ele>2173.497113</ele>
        <time>2019-08-22T16:42:27.417Z</time>
      </trkpt>
      <trkpt lat="42.557921" lon="1.434510">
        <ele>2168.455604</ele>
        <time>2019-08-22T16:42:31.924Z</time>
      </trkpt>
      <trkpt lat="42.557925" lon="1.435185">
        <ele>2163.690532</ele>
        <time>2019-08-22T16:42:36.203Z</time>
      </trkpt>
      <trkpt lat="42.558003" lon="1.435427">
        <ele>2161.825834</ele>
        <time>2019-08-22T16:42:37.896Z</time>
      </trkpt>
      <trkpt lat="42.558321" lon="1.435991">
        <ele>2156.811992</ele>
        <time>2019-08-22T16:42:42.498Z</time>
      </trkpt>
      <trkpt lat="42.558345" lon="1.436160">
        <ele>2155.597036</ele>
        <time>2019-08-22T16:42:43.617Z</time>
      </trkpt>
      <trkpt lat="42.558258" lon="1.436579">
        <ele>2153.431310</ele>
        <time>2019-08-22T16:42:46.451Z</time>
      </trkpt>
      <trkpt lat="42.558046" lon="1.437096">
        <ele>2150.693254</ele>
        <time>2019-08-22T16:42:50.321Z</time>
      </trkpt>
      <trkpt lat="42.558077" lon="1.437335">
        <ele>2149.570303</ele>
        <time>2019-08-22T16:42:51.947Z</time>
      </trkpt>
      <trkpt lat="42.558730" lon="1.438067">
        <ele>2144.250417</ele>
        <time>2019-08-22T16:42:59.919Z</time>
      </trkpt>
      <trkpt lat="42.558949" lon="1.438599">
        <ele>2142.417108</ele>
        <time>2019-08-22T16:43:04.261Z</time>
      </trkpt>
      <trkpt lat="42.558816" lon="1.439606">
        <ele>2139.606906</ele>
        <time>2019-08-22T16:43:11.562Z</time>
      </trkpt>
      <trkpt lat="42.558927" lon="1.439824">
        <ele>2138.878945</ele>
        <time>2019-08-22T16:43:13.521Z</time>
      </trkpt>
      <trkpt lat="42.559928" lon="1.440499">
        <ele>2136.522888</ele>
        <time>2019-08-22T16:43:25.534Z</time>
      </trkpt>
      <trkpt lat="42.560034" lon="1.440744">
        <ele>2136.321970</ele>
        <time>2019-08-22T16:43:27.868Z</time>
      </trkpt>
      <trkpt lat="42.560010" lon="1.441240">
        <ele>2135.970487</ele>
        <time>2019-08-22T16:43:31.976Z</time>
      </trkpt>
      <trkpt lat="42.560118" lon="1.441884">
        <ele>2135.503455</ele>
        <time>2019-08-22T16:43:39.042Z</time>
      </trkpt>
      <trkpt lat="42.560123" lon="1.442216">
        <ele>2136.235767</ele>
        <time>2019-08-22T16:43:44.438Z</time>
      </trkpt>
      <trkpt lat="42.560093" lon="1.443135">
        <ele>2139.625699</ele>
        <time>2019-08-22T16:44:05.405Z</time>
      </trkpt>
      <trkpt lat="42.559969" lon="1.443779">
        <ele>2142.078655</ele>
        <time>2019-08-22T16:44:24.545Z</time>
      </trkpt>
      <trkpt lat="42.560109" lon="1.444304">
        <ele>2144.136224</ele>
        <time>2019-08-22T16:44:42.932Z</time>
      </trkpt>
      <trkpt lat="42.560167" lon="1.444916">
        <ele>2147.323779</ele>
        <time>2019-08-22T16:45:04.632Z</time>
      </trkpt>
      <trkpt lat="42.560105" lon="1.445457">
        <ele>2150.269162</ele>
        <time>2019-08-22T16:45:24.894Z</time>
      </trkpt>
      <trkpt lat="42.560128" lon="1.445858">
        <ele>2152.432916</ele>
        <time>2019-08-22T16:45:39.304Z</time>
      </trkpt>
      <trkpt lat="42.560066" lon="1.446033">
        <ele>2153.477589</ele>
        <time>2019-08-22T16:45:45.724Z</time>
      </trkpt>
      <trkpt lat="42.559973" lon="1.446120">
        <ele>2154.302459</ele>
        <time>2019-08-22T16:45:50.644Z</time>
      </trkpt>
      <trkpt lat="42.559157" lon="1.446027">
        <ele>2159.132563</ele>
        <time>2019-08-22T16:46:20.464Z</time>
      </trkpt>
      <trkpt lat="42.558831" lon="1.445930">
        <ele>2160.540277</ele>
        <time>2019-08-22T16:46:30.674Z</time>
      </trkpt>
      <trkpt lat="42.558664" lon="1.445959">
        <ele>2161.250426</ele>
        <time>2019-08-22T16:46:35.747Z</time>
      </trkpt>
      <trkpt lat="42.558539" lon="1.446068">
        <ele>2161.877071</ele>
        <time>2019-08-22T16:46:40.125Z</time>
      </trkpt>
      <trkpt lat="42.558391" lon="1.446438">
        <ele>2163.185208</ele>
        <time>2019-08-22T16:46:49.336Z</time>
      </trkpt>
      <trkpt lat="42.557784" lon="1.447147">
        <ele>2165.865738</ele>
        <time>2019-08-22T16:47:13.307Z</time>
      </trkpt>
      <trkpt lat="42.557044" lon="1.447712">
        <ele>2167.684517</ele>
        <time>2019-08-22T16:47:36.363Z</time>
      </trkpt>
      <trkpt lat="42.556666" lon="1.447794">
        <ele>2168.504561</ele>
        <time>2019-08-22T16:47:44.871Z</time>
      </trkpt>
      <trkpt lat="42.556452" lon="1.447821">
        <ele>2168.964979</ele>
        <time>2019-08-22T16:47:48.967Z</time>
      </trkpt>
      <trkpt lat="42.556132" lon="1.447743">
        <ele>2167.078099</ele>
        <time>2019-08-22T16:47:53.836Z</time>
      </trkpt>
      <trkpt lat="42.554906" lon="1.446923">
        <ele>2158.578947</ele>
        <time>2019-08-22T16:48:06.149Z</time>
      </trkpt>
      <trkpt lat="42.554478" lon="1.446925">
        <ele>2153.395096</ele>
        <time>2019-08-22T16:48:09.738Z</time>
      </trkpt>
      <trkpt lat="42.553895" lon="1.446714">
        <ele>2144.654391</ele>
        <time>2019-08-22T16:48:14.749Z</time>
      </trkpt>
      <trkpt lat="42.553760" lon="1.446725">
        <ele>2142.695176</ele>
        <time>2019-08-22T16:48:15.866Z</time>
      </trkpt>
      <trkpt lat="42.553351" lon="1.446924">
        <ele>2136.401067</ele>
        <time>2019-08-22T16:48:19.448Z</time>
      </trkpt>
      <trkpt lat="42.553185" lon="1.447077">
        <ele>2133.494379</ele>
        <time>2019-08-22T16:48:21.106Z</time>
      </trkpt>
      <trkpt lat="42.553079" lon="1.447237">
        <ele>2131.362017</ele>
        <time>2019-08-22T16:48:22.410Z</time>
      </trkpt>
      <trkpt lat="42.553048" lon="1.447455">
        <ele>2129.686459</ele>
        <time>2019-08-22T16:48:23.773Z</time>
      </trkpt>
      <trkpt lat="42.553075" lon="1.447730">
        <ele>2127.592758</ele>
        <time>2019-08-22T16:48:25.482Z</time>
      </trkpt>
      <trkpt lat="42.553408" lon="1.448661">
        <ele>2119.782353</ele>
        <time>2019-08-22T16:48:31.990Z</time>
      </trkpt>
      <trkpt lat="42.553458" lon="1.448927">
        <ele>2117.710614</ele>
        <time>2019-08-22T16:48:33.797Z</time>
      </trkpt>
      <trkpt lat="42.553483" lon="1.449206">
        <ele>2115.589573</ele>
        <time>2019-08-22T16:48:35.655Z</time>
      </trkpt>
      <trkpt lat="42.553448" lon="1.450139">
        <ele>2112.631443</ele>
        <time>2019-08-22T16:48:42.331Z</time>
      </trkpt>
      <trkpt lat="42.553729" lon="1.451237">
        <ele>2111.349635</ele>
        <time>2019-08-22T16:48:54.290Z</time>
      </trkpt>
      <trkpt lat="42.553669" lon="1.451864">
        <ele>2110.652403</ele>
        <time>2019-08-22T16:49:02.574Z</time>
      </trkpt>
      <trkpt lat="42.553622" lon="1.452085">
        <ele>2110.526760</ele>
        <time>2019-08-22T16:49:05.478Z</time>
      </trkpt>
      <trkpt lat="42.553371" lon="1.452628">
        <ele>2110.196248</ele>
        <time>2019-08-22T16:49:12.024Z</time>
      </trkpt>
      <trkpt lat="42.552756" lon="1.453673">
        <ele>2109.506638</ele>
        <time>2019-08-22T16:49:23.777Z</time>
      </trkpt>
      <trkpt lat="42.552608" lon="1.453817">
        <ele>2109.377992</ele>
        <time>2019-08-22T16:49:25.929Z</time>
      </trkpt>
      <trkpt lat="42.551981" lon="1.454193">
        <ele>2108.377491</ele>
        <time>2019-08-22T16:49:34.509Z</time>
      </trkpt>
      <trkpt lat="42.551876" lon="1.454216">
        <ele>2108.222249</ele>
        <time>2019-08-22T16:49:35.452Z</time>
      </trkpt>
      <trkpt lat="42.551719" lon="1.454218">
        <ele>2107.993080</ele>
        <time>2019-08-22T16:49:39.885Z</time>
      </trkpt>
      <trkpt lat="42.550873" lon="1.453941">
        <ele>2106.648173</ele>
        <time>2019-08-22T16:49:49.497Z</time>
      </trkpt>
      <trkpt lat="42.550300" lon="1.453545">
        <ele>2103.529727</ele>
        <time>2019-08-22T16:49:56.457Z</time>
      </trkpt>
      <trkpt lat="42.550050" lon="1.453434">
        <ele>2102.254031</ele>
        <time>2019-08-22T16:49:58.963Z</time>
      </trkpt>
      <trkpt lat="42.549526" lon="1.453341">
        <ele>2099.691035</ele>
        <time>2019-08-22T16:50:03.810Z</time>
      </trkpt>
      <trkpt lat="42.548812" lon="1.452918">
        <ele>2094.343427</ele>
        <time>2019-08-22T16:50:10.683Z</time>
      </trkpt>
      <trkpt lat="42.548172" lon="1.452622">
        <ele>2088.635634</ele>
        <time>2019-08-22T16:50:16.553Z</time>
      </trkpt>
      <trkpt lat="42.546503" lon="1.452700">
        <ele>2076.382201</ele>
        <time>2019-08-22T16:50:31.228Z</time>
      </trkpt>
      <trkpt lat="42.546388" lon="1.452718">
        <ele>2075.621851</ele>
        <time>2019-08-22T16:50:32.269Z</time>
      </trkpt>
      <trkpt lat="42.546326" lon="1.452728">
        <ele>2075.211757</ele>
        <time>2019-08-22T16:50:32.861Z</time>
      </trkpt>
      <trkpt lat="42.546221" lon="1.452744">
        <ele>2074.517763</ele>
        <time>2019-08-22T16:50:33.901Z</time>
      </trkpt>
      <trkpt lat="42.546018" lon="1.452826">
        <ele>2073.126625</ele>
        <time>2019-08-22T16:50:35.989Z</time>
      </trkpt>
      <trkpt lat="42.545663" lon="1.452950">
        <ele>2070.782213</ele>
        <time>2019-08-22T16:50:39.532Z</time>
      </trkpt>
      <trkpt lat="42.545608" lon="1.452974">
        <ele>2070.478977</ele>
        <time>2019-08-22T16:50:40.072Z</time>
      </trkpt>
      <trkpt lat="42.544995" lon="1.453237">
        <ele>2067.104542</ele>
        <time>2019-08-22T16:50:46.264Z</time>
      </trkpt>
      <trkpt lat="42.544817" lon="1.453364">
        <ele>2066.049036</ele>
        <time>2019-08-22T16:50:48.150Z</time>
      </trkpt>
      <trkpt lat="42.544664" lon="1.453534">
        <ele>2065.011204</ele>
        <time>2019-08-22T16:50:50.190Z</time>
      </trkpt>
      <trkpt lat="42.544548" lon="1.453684">
        <ele>2064.170262</ele>
        <time>2019-08-22T16:50:51.640Z</time>
      </trkpt>
      <trkpt lat="42.544253" lon="1.454276">
        <ele>2061.238008</ele>
        <time>2019-08-22T16:50:56.503Z</time>
      </trkpt>
      <trkpt lat="42.544000" lon="1.454659">
        <ele>2057.453736</ele>
        <time>2019-08-22T16:50:59.851Z</time>
      </trkpt>
      <trkpt lat="42.543030" lon="1.455976">
        <ele>2043.753986</ele>
        <time>2019-08-22T16:51:11.559Z</time>
      </trkpt>
      <trkpt lat="42.542109" lon="1.456693">
        <ele>2031.019510</ele>
        <time>2019-08-22T16:51:20.572Z</time>
      </trkpt>
      <trkpt lat="42.541712" lon="1.456837">
        <ele>2026.081340</ele>
        <time>2019-08-22T16:51:24.015Z</time>
      </trkpt>
      <trkpt lat="42.541513" lon="1.456989">
        <ele>2023.337278</ele>
        <time>2019-08-22T16:51:25.930Z</time>
      </trkpt>
      <trkpt lat="42.541354" lon="1.457230">
        <ele>2020.675111</ele>
        <time>2019-08-22T16:51:27.930Z</time>
      </trkpt>
      <trkpt lat="42.541208" lon="1.457472">
        <ele>2018.267724</ele>
        <time>2019-08-22T16:51:29.941Z</time>
      </trkpt>
      <trkpt lat="42.541156" lon="1.457559">
        <ele>2017.405476</ele>
        <time>2019-08-22T16:51:30.615Z</time>
      </trkpt>
      <trkpt lat="42.540802" lon="1.458129">
        <ele>2011.667640</ele>
        <time>2019-08-22T16:51:35.351Z</time>
      </trkpt>
      <trkpt lat="42.540698" lon="1.458189">
        <ele>2010.487138</ele>
        <time>2019-08-22T16:51:36.321Z</time>
      </trkpt>
      <trkpt lat="42.539745" lon="1.458032">
        <ele>2002.057251</ele>
        <time>2019-08-22T16:51:44.599Z</time>
      </trkpt>
      <trkpt lat="42.538961" lon="1.458068">
        <ele>1998.589706</ele>
        <time>2019-08-22T16:51:52.196Z</time>
      </trkpt>
      <trkpt lat="42.538518" lon="1.458188">
        <ele>1996.592864</ele>
        <time>2019-08-22T16:51:56.876Z</time>
      </trkpt>
      <trkpt lat="42.537729" lon="1.458837">
        <ele>1994.252509</ele>
        <time>2019-08-22T16:52:07.713Z</time>
      </trkpt>
      <trkpt lat="42.537224" lon="1.459090">
        <ele>1993.368800</ele>
        <time>2019-08-22T16:52:15.102Z</time>
      </trkpt>
      <trkpt lat="42.536799" lon="1.459781">
        <ele>1992.084329</ele>
        <time>2019-08-22T16:52:22.405Z</time>
      </trkpt>
      <trkpt lat="42.536622" lon="1.460073">
        <ele>1989.701479</ele>
        <time>2019-08-22T16:52:25.228Z</time>
      </trkpt>
      <trkpt lat="42.536544" lon="1.460203">
        <ele>1988.644961</ele>
        <time>2019-08-22T16:52:26.422Z</time>
      </trkpt>
      <trkpt lat="42.536373" lon="1.460521">
        <ele>1986.164001</ele>
        <time>2019-08-22T16:52:29.092Z</time>
      </trkpt>
      <trkpt lat="42.536326" lon="1.460706">
        <ele>1984.930769</ele>
        <time>2019-08-22T16:52:30.381Z</time>
      </trkpt>
      <trkpt lat="42.536340" lon="1.460888">
        <ele>1983.777561</ele>
        <time>2019-08-22T16:52:31.573Z</time>
      </trkpt>
      <trkpt lat="42.536698" lon="1.461941">
        <ele>1976.032436</ele>
        <time>2019-08-22T16:52:38.841Z</time>
      </trkpt>
      <trkpt lat="42.537045" lon="1.463802">
        <ele>1952.788172</ele>
        <time>2019-08-22T16:52:50.506Z</time>
      </trkpt>
      <trkpt lat="42.537084" lon="1.464093">
        <ele>1949.206790</ele>
        <time>2019-08-22T16:52:52.305Z</time>
      </trkpt>
      <trkpt lat="42.536996" lon="1.464709">
        <ele>1943.633420</ele>
        <time>2019-08-22T16:52:56.138Z</time>
      </trkpt>
      <trkpt lat="42.536757" lon="1.464951">
        <ele>1940.450336</ele>
        <time>2019-08-22T16:52:58.624Z</time>
      </trkpt>
      <trkpt lat="42.536626" lon="1.464963">
        <ele>1939.048772</ele>
        <time>2019-08-22T16:52:59.728Z</time>
      </trkpt>
      <trkpt lat="42.535146" lon="1.464196">
        <ele>1925.986448</ele>
        <time>2019-08-22T16:53:13.929Z</time>
      </trkpt>
      <trkpt lat="42.534832" lon="1.464327">
        <ele>1924.711159</ele>
        <time>2019-08-22T16:53:17.411Z</time>
      </trkpt>
      <trkpt lat="42.534411" lon="1.465265">
        <ele>1921.569333</ele>
        <time>2019-08-22T16:53:26.247Z</time>
      </trkpt>
      <trkpt lat="42.533677" lon="1.466138">
        <ele>1917.294321</ele>
        <time>2019-08-22T16:53:36.554Z</time>
      </trkpt>
      <trkpt lat="42.533621" lon="1.466372">
        <ele>1916.490580</ele>
        <time>2019-08-22T16:53:38.335Z</time>
      </trkpt>
      <trkpt lat="42.533636" lon="1.466681">
        <ele>1915.478942</ele>
        <time>2019-08-22T16:53:40.532Z</time>
      </trkpt>
      <trkpt lat="42.534093" lon="1.468822">
        <ele>1904.312906</ele>
        <time>2019-08-22T16:53:55.106Z</time>
      </trkpt>
      <trkpt lat="42.534178" lon="1.469146">
        <ele>1902.322212</ele>
        <time>2019-08-22T16:53:57.331Z</time>
      </trkpt>
      <trkpt lat="42.534340" lon="1.469840">
        <ele>1898.205061</ele>
        <time>2019-08-22T16:54:02.108Z</time>
      </trkpt>
      <trkpt lat="42.534862" lon="1.470920">
        <ele>1891.456555</ele>
        <time>2019-08-22T16:54:10.562Z</time>
      </trkpt>
      <trkpt lat="42.535523" lon="1.471984">
        <ele>1883.799035</ele>
        <time>2019-08-22T16:54:20.009Z</time>
      </trkpt>
      <trkpt lat="42.535771" lon="1.472154">
        <ele>1881.477136</ele>
        <time>2019-08-22T16:54:22.504Z</time>
      </trkpt>
      <trkpt lat="42.536411" lon="1.472399">
        <ele>1875.919985</ele>
        <time>2019-08-22T16:54:28.372Z</time>
      </trkpt>
      <trkpt lat="42.537942" lon="1.473740">
        <ele>1854.835050</ele>
        <time>2019-08-22T16:54:43.931Z</time>
      </trkpt>
      <trkpt lat="42.539303" lon="1.474739">
        <ele>1831.120987</ele>
        <time>2019-08-22T16:54:56.659Z</time>
      </trkpt>
      <trkpt lat="42.539466" lon="1.475100">
        <ele>1825.958901</ele>
        <time>2019-08-22T16:54:59.240Z</time>
      </trkpt>
      <trkpt lat="42.539485" lon="1.475234">
        <ele>1824.295170</ele>
        <time>2019-08-22T16:55:00.063Z</time>
      </trkpt>
      <trkpt lat="42.539492" lon="1.475431">
        <ele>1821.890515</ele>
        <time>2019-08-22T16:55:01.266Z</time>
      </trkpt>
      <trkpt lat="42.539363" lon="1.475950">
        <ele>1816.924277</ele>
        <time>2019-08-22T16:55:04.644Z</time>
      </trkpt>
      <trkpt lat="42.539186" lon="1.476173">
        <ele>1815.190639</ele>
        <time>2019-08-22T16:55:06.673Z</time>
      </trkpt>
      <trkpt lat="42.538748" lon="1.476413">
        <ele>1811.799937</ele>
        <time>2019-08-22T16:55:10.749Z</time>
      </trkpt>
      <trkpt lat="42.538094" lon="1.476543">
        <ele>1807.055205</ele>
        <time>2019-08-22T16:55:17.235Z</time>
      </trkpt>
      <trkpt lat="42.537849" lon="1.476685">
        <ele>1805.361145</ele>
        <time>2019-08-22T16:55:21.891Z</time>
      </trkpt>
      <trkpt lat="42.537371" lon="1.477127">
        <ele>1806.196355</ele>
        <time>2019-08-22T16:55:32.938Z</time>
      </trkpt>
      <trkpt lat="42.537133" lon="1.477636">
        <ele>1806.837765</ele>
        <time>2019-08-22T16:55:42.637Z</time>
      </trkpt>
      <trkpt lat="42.537065" lon="1.477864">
        <ele>1807.099473</ele>
        <time>2019-08-22T16:55:47.613Z</time>
      </trkpt>
      <trkpt lat="42.537004" lon="1.478176">
        <ele>1807.442925</ele>
        <time>2019-08-22T16:55:53.529Z</time>
      </trkpt>
      <trkpt lat="42.536941" lon="1.478611">
        <ele>1807.914617</ele>
        <time>2019-08-22T16:56:01.692Z</time>
      </trkpt>
      <trkpt lat="42.536800" lon="1.479335">
        <ele>1807.849029</ele>
        <time>2019-08-22T16:56:13.987Z</time>
      </trkpt>
      <trkpt lat="42.536786" lon="1.479407">
        <ele>1807.841726</ele>
        <time>2019-08-22T16:56:14.979Z</time>
      </trkpt>
      <trkpt lat="42.536748" lon="1.479721">
        <ele>1807.810518</ele>
        <time>2019-08-22T16:56:19.425Z</time>
      </trkpt>
      <trkpt lat="42.536715" lon="1.480001">
        <ele>1807.782709</ele>
        <time>2019-08-22T16:56:22.661Z</time>
      </trkpt>
      <trkpt lat="42.536816" lon="1.481606">
        <ele>1804.970334</ele>
        <time>2019-08-22T16:56:35.794Z</time>
      </trkpt>
      <trkpt lat="42.537046" lon="1.482525">
        <ele>1800.494986</ele>
        <time>2019-08-22T16:56:42.375Z</time>
      </trkpt>
      <trkpt lat="42.537139" lon="1.482555">
        <ele>1799.896787</ele>
        <time>2019-08-22T16:56:43.213Z</time>
      </trkpt>
      <trkpt lat="42.537211" lon="1.482538">
        <ele>1799.439450</ele>
        <time>2019-08-22T16:56:43.854Z</time>
      </trkpt>
      <trkpt lat="42.537227" lon="1.482486">
        <ele>1799.179609</ele>
        <time>2019-08-22T16:56:44.216Z</time>
      </trkpt>
      <trkpt lat="42.537249" lon="1.482416">
        <ele>1798.828700</ele>
        <time>2019-08-22T16:56:44.702Z</time>
      </trkpt>
      <trkpt lat="42.537085" lon="1.481892">
        <ele>1795.965010</ele>
        <time>2019-08-22T16:56:48.385Z</time>
      </trkpt>
      <trkpt lat="42.537033" lon="1.481428">
        <ele>1791.486858</ele>
        <time>2019-08-22T16:56:51.336Z</time>
      </trkpt>
      <trkpt lat="42.537098" lon="1.481020">
        <ele>1787.503989</ele>
        <time>2019-08-22T16:56:53.922Z</time>
      </trkpt>
      <trkpt lat="42.537271" lon="1.480322">
        <ele>1780.477386</ele>
        <time>2019-08-22T16:56:58.466Z</time>
      </trkpt>
      <trkpt lat="42.537393" lon="1.480019">
        <ele>1777.182855</ele>
        <time>2019-08-22T16:57:00.602Z</time>
      </trkpt>
      <trkpt lat="42.538131" lon="1.478784">
        <ele>1760.909550</ele>
        <time>2019-08-22T16:57:10.353Z</time>
      </trkpt>
      <trkpt lat="42.538331" lon="1.478518">
        <ele>1756.924363</ele>
        <time>2019-08-22T16:57:12.684Z</time>
      </trkpt>
      <trkpt lat="42.538499" lon="1.478442">
        <ele>1754.404146</ele>
        <time>2019-08-22T16:57:14.161Z</time>
      </trkpt>
      <trkpt lat="42.538904" lon="1.478455">
        <ele>1748.638774</ele>
        <time>2019-08-22T16:57:17.535Z</time>
      </trkpt>
      <trkpt lat="42.539024" lon="1.478402">
        <ele>1747.090963</ele>
        <time>2019-08-22T16:57:18.596Z</time>
      </trkpt>
      <trkpt lat="42.539362" lon="1.478020">
        <ele>1743.064385</ele>
        <time>2019-08-22T16:57:22.324Z</time>
      </trkpt>
      <trkpt lat="42.539553" lon="1.477900">
        <ele>1741.137617</ele>
        <time>2019-08-22T16:57:24.133Z</time>
      </trkpt>
      <trkpt lat="42.540041" lon="1.477887">
        <ele>1736.669364</ele>
        <time>2019-08-22T16:57:28.392Z</time>
      </trkpt>
      <trkpt lat="42.540192" lon="1.477820">
        <ele>1735.215039</ele>
        <time>2019-08-22T16:57:29.797Z</time>
      </trkpt>
      <trkpt lat="42.540379" lon="1.477571">
        <ele>1732.816842</ele>
        <time>2019-08-22T16:57:32.153Z</time>
      </trkpt>
      <trkpt lat="42.541248" lon="1.476054">
        <ele>1725.220021</ele>
        <time>2019-08-22T16:57:45.590Z</time>
      </trkpt>
      <trkpt lat="42.541404" lon="1.475681">
        <ele>1723.710539</ele>
        <time>2019-08-22T16:57:48.708Z</time>
      </trkpt>
      <trkpt lat="42.541504" lon="1.475122">
        <ele>1721.544453</ele>
        <time>2019-08-22T16:57:52.850Z</time>
      </trkpt>
      <trkpt lat="42.541521" lon="1.474586">
        <ele>1719.320097</ele>
        <time>2019-08-22T16:57:56.659Z</time>
      </trkpt>
      <trkpt lat="42.541456" lon="1.474010">
        <ele>1716.904106</ele>
        <time>2019-08-22T16:58:00.725Z</time>
      </trkpt>
      <trkpt lat="42.541294" lon="1.473378">
        <ele>1714.129732</ele>
        <time>2019-08-22T16:58:05.250Z</time>
      </trkpt>
      <trkpt lat="42.540874" lon="1.472322">
        <ele>1706.156829</ele>
        <time>2019-08-22T16:58:13.131Z</time>
      </trkpt>
      <trkpt lat="42.540628" lon="1.471881">
        <ele>1701.718991</ele>
        <time>2019-08-22T16:58:16.603Z</time>
      </trkpt>
      <trkpt lat="42.540107" lon="1.471240">
        <ele>1694.061665</ele>
        <time>2019-08-22T16:58:22.518Z</time>
      </trkpt>
      <trkpt lat="42.540008" lon="1.470885">
        <ele>1690.397593</ele>
        <time>2019-08-22T16:58:24.860Z</time>
      </trkpt>
      <trkpt lat="42.540045" lon="1.470721">
        <ele>1688.537176</ele>
        <time>2019-08-22T16:58:25.924Z</time>
      </trkpt>
      <trkpt lat="42.540119" lon="1.470651">
        <ele>1687.209287</ele>
        <time>2019-08-22T16:58:26.688Z</time>
      </trkpt>
      <trkpt lat="42.540308" lon="1.470559">
        <ele>1684.253376</ele>
        <time>2019-08-22T16:58:28.347Z</time>
      </trkpt>
      <trkpt lat="42.540494" lon="1.470535">
        <ele>1681.502824</ele>
        <time>2019-08-22T16:58:29.911Z</time>
      </trkpt>
      <trkpt lat="42.540840" lon="1.470445">
        <ele>1676.316470</ele>
        <time>2019-08-22T16:58:32.839Z</time>
      </trkpt>
      <trkpt lat="42.540996" lon="1.470330">
        <ele>1673.703018</ele>
        <time>2019-08-22T16:58:34.309Z</time>
      </trkpt>
      <trkpt lat="42.541181" lon="1.469695">
        <ele>1666.296446</ele>
        <time>2019-08-22T16:58:38.492Z</time>
      </trkpt>
      <trkpt lat="42.541276" lon="1.469523">
        <ele>1663.946586</ele>
        <time>2019-08-22T16:58:39.798Z</time>
      </trkpt>
      <trkpt lat="42.541400" lon="1.469453">
        <ele>1661.954046</ele>
        <time>2019-08-22T16:58:40.904Z</time>
      </trkpt>
      <trkpt lat="42.541552" lon="1.469486">
        <ele>1659.670202</ele>
        <time>2019-08-22T16:58:42.183Z</time>
      </trkpt>
      <trkpt lat="42.541758" lon="1.469690">
        <ele>1655.886779</ele>
        <time>2019-08-22T16:58:44.309Z</time>
      </trkpt>
      <trkpt lat="42.542273" lon="1.470407">
        <ele>1644.940800</ele>
        <time>2019-08-22T16:58:50.439Z</time>
      </trkpt>
      <trkpt lat="42.542715" lon="1.470807">
        <ele>1637.914260</ele>
        <time>2019-08-22T16:58:54.879Z</time>
      </trkpt>
      <trkpt lat="42.543050" lon="1.471209">
        <ele>1633.504846</ele>
        <time>2019-08-22T16:58:58.661Z</time>
      </trkpt>
      <trkpt lat="42.543346" lon="1.471597">
        <ele>1629.447004</ele>
        <time>2019-08-22T16:59:02.200Z</time>
      </trkpt>
      <trkpt lat="42.543506" lon="1.471992">
        <ele>1626.172111</ele>
        <time>2019-08-22T16:59:05.100Z</time>
      </trkpt>
      <trkpt lat="42.543762" lon="1.472363">
        <ele>1622.479164</ele>
        <time>2019-08-22T16:59:08.477Z</time>
      </trkpt>
      <trkpt lat="42.543830" lon="1.472346">
        <ele>1621.828229</ele>
        <time>2019-08-22T16:59:09.127Z</time>
      </trkpt>
      <trkpt lat="42.544007" lon="1.471878">
        <ele>1619.567763</ele>
        <time>2019-08-22T16:59:12.816Z</time>
      </trkpt>
      <trkpt lat="42.544402" lon="1.470617">
        <ele>1613.679905</ele>
        <time>2019-08-22T16:59:22.553Z</time>
      </trkpt>
      <trkpt lat="42.544494" lon="1.470594">
        <ele>1613.134312</ele>
        <time>2019-08-22T16:59:23.398Z</time>
      </trkpt>
      <trkpt lat="42.544524" lon="1.470708">
        <ele>1612.614152</ele>
        <time>2019-08-22T16:59:24.205Z</time>
      </trkpt>
      <trkpt lat="42.544342" lon="1.471361">
        <ele>1607.884374</ele>
        <time>2019-08-22T16:59:28.763Z</time>
      </trkpt>
      <trkpt lat="42.544326" lon="1.472532">
        <ele>1597.929619</ele>
        <time>2019-08-22T16:59:36.109Z</time>
      </trkpt>
      <trkpt lat="42.544454" lon="1.473398">
        <ele>1590.404199</ele>
        <time>2019-08-22T16:59:41.564Z</time>
      </trkpt>
      <trkpt lat="42.544793" lon="1.474196">
        <ele>1581.901109</ele>
        <time>2019-08-22T16:59:47.211Z</time>
      </trkpt>
      <trkpt lat="42.544822" lon="1.474292">
        <ele>1580.943344</ele>
        <time>2019-08-22T16:59:47.838Z</time>
      </trkpt>
      <trkpt lat="42.544873" lon="1.474489">
        <ele>1579.015859</ele>
        <time>2019-08-22T16:59:49.150Z</time>
      </trkpt>
      <trkpt lat="42.544863" lon="1.474716">
        <ele>1576.916705</ele>
        <time>2019-08-22T16:59:50.570Z</time>
      </trkpt>
      <trkpt lat="42.544618" lon="1.475089">
        <ele>1572.303900</ele>
        <time>2019-08-22T16:59:53.700Z</time>
      </trkpt>
      <trkpt lat="42.544562" lon="1.475252">
        <ele>1570.643707</ele>
        <time>2019-08-22T16:59:54.848Z</time>
      </trkpt>
      <trkpt lat="42.544593" lon="1.475358">
        <ele>1569.590958</ele>
        <time>2019-08-22T16:59:55.595Z</time>
      </trkpt>
      <trkpt lat="42.544645" lon="1.475453">
        <ele>1568.498485</ele>
        <time>2019-08-22T16:59:56.397Z</time>
      </trkpt>
      <trkpt lat="42.544711" lon="1.475575">
        <ele>1567.629182</ele>
        <time>2019-08-22T16:59:57.341Z</time>
      </trkpt>
      <trkpt lat="42.544729" lon="1.475609">
        <ele>1567.447592</ele>
        <time>2019-08-22T16:59:57.941Z</time>
      </trkpt>
      <trkpt lat="42.544762" lon="1.475738">
        <ele>1566.855321</ele>
        <time>2019-08-22T16:59:58.828Z</time>
      </trkpt>
      <trkpt lat="42.544793" lon="1.475861">
        <ele>1566.291490</ele>
        <time>2019-08-22T16:59:59.650Z</time>
      </trkpt>
      <trkpt lat="42.544843" lon="1.475944">
        <ele>1565.826480</ele>
        <time>2019-08-22T17:00:00.330Z</time>
      </trkpt>
      <trkpt lat="42.544873" lon="1.475944">
        <ele>1565.649870</ele>
        <time>2019-08-22T17:00:00.579Z</time>
      </trkpt>
      <trkpt lat="42.544919" lon="1.475944">
        <ele>1565.379069</ele>
        <time>2019-08-22T17:00:01.894Z</time>
      </trkpt>
      <trkpt lat="42.545071" lon="1.475663">
        <ele>1563.867090</ele>
        <time>2019-08-22T17:00:04.202Z</time>
      </trkpt>
      <trkpt lat="42.545299" lon="1.474736">
        <ele>1559.628372</ele>
        <time>2019-08-22T17:00:11.043Z</time>
      </trkpt>
      <trkpt lat="42.545393" lon="1.474696">
        <ele>1559.048438</ele>
        <time>2019-08-22T17:00:12.849Z</time>
      </trkpt>
      <trkpt lat="42.545473" lon="1.474701">
        <ele>1558.576980</ele>
        <time>2019-08-22T17:00:13.651Z</time>
      </trkpt>
      <trkpt lat="42.545497" lon="1.474720">
        <ele>1558.413416</ele>
        <time>2019-08-22T17:00:13.920Z</time>
      </trkpt>
      <trkpt lat="42.545565" lon="1.474804">
        <ele>1557.872137</ele>
        <time>2019-08-22T17:00:14.723Z</time>
      </trkpt>
      <trkpt lat="42.545535" lon="1.476347">
        <ele>1553.486647</ele>
        <time>2019-08-22T17:00:26.364Z</time>
      </trkpt>
      <trkpt lat="42.545436" lon="1.476886">
        <ele>1551.956110</ele>
        <time>2019-08-22T17:00:30.287Z</time>
      </trkpt>
      <trkpt lat="42.545162" lon="1.477365">
        <ele>1550.214411</ele>
        <time>2019-08-22T17:00:34.618Z</time>
      </trkpt>
      <trkpt lat="42.544129" lon="1.478634">
        <ele>1544.260806</ele>
        <time>2019-08-22T17:00:48.179Z</time>
      </trkpt>
      <trkpt lat="42.543901" lon="1.478999">
        <ele>1542.622779</ele>
        <time>2019-08-22T17:00:51.553Z</time>
      </trkpt>
      <trkpt lat="42.543673" lon="1.479531">
        <ele>1539.939774</ele>
        <time>2019-08-22T17:00:55.859Z</time>
      </trkpt>
      <trkpt lat="42.543641" lon="1.479752">
        <ele>1538.957927</ele>
        <time>2019-08-22T17:00:57.437Z</time>
      </trkpt>
      <trkpt lat="42.543699" lon="1.480155">
        <ele>1537.167902</ele>
        <time>2019-08-22T17:01:00.310Z</time>
      </trkpt>
      <trkpt lat="42.543675" lon="1.480591">
        <ele>1535.261926</ele>
        <time>2019-08-22T17:01:03.323Z</time>
      </trkpt>
      <trkpt lat="42.543767" lon="1.480970">
        <ele>1533.522366</ele>
        <time>2019-08-22T17:01:05.924Z</time>
      </trkpt>
      <trkpt lat="42.543962" lon="1.481237">
        <ele>1531.432319</ele>
        <time>2019-08-22T17:01:08.392Z</time>
      </trkpt>
      <trkpt lat="42.544553" lon="1.481853">
        <ele>1523.534904</ele>
        <time>2019-08-22T17:01:14.830Z</time>
      </trkpt>
      <trkpt lat="42.544801" lon="1.482170">
        <ele>1519.924454</ele>
        <time>2019-08-22T17:01:17.749Z</time>
      </trkpt>
      <trkpt lat="42.544877" lon="1.482267">
        <ele>1518.818805</ele>
        <time>2019-08-22T17:01:18.608Z</time>
      </trkpt>
      <trkpt lat="42.545200" lon="1.482667">
        <ele>1514.184801</ele>
        <time>2019-08-22T17:01:22.319Z</time>
      </trkpt>
      <trkpt lat="42.545470" lon="1.483323">
        <ele>1507.721731</ele>
        <time>2019-08-22T17:01:26.985Z</time>
      </trkpt>
      <trkpt lat="42.545781" lon="1.483807">
        <ele>1502.118293</ele>
        <time>2019-08-22T17:01:30.934Z</time>
      </trkpt>
      <trkpt lat="42.546237" lon="1.484331">
        <ele>1495.042568</ele>
        <time>2019-08-22T17:01:36.047Z</time>
      </trkpt>
      <trkpt lat="42.546760" lon="1.484770">
        <ele>1489.225176</ele>
        <time>2019-08-22T17:01:41.363Z</time>
      </trkpt>
      <trkpt lat="42.547160" lon="1.485474">
        <ele>1484.092970</ele>
        <time>2019-08-22T17:01:47.119Z</time>
      </trkpt>
      <trkpt lat="42.547258" lon="1.485528">
        <ele>1483.264216</ele>
        <time>2019-08-22T17:01:48.059Z</time>
      </trkpt>
      <trkpt lat="42.548072" lon="1.484382">
        <ele>1474.543243</ele>
        <time>2019-08-22T17:01:58.831Z</time>
      </trkpt>
      <trkpt lat="42.548167" lon="1.484311">
        <ele>1473.794992</ele>
        <time>2019-08-22T17:01:59.826Z</time>
      </trkpt>
      <trkpt lat="42.548293" lon="1.484338">
        <ele>1472.914873</ele>
        <time>2019-08-22T17:02:00.982Z</time>
      </trkpt>
      <trkpt lat="42.548305" lon="1.484487">
        <ele>1472.152993</ele>
        <time>2019-08-22T17:02:01.977Z</time>
      </trkpt>
      <trkpt lat="42.548250" lon="1.484641">
        <ele>1471.283076</ele>
        <time>2019-08-22T17:02:03.120Z</time>
      </trkpt>
      <trkpt lat="42.548095" lon="1.484896">
        <ele>1469.602671</ele>
        <time>2019-08-22T17:02:05.292Z</time>
      </trkpt>
      <trkpt lat="42.547839" lon="1.485519">
        <ele>1465.976652</ele>
        <time>2019-08-22T17:02:09.960Z</time>
      </trkpt>
      <trkpt lat="42.547797" lon="1.485967">
        <ele>1463.543402</ele>
        <time>2019-08-22T17:02:12.914Z</time>
      </trkpt>
      <trkpt lat="42.547814" lon="1.486441">
        <ele>1460.956876</ele>
        <time>2019-08-22T17:02:16.041Z</time>
      </trkpt>
      <trkpt lat="42.547985" lon="1.486950">
        <ele>1457.907815</ele>
        <time>2019-08-22T17:02:19.739Z</time>
      </trkpt>
      <trkpt lat="42.548079" lon="1.487159">
        <ele>1456.573193</ele>
        <time>2019-08-22T17:02:21.354Z</time>
      </trkpt>
      <trkpt lat="42.548397" lon="1.487339">
        <ele>1454.024208</ele>
        <time>2019-08-22T17:02:24.444Z</time>
      </trkpt>
      <trkpt lat="42.548786" lon="1.487440">
        <ele>1451.087077</ele>
        <time>2019-08-22T17:02:27.973Z</time>
      </trkpt>
      <trkpt lat="42.549181" lon="1.487330">
        <ele>1448.086162</ele>
        <time>2019-08-22T17:02:31.549Z</time>
      </trkpt>
      <trkpt lat="42.549535" lon="1.487373">
        <ele>1445.441079</ele>
        <time>2019-08-22T17:02:34.738Z</time>
      </trkpt>
      <trkpt lat="42.549803" lon="1.487678">
        <ele>1442.838314</ele>
        <time>2019-08-22T17:02:37.890Z</time>
      </trkpt>
      <trkpt lat="42.549937" lon="1.487885">
        <ele>1441.327508</ele>
        <time>2019-08-22T17:02:39.718Z</time>
      </trkpt>
      <trkpt lat="42.550200" lon="1.487983">
        <ele>1439.297791</ele>
        <time>2019-08-22T17:02:42.121Z</time>
      </trkpt>
      <trkpt lat="42.550798" lon="1.487647">
        <ele>1433.664309</ele>
        <time>2019-08-22T17:02:47.813Z</time>
      </trkpt>
      <trkpt lat="42.551848" lon="1.487312">
        <ele>1424.151068</ele>
        <time>2019-08-22T17:02:57.115Z</time>
      </trkpt>
      <trkpt lat="42.552464" lon="1.486909">
        <ele>1419.925435</ele>
        <time>2019-08-22T17:03:03.176Z</time>
      </trkpt>
      <trkpt lat="42.552600" lon="1.486853">
        <ele>1419.132882</ele>
        <time>2019-08-22T17:03:04.417Z</time>
      </trkpt>
      <trkpt lat="42.552788" lon="1.486889">
        <ele>1418.074085</ele>
        <time>2019-08-22T17:03:06.252Z</time>
      </trkpt>
      <trkpt lat="42.552833" lon="1.486951">
        <ele>1417.716525</ele>
        <time>2019-08-22T17:03:06.791Z</time>
      </trkpt>
      <trkpt lat="42.552911" lon="1.487059">
        <ele>1417.095192</ele>
        <time>2019-08-22T17:03:07.830Z</time>
      </trkpt>
      <trkpt lat="42.553119" lon="1.487345">
        <ele>1415.444162</ele>
        <time>2019-08-22T17:03:10.753Z</time>
      </trkpt>
      <trkpt lat="42.553139" lon="1.487377">
        <ele>1415.271764</ele>
        <time>2019-08-22T17:03:11.067Z</time>
      </trkpt>
      <trkpt lat="42.553261" lon="1.487569">
        <ele>1414.230126</ele>
        <time>2019-08-22T17:03:13.208Z</time>
      </trkpt>
      <trkpt lat="42.553437" lon="1.487827">
        <ele>1412.990289</ele>
        <time>2019-08-22T17:03:15.887Z</time>
      </trkpt>
      <trkpt lat="42.553528" lon="1.488148">
        <ele>1412.929720</ele>
        <time>2019-08-22T17:03:18.684Z</time>
      </trkpt>
      <trkpt lat="42.553540" lon="1.488870">
        <ele>1412.802544</ele>
        <time>2019-08-22T17:03:25.440Z</time>
      </trkpt>
      <trkpt lat="42.553541" lon="1.488978">
        <ele>1412.783524</ele>
        <time>2019-08-22T17:03:27.371Z</time>
      </trkpt>
      <trkpt lat="42.553547" lon="1.489178">
        <ele>1412.748275</ele>
        <time>2019-08-22T17:03:30.918Z</time>
      </trkpt>
      <trkpt lat="42.553630" lon="1.489702">
        <ele>1412.653890</ele>
        <time>2019-08-22T17:03:38.996Z</time>
      </trkpt>
      <trkpt lat="42.553783" lon="1.490074">
        <ele>1412.578862</ele>
        <time>2019-08-22T17:03:45.148Z</time>
      </trkpt>
      <trkpt lat="42.554727" lon="1.490655">
        <ele>1410.172667</ele>
        <time>2019-08-22T17:03:57.654Z</time>
      </trkpt>
      <trkpt lat="42.555121" lon="1.491087">
        <ele>1408.955426</ele>
        <time>2019-08-22T17:04:02.599Z</time>
      </trkpt>
      <trkpt lat="42.555725" lon="1.491591">
        <ele>1406.022223</ele>
        <time>2019-08-22T17:04:09.274Z</time>
      </trkpt>
      <trkpt lat="42.556349" lon="1.492373">
        <ele>1401.459937</ele>
        <time>2019-08-22T17:04:17.091Z</time>
      </trkpt>
      <trkpt lat="42.557114" lon="1.492858">
        <ele>1397.420039</ele>
        <time>2019-08-22T17:04:24.948Z</time>
      </trkpt>
      <trkpt lat="42.557548" lon="1.493276">
        <ele>1395.415558</ele>
        <time>2019-08-22T17:04:30.136Z</time>
      </trkpt>
      <trkpt lat="42.558196" lon="1.493553">
        <ele>1392.856443</ele>
        <time>2019-08-22T17:04:37.005Z</time>
      </trkpt>
      <trkpt lat="42.558715" lon="1.493922">
        <ele>1390.430520</ele>
        <time>2019-08-22T17:04:43.201Z</time>
      </trkpt>
      <trkpt lat="42.559086" lon="1.494112">
        <ele>1388.654580</ele>
        <time>2019-08-22T17:04:47.481Z</time>
      </trkpt>
      <trkpt lat="42.559565" lon="1.494225">
        <ele>1386.477073</ele>
        <time>2019-08-22T17:04:52.692Z</time>
      </trkpt>
      <trkpt lat="42.559929" lon="1.494636">
        <ele>1384.356632</ele>
        <time>2019-08-22T17:04:56.960Z</time>
      </trkpt>
      <trkpt lat="42.560540" lon="1.495476">
        <ele>1375.472694</ele>
        <time>2019-08-22T17:05:04.475Z</time>
      </trkpt>
      <trkpt lat="42.560638" lon="1.495615">
        <ele>1373.875469</ele>
        <time>2019-08-22T17:05:05.654Z</time>
      </trkpt>
      <trkpt lat="42.560715" lon="1.495754">
        <ele>1372.431736</ele>
        <time>2019-08-22T17:05:06.718Z</time>
      </trkpt>
      <trkpt lat="42.561352" lon="1.496551">
        <ele>1362.744054</ele>
        <time>2019-08-22T17:05:14.065Z</time>
      </trkpt>
      <trkpt lat="42.561392" lon="1.496628">
        <ele>1362.033857</ele>
        <time>2019-08-22T17:05:14.632Z</time>
      </trkpt>
      <trkpt lat="42.561404" lon="1.496662">
        <ele>1361.749687</ele>
        <time>2019-08-22T17:05:14.872Z</time>
      </trkpt>
      <trkpt lat="42.561422" lon="1.496690">
        <ele>1361.469566</ele>
        <time>2019-08-22T17:05:15.105Z</time>
      </trkpt>
      <trkpt lat="42.561454" lon="1.496782">
        <ele>1360.702704</ele>
        <time>2019-08-22T17:05:15.726Z</time>
      </trkpt>
      <trkpt lat="42.561484" lon="1.496950">
        <ele>1359.399759</ele>
        <time>2019-08-22T17:05:16.883Z</time>
      </trkpt>
      <trkpt lat="42.561464" lon="1.497375">
        <ele>1356.189886</ele>
        <time>2019-08-22T17:05:19.526Z</time>
      </trkpt>
      <trkpt lat="42.561469" lon="1.497521">
        <ele>1355.088255</ele>
        <time>2019-08-22T17:05:20.446Z</time>
      </trkpt>
      <trkpt lat="42.561468" lon="1.497580">
        <ele>1354.643438</ele>
        <time>2019-08-22T17:05:20.802Z</time>
      </trkpt>
      <trkpt lat="42.561547" lon="1.498424">
        <ele>1348.230820</ele>
        <time>2019-08-22T17:05:26.407Z</time>
      </trkpt>
      <trkpt lat="42.561597" lon="1.498729">
        <ele>1345.875703</ele>
        <time>2019-08-22T17:05:28.336Z</time>
      </trkpt>
      <trkpt lat="42.561618" lon="1.498869">
        <ele>1344.866109</ele>
        <time>2019-08-22T17:05:29.341Z</time>
      </trkpt>
      <trkpt lat="42.561730" lon="1.499705">
        <ele>1340.014518</ele>
        <time>2019-08-22T17:05:35.024Z</time>
      </trkpt>
      <trkpt lat="42.561740" lon="1.499844">
        <ele>1339.217100</ele>
        <time>2019-08-22T17:05:35.992Z</time>
      </trkpt>
      <trkpt lat="42.561742" lon="1.499937">
        <ele>1338.685876</ele>
        <time>2019-08-22T17:05:36.642Z</time>
      </trkpt>
      <trkpt lat="42.561741" lon="1.500003">
        <ele>1338.308959</ele>
        <time>2019-08-22T17:05:37.056Z</time>
      </trkpt>
      <trkpt lat="42.561678" lon="1.500412">
        <ele>1335.923190</ele>
        <time>2019-08-22T17:05:39.848Z</time>
      </trkpt>
      <trkpt lat="42.561651" lon="1.500510">
        <ele>1335.325780</ele>
        <time>2019-08-22T17:05:40.513Z</time>
      </trkpt>
      <trkpt lat="42.561613" lon="1.500618">
        <ele>1334.642390</ele>
        <time>2019-08-22T17:05:41.273Z</time>
      </trkpt>
      <trkpt lat="42.561406" lon="1.501115">
        <ele>1331.382411</ele>
        <time>2019-08-22T17:05:44.973Z</time>
      </trkpt>
      <trkpt lat="42.561370" lon="1.501325">
        <ele>1330.169174</ele>
        <time>2019-08-22T17:05:46.381Z</time>
      </trkpt>
      <trkpt lat="42.561383" lon="1.501817">
        <ele>1327.409277</ele>
        <time>2019-08-22T17:05:49.533Z</time>
      </trkpt>
      <trkpt lat="42.561242" lon="1.502167">
        <ele>1325.172889</ele>
        <time>2019-08-22T17:05:52.115Z</time>
      </trkpt>
      <trkpt lat="42.560679" lon="1.502472">
        <ele>1320.559334</ele>
        <time>2019-08-22T17:05:57.513Z</time>
      </trkpt>
      <trkpt lat="42.560124" lon="1.503136">
        <ele>1315.595869</ele>
        <time>2019-08-22T17:06:04.292Z</time>
      </trkpt>
      <trkpt lat="42.559411" lon="1.503786">
        <ele>1310.792402</ele>
        <time>2019-08-22T17:06:12.270Z</time>
      </trkpt>
      <trkpt lat="42.558823" lon="1.504560">
        <ele>1306.312693</ele>
        <time>2019-08-22T17:06:19.959Z</time>
      </trkpt>
      <trkpt lat="42.558630" lon="1.504747">
        <ele>1305.100801</ele>
        <time>2019-08-22T17:06:22.191Z</time>
      </trkpt>
      <trkpt lat="42.558484" lon="1.504793">
        <ele>1304.334753</ele>
        <time>2019-08-22T17:06:23.588Z</time>
      </trkpt>
      <trkpt lat="42.557432" lon="1.504810">
        <ele>1298.957524</ele>
        <time>2019-08-22T17:06:33.455Z</time>
      </trkpt>
      <trkpt lat="42.556954" lon="1.505108">
        <ele>1296.248395</ele>
        <time>2019-08-22T17:06:38.421Z</time>
      </trkpt>
      <trkpt lat="42.556282" lon="1.505782">
        <ele>1291.931966</ele>
        <time>2019-08-22T17:06:46.336Z</time>
      </trkpt>
      <trkpt lat="42.555229" lon="1.506511">
        <ele>1285.353191</ele>
        <time>2019-08-22T17:06:57.294Z</time>
      </trkpt>
      <trkpt lat="42.555096" lon="1.506564">
        <ele>1284.527075</ele>
        <time>2019-08-22T17:06:58.602Z</time>
      </trkpt>
      <trkpt lat="42.554707" lon="1.506575">
        <ele>1282.208158</ele>
        <time>2019-08-22T17:07:02.062Z</time>
      </trkpt>
      <trkpt lat="42.554014" lon="1.506766">
        <ele>1278.004206</ele>
        <time>2019-08-22T17:07:08.653Z</time>
      </trkpt>
      <trkpt lat="42.554006" lon="1.506770">
        <ele>1277.956286</ele>
        <time>2019-08-22T17:07:08.730Z</time>
      </trkpt>
      <trkpt lat="42.553822" lon="1.506915">
        <ele>1276.760420</ele>
        <time>2019-08-22T17:07:10.765Z</time>
      </trkpt>
      <trkpt lat="42.552603" lon="1.508210">
        <ele>1268.062389</ele>
        <time>2019-08-22T17:07:25.019Z</time>
      </trkpt>
      <trkpt lat="42.552476" lon="1.508340">
        <ele>1267.409784</ele>
        <time>2019-08-22T17:07:26.675Z</time>
      </trkpt>
      <trkpt lat="42.552319" lon="1.508531">
        <ele>1266.544805</ele>
        <time>2019-08-22T17:07:28.657Z</time>
      </trkpt>
      <trkpt lat="42.551857" lon="1.509088">
        <ele>1264.009608</ele>
        <time>2019-08-22T17:07:34.764Z</time>
      </trkpt>
      <trkpt lat="42.551787" lon="1.509177">
        <ele>1263.616104</ele>
        <time>2019-08-22T17:07:35.634Z</time>
      </trkpt>
      <trkpt lat="42.551599" lon="1.509468">
        <ele>1262.446252</ele>
        <time>2019-08-22T17:07:38.471Z</time>
      </trkpt>
      <trkpt lat="42.550647" lon="1.510812">
        <ele>1258.276771</ele>
        <time>2019-08-22T17:07:52.172Z</time>
      </trkpt>
      <trkpt lat="42.550277" lon="1.511270">
        <ele>1256.998795</ele>
        <time>2019-08-22T17:07:58.122Z</time>
      </trkpt>
      <trkpt lat="42.549990" lon="1.511531">
        <ele>1256.117132</ele>
        <time>2019-08-22T17:08:02.249Z</time>
      </trkpt>
      <trkpt lat="42.549979" lon="1.511532">
        <ele>1256.087006</ele>
        <time>2019-08-22T17:08:02.360Z</time>
      </trkpt>
      <trkpt lat="42.549969" lon="1.511534">
        <ele>1256.056080</ele>
        <time>2019-08-22T17:08:02.491Z</time>
      </trkpt>
      <trkpt lat="42.549937" lon="1.511568">
        <ele>1255.931746</ele>
        <time>2019-08-22T17:08:03.046Z</time>
      </trkpt>
      <trkpt lat="42.549933" lon="1.511581">
        <ele>1255.899991</ele>
        <time>2019-08-22T17:08:03.208Z</time>
      </trkpt>
      <trkpt lat="42.549763" lon="1.511741">
        <ele>1255.267064</ele>
        <time>2019-08-22T17:08:05.513Z</time>
      </trkpt>
      <trkpt lat="42.549547" lon="1.511939">
        <ele>1254.469613</ele>
        <time>2019-08-22T17:08:08.489Z</time>
      </trkpt>
      <trkpt lat="42.549382" lon="1.512136">
        <ele>1253.797284</ele>
        <time>2019-08-22T17:08:10.648Z</time>
      </trkpt>
      <trkpt lat="42.549188" lon="1.512339">
        <ele>1253.047831</ele>
        <time>2019-08-22T17:08:13.035Z</time>
      </trkpt>
      <trkpt lat="42.548951" lon="1.512574">
        <ele>1252.149844</ele>
        <time>2019-08-22T17:08:15.997Z</time>
      </trkpt>
      <trkpt lat="42.548922" lon="1.512603">
        <ele>1252.039638</ele>
        <time>2019-08-22T17:08:16.311Z</time>
      </trkpt>
      <trkpt lat="42.548705" lon="1.512806">
        <ele>1251.233304</ele>
        <time>2019-08-22T17:08:19.044Z</time>
      </trkpt>
      <trkpt lat="42.548478" lon="1.513010">
        <ele>1250.397096</ele>
        <time>2019-08-22T17:08:21.661Z</time>
      </trkpt>
      <trkpt lat="42.548096" lon="1.513248">
        <ele>1249.089664</ele>
        <time>2019-08-22T17:08:25.821Z</time>
      </trkpt>
      <trkpt lat="42.548084" lon="1.513254">
        <ele>1249.049885</ele>
        <time>2019-08-22T17:08:25.951Z</time>
      </trkpt>
      <trkpt lat="42.548048" lon="1.513310">
        <ele>1248.879567</ele>
        <time>2019-08-22T17:08:26.474Z</time>
      </trkpt>
      <trkpt lat="42.548044" lon="1.513328">
        <ele>1248.836483</ele>
        <time>2019-08-22T17:08:26.604Z</time>
      </trkpt>
      <trkpt lat="42.547902" lon="1.513371">
        <ele>1248.383922</ele>
        <time>2019-08-22T17:08:27.981Z</time>
      </trkpt>
      <trkpt lat="42.547741" lon="1.513378">
        <ele>1247.882862</ele>
        <time>2019-08-22T17:08:29.864Z</time>
      </trkpt>
      <trkpt lat="42.547701" lon="1.513377">
        <ele>1247.758418</ele>
        <time>2019-08-22T17:08:30.232Z</time>
      </trkpt>
      <trkpt lat="42.547610" lon="1.513357">
        <ele>1247.471668</ele>
        <time>2019-08-22T17:08:31.065Z</time>
      </trkpt>
      <trkpt lat="42.547533" lon="1.513361">
        <ele>1247.231978</ele>
        <time>2019-08-22T17:08:31.834Z</time>
      </trkpt>
      <trkpt lat="42.547361" lon="1.513425">
        <ele>1246.677220</ele>
        <time>2019-08-22T17:08:33.737Z</time>
      </trkpt>
      <trkpt lat="42.547309" lon="1.513452">
        <ele>1246.504040</ele>
        <time>2019-08-22T17:08:34.269Z</time>
      </trkpt>
      <trkpt lat="42.546934" lon="1.513701">
        <ele>1245.205483</ele>
        <time>2019-08-22T17:08:38.419Z</time>
      </trkpt>
      <trkpt lat="42.546910" lon="1.513728">
        <ele>1245.108521</ele>
        <time>2019-08-22T17:08:38.723Z</time>
      </trkpt>
      <trkpt lat="42.546621" lon="1.513917">
        <ele>1246.053070</ele>
        <time>2019-08-22T17:08:43.269Z</time>
      </trkpt>
      <trkpt lat="42.546531" lon="1.513960">
        <ele>1246.403741</ele>
        <time>2019-08-22T17:08:44.586Z</time>
      </trkpt>
      <trkpt lat="42.546448" lon="1.513994">
        <ele>1246.722380</ele>
        <time>2019-08-22T17:08:46.804Z</time>
      </trkpt>
      <trkpt lat="42.546425" lon="1.513997">
        <ele>1246.807302</ele>
        <time>2019-08-22T17:08:47.582Z</time>
      </trkpt>
      <trkpt lat="42.546006" lon="1.514117">
        <ele>1248.381161</ele>
        <time>2019-08-22T17:08:59.960Z</time>
      </trkpt>
      <trkpt lat="42.545952" lon="1.514178">
        <ele>1248.639367</ele>
        <time>2019-08-22T17:09:03.245Z</time>
      </trkpt>
      <trkpt lat="42.545937" lon="1.514198">
        <ele>1248.716646</ele>
        <time>2019-08-22T17:09:03.709Z</time>
      </trkpt>
      <trkpt lat="42.545917" lon="1.514249">
        <ele>1248.873085</ele>
        <time>2019-08-22T17:09:05.727Z</time>
      </trkpt>
      <trkpt lat="42.545882" lon="1.514333">
        <ele>1249.134390</ele>
        <time>2019-08-22T17:09:09.066Z</time>
      </trkpt>
      <trkpt lat="42.545856" lon="1.514391">
        <ele>1249.318226</ele>
        <time>2019-08-22T17:09:11.293Z</time>
      </trkpt>
      <trkpt lat="42.545769" lon="1.514549">
        <ele>1249.852335</ele>
        <time>2019-08-22T17:09:17.083Z</time>
      </trkpt>
      <trkpt lat="42.545689" lon="1.514684">
        <ele>1250.321455</ele>
        <time>2019-08-22T17:09:22.170Z</time>
      </trkpt>
      <trkpt lat="42.545563" lon="1.514504">
        <ele>1250.993767</ele>
        <time>2019-08-22T17:09:29.506Z</time>
      </trkpt>
      <trkpt lat="42.545478" lon="1.514361">
        <ele>1251.491285</ele>
        <time>2019-08-22T17:09:35.448Z</time>
      </trkpt>
      <trkpt lat="42.545329" lon="1.513961">
        <ele>1251.611608</ele>
        <time>2019-08-22T17:09:48.373Z</time>
      </trkpt>
      <trkpt lat="42.545299" lon="1.513860">
        <ele>1251.611608</ele>
        <time>2019-08-22T17:09:52.235Z</time>
      </trkpt>
      <trkpt lat="42.545238" lon="1.513628">
        <ele>1251.611608</ele>
        <time>2019-08-22T17:09:58.192Z</time>
      </trkpt>
      <trkpt lat="42.545202" lon="1.513603">
        <ele>1251.611608</ele>
        <time>2019-08-22T17:10:00.360Z</time>
      </trkpt>
      <trkpt lat="42.545167" lon="1.513449">
        <ele>1251.611608</ele>
        <time>2019-08-22T17:10:16.413Z</time>
      </trkpt>
      <trkpt lat="42.545161" lon="1.513399">
        <ele>1251.611608</ele>
        <time>2019-08-22T17:10:21.789Z</time>
      </trkpt>
      <trkpt lat="42.545207" lon="1.513326">
        <ele>1251.611608</ele>
        <time>2019-08-22T17:10:26.750Z</time>
      </trkpt>
      <trkpt lat="42.545181" lon="1.513193">
        <ele>1251.611608</ele>
        <time>2019-08-22T17:10:33.800Z</time>
      </trkpt>
      <trkpt lat="42.545161" lon="1.513399">
        <ele>1248.694321</ele>
        <time>2019-08-22T12:06:42.700Z</time>
      </trkpt>
      <trkpt lat="42.545167" lon="1.513449">
        <ele>1248.694321</ele>
        <time>2019-08-22T12:06:45.972Z</time>
      </trkpt>
      <trkpt lat="42.545202" lon="1.513603">
        <ele>1248.694321</ele>
        <time>2019-08-22T12:06:56.642Z</time>
      </trkpt>
      <trkpt lat="42.545238" lon="1.513628">
        <ele>1248.694321</ele>
        <time>2019-08-22T12:06:56.989Z</time>
      </trkpt>
      <trkpt lat="42.545299" lon="1.513860">
        <ele>1248.694321</ele>
        <time>2019-08-22T12:06:58.761Z</time>
      </trkpt>
      <trkpt lat="42.545329" lon="1.513961">
        <ele>1248.694321</ele>
        <time>2019-08-22T12:06:59.443Z</time>
      </trkpt>
      <trkpt lat="42.545478" lon="1.514361">
        <ele>1248.694321</ele>
        <time>2019-08-22T12:07:02.471Z</time>
      </trkpt>
      <trkpt lat="42.545563" lon="1.514504">
        <ele>1248.581705</ele>
        <time>2019-08-22T12:07:03.646Z</time>
      </trkpt>
      <trkpt lat="42.545689" lon="1.514684">
        <ele>1247.740131</ele>
        <time>2019-08-22T12:07:05.414Z</time>
      </trkpt>
      <trkpt lat="42.545667" lon="1.514740">
        <ele>1247.525023</ele>
        <time>2019-08-22T12:07:05.816Z</time>
      </trkpt>
      <trkpt lat="42.545644" lon="1.514796">
        <ele>1247.307712</ele>
        <time>2019-08-22T12:07:06.218Z</time>
      </trkpt>
      <trkpt lat="42.545420" lon="1.515095">
        <ele>1245.862347</ele>
        <time>2019-08-22T12:07:09.100Z</time>
      </trkpt>
      <trkpt lat="42.545369" lon="1.515121">
        <ele>1245.611713</ele>
        <time>2019-08-22T12:07:09.565Z</time>
      </trkpt>
      <trkpt lat="42.545289" lon="1.515187">
        <ele>1245.181011</ele>
        <time>2019-08-22T12:07:10.409Z</time>
      </trkpt>
      <trkpt lat="42.544938" lon="1.515373">
        <ele>1243.447495</ele>
        <time>2019-08-22T12:07:13.994Z</time>
      </trkpt>
      <trkpt lat="42.544817" lon="1.515428">
        <ele>1242.860436</ele>
        <time>2019-08-22T12:07:15.353Z</time>
      </trkpt>
      <trkpt lat="42.544664" lon="1.515517">
        <ele>1242.094624</ele>
        <time>2019-08-22T12:07:16.935Z</time>
      </trkpt>
      <trkpt lat="42.544464" lon="1.515654">
        <ele>1241.063966</ele>
        <time>2019-08-22T12:07:19.343Z</time>
      </trkpt>
      <trkpt lat="42.544094" lon="1.516062">
        <ele>1240.478681</ele>
        <time>2019-08-22T12:07:25.308Z</time>
      </trkpt>
      <trkpt lat="42.544030" lon="1.516139">
        <ele>1240.493725</ele>
        <time>2019-08-22T12:07:27.236Z</time>
      </trkpt>
      <trkpt lat="42.543980" lon="1.516166">
        <ele>1240.503190</ele>
        <time>2019-08-22T12:07:28.093Z</time>
      </trkpt>
      <trkpt lat="42.543773" lon="1.516372">
        <ele>1240.548339</ele>
        <time>2019-08-22T12:07:32.605Z</time>
      </trkpt>
      <trkpt lat="42.543750" lon="1.516419">
        <ele>1240.555651</ele>
        <time>2019-08-22T12:07:33.450Z</time>
      </trkpt>
      <trkpt lat="42.543588" lon="1.516614">
        <ele>1240.593737</ele>
        <time>2019-08-22T12:07:36.328Z</time>
      </trkpt>
      <trkpt lat="42.543361" lon="1.516846">
        <ele>1240.643720</ele>
        <time>2019-08-22T12:07:42.150Z</time>
      </trkpt>
      <trkpt lat="42.543051" lon="1.516994">
        <ele>1240.701522</ele>
        <time>2019-08-22T12:07:48.847Z</time>
      </trkpt>
      <trkpt lat="42.543004" lon="1.517013">
        <ele>1240.710148</ele>
        <time>2019-08-22T12:07:49.338Z</time>
      </trkpt>
      <trkpt lat="42.542996" lon="1.517014">
        <ele>1240.711562</ele>
        <time>2019-08-22T12:07:49.464Z</time>
      </trkpt>
      <trkpt lat="42.542988" lon="1.517018">
        <ele>1240.713061</ele>
        <time>2019-08-22T12:07:49.589Z</time>
      </trkpt>
      <trkpt lat="42.542980" lon="1.517023">
        <ele>1240.714610</ele>
        <time>2019-08-22T12:07:49.686Z</time>
      </trkpt>
      <trkpt lat="42.542974" lon="1.517030">
        <ele>1240.716002</ele>
        <time>2019-08-22T12:07:49.787Z</time>
      </trkpt>
      <trkpt lat="42.542869" lon="1.517119">
        <ele>1240.734202</ele>
        <time>2019-08-22T12:07:54.014Z</time>
      </trkpt>
      <trkpt lat="42.541951" lon="1.517611">
        <ele>1240.586609</ele>
        <time>2019-08-22T12:08:14.603Z</time>
      </trkpt>
      <trkpt lat="42.541773" lon="1.517771">
        <ele>1240.554683</ele>
        <time>2019-08-22T12:08:19.702Z</time>
      </trkpt>
      <trkpt lat="42.541204" lon="1.519029">
        <ele>1239.614804</ele>
        <time>2019-08-22T12:08:37.813Z</time>
      </trkpt>
      <trkpt lat="42.540946" lon="1.519365">
        <ele>1239.005970</ele>
        <time>2019-08-22T12:08:43.185Z</time>
      </trkpt>
      <trkpt lat="42.540671" lon="1.519489">
        <ele>1238.512552</ele>
        <time>2019-08-22T12:08:47.570Z</time>
      </trkpt>
      <trkpt lat="42.540474" lon="1.519479">
        <ele>1238.176879</ele>
        <time>2019-08-22T12:08:50.851Z</time>
      </trkpt>
      <trkpt lat="42.539635" lon="1.519186">
        <ele>1237.315338</ele>
        <time>2019-08-22T12:09:05.315Z</time>
      </trkpt>
      <trkpt lat="42.539517" lon="1.519168">
        <ele>1237.289745</ele>
        <time>2019-08-22T12:09:08.103Z</time>
      </trkpt>
      <trkpt lat="42.539507" lon="1.519165">
        <ele>1237.287537</ele>
        <time>2019-08-22T12:09:08.296Z</time>
      </trkpt>
      <trkpt lat="42.539488" lon="1.519165">
        <ele>1237.283442</ele>
        <time>2019-08-22T12:09:08.518Z</time>
      </trkpt>
      <trkpt lat="42.539479" lon="1.519169">
        <ele>1237.281401</ele>
        <time>2019-08-22T12:09:08.697Z</time>
      </trkpt>
      <trkpt lat="42.539471" lon="1.519175">
        <ele>1237.279431</ele>
        <time>2019-08-22T12:09:08.797Z</time>
      </trkpt>
      <trkpt lat="42.539370" lon="1.519210">
        <ele>1237.256963</ele>
        <time>2019-08-22T12:09:10.092Z</time>
      </trkpt>
      <trkpt lat="42.538090" lon="1.519630">
        <ele>1236.275394</ele>
        <time>2019-08-22T12:09:33.442Z</time>
      </trkpt>
      <trkpt lat="42.537247" lon="1.520001">
        <ele>1233.017981</ele>
        <time>2019-08-22T12:09:42.462Z</time>
      </trkpt>
      <trkpt lat="42.537139" lon="1.520029">
        <ele>1232.613833</ele>
        <time>2019-08-22T12:09:43.675Z</time>
      </trkpt>
      <trkpt lat="42.537121" lon="1.520026">
        <ele>1232.547174</ele>
        <time>2019-08-22T12:09:43.881Z</time>
      </trkpt>
      <trkpt lat="42.537091" lon="1.520039">
        <ele>1232.431420</ele>
        <time>2019-08-22T12:09:44.197Z</time>
      </trkpt>
      <trkpt lat="42.537080" lon="1.520053">
        <ele>1232.375990</ele>
        <time>2019-08-22T12:09:44.342Z</time>
      </trkpt>
      <trkpt lat="42.536925" lon="1.520154">
        <ele>1231.743999</ele>
        <time>2019-08-22T12:09:45.859Z</time>
      </trkpt>
      <trkpt lat="42.536308" lon="1.520610">
        <ele>1227.726649</ele>
        <time>2019-08-22T12:09:52.198Z</time>
      </trkpt>
      <trkpt lat="42.535971" lon="1.521085">
        <ele>1223.880271</ele>
        <time>2019-08-22T12:09:56.480Z</time>
      </trkpt>
      <trkpt lat="42.535771" lon="1.521126">
        <ele>1222.279022</ele>
        <time>2019-08-22T12:09:58.219Z</time>
      </trkpt>
      <trkpt lat="42.535615" lon="1.521012">
        <ele>1220.876398</ele>
        <time>2019-08-22T12:09:59.760Z</time>
      </trkpt>
      <trkpt lat="42.534845" lon="1.520105">
        <ele>1212.675327</ele>
        <time>2019-08-22T12:10:08.812Z</time>
      </trkpt>
      <trkpt lat="42.534086" lon="1.519408">
        <ele>1205.140840</ele>
        <time>2019-08-22T12:10:16.896Z</time>
      </trkpt>
      <trkpt lat="42.534003" lon="1.519369">
        <ele>1204.418713</ele>
        <time>2019-08-22T12:10:17.642Z</time>
      </trkpt>
      <trkpt lat="42.533911" lon="1.519342">
        <ele>1203.644854</ele>
        <time>2019-08-22T12:10:18.477Z</time>
      </trkpt>
      <trkpt lat="42.533858" lon="1.519330">
        <ele>1203.203094</ele>
        <time>2019-08-22T12:10:18.931Z</time>
      </trkpt>
      <trkpt lat="42.533796" lon="1.519325">
        <ele>1202.692464</ele>
        <time>2019-08-22T12:10:19.505Z</time>
      </trkpt>
      <trkpt lat="42.533708" lon="1.519330">
        <ele>1201.968341</ele>
        <time>2019-08-22T12:10:20.331Z</time>
      </trkpt>
      <trkpt lat="42.533646" lon="1.519341">
        <ele>1201.454273</ele>
        <time>2019-08-22T12:10:20.849Z</time>
      </trkpt>
      <trkpt lat="42.532878" lon="1.519612">
        <ele>1194.847061</ele>
        <time>2019-08-22T12:10:27.823Z</time>
      </trkpt>
      <trkpt lat="42.532823" lon="1.519581">
        <ele>1194.351114</ele>
        <time>2019-08-22T12:10:28.309Z</time>
      </trkpt>
      <trkpt lat="42.532793" lon="1.519573">
        <ele>1194.096512</ele>
        <time>2019-08-22T12:10:28.595Z</time>
      </trkpt>
      <trkpt lat="42.532763" lon="1.519578">
        <ele>1193.844810</ele>
        <time>2019-08-22T12:10:28.867Z</time>
      </trkpt>
      <trkpt lat="42.532651" lon="1.519624">
        <ele>1192.870351</ele>
        <time>2019-08-22T12:10:29.874Z</time>
      </trkpt>
      <trkpt lat="42.532461" lon="1.519617">
        <ele>1191.287544</ele>
        <time>2019-08-22T12:10:31.490Z</time>
      </trkpt>
      <trkpt lat="42.532073" lon="1.519487">
        <ele>1187.959452</ele>
        <time>2019-08-22T12:10:34.943Z</time>
      </trkpt>
      <trkpt lat="42.532018" lon="1.519473">
        <ele>1187.493452</ele>
        <time>2019-08-22T12:10:35.466Z</time>
      </trkpt>
      <trkpt lat="42.531941" lon="1.519459">
        <ele>1186.846505</ele>
        <time>2019-08-22T12:10:36.198Z</time>
      </trkpt>
      <trkpt lat="42.531652" lon="1.519512">
        <ele>1185.724519</ele>
        <time>2019-08-22T12:10:38.984Z</time>
      </trkpt>
      <trkpt lat="42.531629" lon="1.519517">
        <ele>1185.658353</ele>
        <time>2019-08-22T12:10:39.192Z</time>
      </trkpt>
      <trkpt lat="42.531518" lon="1.519559">
        <ele>1185.331024</ele>
        <time>2019-08-22T12:10:43.724Z</time>
      </trkpt>
      <trkpt lat="42.531385" lon="1.519662">
        <ele>1184.896039</ele>
        <time>2019-08-22T12:10:45.107Z</time>
      </trkpt>
      <trkpt lat="42.531361" lon="1.519676">
        <ele>1184.821833</ele>
        <time>2019-08-22T12:10:45.346Z</time>
      </trkpt>
      <trkpt lat="42.530941" lon="1.519848">
        <ele>1183.575658</ele>
        <time>2019-08-22T12:10:49.632Z</time>
      </trkpt>
      <trkpt lat="42.530886" lon="1.519854">
        <ele>1183.418923</ele>
        <time>2019-08-22T12:10:51.822Z</time>
      </trkpt>
      <trkpt lat="42.530818" lon="1.519858">
        <ele>1183.225584</ele>
        <time>2019-08-22T12:10:52.528Z</time>
      </trkpt>
      <trkpt lat="42.530596" lon="1.519837">
        <ele>1182.593451</ele>
        <time>2019-08-22T12:10:54.471Z</time>
      </trkpt>
      <trkpt lat="42.530519" lon="1.519774">
        <ele>1182.338048</ele>
        <time>2019-08-22T12:10:59.471Z</time>
      </trkpt>
      <trkpt lat="42.530257" lon="1.519728">
        <ele>1181.587619</ele>
        <time>2019-08-22T12:11:01.920Z</time>
      </trkpt>
      <trkpt lat="42.530172" lon="1.519763">
        <ele>1181.335301</ele>
        <time>2019-08-22T12:11:07.872Z</time>
      </trkpt>
      <trkpt lat="42.530102" lon="1.519815">
        <ele>1182.124472</ele>
        <time>2019-08-22T12:11:09.416Z</time>
      </trkpt>
      <trkpt lat="42.529988" lon="1.519965">
        <ele>1184.175342</ele>
        <time>2019-08-22T12:11:10.897Z</time>
      </trkpt>
      <trkpt lat="42.529949" lon="1.520059">
        <ele>1185.202058</ele>
        <time>2019-08-22T12:11:15.796Z</time>
      </trkpt>
      <trkpt lat="42.529915" lon="1.520217">
        <ele>1186.768665</ele>
        <time>2019-08-22T12:11:22.244Z</time>
      </trkpt>
      <trkpt lat="42.529916" lon="1.520382">
        <ele>1188.339145</ele>
        <time>2019-08-22T12:11:23.486Z</time>
      </trkpt>
      <trkpt lat="42.529938" lon="1.520500">
        <ele>1189.497625</ele>
        <time>2019-08-22T12:11:27.471Z</time>
      </trkpt>
      <trkpt lat="42.530035" lon="1.520704">
        <ele>1191.808337</ele>
        <time>2019-08-22T12:11:38.821Z</time>
      </trkpt>
      <trkpt lat="42.530105" lon="1.520781">
        <ele>1192.972149</ele>
        <time>2019-08-22T12:11:40.382Z</time>
      </trkpt>
      <trkpt lat="42.529948" lon="1.521030">
        <ele>1196.091153</ele>
        <time>2019-08-22T12:12:02.962Z</time>
      </trkpt>
      <trkpt lat="42.529447" lon="1.521524">
        <ele>1204.089665</ele>
        <time>2019-08-22T12:12:59.635Z</time>
      </trkpt>
      <trkpt lat="42.529065" lon="1.522019">
        <ele>1222.889248</ele>
        <time>2019-08-22T12:13:56.312Z</time>
      </trkpt>
      <trkpt lat="42.528810" lon="1.522420">
        <ele>1237.380755</ele>
        <time>2019-08-22T12:14:39.483Z</time>
      </trkpt>
      <trkpt lat="42.528187" lon="1.523738">
        <ele>1280.237147</ele>
        <time>2019-08-22T12:16:48.361Z</time>
      </trkpt>
      <trkpt lat="42.525850" lon="1.532094">
        <ele>1516.727004</ele>
        <time>2019-08-22T12:28:49.615Z</time>
      </trkpt>
      <trkpt lat="42.522751" lon="1.544418">
        <ele>1642.168670</ele>
        <time>2019-08-22T12:40:42.353Z</time>
      </trkpt>
      <trkpt lat="42.518545" lon="1.554221">
        <ele>1215.919751</ele>
        <time>2019-08-22T12:41:57.180Z</time>
      </trkpt>
      <trkpt lat="42.518464" lon="1.554373">
        <ele>1209.879287</ele>
        <time>2019-08-22T12:41:58.355Z</time>
      </trkpt>
      <trkpt lat="42.518440" lon="1.554413">
        <ele>1208.218253</ele>
        <time>2019-08-22T12:41:58.666Z</time>
      </trkpt>
      <trkpt lat="42.518373" lon="1.554529">
        <ele>1203.472154</ele>
        <time>2019-08-22T12:41:59.553Z</time>
      </trkpt>
      <trkpt lat="42.518285" lon="1.554680">
        <ele>1198.759420</ele>
        <time>2019-08-22T12:42:00.799Z</time>
      </trkpt>
      <trkpt lat="42.518099" lon="1.555062">
        <ele>1200.926592</ele>
        <time>2019-08-22T12:42:03.855Z</time>
      </trkpt>
      <trkpt lat="42.518068" lon="1.555106">
        <ele>1201.214718</ele>
        <time>2019-08-22T12:42:08.606Z</time>
      </trkpt>
      <trkpt lat="42.518029" lon="1.555087">
        <ele>1201.480844</ele>
        <time>2019-08-22T12:42:10.251Z</time>
      </trkpt>
      <trkpt lat="42.517987" lon="1.555076">
        <ele>1201.755558</ele>
        <time>2019-08-22T12:42:10.643Z</time>
      </trkpt>
      <trkpt lat="42.517898" lon="1.555084">
        <ele>1202.328391</ele>
        <time>2019-08-22T12:42:11.646Z</time>
      </trkpt>
      <trkpt lat="42.517816" lon="1.555134">
        <ele>1202.905757</ele>
        <time>2019-08-22T12:42:14.504Z</time>
      </trkpt>
      <trkpt lat="42.517752" lon="1.555219">
        <ele>1203.480938</ele>
        <time>2019-08-22T12:42:22.885Z</time>
      </trkpt>
      <trkpt lat="42.517737" lon="1.555260">
        <ele>1203.697610</ele>
        <time>2019-08-22T12:42:26.547Z</time>
      </trkpt>
      <trkpt lat="42.517704" lon="1.555419">
        <ele>1204.479527</ele>
        <time>2019-08-22T12:42:30.286Z</time>
      </trkpt>
      <trkpt lat="42.517750" lon="1.555621">
        <ele>1205.480318</ele>
        <time>2019-08-22T12:42:41.170Z</time>
      </trkpt>
      <trkpt lat="42.517951" lon="1.555770">
        <ele>1206.951308</ele>
        <time>2019-08-22T12:43:05.401Z</time>
      </trkpt>
      <trkpt lat="42.518029" lon="1.555757">
        <ele>1207.456009</ele>
        <time>2019-08-22T12:43:12.069Z</time>
      </trkpt>
      <trkpt lat="42.518122" lon="1.555833">
        <ele>1208.153256</ele>
        <time>2019-08-22T12:43:23.690Z</time>
      </trkpt>
      <trkpt lat="42.518218" lon="1.555969">
        <ele>1209.044635</ele>
        <time>2019-08-22T12:43:35.054Z</time>
      </trkpt>
      <trkpt lat="42.518312" lon="1.556124">
        <ele>1209.994776</ele>
        <time>2019-08-22T12:43:43.912Z</time>
      </trkpt>
      <trkpt lat="42.518496" lon="1.556410">
        <ele>1212.591439</ele>
        <time>2019-08-22T12:44:08.464Z</time>
      </trkpt>
      <trkpt lat="42.518710" lon="1.556648">
        <ele>1215.218710</ele>
        <time>2019-08-22T12:44:27.507Z</time>
      </trkpt>
      <trkpt lat="42.518901" lon="1.556775">
        <ele>1217.238272</ele>
        <time>2019-08-22T12:44:38.464Z</time>
      </trkpt>
      <trkpt lat="42.519063" lon="1.556843">
        <ele>1218.848343</ele>
        <time>2019-08-22T12:44:48.451Z</time>
      </trkpt>
      <trkpt lat="42.519272" lon="1.556951">
        <ele>1220.971791</ele>
        <time>2019-08-22T12:44:59.697Z</time>
      </trkpt>
      <trkpt lat="42.519498" lon="1.557085">
        <ele>1223.313546</ele>
        <time>2019-08-22T12:45:10.244Z</time>
      </trkpt>
      <trkpt lat="42.519582" lon="1.557143">
        <ele>1224.208441</ele>
        <time>2019-08-22T12:45:13.008Z</time>
      </trkpt>
      <trkpt lat="42.519616" lon="1.557169">
        <ele>1224.579005</ele>
        <time>2019-08-22T12:45:14.999Z</time>
      </trkpt>
      <trkpt lat="42.519733" lon="1.557249">
        <ele>1225.822981</ele>
        <time>2019-08-22T12:45:21.278Z</time>
      </trkpt>
      <trkpt lat="42.520306" lon="1.557719">
        <ele>1226.816770</ele>
        <time>2019-08-22T12:45:31.122Z</time>
      </trkpt>
      <trkpt lat="42.521319" lon="1.558807">
        <ele>1225.884167</ele>
        <time>2019-08-22T12:45:45.013Z</time>
      </trkpt>
      <trkpt lat="42.521653" lon="1.559231">
        <ele>1225.691377</ele>
        <time>2019-08-22T12:45:50.940Z</time>
      </trkpt>
      <trkpt lat="42.521942" lon="1.559616">
        <ele>1225.520667</ele>
        <time>2019-08-22T12:45:56.358Z</time>
      </trkpt>
      <trkpt lat="42.522094" lon="1.559865">
        <ele>1225.420229</ele>
        <time>2019-08-22T12:46:00.586Z</time>
      </trkpt>
      <trkpt lat="42.522644" lon="1.560765">
        <ele>1225.146963</ele>
        <time>2019-08-22T12:46:12.771Z</time>
      </trkpt>
      <trkpt lat="42.523205" lon="1.561516">
        <ele>1225.204523</ele>
        <time>2019-08-22T12:46:26.089Z</time>
      </trkpt>
      <trkpt lat="42.524377" lon="1.562544">
        <ele>1227.769150</ele>
        <time>2019-08-22T12:46:45.241Z</time>
      </trkpt>
      <trkpt lat="42.524492" lon="1.562705">
        <ele>1228.499122</ele>
        <time>2019-08-22T12:46:49.482Z</time>
      </trkpt>
      <trkpt lat="42.524717" lon="1.563210">
        <ele>1230.420382</ele>
        <time>2019-08-22T12:47:04.510Z</time>
      </trkpt>
      <trkpt lat="42.524886" lon="1.563802">
        <ele>1232.487330</ele>
        <time>2019-08-22T12:47:26.672Z</time>
      </trkpt>
      <trkpt lat="42.524934" lon="1.563941">
        <ele>1232.987094</ele>
        <time>2019-08-22T12:47:33.192Z</time>
      </trkpt>
      <trkpt lat="42.525012" lon="1.564350">
        <ele>1235.536689</ele>
        <time>2019-08-22T12:47:49.174Z</time>
      </trkpt>
      <trkpt lat="42.525039" lon="1.564438">
        <ele>1236.163417</ele>
        <time>2019-08-22T12:47:52.756Z</time>
      </trkpt>
      <trkpt lat="42.525078" lon="1.564489">
        <ele>1236.646632</ele>
        <time>2019-08-22T12:47:55.435Z</time>
      </trkpt>
      <trkpt lat="42.525115" lon="1.564513">
        <ele>1237.012500</ele>
        <time>2019-08-22T12:47:56.943Z</time>
      </trkpt>
      <trkpt lat="42.525155" lon="1.564720">
        <ele>1238.419506</ele>
        <time>2019-08-22T12:48:05.886Z</time>
      </trkpt>
      <trkpt lat="42.525218" lon="1.564897">
        <ele>1239.711874</ele>
        <time>2019-08-22T12:48:14.200Z</time>
      </trkpt>
      <trkpt lat="42.525406" lon="1.565389">
        <ele>1243.355660</ele>
        <time>2019-08-22T12:48:36.724Z</time>
      </trkpt>
      <trkpt lat="42.525921" lon="1.566351">
        <ele>1250.051432</ele>
        <time>2019-08-22T12:49:20.752Z</time>
      </trkpt>
      <trkpt lat="42.526377" lon="1.567012">
        <ele>1252.518984</ele>
        <time>2019-08-22T12:49:41.951Z</time>
      </trkpt>
      <trkpt lat="42.526872" lon="1.567713">
        <ele>1255.164851</ele>
        <time>2019-08-22T12:49:56.215Z</time>
      </trkpt>
      <trkpt lat="42.526979" lon="1.567965">
        <ele>1255.957062</ele>
        <time>2019-08-22T12:50:00.305Z</time>
      </trkpt>
      <trkpt lat="42.527660" lon="1.569087">
        <ele>1259.886043</ele>
        <time>2019-08-22T12:50:25.149Z</time>
      </trkpt>
      <trkpt lat="42.528053" lon="1.569637">
        <ele>1261.956781</ele>
        <time>2019-08-22T12:50:44.355Z</time>
      </trkpt>
      <trkpt lat="42.528869" lon="1.570782">
        <ele>1270.455181</ele>
        <time>2019-08-22T12:51:40.877Z</time>
      </trkpt>
      <trkpt lat="42.528974" lon="1.570929">
        <ele>1271.626199</ele>
        <time>2019-08-22T12:51:50.799Z</time>
      </trkpt>
      <trkpt lat="42.529217" lon="1.571433">
        <ele>1275.071327</ele>
        <time>2019-08-22T12:52:10.175Z</time>
      </trkpt>
      <trkpt lat="42.529205" lon="1.571504">
        <ele>1275.487997</ele>
        <time>2019-08-22T12:52:12.612Z</time>
      </trkpt>
      <trkpt lat="42.529212" lon="1.571577">
        <ele>1275.909083</ele>
        <time>2019-08-22T12:52:14.138Z</time>
      </trkpt>
      <trkpt lat="42.529237" lon="1.571642">
        <ele>1276.328481</ele>
        <time>2019-08-22T12:52:18.042Z</time>
      </trkpt>
      <trkpt lat="42.529249" lon="1.571735">
        <ele>1276.631767</ele>
        <time>2019-08-22T12:52:22.744Z</time>
      </trkpt>
      <trkpt lat="42.529297" lon="1.572058">
        <ele>1277.405531</ele>
        <time>2019-08-22T12:52:29.003Z</time>
      </trkpt>
      <trkpt lat="42.529327" lon="1.572154">
        <ele>1277.650398</ele>
        <time>2019-08-22T12:52:34.720Z</time>
      </trkpt>
      <trkpt lat="42.529386" lon="1.572426">
        <ele>1278.316225</ele>
        <time>2019-08-22T12:52:39.853Z</time>
      </trkpt>
      <trkpt lat="42.529700" lon="1.573014">
        <ele>1280.021433</ele>
        <time>2019-08-22T12:52:57.244Z</time>
      </trkpt>
      <trkpt lat="42.530646" lon="1.573774">
        <ele>1282.627142</ele>
        <time>2019-08-22T12:53:12.310Z</time>
      </trkpt>
      <trkpt lat="42.530905" lon="1.574110">
        <ele>1282.996287</ele>
        <time>2019-08-22T12:53:17.336Z</time>
      </trkpt>
      <trkpt lat="42.531144" lon="1.574549">
        <ele>1283.410658</ele>
        <time>2019-08-22T12:53:24.360Z</time>
      </trkpt>
      <trkpt lat="42.531238" lon="1.574787">
        <ele>1283.615660</ele>
        <time>2019-08-22T12:53:28.752Z</time>
      </trkpt>
      <trkpt lat="42.531343" lon="1.575122">
        <ele>1283.892036</ele>
        <time>2019-08-22T12:53:34.679Z</time>
      </trkpt>
      <trkpt lat="42.531525" lon="1.576012">
        <ele>1287.089415</ele>
        <time>2019-08-22T12:53:53.941Z</time>
      </trkpt>
      <trkpt lat="42.531708" lon="1.577454">
        <ele>1293.317560</ele>
        <time>2019-08-22T12:54:37.424Z</time>
      </trkpt>
      <trkpt lat="42.531717" lon="1.577602">
        <ele>1293.949654</ele>
        <time>2019-08-22T12:54:42.830Z</time>
      </trkpt>
      <trkpt lat="42.531778" lon="1.578604">
        <ele>1302.279396</ele>
        <time>2019-08-22T12:55:20.657Z</time>
      </trkpt>
      <trkpt lat="42.531746" lon="1.579485">
        <ele>1310.047659</ele>
        <time>2019-08-22T12:56:04.605Z</time>
      </trkpt>
      <trkpt lat="42.531741" lon="1.579641">
        <ele>1311.422828</ele>
        <time>2019-08-22T12:56:14.159Z</time>
      </trkpt>
      <trkpt lat="42.531688" lon="1.579661">
        <ele>1312.080275</ele>
        <time>2019-08-22T12:56:19.066Z</time>
      </trkpt>
      <trkpt lat="42.531655" lon="1.579719">
        <ele>1312.725610</ele>
        <time>2019-08-22T12:56:23.278Z</time>
      </trkpt>
      <trkpt lat="42.531684" lon="1.579853">
        <ele>1313.955572</ele>
        <time>2019-08-22T12:56:31.041Z</time>
      </trkpt>
      <trkpt lat="42.531735" lon="1.579878">
        <ele>1314.603629</ele>
        <time>2019-08-22T12:56:35.035Z</time>
      </trkpt>
      <trkpt lat="42.531710" lon="1.580839">
        <ele>1321.920169</ele>
        <time>2019-08-22T12:57:25.270Z</time>
      </trkpt>
      <trkpt lat="42.531676" lon="1.581755">
        <ele>1328.693350</ele>
        <time>2019-08-22T12:58:04.121Z</time>
      </trkpt>
      <trkpt lat="42.531679" lon="1.582228">
        <ele>1332.186557</ele>
        <time>2019-08-22T12:58:20.288Z</time>
      </trkpt>
      <trkpt lat="42.531784" lon="1.582869">
        <ele>1333.851469</ele>
        <time>2019-08-22T12:58:34.777Z</time>
      </trkpt>
      <trkpt lat="42.532108" lon="1.583616">
        <ele>1333.621916</ele>
        <time>2019-08-22T12:58:42.184Z</time>
      </trkpt>
      <trkpt lat="42.532303" lon="1.583904">
        <ele>1333.518338</ele>
        <time>2019-08-22T12:58:45.026Z</time>
      </trkpt>
      <trkpt lat="42.532994" lon="1.584655">
        <ele>1333.581405</ele>
        <time>2019-08-22T12:58:54.664Z</time>
      </trkpt>
      <trkpt lat="42.533170" lon="1.584852">
        <ele>1333.770913</ele>
        <time>2019-08-22T12:58:57.618Z</time>
      </trkpt>
      <trkpt lat="42.533356" lon="1.585145">
        <ele>1334.007631</ele>
        <time>2019-08-22T12:59:01.829Z</time>
      </trkpt>
      <trkpt lat="42.533358" lon="1.585169">
        <ele>1334.022415</ele>
        <time>2019-08-22T12:59:02.566Z</time>
      </trkpt>
      <trkpt lat="42.533351" lon="1.585272">
        <ele>1334.085728</ele>
        <time>2019-08-22T12:59:03.836Z</time>
      </trkpt>
      <trkpt lat="42.533386" lon="1.585384">
        <ele>1334.160193</ele>
        <time>2019-08-22T12:59:05.617Z</time>
      </trkpt>
      <trkpt lat="42.533441" lon="1.585486">
        <ele>1334.237557</ele>
        <time>2019-08-22T12:59:06.970Z</time>
      </trkpt>
      <trkpt lat="42.533587" lon="1.585572">
        <ele>1334.369764</ele>
        <time>2019-08-22T12:59:10.180Z</time>
      </trkpt>
      <trkpt lat="42.533992" lon="1.585967">
        <ele>1334.784048</ele>
        <time>2019-08-22T12:59:23.572Z</time>
      </trkpt>
      <trkpt lat="42.534109" lon="1.586177">
        <ele>1335.468933</ele>
        <time>2019-08-22T12:59:29.265Z</time>
      </trkpt>
      <trkpt lat="42.534237" lon="1.586405">
        <ele>1336.320844</ele>
        <time>2019-08-22T12:59:37.067Z</time>
      </trkpt>
      <trkpt lat="42.534513" lon="1.586994">
        <ele>1338.395412</ele>
        <time>2019-08-22T12:59:54.165Z</time>
      </trkpt>
      <trkpt lat="42.534565" lon="1.587101">
        <ele>1338.776365</ele>
        <time>2019-08-22T12:59:56.759Z</time>
      </trkpt>
      <trkpt lat="42.534617" lon="1.587196">
        <ele>1339.128093</ele>
        <time>2019-08-22T12:59:59.292Z</time>
      </trkpt>
      <trkpt lat="42.534904" lon="1.587666">
        <ele>1340.942300</ele>
        <time>2019-08-22T13:00:12.391Z</time>
      </trkpt>
      <trkpt lat="42.535083" lon="1.587907">
        <ele>1341.959313</ele>
        <time>2019-08-22T13:00:20.360Z</time>
      </trkpt>
      <trkpt lat="42.535185" lon="1.588208">
        <ele>1344.055335</ele>
        <time>2019-08-22T13:00:27.632Z</time>
      </trkpt>
      <trkpt lat="42.535209" lon="1.588248">
        <ele>1344.402284</ele>
        <time>2019-08-22T13:00:28.909Z</time>
      </trkpt>
      <trkpt lat="42.535234" lon="1.588267">
        <ele>1344.663829</ele>
        <time>2019-08-22T13:00:29.759Z</time>
      </trkpt>
      <trkpt lat="42.535262" lon="1.588273">
        <ele>1344.922576</ele>
        <time>2019-08-22T13:00:30.778Z</time>
      </trkpt>
      <trkpt lat="42.535292" lon="1.588265">
        <ele>1345.201650</ele>
        <time>2019-08-22T13:00:31.682Z</time>
      </trkpt>
      <trkpt lat="42.535346" lon="1.588323">
        <ele>1345.830251</ele>
        <time>2019-08-22T13:00:33.696Z</time>
      </trkpt>
      <trkpt lat="42.535476" lon="1.588452">
        <ele>1347.300252</ele>
        <time>2019-08-22T13:00:39.392Z</time>
      </trkpt>
      <trkpt lat="42.535567" lon="1.588504">
        <ele>1348.201521</ele>
        <time>2019-08-22T13:00:43.568Z</time>
      </trkpt>
      <trkpt lat="42.535811" lon="1.588613">
        <ele>1350.546287</ele>
        <time>2019-08-22T13:00:58.257Z</time>
      </trkpt>
      <trkpt lat="42.536186" lon="1.588781">
        <ele>1354.150931</ele>
        <time>2019-08-22T13:01:22.861Z</time>
      </trkpt>
      <trkpt lat="42.536761" lon="1.589093">
        <ele>1360.558380</ele>
        <time>2019-08-22T13:02:01.039Z</time>
      </trkpt>
      <trkpt lat="42.536951" lon="1.589318">
        <ele>1364.175011</ele>
        <time>2019-08-22T13:02:19.338Z</time>
      </trkpt>
      <trkpt lat="42.536992" lon="1.589383">
        <ele>1365.079256</ele>
        <time>2019-08-22T13:02:23.133Z</time>
      </trkpt>
      <trkpt lat="42.537052" lon="1.589555">
        <ele>1367.090379</ele>
        <time>2019-08-22T13:02:36.807Z</time>
      </trkpt>
      <trkpt lat="42.537780" lon="1.591156">
        <ele>1385.910704</ele>
        <time>2019-08-22T13:04:21.319Z</time>
      </trkpt>
      <trkpt lat="42.538042" lon="1.591505">
        <ele>1389.100863</ele>
        <time>2019-08-22T13:04:42.802Z</time>
      </trkpt>
      <trkpt lat="42.538198" lon="1.591635">
        <ele>1390.691634</ele>
        <time>2019-08-22T13:04:51.971Z</time>
      </trkpt>
      <trkpt lat="42.538539" lon="1.591782">
        <ele>1393.800766</ele>
        <time>2019-08-22T13:05:08.709Z</time>
      </trkpt>
      <trkpt lat="42.539966" lon="1.591888">
        <ele>1401.421436</ele>
        <time>2019-08-22T13:06:00.540Z</time>
      </trkpt>
      <trkpt lat="42.540294" lon="1.592029">
        <ele>1402.138057</ele>
        <time>2019-08-22T13:06:04.754Z</time>
      </trkpt>
      <trkpt lat="42.540599" lon="1.592298">
        <ele>1402.895673</ele>
        <time>2019-08-22T13:06:09.178Z</time>
      </trkpt>
      <trkpt lat="42.540661" lon="1.592325">
        <ele>1403.031294</ele>
        <time>2019-08-22T13:06:13.879Z</time>
      </trkpt>
      <trkpt lat="42.540782" lon="1.592377">
        <ele>1403.295650</ele>
        <time>2019-08-22T13:06:15.000Z</time>
      </trkpt>
      <trkpt lat="42.541101" lon="1.592373">
        <ele>1404.021315</ele>
        <time>2019-08-22T13:06:21.834Z</time>
      </trkpt>
      <trkpt lat="42.541411" lon="1.592135">
        <ele>1404.911998</ele>
        <time>2019-08-22T13:06:28.815Z</time>
      </trkpt>
      <trkpt lat="42.541485" lon="1.592057">
        <ele>1405.146311</ele>
        <time>2019-08-22T13:06:29.621Z</time>
      </trkpt>
      <trkpt lat="42.541653" lon="1.591878">
        <ele>1405.680438</ele>
        <time>2019-08-22T13:06:38.894Z</time>
      </trkpt>
      <trkpt lat="42.541988" lon="1.591686">
        <ele>1406.589837</ele>
        <time>2019-08-22T13:06:46.809Z</time>
      </trkpt>
      <trkpt lat="42.542128" lon="1.591635">
        <ele>1406.952340</ele>
        <time>2019-08-22T13:06:48.625Z</time>
      </trkpt>
      <trkpt lat="42.542610" lon="1.591582">
        <ele>1408.179896</ele>
        <time>2019-08-22T13:07:05.741Z</time>
      </trkpt>
      <trkpt lat="42.543059" lon="1.591555">
        <ele>1411.696428</ele>
        <time>2019-08-22T13:07:21.855Z</time>
      </trkpt>
      <trkpt lat="42.543413" lon="1.591635">
        <ele>1414.504341</ele>
        <time>2019-08-22T13:07:40.524Z</time>
      </trkpt>
      <trkpt lat="42.543547" lon="1.591699">
        <ele>1415.615808</ele>
        <time>2019-08-22T13:07:49.295Z</time>
      </trkpt>
      <trkpt lat="42.543668" lon="1.591759">
        <ele>1416.623744</ele>
        <time>2019-08-22T13:07:56.586Z</time>
      </trkpt>
      <trkpt lat="42.544083" lon="1.591879">
        <ele>1419.943673</ele>
        <time>2019-08-22T13:08:18.314Z</time>
      </trkpt>
      <trkpt lat="42.544405" lon="1.591866">
        <ele>1422.384572</ele>
        <time>2019-08-22T13:08:33.843Z</time>
      </trkpt>
      <trkpt lat="42.545397" lon="1.591458">
        <ele>1427.782128</ele>
        <time>2019-08-22T13:09:17.190Z</time>
      </trkpt>
      <trkpt lat="42.545660" lon="1.591405">
        <ele>1429.166652</ele>
        <time>2019-08-22T13:09:25.362Z</time>
      </trkpt>
      <trkpt lat="42.546059" lon="1.591426">
        <ele>1431.245915</ele>
        <time>2019-08-22T13:09:34.496Z</time>
      </trkpt>
      <trkpt lat="42.546481" lon="1.591601">
        <ele>1431.356947</ele>
        <time>2019-08-22T13:09:43.174Z</time>
      </trkpt>
      <trkpt lat="42.546557" lon="1.591630">
        <ele>1431.307397</ele>
        <time>2019-08-22T13:09:47.216Z</time>
      </trkpt>
      <trkpt lat="42.546843" lon="1.591732">
        <ele>1431.121801</ele>
        <time>2019-08-22T13:09:50.482Z</time>
      </trkpt>
      <trkpt lat="42.546962" lon="1.591769">
        <ele>1431.045178</ele>
        <time>2019-08-22T13:09:53.493Z</time>
      </trkpt>
      <trkpt lat="42.547085" lon="1.591802">
        <ele>1430.966486</ele>
        <time>2019-08-22T13:09:54.659Z</time>
      </trkpt>
      <trkpt lat="42.547217" lon="1.591829">
        <ele>1430.882702</ele>
        <time>2019-08-22T13:09:57.650Z</time>
      </trkpt>
      <trkpt lat="42.547375" lon="1.591850">
        <ele>1430.783062</ele>
        <time>2019-08-22T13:09:59.339Z</time>
      </trkpt>
      <trkpt lat="42.547898" lon="1.591844">
        <ele>1430.436804</ele>
        <time>2019-08-22T13:10:04.934Z</time>
      </trkpt>
      <trkpt lat="42.548469" lon="1.591745">
        <ele>1429.308243</ele>
        <time>2019-08-22T13:10:10.647Z</time>
      </trkpt>
      <trkpt lat="42.550185" lon="1.591214">
        <ele>1425.735247</ele>
        <time>2019-08-22T13:10:31.143Z</time>
      </trkpt>
      <trkpt lat="42.550365" lon="1.591137">
        <ele>1425.323279</ele>
        <time>2019-08-22T13:10:33.263Z</time>
      </trkpt>
      <trkpt lat="42.550687" lon="1.591054">
        <ele>1424.607830</ele>
        <time>2019-08-22T13:10:36.759Z</time>
      </trkpt>
      <trkpt lat="42.550800" lon="1.591037">
        <ele>1424.359653</ele>
        <time>2019-08-22T13:10:37.847Z</time>
      </trkpt>
      <trkpt lat="42.550854" lon="1.591077">
        <ele>1424.225369</ele>
        <time>2019-08-22T13:10:38.487Z</time>
      </trkpt>
      <trkpt lat="42.550915" lon="1.591082">
        <ele>1424.091971</ele>
        <time>2019-08-22T13:10:39.710Z</time>
      </trkpt>
      <trkpt lat="42.550972" lon="1.591048">
        <ele>1423.956064</ele>
        <time>2019-08-22T13:10:40.322Z</time>
      </trkpt>
      <trkpt lat="42.551003" lon="1.591004">
        <ele>1423.858158</ele>
        <time>2019-08-22T13:10:40.875Z</time>
      </trkpt>
      <trkpt lat="42.551021" lon="1.590948">
        <ele>1423.759907</ele>
        <time>2019-08-22T13:10:41.315Z</time>
      </trkpt>
      <trkpt lat="42.551025" lon="1.590887">
        <ele>1423.661426</ele>
        <time>2019-08-22T13:10:41.738Z</time>
      </trkpt>
      <trkpt lat="42.551122" lon="1.590814">
        <ele>1423.419323</ele>
        <time>2019-08-22T13:10:42.851Z</time>
      </trkpt>
      <trkpt lat="42.551806" lon="1.590280">
        <ele>1421.853621</ele>
        <time>2019-08-22T13:10:51.171Z</time>
      </trkpt>
      <trkpt lat="42.552515" lon="1.589292">
        <ele>1419.900204</ele>
        <time>2019-08-22T13:11:01.929Z</time>
      </trkpt>
      <trkpt lat="42.552733" lon="1.589059">
        <ele>1419.777091</ele>
        <time>2019-08-22T13:11:06.624Z</time>
      </trkpt>
      <trkpt lat="42.552969" lon="1.588881">
        <ele>1420.402818</ele>
        <time>2019-08-22T13:11:11.529Z</time>
      </trkpt>
      <trkpt lat="42.553329" lon="1.588744">
        <ele>1421.269346</ele>
        <time>2019-08-22T13:11:19.775Z</time>
      </trkpt>
      <trkpt lat="42.553532" lon="1.588725">
        <ele>1421.740950</ele>
        <time>2019-08-22T13:11:25.068Z</time>
      </trkpt>
      <trkpt lat="42.553598" lon="1.588723">
        <ele>1421.893954</ele>
        <time>2019-08-22T13:11:26.820Z</time>
      </trkpt>
      <trkpt lat="42.553681" lon="1.588727">
        <ele>1422.086442</ele>
        <time>2019-08-22T13:11:28.702Z</time>
      </trkpt>
      <trkpt lat="42.553775" lon="1.588721">
        <ele>1422.304544</ele>
        <time>2019-08-22T13:11:31.355Z</time>
      </trkpt>
      <trkpt lat="42.553868" lon="1.588709">
        <ele>1422.521059</ele>
        <time>2019-08-22T13:11:34.011Z</time>
      </trkpt>
      <trkpt lat="42.553961" lon="1.588691">
        <ele>1422.738783</ele>
        <time>2019-08-22T13:11:36.795Z</time>
      </trkpt>
      <trkpt lat="42.554026" lon="1.588672">
        <ele>1422.892884</ele>
        <time>2019-08-22T13:11:38.445Z</time>
      </trkpt>
      <trkpt lat="42.554090" lon="1.588642">
        <ele>1423.049809</ele>
        <time>2019-08-22T13:11:40.575Z</time>
      </trkpt>
      <trkpt lat="42.554150" lon="1.588602">
        <ele>1423.204733</ele>
        <time>2019-08-22T13:11:42.714Z</time>
      </trkpt>
      <trkpt lat="42.554228" lon="1.588583">
        <ele>1423.388399</ele>
        <time>2019-08-22T13:11:45.322Z</time>
      </trkpt>
      <trkpt lat="42.554307" lon="1.588567">
        <ele>1423.573522</ele>
        <time>2019-08-22T13:11:47.930Z</time>
      </trkpt>
      <trkpt lat="42.554386" lon="1.588554">
        <ele>1423.795090</ele>
        <time>2019-08-22T13:11:50.193Z</time>
      </trkpt>
      <trkpt lat="42.554433" lon="1.588550">
        <ele>1424.015342</ele>
        <time>2019-08-22T13:11:51.813Z</time>
      </trkpt>
      <trkpt lat="42.554510" lon="1.588548">
        <ele>1424.375540</ele>
        <time>2019-08-22T13:11:54.546Z</time>
      </trkpt>
      <trkpt lat="42.555456" lon="1.588498">
        <ele>1428.803369</ele>
        <time>2019-08-22T13:12:26.155Z</time>
      </trkpt>
      <trkpt lat="42.556157" lon="1.588717">
        <ele>1432.172807</ele>
        <time>2019-08-22T13:12:51.304Z</time>
      </trkpt>
      <trkpt lat="42.556868" lon="1.588653">
        <ele>1436.011283</ele>
        <time>2019-08-22T13:13:15.482Z</time>
      </trkpt>
      <trkpt lat="42.557118" lon="1.588655">
        <ele>1437.358025</ele>
        <time>2019-08-22T13:13:26.006Z</time>
      </trkpt>
      <trkpt lat="42.557271" lon="1.588658">
        <ele>1438.182302</ele>
        <time>2019-08-22T13:13:29.871Z</time>
      </trkpt>
      <trkpt lat="42.557967" lon="1.588820">
        <ele>1442.086984</ele>
        <time>2019-08-22T13:13:55.632Z</time>
      </trkpt>
      <trkpt lat="42.558095" lon="1.588872">
        <ele>1443.250307</ele>
        <time>2019-08-22T13:14:02.262Z</time>
      </trkpt>
      <trkpt lat="42.558203" lon="1.588923">
        <ele>1444.245923</ele>
        <time>2019-08-22T13:14:08.341Z</time>
      </trkpt>
      <trkpt lat="42.558785" lon="1.589238">
        <ele>1449.701247</ele>
        <time>2019-08-22T13:14:32.454Z</time>
      </trkpt>
      <trkpt lat="42.559423" lon="1.589295">
        <ele>1455.268318</ele>
        <time>2019-08-22T13:15:07.427Z</time>
      </trkpt>
      <trkpt lat="42.559480" lon="1.589310">
        <ele>1455.773854</ele>
        <time>2019-08-22T13:15:11.866Z</time>
      </trkpt>
      <trkpt lat="42.559531" lon="1.589336">
        <ele>1456.248185</ele>
        <time>2019-08-22T13:15:15.193Z</time>
      </trkpt>
      <trkpt lat="42.559575" lon="1.589361">
        <ele>1456.663490</ele>
        <time>2019-08-22T13:15:19.162Z</time>
      </trkpt>
      <trkpt lat="42.559645" lon="1.589413">
        <ele>1457.358252</ele>
        <time>2019-08-22T13:15:24.759Z</time>
      </trkpt>
      <trkpt lat="42.559843" lon="1.589601">
        <ele>1460.603172</ele>
        <time>2019-08-22T13:15:38.867Z</time>
      </trkpt>
      <trkpt lat="42.559928" lon="1.589675">
        <ele>1461.989479</ele>
        <time>2019-08-22T13:15:45.928Z</time>
      </trkpt>
      <trkpt lat="42.560029" lon="1.589754">
        <ele>1463.589800</ele>
        <time>2019-08-22T13:15:52.433Z</time>
      </trkpt>
      <trkpt lat="42.560075" lon="1.589785">
        <ele>1464.294870</ele>
        <time>2019-08-22T13:15:56.397Z</time>
      </trkpt>
      <trkpt lat="42.560145" lon="1.589827">
        <ele>1465.345584</ele>
        <time>2019-08-22T13:16:01.286Z</time>
      </trkpt>
      <trkpt lat="42.560264" lon="1.589887">
        <ele>1467.088390</ele>
        <time>2019-08-22T13:16:10.757Z</time>
      </trkpt>
      <trkpt lat="42.560924" lon="1.590218">
        <ele>1476.748139</ele>
        <time>2019-08-22T13:17:02.317Z</time>
      </trkpt>
      <trkpt lat="42.561601" lon="1.590291">
        <ele>1486.220906</ele>
        <time>2019-08-22T13:17:52.820Z</time>
      </trkpt>
      <trkpt lat="42.562032" lon="1.590399">
        <ele>1492.468068</ele>
        <time>2019-08-22T13:18:23.453Z</time>
      </trkpt>
      <trkpt lat="42.562652" lon="1.590415">
        <ele>1501.307043</ele>
        <time>2019-08-22T13:19:08.060Z</time>
      </trkpt>
      <trkpt lat="42.563747" lon="1.590976">
        <ele>1515.601323</ele>
        <time>2019-08-22T13:20:31.988Z</time>
      </trkpt>
      <trkpt lat="42.563809" lon="1.591023">
        <ele>1516.375918</ele>
        <time>2019-08-22T13:20:37.862Z</time>
      </trkpt>
      <trkpt lat="42.563852" lon="1.591094">
        <ele>1517.114439</ele>
        <time>2019-08-22T13:20:41.250Z</time>
      </trkpt>
      <trkpt lat="42.563890" lon="1.591170">
        <ele>1517.852453</ele>
        <time>2019-08-22T13:20:45.001Z</time>
      </trkpt>
      <trkpt lat="42.563921" lon="1.591252">
        <ele>1518.592982</ele>
        <time>2019-08-22T13:20:49.030Z</time>
      </trkpt>
      <trkpt lat="42.563949" lon="1.591334">
        <ele>1519.319151</ele>
        <time>2019-08-22T13:20:53.614Z</time>
      </trkpt>
      <trkpt lat="42.564013" lon="1.592042">
        <ele>1525.050094</ele>
        <time>2019-08-22T13:21:18.933Z</time>
      </trkpt>
      <trkpt lat="42.564147" lon="1.592492">
        <ele>1527.735357</ele>
        <time>2019-08-22T13:21:33.483Z</time>
      </trkpt>
      <trkpt lat="42.564208" lon="1.592622">
        <ele>1527.980615</ele>
        <time>2019-08-22T13:21:38.097Z</time>
      </trkpt>
      <trkpt lat="42.564268" lon="1.592744">
        <ele>1528.214032</ele>
        <time>2019-08-22T13:21:42.915Z</time>
      </trkpt>
      <trkpt lat="42.564310" lon="1.592828">
        <ele>1528.375575</ele>
        <time>2019-08-22T13:21:46.034Z</time>
      </trkpt>
      <trkpt lat="42.564422" lon="1.593130">
        <ele>1528.913575</ele>
        <time>2019-08-22T13:21:53.241Z</time>
      </trkpt>
      <trkpt lat="42.564451" lon="1.593171">
        <ele>1529.004022</ele>
        <time>2019-08-22T13:21:54.464Z</time>
      </trkpt>
      <trkpt lat="42.564483" lon="1.593203">
        <ele>1529.089880</ele>
        <time>2019-08-22T13:21:54.892Z</time>
      </trkpt>
      <trkpt lat="42.564523" lon="1.593212">
        <ele>1529.177472</ele>
        <time>2019-08-22T13:21:55.376Z</time>
      </trkpt>
      <trkpt lat="42.564551" lon="1.593204">
        <ele>1529.239286</ele>
        <time>2019-08-22T13:21:55.644Z</time>
      </trkpt>
      <trkpt lat="42.564575" lon="1.593185">
        <ele>1529.299304</ele>
        <time>2019-08-22T13:21:55.924Z</time>
      </trkpt>
      <trkpt lat="42.564629" lon="1.593212">
        <ele>1529.423621</ele>
        <time>2019-08-22T13:21:57.775Z</time>
      </trkpt>
      <trkpt lat="42.564743" lon="1.593242">
        <ele>1529.674482</ele>
        <time>2019-08-22T13:22:00.278Z</time>
      </trkpt>
      <trkpt lat="42.564801" lon="1.593244">
        <ele>1529.799822</ele>
        <time>2019-08-22T13:22:01.365Z</time>
      </trkpt>
      <trkpt lat="42.564826" lon="1.593245">
        <ele>1529.853854</ele>
        <time>2019-08-22T13:22:01.607Z</time>
      </trkpt>
      <trkpt lat="42.565076" lon="1.593252">
        <ele>1530.394053</ele>
        <time>2019-08-22T13:22:05.249Z</time>
      </trkpt>
      <trkpt lat="42.565192" lon="1.593258">
        <ele>1530.644834</ele>
        <time>2019-08-22T13:22:06.762Z</time>
      </trkpt>
      <trkpt lat="42.565267" lon="1.593268">
        <ele>1530.807639</ele>
        <time>2019-08-22T13:22:07.503Z</time>
      </trkpt>
      <trkpt lat="42.565350" lon="1.593297">
        <ele>1530.992789</ele>
        <time>2019-08-22T13:22:09.267Z</time>
      </trkpt>
      <trkpt lat="42.565502" lon="1.593431">
        <ele>1531.327175</ele>
        <time>2019-08-22T13:22:12.245Z</time>
      </trkpt>
      <trkpt lat="42.565566" lon="1.593519">
        <ele>1531.346031</ele>
        <time>2019-08-22T13:22:13.142Z</time>
      </trkpt>
      <trkpt lat="42.565891" lon="1.593990">
        <ele>1531.444438</ele>
        <time>2019-08-22T13:22:18.585Z</time>
      </trkpt>
      <trkpt lat="42.565986" lon="1.594134">
        <ele>1531.473914</ele>
        <time>2019-08-22T13:22:20.614Z</time>
      </trkpt>
      <trkpt lat="42.566115" lon="1.594316">
        <ele>1531.512427</ele>
        <time>2019-08-22T13:22:22.976Z</time>
      </trkpt>
      <trkpt lat="42.566133" lon="1.594392">
        <ele>1531.524599</ele>
        <time>2019-08-22T13:22:23.823Z</time>
      </trkpt>
      <trkpt lat="42.566161" lon="1.594462">
        <ele>1531.536744</ele>
        <time>2019-08-22T13:22:24.642Z</time>
      </trkpt>
      <trkpt lat="42.566190" lon="1.594522">
        <ele>1531.547687</ele>
        <time>2019-08-22T13:22:25.639Z</time>
      </trkpt>
      <trkpt lat="42.566265" lon="1.594828">
        <ele>1531.596858</ele>
        <time>2019-08-22T13:22:30.978Z</time>
      </trkpt>
      <trkpt lat="42.566244" lon="1.595137">
        <ele>1531.644171</ele>
        <time>2019-08-22T13:22:36.441Z</time>
      </trkpt>
      <trkpt lat="42.566105" lon="1.595896">
        <ele>1532.141462</ele>
        <time>2019-08-22T13:22:48.111Z</time>
      </trkpt>
      <trkpt lat="42.565921" lon="1.596427">
        <ele>1532.714537</ele>
        <time>2019-08-22T13:22:57.218Z</time>
      </trkpt>
      <trkpt lat="42.565885" lon="1.596487">
        <ele>1532.790112</ele>
        <time>2019-08-22T13:22:59.505Z</time>
      </trkpt>
      <trkpt lat="42.565871" lon="1.596499">
        <ele>1532.812065</ele>
        <time>2019-08-22T13:22:59.889Z</time>
      </trkpt>
      <trkpt lat="42.565860" lon="1.596517">
        <ele>1532.834906</ele>
        <time>2019-08-22T13:23:00.273Z</time>
      </trkpt>
      <trkpt lat="42.565854" lon="1.596543">
        <ele>1532.861513</ele>
        <time>2019-08-22T13:23:00.651Z</time>
      </trkpt>
      <trkpt lat="42.565864" lon="1.596595">
        <ele>1532.913996</ele>
        <time>2019-08-22T13:23:01.360Z</time>
      </trkpt>
      <trkpt lat="42.565878" lon="1.596614">
        <ele>1532.940243</ele>
        <time>2019-08-22T13:23:01.724Z</time>
      </trkpt>
      <trkpt lat="42.565868" lon="1.596642">
        <ele>1532.970631</ele>
        <time>2019-08-22T13:23:02.287Z</time>
      </trkpt>
      <trkpt lat="42.565739" lon="1.597131">
        <ele>1533.477874</ele>
        <time>2019-08-22T13:23:09.882Z</time>
      </trkpt>
      <trkpt lat="42.565749" lon="1.597400">
        <ele>1533.740902</ele>
        <time>2019-08-22T13:23:13.870Z</time>
      </trkpt>
      <trkpt lat="42.565767" lon="1.597557">
        <ele>1533.896067</ele>
        <time>2019-08-22T13:23:15.730Z</time>
      </trkpt>
      <trkpt lat="42.565832" lon="1.597774">
        <ele>1534.072942</ele>
        <time>2019-08-22T13:23:17.957Z</time>
      </trkpt>
      <trkpt lat="42.566132" lon="1.598447">
        <ele>1533.983404</ele>
        <time>2019-08-22T13:23:28.296Z</time>
      </trkpt>
      <trkpt lat="42.566350" lon="1.599009">
        <ele>1533.911109</ele>
        <time>2019-08-22T13:23:34.031Z</time>
      </trkpt>
      <trkpt lat="42.566391" lon="1.599106">
        <ele>1533.898380</ele>
        <time>2019-08-22T13:23:35.009Z</time>
      </trkpt>
      <trkpt lat="42.566428" lon="1.599220">
        <ele>1533.884201</ele>
        <time>2019-08-22T13:23:36.344Z</time>
      </trkpt>
      <trkpt lat="42.566481" lon="1.599361">
        <ele>1533.866183</ele>
        <time>2019-08-22T13:23:37.893Z</time>
      </trkpt>
      <trkpt lat="42.566558" lon="1.599551">
        <ele>1533.841500</ele>
        <time>2019-08-22T13:23:39.846Z</time>
      </trkpt>
      <trkpt lat="42.566621" lon="1.599720">
        <ele>1533.819941</ele>
        <time>2019-08-22T13:23:42.135Z</time>
      </trkpt>
      <trkpt lat="42.566649" lon="1.599870">
        <ele>1533.802329</ele>
        <time>2019-08-22T13:23:43.822Z</time>
      </trkpt>
      <trkpt lat="42.566676" lon="1.599998">
        <ele>1533.862009</ele>
        <time>2019-08-22T13:23:45.044Z</time>
      </trkpt>
      <trkpt lat="42.566680" lon="1.600083">
        <ele>1533.907182</ele>
        <time>2019-08-22T13:23:46.198Z</time>
      </trkpt>
      <trkpt lat="42.566678" lon="1.600106">
        <ele>1533.919465</ele>
        <time>2019-08-22T13:23:46.489Z</time>
      </trkpt>
      <trkpt lat="42.566680" lon="1.600126">
        <ele>1533.930169</ele>
        <time>2019-08-22T13:23:46.723Z</time>
      </trkpt>
      <trkpt lat="42.566688" lon="1.600147">
        <ele>1533.942708</ele>
        <time>2019-08-22T13:23:46.976Z</time>
      </trkpt>
      <trkpt lat="42.566712" lon="1.600172">
        <ele>1533.964491</ele>
        <time>2019-08-22T13:23:47.433Z</time>
      </trkpt>
      <trkpt lat="42.566731" lon="1.600177">
        <ele>1533.978428</ele>
        <time>2019-08-22T13:23:47.767Z</time>
      </trkpt>
      <trkpt lat="42.566793" lon="1.600306">
        <ele>1534.060123</ele>
        <time>2019-08-22T13:23:49.335Z</time>
      </trkpt>
      <trkpt lat="42.566808" lon="1.600329">
        <ele>1534.076417</ele>
        <time>2019-08-22T13:23:49.597Z</time>
      </trkpt>
      <trkpt lat="42.566874" lon="1.600432">
        <ele>1534.148825</ele>
        <time>2019-08-22T13:23:50.953Z</time>
      </trkpt>
      <trkpt lat="42.566898" lon="1.600471">
        <ele>1534.175779</ele>
        <time>2019-08-22T13:23:51.726Z</time>
      </trkpt>
      <trkpt lat="42.567219" lon="1.601059">
        <ele>1534.563959</ele>
        <time>2019-08-22T13:24:00.007Z</time>
      </trkpt>
      <trkpt lat="42.567236" lon="1.601242">
        <ele>1534.661783</ele>
        <time>2019-08-22T13:24:02.672Z</time>
      </trkpt>
      <trkpt lat="42.567219" lon="1.601278">
        <ele>1534.684463</ele>
        <time>2019-08-22T13:24:03.464Z</time>
      </trkpt>
      <trkpt lat="42.567221" lon="1.601393">
        <ele>1534.745471</ele>
        <time>2019-08-22T13:24:04.958Z</time>
      </trkpt>
      <trkpt lat="42.567248" lon="1.601430">
        <ele>1534.773095</ele>
        <time>2019-08-22T13:24:05.791Z</time>
      </trkpt>
      <trkpt lat="42.567275" lon="1.601446">
        <ele>1534.794309</ele>
        <time>2019-08-22T13:24:06.241Z</time>
      </trkpt>
      <trkpt lat="42.567327" lon="1.601438">
        <ele>1534.831995</ele>
        <time>2019-08-22T13:24:07.320Z</time>
      </trkpt>
      <trkpt lat="42.567344" lon="1.601424">
        <ele>1534.846313</ele>
        <time>2019-08-22T13:24:07.666Z</time>
      </trkpt>
      <trkpt lat="42.567422" lon="1.601507">
        <ele>1534.917675</ele>
        <time>2019-08-22T13:24:09.852Z</time>
      </trkpt>
      <trkpt lat="42.567525" lon="1.601617">
        <ele>1535.012041</ele>
        <time>2019-08-22T13:24:12.682Z</time>
      </trkpt>
      <trkpt lat="42.567987" lon="1.602492">
        <ele>1536.636331</ele>
        <time>2019-08-22T13:24:32.551Z</time>
      </trkpt>
      <trkpt lat="42.568086" lon="1.602661">
        <ele>1536.998345</ele>
        <time>2019-08-22T13:24:36.476Z</time>
      </trkpt>
      <trkpt lat="42.568256" lon="1.603112">
        <ele>1537.847695</ele>
        <time>2019-08-22T13:24:45.548Z</time>
      </trkpt>
      <trkpt lat="42.568437" lon="1.603691">
        <ele>1538.902174</ele>
        <time>2019-08-22T13:24:56.134Z</time>
      </trkpt>
      <trkpt lat="42.568452" lon="1.603738">
        <ele>1538.988046</ele>
        <time>2019-08-22T13:24:57.499Z</time>
      </trkpt>
      <trkpt lat="42.568736" lon="1.604382">
        <ele>1540.178350</ele>
        <time>2019-08-22T13:25:10.539Z</time>
      </trkpt>
      <trkpt lat="42.568907" lon="1.604528">
        <ele>1540.608531</ele>
        <time>2019-08-22T13:25:15.767Z</time>
      </trkpt>
      <trkpt lat="42.569508" lon="1.604725">
        <ele>1541.925217</ele>
        <time>2019-08-22T13:25:29.238Z</time>
      </trkpt>
      <trkpt lat="42.569770" lon="1.604783">
        <ele>1542.490552</ele>
        <time>2019-08-22T13:25:34.589Z</time>
      </trkpt>
      <trkpt lat="42.569835" lon="1.604798">
        <ele>1542.630964</ele>
        <time>2019-08-22T13:25:35.982Z</time>
      </trkpt>
      <trkpt lat="42.570203" lon="1.604966">
        <ele>1543.932605</ele>
        <time>2019-08-22T13:25:44.763Z</time>
      </trkpt>
      <trkpt lat="42.570491" lon="1.605322">
        <ele>1545.662379</ele>
        <time>2019-08-22T13:25:56.463Z</time>
      </trkpt>
      <trkpt lat="42.570622" lon="1.605709">
        <ele>1547.055527</ele>
        <time>2019-08-22T13:26:06.289Z</time>
      </trkpt>
      <trkpt lat="42.570734" lon="1.606263">
        <ele>1548.934634</ele>
        <time>2019-08-22T13:26:20.408Z</time>
      </trkpt>
      <trkpt lat="42.570785" lon="1.606513">
        <ele>1549.783147</ele>
        <time>2019-08-22T13:26:27.333Z</time>
      </trkpt>
      <trkpt lat="42.570856" lon="1.606936">
        <ele>1551.309137</ele>
        <time>2019-08-22T13:26:40.044Z</time>
      </trkpt>
      <trkpt lat="42.570870" lon="1.607021">
        <ele>1551.751677</ele>
        <time>2019-08-22T13:26:43.627Z</time>
      </trkpt>
      <trkpt lat="42.570906" lon="1.607189">
        <ele>1552.640657</ele>
        <time>2019-08-22T13:26:49.755Z</time>
      </trkpt>
      <trkpt lat="42.571037" lon="1.607807">
        <ele>1555.908091</ele>
        <time>2019-08-22T13:27:09.876Z</time>
      </trkpt>
      <trkpt lat="42.571124" lon="1.608065">
        <ele>1557.349826</ele>
        <time>2019-08-22T13:27:20.261Z</time>
      </trkpt>
      <trkpt lat="42.571194" lon="1.608215">
        <ele>1558.252080</ele>
        <time>2019-08-22T13:27:25.657Z</time>
      </trkpt>
      <trkpt lat="42.571228" lon="1.608289">
        <ele>1558.695233</ele>
        <time>2019-08-22T13:27:27.700Z</time>
      </trkpt>
      <trkpt lat="42.571263" lon="1.608405">
        <ele>1559.332154</ele>
        <time>2019-08-22T13:27:33.574Z</time>
      </trkpt>
      <trkpt lat="42.571438" lon="1.608810">
        <ele>1561.717929</ele>
        <time>2019-08-22T13:27:48.325Z</time>
      </trkpt>
      <trkpt lat="42.571519" lon="1.609353">
        <ele>1564.027207</ele>
        <time>2019-08-22T13:28:04.295Z</time>
      </trkpt>
      <trkpt lat="42.571415" lon="1.610396">
        <ele>1566.949213</ele>
        <time>2019-08-22T13:28:29.925Z</time>
      </trkpt>
      <trkpt lat="42.571435" lon="1.610889">
        <ele>1568.319959</ele>
        <time>2019-08-22T13:28:39.319Z</time>
      </trkpt>
      <trkpt lat="42.571605" lon="1.611346">
        <ele>1569.741358</ele>
        <time>2019-08-22T13:28:48.155Z</time>
      </trkpt>
      <trkpt lat="42.571899" lon="1.611822">
        <ele>1570.944303</ele>
        <time>2019-08-22T13:28:57.603Z</time>
      </trkpt>
      <trkpt lat="42.572004" lon="1.612184">
        <ele>1571.579766</ele>
        <time>2019-08-22T13:29:04.049Z</time>
      </trkpt>
      <trkpt lat="42.572031" lon="1.613347">
        <ele>1573.480234</ele>
        <time>2019-08-22T13:29:26.542Z</time>
      </trkpt>
      <trkpt lat="42.572088" lon="1.613671">
        <ele>1574.024313</ele>
        <time>2019-08-22T13:29:31.647Z</time>
      </trkpt>
      <trkpt lat="42.572214" lon="1.614139">
        <ele>1575.124094</ele>
        <time>2019-08-22T13:29:38.866Z</time>
      </trkpt>
      <trkpt lat="42.572269" lon="1.614342">
        <ele>1575.632688</ele>
        <time>2019-08-22T13:29:42.858Z</time>
      </trkpt>
      <trkpt lat="42.572446" lon="1.614915">
        <ele>1577.093710</ele>
        <time>2019-08-22T13:29:55.317Z</time>
      </trkpt>
      <trkpt lat="42.572591" lon="1.615384">
        <ele>1578.289708</ele>
        <time>2019-08-22T13:30:08.089Z</time>
      </trkpt>
      <trkpt lat="42.572819" lon="1.615916">
        <ele>1579.737001</ele>
        <time>2019-08-22T13:30:21.991Z</time>
      </trkpt>
      <trkpt lat="42.572851" lon="1.616023">
        <ele>1579.999004</ele>
        <time>2019-08-22T13:30:24.437Z</time>
      </trkpt>
      <trkpt lat="42.572997" lon="1.616533">
        <ele>1581.128083</ele>
        <time>2019-08-22T13:30:35.338Z</time>
      </trkpt>
      <trkpt lat="42.573072" lon="1.616828">
        <ele>1581.772055</ele>
        <time>2019-08-22T13:30:40.747Z</time>
      </trkpt>
      <trkpt lat="42.573153" lon="1.617142">
        <ele>1582.458579</ele>
        <time>2019-08-22T13:30:46.714Z</time>
      </trkpt>
      <trkpt lat="42.573190" lon="1.617284">
        <ele>1582.769388</ele>
        <time>2019-08-22T13:30:48.628Z</time>
      </trkpt>
      <trkpt lat="42.573456" lon="1.618026">
        <ele>1584.472240</ele>
        <time>2019-08-22T13:31:06.036Z</time>
      </trkpt>
      <trkpt lat="42.574083" lon="1.618893">
        <ele>1586.846852</ele>
        <time>2019-08-22T13:31:27.655Z</time>
      </trkpt>
      <trkpt lat="42.574393" lon="1.620537">
        <ele>1590.266627</ele>
        <time>2019-08-22T13:31:58.635Z</time>
      </trkpt>
      <trkpt lat="42.574701" lon="1.621370">
        <ele>1592.673264</ele>
        <time>2019-08-22T13:32:19.078Z</time>
      </trkpt>
      <trkpt lat="42.574870" lon="1.621611">
        <ele>1593.532504</ele>
        <time>2019-08-22T13:32:26.578Z</time>
      </trkpt>
      <trkpt lat="42.575677" lon="1.622447">
        <ele>1596.897139</ele>
        <time>2019-08-22T13:32:57.021Z</time>
      </trkpt>
      <trkpt lat="42.575786" lon="1.622689">
        <ele>1597.501202</ele>
        <time>2019-08-22T13:33:02.741Z</time>
      </trkpt>
      <trkpt lat="42.576154" lon="1.624207">
        <ele>1600.904252</ele>
        <time>2019-08-22T13:33:32.017Z</time>
      </trkpt>
      <trkpt lat="42.576307" lon="1.624631">
        <ele>1602.209327</ele>
        <time>2019-08-22T13:33:40.644Z</time>
      </trkpt>
      <trkpt lat="42.576519" lon="1.625063">
        <ele>1603.771618</ele>
        <time>2019-08-22T13:33:50.829Z</time>
      </trkpt>
      <trkpt lat="42.576710" lon="1.625345">
        <ele>1604.924647</ele>
        <time>2019-08-22T13:33:59.065Z</time>
      </trkpt>
      <trkpt lat="42.576939" lon="1.625573">
        <ele>1606.085084</ele>
        <time>2019-08-22T13:34:07.988Z</time>
      </trkpt>
      <trkpt lat="42.577479" lon="1.625935">
        <ele>1608.554038</ele>
        <time>2019-08-22T13:34:29.374Z</time>
      </trkpt>
      <trkpt lat="42.577617" lon="1.626080">
        <ele>1609.779966</ele>
        <time>2019-08-22T13:34:36.281Z</time>
      </trkpt>
      <trkpt lat="42.577801" lon="1.626459">
        <ele>1612.128623</ele>
        <time>2019-08-22T13:34:50.241Z</time>
      </trkpt>
      <trkpt lat="42.577850" lon="1.626831">
        <ele>1614.083788</ele>
        <time>2019-08-22T13:35:02.367Z</time>
      </trkpt>
      <trkpt lat="42.577676" lon="1.628102">
        <ele>1620.772243</ele>
        <time>2019-08-22T13:35:46.090Z</time>
      </trkpt>
      <trkpt lat="42.577704" lon="1.628432">
        <ele>1622.570118</ele>
        <time>2019-08-22T13:35:56.228Z</time>
      </trkpt>
      <trkpt lat="42.577794" lon="1.628782">
        <ele>1624.603458</ele>
        <time>2019-08-22T13:36:08.783Z</time>
      </trkpt>
      <trkpt lat="42.578044" lon="1.629290">
        <ele>1627.954666</ele>
        <time>2019-08-22T13:36:28.661Z</time>
      </trkpt>
      <trkpt lat="42.578240" lon="1.629685">
        <ele>1630.567105</ele>
        <time>2019-08-22T13:36:44.210Z</time>
      </trkpt>
      <trkpt lat="42.578417" lon="1.630117">
        <ele>1633.278581</ele>
        <time>2019-08-22T13:37:00.294Z</time>
      </trkpt>
      <trkpt lat="42.578507" lon="1.630369">
        <ele>1634.808754</ele>
        <time>2019-08-22T13:37:09.928Z</time>
      </trkpt>
      <trkpt lat="42.578551" lon="1.630903">
        <ele>1637.684233</ele>
        <time>2019-08-22T13:37:27.546Z</time>
      </trkpt>
      <trkpt lat="42.578271" lon="1.632262">
        <ele>1645.236110</ele>
        <time>2019-08-22T13:38:17.800Z</time>
      </trkpt>
      <trkpt lat="42.578183" lon="1.632957">
        <ele>1648.009478</ele>
        <time>2019-08-22T13:38:36.503Z</time>
      </trkpt>
      <trkpt lat="42.578153" lon="1.633681">
        <ele>1649.053574</ele>
        <time>2019-08-22T13:38:52.101Z</time>
      </trkpt>
      <trkpt lat="42.578140" lon="1.633841">
        <ele>1649.285348</ele>
        <time>2019-08-22T13:38:54.859Z</time>
      </trkpt>
      <trkpt lat="42.578117" lon="1.633974">
        <ele>1649.482057</ele>
        <time>2019-08-22T13:38:56.172Z</time>
      </trkpt>
      <trkpt lat="42.578075" lon="1.634002">
        <ele>1649.573544</ele>
        <time>2019-08-22T13:38:57.656Z</time>
      </trkpt>
      <trkpt lat="42.578025" lon="1.634106">
        <ele>1649.752379</ele>
        <time>2019-08-22T13:38:59.892Z</time>
      </trkpt>
      <trkpt lat="42.578023" lon="1.634170">
        <ele>1649.844613</ele>
        <time>2019-08-22T13:39:01.150Z</time>
      </trkpt>
      <trkpt lat="42.578039" lon="1.634233">
        <ele>1649.940567</ele>
        <time>2019-08-22T13:39:01.740Z</time>
      </trkpt>
      <trkpt lat="42.578072" lon="1.634284">
        <ele>1650.038322</ele>
        <time>2019-08-22T13:39:02.585Z</time>
      </trkpt>
      <trkpt lat="42.578116" lon="1.634315">
        <ele>1650.135247</ele>
        <time>2019-08-22T13:39:03.078Z</time>
      </trkpt>
      <trkpt lat="42.578206" lon="1.634469">
        <ele>1650.418331</ele>
        <time>2019-08-22T13:39:06.048Z</time>
      </trkpt>
      <trkpt lat="42.578264" lon="1.634662">
        <ele>1650.718473</ele>
        <time>2019-08-22T13:39:08.228Z</time>
      </trkpt>
      <trkpt lat="42.578280" lon="1.634759">
        <ele>1650.861598</ele>
        <time>2019-08-22T13:39:08.937Z</time>
      </trkpt>
      <trkpt lat="42.578421" lon="1.635590">
        <ele>1650.835032</ele>
        <time>2019-08-22T13:39:16.329Z</time>
      </trkpt>
      <trkpt lat="42.578783" lon="1.636714">
        <ele>1650.221999</ele>
        <time>2019-08-22T13:39:26.490Z</time>
      </trkpt>
      <trkpt lat="42.578851" lon="1.637223">
        <ele>1649.963501</ele>
        <time>2019-08-22T13:39:33.943Z</time>
      </trkpt>
      <trkpt lat="42.578847" lon="1.637419">
        <ele>1650.115528</ele>
        <time>2019-08-22T13:39:37.807Z</time>
      </trkpt>
      <trkpt lat="42.578827" lon="1.637886">
        <ele>1650.692166</ele>
        <time>2019-08-22T13:39:44.964Z</time>
      </trkpt>
      <trkpt lat="42.578787" lon="1.638219">
        <ele>1651.108077</ele>
        <time>2019-08-22T13:39:49.745Z</time>
      </trkpt>
      <trkpt lat="42.578772" lon="1.638350">
        <ele>1651.271500</ele>
        <time>2019-08-22T13:39:52.528Z</time>
      </trkpt>
      <trkpt lat="42.578755" lon="1.638746">
        <ele>1651.760474</ele>
        <time>2019-08-22T13:39:58.770Z</time>
      </trkpt>
      <trkpt lat="42.578817" lon="1.638999">
        <ele>1652.089162</ele>
        <time>2019-08-22T13:40:03.412Z</time>
      </trkpt>
      <trkpt lat="42.578916" lon="1.639248">
        <ele>1652.437987</ele>
        <time>2019-08-22T13:40:08.873Z</time>
      </trkpt>
      <trkpt lat="42.579034" lon="1.639495">
        <ele>1652.800927</ele>
        <time>2019-08-22T13:40:13.921Z</time>
      </trkpt>
      <trkpt lat="42.579202" lon="1.639862">
        <ele>1653.337858</ele>
        <time>2019-08-22T13:40:20.584Z</time>
      </trkpt>
      <trkpt lat="42.579407" lon="1.640416">
        <ele>1654.110565</ele>
        <time>2019-08-22T13:40:29.166Z</time>
      </trkpt>
      <trkpt lat="42.579472" lon="1.640778">
        <ele>1654.574930</ele>
        <time>2019-08-22T13:40:34.208Z</time>
      </trkpt>
      <trkpt lat="42.579488" lon="1.641384">
        <ele>1655.330648</ele>
        <time>2019-08-22T13:40:43.662Z</time>
      </trkpt>
      <trkpt lat="42.579493" lon="1.641537">
        <ele>1655.521513</ele>
        <time>2019-08-22T13:40:46.093Z</time>
      </trkpt>
      <trkpt lat="42.579501" lon="1.641808">
        <ele>1655.859520</ele>
        <time>2019-08-22T13:40:50.827Z</time>
      </trkpt>
      <trkpt lat="42.579511" lon="1.642214">
        <ele>1657.000293</ele>
        <time>2019-08-22T13:40:58.397Z</time>
      </trkpt>
      <trkpt lat="42.579536" lon="1.642570">
        <ele>1658.204319</ele>
        <time>2019-08-22T13:41:05.539Z</time>
      </trkpt>
      <trkpt lat="42.579546" lon="1.642755">
        <ele>1658.828856</ele>
        <time>2019-08-22T13:41:09.893Z</time>
      </trkpt>
      <trkpt lat="42.579575" lon="1.643314">
        <ele>1660.715572</ele>
        <time>2019-08-22T13:41:23.526Z</time>
      </trkpt>
      <trkpt lat="42.579615" lon="1.643972">
        <ele>1662.938474</ele>
        <time>2019-08-22T13:41:41.647Z</time>
      </trkpt>
      <trkpt lat="42.579745" lon="1.644664">
        <ele>1665.693981</ele>
        <time>2019-08-22T13:42:03.325Z</time>
      </trkpt>
      <trkpt lat="42.579864" lon="1.645563">
        <ele>1669.728025</ele>
        <time>2019-08-22T13:42:29.983Z</time>
      </trkpt>
      <trkpt lat="42.579856" lon="1.645597">
        <ele>1669.885664</ele>
        <time>2019-08-22T13:42:30.940Z</time>
      </trkpt>
      <trkpt lat="42.579856" lon="1.645633">
        <ele>1670.044657</ele>
        <time>2019-08-22T13:42:31.802Z</time>
      </trkpt>
      <trkpt lat="42.579865" lon="1.645667">
        <ele>1670.204225</ele>
        <time>2019-08-22T13:42:32.778Z</time>
      </trkpt>
      <trkpt lat="42.579882" lon="1.645695">
        <ele>1670.364502</ele>
        <time>2019-08-22T13:42:33.828Z</time>
      </trkpt>
      <trkpt lat="42.579930" lon="1.645722">
        <ele>1670.676118</ele>
        <time>2019-08-22T13:42:35.562Z</time>
      </trkpt>
      <trkpt lat="42.579957" lon="1.645719">
        <ele>1670.838603</ele>
        <time>2019-08-22T13:42:36.608Z</time>
      </trkpt>
      <trkpt lat="42.580021" lon="1.645915">
        <ele>1671.785523</ele>
        <time>2019-08-22T13:42:43.177Z</time>
      </trkpt>
      <trkpt lat="42.580275" lon="1.646983">
        <ele>1676.686133</ele>
        <time>2019-08-22T13:43:14.629Z</time>
      </trkpt>
      <trkpt lat="42.580273" lon="1.647330">
        <ele>1678.169211</ele>
        <time>2019-08-22T13:43:24.187Z</time>
      </trkpt>
      <trkpt lat="42.580190" lon="1.647780">
        <ele>1680.151873</ele>
        <time>2019-08-22T13:43:36.974Z</time>
      </trkpt>
      <trkpt lat="42.580028" lon="1.648215">
        <ele>1682.235270</ele>
        <time>2019-08-22T13:43:50.443Z</time>
      </trkpt>
      <trkpt lat="42.579902" lon="1.648553">
        <ele>1683.854423</ele>
        <time>2019-08-22T13:44:01.054Z</time>
      </trkpt>
      <trkpt lat="42.579724" lon="1.649089">
        <ele>1686.568641</ele>
        <time>2019-08-22T13:44:17.140Z</time>
      </trkpt>
      <trkpt lat="42.579627" lon="1.649301">
        <ele>1687.868034</ele>
        <time>2019-08-22T13:44:24.556Z</time>
      </trkpt>
      <trkpt lat="42.579582" lon="1.649369">
        <ele>1688.344002</ele>
        <time>2019-08-22T13:44:27.826Z</time>
      </trkpt>
      <trkpt lat="42.579509" lon="1.649478">
        <ele>1689.111066</ele>
        <time>2019-08-22T13:44:32.287Z</time>
      </trkpt>
      <trkpt lat="42.579450" lon="1.649548">
        <ele>1689.664968</ele>
        <time>2019-08-22T13:44:36.002Z</time>
      </trkpt>
      <trkpt lat="42.579141" lon="1.649733">
        <ele>1692.052518</ele>
        <time>2019-08-22T13:44:51.357Z</time>
      </trkpt>
      <trkpt lat="42.578932" lon="1.649845">
        <ele>1693.641058</ele>
        <time>2019-08-22T13:45:01.942Z</time>
      </trkpt>
      <trkpt lat="42.578771" lon="1.650052">
        <ele>1695.208558</ele>
        <time>2019-08-22T13:45:11.451Z</time>
      </trkpt>
      <trkpt lat="42.578707" lon="1.650337">
        <ele>1696.759756</ele>
        <time>2019-08-22T13:45:21.228Z</time>
      </trkpt>
      <trkpt lat="42.578650" lon="1.650626">
        <ele>1698.295795</ele>
        <time>2019-08-22T13:45:31.071Z</time>
      </trkpt>
      <trkpt lat="42.578547" lon="1.651149">
        <ele>1700.724355</ele>
        <time>2019-08-22T13:45:48.393Z</time>
      </trkpt>
      <trkpt lat="42.578144" lon="1.652227">
        <ele>1706.147639</ele>
        <time>2019-08-22T13:46:23.036Z</time>
      </trkpt>
      <trkpt lat="42.578091" lon="1.652673">
        <ele>1708.174228</ele>
        <time>2019-08-22T13:46:36.267Z</time>
      </trkpt>
      <trkpt lat="42.577875" lon="1.653456">
        <ele>1711.064435</ele>
        <time>2019-08-22T13:46:56.625Z</time>
      </trkpt>
      <trkpt lat="42.577762" lon="1.653878">
        <ele>1712.460989</ele>
        <time>2019-08-22T13:47:06.845Z</time>
      </trkpt>
      <trkpt lat="42.577720" lon="1.654086">
        <ele>1713.131775</ele>
        <time>2019-08-22T13:47:11.905Z</time>
      </trkpt>
      <trkpt lat="42.577654" lon="1.654416">
        <ele>1714.195299</ele>
        <time>2019-08-22T13:47:19.503Z</time>
      </trkpt>
      <trkpt lat="42.577596" lon="1.654931">
        <ele>1715.815638</ele>
        <time>2019-08-22T13:47:31.051Z</time>
      </trkpt>
      <trkpt lat="42.577627" lon="1.655405">
        <ele>1717.240121</ele>
        <time>2019-08-22T13:47:41.551Z</time>
      </trkpt>
      <trkpt lat="42.577682" lon="1.655757">
        <ele>1718.252120</ele>
        <time>2019-08-22T13:47:49.376Z</time>
      </trkpt>
      <trkpt lat="42.577827" lon="1.656225">
        <ele>1719.680074</ele>
        <time>2019-08-22T13:48:00.239Z</time>
      </trkpt>
      <trkpt lat="42.578226" lon="1.657063">
        <ele>1722.486600</ele>
        <time>2019-08-22T13:48:22.591Z</time>
      </trkpt>
      <trkpt lat="42.578775" lon="1.657827">
        <ele>1725.717809</ele>
        <time>2019-08-22T13:48:46.668Z</time>
      </trkpt>
      <trkpt lat="42.578801" lon="1.657864">
        <ele>1725.878949</ele>
        <time>2019-08-22T13:48:48.648Z</time>
      </trkpt>
      <trkpt lat="42.578983" lon="1.658125">
        <ele>1727.011495</ele>
        <time>2019-08-22T13:48:56.127Z</time>
      </trkpt>
      <trkpt lat="42.579315" lon="1.658654">
        <ele>1729.201447</ele>
        <time>2019-08-22T13:49:13.284Z</time>
      </trkpt>
      <trkpt lat="42.579360" lon="1.658726">
        <ele>1729.498993</ele>
        <time>2019-08-22T13:49:14.913Z</time>
      </trkpt>
      <trkpt lat="42.579407" lon="1.658800">
        <ele>1729.806891</ele>
        <time>2019-08-22T13:49:16.775Z</time>
      </trkpt>
      <trkpt lat="42.579492" lon="1.658936">
        <ele>1730.368921</ele>
        <time>2019-08-22T13:49:22.010Z</time>
      </trkpt>
      <trkpt lat="42.580500" lon="1.660440">
        <ele>1736.877565</ele>
        <time>2019-08-22T13:50:11.459Z</time>
      </trkpt>
      <trkpt lat="42.580900" lon="1.660903">
        <ele>1739.177127</ele>
        <time>2019-08-22T13:50:27.770Z</time>
      </trkpt>
      <trkpt lat="42.581467" lon="1.661440">
        <ele>1742.766525</ele>
        <time>2019-08-22T13:50:48.022Z</time>
      </trkpt>
      <trkpt lat="42.581900" lon="1.661867">
        <ele>1745.545117</ele>
        <time>2019-08-22T13:51:04.949Z</time>
      </trkpt>
      <trkpt lat="42.582309" lon="1.662239">
        <ele>1748.101145</ele>
        <time>2019-08-22T13:51:25.211Z</time>
      </trkpt>
      <trkpt lat="42.582800" lon="1.662629">
        <ele>1753.839200</ele>
        <time>2019-08-22T13:51:54.052Z</time>
      </trkpt>
      <trkpt lat="42.582602" lon="1.662963">
        <ele>1757.237003</ele>
        <time>2019-08-22T13:52:14.400Z</time>
      </trkpt>
      <trkpt lat="42.582464" lon="1.663212">
        <ele>1759.706551</ele>
        <time>2019-08-22T13:52:28.692Z</time>
      </trkpt>
      <trkpt lat="42.582388" lon="1.663563">
        <ele>1762.605647</ele>
        <time>2019-08-22T13:52:45.975Z</time>
      </trkpt>
      <trkpt lat="42.582376" lon="1.663681">
        <ele>1763.549557</ele>
        <time>2019-08-22T13:52:51.432Z</time>
      </trkpt>
      <trkpt lat="42.582368" lon="1.663767">
        <ele>1764.236440</ele>
        <time>2019-08-22T13:52:55.837Z</time>
      </trkpt>
      <trkpt lat="42.582304" lon="1.663750">
        <ele>1764.938250</ele>
        <time>2019-08-22T13:53:00.839Z</time>
      </trkpt>
      <trkpt lat="42.581915" lon="1.663740">
        <ele>1769.511689</ele>
        <time>2019-08-22T13:53:29.316Z</time>
      </trkpt>
      <trkpt lat="42.581823" lon="1.663772">
        <ele>1770.835136</ele>
        <time>2019-08-22T13:53:37.162Z</time>
      </trkpt>
      <trkpt lat="42.581787" lon="1.663937">
        <ele>1772.600947</ele>
        <time>2019-08-22T13:53:47.226Z</time>
      </trkpt>
      <trkpt lat="42.581818" lon="1.664068">
        <ele>1774.012838</ele>
        <time>2019-08-22T13:53:55.574Z</time>
      </trkpt>
      <trkpt lat="42.581936" lon="1.664131">
        <ele>1775.779728</ele>
        <time>2019-08-22T13:54:05.391Z</time>
      </trkpt>
      <trkpt lat="42.582123" lon="1.664028">
        <ele>1778.591828</ele>
        <time>2019-08-22T13:54:22.005Z</time>
      </trkpt>
      <trkpt lat="42.582283" lon="1.664056">
        <ele>1780.839945</ele>
        <time>2019-08-22T13:54:36.488Z</time>
      </trkpt>
      <trkpt lat="42.582372" lon="1.664180">
        <ele>1782.616767</ele>
        <time>2019-08-22T13:54:45.859Z</time>
      </trkpt>
      <trkpt lat="42.582351" lon="1.664493">
        <ele>1785.841702</ele>
        <time>2019-08-22T13:55:05.178Z</time>
      </trkpt>
      <trkpt lat="42.581844" lon="1.664481">
        <ele>1792.898448</ele>
        <time>2019-08-22T13:55:38.267Z</time>
      </trkpt>
      <trkpt lat="42.581488" lon="1.664447">
        <ele>1796.142395</ele>
        <time>2019-08-22T13:55:59.561Z</time>
      </trkpt>
      <trkpt lat="42.581303" lon="1.664404">
        <ele>1797.848450</ele>
        <time>2019-08-22T13:56:11.956Z</time>
      </trkpt>
      <trkpt lat="42.581267" lon="1.664395">
        <ele>1798.181180</ele>
        <time>2019-08-22T13:56:13.948Z</time>
      </trkpt>
      <trkpt lat="42.580818" lon="1.664224">
        <ele>1802.419920</ele>
        <time>2019-08-22T13:56:40.274Z</time>
      </trkpt>
      <trkpt lat="42.580062" lon="1.663904">
        <ele>1809.239767</ele>
        <time>2019-08-22T13:57:14.073Z</time>
      </trkpt>
      <trkpt lat="42.579704" lon="1.663778">
        <ele>1809.327703</ele>
        <time>2019-08-22T13:57:25.156Z</time>
      </trkpt>
      <trkpt lat="42.579307" lon="1.663709">
        <ele>1809.422871</ele>
        <time>2019-08-22T13:57:32.120Z</time>
      </trkpt>
      <trkpt lat="42.578921" lon="1.663589">
        <ele>1809.517026</ele>
        <time>2019-08-22T13:57:36.305Z</time>
      </trkpt>
      <trkpt lat="42.578613" lon="1.663278">
        <ele>1809.608286</ele>
        <time>2019-08-22T13:57:40.168Z</time>
      </trkpt>
      <trkpt lat="42.578305" lon="1.663112">
        <ele>1809.752994</ele>
        <time>2019-08-22T13:57:43.632Z</time>
      </trkpt>
      <trkpt lat="42.578029" lon="1.663015">
        <ele>1809.970772</ele>
        <time>2019-08-22T13:57:47.217Z</time>
      </trkpt>
      <trkpt lat="42.577780" lon="1.663036">
        <ele>1810.161347</ele>
        <time>2019-08-22T13:57:51.041Z</time>
      </trkpt>
      <trkpt lat="42.577649" lon="1.663160">
        <ele>1810.283326</ele>
        <time>2019-08-22T13:57:52.696Z</time>
      </trkpt>
      <trkpt lat="42.577547" lon="1.663299">
        <ele>1810.393708</ele>
        <time>2019-08-22T13:57:56.061Z</time>
      </trkpt>
      <trkpt lat="42.577513" lon="1.663511">
        <ele>1810.515754</ele>
        <time>2019-08-22T13:57:58.442Z</time>
      </trkpt>
      <trkpt lat="42.577481" lon="1.663751">
        <ele>1810.652949</ele>
        <time>2019-08-22T13:58:02.360Z</time>
      </trkpt>
      <trkpt lat="42.577467" lon="1.664074">
        <ele>1810.834950</ele>
        <time>2019-08-22T13:58:06.299Z</time>
      </trkpt>
      <trkpt lat="42.577460" lon="1.664217">
        <ele>1810.915565</ele>
        <time>2019-08-22T13:58:10.145Z</time>
      </trkpt>
      <trkpt lat="42.577025" lon="1.666132">
        <ele>1818.035165</ele>
        <time>2019-08-22T13:59:05.863Z</time>
      </trkpt>
      <trkpt lat="42.577004" lon="1.666227">
        <ele>1818.421461</ele>
        <time>2019-08-22T13:59:10.683Z</time>
      </trkpt>
      <trkpt lat="42.576981" lon="1.666315">
        <ele>1818.785131</ele>
        <time>2019-08-22T13:59:12.452Z</time>
      </trkpt>
      <trkpt lat="42.576972" lon="1.666351">
        <ele>1818.933196</ele>
        <time>2019-08-22T13:59:13.434Z</time>
      </trkpt>
      <trkpt lat="42.576938" lon="1.666487">
        <ele>1819.492552</ele>
        <time>2019-08-22T13:59:16.790Z</time>
      </trkpt>
      <trkpt lat="42.576868" lon="1.666771">
        <ele>1820.642237</ele>
        <time>2019-08-22T13:59:25.274Z</time>
      </trkpt>
      <trkpt lat="42.576839" lon="1.666888">
        <ele>1821.053148</ele>
        <time>2019-08-22T13:59:28.303Z</time>
      </trkpt>
      <trkpt lat="42.576698" lon="1.668025">
        <ele>1824.891007</ele>
        <time>2019-08-22T13:59:55.396Z</time>
      </trkpt>
      <trkpt lat="42.576685" lon="1.668097">
        <ele>1825.137763</ele>
        <time>2019-08-22T13:59:58.902Z</time>
      </trkpt>
      <trkpt lat="42.576660" lon="1.668180">
        <ele>1825.436251</ele>
        <time>2019-08-22T14:00:00.685Z</time>
      </trkpt>
      <trkpt lat="42.576123" lon="1.669396">
        <ele>1830.992222</ele>
        <time>2019-08-22T14:00:30.059Z</time>
      </trkpt>
      <trkpt lat="42.575707" lon="1.670682">
        <ele>1838.307006</ele>
        <time>2019-08-22T14:01:17.716Z</time>
      </trkpt>
      <trkpt lat="42.575566" lon="1.671259">
        <ele>1841.497371</ele>
        <time>2019-08-22T14:01:39.187Z</time>
      </trkpt>
      <trkpt lat="42.575536" lon="1.671328">
        <ele>1842.044033</ele>
        <time>2019-08-22T14:01:43.895Z</time>
      </trkpt>
      <trkpt lat="42.575299" lon="1.671877">
        <ele>1846.385599</ele>
        <time>2019-08-22T14:02:06.739Z</time>
      </trkpt>
      <trkpt lat="42.575103" lon="1.672417">
        <ele>1850.492833</ele>
        <time>2019-08-22T14:02:31.492Z</time>
      </trkpt>
      <trkpt lat="42.574980" lon="1.672602">
        <ele>1852.193272</ele>
        <time>2019-08-22T14:02:43.072Z</time>
      </trkpt>
      <trkpt lat="42.574491" lon="1.673124">
        <ele>1857.955781</ele>
        <time>2019-08-22T14:03:15.960Z</time>
      </trkpt>
      <trkpt lat="42.574387" lon="1.673395">
        <ele>1859.351300</ele>
        <time>2019-08-22T14:03:25.472Z</time>
      </trkpt>
      <trkpt lat="42.574336" lon="1.673677">
        <ele>1860.643634</ele>
        <time>2019-08-22T14:03:34.626Z</time>
      </trkpt>
      <trkpt lat="42.574148" lon="1.673992">
        <ele>1862.448152</ele>
        <time>2019-08-22T14:03:45.466Z</time>
      </trkpt>
      <trkpt lat="42.573960" lon="1.674242">
        <ele>1864.038397</ele>
        <time>2019-08-22T14:03:53.962Z</time>
      </trkpt>
      <trkpt lat="42.573437" lon="1.674602">
        <ele>1867.582076</ele>
        <time>2019-08-22T14:04:15.668Z</time>
      </trkpt>
      <trkpt lat="42.572643" lon="1.675362">
        <ele>1874.034032</ele>
        <time>2019-08-22T14:04:51.132Z</time>
      </trkpt>
      <trkpt lat="42.571967" lon="1.676356">
        <ele>1880.829116</ele>
        <time>2019-08-22T14:05:34.722Z</time>
      </trkpt>
      <trkpt lat="42.571641" lon="1.676746">
        <ele>1885.226481</ele>
        <time>2019-08-22T14:05:56.910Z</time>
      </trkpt>
      <trkpt lat="42.570598" lon="1.677519">
        <ele>1897.804270</ele>
        <time>2019-08-22T14:07:07.707Z</time>
      </trkpt>
      <trkpt lat="42.569836" lon="1.678172">
        <ele>1907.501916</ele>
        <time>2019-08-22T14:08:04.202Z</time>
      </trkpt>
      <trkpt lat="42.569565" lon="1.678292">
        <ele>1910.586979</ele>
        <time>2019-08-22T14:08:21.106Z</time>
      </trkpt>
      <trkpt lat="42.569359" lon="1.678326">
        <ele>1912.832936</ele>
        <time>2019-08-22T14:08:33.346Z</time>
      </trkpt>
      <trkpt lat="42.568262" lon="1.678599">
        <ele>1923.428133</ele>
        <time>2019-08-22T14:09:33.723Z</time>
      </trkpt>
      <trkpt lat="42.567319" lon="1.678584">
        <ele>1930.740835</ele>
        <time>2019-08-22T14:10:14.535Z</time>
      </trkpt>
      <trkpt lat="42.567050" lon="1.678686">
        <ele>1932.906521</ele>
        <time>2019-08-22T14:10:26.093Z</time>
      </trkpt>
      <trkpt lat="42.565825" lon="1.679450">
        <ele>1941.074013</ele>
        <time>2019-08-22T14:11:20.467Z</time>
      </trkpt>
      <trkpt lat="42.565451" lon="1.679591">
        <ele>1943.375538</ele>
        <time>2019-08-22T14:11:34.005Z</time>
      </trkpt>
      <trkpt lat="42.564627" lon="1.679649">
        <ele>1947.913126</ele>
        <time>2019-08-22T14:12:01.737Z</time>
      </trkpt>
      <trkpt lat="42.564485" lon="1.679714">
        <ele>1948.721968</ele>
        <time>2019-08-22T14:12:07.093Z</time>
      </trkpt>
      <trkpt lat="42.564032" lon="1.680139">
        <ele>1951.694022</ele>
        <time>2019-08-22T14:12:26.911Z</time>
      </trkpt>
      <trkpt lat="42.563719" lon="1.680456">
        <ele>1953.801710</ele>
        <time>2019-08-22T14:12:41.587Z</time>
      </trkpt>
      <trkpt lat="42.562038" lon="1.682180">
        <ele>1967.947960</ele>
        <time>2019-08-22T14:14:11.165Z</time>
      </trkpt>
      <trkpt lat="42.561533" lon="1.682780">
        <ele>1972.485603</ele>
        <time>2019-08-22T14:14:38.946Z</time>
      </trkpt>
      <trkpt lat="42.561217" lon="1.683175">
        <ele>1975.390070</ele>
        <time>2019-08-22T14:14:56.582Z</time>
      </trkpt>
      <trkpt lat="42.560698" lon="1.684185">
        <ele>1981.857889</ele>
        <time>2019-08-22T14:15:35.032Z</time>
      </trkpt>
      <trkpt lat="42.560199" lon="1.684892">
        <ele>1987.240745</ele>
        <time>2019-08-22T14:16:07.666Z</time>
      </trkpt>
      <trkpt lat="42.559579" lon="1.685776">
        <ele>1993.929419</ele>
        <time>2019-08-22T14:16:49.519Z</time>
      </trkpt>
      <trkpt lat="42.558897" lon="1.686686">
        <ele>2000.997017</ele>
        <time>2019-08-22T14:17:33.035Z</time>
      </trkpt>
      <trkpt lat="42.558385" lon="1.687446">
        <ele>2006.156229</ele>
        <time>2019-08-22T14:18:05.226Z</time>
      </trkpt>
      <trkpt lat="42.557748" lon="1.688412">
        <ele>2011.220671</ele>
        <time>2019-08-22T14:18:41.399Z</time>
      </trkpt>
      <trkpt lat="42.557670" lon="1.688520">
        <ele>2011.811482</ele>
        <time>2019-08-22T14:18:45.408Z</time>
      </trkpt>
      <trkpt lat="42.557655" lon="1.688538">
        <ele>2011.917646</ele>
        <time>2019-08-22T14:18:46.109Z</time>
      </trkpt>
      <trkpt lat="42.557374" lon="1.688881">
        <ele>2013.921535</ele>
        <time>2019-08-22T14:18:58.924Z</time>
      </trkpt>
      <trkpt lat="42.554787" lon="1.691132">
        <ele>2021.410992</ele>
        <time>2019-08-22T14:20:14.375Z</time>
      </trkpt>
      <trkpt lat="42.554009" lon="1.691870">
        <ele>2023.043935</ele>
        <time>2019-08-22T14:20:31.187Z</time>
      </trkpt>
      <trkpt lat="42.553320" lon="1.692719">
        <ele>2024.466093</ele>
        <time>2019-08-22T14:20:48.777Z</time>
      </trkpt>
      <trkpt lat="42.552909" lon="1.693312">
        <ele>2025.512212</ele>
        <time>2019-08-22T14:21:03.235Z</time>
      </trkpt>
      <trkpt lat="42.552562" lon="1.693847">
        <ele>2028.180039</ele>
        <time>2019-08-22T14:21:17.792Z</time>
      </trkpt>
      <trkpt lat="42.552187" lon="1.694411">
        <ele>2031.023559</ele>
        <time>2019-08-22T14:21:36.866Z</time>
      </trkpt>
      <trkpt lat="42.551881" lon="1.694861">
        <ele>2033.315615</ele>
        <time>2019-08-22T14:21:56.148Z</time>
      </trkpt>
      <trkpt lat="42.551737" lon="1.695086">
        <ele>2034.431137</ele>
        <time>2019-08-22T14:22:06.062Z</time>
      </trkpt>
      <trkpt lat="42.551539" lon="1.695226">
        <ele>2036.328385</ele>
        <time>2019-08-22T14:22:16.298Z</time>
      </trkpt>
      <trkpt lat="42.551479" lon="1.695265">
        <ele>2036.900777</ele>
        <time>2019-08-22T14:22:18.919Z</time>
      </trkpt>
      <trkpt lat="42.551450" lon="1.695301">
        <ele>2037.238908</ele>
        <time>2019-08-22T14:22:20.410Z</time>
      </trkpt>
      <trkpt lat="42.551426" lon="1.695348">
        <ele>2037.601393</ele>
        <time>2019-08-22T14:22:22.807Z</time>
      </trkpt>
      <trkpt lat="42.551406" lon="1.695445">
        <ele>2038.239861</ele>
        <time>2019-08-22T14:22:25.809Z</time>
      </trkpt>
      <trkpt lat="42.551415" lon="1.695545">
        <ele>2038.878429</ele>
        <time>2019-08-22T14:22:29.257Z</time>
      </trkpt>
      <trkpt lat="42.551428" lon="1.695586">
        <ele>2039.161359</ele>
        <time>2019-08-22T14:22:30.908Z</time>
      </trkpt>
      <trkpt lat="42.551449" lon="1.695626">
        <ele>2039.472699</ele>
        <time>2019-08-22T14:22:32.696Z</time>
      </trkpt>
      <trkpt lat="42.551322" lon="1.695913">
        <ele>2041.594835</ele>
        <time>2019-08-22T14:22:43.134Z</time>
      </trkpt>
      <trkpt lat="42.551237" lon="1.695989">
        <ele>2042.470599</ele>
        <time>2019-08-22T14:22:48.542Z</time>
      </trkpt>
      <trkpt lat="42.551050" lon="1.696172">
        <ele>2044.454134</ele>
        <time>2019-08-22T14:22:59.574Z</time>
      </trkpt>
      <trkpt lat="42.550318" lon="1.697288">
        <ele>2054.654228</ele>
        <time>2019-08-22T14:24:00.976Z</time>
      </trkpt>
      <trkpt lat="42.550146" lon="1.697612">
        <ele>2057.648542</ele>
        <time>2019-08-22T14:24:17.507Z</time>
      </trkpt>
      <trkpt lat="42.549985" lon="1.697904">
        <ele>2060.383202</ele>
        <time>2019-08-22T14:24:32.324Z</time>
      </trkpt>
      <trkpt lat="42.549626" lon="1.698617">
        <ele>2066.858509</ele>
        <time>2019-08-22T14:25:07.409Z</time>
      </trkpt>
      <trkpt lat="42.548811" lon="1.699572">
        <ele>2077.664001</ele>
        <time>2019-08-22T14:26:08.222Z</time>
      </trkpt>
      <trkpt lat="42.548230" lon="1.699966">
        <ele>2084.168809</ele>
        <time>2019-08-22T14:26:43.697Z</time>
      </trkpt>
      <trkpt lat="42.547774" lon="1.700135">
        <ele>2088.662157</ele>
        <time>2019-08-22T14:27:08.291Z</time>
      </trkpt>
      <trkpt lat="42.547651" lon="1.700191">
        <ele>2089.842999</ele>
        <time>2019-08-22T14:27:16.138Z</time>
      </trkpt>
      <trkpt lat="42.547501" lon="1.700280">
        <ele>2091.333033</ele>
        <time>2019-08-22T14:27:23.848Z</time>
      </trkpt>
      <trkpt lat="42.547146" lon="1.700580">
        <ele>2095.139283</ele>
        <time>2019-08-22T14:27:44.202Z</time>
      </trkpt>
      <trkpt lat="42.547056" lon="1.700659">
        <ele>2096.114825</ele>
        <time>2019-08-22T14:27:50.743Z</time>
      </trkpt>
      <trkpt lat="42.545907" lon="1.701457">
        <ele>2107.510635</ele>
        <time>2019-08-22T14:28:55.342Z</time>
      </trkpt>
      <trkpt lat="42.544923" lon="1.702487">
        <ele>2118.048549</ele>
        <time>2019-08-22T14:29:55.283Z</time>
      </trkpt>
      <trkpt lat="42.544095" lon="1.703256">
        <ele>2125.952254</ele>
        <time>2019-08-22T14:30:42.981Z</time>
      </trkpt>
      <trkpt lat="42.543644" lon="1.703526">
        <ele>2129.835416</ele>
        <time>2019-08-22T14:31:05.531Z</time>
      </trkpt>
      <trkpt lat="42.543265" lon="1.703539">
        <ele>2132.745120</ele>
        <time>2019-08-22T14:31:22.272Z</time>
      </trkpt>
      <trkpt lat="42.543183" lon="1.703518">
        <ele>2133.335048</ele>
        <time>2019-08-22T14:31:26.538Z</time>
      </trkpt>
      <trkpt lat="42.543119" lon="1.703482">
        <ele>2133.824811</ele>
        <time>2019-08-22T14:31:29.886Z</time>
      </trkpt>
      <trkpt lat="42.542996" lon="1.703419">
        <ele>2134.754214</ele>
        <time>2019-08-22T14:31:33.811Z</time>
      </trkpt>
      <trkpt lat="42.542857" lon="1.703501">
        <ele>2135.825679</ele>
        <time>2019-08-22T14:31:40.926Z</time>
      </trkpt>
      <trkpt lat="42.542844" lon="1.703719">
        <ele>2136.964868</ele>
        <time>2019-08-22T14:31:48.072Z</time>
      </trkpt>
      <trkpt lat="42.542914" lon="1.703807">
        <ele>2137.639392</ele>
        <time>2019-08-22T14:31:50.701Z</time>
      </trkpt>
      <trkpt lat="42.542967" lon="1.703839">
        <ele>2138.049475</ele>
        <time>2019-08-22T14:31:53.943Z</time>
      </trkpt>
      <trkpt lat="42.543098" lon="1.703873">
        <ele>2138.992358</ele>
        <time>2019-08-22T14:32:01.061Z</time>
      </trkpt>
      <trkpt lat="42.543602" lon="1.703890">
        <ele>2142.556483</ele>
        <time>2019-08-22T14:32:21.166Z</time>
      </trkpt>
      <trkpt lat="42.543954" lon="1.703771">
        <ele>2145.111268</ele>
        <time>2019-08-22T14:32:37.456Z</time>
      </trkpt>
      <trkpt lat="42.544048" lon="1.703716">
        <ele>2145.813849</ele>
        <time>2019-08-22T14:32:41.685Z</time>
      </trkpt>
      <trkpt lat="42.544146" lon="1.703658">
        <ele>2146.547653</ele>
        <time>2019-08-22T14:32:47.687Z</time>
      </trkpt>
      <trkpt lat="42.544309" lon="1.703676">
        <ele>2147.670128</ele>
        <time>2019-08-22T14:32:52.711Z</time>
      </trkpt>
      <trkpt lat="42.544360" lon="1.703898">
        <ele>2148.846056</ele>
        <time>2019-08-22T14:33:01.170Z</time>
      </trkpt>
      <trkpt lat="42.544303" lon="1.704023">
        <ele>2149.589439</ele>
        <time>2019-08-22T14:33:05.304Z</time>
      </trkpt>
      <trkpt lat="42.544121" lon="1.704049">
        <ele>2150.845528</ele>
        <time>2019-08-22T14:33:10.745Z</time>
      </trkpt>
      <trkpt lat="42.544005" lon="1.704065">
        <ele>2151.645814</ele>
        <time>2019-08-22T14:33:17.704Z</time>
      </trkpt>
      <trkpt lat="42.543870" lon="1.704100">
        <ele>2152.589163</ele>
        <time>2019-08-22T14:33:23.016Z</time>
      </trkpt>
      <trkpt lat="42.542776" lon="1.704632">
        <ele>2160.514128</ele>
        <time>2019-08-22T14:34:12.392Z</time>
      </trkpt>
      <trkpt lat="42.542656" lon="1.704664">
        <ele>2161.340973</ele>
        <time>2019-08-22T14:34:18.583Z</time>
      </trkpt>
      <trkpt lat="42.542549" lon="1.704687">
        <ele>2162.073429</ele>
        <time>2019-08-22T14:34:24.125Z</time>
      </trkpt>
      <trkpt lat="42.542221" lon="1.704686">
        <ele>2164.291082</ele>
        <time>2019-08-22T14:34:36.987Z</time>
      </trkpt>
      <trkpt lat="42.542105" lon="1.704808">
        <ele>2165.283279</ele>
        <time>2019-08-22T14:34:42.491Z</time>
      </trkpt>
      <trkpt lat="42.542097" lon="1.704967">
        <ele>2166.077177</ele>
        <time>2019-08-22T14:34:47.220Z</time>
      </trkpt>
      <trkpt lat="42.542204" lon="1.705109">
        <ele>2167.088974</ele>
        <time>2019-08-22T14:34:53.675Z</time>
      </trkpt>
      <trkpt lat="42.542291" lon="1.705102">
        <ele>2167.678224</ele>
        <time>2019-08-22T14:34:56.688Z</time>
      </trkpt>
      <trkpt lat="42.542455" lon="1.704977">
        <ele>2168.949923</ele>
        <time>2019-08-22T14:35:04.314Z</time>
      </trkpt>
      <trkpt lat="42.542557" lon="1.704950">
        <ele>2169.649296</ele>
        <time>2019-08-22T14:35:08.966Z</time>
      </trkpt>
      <trkpt lat="42.542763" lon="1.704967">
        <ele>2171.032000</ele>
        <time>2019-08-22T14:35:17.341Z</time>
      </trkpt>
      <trkpt lat="42.543618" lon="1.705024">
        <ele>2176.767222</ele>
        <time>2019-08-22T14:35:51.629Z</time>
      </trkpt>
      <trkpt lat="42.544010" lon="1.704956">
        <ele>2179.414900</ele>
        <time>2019-08-22T14:36:08.357Z</time>
      </trkpt>
      <trkpt lat="42.547257" lon="1.704079">
        <ele>2203.699605</ele>
        <time>2019-08-22T14:38:37.010Z</time>
      </trkpt>
      <trkpt lat="42.547921" lon="1.704145">
        <ele>2208.526122</ele>
        <time>2019-08-22T14:39:05.134Z</time>
      </trkpt>
      <trkpt lat="42.548272" lon="1.704293">
        <ele>2211.129643</ele>
        <time>2019-08-22T14:39:19.549Z</time>
      </trkpt>
      <trkpt lat="42.548338" lon="1.704322">
        <ele>2211.621041</ele>
        <time>2019-08-22T14:39:24.725Z</time>
      </trkpt>
      <trkpt lat="42.548399" lon="1.704349">
        <ele>2212.075529</ele>
        <time>2019-08-22T14:39:27.393Z</time>
      </trkpt>
      <trkpt lat="42.548882" lon="1.704360">
        <ele>2215.497364</ele>
        <time>2019-08-22T14:39:45.319Z</time>
      </trkpt>
      <trkpt lat="42.549201" lon="1.704148">
        <ele>2218.013302</ele>
        <time>2019-08-22T14:40:02.232Z</time>
      </trkpt>
      <trkpt lat="42.549409" lon="1.703902">
        <ele>2219.967479</ele>
        <time>2019-08-22T14:40:16.578Z</time>
      </trkpt>
      <trkpt lat="42.549524" lon="1.703786">
        <ele>2220.993504</ele>
        <time>2019-08-22T14:40:20.622Z</time>
      </trkpt>
      <trkpt lat="42.549664" lon="1.703618">
        <ele>2222.357922</ele>
        <time>2019-08-22T14:40:31.953Z</time>
      </trkpt>
      <trkpt lat="42.549766" lon="1.703585">
        <ele>2223.123558</ele>
        <time>2019-08-22T14:40:34.816Z</time>
      </trkpt>
      <trkpt lat="42.549889" lon="1.703709">
        <ele>2224.242264</ele>
        <time>2019-08-22T14:40:41.539Z</time>
      </trkpt>
      <trkpt lat="42.549895" lon="1.703870">
        <ele>2225.109406</ele>
        <time>2019-08-22T14:40:46.501Z</time>
      </trkpt>
      <trkpt lat="42.549811" lon="1.704007">
        <ele>2226.068189</ele>
        <time>2019-08-22T14:40:50.103Z</time>
      </trkpt>
      <trkpt lat="42.549735" lon="1.704079">
        <ele>2226.744906</ele>
        <time>2019-08-22T14:40:55.354Z</time>
      </trkpt>
      <trkpt lat="42.549581" lon="1.704235">
        <ele>2228.147966</ele>
        <time>2019-08-22T14:41:03.323Z</time>
      </trkpt>
      <trkpt lat="42.549033" lon="1.704967">
        <ele>2233.761236</ele>
        <time>2019-08-22T14:41:38.287Z</time>
      </trkpt>
      <trkpt lat="42.548711" lon="1.705311">
        <ele>2236.537691</ele>
        <time>2019-08-22T14:41:56.785Z</time>
      </trkpt>
      <trkpt lat="42.548395" lon="1.705517">
        <ele>2238.912936</ele>
        <time>2019-08-22T14:42:12.564Z</time>
      </trkpt>
      <trkpt lat="42.547617" lon="1.705517">
        <ele>2244.184436</ele>
        <time>2019-08-22T14:42:42.523Z</time>
      </trkpt>
      <trkpt lat="42.547307" lon="1.705628">
        <ele>2246.385726</ele>
        <time>2019-08-22T14:42:55.446Z</time>
      </trkpt>
      <trkpt lat="42.546681" lon="1.706083">
        <ele>2251.532648</ele>
        <time>2019-08-22T14:43:25.711Z</time>
      </trkpt>
      <trkpt lat="42.546390" lon="1.706358">
        <ele>2254.102714</ele>
        <time>2019-08-22T14:43:41.518Z</time>
      </trkpt>
      <trkpt lat="42.545783" lon="1.707096">
        <ele>2260.025968</ele>
        <time>2019-08-22T14:44:19.132Z</time>
      </trkpt>
      <trkpt lat="42.545296" lon="1.707482">
        <ele>2264.179746</ele>
        <time>2019-08-22T14:44:44.962Z</time>
      </trkpt>
      <trkpt lat="42.544797" lon="1.707800">
        <ele>2268.240061</ele>
        <time>2019-08-22T14:45:09.716Z</time>
      </trkpt>
      <trkpt lat="42.543748" lon="1.708172">
        <ele>2276.242509</ele>
        <time>2019-08-22T14:45:54.878Z</time>
      </trkpt>
      <trkpt lat="42.543156" lon="1.708617">
        <ele>2281.247726</ele>
        <time>2019-08-22T14:46:23.602Z</time>
      </trkpt>
      <trkpt lat="42.542621" lon="1.709315">
        <ele>2287.243248</ele>
        <time>2019-08-22T14:46:58.758Z</time>
      </trkpt>
      <trkpt lat="42.542215" lon="1.710025">
        <ele>2294.197365</ele>
        <time>2019-08-22T14:47:33.931Z</time>
      </trkpt>
      <trkpt lat="42.542103" lon="1.710289">
        <ele>2296.554515</ele>
        <time>2019-08-22T14:47:46.625Z</time>
      </trkpt>
      <trkpt lat="42.541954" lon="1.711089">
        <ele>2302.939292</ele>
        <time>2019-08-22T14:48:25.331Z</time>
      </trkpt>
      <trkpt lat="42.541795" lon="1.711443">
        <ele>2305.975407</ele>
        <time>2019-08-22T14:48:45.173Z</time>
      </trkpt>
      <trkpt lat="42.541471" lon="1.711728">
        <ele>2309.627121</ele>
        <time>2019-08-22T14:49:10.315Z</time>
      </trkpt>
      <trkpt lat="42.541268" lon="1.711765">
        <ele>2311.564345</ele>
        <time>2019-08-22T14:49:22.843Z</time>
      </trkpt>
      <trkpt lat="42.541033" lon="1.711687">
        <ele>2313.852491</ele>
        <time>2019-08-22T14:49:35.886Z</time>
      </trkpt>
      <trkpt lat="42.540826" lon="1.711539">
        <ele>2316.065355</ele>
        <time>2019-08-22T14:49:47.911Z</time>
      </trkpt>
      <trkpt lat="42.540753" lon="1.711495">
        <ele>2316.820817</ele>
        <time>2019-08-22T14:49:52.222Z</time>
      </trkpt>
      <trkpt lat="42.540646" lon="1.711519">
        <ele>2317.846558</ele>
        <time>2019-08-22T14:49:57.747Z</time>
      </trkpt>
      <trkpt lat="42.540598" lon="1.711599">
        <ele>2318.565519</ele>
        <time>2019-08-22T14:50:00.732Z</time>
      </trkpt>
      <trkpt lat="42.540607" lon="1.711762">
        <ele>2319.704601</ele>
        <time>2019-08-22T14:50:05.708Z</time>
      </trkpt>
      <trkpt lat="42.540677" lon="1.711844">
        <ele>2320.579167</ele>
        <time>2019-08-22T14:50:09.339Z</time>
      </trkpt>
      <trkpt lat="42.540723" lon="1.711871">
        <ele>2321.053181</ele>
        <time>2019-08-22T14:50:12.479Z</time>
      </trkpt>
      <trkpt lat="42.540888" lon="1.711925">
        <ele>2321.829480</ele>
        <time>2019-08-22T14:50:17.992Z</time>
      </trkpt>
      <trkpt lat="42.542096" lon="1.712602">
        <ele>2325.848610</ele>
        <time>2019-08-22T14:50:49.013Z</time>
      </trkpt>
      <trkpt lat="42.542233" lon="1.712575">
        <ele>2326.274336</ele>
        <time>2019-08-22T14:50:52.975Z</time>
      </trkpt>
      <trkpt lat="42.542386" lon="1.712431">
        <ele>2326.846904</ele>
        <time>2019-08-22T14:50:55.640Z</time>
      </trkpt>
      <trkpt lat="42.542466" lon="1.712215">
        <ele>2327.776288</ele>
        <time>2019-08-22T14:51:01.159Z</time>
      </trkpt>
      <trkpt lat="42.542481" lon="1.711984">
        <ele>2328.764419</ele>
        <time>2019-08-22T14:51:04.554Z</time>
      </trkpt>
      <trkpt lat="42.542452" lon="1.711816">
        <ele>2329.499670</ele>
        <time>2019-08-22T14:51:08.350Z</time>
      </trkpt>
      <trkpt lat="42.542429" lon="1.711698">
        <ele>2330.019778</ele>
        <time>2019-08-22T14:51:11.934Z</time>
      </trkpt>
      <trkpt lat="42.542451" lon="1.711512">
        <ele>2330.822492</ele>
        <time>2019-08-22T14:51:15.465Z</time>
      </trkpt>
      <trkpt lat="42.542543" lon="1.711444">
        <ele>2331.428350</ele>
        <time>2019-08-22T14:51:18.751Z</time>
      </trkpt>
      <trkpt lat="42.542663" lon="1.711538">
        <ele>2332.229655</ele>
        <time>2019-08-22T14:51:24.863Z</time>
      </trkpt>
      <trkpt lat="42.542680" lon="1.711708">
        <ele>2332.960682</ele>
        <time>2019-08-22T14:51:28.719Z</time>
      </trkpt>
      <trkpt lat="42.542672" lon="1.711801">
        <ele>2333.359656</ele>
        <time>2019-08-22T14:51:30.936Z</time>
      </trkpt>
      <trkpt lat="42.542669" lon="1.711920">
        <ele>2333.867022</ele>
        <time>2019-08-22T14:51:36.431Z</time>
      </trkpt>
      <trkpt lat="42.542701" lon="1.712539">
        <ele>2336.511123</ele>
        <time>2019-08-22T14:51:56.571Z</time>
      </trkpt>
      <trkpt lat="42.542628" lon="1.712876">
        <ele>2338.392916</ele>
        <time>2019-08-22T14:52:09.938Z</time>
      </trkpt>
      <trkpt lat="42.542177" lon="1.713640">
        <ele>2345.057649</ele>
        <time>2019-08-22T14:52:52.201Z</time>
      </trkpt>
      <trkpt lat="42.542013" lon="1.713837">
        <ele>2347.081271</ele>
        <time>2019-08-22T14:53:04.221Z</time>
      </trkpt>
      <trkpt lat="42.541716" lon="1.714007">
        <ele>2350.059629</ele>
        <time>2019-08-22T14:53:20.480Z</time>
      </trkpt>
      <trkpt lat="42.541441" lon="1.714043">
        <ele>2352.612438</ele>
        <time>2019-08-22T14:53:33.448Z</time>
      </trkpt>
      <trkpt lat="42.541181" lon="1.714001">
        <ele>2354.823303</ele>
        <time>2019-08-22T14:53:45.234Z</time>
      </trkpt>
      <trkpt lat="42.540746" lon="1.713819">
        <ele>2358.193002</ele>
        <time>2019-08-22T14:54:06.206Z</time>
      </trkpt>
      <trkpt lat="42.540639" lon="1.713769">
        <ele>2359.030721</ele>
        <time>2019-08-22T14:54:11.669Z</time>
      </trkpt>
      <trkpt lat="42.540282" lon="1.713434">
        <ele>2362.243630</ele>
        <time>2019-08-22T14:54:30.823Z</time>
      </trkpt>
      <trkpt lat="42.540148" lon="1.713482">
        <ele>2363.269557</ele>
        <time>2019-08-22T14:54:36.987Z</time>
      </trkpt>
      <trkpt lat="42.540117" lon="1.713687">
        <ele>2364.411000</ele>
        <time>2019-08-22T14:54:43.736Z</time>
      </trkpt>
      <trkpt lat="42.540409" lon="1.714009">
        <ele>2367.196137</ele>
        <time>2019-08-22T14:54:59.457Z</time>
      </trkpt>
      <trkpt lat="42.540468" lon="1.714108">
        <ele>2367.825471</ele>
        <time>2019-08-22T14:55:03.245Z</time>
      </trkpt>
      <trkpt lat="42.540570" lon="1.714328">
        <ele>2369.087313</ele>
        <time>2019-08-22T14:55:11.533Z</time>
      </trkpt>
      <trkpt lat="42.541284" lon="1.715933">
        <ele>2378.188782</ele>
        <time>2019-08-22T14:56:07.788Z</time>
      </trkpt>
      <trkpt lat="42.541565" lon="1.716181">
        <ele>2380.518636</ele>
        <time>2019-08-22T14:56:21.532Z</time>
      </trkpt>
      <trkpt lat="42.541803" lon="1.716219">
        <ele>2382.251119</ele>
        <time>2019-08-22T14:56:31.487Z</time>
      </trkpt>
      <trkpt lat="42.541931" lon="1.716189">
        <ele>2383.190189</ele>
        <time>2019-08-22T14:56:36.724Z</time>
      </trkpt>
      <trkpt lat="42.542192" lon="1.716090">
        <ele>2385.149385</ele>
        <time>2019-08-22T14:56:48.509Z</time>
      </trkpt>
      <trkpt lat="42.542308" lon="1.716125">
        <ele>2386.008478</ele>
        <time>2019-08-22T14:56:53.449Z</time>
      </trkpt>
      <trkpt lat="42.542371" lon="1.716233">
        <ele>2386.742216</ele>
        <time>2019-08-22T14:56:58.545Z</time>
      </trkpt>
      <trkpt lat="42.542342" lon="1.716528">
        <ele>2388.327465</ele>
        <time>2019-08-22T14:57:08.788Z</time>
      </trkpt>
      <trkpt lat="42.542210" lon="1.716820">
        <ele>2390.152233</ele>
        <time>2019-08-22T14:57:21.255Z</time>
      </trkpt>
      <trkpt lat="42.541702" lon="1.717864">
        <ele>2394.827567</ele>
        <time>2019-08-22T14:58:01.071Z</time>
      </trkpt>
      <trkpt lat="42.541638" lon="1.717996">
        <ele>2395.310375</ele>
        <time>2019-08-22T14:58:06.987Z</time>
      </trkpt>
      <trkpt lat="42.541335" lon="1.718457">
        <ele>2397.197935</ele>
        <time>2019-08-22T14:58:23.446Z</time>
      </trkpt>
      <trkpt lat="42.540270" lon="1.719267">
        <ele>2397.057538</ele>
        <time>2019-08-22T14:58:38.770Z</time>
      </trkpt>
      <trkpt lat="42.540176" lon="1.719381">
        <ele>2396.553819</ele>
        <time>2019-08-22T14:58:40.118Z</time>
      </trkpt>
      <trkpt lat="42.540079" lon="1.719561">
        <ele>2395.897254</ele>
        <time>2019-08-22T14:58:41.667Z</time>
      </trkpt>
      <trkpt lat="42.540038" lon="1.719660">
        <ele>2395.562895</ele>
        <time>2019-08-22T14:58:42.403Z</time>
      </trkpt>
      <trkpt lat="42.540004" lon="1.719791">
        <ele>2395.153981</ele>
        <time>2019-08-22T14:58:43.521Z</time>
      </trkpt>
      <trkpt lat="42.539972" lon="1.719968">
        <ele>2394.617405</ele>
        <time>2019-08-22T14:58:44.740Z</time>
      </trkpt>
      <trkpt lat="42.539951" lon="1.720135">
        <ele>2394.118620</ele>
        <time>2019-08-22T14:58:45.818Z</time>
      </trkpt>
      <trkpt lat="42.539966" lon="1.720518">
        <ele>2392.989413</ele>
        <time>2019-08-22T14:58:48.412Z</time>
      </trkpt>
      <trkpt lat="42.540116" lon="1.721182">
        <ele>2390.306543</ele>
        <time>2019-08-22T14:58:53.049Z</time>
      </trkpt>
      <trkpt lat="42.540048" lon="1.721280">
        <ele>2389.739214</ele>
        <time>2019-08-22T14:58:53.961Z</time>
      </trkpt>
      <trkpt lat="42.539930" lon="1.721278">
        <ele>2389.064218</ele>
        <time>2019-08-22T14:58:54.966Z</time>
      </trkpt>
      <trkpt lat="42.539789" lon="1.720943">
        <ele>2387.438267</ele>
        <time>2019-08-22T14:58:57.629Z</time>
      </trkpt>
      <trkpt lat="42.539774" lon="1.720905">
        <ele>2387.256583</ele>
        <time>2019-08-22T14:58:57.893Z</time>
      </trkpt>
      <trkpt lat="42.539725" lon="1.720785">
        <ele>2386.678380</ele>
        <time>2019-08-22T14:58:58.814Z</time>
      </trkpt>
      <trkpt lat="42.539588" lon="1.720550">
        <ele>2385.415470</ele>
        <time>2019-08-22T14:59:01.035Z</time>
      </trkpt>
      <trkpt lat="42.539473" lon="1.720364">
        <ele>2384.392161</ele>
        <time>2019-08-22T14:59:02.736Z</time>
      </trkpt>
      <trkpt lat="42.539191" lon="1.719953">
        <ele>2381.985617</ele>
        <time>2019-08-22T14:59:06.768Z</time>
      </trkpt>
      <trkpt lat="42.538680" lon="1.719287">
        <ele>2376.477521</ele>
        <time>2019-08-22T14:59:13.618Z</time>
      </trkpt>
      <trkpt lat="42.538396" lon="1.719134">
        <ele>2374.101925</ele>
        <time>2019-08-22T14:59:16.353Z</time>
      </trkpt>
      <trkpt lat="42.538150" lon="1.719105">
        <ele>2372.182160</ele>
        <time>2019-08-22T14:59:18.460Z</time>
      </trkpt>
      <trkpt lat="42.537932" lon="1.719188">
        <ele>2370.421855</ele>
        <time>2019-08-22T14:59:20.505Z</time>
      </trkpt>
      <trkpt lat="42.537732" lon="1.719368">
        <ele>2368.556092</ele>
        <time>2019-08-22T14:59:22.496Z</time>
      </trkpt>
      <trkpt lat="42.537578" lon="1.719658">
        <ele>2365.626980</ele>
        <time>2019-08-22T14:59:24.717Z</time>
      </trkpt>
      <trkpt lat="42.537515" lon="1.719919">
        <ele>2363.209960</ele>
        <time>2019-08-22T14:59:26.460Z</time>
      </trkpt>
      <trkpt lat="42.537505" lon="1.720054">
        <ele>2362.015912</ele>
        <time>2019-08-22T14:59:27.291Z</time>
      </trkpt>
      <trkpt lat="42.537508" lon="1.720150">
        <ele>2361.170310</ele>
        <time>2019-08-22T14:59:27.873Z</time>
      </trkpt>
      <trkpt lat="42.537535" lon="1.720487">
        <ele>2358.187082</ele>
        <time>2019-08-22T14:59:30.019Z</time>
      </trkpt>
      <trkpt lat="42.537558" lon="1.720571">
        <ele>2357.398455</ele>
        <time>2019-08-22T14:59:30.562Z</time>
      </trkpt>
      <trkpt lat="42.537579" lon="1.720645">
        <ele>2356.700593</ele>
        <time>2019-08-22T14:59:31.037Z</time>
      </trkpt>
      <trkpt lat="42.537785" lon="1.721084">
        <ele>2352.120290</ele>
        <time>2019-08-22T14:59:34.269Z</time>
      </trkpt>
      <trkpt lat="42.537801" lon="1.721109">
        <ele>2351.828875</ele>
        <time>2019-08-22T14:59:34.466Z</time>
      </trkpt>
      <trkpt lat="42.537926" lon="1.721301">
        <ele>2349.574127</ele>
        <time>2019-08-22T14:59:36.113Z</time>
      </trkpt>
      <trkpt lat="42.540307" lon="1.724236">
        <ele>2324.346593</ele>
        <time>2019-08-22T15:00:04.628Z</time>
      </trkpt>
      <trkpt lat="42.540452" lon="1.724404">
        <ele>2323.077412</ele>
        <time>2019-08-22T15:00:06.471Z</time>
      </trkpt>
      <trkpt lat="42.540538" lon="1.724503">
        <ele>2322.326695</ele>
        <time>2019-08-22T15:00:07.564Z</time>
      </trkpt>
      <trkpt lat="42.540824" lon="1.724761">
        <ele>2320.051610</ele>
        <time>2019-08-22T15:00:10.902Z</time>
      </trkpt>
      <trkpt lat="42.540919" lon="1.724794">
        <ele>2319.446257</ele>
        <time>2019-08-22T15:00:11.860Z</time>
      </trkpt>
      <trkpt lat="42.541006" lon="1.724816">
        <ele>2318.899950</ele>
        <time>2019-08-22T15:00:12.770Z</time>
      </trkpt>
      <trkpt lat="42.541269" lon="1.724808">
        <ele>2317.276002</ele>
        <time>2019-08-22T15:00:15.180Z</time>
      </trkpt>
      <trkpt lat="42.541608" lon="1.724656">
        <ele>2315.072062</ele>
        <time>2019-08-22T15:00:18.386Z</time>
      </trkpt>
      <trkpt lat="42.541733" lon="1.724796">
        <ele>2314.071612</ele>
        <time>2019-08-22T15:00:19.852Z</time>
      </trkpt>
      <trkpt lat="42.541720" lon="1.724919">
        <ele>2313.506446</ele>
        <time>2019-08-22T15:00:20.676Z</time>
      </trkpt>
      <trkpt lat="42.541646" lon="1.725004">
        <ele>2312.907996</ele>
        <time>2019-08-22T15:00:21.552Z</time>
      </trkpt>
      <trkpt lat="42.541294" lon="1.725060">
        <ele>2310.720168</ele>
        <time>2019-08-22T15:00:24.795Z</time>
      </trkpt>
      <trkpt lat="42.541078" lon="1.725172">
        <ele>2309.292771</ele>
        <time>2019-08-22T15:00:26.907Z</time>
      </trkpt>
      <trkpt lat="42.540889" lon="1.725327">
        <ele>2307.541155</ele>
        <time>2019-08-22T15:00:28.893Z</time>
      </trkpt>
      <trkpt lat="42.540759" lon="1.725398">
        <ele>2306.386383</ele>
        <time>2019-08-22T15:00:30.144Z</time>
      </trkpt>
      <trkpt lat="42.540508" lon="1.725460">
        <ele>2304.283995</ele>
        <time>2019-08-22T15:00:32.443Z</time>
      </trkpt>
      <trkpt lat="42.540286" lon="1.725412">
        <ele>2302.431495</ele>
        <time>2019-08-22T15:00:34.365Z</time>
      </trkpt>
      <trkpt lat="42.540107" lon="1.725314">
        <ele>2300.840919</ele>
        <time>2019-08-22T15:00:36.103Z</time>
      </trkpt>
      <trkpt lat="42.539869" lon="1.725057">
        <ele>2298.334602</ele>
        <time>2019-08-22T15:00:38.729Z</time>
      </trkpt>
      <trkpt lat="42.539631" lon="1.724707">
        <ele>2295.442750</ele>
        <time>2019-08-22T15:00:41.769Z</time>
      </trkpt>
      <trkpt lat="42.539530" lon="1.724495">
        <ele>2293.897311</ele>
        <time>2019-08-22T15:00:43.362Z</time>
      </trkpt>
      <trkpt lat="42.539426" lon="1.724380">
        <ele>2292.752963</ele>
        <time>2019-08-22T15:00:44.666Z</time>
      </trkpt>
      <trkpt lat="42.539307" lon="1.724432">
        <ele>2291.686517</ele>
        <time>2019-08-22T15:00:45.866Z</time>
      </trkpt>
      <trkpt lat="42.539283" lon="1.724477">
        <ele>2291.337354</ele>
        <time>2019-08-22T15:00:46.218Z</time>
      </trkpt>
      <trkpt lat="42.539275" lon="1.724528">
        <ele>2291.009616</ele>
        <time>2019-08-22T15:00:46.534Z</time>
      </trkpt>
      <trkpt lat="42.539296" lon="1.724656">
        <ele>2290.185385</ele>
        <time>2019-08-22T15:00:47.404Z</time>
      </trkpt>
      <trkpt lat="42.539758" lon="1.725498">
        <ele>2283.586885</ele>
        <time>2019-08-22T15:00:54.206Z</time>
      </trkpt>
      <trkpt lat="42.540117" lon="1.725950">
        <ele>2279.409612</ele>
        <time>2019-08-22T15:00:58.522Z</time>
      </trkpt>
      <trkpt lat="42.540237" lon="1.726030">
        <ele>2278.354111</ele>
        <time>2019-08-22T15:00:59.638Z</time>
      </trkpt>
      <trkpt lat="42.540455" lon="1.726107">
        <ele>2276.681877</ele>
        <time>2019-08-22T15:01:01.675Z</time>
      </trkpt>
      <trkpt lat="42.541106" lon="1.726327">
        <ele>2271.701606</ele>
        <time>2019-08-22T15:01:07.647Z</time>
      </trkpt>
      <trkpt lat="42.541408" lon="1.726599">
        <ele>2269.010981</ele>
        <time>2019-08-22T15:01:10.881Z</time>
      </trkpt>
      <trkpt lat="42.541710" lon="1.726968">
        <ele>2265.994437</ele>
        <time>2019-08-22T15:01:14.534Z</time>
      </trkpt>
      <trkpt lat="42.541948" lon="1.727143">
        <ele>2264.197566</ele>
        <time>2019-08-22T15:01:17.087Z</time>
      </trkpt>
      <trkpt lat="42.542950" lon="1.727639">
        <ele>2257.340498</ele>
        <time>2019-08-22T15:01:26.777Z</time>
      </trkpt>
      <trkpt lat="42.543143" lon="1.727651">
        <ele>2256.098373</ele>
        <time>2019-08-22T15:01:28.500Z</time>
      </trkpt>
      <trkpt lat="42.543277" lon="1.727602">
        <ele>2255.206150</ele>
        <time>2019-08-22T15:01:29.803Z</time>
      </trkpt>
      <trkpt lat="42.543386" lon="1.727556">
        <ele>2254.472280</ele>
        <time>2019-08-22T15:01:30.823Z</time>
      </trkpt>
      <trkpt lat="42.543507" lon="1.727605">
        <ele>2253.644702</ele>
        <time>2019-08-22T15:01:31.952Z</time>
      </trkpt>
      <trkpt lat="42.543542" lon="1.727695">
        <ele>2253.140785</ele>
        <time>2019-08-22T15:01:32.659Z</time>
      </trkpt>
      <trkpt lat="42.543514" lon="1.727850">
        <ele>2252.350551</ele>
        <time>2019-08-22T15:01:33.728Z</time>
      </trkpt>
      <trkpt lat="42.543434" lon="1.727913">
        <ele>2251.728944</ele>
        <time>2019-08-22T15:01:34.605Z</time>
      </trkpt>
      <trkpt lat="42.543374" lon="1.727920">
        <ele>2251.324211</ele>
        <time>2019-08-22T15:01:35.116Z</time>
      </trkpt>
      <trkpt lat="42.543199" lon="1.727911">
        <ele>2250.147232</ele>
        <time>2019-08-22T15:01:36.724Z</time>
      </trkpt>
      <trkpt lat="42.542062" lon="1.727780">
        <ele>2242.478233</ele>
        <time>2019-08-22T15:01:46.978Z</time>
      </trkpt>
      <trkpt lat="42.541034" lon="1.727399">
        <ele>2235.444270</ele>
        <time>2019-08-22T15:01:56.629Z</time>
      </trkpt>
      <trkpt lat="42.540747" lon="1.727377">
        <ele>2233.549769</ele>
        <time>2019-08-22T15:01:59.236Z</time>
      </trkpt>
      <trkpt lat="42.540419" lon="1.727386">
        <ele>2231.387627</ele>
        <time>2019-08-22T15:02:02.189Z</time>
      </trkpt>
      <trkpt lat="42.539879" lon="1.727709">
        <ele>2227.984754</ele>
        <time>2019-08-22T15:02:07.549Z</time>
      </trkpt>
      <trkpt lat="42.539493" lon="1.727780">
        <ele>2225.903854</ele>
        <time>2019-08-22T15:02:11.120Z</time>
      </trkpt>
      <trkpt lat="42.538991" lon="1.727576">
        <ele>2223.104488</ele>
        <time>2019-08-22T15:02:16.064Z</time>
      </trkpt>
      <trkpt lat="42.537973" lon="1.726987">
        <ele>2216.826073</ele>
        <time>2019-08-22T15:02:26.792Z</time>
      </trkpt>
      <trkpt lat="42.537839" lon="1.726858">
        <ele>2215.849873</ele>
        <time>2019-08-22T15:02:28.309Z</time>
      </trkpt>
      <trkpt lat="42.537792" lon="1.726808">
        <ele>2215.495026</ele>
        <time>2019-08-22T15:02:29.008Z</time>
      </trkpt>
      <trkpt lat="42.537673" lon="1.726692">
        <ele>2214.624437</ele>
        <time>2019-08-22T15:02:30.343Z</time>
      </trkpt>
      <trkpt lat="42.537616" lon="1.726661">
        <ele>2214.259560</ele>
        <time>2019-08-22T15:02:30.914Z</time>
      </trkpt>
      <trkpt lat="42.537585" lon="1.726647">
        <ele>2214.065428</ele>
        <time>2019-08-22T15:02:31.211Z</time>
      </trkpt>
      <trkpt lat="42.537444" lon="1.726702">
        <ele>2213.193688</ele>
        <time>2019-08-22T15:02:32.569Z</time>
      </trkpt>
      <trkpt lat="42.537406" lon="1.726854">
        <ele>2212.490928</ele>
        <time>2019-08-22T15:02:33.602Z</time>
      </trkpt>
      <trkpt lat="42.537416" lon="1.726929">
        <ele>2212.157225</ele>
        <time>2019-08-22T15:02:34.109Z</time>
      </trkpt>
      <trkpt lat="42.537442" lon="1.726983">
        <ele>2211.874797</ele>
        <time>2019-08-22T15:02:34.531Z</time>
      </trkpt>
      <trkpt lat="42.537478" lon="1.727030">
        <ele>2211.577976</ele>
        <time>2019-08-22T15:02:34.990Z</time>
      </trkpt>
      <trkpt lat="42.537607" lon="1.727165">
        <ele>2210.610036</ele>
        <time>2019-08-22T15:02:36.453Z</time>
      </trkpt>
      <trkpt lat="42.537671" lon="1.727244">
        <ele>2210.095981</ele>
        <time>2019-08-22T15:02:37.188Z</time>
      </trkpt>
      <trkpt lat="42.537909" lon="1.727945">
        <ele>2204.869378</ele>
        <time>2019-08-22T15:02:42.212Z</time>
      </trkpt>
      <trkpt lat="42.538061" lon="1.728180">
        <ele>2202.671911</ele>
        <time>2019-08-22T15:02:44.213Z</time>
      </trkpt>
      <trkpt lat="42.538188" lon="1.728323">
        <ele>2201.098066</ele>
        <time>2019-08-22T15:02:45.623Z</time>
      </trkpt>
      <trkpt lat="42.538401" lon="1.728561">
        <ele>2198.466684</ele>
        <time>2019-08-22T15:02:47.971Z</time>
      </trkpt>
      <trkpt lat="42.538814" lon="1.729017">
        <ele>2193.388894</ele>
        <time>2019-08-22T15:02:52.532Z</time>
      </trkpt>
      <trkpt lat="42.539233" lon="1.729296">
        <ele>2189.300274</ele>
        <time>2019-08-22T15:02:56.586Z</time>
      </trkpt>
      <trkpt lat="42.539983" lon="1.729352">
        <ele>2182.842749</ele>
        <time>2019-08-22T15:03:03.148Z</time>
      </trkpt>
      <trkpt lat="42.541196" lon="1.729784">
        <ele>2171.739965</ele>
        <time>2019-08-22T15:03:14.299Z</time>
      </trkpt>
      <trkpt lat="42.542127" lon="1.729959">
        <ele>2163.149386</ele>
        <time>2019-08-22T15:03:22.419Z</time>
      </trkpt>
      <trkpt lat="42.542576" lon="1.730097">
        <ele>2158.686920</ele>
        <time>2019-08-22T15:03:26.351Z</time>
      </trkpt>
      <trkpt lat="42.543559" lon="1.730425">
        <ele>2148.104227</ele>
        <time>2019-08-22T15:03:34.984Z</time>
      </trkpt>
      <trkpt lat="42.544093" lon="1.730543">
        <ele>2142.448062</ele>
        <time>2019-08-22T15:03:39.627Z</time>
      </trkpt>
      <trkpt lat="42.545057" lon="1.730564">
        <ele>2134.278152</ele>
        <time>2019-08-22T15:03:47.969Z</time>
      </trkpt>
      <trkpt lat="42.545834" lon="1.730740">
        <ele>2127.691037</ele>
        <time>2019-08-22T15:03:54.990Z</time>
      </trkpt>
      <trkpt lat="42.546078" lon="1.730803">
        <ele>2126.118617</ele>
        <time>2019-08-22T15:03:57.216Z</time>
      </trkpt>
      <trkpt lat="42.546257" lon="1.730857">
        <ele>2125.201904</ele>
        <time>2019-08-22T15:03:58.932Z</time>
      </trkpt>
      <trkpt lat="42.546370" lon="1.730888">
        <ele>2124.625559</ele>
        <time>2019-08-22T15:03:59.978Z</time>
      </trkpt>
      <trkpt lat="42.546316" lon="1.730993">
        <ele>2124.153923</ele>
        <time>2019-08-22T15:04:00.808Z</time>
      </trkpt>
      <trkpt lat="42.546092" lon="1.731107">
        <ele>2122.957949</ele>
        <time>2019-08-22T15:04:03.078Z</time>
      </trkpt>
      <trkpt lat="42.545246" lon="1.731033">
        <ele>2118.719757</ele>
        <time>2019-08-22T15:04:11.064Z</time>
      </trkpt>
      <trkpt lat="42.544746" lon="1.731162">
        <ele>2117.374923</ele>
        <time>2019-08-22T15:04:16.548Z</time>
      </trkpt>
      <trkpt lat="42.544724" lon="1.731170">
        <ele>2117.341343</ele>
        <time>2019-08-22T15:04:16.778Z</time>
      </trkpt>
      <trkpt lat="42.544252" lon="1.731324">
        <ele>2116.625617</ele>
        <time>2019-08-22T15:04:22.968Z</time>
      </trkpt>
      <trkpt lat="42.544165" lon="1.731352">
        <ele>2116.493791</ele>
        <time>2019-08-22T15:04:24.778Z</time>
      </trkpt>
      <trkpt lat="42.543511" lon="1.731491">
        <ele>2115.517803</ele>
        <time>2019-08-22T15:04:33.390Z</time>
      </trkpt>
      <trkpt lat="42.543035" lon="1.731892">
        <ele>2113.866316</ele>
        <time>2019-08-22T15:04:39.495Z</time>
      </trkpt>
      <trkpt lat="42.542534" lon="1.732139">
        <ele>2111.863274</ele>
        <time>2019-08-22T15:04:45.042Z</time>
      </trkpt>
      <trkpt lat="42.542455" lon="1.732251">
        <ele>2111.433983</ele>
        <time>2019-08-22T15:04:46.129Z</time>
      </trkpt>
      <trkpt lat="42.542339" lon="1.732503">
        <ele>2110.611291</ele>
        <time>2019-08-22T15:04:48.303Z</time>
      </trkpt>
      <trkpt lat="42.542317" lon="1.732658">
        <ele>2110.174251</ele>
        <time>2019-08-22T15:04:49.426Z</time>
      </trkpt>
      <trkpt lat="42.542314" lon="1.732835">
        <ele>2109.684060</ele>
        <time>2019-08-22T15:04:50.631Z</time>
      </trkpt>
      <trkpt lat="42.542311" lon="1.733257">
        <ele>2108.515612</ele>
        <time>2019-08-22T15:04:53.538Z</time>
      </trkpt>
      <trkpt lat="42.542305" lon="1.733803">
        <ele>2106.011861</ele>
        <time>2019-08-22T15:04:57.169Z</time>
      </trkpt>
      <trkpt lat="42.542396" lon="1.733788">
        <ele>2105.433684</ele>
        <time>2019-08-22T15:04:58.028Z</time>
      </trkpt>
      <trkpt lat="42.542541" lon="1.733789">
        <ele>2104.519121</ele>
        <time>2019-08-22T15:04:59.321Z</time>
      </trkpt>
      <trkpt lat="42.542673" lon="1.733789">
        <ele>2103.686563</ele>
        <time>2019-08-22T15:05:00.460Z</time>
      </trkpt>
      <trkpt lat="42.542905" lon="1.734019">
        <ele>2101.874505</ele>
        <time>2019-08-22T15:05:04.179Z</time>
      </trkpt>
      <trkpt lat="42.542963" lon="1.734076">
        <ele>2101.422857</ele>
        <time>2019-08-22T15:05:05.067Z</time>
      </trkpt>
      <trkpt lat="42.543121" lon="1.734321">
        <ele>2099.909808</ele>
        <time>2019-08-22T15:05:08.247Z</time>
      </trkpt>
      <trkpt lat="42.543373" lon="1.734603">
        <ele>2097.849820</ele>
        <time>2019-08-22T15:05:12.594Z</time>
      </trkpt>
      <trkpt lat="42.543427" lon="1.734664">
        <ele>2097.406700</ele>
        <time>2019-08-22T15:05:13.492Z</time>
      </trkpt>
      <trkpt lat="42.543484" lon="1.734727">
        <ele>2096.995351</ele>
        <time>2019-08-22T15:05:14.432Z</time>
      </trkpt>
      <trkpt lat="42.543576" lon="1.734827">
        <ele>2096.470072</ele>
        <time>2019-08-22T15:05:16.112Z</time>
      </trkpt>
      <trkpt lat="42.543660" lon="1.734920">
        <ele>2095.986970</ele>
        <time>2019-08-22T15:05:17.598Z</time>
      </trkpt>
      <trkpt lat="42.543559" lon="1.735087">
        <ele>2095.277548</ele>
        <time>2019-08-22T15:05:19.064Z</time>
      </trkpt>
      <trkpt lat="42.543384" lon="1.735389">
        <ele>2094.015985</ele>
        <time>2019-08-22T15:05:21.762Z</time>
      </trkpt>
      <trkpt lat="42.543362" lon="1.735451">
        <ele>2093.790030</ele>
        <time>2019-08-22T15:05:22.236Z</time>
      </trkpt>
      <trkpt lat="42.543366" lon="1.735532">
        <ele>2093.523471</ele>
        <time>2019-08-22T15:05:22.843Z</time>
      </trkpt>
      <trkpt lat="42.543396" lon="1.735621">
        <ele>2093.202110</ele>
        <time>2019-08-22T15:05:23.571Z</time>
      </trkpt>
      <trkpt lat="42.543406" lon="1.735639">
        <ele>2093.128088</ele>
        <time>2019-08-22T15:05:23.732Z</time>
      </trkpt>
      <trkpt lat="42.543442" lon="1.735705">
        <ele>2092.858453</ele>
        <time>2019-08-22T15:05:24.309Z</time>
      </trkpt>
      <trkpt lat="42.543492" lon="1.735766">
        <ele>2092.558836</ele>
        <time>2019-08-22T15:05:24.923Z</time>
      </trkpt>
      <trkpt lat="42.543517" lon="1.735797">
        <ele>2092.407926</ele>
        <time>2019-08-22T15:05:25.237Z</time>
      </trkpt>
      <trkpt lat="42.543563" lon="1.735805">
        <ele>2092.201246</ele>
        <time>2019-08-22T15:05:25.670Z</time>
      </trkpt>
      <trkpt lat="42.543663" lon="1.735943">
        <ele>2091.565691</ele>
        <time>2019-08-22T15:05:27.181Z</time>
      </trkpt>
      <trkpt lat="42.543836" lon="1.736144">
        <ele>2090.550804</ele>
        <time>2019-08-22T15:05:29.336Z</time>
      </trkpt>
      <trkpt lat="42.543927" lon="1.736222">
        <ele>2090.071155</ele>
        <time>2019-08-22T15:05:30.467Z</time>
      </trkpt>
      <trkpt lat="42.544639" lon="1.736494">
        <ele>2087.064237</ele>
        <time>2019-08-22T15:05:37.976Z</time>
      </trkpt>
      <trkpt lat="42.546503" lon="1.736858">
        <ele>2078.909108</ele>
        <time>2019-08-22T15:05:56.231Z</time>
      </trkpt>
      <trkpt lat="42.547194" lon="1.737319">
        <ele>2074.883827</ele>
        <time>2019-08-22T15:06:03.413Z</time>
      </trkpt>
      <trkpt lat="42.548300" lon="1.737773">
        <ele>2067.931466</ele>
        <time>2019-08-22T15:06:13.930Z</time>
      </trkpt>
      <trkpt lat="42.548496" lon="1.737789">
        <ele>2066.661160</ele>
        <time>2019-08-22T15:06:15.697Z</time>
      </trkpt>
      <trkpt lat="42.548694" lon="1.737843">
        <ele>2065.354606</ele>
        <time>2019-08-22T15:06:17.509Z</time>
      </trkpt>
      <trkpt lat="42.548838" lon="1.737906">
        <ele>2064.375810</ele>
        <time>2019-08-22T15:06:18.887Z</time>
      </trkpt>
      <trkpt lat="42.548903" lon="1.737946">
        <ele>2063.914099</ele>
        <time>2019-08-22T15:06:19.547Z</time>
      </trkpt>
      <trkpt lat="42.548933" lon="1.738013">
        <ele>2063.540418</ele>
        <time>2019-08-22T15:06:20.060Z</time>
      </trkpt>
      <trkpt lat="42.549087" lon="1.738105">
        <ele>2062.451900</ele>
        <time>2019-08-22T15:06:21.581Z</time>
      </trkpt>
      <trkpt lat="42.549195" lon="1.738052">
        <ele>2061.708939</ele>
        <time>2019-08-22T15:06:22.635Z</time>
      </trkpt>
      <trkpt lat="42.549235" lon="1.737996">
        <ele>2061.337185</ele>
        <time>2019-08-22T15:06:23.151Z</time>
      </trkpt>
      <trkpt lat="42.549295" lon="1.737974">
        <ele>2060.944125</ele>
        <time>2019-08-22T15:06:23.700Z</time>
      </trkpt>
      <trkpt lat="42.549525" lon="1.737968">
        <ele>2059.577249</ele>
        <time>2019-08-22T15:06:25.810Z</time>
      </trkpt>
      <trkpt lat="42.549681" lon="1.737973">
        <ele>2058.650063</ele>
        <time>2019-08-22T15:06:27.205Z</time>
      </trkpt>
      <trkpt lat="42.549841" lon="1.738012">
        <ele>2057.684163</ele>
        <time>2019-08-22T15:06:28.678Z</time>
      </trkpt>
      <trkpt lat="42.550417" lon="1.738267">
        <ele>2054.084243</ele>
        <time>2019-08-22T15:06:34.273Z</time>
      </trkpt>
      <trkpt lat="42.551478" lon="1.738984">
        <ele>2047.187908</ele>
        <time>2019-08-22T15:06:45.278Z</time>
      </trkpt>
      <trkpt lat="42.552590" lon="1.739862">
        <ele>2039.877338</ele>
        <time>2019-08-22T15:06:57.175Z</time>
      </trkpt>
      <trkpt lat="42.553764" lon="1.740976">
        <ele>2031.638780</ele>
        <time>2019-08-22T15:07:10.368Z</time>
      </trkpt>
      <trkpt lat="42.554092" lon="1.741471">
        <ele>2028.873582</ele>
        <time>2019-08-22T15:07:14.921Z</time>
      </trkpt>
      <trkpt lat="42.554758" lon="1.742859">
        <ele>2022.254918</ele>
        <time>2019-08-22T15:07:26.329Z</time>
      </trkpt>
      <trkpt lat="42.555714" lon="1.744245">
        <ele>2014.289496</ele>
        <time>2019-08-22T15:07:39.346Z</time>
      </trkpt>
      <trkpt lat="42.556579" lon="1.745259">
        <ele>2007.318427</ele>
        <time>2019-08-22T15:07:49.826Z</time>
      </trkpt>
      <trkpt lat="42.557086" lon="1.746055">
        <ele>2002.041609</ele>
        <time>2019-08-22T15:07:56.834Z</time>
      </trkpt>
      <trkpt lat="42.557641" lon="1.746729">
        <ele>1996.949369</ele>
        <time>2019-08-22T15:08:03.499Z</time>
      </trkpt>
      <trkpt lat="42.558420" lon="1.747801">
        <ele>1988.941302</ele>
        <time>2019-08-22T15:08:13.387Z</time>
      </trkpt>
      <trkpt lat="42.558625" lon="1.748303">
        <ele>1985.888920</ele>
        <time>2019-08-22T15:08:17.187Z</time>
      </trkpt>
      <trkpt lat="42.558861" lon="1.749285">
        <ele>1981.166688</ele>
        <time>2019-08-22T15:08:24.080Z</time>
      </trkpt>
      <trkpt lat="42.558951" lon="1.749874">
        <ele>1978.588810</ele>
        <time>2019-08-22T15:08:28.151Z</time>
      </trkpt>
      <trkpt lat="42.558834" lon="1.750430">
        <ele>1976.110764</ele>
        <time>2019-08-22T15:08:32.126Z</time>
      </trkpt>
      <trkpt lat="42.558854" lon="1.751411">
        <ele>1972.449269</ele>
        <time>2019-08-22T15:08:39.031Z</time>
      </trkpt>
      <trkpt lat="42.558734" lon="1.751883">
        <ele>1970.892583</ele>
        <time>2019-08-22T15:08:42.571Z</time>
      </trkpt>
      <trkpt lat="42.558940" lon="1.753584">
        <ele>1965.582452</ele>
        <time>2019-08-22T15:08:55.017Z</time>
      </trkpt>
      <trkpt lat="42.558927" lon="1.753954">
        <ele>1964.523637</ele>
        <time>2019-08-22T15:08:57.726Z</time>
      </trkpt>
      <trkpt lat="42.558903" lon="1.754454">
        <ele>1963.091399</ele>
        <time>2019-08-22T15:09:01.438Z</time>
      </trkpt>
      <trkpt lat="42.558978" lon="1.755498">
        <ele>1960.093058</ele>
        <time>2019-08-22T15:09:09.077Z</time>
      </trkpt>
      <trkpt lat="42.559238" lon="1.756684">
        <ele>1955.314082</ele>
        <time>2019-08-22T15:09:17.872Z</time>
      </trkpt>
      <trkpt lat="42.559377" lon="1.757423">
        <ele>1952.150500</ele>
        <time>2019-08-22T15:09:23.018Z</time>
      </trkpt>
      <trkpt lat="42.559411" lon="1.757601">
        <ele>1951.387773</ele>
        <time>2019-08-22T15:09:24.222Z</time>
      </trkpt>
      <trkpt lat="42.559511" lon="1.757870">
        <ele>1950.137969</ele>
        <time>2019-08-22T15:09:26.266Z</time>
      </trkpt>
      <trkpt lat="42.559810" lon="1.758361">
        <ele>1947.002848</ele>
        <time>2019-08-22T15:09:30.493Z</time>
      </trkpt>
      <trkpt lat="42.560008" lon="1.758613">
        <ele>1945.027752</ele>
        <time>2019-08-22T15:09:32.951Z</time>
      </trkpt>
      <trkpt lat="42.560066" lon="1.758771">
        <ele>1944.081462</ele>
        <time>2019-08-22T15:09:34.086Z</time>
      </trkpt>
      <trkpt lat="42.560350" lon="1.759806">
        <ele>1938.161031</ele>
        <time>2019-08-22T15:09:41.395Z</time>
      </trkpt>
      <trkpt lat="42.560420" lon="1.760452">
        <ele>1934.505760</ele>
        <time>2019-08-22T15:09:45.671Z</time>
      </trkpt>
      <trkpt lat="42.560451" lon="1.763487">
        <ele>1914.965110</ele>
        <time>2019-08-22T15:10:05.435Z</time>
      </trkpt>
      <trkpt lat="42.560292" lon="1.764593">
        <ele>1906.297980</ele>
        <time>2019-08-22T15:10:12.470Z</time>
      </trkpt>
      <trkpt lat="42.560283" lon="1.765043">
        <ele>1902.835599</ele>
        <time>2019-08-22T15:10:15.328Z</time>
      </trkpt>
      <trkpt lat="42.560278" lon="1.765095">
        <ele>1902.477291</ele>
        <time>2019-08-22T15:10:15.645Z</time>
      </trkpt>
      <trkpt lat="42.560270" lon="1.765201">
        <ele>1901.758322</ele>
        <time>2019-08-22T15:10:16.305Z</time>
      </trkpt>
      <trkpt lat="42.560184" lon="1.765530">
        <ele>1899.402778</ele>
        <time>2019-08-22T15:10:18.552Z</time>
      </trkpt>
      <trkpt lat="42.560039" lon="1.765803">
        <ele>1897.131770</ele>
        <time>2019-08-22T15:10:20.682Z</time>
      </trkpt>
      <trkpt lat="42.559930" lon="1.765940">
        <ele>1895.771061</ele>
        <time>2019-08-22T15:10:21.925Z</time>
      </trkpt>
      <trkpt lat="42.559829" lon="1.766033">
        <ele>1894.653113</ele>
        <time>2019-08-22T15:10:22.978Z</time>
      </trkpt>
      <trkpt lat="42.559345" lon="1.766326">
        <ele>1889.798570</ele>
        <time>2019-08-22T15:10:27.636Z</time>
      </trkpt>
      <trkpt lat="42.558609" lon="1.767062">
        <ele>1885.611399</ele>
        <time>2019-08-22T15:10:35.937Z</time>
      </trkpt>
      <trkpt lat="42.557982" lon="1.767233">
        <ele>1884.760780</ele>
        <time>2019-08-22T15:10:45.124Z</time>
      </trkpt>
      <trkpt lat="42.557491" lon="1.767472">
        <ele>1884.067003</ele>
        <time>2019-08-22T15:10:58.680Z</time>
      </trkpt>
      <trkpt lat="42.557224" lon="1.767726">
        <ele>1884.311661</ele>
        <time>2019-08-22T15:11:06.166Z</time>
      </trkpt>
      <trkpt lat="42.557051" lon="1.767943">
        <ele>1884.714268</ele>
        <time>2019-08-22T15:11:10.517Z</time>
      </trkpt>
      <trkpt lat="42.556962" lon="1.768078">
        <ele>1884.942378</ele>
        <time>2019-08-22T15:11:15.173Z</time>
      </trkpt>
      <trkpt lat="42.556892" lon="1.768193">
        <ele>1885.130212</ele>
        <time>2019-08-22T15:11:16.505Z</time>
      </trkpt>
      <trkpt lat="42.556835" lon="1.768330">
        <ele>1885.328320</ele>
        <time>2019-08-22T15:11:19.299Z</time>
      </trkpt>
      <trkpt lat="42.556764" lon="1.768586">
        <ele>1885.672734</ele>
        <time>2019-08-22T15:11:25.660Z</time>
      </trkpt>
      <trkpt lat="42.556764" lon="1.768668">
        <ele>1885.775979</ele>
        <time>2019-08-22T15:11:26.213Z</time>
      </trkpt>
      <trkpt lat="42.556888" lon="1.768895">
        <ele>1886.131804</ele>
        <time>2019-08-22T15:11:32.551Z</time>
      </trkpt>
      <trkpt lat="42.557283" lon="1.769056">
        <ele>1886.836750</ele>
        <time>2019-08-22T15:11:41.676Z</time>
      </trkpt>
      <trkpt lat="42.557887" lon="1.769565">
        <ele>1884.933160</ele>
        <time>2019-08-22T15:11:51.359Z</time>
      </trkpt>
      <trkpt lat="42.558124" lon="1.769905">
        <ele>1883.767431</ele>
        <time>2019-08-22T15:11:54.605Z</time>
      </trkpt>
      <trkpt lat="42.558434" lon="1.770687">
        <ele>1881.555906</ele>
        <time>2019-08-22T15:12:00.791Z</time>
      </trkpt>
      <trkpt lat="42.559092" lon="1.771109">
        <ele>1876.887201</ele>
        <time>2019-08-22T15:12:07.434Z</time>
      </trkpt>
      <trkpt lat="42.560073" lon="1.772104">
        <ele>1867.746070</ele>
        <time>2019-08-22T15:12:18.284Z</time>
      </trkpt>
      <trkpt lat="42.560183" lon="1.772298">
        <ele>1866.037531</ele>
        <time>2019-08-22T15:12:19.857Z</time>
      </trkpt>
      <trkpt lat="42.560590" lon="1.773642">
        <ele>1855.407869</ele>
        <time>2019-08-22T15:12:29.089Z</time>
      </trkpt>
      <trkpt lat="42.560956" lon="1.775062">
        <ele>1845.227023</ele>
        <time>2019-08-22T15:12:38.594Z</time>
      </trkpt>
      <trkpt lat="42.560948" lon="1.775442">
        <ele>1842.884177</ele>
        <time>2019-08-22T15:12:41.025Z</time>
      </trkpt>
      <trkpt lat="42.560829" lon="1.775687">
        <ele>1841.075531</ele>
        <time>2019-08-22T15:12:42.916Z</time>
      </trkpt>
      <trkpt lat="42.560770" lon="1.776022">
        <ele>1838.952767</ele>
        <time>2019-08-22T15:12:45.151Z</time>
      </trkpt>
      <trkpt lat="42.561033" lon="1.776357">
        <ele>1835.935344</ele>
        <time>2019-08-22T15:12:48.488Z</time>
      </trkpt>
      <trkpt lat="42.561205" lon="1.776720">
        <ele>1833.769001</ele>
        <time>2019-08-22T15:12:51.444Z</time>
      </trkpt>
      <trkpt lat="42.561155" lon="1.777140">
        <ele>1832.135418</ele>
        <time>2019-08-22T15:12:54.403Z</time>
      </trkpt>
      <trkpt lat="42.561051" lon="1.777353">
        <ele>1831.154194</ele>
        <time>2019-08-22T15:12:56.304Z</time>
      </trkpt>
      <trkpt lat="42.560923" lon="1.777567">
        <ele>1830.095699</ele>
        <time>2019-08-22T15:12:58.140Z</time>
      </trkpt>
      <trkpt lat="42.560670" lon="1.777759">
        <ele>1828.584756</ele>
        <time>2019-08-22T15:13:01.018Z</time>
      </trkpt>
      <trkpt lat="42.560613" lon="1.777842">
        <ele>1828.149028</ele>
        <time>2019-08-22T15:13:01.757Z</time>
      </trkpt>
      <trkpt lat="42.560585" lon="1.777992">
        <ele>1827.554867</ele>
        <time>2019-08-22T15:13:02.977Z</time>
      </trkpt>
      <trkpt lat="42.560600" lon="1.778166">
        <ele>1826.882200</ele>
        <time>2019-08-22T15:13:04.322Z</time>
      </trkpt>
      <trkpt lat="42.560659" lon="1.778274">
        <ele>1826.365904</ele>
        <time>2019-08-22T15:13:05.167Z</time>
      </trkpt>
      <trkpt lat="42.560761" lon="1.778357">
        <ele>1825.745987</ele>
        <time>2019-08-22T15:13:06.427Z</time>
      </trkpt>
      <trkpt lat="42.561669" lon="1.778476">
        <ele>1819.486142</ele>
        <time>2019-08-22T15:13:14.757Z</time>
      </trkpt>
      <trkpt lat="42.562025" lon="1.778668">
        <ele>1816.777031</ele>
        <time>2019-08-22T15:13:18.138Z</time>
      </trkpt>
      <trkpt lat="42.562996" lon="1.779827">
        <ele>1808.000751</ele>
        <time>2019-08-22T15:13:29.546Z</time>
      </trkpt>
      <trkpt lat="42.563051" lon="1.779972">
        <ele>1807.215468</ele>
        <time>2019-08-22T15:13:30.634Z</time>
      </trkpt>
      <trkpt lat="42.563151" lon="1.780831">
        <ele>1803.028239</ele>
        <time>2019-08-22T15:13:36.535Z</time>
      </trkpt>
      <trkpt lat="42.563249" lon="1.781088">
        <ele>1801.634843</ele>
        <time>2019-08-22T15:13:38.528Z</time>
      </trkpt>
      <trkpt lat="42.563796" lon="1.781262">
        <ele>1799.926437</ele>
        <time>2019-08-22T15:13:43.846Z</time>
      </trkpt>
      <trkpt lat="42.564017" lon="1.781440">
        <ele>1799.438637</ele>
        <time>2019-08-22T15:13:46.508Z</time>
      </trkpt>
      <trkpt lat="42.564145" lon="1.781605">
        <ele>1799.103577</ele>
        <time>2019-08-22T15:13:48.406Z</time>
      </trkpt>
      <trkpt lat="42.564325" lon="1.782107">
        <ele>1798.322937</ele>
        <time>2019-08-22T15:13:53.106Z</time>
      </trkpt>
      <trkpt lat="42.564438" lon="1.782109">
        <ele>1798.108406</ele>
        <time>2019-08-22T15:13:54.547Z</time>
      </trkpt>
      <trkpt lat="42.564481" lon="1.782086">
        <ele>1798.020671</ele>
        <time>2019-08-22T15:13:54.983Z</time>
      </trkpt>
      <trkpt lat="42.564687" lon="1.782277">
        <ele>1797.547128</ele>
        <time>2019-08-22T15:13:59.316Z</time>
      </trkpt>
      <trkpt lat="42.565570" lon="1.783146">
        <ele>1801.081437</ele>
        <time>2019-08-22T15:14:26.880Z</time>
      </trkpt>
      <trkpt lat="42.566046" lon="1.783395">
        <ele>1803.064345</ele>
        <time>2019-08-22T15:14:45.724Z</time>
      </trkpt>
      <trkpt lat="42.566355" lon="1.783764">
        <ele>1804.842017</ele>
        <time>2019-08-22T15:15:02.433Z</time>
      </trkpt>
      <trkpt lat="42.567025" lon="1.785003">
        <ele>1811.441077</ele>
        <time>2019-08-22T15:15:48.340Z</time>
      </trkpt>
      <trkpt lat="42.567222" lon="1.785772">
        <ele>1814.894119</ele>
        <time>2019-08-22T15:16:09.633Z</time>
      </trkpt>
      <trkpt lat="42.567400" lon="1.786751">
        <ele>1817.950998</ele>
        <time>2019-08-22T15:16:32.612Z</time>
      </trkpt>
      <trkpt lat="42.567537" lon="1.788128">
        <ele>1822.163196</ele>
        <time>2019-08-22T15:17:02.940Z</time>
      </trkpt>
      <trkpt lat="42.567484" lon="1.788517">
        <ele>1823.764156</ele>
        <time>2019-08-22T15:17:12.126Z</time>
      </trkpt>
      <trkpt lat="42.567091" lon="1.789662">
        <ele>1828.912082</ele>
        <time>2019-08-22T15:17:45.201Z</time>
      </trkpt>
      <trkpt lat="42.566570" lon="1.790688">
        <ele>1834.460940</ele>
        <time>2019-08-22T15:18:24.475Z</time>
      </trkpt>
      <trkpt lat="42.566323" lon="1.792120">
        <ele>1841.983938</ele>
        <time>2019-08-22T15:19:12.137Z</time>
      </trkpt>
      <trkpt lat="42.566366" lon="1.792500">
        <ele>1843.950481</ele>
        <time>2019-08-22T15:19:24.065Z</time>
      </trkpt>
      <trkpt lat="42.566598" lon="1.793222">
        <ele>1847.216751</ele>
        <time>2019-08-22T15:19:47.375Z</time>
      </trkpt>
      <trkpt lat="42.566681" lon="1.793806">
        <ele>1849.564006</ele>
        <time>2019-08-22T15:20:04.010Z</time>
      </trkpt>
      <trkpt lat="42.566802" lon="1.796604">
        <ele>1858.644234</ele>
        <time>2019-08-22T15:21:11.342Z</time>
      </trkpt>
      <trkpt lat="42.566785" lon="1.796798">
        <ele>1859.174613</ele>
        <time>2019-08-22T15:21:15.396Z</time>
      </trkpt>
      <trkpt lat="42.566639" lon="1.797246">
        <ele>1860.504578</ele>
        <time>2019-08-22T15:21:24.151Z</time>
      </trkpt>
      <trkpt lat="42.566609" lon="1.797631">
        <ele>1861.288674</ele>
        <time>2019-08-22T15:21:30.888Z</time>
      </trkpt>
      <trkpt lat="42.566682" lon="1.797969">
        <ele>1861.850817</ele>
        <time>2019-08-22T15:21:36.652Z</time>
      </trkpt>
      <trkpt lat="42.566984" lon="1.798540">
        <ele>1862.972730</ele>
        <time>2019-08-22T15:21:46.465Z</time>
      </trkpt>
      <trkpt lat="42.567016" lon="1.798846">
        <ele>1863.465983</ele>
        <time>2019-08-22T15:21:52.199Z</time>
      </trkpt>
      <trkpt lat="42.567005" lon="1.799033">
        <ele>1863.765372</ele>
        <time>2019-08-22T15:21:54.737Z</time>
      </trkpt>
      <trkpt lat="42.566976" lon="1.799220">
        <ele>1864.070355</ele>
        <time>2019-08-22T15:21:58.702Z</time>
      </trkpt>
      <trkpt lat="42.566853" lon="1.799535">
        <ele>1864.639359</ele>
        <time>2019-08-22T15:22:05.301Z</time>
      </trkpt>
      <trkpt lat="42.566502" lon="1.799884">
        <ele>1866.550658</ele>
        <time>2019-08-22T15:22:17.590Z</time>
      </trkpt>
      <trkpt lat="42.566292" lon="1.800007">
        <ele>1867.664352</ele>
        <time>2019-08-22T15:22:24.105Z</time>
      </trkpt>
      <trkpt lat="42.565669" lon="1.800328">
        <ele>1870.909173</ele>
        <time>2019-08-22T15:22:46.642Z</time>
      </trkpt>
      <trkpt lat="42.564556" lon="1.801069">
        <ele>1878.511142</ele>
        <time>2019-08-22T15:23:39.163Z</time>
      </trkpt>
      <trkpt lat="42.564151" lon="1.801705">
        <ele>1882.922701</ele>
        <time>2019-08-22T15:24:06.266Z</time>
      </trkpt>
      <trkpt lat="42.563748" lon="1.802152">
        <ele>1886.638329</ele>
        <time>2019-08-22T15:24:29.441Z</time>
      </trkpt>
      <trkpt lat="42.563383" lon="1.802663">
        <ele>1890.496339</ele>
        <time>2019-08-22T15:24:53.259Z</time>
      </trkpt>
      <trkpt lat="42.562680" lon="1.803722">
        <ele>1898.223188</ele>
        <time>2019-08-22T15:25:40.299Z</time>
      </trkpt>
      <trkpt lat="42.562325" lon="1.804552">
        <ele>1902.549652</ele>
        <time>2019-08-22T15:26:10.047Z</time>
      </trkpt>
      <trkpt lat="42.561788" lon="1.806867">
        <ele>1911.306825</ele>
        <time>2019-08-22T15:27:13.478Z</time>
      </trkpt>
      <trkpt lat="42.561325" lon="1.807655">
        <ele>1913.500445</ele>
        <time>2019-08-22T15:27:34.202Z</time>
      </trkpt>
      <trkpt lat="42.560679" lon="1.809289">
        <ele>1913.454113</ele>
        <time>2019-08-22T15:27:57.705Z</time>
      </trkpt>
      <trkpt lat="42.560242" lon="1.809947">
        <ele>1912.120658</ele>
        <time>2019-08-22T15:28:04.109Z</time>
      </trkpt>
      <trkpt lat="42.560083" lon="1.810177">
        <ele>1911.645910</ele>
        <time>2019-08-22T15:28:06.383Z</time>
      </trkpt>
      <trkpt lat="42.559879" lon="1.810445">
        <ele>1910.292672</ele>
        <time>2019-08-22T15:28:09.022Z</time>
      </trkpt>
      <trkpt lat="42.559575" lon="1.810965">
        <ele>1907.270659</ele>
        <time>2019-08-22T15:28:13.628Z</time>
      </trkpt>
      <trkpt lat="42.559536" lon="1.811096">
        <ele>1906.627475</ele>
        <time>2019-08-22T15:28:14.523Z</time>
      </trkpt>
      <trkpt lat="42.559491" lon="1.811363">
        <ele>1905.380668</ele>
        <time>2019-08-22T15:28:16.424Z</time>
      </trkpt>
      <trkpt lat="42.559420" lon="1.812477">
        <ele>1900.291965</ele>
        <time>2019-08-22T15:28:23.797Z</time>
      </trkpt>
      <trkpt lat="42.559406" lon="1.812564">
        <ele>1899.898632</ele>
        <time>2019-08-22T15:28:24.369Z</time>
      </trkpt>
      <trkpt lat="42.559375" lon="1.812748">
        <ele>1899.064937</ele>
        <time>2019-08-22T15:28:25.672Z</time>
      </trkpt>
      <trkpt lat="42.559172" lon="1.813526">
        <ele>1895.419359</ele>
        <time>2019-08-22T15:28:31.287Z</time>
      </trkpt>
      <trkpt lat="42.559098" lon="1.813809">
        <ele>1894.092948</ele>
        <time>2019-08-22T15:28:33.347Z</time>
      </trkpt>
      <trkpt lat="42.559047" lon="1.813995">
        <ele>1893.216328</ele>
        <time>2019-08-22T15:28:34.729Z</time>
      </trkpt>
      <trkpt lat="42.558237" lon="1.815682">
        <ele>1884.460139</ele>
        <time>2019-08-22T15:28:48.393Z</time>
      </trkpt>
      <trkpt lat="42.557237" lon="1.817632">
        <ele>1874.045481</ele>
        <time>2019-08-22T15:29:04.561Z</time>
      </trkpt>
      <trkpt lat="42.557086" lon="1.817900">
        <ele>1872.534863</ele>
        <time>2019-08-22T15:29:06.809Z</time>
      </trkpt>
      <trkpt lat="42.556961" lon="1.818111">
        <ele>1871.322589</ele>
        <time>2019-08-22T15:29:08.671Z</time>
      </trkpt>
      <trkpt lat="42.556653" lon="1.818669">
        <ele>1868.200800</ele>
        <time>2019-08-22T15:29:13.338Z</time>
      </trkpt>
      <trkpt lat="42.556506" lon="1.818946">
        <ele>1866.626612</ele>
        <time>2019-08-22T15:29:15.659Z</time>
      </trkpt>
      <trkpt lat="42.556225" lon="1.819426">
        <ele>1863.794596</ele>
        <time>2019-08-22T15:29:19.761Z</time>
      </trkpt>
      <trkpt lat="42.555156" lon="1.821070">
        <ele>1853.818062</ele>
        <time>2019-08-22T15:29:34.525Z</time>
      </trkpt>
      <trkpt lat="42.554406" lon="1.822381">
        <ele>1846.519495</ele>
        <time>2019-08-22T15:29:45.748Z</time>
      </trkpt>
      <trkpt lat="42.554004" lon="1.823166">
        <ele>1843.256960</ele>
        <time>2019-08-22T15:29:52.351Z</time>
      </trkpt>
      <trkpt lat="42.553751" lon="1.824125">
        <ele>1839.891935</ele>
        <time>2019-08-22T15:29:59.586Z</time>
      </trkpt>
      <trkpt lat="42.553601" lon="1.824149">
        <ele>1839.214612</ele>
        <time>2019-08-22T15:30:01.065Z</time>
      </trkpt>
      <trkpt lat="42.553534" lon="1.824055">
        <ele>1838.782523</ele>
        <time>2019-08-22T15:30:02.028Z</time>
      </trkpt>
      <trkpt lat="42.553515" lon="1.823915">
        <ele>1838.312257</ele>
        <time>2019-08-22T15:30:03.082Z</time>
      </trkpt>
      <trkpt lat="42.553562" lon="1.823752">
        <ele>1837.840337</ele>
        <time>2019-08-22T15:30:04.374Z</time>
      </trkpt>
      <trkpt lat="42.553892" lon="1.823166">
        <ele>1836.266633</ele>
        <time>2019-08-22T15:30:10.045Z</time>
      </trkpt>
      <trkpt lat="42.554561" lon="1.821462">
        <ele>1832.042522</ele>
        <time>2019-08-22T15:30:24.943Z</time>
      </trkpt>
      <trkpt lat="42.555407" lon="1.819207">
        <ele>1825.694475</ele>
        <time>2019-08-22T15:30:43.625Z</time>
      </trkpt>
      <trkpt lat="42.555771" lon="1.818062">
        <ele>1822.266878</ele>
        <time>2019-08-22T15:30:52.694Z</time>
      </trkpt>
      <trkpt lat="42.555825" lon="1.817188">
        <ele>1819.923474</ele>
        <time>2019-08-22T15:30:59.005Z</time>
      </trkpt>
      <trkpt lat="42.556035" lon="1.816466">
        <ele>1818.376052</ele>
        <time>2019-08-22T15:31:04.791Z</time>
      </trkpt>
      <trkpt lat="42.556045" lon="1.816249">
        <ele>1817.942625</ele>
        <time>2019-08-22T15:31:06.415Z</time>
      </trkpt>
      <trkpt lat="42.555977" lon="1.815889">
        <ele>1817.201759</ele>
        <time>2019-08-22T15:31:09.441Z</time>
      </trkpt>
      <trkpt lat="42.555908" lon="1.815746">
        <ele>1816.860979</ele>
        <time>2019-08-22T15:31:10.786Z</time>
      </trkpt>
      <trkpt lat="42.555762" lon="1.815441">
        <ele>1816.135867</ele>
        <time>2019-08-22T15:31:14.297Z</time>
      </trkpt>
      <trkpt lat="42.555387" lon="1.814489">
        <ele>1813.949076</ele>
        <time>2019-08-22T15:31:22.536Z</time>
      </trkpt>
      <trkpt lat="42.555263" lon="1.814341">
        <ele>1813.489841</ele>
        <time>2019-08-22T15:31:24.548Z</time>
      </trkpt>
      <trkpt lat="42.555104" lon="1.814196">
        <ele>1812.957081</ele>
        <time>2019-08-22T15:31:26.420Z</time>
      </trkpt>
      <trkpt lat="42.554970" lon="1.814120">
        <ele>1812.553156</ele>
        <time>2019-08-22T15:31:28.138Z</time>
      </trkpt>
      <trkpt lat="42.554840" lon="1.814113">
        <ele>1812.191292</ele>
        <time>2019-08-22T15:31:29.835Z</time>
      </trkpt>
      <trkpt lat="42.554787" lon="1.814148">
        <ele>1812.027362</ele>
        <time>2019-08-22T15:31:30.343Z</time>
      </trkpt>
      <trkpt lat="42.554707" lon="1.814229">
        <ele>1811.749778</ele>
        <time>2019-08-22T15:31:31.496Z</time>
      </trkpt>
      <trkpt lat="42.554229" lon="1.815219">
        <ele>1808.451739</ele>
        <time>2019-08-22T15:31:40.392Z</time>
      </trkpt>
      <trkpt lat="42.554015" lon="1.815509">
        <ele>1806.800638</ele>
        <time>2019-08-22T15:31:43.287Z</time>
      </trkpt>
      <trkpt lat="42.553156" lon="1.816041">
        <ele>1801.645066</ele>
        <time>2019-08-22T15:31:51.872Z</time>
      </trkpt>
      <trkpt lat="42.552701" lon="1.816190">
        <ele>1798.648791</ele>
        <time>2019-08-22T15:31:56.069Z</time>
      </trkpt>
      <trkpt lat="42.552628" lon="1.816364">
        <ele>1797.574536</ele>
        <time>2019-08-22T15:31:57.466Z</time>
      </trkpt>
      <trkpt lat="42.552639" lon="1.816491">
        <ele>1796.888509</ele>
        <time>2019-08-22T15:31:58.313Z</time>
      </trkpt>
      <trkpt lat="42.552692" lon="1.816596">
        <ele>1796.205649</ele>
        <time>2019-08-22T15:31:59.120Z</time>
      </trkpt>
      <trkpt lat="42.552863" lon="1.816647">
        <ele>1794.930607</ele>
        <time>2019-08-22T15:32:00.785Z</time>
      </trkpt>
      <trkpt lat="42.553542" lon="1.816515">
        <ele>1789.935215</ele>
        <time>2019-08-22T15:32:06.863Z</time>
      </trkpt>
      <trkpt lat="42.553725" lon="1.816504">
        <ele>1788.601178</ele>
        <time>2019-08-22T15:32:08.473Z</time>
      </trkpt>
      <trkpt lat="42.553823" lon="1.816529">
        <ele>1787.874983</ele>
        <time>2019-08-22T15:32:09.342Z</time>
      </trkpt>
      <trkpt lat="42.554090" lon="1.816847">
        <ele>1785.275637</ele>
        <time>2019-08-22T15:32:12.465Z</time>
      </trkpt>
      <trkpt lat="42.554202" lon="1.817198">
        <ele>1783.210792</ele>
        <time>2019-08-22T15:32:15.013Z</time>
      </trkpt>
      <trkpt lat="42.554208" lon="1.817400">
        <ele>1782.119496</ele>
        <time>2019-08-22T15:32:16.340Z</time>
      </trkpt>
      <trkpt lat="42.554168" lon="1.817594">
        <ele>1781.032021</ele>
        <time>2019-08-22T15:32:17.653Z</time>
      </trkpt>
      <trkpt lat="42.553977" lon="1.818179">
        <ele>1777.577864</ele>
        <time>2019-08-22T15:32:21.869Z</time>
      </trkpt>
      <trkpt lat="42.553792" lon="1.818765">
        <ele>1774.136319</ele>
        <time>2019-08-22T15:32:26.141Z</time>
      </trkpt>
      <trkpt lat="42.553642" lon="1.819377">
        <ele>1771.248620</ele>
        <time>2019-08-22T15:32:30.426Z</time>
      </trkpt>
      <trkpt lat="42.553463" lon="1.819994">
        <ele>1768.280825</ele>
        <time>2019-08-22T15:32:34.957Z</time>
      </trkpt>
      <trkpt lat="42.553134" lon="1.820522">
        <ele>1765.185772</ele>
        <time>2019-08-22T15:32:39.632Z</time>
      </trkpt>
      <trkpt lat="42.552900" lon="1.821270">
        <ele>1761.383436</ele>
        <time>2019-08-22T15:32:45.194Z</time>
      </trkpt>
      <trkpt lat="42.552521" lon="1.821903">
        <ele>1757.367764</ele>
        <time>2019-08-22T15:32:50.783Z</time>
      </trkpt>
      <trkpt lat="42.551902" lon="1.823196">
        <ele>1749.405060</ele>
        <time>2019-08-22T15:33:00.915Z</time>
      </trkpt>
      <trkpt lat="42.551814" lon="1.823594">
        <ele>1746.819182</ele>
        <time>2019-08-22T15:33:03.610Z</time>
      </trkpt>
      <trkpt lat="42.551767" lon="1.823795">
        <ele>1745.506872</ele>
        <time>2019-08-22T15:33:04.925Z</time>
      </trkpt>
      <trkpt lat="42.551688" lon="1.824036">
        <ele>1743.865368</ele>
        <time>2019-08-22T15:33:06.719Z</time>
      </trkpt>
      <trkpt lat="42.551650" lon="1.824120">
        <ele>1743.251946</ele>
        <time>2019-08-22T15:33:07.361Z</time>
      </trkpt>
      <trkpt lat="42.551640" lon="1.824143">
        <ele>1743.085749</ele>
        <time>2019-08-22T15:33:07.536Z</time>
      </trkpt>
      <trkpt lat="42.551484" lon="1.824362">
        <ele>1741.189993</ele>
        <time>2019-08-22T15:33:09.570Z</time>
      </trkpt>
      <trkpt lat="42.551328" lon="1.824799">
        <ele>1738.168084</ele>
        <time>2019-08-22T15:33:12.693Z</time>
      </trkpt>
      <trkpt lat="42.551157" lon="1.826658">
        <ele>1727.691543</ele>
        <time>2019-08-22T15:33:24.863Z</time>
      </trkpt>
      <trkpt lat="42.551217" lon="1.828189">
        <ele>1720.627063</ele>
        <time>2019-08-22T15:33:35.270Z</time>
      </trkpt>
      <trkpt lat="42.551339" lon="1.829337">
        <ele>1716.736876</ele>
        <time>2019-08-22T15:33:43.435Z</time>
      </trkpt>
      <trkpt lat="42.551277" lon="1.830629">
        <ele>1713.567590</ele>
        <time>2019-08-22T15:33:53.104Z</time>
      </trkpt>
      <trkpt lat="42.551368" lon="1.831308">
        <ele>1712.542534</ele>
        <time>2019-08-22T15:33:59.645Z</time>
      </trkpt>
      <trkpt lat="42.551639" lon="1.832043">
        <ele>1711.321758</ele>
        <time>2019-08-22T15:34:06.420Z</time>
      </trkpt>
      <trkpt lat="42.551674" lon="1.832438">
        <ele>1710.581593</ele>
        <time>2019-08-22T15:34:10.321Z</time>
      </trkpt>
      <trkpt lat="42.551654" lon="1.832597">
        <ele>1710.091637</ele>
        <time>2019-08-22T15:34:11.485Z</time>
      </trkpt>
      <trkpt lat="42.551607" lon="1.832834">
        <ele>1709.346115</ele>
        <time>2019-08-22T15:34:13.522Z</time>
      </trkpt>
      <trkpt lat="42.551568" lon="1.832927">
        <ele>1709.021060</ele>
        <time>2019-08-22T15:34:14.844Z</time>
      </trkpt>
      <trkpt lat="42.551540" lon="1.832972">
        <ele>1708.842138</ele>
        <time>2019-08-22T15:34:15.204Z</time>
      </trkpt>
      <trkpt lat="42.551199" lon="1.833103">
        <ele>1707.380861</ele>
        <time>2019-08-22T15:34:18.834Z</time>
      </trkpt>
      <trkpt lat="42.551039" lon="1.833271">
        <ele>1706.546798</ele>
        <time>2019-08-22T15:34:20.933Z</time>
      </trkpt>
      <trkpt lat="42.550703" lon="1.835400">
        <ele>1697.749619</ele>
        <time>2019-08-22T15:34:35.594Z</time>
      </trkpt>
      <trkpt lat="42.550631" lon="1.835731">
        <ele>1696.051742</ele>
        <time>2019-08-22T15:34:37.870Z</time>
      </trkpt>
      <trkpt lat="42.550424" lon="1.836145">
        <ele>1693.590230</ele>
        <time>2019-08-22T15:34:41.163Z</time>
      </trkpt>
      <trkpt lat="42.550363" lon="1.836370">
        <ele>1692.410747</ele>
        <time>2019-08-22T15:34:42.749Z</time>
      </trkpt>
      <trkpt lat="42.550134" lon="1.837982">
        <ele>1685.395196</ele>
        <time>2019-08-22T15:34:53.815Z</time>
      </trkpt>
      <trkpt lat="42.550011" lon="1.840329">
        <ele>1676.783903</ele>
        <time>2019-08-22T15:35:10.414Z</time>
      </trkpt>
      <trkpt lat="42.550060" lon="1.840968">
        <ele>1674.680610</ele>
        <time>2019-08-22T15:35:15.039Z</time>
      </trkpt>
      <trkpt lat="42.550223" lon="1.841572">
        <ele>1672.554335</ele>
        <time>2019-08-22T15:35:19.605Z</time>
      </trkpt>
      <trkpt lat="42.550174" lon="1.841842">
        <ele>1671.615811</ele>
        <time>2019-08-22T15:35:21.619Z</time>
      </trkpt>
      <trkpt lat="42.550085" lon="1.841922">
        <ele>1671.126764</ele>
        <time>2019-08-22T15:35:22.655Z</time>
      </trkpt>
      <trkpt lat="42.549974" lon="1.841933">
        <ele>1670.616866</ele>
        <time>2019-08-22T15:35:23.661Z</time>
      </trkpt>
      <trkpt lat="42.549896" lon="1.841862">
        <ele>1670.186602</ele>
        <time>2019-08-22T15:35:24.616Z</time>
      </trkpt>
      <trkpt lat="42.549852" lon="1.841659">
        <ele>1669.472411</ele>
        <time>2019-08-22T15:35:26.146Z</time>
      </trkpt>
      <trkpt lat="42.549887" lon="1.840698">
        <ele>1666.224952</ele>
        <time>2019-08-22T15:35:32.917Z</time>
      </trkpt>
      <trkpt lat="42.549806" lon="1.840049">
        <ele>1664.061431</ele>
        <time>2019-08-22T15:35:37.441Z</time>
      </trkpt>
      <trkpt lat="42.549662" lon="1.837239">
        <ele>1655.444496</ele>
        <time>2019-08-22T15:35:57.681Z</time>
      </trkpt>
      <trkpt lat="42.549646" lon="1.836537">
        <ele>1653.561528</ele>
        <time>2019-08-22T15:36:02.819Z</time>
      </trkpt>
      <trkpt lat="42.549741" lon="1.834816">
        <ele>1648.677385</ele>
        <time>2019-08-22T15:36:15.718Z</time>
      </trkpt>
      <trkpt lat="42.549698" lon="1.833021">
        <ele>1643.155717</ele>
        <time>2019-08-22T15:36:28.391Z</time>
      </trkpt>
      <trkpt lat="42.549707" lon="1.832898">
        <ele>1642.754919</ele>
        <time>2019-08-22T15:36:29.203Z</time>
      </trkpt>
      <trkpt lat="42.549743" lon="1.832728">
        <ele>1642.181362</ele>
        <time>2019-08-22T15:36:30.604Z</time>
      </trkpt>
      <trkpt lat="42.549765" lon="1.832590">
        <ele>1641.723531</ele>
        <time>2019-08-22T15:36:31.679Z</time>
      </trkpt>
      <trkpt lat="42.549764" lon="1.832455">
        <ele>1641.285764</ele>
        <time>2019-08-22T15:36:32.543Z</time>
      </trkpt>
      <trkpt lat="42.549733" lon="1.832356">
        <ele>1640.936955</ele>
        <time>2019-08-22T15:36:33.456Z</time>
      </trkpt>
      <trkpt lat="42.549595" lon="1.832231">
        <ele>1640.206728</ele>
        <time>2019-08-22T15:36:35.247Z</time>
      </trkpt>
      <trkpt lat="42.549291" lon="1.832097">
        <ele>1638.799885</ele>
        <time>2019-08-22T15:36:38.296Z</time>
      </trkpt>
      <trkpt lat="42.549218" lon="1.832054">
        <ele>1638.449626</ele>
        <time>2019-08-22T15:36:39.101Z</time>
      </trkpt>
      <trkpt lat="42.549069" lon="1.831905">
        <ele>1637.635047</ele>
        <time>2019-08-22T15:36:40.797Z</time>
      </trkpt>
      <trkpt lat="42.549016" lon="1.831732">
        <ele>1637.027506</ele>
        <time>2019-08-22T15:36:42.242Z</time>
      </trkpt>
      <trkpt lat="42.549010" lon="1.831608">
        <ele>1636.624557</ele>
        <time>2019-08-22T15:36:43.050Z</time>
      </trkpt>
      <trkpt lat="42.549014" lon="1.831540">
        <ele>1636.403359</ele>
        <time>2019-08-22T15:36:43.515Z</time>
      </trkpt>
      <trkpt lat="42.549118" lon="1.830754">
        <ele>1633.780466</ele>
        <time>2019-08-22T15:36:49.243Z</time>
      </trkpt>
      <trkpt lat="42.549125" lon="1.830700">
        <ele>1633.598593</ele>
        <time>2019-08-22T15:36:49.785Z</time>
      </trkpt>
      <trkpt lat="42.549143" lon="1.830563">
        <ele>1633.136987</ele>
        <time>2019-08-22T15:36:50.754Z</time>
      </trkpt>
      <trkpt lat="42.549150" lon="1.830308">
        <ele>1632.290552</ele>
        <time>2019-08-22T15:36:52.615Z</time>
      </trkpt>
      <trkpt lat="42.548927" lon="1.829248">
        <ele>1628.633916</ele>
        <time>2019-08-22T15:37:00.719Z</time>
      </trkpt>
      <trkpt lat="42.548850" lon="1.828352">
        <ele>1625.229677</ele>
        <time>2019-08-22T15:37:06.799Z</time>
      </trkpt>
      <trkpt lat="42.548796" lon="1.827984">
        <ele>1623.649764</ele>
        <time>2019-08-22T15:37:09.260Z</time>
      </trkpt>
      <trkpt lat="42.548752" lon="1.827749">
        <ele>1622.628832</ele>
        <time>2019-08-22T15:37:10.918Z</time>
      </trkpt>
      <trkpt lat="42.548734" lon="1.827583">
        <ele>1621.922353</ele>
        <time>2019-08-22T15:37:12.035Z</time>
      </trkpt>
      <trkpt lat="42.548660" lon="1.827410">
        <ele>1621.080048</ele>
        <time>2019-08-22T15:37:13.460Z</time>
      </trkpt>
      <trkpt lat="42.548610" lon="1.827347">
        <ele>1620.690139</ele>
        <time>2019-08-22T15:37:14.076Z</time>
      </trkpt>
      <trkpt lat="42.548571" lon="1.827306">
        <ele>1620.408206</ele>
        <time>2019-08-22T15:37:14.506Z</time>
      </trkpt>
      <trkpt lat="42.548377" lon="1.827166">
        <ele>1619.152465</ele>
        <time>2019-08-22T15:37:16.618Z</time>
      </trkpt>
      <trkpt lat="42.548287" lon="1.827149">
        <ele>1618.633124</ele>
        <time>2019-08-22T15:37:17.472Z</time>
      </trkpt>
      <trkpt lat="42.548133" lon="1.827043">
        <ele>1617.646261</ele>
        <time>2019-08-22T15:37:19.032Z</time>
      </trkpt>
      <trkpt lat="42.547853" lon="1.826854">
        <ele>1616.428632</ele>
        <time>2019-08-22T15:37:21.996Z</time>
      </trkpt>
      <trkpt lat="42.547785" lon="1.826805">
        <ele>1616.231415</ele>
        <time>2019-08-22T15:37:22.692Z</time>
      </trkpt>
      <trkpt lat="42.547669" lon="1.826673">
        <ele>1615.843656</ele>
        <time>2019-08-22T15:37:24.247Z</time>
      </trkpt>
      <trkpt lat="42.547390" lon="1.825832">
        <ele>1614.103009</ele>
        <time>2019-08-22T15:37:30.895Z</time>
      </trkpt>
      <trkpt lat="42.547334" lon="1.825745">
        <ele>1613.884980</ele>
        <time>2019-08-22T15:37:31.847Z</time>
      </trkpt>
      <trkpt lat="42.547267" lon="1.825683">
        <ele>1613.677259</ele>
        <time>2019-08-22T15:37:32.785Z</time>
      </trkpt>
      <trkpt lat="42.547175" lon="1.825630">
        <ele>1613.421238</ele>
        <time>2019-08-22T15:37:33.830Z</time>
      </trkpt>
      <trkpt lat="42.547019" lon="1.825555">
        <ele>1612.997293</ele>
        <time>2019-08-22T15:37:37.001Z</time>
      </trkpt>
      <trkpt lat="42.546820" lon="1.825459">
        <ele>1612.456284</ele>
        <time>2019-08-22T15:37:40.718Z</time>
      </trkpt>
      <trkpt lat="42.546611" lon="1.825370">
        <ele>1612.465869</ele>
        <time>2019-08-22T15:37:45.394Z</time>
      </trkpt>
      <trkpt lat="42.546449" lon="1.825331">
        <ele>1612.663315</ele>
        <time>2019-08-22T15:37:48.570Z</time>
      </trkpt>
      <trkpt lat="42.546120" lon="1.825368">
        <ele>1613.059491</ele>
        <time>2019-08-22T15:37:55.562Z</time>
      </trkpt>
      <trkpt lat="42.545999" lon="1.825420">
        <ele>1613.211805</ele>
        <time>2019-08-22T15:37:57.659Z</time>
      </trkpt>
      <trkpt lat="42.545925" lon="1.825482">
        <ele>1613.316166</ele>
        <time>2019-08-22T15:37:59.791Z</time>
      </trkpt>
      <trkpt lat="42.545866" lon="1.825552">
        <ele>1613.410206</ele>
        <time>2019-08-22T15:38:01.667Z</time>
      </trkpt>
      <trkpt lat="42.545814" lon="1.825651">
        <ele>1613.517703</ele>
        <time>2019-08-22T15:38:03.075Z</time>
      </trkpt>
      <trkpt lat="42.545719" lon="1.825913">
        <ele>1613.775882</ele>
        <time>2019-08-22T15:38:07.474Z</time>
      </trkpt>
      <trkpt lat="42.545685" lon="1.826003">
        <ele>1613.865306</ele>
        <time>2019-08-22T15:38:09.397Z</time>
      </trkpt>
      <trkpt lat="42.545517" lon="1.826111">
        <ele>1614.088387</ele>
        <time>2019-08-22T15:38:12.432Z</time>
      </trkpt>
      <trkpt lat="42.544927" lon="1.826021">
        <ele>1614.274024</ele>
        <time>2019-08-22T15:38:25.109Z</time>
      </trkpt>
      <trkpt lat="42.544210" lon="1.826222">
        <ele>1613.861695</ele>
        <time>2019-08-22T15:38:37.867Z</time>
      </trkpt>
      <trkpt lat="42.543712" lon="1.826529">
        <ele>1613.553654</ele>
        <time>2019-08-22T15:38:43.832Z</time>
      </trkpt>
      <trkpt lat="42.542590" lon="1.827058">
        <ele>1609.767262</ele>
        <time>2019-08-22T15:38:55.863Z</time>
      </trkpt>
      <trkpt lat="42.541743" lon="1.827530">
        <ele>1606.063157</ele>
        <time>2019-08-22T15:39:04.676Z</time>
      </trkpt>
      <trkpt lat="42.541109" lon="1.827746">
        <ele>1601.745442</ele>
        <time>2019-08-22T15:39:10.702Z</time>
      </trkpt>
      <trkpt lat="42.540978" lon="1.827738">
        <ele>1600.879265</ele>
        <time>2019-08-22T15:39:11.893Z</time>
      </trkpt>
      <trkpt lat="42.540636" lon="1.827600">
        <ele>1598.522512</ele>
        <time>2019-08-22T15:39:15.105Z</time>
      </trkpt>
      <trkpt lat="42.540169" lon="1.827281">
        <ele>1595.069154</ele>
        <time>2019-08-22T15:39:19.740Z</time>
      </trkpt>
      <trkpt lat="42.539870" lon="1.826808">
        <ele>1591.816756</ele>
        <time>2019-08-22T15:39:23.745Z</time>
      </trkpt>
      <trkpt lat="42.539441" lon="1.825874">
        <ele>1586.025381</ele>
        <time>2019-08-22T15:39:30.923Z</time>
      </trkpt>
      <trkpt lat="42.539132" lon="1.825567">
        <ele>1583.290562</ele>
        <time>2019-08-22T15:39:34.427Z</time>
      </trkpt>
      <trkpt lat="42.538859" lon="1.825382">
        <ele>1581.479067</ele>
        <time>2019-08-22T15:39:37.269Z</time>
      </trkpt>
      <trkpt lat="42.538579" lon="1.825188">
        <ele>1580.291105</ele>
        <time>2019-08-22T15:39:40.453Z</time>
      </trkpt>
      <trkpt lat="42.538426" lon="1.825082">
        <ele>1579.641977</ele>
        <time>2019-08-22T15:39:42.123Z</time>
      </trkpt>
      <trkpt lat="42.537462" lon="1.824495">
        <ele>1575.649377</ele>
        <time>2019-08-22T15:39:52.552Z</time>
      </trkpt>
      <trkpt lat="42.537276" lon="1.824422">
        <ele>1574.922928</ele>
        <time>2019-08-22T15:39:56.310Z</time>
      </trkpt>
      <trkpt lat="42.537130" lon="1.824369">
        <ele>1574.368548</ele>
        <time>2019-08-22T15:39:57.675Z</time>
      </trkpt>
      <trkpt lat="42.536820" lon="1.824215">
        <ele>1573.157628</ele>
        <time>2019-08-22T15:40:01.128Z</time>
      </trkpt>
      <trkpt lat="42.536790" lon="1.824027">
        <ele>1572.637710</ele>
        <time>2019-08-22T15:40:02.872Z</time>
      </trkpt>
      <trkpt lat="42.536859" lon="1.823862">
        <ele>1572.124921</ele>
        <time>2019-08-22T15:40:04.702Z</time>
      </trkpt>
      <trkpt lat="42.536871" lon="1.823831">
        <ele>1572.030273</ele>
        <time>2019-08-22T15:40:04.915Z</time>
      </trkpt>
      <trkpt lat="42.536852" lon="1.823759">
        <ele>1571.823563</ele>
        <time>2019-08-22T15:40:05.426Z</time>
      </trkpt>
      <trkpt lat="42.536787" lon="1.823660">
        <ele>1571.465164</ele>
        <time>2019-08-22T15:40:06.519Z</time>
      </trkpt>
      <trkpt lat="42.536742" lon="1.823634">
        <ele>1571.285759</ele>
        <time>2019-08-22T15:40:07.146Z</time>
      </trkpt>
      <trkpt lat="42.536250" lon="1.823370">
        <ele>1569.345076</ele>
        <time>2019-08-22T15:40:12.174Z</time>
      </trkpt>
      <trkpt lat="42.535526" lon="1.823119">
        <ele>1566.637999</ele>
        <time>2019-08-22T15:40:19.202Z</time>
      </trkpt>
      <trkpt lat="42.534806" lon="1.822725">
        <ele>1563.841360</ele>
        <time>2019-08-22T15:40:27.253Z</time>
      </trkpt>
      <trkpt lat="42.534733" lon="1.822685">
        <ele>1563.557760</ele>
        <time>2019-08-22T15:40:28.055Z</time>
      </trkpt>
      <trkpt lat="42.533367" lon="1.822149">
        <ele>1558.399792</ele>
        <time>2019-08-22T15:40:42.354Z</time>
      </trkpt>
      <trkpt lat="42.532578" lon="1.821618">
        <ele>1555.112637</ele>
        <time>2019-08-22T15:40:51.002Z</time>
      </trkpt>
      <trkpt lat="42.532067" lon="1.821517">
        <ele>1552.674562</ele>
        <time>2019-08-22T15:40:55.963Z</time>
      </trkpt>
      <trkpt lat="42.531754" lon="1.821549">
        <ele>1551.192586</ele>
        <time>2019-08-22T15:40:58.938Z</time>
      </trkpt>
      <trkpt lat="42.531238" lon="1.821778">
        <ele>1548.629386</ele>
        <time>2019-08-22T15:41:04.065Z</time>
      </trkpt>
      <trkpt lat="42.530902" lon="1.822065">
        <ele>1546.719029</ele>
        <time>2019-08-22T15:41:07.803Z</time>
      </trkpt>
      <trkpt lat="42.529210" lon="1.823826">
        <ele>1534.510983</ele>
        <time>2019-08-22T15:41:27.645Z</time>
      </trkpt>
      <trkpt lat="42.528758" lon="1.824134">
        <ele>1531.012452</ele>
        <time>2019-08-22T15:41:32.185Z</time>
      </trkpt>
      <trkpt lat="42.528532" lon="1.824211">
        <ele>1529.400692</ele>
        <time>2019-08-22T15:41:34.243Z</time>
      </trkpt>
      <trkpt lat="42.528308" lon="1.824238">
        <ele>1527.845187</ele>
        <time>2019-08-22T15:41:36.226Z</time>
      </trkpt>
      <trkpt lat="42.528090" lon="1.824231">
        <ele>1526.336863</ele>
        <time>2019-08-22T15:41:38.191Z</time>
      </trkpt>
      <trkpt lat="42.527903" lon="1.824216">
        <ele>1525.041129</ele>
        <time>2019-08-22T15:41:39.833Z</time>
      </trkpt>
      <trkpt lat="42.527773" lon="1.824189">
        <ele>1524.212717</ele>
        <time>2019-08-22T15:41:41.041Z</time>
      </trkpt>
      <trkpt lat="42.527680" lon="1.824169">
        <ele>1523.652620</ele>
        <time>2019-08-22T15:41:41.875Z</time>
      </trkpt>
      <trkpt lat="42.527454" lon="1.824100">
        <ele>1522.274694</ele>
        <time>2019-08-22T15:41:43.938Z</time>
      </trkpt>
      <trkpt lat="42.527262" lon="1.823982">
        <ele>1521.020938</ele>
        <time>2019-08-22T15:41:45.801Z</time>
      </trkpt>
      <trkpt lat="42.527132" lon="1.823856">
        <ele>1520.070653</ele>
        <time>2019-08-22T15:41:47.255Z</time>
      </trkpt>
      <trkpt lat="42.526934" lon="1.823644">
        <ele>1518.570387</ele>
        <time>2019-08-22T15:41:49.521Z</time>
      </trkpt>
      <trkpt lat="42.526695" lon="1.823430">
        <ele>1516.867119</ele>
        <time>2019-08-22T15:41:52.206Z</time>
      </trkpt>
      <trkpt lat="42.526477" lon="1.823323">
        <ele>1515.488160</ele>
        <time>2019-08-22T15:41:54.412Z</time>
      </trkpt>
      <trkpt lat="42.526331" lon="1.823256">
        <ele>1514.571385</ele>
        <time>2019-08-22T15:41:55.866Z</time>
      </trkpt>
      <trkpt lat="42.526129" lon="1.823189">
        <ele>1513.793422</ele>
        <time>2019-08-22T15:41:57.959Z</time>
      </trkpt>
      <trkpt lat="42.525955" lon="1.823137">
        <ele>1513.450608</ele>
        <time>2019-08-22T15:41:59.714Z</time>
      </trkpt>
      <trkpt lat="42.524487" lon="1.822732">
        <ele>1510.568263</ele>
        <time>2019-08-22T15:42:16.865Z</time>
      </trkpt>
      <trkpt lat="42.523953" lon="1.822703">
        <ele>1510.637460</ele>
        <time>2019-08-22T15:42:24.807Z</time>
      </trkpt>
      <trkpt lat="42.523378" lon="1.822800">
        <ele>1510.731449</ele>
        <time>2019-08-22T15:42:34.247Z</time>
      </trkpt>
      <trkpt lat="42.522976" lon="1.822854">
        <ele>1510.796977</ele>
        <time>2019-08-22T15:42:40.993Z</time>
      </trkpt>
      <trkpt lat="42.522871" lon="1.822859">
        <ele>1510.814019</ele>
        <time>2019-08-22T15:42:42.770Z</time>
      </trkpt>
      <trkpt lat="42.522711" lon="1.822856">
        <ele>1510.839976</ele>
        <time>2019-08-22T15:42:45.437Z</time>
      </trkpt>
      <trkpt lat="42.522480" lon="1.822817">
        <ele>1510.949125</ele>
        <time>2019-08-22T15:42:49.516Z</time>
      </trkpt>
      <trkpt lat="42.521881" lon="1.822644">
        <ele>1511.258001</ele>
        <time>2019-08-22T15:43:00.849Z</time>
      </trkpt>
      <trkpt lat="42.521519" lon="1.822443">
        <ele>1511.455274</ele>
        <time>2019-08-22T15:43:07.993Z</time>
      </trkpt>
      <trkpt lat="42.521187" lon="1.822323">
        <ele>1511.628559</ele>
        <time>2019-08-22T15:43:13.888Z</time>
      </trkpt>
      <trkpt lat="42.521013" lon="1.822277">
        <ele>1511.717967</ele>
        <time>2019-08-22T15:43:16.768Z</time>
      </trkpt>
      <trkpt lat="42.520550" lon="1.822274">
        <ele>1511.073020</ele>
        <time>2019-08-22T15:43:23.130Z</time>
      </trkpt>
      <trkpt lat="42.518829" lon="1.822774">
        <ele>1507.334888</ele>
        <time>2019-08-22T15:43:42.161Z</time>
      </trkpt>
      <trkpt lat="42.518144" lon="1.822759">
        <ele>1504.761764</ele>
        <time>2019-08-22T15:43:48.731Z</time>
      </trkpt>
      <trkpt lat="42.517498" lon="1.823016">
        <ele>1502.233295</ele>
        <time>2019-08-22T15:43:55.230Z</time>
      </trkpt>
      <trkpt lat="42.516862" lon="1.823684">
        <ele>1498.085439</ele>
        <time>2019-08-22T15:44:03.135Z</time>
      </trkpt>
      <trkpt lat="42.515927" lon="1.824298">
        <ele>1492.564248</ele>
        <time>2019-08-22T15:44:12.712Z</time>
      </trkpt>
      <trkpt lat="42.515779" lon="1.824358">
        <ele>1491.306436</ele>
        <time>2019-08-22T15:44:14.220Z</time>
      </trkpt>
      <trkpt lat="42.515649" lon="1.824393">
        <ele>1490.108666</ele>
        <time>2019-08-22T15:44:15.326Z</time>
      </trkpt>
      <trkpt lat="42.515066" lon="1.824320">
        <ele>1484.817481</ele>
        <time>2019-08-22T15:44:20.567Z</time>
      </trkpt>
      <trkpt lat="42.514740" lon="1.824279">
        <ele>1481.858663</ele>
        <time>2019-08-22T15:44:23.408Z</time>
      </trkpt>
      <trkpt lat="42.514638" lon="1.824246">
        <ele>1480.911001</ele>
        <time>2019-08-22T15:44:24.268Z</time>
      </trkpt>
      <trkpt lat="42.514438" lon="1.824165">
        <ele>1479.024704</ele>
        <time>2019-08-22T15:44:26.101Z</time>
      </trkpt>
      <trkpt lat="42.514270" lon="1.824182">
        <ele>1477.502207</ele>
        <time>2019-08-22T15:44:27.509Z</time>
      </trkpt>
      <trkpt lat="42.513710" lon="1.824644">
        <ele>1471.786506</ele>
        <time>2019-08-22T15:44:33.112Z</time>
      </trkpt>
      <trkpt lat="42.513591" lon="1.824802">
        <ele>1470.350609</ele>
        <time>2019-08-22T15:44:34.528Z</time>
      </trkpt>
      <trkpt lat="42.513390" lon="1.825304">
        <ele>1466.719212</ele>
        <time>2019-08-22T15:44:38.192Z</time>
      </trkpt>
      <trkpt lat="42.513015" lon="1.825683">
        <ele>1462.686617</ele>
        <time>2019-08-22T15:44:42.461Z</time>
      </trkpt>
      <trkpt lat="42.512711" lon="1.825957">
        <ele>1460.025541</ele>
        <time>2019-08-22T15:44:45.818Z</time>
      </trkpt>
      <trkpt lat="42.512626" lon="1.826052">
        <ele>1459.510747</ele>
        <time>2019-08-22T15:44:46.838Z</time>
      </trkpt>
      <trkpt lat="42.512592" lon="1.826090">
        <ele>1459.304829</ele>
        <time>2019-08-22T15:44:47.238Z</time>
      </trkpt>
      <trkpt lat="42.512499" lon="1.826246">
        <ele>1458.613522</ele>
        <time>2019-08-22T15:44:48.614Z</time>
      </trkpt>
      <trkpt lat="42.512433" lon="1.826440">
        <ele>1457.877310</ele>
        <time>2019-08-22T15:44:50.097Z</time>
      </trkpt>
      <trkpt lat="42.512392" lon="1.826886">
        <ele>1456.328651</ele>
        <time>2019-08-22T15:44:53.243Z</time>
      </trkpt>
      <trkpt lat="42.512197" lon="1.827223">
        <ele>1454.852444</ele>
        <time>2019-08-22T15:44:56.282Z</time>
      </trkpt>
      <trkpt lat="42.511753" lon="1.827585">
        <ele>1452.431032</ele>
        <time>2019-08-22T15:45:01.352Z</time>
      </trkpt>
      <trkpt lat="42.510798" lon="1.828415">
        <ele>1448.530315</ele>
        <time>2019-08-22T15:45:12.861Z</time>
      </trkpt>
      <trkpt lat="42.510274" lon="1.829123">
        <ele>1446.045696</ele>
        <time>2019-08-22T15:45:20.245Z</time>
      </trkpt>
      <trkpt lat="42.509832" lon="1.830111">
        <ele>1443.729576</ele>
        <time>2019-08-22T15:45:28.966Z</time>
      </trkpt>
      <trkpt lat="42.509548" lon="1.830545">
        <ele>1442.566549</ele>
        <time>2019-08-22T15:45:33.427Z</time>
      </trkpt>
      <trkpt lat="42.508806" lon="1.831431">
        <ele>1440.563045</ele>
        <time>2019-08-22T15:45:44.202Z</time>
      </trkpt>
      <trkpt lat="42.506795" lon="1.833078">
        <ele>1437.910992</ele>
        <time>2019-08-22T15:46:13.084Z</time>
      </trkpt>
      <trkpt lat="42.506082" lon="1.833760">
        <ele>1437.080596</ele>
        <time>2019-08-22T15:46:24.435Z</time>
      </trkpt>
      <trkpt lat="42.504559" lon="1.834898">
        <ele>1434.390130</ele>
        <time>2019-08-22T15:46:44.913Z</time>
      </trkpt>
      <trkpt lat="42.503996" lon="1.835340">
        <ele>1431.674179</ele>
        <time>2019-08-22T15:46:51.264Z</time>
      </trkpt>
      <trkpt lat="42.503734" lon="1.835602">
        <ele>1430.315142</ele>
        <time>2019-08-22T15:46:54.404Z</time>
      </trkpt>
      <trkpt lat="42.503512" lon="1.835863">
        <ele>1429.088544</ele>
        <time>2019-08-22T15:46:57.277Z</time>
      </trkpt>
      <trkpt lat="42.503437" lon="1.835915">
        <ele>1428.736870</ele>
        <time>2019-08-22T15:46:58.019Z</time>
      </trkpt>
      <trkpt lat="42.503382" lon="1.835935">
        <ele>1428.499126</ele>
        <time>2019-08-22T15:46:58.561Z</time>
      </trkpt>
      <trkpt lat="42.503295" lon="1.835916">
        <ele>1428.131208</ele>
        <time>2019-08-22T15:46:59.433Z</time>
      </trkpt>
      <trkpt lat="42.503152" lon="1.835820">
        <ele>1427.465033</ele>
        <time>2019-08-22T15:47:00.938Z</time>
      </trkpt>
      <trkpt lat="42.503079" lon="1.835803">
        <ele>1427.155786</ele>
        <time>2019-08-22T15:47:01.585Z</time>
      </trkpt>
      <trkpt lat="42.502874" lon="1.835820">
        <ele>1426.057441</ele>
        <time>2019-08-22T15:47:03.578Z</time>
      </trkpt>
      <trkpt lat="42.502832" lon="1.835843">
        <ele>1425.813169</ele>
        <time>2019-08-22T15:47:03.981Z</time>
      </trkpt>
      <trkpt lat="42.502720" lon="1.835903">
        <ele>1425.163743</ele>
        <time>2019-08-22T15:47:05.044Z</time>
      </trkpt>
      <trkpt lat="42.502319" lon="1.836107">
        <ele>1422.854025</ele>
        <time>2019-08-22T15:47:08.988Z</time>
      </trkpt>
      <trkpt lat="42.502026" lon="1.836395">
        <ele>1420.902571</ele>
        <time>2019-08-22T15:47:12.329Z</time>
      </trkpt>
      <trkpt lat="42.501507" lon="1.836780">
        <ele>1417.712324</ele>
        <time>2019-08-22T15:47:17.888Z</time>
      </trkpt>
      <trkpt lat="42.501214" lon="1.836988">
        <ele>1416.231250</ele>
        <time>2019-08-22T15:47:21.076Z</time>
      </trkpt>
      <trkpt lat="42.500923" lon="1.837242">
        <ele>1414.742549</ele>
        <time>2019-08-22T15:47:24.435Z</time>
      </trkpt>
      <trkpt lat="42.500519" lon="1.837607">
        <ele>1412.654270</ele>
        <time>2019-08-22T15:47:29.130Z</time>
      </trkpt>
      <trkpt lat="42.499299" lon="1.838723">
        <ele>1405.771311</ele>
        <time>2019-08-22T15:47:43.444Z</time>
      </trkpt>
      <trkpt lat="42.499098" lon="1.838942">
        <ele>1404.479923</ele>
        <time>2019-08-22T15:47:45.868Z</time>
      </trkpt>
      <trkpt lat="42.498968" lon="1.839358">
        <ele>1402.811355</ele>
        <time>2019-08-22T15:47:48.957Z</time>
      </trkpt>
      <trkpt lat="42.498870" lon="1.840571">
        <ele>1398.006625</ele>
        <time>2019-08-22T15:47:57.218Z</time>
      </trkpt>
      <trkpt lat="42.498834" lon="1.840869">
        <ele>1396.751172</ele>
        <time>2019-08-22T15:47:59.266Z</time>
      </trkpt>
      <trkpt lat="42.498787" lon="1.841106">
        <ele>1395.730825</ele>
        <time>2019-08-22T15:48:00.937Z</time>
      </trkpt>
      <trkpt lat="42.498683" lon="1.841382">
        <ele>1394.442182</ele>
        <time>2019-08-22T15:48:03.051Z</time>
      </trkpt>
      <trkpt lat="42.498553" lon="1.841671">
        <ele>1393.034696</ele>
        <time>2019-08-22T15:48:05.358Z</time>
      </trkpt>
      <trkpt lat="42.498494" lon="1.841773">
        <ele>1392.495699</ele>
        <time>2019-08-22T15:48:06.251Z</time>
      </trkpt>
      <trkpt lat="42.498394" lon="1.841945">
        <ele>1391.585025</ele>
        <time>2019-08-22T15:48:07.759Z</time>
      </trkpt>
      <trkpt lat="42.497810" lon="1.842633">
        <ele>1387.839721</ele>
        <time>2019-08-22T15:48:15.168Z</time>
      </trkpt>
      <trkpt lat="42.497617" lon="1.843085">
        <ele>1386.072487</ele>
        <time>2019-08-22T15:48:18.955Z</time>
      </trkpt>
      <trkpt lat="42.497602" lon="1.843120">
        <ele>1385.935516</ele>
        <time>2019-08-22T15:48:19.243Z</time>
      </trkpt>
      <trkpt lat="42.497417" lon="1.843592">
        <ele>1384.126925</ele>
        <time>2019-08-22T15:48:23.017Z</time>
      </trkpt>
      <trkpt lat="42.497235" lon="1.844052">
        <ele>1382.360628</ele>
        <time>2019-08-22T15:48:26.699Z</time>
      </trkpt>
      <trkpt lat="42.497132" lon="1.844369">
        <ele>1381.000318</ele>
        <time>2019-08-22T15:48:29.120Z</time>
      </trkpt>
      <trkpt lat="42.497036" lon="1.844736">
        <ele>1379.455703</ele>
        <time>2019-08-22T15:48:31.793Z</time>
      </trkpt>
      <trkpt lat="42.496902" lon="1.845200">
        <ele>1377.479086</ele>
        <time>2019-08-22T15:48:35.183Z</time>
      </trkpt>
      <trkpt lat="42.496754" lon="1.845635">
        <ele>1375.578796</ele>
        <time>2019-08-22T15:48:38.463Z</time>
      </trkpt>
      <trkpt lat="42.496470" lon="1.846164">
        <ele>1372.983184</ele>
        <time>2019-08-22T15:48:43.017Z</time>
      </trkpt>
      <trkpt lat="42.496099" lon="1.846855">
        <ele>1369.849799</ele>
        <time>2019-08-22T15:48:48.844Z</time>
      </trkpt>
      <trkpt lat="42.496029" lon="1.847025">
        <ele>1369.143404</ele>
        <time>2019-08-22T15:48:50.221Z</time>
      </trkpt>
      <trkpt lat="42.496024" lon="1.847146">
        <ele>1368.703742</ele>
        <time>2019-08-22T15:48:51.050Z</time>
      </trkpt>
      <trkpt lat="42.496062" lon="1.847350">
        <ele>1367.940403</ele>
        <time>2019-08-22T15:48:52.573Z</time>
      </trkpt>
      <trkpt lat="42.496056" lon="1.847496">
        <ele>1367.409911</ele>
        <time>2019-08-22T15:48:53.607Z</time>
      </trkpt>
      <trkpt lat="42.496032" lon="1.847563">
        <ele>1367.139676</ele>
        <time>2019-08-22T15:48:54.166Z</time>
      </trkpt>
      <trkpt lat="42.495976" lon="1.847627">
        <ele>1366.779356</ele>
        <time>2019-08-22T15:48:54.814Z</time>
      </trkpt>
      <trkpt lat="42.495573" lon="1.847850">
        <ele>1364.637773</ele>
        <time>2019-08-22T15:48:58.999Z</time>
      </trkpt>
      <trkpt lat="42.495407" lon="1.847921">
        <ele>1363.781345</ele>
        <time>2019-08-22T15:49:00.665Z</time>
      </trkpt>
      <trkpt lat="42.495121" lon="1.848043">
        <ele>1362.334241</ele>
        <time>2019-08-22T15:49:03.516Z</time>
      </trkpt>
      <trkpt lat="42.494735" lon="1.848333">
        <ele>1360.205132</ele>
        <time>2019-08-22T15:49:07.765Z</time>
      </trkpt>
      <trkpt lat="42.494337" lon="1.848857">
        <ele>1357.528761</ele>
        <time>2019-08-22T15:49:12.917Z</time>
      </trkpt>
      <trkpt lat="42.493807" lon="1.849540">
        <ele>1354.256010</ele>
        <time>2019-08-22T15:49:19.846Z</time>
      </trkpt>
      <trkpt lat="42.493030" lon="1.850675">
        <ele>1350.051993</ele>
        <time>2019-08-22T15:49:31.148Z</time>
      </trkpt>
      <trkpt lat="42.492799" lon="1.851045">
        <ele>1348.735984</ele>
        <time>2019-08-22T15:49:34.835Z</time>
      </trkpt>
      <trkpt lat="42.492288" lon="1.851952">
        <ele>1346.454158</ele>
        <time>2019-08-22T15:49:43.733Z</time>
      </trkpt>
      <trkpt lat="42.490516" lon="1.853400">
        <ele>1340.888134</ele>
        <time>2019-08-22T15:50:05.524Z</time>
      </trkpt>
      <trkpt lat="42.489081" lon="1.855488">
        <ele>1334.277269</ele>
        <time>2019-08-22T15:50:27.069Z</time>
      </trkpt>
      <trkpt lat="42.488840" lon="1.855776">
        <ele>1333.199883</ele>
        <time>2019-08-22T15:50:30.222Z</time>
      </trkpt>
      <trkpt lat="42.488553" lon="1.856087">
        <ele>1331.689973</ele>
        <time>2019-08-22T15:50:33.788Z</time>
      </trkpt>
      <trkpt lat="42.488353" lon="1.856315">
        <ele>1330.500200</ele>
        <time>2019-08-22T15:50:36.288Z</time>
      </trkpt>
      <trkpt lat="42.488083" lon="1.856458">
        <ele>1329.180281</ele>
        <time>2019-08-22T15:50:39.066Z</time>
      </trkpt>
      <trkpt lat="42.486827" lon="1.856761">
        <ele>1323.487781</ele>
        <time>2019-08-22T15:50:51.128Z</time>
      </trkpt>
      <trkpt lat="42.486719" lon="1.856835">
        <ele>1322.991114</ele>
        <time>2019-08-22T15:50:52.302Z</time>
      </trkpt>
      <trkpt lat="42.486622" lon="1.857069">
        <ele>1322.178599</ele>
        <time>2019-08-22T15:50:54.222Z</time>
      </trkpt>
      <trkpt lat="42.486497" lon="1.857871">
        <ele>1319.697437</ele>
        <time>2019-08-22T15:51:00.158Z</time>
      </trkpt>
      <trkpt lat="42.486311" lon="1.858222">
        <ele>1318.389153</ele>
        <time>2019-08-22T15:51:03.341Z</time>
      </trkpt>
      <trkpt lat="42.485686" lon="1.858839">
        <ele>1315.337086</ele>
        <time>2019-08-22T15:51:10.899Z</time>
      </trkpt>
      <trkpt lat="42.485132" lon="1.859280">
        <ele>1312.863596</ele>
        <time>2019-08-22T15:51:17.215Z</time>
      </trkpt>
      <trkpt lat="42.484795" lon="1.859541">
        <ele>1311.369295</ele>
        <time>2019-08-22T15:51:21.042Z</time>
      </trkpt>
      <trkpt lat="42.484656" lon="1.859632">
        <ele>1310.774981</ele>
        <time>2019-08-22T15:51:22.516Z</time>
      </trkpt>
      <trkpt lat="42.484164" lon="1.859884">
        <ele>1309.060771</ele>
        <time>2019-08-22T15:51:27.764Z</time>
      </trkpt>
      <trkpt lat="42.483848" lon="1.860112">
        <ele>1307.968905</ele>
        <time>2019-08-22T15:51:31.336Z</time>
      </trkpt>
      <trkpt lat="42.483135" lon="1.861038">
        <ele>1304.957373</ele>
        <time>2019-08-22T15:51:41.531Z</time>
      </trkpt>
      <trkpt lat="42.482621" lon="1.861551">
        <ele>1303.455717</ele>
        <time>2019-08-22T15:51:48.586Z</time>
      </trkpt>
      <trkpt lat="42.482109" lon="1.862554">
        <ele>1301.410100</ele>
        <time>2019-08-22T15:51:58.524Z</time>
      </trkpt>
      <trkpt lat="42.481963" lon="1.862701">
        <ele>1300.996596</ele>
        <time>2019-08-22T15:52:00.479Z</time>
      </trkpt>
      <trkpt lat="42.481169" lon="1.863025">
        <ele>1298.165578</ele>
        <time>2019-08-22T15:52:08.913Z</time>
      </trkpt>
      <trkpt lat="42.480149" lon="1.863777">
        <ele>1293.929524</ele>
        <time>2019-08-22T15:52:20.175Z</time>
      </trkpt>
      <trkpt lat="42.479887" lon="1.864030">
        <ele>1292.794639</ele>
        <time>2019-08-22T15:52:23.292Z</time>
      </trkpt>
      <trkpt lat="42.479616" lon="1.864376">
        <ele>1291.481286</ele>
        <time>2019-08-22T15:52:26.937Z</time>
      </trkpt>
      <trkpt lat="42.479395" lon="1.864654">
        <ele>1290.417643</ele>
        <time>2019-08-22T15:52:29.925Z</time>
      </trkpt>
      <trkpt lat="42.479193" lon="1.865047">
        <ele>1289.171126</ele>
        <time>2019-08-22T15:52:33.467Z</time>
      </trkpt>
      <trkpt lat="42.478672" lon="1.866305">
        <ele>1286.315962</ele>
        <time>2019-08-22T15:52:44.697Z</time>
      </trkpt>
      <trkpt lat="42.477234" lon="1.869140">
        <ele>1281.569204</ele>
        <time>2019-08-22T15:53:12.867Z</time>
      </trkpt>
      <trkpt lat="42.477097" lon="1.869500">
        <ele>1281.082821</ele>
        <time>2019-08-22T15:53:16.470Z</time>
      </trkpt>
      <trkpt lat="42.476910" lon="1.870285">
        <ele>1280.624309</ele>
        <time>2019-08-22T15:53:24.164Z</time>
      </trkpt>
      <trkpt lat="42.476753" lon="1.870658">
        <ele>1280.439477</ele>
        <time>2019-08-22T15:53:28.396Z</time>
      </trkpt>
      <trkpt lat="42.475393" lon="1.873293">
        <ele>1279.419044</ele>
        <time>2019-08-22T15:54:00.941Z</time>
      </trkpt>
      <trkpt lat="42.475309" lon="1.873456">
        <ele>1279.371580</ele>
        <time>2019-08-22T15:54:02.849Z</time>
      </trkpt>
      <trkpt lat="42.474854" lon="1.874337">
        <ele>1279.198823</ele>
        <time>2019-08-22T15:54:13.820Z</time>
      </trkpt>
      <trkpt lat="42.474774" lon="1.874502">
        <ele>1279.174303</ele>
        <time>2019-08-22T15:54:15.810Z</time>
      </trkpt>
      <trkpt lat="42.474689" lon="1.874680">
        <ele>1279.147971</ele>
        <time>2019-08-22T15:54:17.968Z</time>
      </trkpt>
      <trkpt lat="42.474274" lon="1.875542">
        <ele>1279.020142</ele>
        <time>2019-08-22T15:54:28.894Z</time>
      </trkpt>
      <trkpt lat="42.473579" lon="1.877270">
        <ele>1278.951816</ele>
        <time>2019-08-22T15:54:51.353Z</time>
      </trkpt>
      <trkpt lat="42.473148" lon="1.878668">
        <ele>1278.766422</ele>
        <time>2019-08-22T15:55:06.469Z</time>
      </trkpt>
      <trkpt lat="42.472435" lon="1.879858">
        <ele>1278.431299</ele>
        <time>2019-08-22T15:55:21.859Z</time>
      </trkpt>
      <trkpt lat="42.471512" lon="1.881248">
        <ele>1278.039881</ele>
        <time>2019-08-22T15:55:43.077Z</time>
      </trkpt>
      <trkpt lat="42.471020" lon="1.881828">
        <ele>1277.509691</ele>
        <time>2019-08-22T15:55:51.299Z</time>
      </trkpt>
      <trkpt lat="42.470715" lon="1.882092">
        <ele>1276.508407</ele>
        <time>2019-08-22T15:55:55.393Z</time>
      </trkpt>
      <trkpt lat="42.470588" lon="1.882150">
        <ele>1276.137592</ele>
        <time>2019-08-22T15:55:57.121Z</time>
      </trkpt>
      <trkpt lat="42.470514" lon="1.882184">
        <ele>1275.921393</ele>
        <time>2019-08-22T15:55:57.856Z</time>
      </trkpt>
      <trkpt lat="42.470251" lon="1.882242">
        <ele>1275.184102</ele>
        <time>2019-08-22T15:56:00.742Z</time>
      </trkpt>
      <trkpt lat="42.469934" lon="1.882170">
        <ele>1274.294732</ele>
        <time>2019-08-22T15:56:03.950Z</time>
      </trkpt>
      <trkpt lat="42.469828" lon="1.882138">
        <ele>1273.994244</ele>
        <time>2019-08-22T15:56:04.987Z</time>
      </trkpt>
      <trkpt lat="42.469687" lon="1.882159">
        <ele>1273.601747</ele>
        <time>2019-08-22T15:56:06.340Z</time>
      </trkpt>
      <trkpt lat="42.469481" lon="1.882318">
        <ele>1272.945832</ele>
        <time>2019-08-22T15:56:08.660Z</time>
      </trkpt>
      <trkpt lat="42.469145" lon="1.882729">
        <ele>1270.984383</ele>
        <time>2019-08-22T15:56:12.974Z</time>
      </trkpt>
      <trkpt lat="42.469093" lon="1.882792">
        <ele>1270.679636</ele>
        <time>2019-08-22T15:56:13.648Z</time>
      </trkpt>
      <trkpt lat="42.468896" lon="1.883027">
        <ele>1269.532967</ele>
        <time>2019-08-22T15:56:16.136Z</time>
      </trkpt>
      <trkpt lat="42.468149" lon="1.883951">
        <ele>1265.114130</ele>
        <time>2019-08-22T15:56:25.862Z</time>
      </trkpt>
      <trkpt lat="42.467416" lon="1.884862">
        <ele>1262.029611</ele>
        <time>2019-08-22T15:56:35.792Z</time>
      </trkpt>
      <trkpt lat="42.467056" lon="1.885352">
        <ele>1260.455656</ele>
        <time>2019-08-22T15:56:41.180Z</time>
      </trkpt>
      <trkpt lat="42.466968" lon="1.885513">
        <ele>1259.999605</ele>
        <time>2019-08-22T15:56:42.692Z</time>
      </trkpt>
      <trkpt lat="42.466770" lon="1.885875">
        <ele>1259.202132</ele>
        <time>2019-08-22T15:56:46.333Z</time>
      </trkpt>
      <trkpt lat="42.466610" lon="1.886227">
        <ele>1258.662499</ele>
        <time>2019-08-22T15:56:49.788Z</time>
      </trkpt>
      <trkpt lat="42.466498" lon="1.886491">
        <ele>1258.265017</ele>
        <time>2019-08-22T15:56:52.360Z</time>
      </trkpt>
      <trkpt lat="42.466419" lon="1.886678">
        <ele>1257.983760</ele>
        <time>2019-08-22T15:56:54.159Z</time>
      </trkpt>
      <trkpt lat="42.466407" lon="1.886705">
        <ele>1257.942619</ele>
        <time>2019-08-22T15:56:54.404Z</time>
      </trkpt>
      <trkpt lat="42.466267" lon="1.887119">
        <ele>1257.348208</ele>
        <time>2019-08-22T15:56:58.287Z</time>
      </trkpt>
      <trkpt lat="42.466208" lon="1.887292">
        <ele>1257.099451</ele>
        <time>2019-08-22T15:56:59.900Z</time>
      </trkpt>
      <trkpt lat="42.465796" lon="1.888507">
        <ele>1255.137074</ele>
        <time>2019-08-22T15:57:11.045Z</time>
      </trkpt>
      <trkpt lat="42.465593" lon="1.889103">
        <ele>1254.089012</ele>
        <time>2019-08-22T15:57:16.410Z</time>
      </trkpt>
      <trkpt lat="42.465478" lon="1.889445">
        <ele>1253.488947</ele>
        <time>2019-08-22T15:57:19.378Z</time>
      </trkpt>
      <trkpt lat="42.465210" lon="1.890258">
        <ele>1251.890038</ele>
        <time>2019-08-22T15:57:26.263Z</time>
      </trkpt>
      <trkpt lat="42.465196" lon="1.890300">
        <ele>1251.780883</ele>
        <time>2019-08-22T15:57:26.610Z</time>
      </trkpt>
      <trkpt lat="42.465103" lon="1.890583">
        <ele>1251.047136</ele>
        <time>2019-08-22T15:57:28.946Z</time>
      </trkpt>
      <trkpt lat="42.465065" lon="1.890747">
        <ele>1250.640013</ele>
        <time>2019-08-22T15:57:30.229Z</time>
      </trkpt>
      <trkpt lat="42.465040" lon="1.890877">
        <ele>1250.321834</ele>
        <time>2019-08-22T15:57:31.234Z</time>
      </trkpt>
      <trkpt lat="42.464604" lon="1.890458">
        <ele>1248.605972</ele>
        <time>2019-08-22T15:57:36.603Z</time>
      </trkpt>
      <trkpt lat="42.464536" lon="1.890394">
        <ele>1248.340194</ele>
        <time>2019-08-22T15:57:37.443Z</time>
      </trkpt>
      <trkpt lat="42.464566" lon="1.891189">
        <ele>1246.428872</ele>
        <time>2019-08-22T15:57:43.380Z</time>
      </trkpt>
      <trkpt lat="42.464586" lon="1.891708">
        <ele>1245.041507</ele>
        <time>2019-08-22T15:57:47.229Z</time>
      </trkpt>
      <trkpt lat="42.463988" lon="1.893625">
        <ele>1239.748175</ele>
        <time>2019-08-22T15:58:02.382Z</time>
      </trkpt>
      <trkpt lat="42.463789" lon="1.894173">
        <ele>1238.762030</ele>
        <time>2019-08-22T15:58:07.038Z</time>
      </trkpt>
      <trkpt lat="42.463664" lon="1.894516">
        <ele>1238.144359</ele>
        <time>2019-08-22T15:58:10.065Z</time>
      </trkpt>
      <trkpt lat="42.463585" lon="1.894733">
        <ele>1237.753666</ele>
        <time>2019-08-22T15:58:11.988Z</time>
      </trkpt>
      <trkpt lat="42.463067" lon="1.896144">
        <ele>1236.227180</ele>
        <time>2019-08-22T15:58:26.003Z</time>
      </trkpt>
      <trkpt lat="42.462859" lon="1.896569">
        <ele>1236.237994</ele>
        <time>2019-08-22T15:58:32.169Z</time>
      </trkpt>
      <trkpt lat="42.462689" lon="1.896903">
        <ele>1236.246598</ele>
        <time>2019-08-22T15:58:37.048Z</time>
      </trkpt>
      <trkpt lat="42.462655" lon="1.897613">
        <ele>1236.261683</ele>
        <time>2019-08-22T15:58:46.003Z</time>
      </trkpt>
      <trkpt lat="42.462620" lon="1.897886">
        <ele>1236.299549</ele>
        <time>2019-08-22T15:58:49.392Z</time>
      </trkpt>
      <trkpt lat="42.462382" lon="1.898585">
        <ele>1236.593578</ele>
        <time>2019-08-22T15:58:59.354Z</time>
      </trkpt>
      <trkpt lat="42.461548" lon="1.900040">
        <ele>1237.284683</ele>
        <time>2019-08-22T15:59:22.325Z</time>
      </trkpt>
      <trkpt lat="42.461224" lon="1.900738">
        <ele>1237.560062</ele>
        <time>2019-08-22T15:59:32.340Z</time>
      </trkpt>
      <trkpt lat="42.460740" lon="1.902188">
        <ele>1238.080299</ele>
        <time>2019-08-22T15:59:51.792Z</time>
      </trkpt>
      <trkpt lat="42.460636" lon="1.902578">
        <ele>1238.199498</ele>
        <time>2019-08-22T15:59:56.818Z</time>
      </trkpt>
      <trkpt lat="42.460602" lon="1.902684">
        <ele>1238.232721</ele>
        <time>2019-08-22T15:59:58.238Z</time>
      </trkpt>
      <trkpt lat="42.460545" lon="1.902862">
        <ele>1238.288497</ele>
        <time>2019-08-22T16:00:00.550Z</time>
      </trkpt>
      <trkpt lat="42.459789" lon="1.904155">
        <ele>1238.926733</ele>
        <time>2019-08-22T16:00:19.835Z</time>
      </trkpt>
      <trkpt lat="42.459687" lon="1.904334">
        <ele>1239.201017</ele>
        <time>2019-08-22T16:00:22.934Z</time>
      </trkpt>
      <trkpt lat="42.459385" lon="1.904859">
        <ele>1240.008343</ele>
        <time>2019-08-22T16:00:32.608Z</time>
      </trkpt>
      <trkpt lat="42.459467" lon="1.904957">
        <ele>1240.188043</ele>
        <time>2019-08-22T16:00:35.639Z</time>
      </trkpt>
      <trkpt lat="42.459355" lon="1.905471">
        <ele>1240.837990</ele>
        <time>2019-08-22T16:00:46.685Z</time>
      </trkpt>
      <trkpt lat="42.459366" lon="1.905490">
        <ele>1240.867279</ele>
        <time>2019-08-22T16:00:47.402Z</time>
      </trkpt>
      <trkpt lat="42.459347" lon="1.905523">
        <ele>1240.918043</ele>
        <time>2019-08-22T16:00:48.253Z</time>
      </trkpt>
      <trkpt lat="42.459341" lon="1.905569">
        <ele>1240.974692</ele>
        <time>2019-08-22T16:00:49.112Z</time>
      </trkpt>
      <trkpt lat="42.459320" lon="1.906122">
        <ele>1241.646205</ele>
        <time>2019-08-22T16:01:01.079Z</time>
      </trkpt>
      <trkpt lat="42.459564" lon="1.906134">
        <ele>1242.241760</ele>
        <time>2019-08-22T16:01:09.328Z</time>
      </trkpt>
      <trkpt lat="42.459551" lon="1.906490">
        <ele>1242.895375</ele>
        <time>2019-08-22T16:01:17.625Z</time>
      </trkpt>
      <trkpt lat="42.459539" lon="1.906805">
        <ele>1243.473778</ele>
        <time>2019-08-22T16:01:25.295Z</time>
      </trkpt>
      <trkpt lat="42.459798" lon="1.906821">
        <ele>1244.118214</ele>
        <time>2019-08-22T16:01:33.888Z</time>
      </trkpt>
      <trkpt lat="42.459760" lon="1.907612">
        <ele>1245.571780</ele>
        <time>2019-08-22T16:01:51.351Z</time>
      </trkpt>
      <trkpt lat="42.459845" lon="1.907642">
        <ele>1245.790100</ele>
        <time>2019-08-22T16:01:53.631Z</time>
      </trkpt>
      <trkpt lat="42.459934" lon="1.907685">
        <ele>1246.024951</ele>
        <time>2019-08-22T16:01:55.310Z</time>
      </trkpt>
      <trkpt lat="42.460023" lon="1.907722">
        <ele>1246.178646</ele>
        <time>2019-08-22T16:01:57.411Z</time>
      </trkpt>
      <trkpt lat="42.460334" lon="1.909492">
        <ele>1247.305696</ele>
        <time>2019-08-22T16:02:29.056Z</time>
      </trkpt>
      <trkpt lat="42.460375" lon="1.909767">
        <ele>1247.479481</ele>
        <time>2019-08-22T16:02:33.753Z</time>
      </trkpt>
      <trkpt lat="42.460412" lon="1.910047">
        <ele>1247.656287</ele>
        <time>2019-08-22T16:02:37.791Z</time>
      </trkpt>
      <trkpt lat="42.460444" lon="1.910291">
        <ele>1247.824151</ele>
        <time>2019-08-22T16:02:41.713Z</time>
      </trkpt>
      <trkpt lat="42.460477" lon="1.910550">
        <ele>1248.002181</ele>
        <time>2019-08-22T16:02:45.622Z</time>
      </trkpt>
      <trkpt lat="42.460483" lon="1.911593">
        <ele>1248.708675</ele>
        <time>2019-08-22T16:03:03.414Z</time>
      </trkpt>
      <trkpt lat="42.460483" lon="1.911669">
        <ele>1248.760154</ele>
        <time>2019-08-22T16:03:04.948Z</time>
      </trkpt>
      <trkpt lat="42.460441" lon="1.911980">
        <ele>1248.974309</ele>
        <time>2019-08-22T16:03:10.641Z</time>
      </trkpt>
      <trkpt lat="42.460240" lon="1.912698">
        <ele>1249.808202</ele>
        <time>2019-08-22T16:03:25.897Z</time>
      </trkpt>
      <trkpt lat="42.460224" lon="1.912753">
        <ele>1249.913041</ele>
        <time>2019-08-22T16:03:27.292Z</time>
      </trkpt>
      <trkpt lat="42.460033" lon="1.913681">
        <ele>1251.621484</ele>
        <time>2019-08-22T16:03:48.491Z</time>
      </trkpt>
      <trkpt lat="42.460046" lon="1.914047">
        <ele>1252.271257</ele>
        <time>2019-08-22T16:03:56.716Z</time>
      </trkpt>
      <trkpt lat="42.460093" lon="1.914140">
        <ele>1252.471156</ele>
        <time>2019-08-22T16:03:59.199Z</time>
      </trkpt>
      <trkpt lat="42.460193" lon="1.914286">
        <ele>1252.824431</ele>
        <time>2019-08-22T16:04:04.794Z</time>
      </trkpt>
      <trkpt lat="42.460177" lon="1.914382">
        <ele>1252.998956</ele>
        <time>2019-08-22T16:04:06.959Z</time>
      </trkpt>
      <trkpt lat="42.460158" lon="1.914763">
        <ele>1253.653397</ele>
        <time>2019-08-22T16:04:16.188Z</time>
      </trkpt>
      <trkpt lat="42.460154" lon="1.914861">
        <ele>1253.751748</ele>
        <time>2019-08-22T16:04:18.439Z</time>
      </trkpt>
      <trkpt lat="42.460122" lon="1.915015">
        <ele>1253.912069</ele>
        <time>2019-08-22T16:04:21.309Z</time>
      </trkpt>
      <trkpt lat="42.460160" lon="1.915038">
        <ele>1253.968595</ele>
        <time>2019-08-22T16:04:22.792Z</time>
      </trkpt>
      <trkpt lat="42.460122" lon="1.915224">
        <ele>1254.161992</ele>
        <time>2019-08-22T16:04:27.634Z</time>
      </trkpt>
      <trkpt lat="42.459989" lon="1.916109">
        <ele>1255.067025</ele>
        <time>2019-08-22T16:04:44.396Z</time>
      </trkpt>
      <trkpt lat="42.460015" lon="1.916176">
        <ele>1255.142885</ele>
        <time>2019-08-22T16:04:46.470Z</time>
      </trkpt>
      <trkpt lat="42.459944" lon="1.916509">
        <ele>1255.490226</ele>
        <time>2019-08-22T16:04:50.587Z</time>
      </trkpt>
      <trkpt lat="42.459873" lon="1.916838">
        <ele>1255.833719</ele>
        <time>2019-08-22T16:04:54.658Z</time>
      </trkpt>
      <trkpt lat="42.459828" lon="1.916951">
        <ele>1255.962395</ele>
        <time>2019-08-22T16:04:56.473Z</time>
      </trkpt>
      <trkpt lat="42.459698" lon="1.917276">
        <ele>1255.874858</ele>
        <time>2019-08-22T16:05:00.846Z</time>
      </trkpt>
      <trkpt lat="42.459610" lon="1.917497">
        <ele>1255.693126</ele>
        <time>2019-08-22T16:05:03.506Z</time>
      </trkpt>
      <trkpt lat="42.459509" lon="1.917787">
        <ele>1255.461062</ele>
        <time>2019-08-22T16:05:06.849Z</time>
      </trkpt>
      <trkpt lat="42.459282" lon="1.918880">
        <ele>1254.639376</ele>
        <time>2019-08-22T16:05:16.569Z</time>
      </trkpt>
      <trkpt lat="42.459175" lon="1.919143">
        <ele>1254.422037</ele>
        <time>2019-08-22T16:05:18.983Z</time>
      </trkpt>
      <trkpt lat="42.459001" lon="1.919568">
        <ele>1253.829630</ele>
        <time>2019-08-22T16:05:23.013Z</time>
      </trkpt>
      <trkpt lat="42.458946" lon="1.919678">
        <ele>1253.633872</ele>
        <time>2019-08-22T16:05:24.114Z</time>
      </trkpt>
      <trkpt lat="42.458660" lon="1.920250">
        <ele>1252.615930</ele>
        <time>2019-08-22T16:05:29.769Z</time>
      </trkpt>
      <trkpt lat="42.458477" lon="1.920707">
        <ele>1251.849912</ele>
        <time>2019-08-22T16:05:33.947Z</time>
      </trkpt>
      <trkpt lat="42.458340" lon="1.921202">
        <ele>1251.071064</ele>
        <time>2019-08-22T16:05:38.125Z</time>
      </trkpt>
      <trkpt lat="42.458000" lon="1.922760">
        <ele>1249.389447</ele>
        <time>2019-08-22T16:05:51.383Z</time>
      </trkpt>
      <trkpt lat="42.457103" lon="1.927093">
        <ele>1246.878500</ele>
        <time>2019-08-22T16:06:36.295Z</time>
      </trkpt>
      <trkpt lat="42.456879" lon="1.928023">
        <ele>1246.169403</ele>
        <time>2019-08-22T16:06:44.814Z</time>
      </trkpt>
      <trkpt lat="42.456640" lon="1.929187">
        <ele>1245.013158</ele>
        <time>2019-08-22T16:06:55.073Z</time>
      </trkpt>
      <trkpt lat="42.456614" lon="1.929318">
        <ele>1244.864334</ele>
        <time>2019-08-22T16:06:56.183Z</time>
      </trkpt>
      <trkpt lat="42.455702" lon="1.932800">
        <ele>1240.387680</ele>
        <time>2019-08-22T16:07:27.861Z</time>
      </trkpt>
      <trkpt lat="42.455495" lon="1.933203">
        <ele>1239.466931</ele>
        <time>2019-08-22T16:07:31.716Z</time>
      </trkpt>
      <trkpt lat="42.454327" lon="1.935028">
        <ele>1232.758874</ele>
        <time>2019-08-22T16:07:49.231Z</time>
      </trkpt>
      <trkpt lat="42.454205" lon="1.935297">
        <ele>1231.675634</ele>
        <time>2019-08-22T16:07:51.420Z</time>
      </trkpt>
      <trkpt lat="42.454231" lon="1.935738">
        <ele>1230.157910</ele>
        <time>2019-08-22T16:07:54.466Z</time>
      </trkpt>
      <trkpt lat="42.454341" lon="1.935963">
        <ele>1229.231948</ele>
        <time>2019-08-22T16:07:56.324Z</time>
      </trkpt>
      <trkpt lat="42.454596" lon="1.936119">
        <ele>1227.931093</ele>
        <time>2019-08-22T16:07:58.942Z</time>
      </trkpt>
      <trkpt lat="42.454827" lon="1.936127">
        <ele>1226.856666</ele>
        <time>2019-08-22T16:08:01.122Z</time>
      </trkpt>
      <trkpt lat="42.455607" lon="1.936136">
        <ele>1223.712772</ele>
        <time>2019-08-22T16:08:08.747Z</time>
      </trkpt>
      <trkpt lat="42.455915" lon="1.936138">
        <ele>1222.670360</ele>
        <time>2019-08-22T16:08:11.905Z</time>
      </trkpt>
      <trkpt lat="42.456302" lon="1.936131">
        <ele>1221.360475</ele>
        <time>2019-08-22T16:08:15.809Z</time>
      </trkpt>
      <trkpt lat="42.457265" lon="1.935841">
        <ele>1217.953571</ele>
        <time>2019-08-22T16:08:25.897Z</time>
      </trkpt>
      <trkpt lat="42.457459" lon="1.935822">
        <ele>1217.245121</ele>
        <time>2019-08-22T16:08:27.803Z</time>
      </trkpt>
      <trkpt lat="42.458113" lon="1.935796">
        <ele>1214.862029</ele>
        <time>2019-08-22T16:08:34.332Z</time>
      </trkpt>
      <trkpt lat="42.458384" lon="1.935782">
        <ele>1213.874247</ele>
        <time>2019-08-22T16:08:37.017Z</time>
      </trkpt>
      <trkpt lat="42.458620" lon="1.935807">
        <ele>1213.012041</ele>
        <time>2019-08-22T16:08:39.284Z</time>
      </trkpt>
      <trkpt lat="42.458967" lon="1.935961">
        <ele>1211.730152</ele>
        <time>2019-08-22T16:08:42.798Z</time>
      </trkpt>
      <trkpt lat="42.459155" lon="1.936050">
        <ele>1211.055749</ele>
        <time>2019-08-22T16:08:44.770Z</time>
      </trkpt>
      <trkpt lat="42.459446" lon="1.936104">
        <ele>1210.061046</ele>
        <time>2019-08-22T16:08:47.651Z</time>
      </trkpt>
      <trkpt lat="42.459797" lon="1.936133">
        <ele>1208.870131</ele>
        <time>2019-08-22T16:08:51.132Z</time>
      </trkpt>
      <trkpt lat="42.460750" lon="1.936179">
        <ele>1206.003371</ele>
        <time>2019-08-22T16:09:00.968Z</time>
      </trkpt>
      <trkpt lat="42.460929" lon="1.936238">
        <ele>1205.736359</ele>
        <time>2019-08-22T16:09:02.890Z</time>
      </trkpt>
      <trkpt lat="42.461360" lon="1.936777">
        <ele>1204.886383</ele>
        <time>2019-08-22T16:09:09.589Z</time>
      </trkpt>
      <trkpt lat="42.461433" lon="1.936973">
        <ele>1204.651603</ele>
        <time>2019-08-22T16:09:11.320Z</time>
      </trkpt>
      <trkpt lat="42.461466" lon="1.937123">
        <ele>1204.484227</ele>
        <time>2019-08-22T16:09:12.809Z</time>
      </trkpt>
      <trkpt lat="42.461496" lon="1.937343">
        <ele>1204.244994</ele>
        <time>2019-08-22T16:09:14.760Z</time>
      </trkpt>
      <trkpt lat="42.461481" lon="1.937445">
        <ele>1204.133779</ele>
        <time>2019-08-22T16:09:15.661Z</time>
      </trkpt>
      <trkpt lat="42.461434" lon="1.937565">
        <ele>1203.988499</ele>
        <time>2019-08-22T16:09:17.534Z</time>
      </trkpt>
      <trkpt lat="42.461532" lon="1.937876">
        <ele>1203.715540</ele>
        <time>2019-08-22T16:09:22.108Z</time>
      </trkpt>
      <trkpt lat="42.461747" lon="1.938185">
        <ele>1204.246852</ele>
        <time>2019-08-22T16:09:29.175Z</time>
      </trkpt>
      <trkpt lat="42.461814" lon="1.938196">
        <ele>1204.361285</ele>
        <time>2019-08-22T16:09:30.595Z</time>
      </trkpt>
      <trkpt lat="42.461852" lon="1.938256">
        <ele>1204.460200</ele>
        <time>2019-08-22T16:09:32.132Z</time>
      </trkpt>
      <trkpt lat="42.461938" lon="1.938464">
        <ele>1204.758457</ele>
        <time>2019-08-22T16:09:36.612Z</time>
      </trkpt>
      <trkpt lat="42.461970" lon="1.938589">
        <ele>1204.923962</ele>
        <time>2019-08-22T16:09:38.704Z</time>
      </trkpt>
      <trkpt lat="42.462006" lon="1.938607">
        <ele>1204.989022</ele>
        <time>2019-08-22T16:09:39.512Z</time>
      </trkpt>
      <trkpt lat="42.462058" lon="1.938624">
        <ele>1205.079720</ele>
        <time>2019-08-22T16:09:40.756Z</time>
      </trkpt>
      <trkpt lat="42.462328" lon="1.938479">
        <ele>1205.572144</ele>
        <time>2019-08-22T16:09:48.790Z</time>
      </trkpt>
      <trkpt lat="42.462392" lon="1.938457">
        <ele>1205.684095</ele>
        <time>2019-08-22T16:09:50.459Z</time>
      </trkpt>
      <trkpt lat="42.462501" lon="1.938448">
        <ele>1205.869255</ele>
        <time>2019-08-22T16:09:54.116Z</time>
      </trkpt>
      <trkpt lat="42.462530" lon="1.938642">
        <ele>1206.116853</ele>
        <time>2019-08-22T16:09:59.550Z</time>
      </trkpt>
      <trkpt lat="42.462610" lon="1.938853">
        <ele>1206.413600</ele>
        <time>2019-08-22T16:10:04.583Z</time>
      </trkpt>
      <trkpt lat="42.462829" lon="1.939114">
        <ele>1207.148720</ele>
        <time>2019-08-22T16:10:14.467Z</time>
      </trkpt>
      <trkpt lat="42.463094" lon="1.939102">
        <ele>1208.166084</ele>
        <time>2019-08-22T16:10:24.139Z</time>
      </trkpt>
      <trkpt lat="42.463098" lon="1.939207">
        <ele>1208.463691</ele>
        <time>2019-08-22T16:10:25.901Z</time>
      </trkpt>
      <trkpt lat="42.463114" lon="1.939291">
        <ele>1208.709257</ele>
        <time>2019-08-22T16:10:27.520Z</time>
      </trkpt>
      <trkpt lat="42.463170" lon="1.939372">
        <ele>1209.023482</ele>
        <time>2019-08-22T16:10:30.565Z</time>
      </trkpt>
      <trkpt lat="42.463279" lon="1.939422">
        <ele>1209.465009</ele>
        <time>2019-08-22T16:10:34.788Z</time>
      </trkpt>
      <trkpt lat="42.463388" lon="1.939368">
        <ele>1209.910294</ele>
        <time>2019-08-22T16:10:37.969Z</time>
      </trkpt>
      <trkpt lat="42.463491" lon="1.939317">
        <ele>1210.331042</ele>
        <time>2019-08-22T16:10:41.272Z</time>
      </trkpt>
      <trkpt lat="42.463594" lon="1.939315">
        <ele>1210.726290</ele>
        <time>2019-08-22T16:10:45.218Z</time>
      </trkpt>
      <trkpt lat="42.463899" lon="1.939341">
        <ele>1211.898877</ele>
        <time>2019-08-22T16:10:53.638Z</time>
      </trkpt>
      <trkpt lat="42.464413" lon="1.939178">
        <ele>1213.913955</ele>
        <time>2019-08-22T16:11:09.831Z</time>
      </trkpt>
      <trkpt lat="42.464621" lon="1.939202">
        <ele>1214.687737</ele>
        <time>2019-08-22T16:11:16.122Z</time>
      </trkpt>
      <trkpt lat="42.464757" lon="1.939307">
        <ele>1215.267878</ele>
        <time>2019-08-22T16:11:21.272Z</time>
      </trkpt>
      <trkpt lat="42.465151" lon="1.939679">
        <ele>1217.047648</ele>
        <time>2019-08-22T16:11:36.058Z</time>
      </trkpt>
      <trkpt lat="42.466576" lon="1.940999">
        <ele>1222.845514</ele>
        <time>2019-08-22T16:12:25.271Z</time>
      </trkpt>
      <trkpt lat="42.467159" lon="1.942324">
        <ele>1226.134958</ele>
        <time>2019-08-22T16:12:54.596Z</time>
      </trkpt>
      <trkpt lat="42.467921" lon="1.943414">
        <ele>1228.719785</ele>
        <time>2019-08-22T16:13:20.425Z</time>
      </trkpt>
      <trkpt lat="42.468267" lon="1.943805">
        <ele>1229.770849</ele>
        <time>2019-08-22T16:13:31.163Z</time>
      </trkpt>
      <trkpt lat="42.468929" lon="1.944404">
        <ele>1231.944443</ele>
        <time>2019-08-22T16:13:51.534Z</time>
      </trkpt>
      <trkpt lat="42.469038" lon="1.944782">
        <ele>1232.769781</ele>
        <time>2019-08-22T16:13:59.186Z</time>
      </trkpt>
      <trkpt lat="42.469134" lon="1.945221">
        <ele>1233.700921</ele>
        <time>2019-08-22T16:14:08.095Z</time>
      </trkpt>
      <trkpt lat="42.469170" lon="1.945384">
        <ele>1234.046931</ele>
        <time>2019-08-22T16:14:11.678Z</time>
      </trkpt>
      <trkpt lat="42.469319" lon="1.946265">
        <ele>1236.014184</ele>
        <time>2019-08-22T16:14:29.400Z</time>
      </trkpt>
      <trkpt lat="42.469409" lon="1.946506">
        <ele>1236.631612</ele>
        <time>2019-08-22T16:14:34.839Z</time>
      </trkpt>
      <trkpt lat="42.469932" lon="1.947333">
        <ele>1239.121496</ele>
        <time>2019-08-22T16:14:57.030Z</time>
      </trkpt>
      <trkpt lat="42.470433" lon="1.947723">
        <ele>1241.069567</ele>
        <time>2019-08-22T16:15:12.434Z</time>
      </trkpt>
      <trkpt lat="42.470726" lon="1.948095">
        <ele>1242.710106</ele>
        <time>2019-08-22T16:15:23.911Z</time>
      </trkpt>
      <trkpt lat="42.471170" lon="1.948887">
        <ele>1245.708870</ele>
        <time>2019-08-22T16:15:46.451Z</time>
      </trkpt>
      <trkpt lat="42.471741" lon="1.950230">
        <ele>1251.437055</ele>
        <time>2019-08-22T16:16:26.742Z</time>
      </trkpt>
      <trkpt lat="42.472575" lon="1.950623">
        <ele>1256.501973</ele>
        <time>2019-08-22T16:17:01.047Z</time>
      </trkpt>
      <trkpt lat="42.473090" lon="1.951136">
        <ele>1260.547243</ele>
        <time>2019-08-22T16:17:26.807Z</time>
      </trkpt>
      <trkpt lat="42.473341" lon="1.951288">
        <ele>1262.411369</ele>
        <time>2019-08-22T16:17:38.119Z</time>
      </trkpt>
      <trkpt lat="42.473601" lon="1.951305">
        <ele>1264.176498</ele>
        <time>2019-08-22T16:17:48.973Z</time>
      </trkpt>
      <trkpt lat="42.474003" lon="1.951157">
        <ele>1267.001210</ele>
        <time>2019-08-22T16:18:06.668Z</time>
      </trkpt>
      <trkpt lat="42.474827" lon="1.951201">
        <ele>1272.976559</ele>
        <time>2019-08-22T16:18:42.386Z</time>
      </trkpt>
      <trkpt lat="42.475603" lon="1.951513">
        <ele>1279.375577</ele>
        <time>2019-08-22T16:19:19.768Z</time>
      </trkpt>
      <trkpt lat="42.476108" lon="1.951356">
        <ele>1283.471649</ele>
        <time>2019-08-22T16:19:43.916Z</time>
      </trkpt>
      <trkpt lat="42.476640" lon="1.951073">
        <ele>1287.789168</ele>
        <time>2019-08-22T16:20:14.124Z</time>
      </trkpt>
      <trkpt lat="42.476900" lon="1.951037">
        <ele>1289.736598</ele>
        <time>2019-08-22T16:20:25.516Z</time>
      </trkpt>
      <trkpt lat="42.476988" lon="1.951056">
        <ele>1290.400579</ele>
        <time>2019-08-22T16:20:31.552Z</time>
      </trkpt>
      <trkpt lat="42.477087" lon="1.951095">
        <ele>1291.168770</ele>
        <time>2019-08-22T16:20:35.910Z</time>
      </trkpt>
      <trkpt lat="42.477226" lon="1.951240">
        <ele>1292.475588</ele>
        <time>2019-08-22T16:20:43.063Z</time>
      </trkpt>
      <trkpt lat="42.477326" lon="1.951397">
        <ele>1293.615632</ele>
        <time>2019-08-22T16:20:51.140Z</time>
      </trkpt>
      <trkpt lat="42.477784" lon="1.952118">
        <ele>1298.296210</ele>
        <time>2019-08-22T16:21:18.442Z</time>
      </trkpt>
      <trkpt lat="42.477948" lon="1.952414">
        <ele>1299.144407</ele>
        <time>2019-08-22T16:21:27.111Z</time>
      </trkpt>
      <trkpt lat="42.478029" lon="1.952558">
        <ele>1299.559323</ele>
        <time>2019-08-22T16:21:31.535Z</time>
      </trkpt>
      <trkpt lat="42.478175" lon="1.952849">
        <ele>1300.365662</ele>
        <time>2019-08-22T16:21:38.247Z</time>
      </trkpt>
      <trkpt lat="42.478171" lon="1.952918">
        <ele>1300.524234</ele>
        <time>2019-08-22T16:21:39.611Z</time>
      </trkpt>
      <trkpt lat="42.478194" lon="1.952979">
        <ele>1300.681193</ele>
        <time>2019-08-22T16:21:40.803Z</time>
      </trkpt>
      <trkpt lat="42.478204" lon="1.952992">
        <ele>1300.724228</ele>
        <time>2019-08-22T16:21:41.150Z</time>
      </trkpt>
      <trkpt lat="42.478169" lon="1.953251">
        <ele>1301.327494</ele>
        <time>2019-08-22T16:21:45.951Z</time>
      </trkpt>
      <trkpt lat="42.478211" lon="1.953415">
        <ele>1301.725236</ele>
        <time>2019-08-22T16:21:48.957Z</time>
      </trkpt>
      <trkpt lat="42.478222" lon="1.953648">
        <ele>1302.260148</ele>
        <time>2019-08-22T16:21:52.696Z</time>
      </trkpt>
      <trkpt lat="42.478239" lon="1.953822">
        <ele>1302.662276</ele>
        <time>2019-08-22T16:21:55.584Z</time>
      </trkpt>
      <trkpt lat="42.478259" lon="1.954027">
        <ele>1303.136036</ele>
        <time>2019-08-22T16:21:58.231Z</time>
      </trkpt>
      <trkpt lat="42.478311" lon="1.954395">
        <ele>1303.933447</ele>
        <time>2019-08-22T16:22:04.105Z</time>
      </trkpt>
      <trkpt lat="42.478340" lon="1.954517">
        <ele>1304.191509</ele>
        <time>2019-08-22T16:22:05.864Z</time>
      </trkpt>
      <trkpt lat="42.478374" lon="1.954661">
        <ele>1304.495915</ele>
        <time>2019-08-22T16:22:08.580Z</time>
      </trkpt>
      <trkpt lat="42.478427" lon="1.954820">
        <ele>1304.847202</ele>
        <time>2019-08-22T16:22:11.831Z</time>
      </trkpt>
      <trkpt lat="42.478673" lon="1.955188">
        <ele>1305.847126</ele>
        <time>2019-08-22T16:22:20.258Z</time>
      </trkpt>
      <trkpt lat="42.478811" lon="1.955392">
        <ele>1306.404429</ele>
        <time>2019-08-22T16:22:25.188Z</time>
      </trkpt>
      <trkpt lat="42.479019" lon="1.955811">
        <ele>1307.421273</ele>
        <time>2019-08-22T16:22:35.130Z</time>
      </trkpt>
      <trkpt lat="42.479066" lon="1.955939">
        <ele>1307.709141</ele>
        <time>2019-08-22T16:22:38.924Z</time>
      </trkpt>
      <trkpt lat="42.479122" lon="1.956052">
        <ele>1307.983228</ele>
        <time>2019-08-22T16:22:41.763Z</time>
      </trkpt>
      <trkpt lat="42.479185" lon="1.956191">
        <ele>1308.311689</ele>
        <time>2019-08-22T16:22:45.399Z</time>
      </trkpt>
      <trkpt lat="42.479222" lon="1.956429">
        <ele>1309.085831</ele>
        <time>2019-08-22T16:22:51.900Z</time>
      </trkpt>
      <trkpt lat="42.479299" lon="1.956754">
        <ele>1310.261255</ele>
        <time>2019-08-22T16:22:59.610Z</time>
      </trkpt>
      <trkpt lat="42.479729" lon="1.957502">
        <ele>1313.526891</ele>
        <time>2019-08-22T16:23:22.907Z</time>
      </trkpt>
      <trkpt lat="42.479774" lon="1.957558">
        <ele>1313.812064</ele>
        <time>2019-08-22T16:23:25.762Z</time>
      </trkpt>
      <trkpt lat="42.480064" lon="1.957914">
        <ele>1315.638504</ele>
        <time>2019-08-22T16:23:39.590Z</time>
      </trkpt>
      <trkpt lat="42.480393" lon="1.958206">
        <ele>1317.621302</ele>
        <time>2019-08-22T16:23:52.310Z</time>
      </trkpt>
      <trkpt lat="42.480811" lon="1.958454">
        <ele>1320.214669</ele>
        <time>2019-08-22T16:24:08.316Z</time>
      </trkpt>
      <trkpt lat="42.480918" lon="1.958509">
        <ele>1320.865082</ele>
        <time>2019-08-22T16:24:12.386Z</time>
      </trkpt>
      <trkpt lat="42.481185" lon="1.958643">
        <ele>1322.483305</ele>
        <time>2019-08-22T16:24:24.351Z</time>
      </trkpt>
      <trkpt lat="42.481761" lon="1.959055">
        <ele>1326.184838</ele>
        <time>2019-08-22T16:24:49.213Z</time>
      </trkpt>
      <trkpt lat="42.481927" lon="1.959254">
        <ele>1327.415575</ele>
        <time>2019-08-22T16:24:57.067Z</time>
      </trkpt>
      <trkpt lat="42.481994" lon="1.959339">
        <ele>1327.901698</ele>
        <time>2019-08-22T16:25:01.789Z</time>
      </trkpt>
      <trkpt lat="42.482119" lon="1.959496">
        <ele>1328.804431</ele>
        <time>2019-08-22T16:25:08.102Z</time>
      </trkpt>
      <trkpt lat="42.482298" lon="1.959721">
        <ele>1330.097610</ele>
        <time>2019-08-22T16:25:18.782Z</time>
      </trkpt>
      <trkpt lat="42.482471" lon="1.959895">
        <ele>1331.238816</ele>
        <time>2019-08-22T16:25:25.868Z</time>
      </trkpt>
      <trkpt lat="42.482859" lon="1.959954">
        <ele>1333.307390</ele>
        <time>2019-08-22T16:25:40.344Z</time>
      </trkpt>
      <trkpt lat="42.483092" lon="1.960053">
        <ele>1334.601049</ele>
        <time>2019-08-22T16:25:48.696Z</time>
      </trkpt>
      <trkpt lat="42.483337" lon="1.960324">
        <ele>1336.276202</ele>
        <time>2019-08-22T16:26:00.043Z</time>
      </trkpt>
      <trkpt lat="42.483687" lon="1.960776">
        <ele>1337.717295</ele>
        <time>2019-08-22T16:26:14.133Z</time>
      </trkpt>
      <trkpt lat="42.483820" lon="1.960945">
        <ele>1338.209908</ele>
        <time>2019-08-22T16:26:19.012Z</time>
      </trkpt>
      <trkpt lat="42.484493" lon="1.961798">
        <ele>1340.699649</ele>
        <time>2019-08-22T16:26:40.920Z</time>
      </trkpt>
      <trkpt lat="42.484536" lon="1.961853">
        <ele>1340.859407</ele>
        <time>2019-08-22T16:26:42.354Z</time>
      </trkpt>
      <trkpt lat="42.484964" lon="1.962422">
        <ele>1342.450832</ele>
        <time>2019-08-22T16:26:53.946Z</time>
      </trkpt>
      <trkpt lat="42.485963" lon="1.963747">
        <ele>1346.126662</ele>
        <time>2019-08-22T16:27:29.984Z</time>
      </trkpt>
      <trkpt lat="42.485997" lon="1.963817">
        <ele>1346.426250</ele>
        <time>2019-08-22T16:27:31.684Z</time>
      </trkpt>
      <trkpt lat="42.486307" lon="1.964206">
        <ele>1348.583206</ele>
        <time>2019-08-22T16:27:45.843Z</time>
      </trkpt>
      <trkpt lat="42.486325" lon="1.964229">
        <ele>1348.709510</ele>
        <time>2019-08-22T16:27:46.839Z</time>
      </trkpt>
      <trkpt lat="42.486341" lon="1.964248">
        <ele>1348.818121</ele>
        <time>2019-08-22T16:27:47.896Z</time>
      </trkpt>
      <trkpt lat="42.486400" lon="1.964578">
        <ele>1350.096904</ele>
        <time>2019-08-22T16:27:55.765Z</time>
      </trkpt>
      <trkpt lat="42.486395" lon="1.964630">
        <ele>1350.294394</ele>
        <time>2019-08-22T16:27:57.311Z</time>
      </trkpt>
      <trkpt lat="42.486380" lon="1.964801">
        <ele>1350.942919</ele>
        <time>2019-08-22T16:28:02.594Z</time>
      </trkpt>
      <trkpt lat="42.486323" lon="1.964957">
        <ele>1351.598576</ele>
        <time>2019-08-22T16:28:06.558Z</time>
      </trkpt>
      <trkpt lat="42.485772" lon="1.965446">
        <ele>1354.961516</ele>
        <time>2019-08-22T16:28:32.280Z</time>
      </trkpt>
      <trkpt lat="42.485209" lon="1.966153">
        <ele>1359.264342</ele>
        <time>2019-08-22T16:29:02.328Z</time>
      </trkpt>
      <trkpt lat="42.485065" lon="1.966236">
        <ele>1360.149850</ele>
        <time>2019-08-22T16:29:08.017Z</time>
      </trkpt>
      <trkpt lat="42.484916" lon="1.966260">
        <ele>1360.999019</ele>
        <time>2019-08-22T16:29:13.478Z</time>
      </trkpt>
      <trkpt lat="42.484440" lon="1.966175">
        <ele>1363.716118</ele>
        <time>2019-08-22T16:29:31.001Z</time>
      </trkpt>
      <trkpt lat="42.483835" lon="1.966370">
        <ele>1366.988888</ele>
        <time>2019-08-22T16:29:53.853Z</time>
      </trkpt>
      <trkpt lat="42.483353" lon="1.966379">
        <ele>1369.327558</ele>
        <time>2019-08-22T16:30:11.175Z</time>
      </trkpt>
      <trkpt lat="42.482688" lon="1.966576">
        <ele>1372.629936</ele>
        <time>2019-08-22T16:30:34.695Z</time>
      </trkpt>
      <trkpt lat="42.482465" lon="1.966591">
        <ele>1373.713162</ele>
        <time>2019-08-22T16:30:41.904Z</time>
      </trkpt>
      <trkpt lat="42.481457" lon="1.966395">
        <ele>1377.100575</ele>
        <time>2019-08-22T16:31:11.558Z</time>
      </trkpt>
      <trkpt lat="42.481265" lon="1.966305">
        <ele>1377.739801</ele>
        <time>2019-08-22T16:31:16.957Z</time>
      </trkpt>
      <trkpt lat="42.480694" lon="1.965848">
        <ele>1379.826145</ele>
        <time>2019-08-22T16:31:33.372Z</time>
      </trkpt>
      <trkpt lat="42.480552" lon="1.965645">
        <ele>1380.537471</ele>
        <time>2019-08-22T16:31:38.144Z</time>
      </trkpt>
      <trkpt lat="42.480391" lon="1.965187">
        <ele>1381.840538</ele>
        <time>2019-08-22T16:31:46.522Z</time>
      </trkpt>
      <trkpt lat="42.480297" lon="1.965095">
        <ele>1382.244253</ele>
        <time>2019-08-22T16:31:49.527Z</time>
      </trkpt>
      <trkpt lat="42.480197" lon="1.965080">
        <ele>1382.594618</ele>
        <time>2019-08-22T16:31:52.091Z</time>
      </trkpt>
      <trkpt lat="42.480102" lon="1.965112">
        <ele>1382.935502</ele>
        <time>2019-08-22T16:31:54.544Z</time>
      </trkpt>
      <trkpt lat="42.479997" lon="1.965335">
        <ele>1383.615007</ele>
        <time>2019-08-22T16:32:00.484Z</time>
      </trkpt>
      <trkpt lat="42.480090" lon="1.966043">
        <ele>1385.461992</ele>
        <time>2019-08-22T16:32:17.566Z</time>
      </trkpt>
      <trkpt lat="42.480066" lon="1.966539">
        <ele>1387.135991</ele>
        <time>2019-08-22T16:32:30.330Z</time>
      </trkpt>
      <trkpt lat="42.480081" lon="1.966777">
        <ele>1388.169121</ele>
        <time>2019-08-22T16:32:36.862Z</time>
      </trkpt>
      <trkpt lat="42.480113" lon="1.966861">
        <ele>1388.578036</ele>
        <time>2019-08-22T16:32:39.379Z</time>
      </trkpt>
      <trkpt lat="42.480161" lon="1.966993">
        <ele>1389.214576</ele>
        <time>2019-08-22T16:32:43.309Z</time>
      </trkpt>
      <trkpt lat="42.480396" lon="1.967428">
        <ele>1391.546751</ele>
        <time>2019-08-22T16:32:58.756Z</time>
      </trkpt>
      <trkpt lat="42.481167" lon="1.968922">
        <ele>1399.009459</ele>
        <time>2019-08-22T16:33:53.536Z</time>
      </trkpt>
      <trkpt lat="42.481450" lon="1.969368">
        <ele>1401.158734</ele>
        <time>2019-08-22T16:34:08.551Z</time>
      </trkpt>
      <trkpt lat="42.482219" lon="1.969855">
        <ele>1405.362741</ele>
        <time>2019-08-22T16:34:35.238Z</time>
      </trkpt>
      <trkpt lat="42.483037" lon="1.970730">
        <ele>1409.697681</ele>
        <time>2019-08-22T16:35:07.019Z</time>
      </trkpt>
      <trkpt lat="42.483361" lon="1.970939">
        <ele>1411.175889</ele>
        <time>2019-08-22T16:35:18.179Z</time>
      </trkpt>
      <trkpt lat="42.483664" lon="1.971010">
        <ele>1412.442733</ele>
        <time>2019-08-22T16:35:27.628Z</time>
      </trkpt>
      <trkpt lat="42.483775" lon="1.970999">
        <ele>1412.901266</ele>
        <time>2019-08-22T16:35:31.401Z</time>
      </trkpt>
      <trkpt lat="42.483844" lon="1.970992">
        <ele>1413.230327</ele>
        <time>2019-08-22T16:35:33.421Z</time>
      </trkpt>
      <trkpt lat="42.484094" lon="1.970914">
        <ele>1414.575758</ele>
        <time>2019-08-22T16:35:42.039Z</time>
      </trkpt>
      <trkpt lat="42.485256" lon="1.970323">
        <ele>1421.084661</ele>
        <time>2019-08-22T16:36:27.127Z</time>
      </trkpt>
      <trkpt lat="42.486065" lon="1.969747">
        <ele>1426.002199</ele>
        <time>2019-08-22T16:37:01.906Z</time>
      </trkpt>
      <trkpt lat="42.486845" lon="1.969566">
        <ele>1430.304635</ele>
        <time>2019-08-22T16:37:31.094Z</time>
      </trkpt>
      <trkpt lat="42.487150" lon="1.969623">
        <ele>1431.978567</ele>
        <time>2019-08-22T16:37:42.023Z</time>
      </trkpt>
      <trkpt lat="42.487328" lon="1.969754">
        <ele>1433.005639</ele>
        <time>2019-08-22T16:37:48.943Z</time>
      </trkpt>
      <trkpt lat="42.487474" lon="1.969984">
        <ele>1434.115403</ele>
        <time>2019-08-22T16:37:56.539Z</time>
      </trkpt>
      <trkpt lat="42.487555" lon="1.970263">
        <ele>1435.211878</ele>
        <time>2019-08-22T16:38:03.999Z</time>
      </trkpt>
      <trkpt lat="42.487605" lon="1.970766">
        <ele>1437.067893</ele>
        <time>2019-08-22T16:38:16.614Z</time>
      </trkpt>
      <trkpt lat="42.487832" lon="1.971778">
        <ele>1440.936000</ele>
        <time>2019-08-22T16:38:43.004Z</time>
      </trkpt>
      <trkpt lat="42.488675" lon="1.973955">
        <ele>1451.344344</ele>
        <time>2019-08-22T16:39:51.511Z</time>
      </trkpt>
      <trkpt lat="42.488745" lon="1.974362">
        <ele>1453.509974</ele>
        <time>2019-08-22T16:40:04.434Z</time>
      </trkpt>
      <trkpt lat="42.488732" lon="1.974691">
        <ele>1455.250405</ele>
        <time>2019-08-22T16:40:14.791Z</time>
      </trkpt>
      <trkpt lat="42.488560" lon="1.975905">
        <ele>1461.780645</ele>
        <time>2019-08-22T16:40:54.683Z</time>
      </trkpt>
      <trkpt lat="42.488570" lon="1.976057">
        <ele>1462.586774</ele>
        <time>2019-08-22T16:40:59.805Z</time>
      </trkpt>
      <trkpt lat="42.488657" lon="1.976216">
        <ele>1463.632660</ele>
        <time>2019-08-22T16:41:06.562Z</time>
      </trkpt>
      <trkpt lat="42.488769" lon="1.976244">
        <ele>1464.457413</ele>
        <time>2019-08-22T16:41:11.911Z</time>
      </trkpt>
      <trkpt lat="42.488870" lon="1.976174">
        <ele>1465.424299</ele>
        <time>2019-08-22T16:41:17.331Z</time>
      </trkpt>
      <trkpt lat="42.488933" lon="1.976045">
        <ele>1466.396896</ele>
        <time>2019-08-22T16:41:22.725Z</time>
      </trkpt>
      <trkpt lat="42.488931" lon="1.975498">
        <ele>1469.835348</ele>
        <time>2019-08-22T16:41:41.937Z</time>
      </trkpt>
      <trkpt lat="42.489042" lon="1.975133">
        <ele>1472.317166</ele>
        <time>2019-08-22T16:41:55.818Z</time>
      </trkpt>
      <trkpt lat="42.489215" lon="1.974929">
        <ele>1474.271431</ele>
        <time>2019-08-22T16:42:06.668Z</time>
      </trkpt>
      <trkpt lat="42.489588" lon="1.974723">
        <ele>1477.704586</ele>
        <time>2019-08-22T16:42:27.847Z</time>
      </trkpt>
      <trkpt lat="42.489928" lon="1.974421">
        <ele>1481.199563</ele>
        <time>2019-08-22T16:42:49.313Z</time>
      </trkpt>
      <trkpt lat="42.490256" lon="1.973682">
        <ele>1486.735940</ele>
        <time>2019-08-22T16:43:21.559Z</time>
      </trkpt>
      <trkpt lat="42.490448" lon="1.973390">
        <ele>1489.247107</ele>
        <time>2019-08-22T16:43:34.053Z</time>
      </trkpt>
      <trkpt lat="42.490497" lon="1.973344">
        <ele>1489.765855</ele>
        <time>2019-08-22T16:43:38.309Z</time>
      </trkpt>
      <trkpt lat="42.490599" lon="1.973249">
        <ele>1490.842945</ele>
        <time>2019-08-22T16:43:43.953Z</time>
      </trkpt>
      <trkpt lat="42.490943" lon="1.973126">
        <ele>1493.939639</ele>
        <time>2019-08-22T16:44:01.744Z</time>
      </trkpt>
      <trkpt lat="42.491658" lon="1.973441">
        <ele>1499.829308</ele>
        <time>2019-08-22T16:44:38.449Z</time>
      </trkpt>
      <trkpt lat="42.492007" lon="1.973293">
        <ele>1502.603390</ele>
        <time>2019-08-22T16:44:56.316Z</time>
      </trkpt>
      <trkpt lat="42.492154" lon="1.973229">
        <ele>1503.774651</ele>
        <time>2019-08-22T16:45:03.173Z</time>
      </trkpt>
      <trkpt lat="42.492227" lon="1.973215">
        <ele>1504.333969</ele>
        <time>2019-08-22T16:45:06.405Z</time>
      </trkpt>
      <trkpt lat="42.492302" lon="1.973226">
        <ele>1504.906268</ele>
        <time>2019-08-22T16:45:09.174Z</time>
      </trkpt>
      <trkpt lat="42.492386" lon="1.973261">
        <ele>1505.572925</ele>
        <time>2019-08-22T16:45:12.286Z</time>
      </trkpt>
      <trkpt lat="42.492480" lon="1.973335">
        <ele>1506.397487</ele>
        <time>2019-08-22T16:45:17.127Z</time>
      </trkpt>
      <trkpt lat="42.492569" lon="1.973417">
        <ele>1507.213754</ele>
        <time>2019-08-22T16:45:21.937Z</time>
      </trkpt>
      <trkpt lat="42.492657" lon="1.973611">
        <ele>1508.487886</ele>
        <time>2019-08-22T16:45:28.048Z</time>
      </trkpt>
      <trkpt lat="42.492673" lon="1.973677">
        <ele>1508.876528</ele>
        <time>2019-08-22T16:45:30.148Z</time>
      </trkpt>
      <trkpt lat="42.492718" lon="1.973871">
        <ele>1509.743311</ele>
        <time>2019-08-22T16:45:37.110Z</time>
      </trkpt>
      <trkpt lat="42.492728" lon="1.975554">
        <ele>1516.552409</ele>
        <time>2019-08-22T16:46:22.979Z</time>
      </trkpt>
      <trkpt lat="42.492769" lon="1.975944">
        <ele>1518.146179</ele>
        <time>2019-08-22T16:46:32.553Z</time>
      </trkpt>
      <trkpt lat="42.492937" lon="1.976626">
        <ele>1521.013620</ele>
        <time>2019-08-22T16:46:50.191Z</time>
      </trkpt>
      <trkpt lat="42.493075" lon="1.976948">
        <ele>1522.491239</ele>
        <time>2019-08-22T16:46:59.636Z</time>
      </trkpt>
      <trkpt lat="42.493245" lon="1.977179">
        <ele>1523.786071</ele>
        <time>2019-08-22T16:47:08.958Z</time>
      </trkpt>
      <trkpt lat="42.493497" lon="1.977317">
        <ele>1525.248340</ele>
        <time>2019-08-22T16:47:19.134Z</time>
      </trkpt>
      <trkpt lat="42.493550" lon="1.977334">
        <ele>1525.541378</ele>
        <time>2019-08-22T16:47:21.155Z</time>
      </trkpt>
      <trkpt lat="42.493614" lon="1.977354">
        <ele>1525.894758</ele>
        <time>2019-08-22T16:47:23.322Z</time>
      </trkpt>
      <trkpt lat="42.493740" lon="1.977385">
        <ele>1526.583775</ele>
        <time>2019-08-22T16:47:27.372Z</time>
      </trkpt>
      <trkpt lat="42.493872" lon="1.977373">
        <ele>1527.295604</ele>
        <time>2019-08-22T16:47:33.602Z</time>
      </trkpt>
      <trkpt lat="42.494081" lon="1.977279">
        <ele>1528.480368</ele>
        <time>2019-08-22T16:47:40.833Z</time>
      </trkpt>
      <trkpt lat="42.494404" lon="1.976850">
        <ele>1530.977975</ele>
        <time>2019-08-22T16:47:59.399Z</time>
      </trkpt>
      <trkpt lat="42.494736" lon="1.976628">
        <ele>1533.025258</ele>
        <time>2019-08-22T16:48:14.311Z</time>
      </trkpt>
      <trkpt lat="42.495443" lon="1.975664">
        <ele>1538.550839</ele>
        <time>2019-08-22T16:48:51.224Z</time>
      </trkpt>
      <trkpt lat="42.495558" lon="1.975587">
        <ele>1538.921586</ele>
        <time>2019-08-22T16:48:55.210Z</time>
      </trkpt>
      <trkpt lat="42.495726" lon="1.975636">
        <ele>1539.418342</ele>
        <time>2019-08-22T16:49:00.335Z</time>
      </trkpt>
      <trkpt lat="42.495785" lon="1.975735">
        <ele>1539.689666</ele>
        <time>2019-08-22T16:49:03.072Z</time>
      </trkpt>
      <trkpt lat="42.495772" lon="1.975956">
        <ele>1540.162215</ele>
        <time>2019-08-22T16:49:07.535Z</time>
      </trkpt>
      <trkpt lat="42.495313" lon="1.976537">
        <ele>1541.977203</ele>
        <time>2019-08-22T16:49:22.822Z</time>
      </trkpt>
      <trkpt lat="42.495197" lon="1.977070">
        <ele>1543.161736</ele>
        <time>2019-08-22T16:49:31.416Z</time>
      </trkpt>
      <trkpt lat="42.495181" lon="1.978810">
        <ele>1546.835877</ele>
        <time>2019-08-22T16:50:02.731Z</time>
      </trkpt>
      <trkpt lat="42.495231" lon="1.979068">
        <ele>1547.398156</ele>
        <time>2019-08-22T16:50:07.961Z</time>
      </trkpt>
      <trkpt lat="42.495322" lon="1.979266">
        <ele>1547.889934</ele>
        <time>2019-08-22T16:50:12.988Z</time>
      </trkpt>
      <trkpt lat="42.495440" lon="1.979400">
        <ele>1548.329888</ele>
        <time>2019-08-22T16:50:17.210Z</time>
      </trkpt>
      <trkpt lat="42.495541" lon="1.979560">
        <ele>1548.773842</ele>
        <time>2019-08-22T16:50:22.469Z</time>
      </trkpt>
      <trkpt lat="42.495614" lon="1.980025">
        <ele>1550.240472</ele>
        <time>2019-08-22T16:50:33.423Z</time>
      </trkpt>
      <trkpt lat="42.495327" lon="1.980584">
        <ele>1552.413253</ele>
        <time>2019-08-22T16:50:49.365Z</time>
      </trkpt>
      <trkpt lat="42.495186" lon="1.981082">
        <ele>1554.114861</ele>
        <time>2019-08-22T16:51:03.087Z</time>
      </trkpt>
      <trkpt lat="42.495197" lon="1.981384">
        <ele>1555.079355</ele>
        <time>2019-08-22T16:51:11.668Z</time>
      </trkpt>
      <trkpt lat="42.495327" lon="1.981760">
        <ele>1556.404030</ele>
        <time>2019-08-22T16:51:20.957Z</time>
      </trkpt>
      <trkpt lat="42.495367" lon="1.982159">
        <ele>1557.414913</ele>
        <time>2019-08-22T16:51:29.549Z</time>
      </trkpt>
      <trkpt lat="42.495342" lon="1.982551">
        <ele>1558.338687</ele>
        <time>2019-08-22T16:51:37.659Z</time>
      </trkpt>
      <trkpt lat="42.495292" lon="1.982841">
        <ele>1559.037916</ele>
        <time>2019-08-22T16:51:43.922Z</time>
      </trkpt>
      <trkpt lat="42.495215" lon="1.983294">
        <ele>1560.129367</ele>
        <time>2019-08-22T16:51:53.361Z</time>
      </trkpt>
      <trkpt lat="42.495183" lon="1.983717">
        <ele>1561.127703</ele>
        <time>2019-08-22T16:52:01.568Z</time>
      </trkpt>
      <trkpt lat="42.495233" lon="1.984306">
        <ele>1562.503250</ele>
        <time>2019-08-22T16:52:12.608Z</time>
      </trkpt>
      <trkpt lat="42.495437" lon="1.984845">
        <ele>1563.759018</ele>
        <time>2019-08-22T16:52:23.927Z</time>
      </trkpt>
      <trkpt lat="42.495473" lon="1.984926">
        <ele>1563.955047</ele>
        <time>2019-08-22T16:52:25.624Z</time>
      </trkpt>
      <trkpt lat="42.495547" lon="1.985091">
        <ele>1564.355337</ele>
        <time>2019-08-22T16:52:29.336Z</time>
      </trkpt>
      <trkpt lat="42.496087" lon="1.985711">
        <ele>1566.344217</ele>
        <time>2019-08-22T16:52:47.268Z</time>
      </trkpt>
      <trkpt lat="42.496306" lon="1.986042">
        <ele>1567.265988</ele>
        <time>2019-08-22T16:52:56.216Z</time>
      </trkpt>
      <trkpt lat="42.496602" lon="1.986713">
        <ele>1569.475751</ele>
        <time>2019-08-22T16:53:12.802Z</time>
      </trkpt>
      <trkpt lat="42.496588" lon="1.987303">
        <ele>1571.195920</ele>
        <time>2019-08-22T16:53:25.866Z</time>
      </trkpt>
      <trkpt lat="42.496819" lon="1.988307">
        <ele>1574.260741</ele>
        <time>2019-08-22T16:53:50.516Z</time>
      </trkpt>
      <trkpt lat="42.496982" lon="1.989592">
        <ele>1578.821158</ele>
        <time>2019-08-22T16:54:23.272Z</time>
      </trkpt>
      <trkpt lat="42.497324" lon="1.990389">
        <ele>1582.089806</ele>
        <time>2019-08-22T16:54:47.639Z</time>
      </trkpt>
      <trkpt lat="42.497521" lon="1.990853">
        <ele>1583.776448</ele>
        <time>2019-08-22T16:55:01.090Z</time>
      </trkpt>
      <trkpt lat="42.497550" lon="1.990954">
        <ele>1584.058778</ele>
        <time>2019-08-22T16:55:03.768Z</time>
      </trkpt>
      <trkpt lat="42.497581" lon="1.991092">
        <ele>1584.434553</ele>
        <time>2019-08-22T16:55:07.160Z</time>
      </trkpt>
      <trkpt lat="42.497572" lon="1.991141">
        <ele>1584.566089</ele>
        <time>2019-08-22T16:55:08.489Z</time>
      </trkpt>
      <trkpt lat="42.497607" lon="1.991291">
        <ele>1584.975907</ele>
        <time>2019-08-22T16:55:11.938Z</time>
      </trkpt>
      <trkpt lat="42.497689" lon="1.991350">
        <ele>1585.303842</ele>
        <time>2019-08-22T16:55:14.920Z</time>
      </trkpt>
      <trkpt lat="42.497732" lon="1.991438">
        <ele>1585.578833</ele>
        <time>2019-08-22T16:55:17.372Z</time>
      </trkpt>
      <trkpt lat="42.497765" lon="1.991523">
        <ele>1585.829058</ele>
        <time>2019-08-22T16:55:19.500Z</time>
      </trkpt>
      <trkpt lat="42.497831" lon="1.991658">
        <ele>1586.250986</ele>
        <time>2019-08-22T16:55:22.854Z</time>
      </trkpt>
      <trkpt lat="42.498003" lon="1.992094">
        <ele>1587.539015</ele>
        <time>2019-08-22T16:55:33.464Z</time>
      </trkpt>
      <trkpt lat="42.498558" lon="1.993923">
        <ele>1591.414760</ele>
        <time>2019-08-22T16:56:08.645Z</time>
      </trkpt>
      <trkpt lat="42.498675" lon="1.994322">
        <ele>1592.079491</ele>
        <time>2019-08-22T16:56:15.338Z</time>
      </trkpt>
      <trkpt lat="42.498784" lon="1.994718">
        <ele>1592.733846</ele>
        <time>2019-08-22T16:56:22.077Z</time>
      </trkpt>
      <trkpt lat="42.498922" lon="1.995241">
        <ele>1593.619174</ele>
        <time>2019-08-22T16:56:31.451Z</time>
      </trkpt>
      <trkpt lat="42.499019" lon="1.995717">
        <ele>1594.455117</ele>
        <time>2019-08-22T16:56:40.176Z</time>
      </trkpt>
      <trkpt lat="42.499051" lon="1.995887">
        <ele>1594.752109</ele>
        <time>2019-08-22T16:56:43.466Z</time>
      </trkpt>
      <trkpt lat="42.499120" lon="1.996303">
        <ele>1595.473877</ele>
        <time>2019-08-22T16:56:51.029Z</time>
      </trkpt>
      <trkpt lat="42.499141" lon="1.996772">
        <ele>1596.269222</ele>
        <time>2019-08-22T16:56:59.617Z</time>
      </trkpt>
      <trkpt lat="42.499179" lon="1.996930">
        <ele>1596.550541</ele>
        <time>2019-08-22T16:57:02.767Z</time>
      </trkpt>
      <trkpt lat="42.499205" lon="1.997364">
        <ele>1597.287599</ele>
        <time>2019-08-22T16:57:10.677Z</time>
      </trkpt>
      <trkpt lat="42.499187" lon="1.997972">
        <ele>1598.271389</ele>
        <time>2019-08-22T16:57:21.306Z</time>
      </trkpt>
      <trkpt lat="42.499131" lon="1.998258">
        <ele>1598.745569</ele>
        <time>2019-08-22T16:57:26.303Z</time>
      </trkpt>
      <trkpt lat="42.498696" lon="1.999182">
        <ele>1600.502318</ele>
        <time>2019-08-22T16:57:45.234Z</time>
      </trkpt>
      <trkpt lat="42.498428" lon="1.999556">
        <ele>1601.338053</ele>
        <time>2019-08-22T16:57:53.873Z</time>
      </trkpt>
      <trkpt lat="42.498405" lon="1.999592">
        <ele>1601.434153</ele>
        <time>2019-08-22T16:57:54.622Z</time>
      </trkpt>
      <trkpt lat="42.498212" lon="1.999887">
        <ele>1602.297801</ele>
        <time>2019-08-22T16:58:01.458Z</time>
      </trkpt>
      <trkpt lat="42.497992" lon="2.000570">
        <ele>1603.929947</ele>
        <time>2019-08-22T16:58:15.681Z</time>
      </trkpt>
      <trkpt lat="42.497976" lon="2.000843">
        <ele>1604.529654</ele>
        <time>2019-08-22T16:58:21.614Z</time>
      </trkpt>
      <trkpt lat="42.498000" lon="2.001041">
        <ele>1604.969059</ele>
        <time>2019-08-22T16:58:26.003Z</time>
      </trkpt>
      <trkpt lat="42.498182" lon="2.001589">
        <ele>1606.285205</ele>
        <time>2019-08-22T16:58:38.859Z</time>
      </trkpt>
      <trkpt lat="42.498268" lon="2.002459">
        <ele>1607.558879</ele>
        <time>2019-08-22T16:58:57.388Z</time>
      </trkpt>
      <trkpt lat="42.498348" lon="2.002914">
        <ele>1608.141768</ele>
        <time>2019-08-22T16:59:05.530Z</time>
      </trkpt>
      <trkpt lat="42.498548" lon="2.003781">
        <ele>1609.273807</ele>
        <time>2019-08-22T16:59:18.585Z</time>
      </trkpt>
      <trkpt lat="42.498584" lon="2.003875">
        <ele>1609.405803</ele>
        <time>2019-08-22T16:59:20.741Z</time>
      </trkpt>
      <trkpt lat="42.498628" lon="2.003989">
        <ele>1609.566149</ele>
        <time>2019-08-22T16:59:21.755Z</time>
      </trkpt>
      <trkpt lat="42.498883" lon="2.004338">
        <ele>1609.300399</ele>
        <time>2019-08-22T16:59:26.704Z</time>
      </trkpt>
      <trkpt lat="42.499248" lon="2.004666">
        <ele>1608.550011</ele>
        <time>2019-08-22T16:59:31.719Z</time>
      </trkpt>
      <trkpt lat="42.499501" lon="2.005020">
        <ele>1607.927042</ele>
        <time>2019-08-22T16:59:35.584Z</time>
      </trkpt>
      <trkpt lat="42.499687" lon="2.005408">
        <ele>1607.342254</ele>
        <time>2019-08-22T16:59:39.105Z</time>
      </trkpt>
      <trkpt lat="42.499882" lon="2.006122">
        <ele>1606.669720</ele>
        <time>2019-08-22T16:59:45.022Z</time>
      </trkpt>
      <trkpt lat="42.500160" lon="2.007604">
        <ele>1606.737516</ele>
        <time>2019-08-22T16:59:59.642Z</time>
      </trkpt>
      <trkpt lat="42.500242" lon="2.008110">
        <ele>1606.760484</ele>
        <time>2019-08-22T17:00:07.733Z</time>
      </trkpt>
      <trkpt lat="42.500324" lon="2.008694">
        <ele>1608.483955</ele>
        <time>2019-08-22T17:00:19.168Z</time>
      </trkpt>
      <trkpt lat="42.500296" lon="2.010079">
        <ele>1614.096208</ele>
        <time>2019-08-22T17:00:58.319Z</time>
      </trkpt>
      <trkpt lat="42.500457" lon="2.010524">
        <ele>1616.104082</ele>
        <time>2019-08-22T17:01:15.184Z</time>
      </trkpt>
      <trkpt lat="42.500839" lon="2.011236">
        <ele>1620.290273</ele>
        <time>2019-08-22T17:01:43.691Z</time>
      </trkpt>
      <trkpt lat="42.500851" lon="2.011408">
        <ele>1621.133563</ele>
        <time>2019-08-22T17:01:50.759Z</time>
      </trkpt>
      <trkpt lat="42.500793" lon="2.011604">
        <ele>1622.164432</ele>
        <time>2019-08-22T17:01:56.752Z</time>
      </trkpt>
      <trkpt lat="42.500704" lon="2.011713">
        <ele>1622.958309</ele>
        <time>2019-08-22T17:02:01.592Z</time>
      </trkpt>
      <trkpt lat="42.500578" lon="2.011756">
        <ele>1623.818485</ele>
        <time>2019-08-22T17:02:07.734Z</time>
      </trkpt>
      <trkpt lat="42.500057" lon="2.011624">
        <ele>1627.327399</ele>
        <time>2019-08-22T17:02:27.895Z</time>
      </trkpt>
      <trkpt lat="42.499704" lon="2.011782">
        <ele>1628.836302</ele>
        <time>2019-08-22T17:02:41.877Z</time>
      </trkpt>
      <trkpt lat="42.499476" lon="2.011953">
        <ele>1629.226681</ele>
        <time>2019-08-22T17:02:52.248Z</time>
      </trkpt>
      <trkpt lat="42.498941" lon="2.012520">
        <ele>1630.244011</ele>
        <time>2019-08-22T17:03:07.414Z</time>
      </trkpt>
      <trkpt lat="42.498479" lon="2.012833">
        <ele>1631.017814</ele>
        <time>2019-08-22T17:03:13.670Z</time>
      </trkpt>
      <trkpt lat="42.498328" lon="2.013033">
        <ele>1630.979708</ele>
        <time>2019-08-22T17:03:15.885Z</time>
      </trkpt>
      <trkpt lat="42.498137" lon="2.013329">
        <ele>1629.518731</ele>
        <time>2019-08-22T17:03:18.854Z</time>
      </trkpt>
      <trkpt lat="42.497990" lon="2.013505">
        <ele>1628.530960</ele>
        <time>2019-08-22T17:03:20.698Z</time>
      </trkpt>
      <trkpt lat="42.497904" lon="2.013568">
        <ele>1628.038576</ele>
        <time>2019-08-22T17:03:21.693Z</time>
      </trkpt>
      <trkpt lat="42.497854" lon="2.013565">
        <ele>1627.786452</ele>
        <time>2019-08-22T17:03:22.215Z</time>
      </trkpt>
      <trkpt lat="42.497804" lon="2.013579">
        <ele>1627.529262</ele>
        <time>2019-08-22T17:03:22.691Z</time>
      </trkpt>
      <trkpt lat="42.497746" lon="2.013621">
        <ele>1627.198048</ele>
        <time>2019-08-22T17:03:23.286Z</time>
      </trkpt>
      <trkpt lat="42.497713" lon="2.013662">
        <ele>1626.972602</ele>
        <time>2019-08-22T17:03:23.690Z</time>
      </trkpt>
      <trkpt lat="42.497688" lon="2.013712">
        <ele>1626.748216</ele>
        <time>2019-08-22T17:03:24.127Z</time>
      </trkpt>
      <trkpt lat="42.497667" lon="2.013788">
        <ele>1626.446764</ele>
        <time>2019-08-22T17:03:24.703Z</time>
      </trkpt>
      <trkpt lat="42.497663" lon="2.013870">
        <ele>1626.141533</ele>
        <time>2019-08-22T17:03:25.323Z</time>
      </trkpt>
      <trkpt lat="42.497677" lon="2.013949">
        <ele>1625.839753</ele>
        <time>2019-08-22T17:03:25.893Z</time>
      </trkpt>
      <trkpt lat="42.497657" lon="2.014105">
        <ele>1625.251641</ele>
        <time>2019-08-22T17:03:26.932Z</time>
      </trkpt>
      <trkpt lat="42.497563" lon="2.014424">
        <ele>1623.975684</ele>
        <time>2019-08-22T17:03:29.301Z</time>
      </trkpt>
      <trkpt lat="42.497522" lon="2.014583">
        <ele>1623.350047</ele>
        <time>2019-08-22T17:03:30.389Z</time>
      </trkpt>
      <trkpt lat="42.497510" lon="2.014927">
        <ele>1622.019256</ele>
        <time>2019-08-22T17:03:32.698Z</time>
      </trkpt>
      <trkpt lat="42.497604" lon="2.015783">
        <ele>1617.433658</ele>
        <time>2019-08-22T17:03:38.339Z</time>
      </trkpt>
      <trkpt lat="42.497596" lon="2.016089">
        <ele>1615.811280</ele>
        <time>2019-08-22T17:03:40.329Z</time>
      </trkpt>
      <trkpt lat="42.497562" lon="2.016407">
        <ele>1614.108714</ele>
        <time>2019-08-22T17:03:42.475Z</time>
      </trkpt>
      <trkpt lat="42.497353" lon="2.017262">
        <ele>1609.335949</ele>
        <time>2019-08-22T17:03:48.510Z</time>
      </trkpt>
      <trkpt lat="42.497293" lon="2.018004">
        <ele>1605.925925</ele>
        <time>2019-08-22T17:03:53.510Z</time>
      </trkpt>
      <trkpt lat="42.497418" lon="2.019202">
        <ele>1600.414374</ele>
        <time>2019-08-22T17:04:01.669Z</time>
      </trkpt>
      <trkpt lat="42.497367" lon="2.019953">
        <ele>1597.225344</ele>
        <time>2019-08-22T17:04:06.828Z</time>
      </trkpt>
      <trkpt lat="42.497390" lon="2.020308">
        <ele>1595.942456</ele>
        <time>2019-08-22T17:04:09.306Z</time>
      </trkpt>
      <trkpt lat="42.497494" lon="2.020728">
        <ele>1594.347513</ele>
        <time>2019-08-22T17:04:12.415Z</time>
      </trkpt>
      <trkpt lat="42.497749" lon="2.021263">
        <ele>1592.054188</ele>
        <time>2019-08-22T17:04:16.944Z</time>
      </trkpt>
      <trkpt lat="42.497898" lon="2.021719">
        <ele>1590.258666</ele>
        <time>2019-08-22T17:04:20.482Z</time>
      </trkpt>
      <trkpt lat="42.498007" lon="2.022267">
        <ele>1588.295718</ele>
        <time>2019-08-22T17:04:24.448Z</time>
      </trkpt>
      <trkpt lat="42.498045" lon="2.022915">
        <ele>1586.118100</ele>
        <time>2019-08-22T17:04:28.984Z</time>
      </trkpt>
      <trkpt lat="42.498042" lon="2.023546">
        <ele>1584.004243</ele>
        <time>2019-08-22T17:04:33.429Z</time>
      </trkpt>
      <trkpt lat="42.498038" lon="2.024397">
        <ele>1581.170899</ele>
        <time>2019-08-22T17:04:39.469Z</time>
      </trkpt>
      <trkpt lat="42.498057" lon="2.026147">
        <ele>1577.514505</ele>
        <time>2019-08-22T17:04:52.521Z</time>
      </trkpt>
      <trkpt lat="42.498071" lon="2.027619">
        <ele>1575.632848</ele>
        <time>2019-08-22T17:05:05.415Z</time>
      </trkpt>
      <trkpt lat="42.498062" lon="2.027690">
        <ele>1575.590293</ele>
        <time>2019-08-22T17:05:06.161Z</time>
      </trkpt>
      <trkpt lat="42.498046" lon="2.027794">
        <ele>1575.527538</ele>
        <time>2019-08-22T17:05:07.097Z</time>
      </trkpt>
      <trkpt lat="42.497968" lon="2.028001">
        <ele>1575.390219</ele>
        <time>2019-08-22T17:05:09.070Z</time>
      </trkpt>
      <trkpt lat="42.497738" lon="2.028183">
        <ele>1575.176882</ele>
        <time>2019-08-22T17:05:12.473Z</time>
      </trkpt>
      <trkpt lat="42.497210" lon="2.028408">
        <ele>1574.733478</ele>
        <time>2019-08-22T17:05:20.217Z</time>
      </trkpt>
      <trkpt lat="42.497113" lon="2.028502">
        <ele>1574.709317</ele>
        <time>2019-08-22T17:05:21.785Z</time>
      </trkpt>
      <trkpt lat="42.496962" lon="2.028796">
        <ele>1575.114473</ele>
        <time>2019-08-22T17:05:25.741Z</time>
      </trkpt>
      <trkpt lat="42.496923" lon="2.028983">
        <ele>1575.334225</ele>
        <time>2019-08-22T17:05:27.639Z</time>
      </trkpt>
      <trkpt lat="42.496885" lon="2.029343">
        <ele>1575.745455</ele>
        <time>2019-08-22T17:05:32.529Z</time>
      </trkpt>
      <trkpt lat="42.496831" lon="2.030139">
        <ele>1576.649357</ele>
        <time>2019-08-22T17:05:46.399Z</time>
      </trkpt>
      <trkpt lat="42.496876" lon="2.030885">
        <ele>1577.420930</ele>
        <time>2019-08-22T17:06:00.097Z</time>
      </trkpt>
      <trkpt lat="42.496860" lon="2.030989">
        <ele>1577.420930</ele>
        <time>2019-08-22T17:06:02.490Z</time>
      </trkpt>
      <trkpt lat="42.496834" lon="2.031086">
        <ele>1577.420930</ele>
        <time>2019-08-22T17:06:04.524Z</time>
      </trkpt>
      <trkpt lat="42.496813" lon="2.031169">
        <ele>1577.420930</ele>
        <time>2019-08-22T17:06:06.544Z</time>
      </trkpt>
      <trkpt lat="42.496813" lon="2.031256">
        <ele>1577.420930</ele>
        <time>2019-08-22T17:06:08.302Z</time>
      </trkpt>
      <trkpt lat="42.496820" lon="2.031367">
        <ele>1577.420930</ele>
        <time>2019-08-22T17:06:10.252Z</time>
      </trkpt>
      <trkpt lat="42.496809" lon="2.031447">
        <ele>1577.420930</ele>
        <time>2019-08-22T17:06:12.063Z</time>
      </trkpt>
      <trkpt lat="42.496831" lon="2.031506">
        <ele>1577.420930</ele>
        <time>2019-08-22T17:06:13.348Z</time>
      </trkpt>
      <trkpt lat="42.496871" lon="2.031532">
        <ele>1577.420930</ele>
        <time>2019-08-22T17:06:14.493Z</time>
      </trkpt>
      <trkpt lat="42.496904" lon="2.031541">
        <ele>1577.420930</ele>
        <time>2019-08-22T17:06:15.512Z</time>
      </trkpt>
      <trkpt lat="42.496945" lon="2.031525">
        <ele>1577.420930</ele>
        <time>2019-08-22T17:06:16.706Z</time>
      </trkpt>
      <trkpt lat="42.496982" lon="2.031473">
        <ele>1577.420930</ele>
        <time>2019-08-22T17:06:18.060Z</time>
      </trkpt>
      <trkpt lat="42.496988" lon="2.031443">
        <ele>1577.420930</ele>
        <time>2019-08-22T17:06:18.562Z</time>
      </trkpt>
      <trkpt lat="42.497045" lon="2.031336">
        <ele>1577.420930</ele>
        <time>2019-08-22T17:06:21.093Z</time>
      </trkpt>
      <trkpt lat="42.497070" lon="2.031261">
        <ele>1577.420930</ele>
        <time>2019-08-22T17:06:22.730Z</time>
      </trkpt>
      <trkpt lat="42.497077" lon="2.031142">
        <ele>1577.420930</ele>
        <time>2019-08-22T17:06:25.107Z</time>
      </trkpt>
      <trkpt lat="42.497088" lon="2.031008">
        <ele>1577.420930</ele>
        <time>2019-08-22T17:06:27.657Z</time>
      </trkpt>
      <trkpt lat="42.49737" lon="2.02977">
        <ele>1591.9</ele>
      </trkpt>
      <trkpt lat="42.49745" lon="2.02972">
        <ele>1593.2</ele>
      </trkpt>
      <trkpt lat="42.49754" lon="2.02968">
        <ele>1594.4</ele>
      </trkpt>
      <trkpt lat="42.49761" lon="2.02965">
        <ele>1594.8</ele>
      </trkpt>
      <trkpt lat="42.49767" lon="2.02964">
        <ele>1595.4</ele>
      </trkpt>
      <trkpt lat="42.49773" lon="2.02964">
        <ele>1596</ele>
      </trkpt>
      <trkpt lat="42.49778" lon="2.02964">
        <ele>1596.6</ele>
      </trkpt>
      <trkpt lat="42.49786" lon="2.02964">
        <ele>1597.4</ele>
      </trkpt>
      <trkpt lat="42.49808" lon="2.02964">
        <ele>1599.8</ele>
      </trkpt>
      <trkpt lat="42.49824" lon="2.02963">
        <ele>1601.3</ele>
      </trkpt>
      <trkpt lat="42.49829" lon="2.02963">
        <ele>1601.9</ele>
      </trkpt>
      <trkpt lat="42.49886" lon="2.02961">
        <ele>1602.6</ele>
      </trkpt>
      <trkpt lat="42.49895" lon="2.02963">
        <ele>1603.1</ele>
      </trkpt>
      <trkpt lat="42.49898" lon="2.02965">
        <ele>1603.5</ele>
      </trkpt>
      <trkpt lat="42.49901" lon="2.02967">
        <ele>1603.9</ele>
      </trkpt>
      <trkpt lat="42.49901" lon="2.02967">
        <ele>1603.9</ele>
      </trkpt>
      <trkpt lat="42.49901" lon="2.02967">
        <ele>1603.9</ele>
      </trkpt>
      <trkpt lat="42.49903" lon="2.0297">
        <ele>1604.4</ele>
      </trkpt>
      <trkpt lat="42.49905" lon="2.02973">
        <ele>1605</ele>
      </trkpt>
      <trkpt lat="42.49906" lon="2.02976">
        <ele>1605.6</ele>
      </trkpt>
      <trkpt lat="42.49907" lon="2.02979">
        <ele>1606.1</ele>
      </trkpt>
      <trkpt lat="42.49907" lon="2.02984">
        <ele>1607</ele>
      </trkpt>
      <trkpt lat="42.49907" lon="2.02986">
        <ele>1607.4</ele>
      </trkpt>
      <trkpt lat="42.49906" lon="2.0299">
        <ele>1608.1</ele>
      </trkpt>
      <trkpt lat="42.49905" lon="2.02993">
        <ele>1608.6</ele>
      </trkpt>
      <trkpt lat="42.49904" lon="2.02995">
        <ele>1608.9</ele>
      </trkpt>
      <trkpt lat="42.49902" lon="2.02998">
        <ele>1609.5</ele>
      </trkpt>
      <trkpt lat="42.49899" lon="2.03001">
        <ele>1609.9</ele>
      </trkpt>
      <trkpt lat="42.49896" lon="2.03003">
        <ele>1610.2</ele>
      </trkpt>
      <trkpt lat="42.49893" lon="2.03004">
        <ele>1610.3</ele>
      </trkpt>
      <trkpt lat="42.49891" lon="2.03004">
        <ele>1610.3</ele>
      </trkpt>
      <trkpt lat="42.49886" lon="2.03004">
        <ele>1610.2</ele>
      </trkpt>
      <trkpt lat="42.49877" lon="2.03002">
        <ele>1609.8</ele>
      </trkpt>
      <trkpt lat="42.49869" lon="2.03">
        <ele>1609.4</ele>
      </trkpt>
      <trkpt lat="42.49865" lon="2.03">
        <ele>1609.4</ele>
      </trkpt>
      <trkpt lat="42.49862" lon="2.03">
        <ele>1609.3</ele>
      </trkpt>
      <trkpt lat="42.49857" lon="2.03">
        <ele>1609.3</ele>
      </trkpt>
      <trkpt lat="42.49852" lon="2.03002">
        <ele>1609.5</ele>
      </trkpt>
      <trkpt lat="42.49848" lon="2.03004">
        <ele>1609.6</ele>
      </trkpt>
      <trkpt lat="42.49845" lon="2.03006">
        <ele>1609.8</ele>
      </trkpt>
      <trkpt lat="42.49843" lon="2.03009">
        <ele>1610.1</ele>
      </trkpt>
      <trkpt lat="42.4984" lon="2.03014">
        <ele>1610.6</ele>
      </trkpt>
      <trkpt lat="42.49835" lon="2.03022">
        <ele>1611.4</ele>
      </trkpt>
      <trkpt lat="42.49819" lon="2.03067">
        <ele>1613.3</ele>
      </trkpt>
      <trkpt lat="42.49815" lon="2.03078">
        <ele>1613.6</ele>
      </trkpt>
      <trkpt lat="42.49814" lon="2.03087">
        <ele>1613.8</ele>
      </trkpt>
      <trkpt lat="42.49813" lon="2.03094">
        <ele>1613.6</ele>
      </trkpt>
      <trkpt lat="42.49813" lon="2.03098">
        <ele>1613.6</ele>
      </trkpt>
      <trkpt lat="42.49813" lon="2.03104">
        <ele>1613.6</ele>
      </trkpt>
      <trkpt lat="42.49814" lon="2.0311">
        <ele>1613.8</ele>
      </trkpt>
      <trkpt lat="42.49817" lon="2.03118">
        <ele>1614.5</ele>
      </trkpt>
      <trkpt lat="42.49818" lon="2.03124">
        <ele>1614.7</ele>
      </trkpt>
      <trkpt lat="42.49819" lon="2.03126">
        <ele>1614.9</ele>
      </trkpt>
      <trkpt lat="42.49825" lon="2.03136">
        <ele>1616.2</ele>
      </trkpt>
      <trkpt lat="42.49829" lon="2.03143">
        <ele>1617.1</ele>
      </trkpt>
      <trkpt lat="42.49844" lon="2.03164">
        <ele>1619.5</ele>
      </trkpt>
      <trkpt lat="42.49854" lon="2.03178">
        <ele>1620.3</ele>
      </trkpt>
      <trkpt lat="42.49864" lon="2.03192">
        <ele>1621.2</ele>
      </trkpt>
      <trkpt lat="42.49872" lon="2.03207">
        <ele>1621.8</ele>
      </trkpt>
      <trkpt lat="42.49899" lon="2.03241">
        <ele>1625.6</ele>
      </trkpt>
      <trkpt lat="42.49911" lon="2.03258">
        <ele>1627.4</ele>
      </trkpt>
      <trkpt lat="42.49932" lon="2.03292">
        <ele>1629.1</ele>
      </trkpt>
      <trkpt lat="42.49945" lon="2.0331">
        <ele>1630.3</ele>
      </trkpt>
      <trkpt lat="42.4996" lon="2.03331">
        <ele>1631.9</ele>
      </trkpt>
      <trkpt lat="42.4997" lon="2.03344">
        <ele>1632.6</ele>
      </trkpt>
      <trkpt lat="42.49977" lon="2.03354">
        <ele>1633.1</ele>
      </trkpt>
      <trkpt lat="42.49982" lon="2.0336">
        <ele>1633.6</ele>
      </trkpt>
      <trkpt lat="42.49986" lon="2.03366">
        <ele>1633.9</ele>
      </trkpt>
      <trkpt lat="42.4999" lon="2.0337">
        <ele>1634.4</ele>
      </trkpt>
      <trkpt lat="42.49994" lon="2.03373">
        <ele>1634.9</ele>
      </trkpt>
      <trkpt lat="42.49997" lon="2.03375">
        <ele>1635.4</ele>
      </trkpt>
      <trkpt lat="42.50012" lon="2.03379">
        <ele>1637.7</ele>
      </trkpt>
      <trkpt lat="42.50016" lon="2.03381">
        <ele>1638.3</ele>
      </trkpt>
      <trkpt lat="42.50028" lon="2.03385">
        <ele>1640.1</ele>
      </trkpt>
      <trkpt lat="42.50038" lon="2.03388">
        <ele>1641.6</ele>
      </trkpt>
      <trkpt lat="42.50043" lon="2.0339">
        <ele>1642.3</ele>
      </trkpt>
      <trkpt lat="42.50049" lon="2.03393">
        <ele>1643.2</ele>
      </trkpt>
      <trkpt lat="42.50054" lon="2.03398">
        <ele>1643.8</ele>
      </trkpt>
      <trkpt lat="42.50059" lon="2.03402">
        <ele>1644.4</ele>
      </trkpt>
      <trkpt lat="42.50064" lon="2.03407">
        <ele>1645</ele>
      </trkpt>
      <trkpt lat="42.50068" lon="2.03413">
        <ele>1645.4</ele>
      </trkpt>
      <trkpt lat="42.50074" lon="2.03423">
        <ele>1646</ele>
      </trkpt>
      <trkpt lat="42.50081" lon="2.03434">
        <ele>1646.7</ele>
      </trkpt>
      <trkpt lat="42.5009" lon="2.0345">
        <ele>1648</ele>
      </trkpt>
      <trkpt lat="42.50095" lon="2.03459">
        <ele>1648.8</ele>
      </trkpt>
      <trkpt lat="42.501" lon="2.03469">
        <ele>1649.6</ele>
      </trkpt>
      <trkpt lat="42.50102" lon="2.03474">
        <ele>1649.9</ele>
      </trkpt>
      <trkpt lat="42.50104" lon="2.03479">
        <ele>1650.2</ele>
      </trkpt>
      <trkpt lat="42.50106" lon="2.03485">
        <ele>1650.4</ele>
      </trkpt>
      <trkpt lat="42.50108" lon="2.03492">
        <ele>1650.6</ele>
      </trkpt>
      <trkpt lat="42.5011" lon="2.03499">
        <ele>1650.8</ele>
      </trkpt>
      <trkpt lat="42.50112" lon="2.03507">
        <ele>1651.4</ele>
      </trkpt>
      <trkpt lat="42.50113" lon="2.03514">
        <ele>1651.8</ele>
      </trkpt>
      <trkpt lat="42.50114" lon="2.03521">
        <ele>1652.2</ele>
      </trkpt>
      <trkpt lat="42.50116" lon="2.03532">
        <ele>1653</ele>
      </trkpt>
      <trkpt lat="42.50117" lon="2.03541">
        <ele>1653.5</ele>
      </trkpt>
      <trkpt lat="42.50118" lon="2.0355">
        <ele>1654</ele>
      </trkpt>
      <trkpt lat="42.50119" lon="2.03561">
        <ele>1654.6</ele>
      </trkpt>
      <trkpt lat="42.50118" lon="2.0357">
        <ele>1654.5</ele>
      </trkpt>
      <trkpt lat="42.50117" lon="2.03578">
        <ele>1654.4</ele>
      </trkpt>
      <trkpt lat="42.50114" lon="2.03602">
        <ele>1655</ele>
      </trkpt>
      <trkpt lat="42.50108" lon="2.03638">
        <ele>1655.8</ele>
      </trkpt>
      <trkpt lat="42.50099" lon="2.03704">
        <ele>1657.3</ele>
      </trkpt>
      <trkpt lat="42.50092" lon="2.03764">
        <ele>1659.3</ele>
      </trkpt>
      <trkpt lat="42.50084" lon="2.03827">
        <ele>1661.7</ele>
      </trkpt>
      <trkpt lat="42.50077" lon="2.03878">
        <ele>1663.9</ele>
      </trkpt>
      <trkpt lat="42.50074" lon="2.039">
        <ele>1664.8</ele>
      </trkpt>
      <trkpt lat="42.50071" lon="2.03932">
        <ele>1666.4</ele>
      </trkpt>
      <trkpt lat="42.50069" lon="2.03941">
        <ele>1666.7</ele>
      </trkpt>
      <trkpt lat="42.50069" lon="2.03946">
        <ele>1667</ele>
      </trkpt>
      <trkpt lat="42.50069" lon="2.03952">
        <ele>1667.3</ele>
      </trkpt>
      <trkpt lat="42.50068" lon="2.03961">
        <ele>1667.7</ele>
      </trkpt>
      <trkpt lat="42.50069" lon="2.03979">
        <ele>1668.9</ele>
      </trkpt>
      <trkpt lat="42.5007" lon="2.03987">
        <ele>1669.5</ele>
      </trkpt>
      <trkpt lat="42.5007" lon="2.03994">
        <ele>1669.9</ele>
      </trkpt>
      <trkpt lat="42.50073" lon="2.04009">
        <ele>1670.6</ele>
      </trkpt>
      <trkpt lat="42.50076" lon="2.04023">
        <ele>1671</ele>
      </trkpt>
      <trkpt lat="42.5008" lon="2.04037">
        <ele>1671.5</ele>
      </trkpt>
      <trkpt lat="42.50086" lon="2.04051">
        <ele>1672.3</ele>
      </trkpt>
      <trkpt lat="42.50092" lon="2.04064">
        <ele>1672.9</ele>
      </trkpt>
      <trkpt lat="42.50097" lon="2.04071">
        <ele>1673.5</ele>
      </trkpt>
      <trkpt lat="42.50099" lon="2.04074">
        <ele>1673.7</ele>
      </trkpt>
      <trkpt lat="42.50107" lon="2.04082">
        <ele>1674.6</ele>
      </trkpt>
      <trkpt lat="42.50117" lon="2.04094">
        <ele>1675.3</ele>
      </trkpt>
      <trkpt lat="42.5012" lon="2.04098">
        <ele>1675.5</ele>
      </trkpt>
      <trkpt lat="42.50129" lon="2.04113">
        <ele>1676.3</ele>
      </trkpt>
      <trkpt lat="42.50133" lon="2.04119">
        <ele>1676.8</ele>
      </trkpt>
      <trkpt lat="42.50136" lon="2.04128">
        <ele>1677</ele>
      </trkpt>
      <trkpt lat="42.50138" lon="2.04133">
        <ele>1677.3</ele>
      </trkpt>
      <trkpt lat="42.50141" lon="2.0414">
        <ele>1677.7</ele>
      </trkpt>
      <trkpt lat="42.50145" lon="2.04157">
        <ele>1678.2</ele>
      </trkpt>
      <trkpt lat="42.5015" lon="2.04177">
        <ele>1679.2</ele>
      </trkpt>
      <trkpt lat="42.50155" lon="2.04202">
        <ele>1680.6</ele>
      </trkpt>
      <trkpt lat="42.5016" lon="2.04228">
        <ele>1682.2</ele>
      </trkpt>
      <trkpt lat="42.50163" lon="2.04249">
        <ele>1683.2</ele>
      </trkpt>
      <trkpt lat="42.50165" lon="2.04281">
        <ele>1685.5</ele>
      </trkpt>
      <trkpt lat="42.50166" lon="2.04313">
        <ele>1687.6</ele>
      </trkpt>
      <trkpt lat="42.50168" lon="2.04339">
        <ele>1689.4</ele>
      </trkpt>
      <trkpt lat="42.50168" lon="2.04354">
        <ele>1689.6</ele>
      </trkpt>
      <trkpt lat="42.50167" lon="2.04375">
        <ele>1689.6</ele>
      </trkpt>
      <trkpt lat="42.50165" lon="2.04396">
        <ele>1689.4</ele>
      </trkpt>
      <trkpt lat="42.50163" lon="2.0442">
        <ele>1689.5</ele>
      </trkpt>
      <trkpt lat="42.50162" lon="2.04426">
        <ele>1689.8</ele>
      </trkpt>
      <trkpt lat="42.5016" lon="2.04442">
        <ele>1690.7</ele>
      </trkpt>
      <trkpt lat="42.50157" lon="2.04458">
        <ele>1691.4</ele>
      </trkpt>
      <trkpt lat="42.50154" lon="2.0447">
        <ele>1691.7</ele>
      </trkpt>
      <trkpt lat="42.50151" lon="2.04483">
        <ele>1692.2</ele>
      </trkpt>
      <trkpt lat="42.50146" lon="2.04505">
        <ele>1692.9</ele>
      </trkpt>
      <trkpt lat="42.50142" lon="2.04526">
        <ele>1693.3</ele>
      </trkpt>
      <trkpt lat="42.50139" lon="2.04552">
        <ele>1694.4</ele>
      </trkpt>
      <trkpt lat="42.50139" lon="2.04571">
        <ele>1695.6</ele>
      </trkpt>
      <trkpt lat="42.50141" lon="2.04595">
        <ele>1697.3</ele>
      </trkpt>
      <trkpt lat="42.50141" lon="2.04617">
        <ele>1698.4</ele>
      </trkpt>
      <trkpt lat="42.50141" lon="2.04637">
        <ele>1699.3</ele>
      </trkpt>
      <trkpt lat="42.5014" lon="2.04657">
        <ele>1700.1</ele>
      </trkpt>
      <trkpt lat="42.50138" lon="2.04676">
        <ele>1699.9</ele>
      </trkpt>
      <trkpt lat="42.50138" lon="2.0469">
        <ele>1699.6</ele>
      </trkpt>
      <trkpt lat="42.50139" lon="2.04704">
        <ele>1699.5</ele>
      </trkpt>
      <trkpt lat="42.5014" lon="2.04708">
        <ele>1699.5</ele>
      </trkpt>
      <trkpt lat="42.50141" lon="2.04711">
        <ele>1699.7</ele>
      </trkpt>
      <trkpt lat="42.50143" lon="2.04715">
        <ele>1699.9</ele>
      </trkpt>
      <trkpt lat="42.50145" lon="2.04717">
        <ele>1700.2</ele>
      </trkpt>
      <trkpt lat="42.50149" lon="2.0472">
        <ele>1700.9</ele>
      </trkpt>
      <trkpt lat="42.50153" lon="2.04721">
        <ele>1701.6</ele>
      </trkpt>
      <trkpt lat="42.50156" lon="2.04721">
        <ele>1702.1</ele>
      </trkpt>
      <trkpt lat="42.5016" lon="2.04721">
        <ele>1702.8</ele>
      </trkpt>
      <trkpt lat="42.50164" lon="2.04719">
        <ele>1703.6</ele>
      </trkpt>
      <trkpt lat="42.50167" lon="2.04717">
        <ele>1704.3</ele>
      </trkpt>
      <trkpt lat="42.50169" lon="2.04714">
        <ele>1704.9</ele>
      </trkpt>
      <trkpt lat="42.50172" lon="2.04689">
        <ele>1706.6</ele>
      </trkpt>
      <trkpt lat="42.50174" lon="2.04655">
        <ele>1707.4</ele>
      </trkpt>
      <trkpt lat="42.50177" lon="2.0461">
        <ele>1706</ele>
      </trkpt>
      <trkpt lat="42.50178" lon="2.04603">
        <ele>1705.9</ele>
      </trkpt>
      <trkpt lat="42.50179" lon="2.04595">
        <ele>1705.7</ele>
      </trkpt>
      <trkpt lat="42.5018" lon="2.04589">
        <ele>1705.7</ele>
      </trkpt>
      <trkpt lat="42.50183" lon="2.04582">
        <ele>1706</ele>
      </trkpt>
      <trkpt lat="42.50185" lon="2.04577">
        <ele>1706.2</ele>
      </trkpt>
      <trkpt lat="42.50188" lon="2.04572">
        <ele>1706.7</ele>
      </trkpt>
      <trkpt lat="42.50191" lon="2.04568">
        <ele>1707.2</ele>
      </trkpt>
      <trkpt lat="42.50199" lon="2.04559">
        <ele>1708.6</ele>
      </trkpt>
      <trkpt lat="42.50208" lon="2.04549">
        <ele>1710.2</ele>
      </trkpt>
      <trkpt lat="42.50214" lon="2.04541">
        <ele>1711.1</ele>
      </trkpt>
      <trkpt lat="42.50235" lon="2.045">
        <ele>1713.4</ele>
      </trkpt>
      <trkpt lat="42.50239" lon="2.04482">
        <ele>1713.2</ele>
      </trkpt>
      <trkpt lat="42.5024" lon="2.04472">
        <ele>1712.8</ele>
      </trkpt>
      <trkpt lat="42.50243" lon="2.04462">
        <ele>1713</ele>
      </trkpt>
      <trkpt lat="42.50245" lon="2.04455">
        <ele>1713</ele>
      </trkpt>
      <trkpt lat="42.50248" lon="2.04449">
        <ele>1713.4</ele>
      </trkpt>
      <trkpt lat="42.50253" lon="2.04443">
        <ele>1714.2</ele>
      </trkpt>
      <trkpt lat="42.50258" lon="2.04435">
        <ele>1714.8</ele>
      </trkpt>
      <trkpt lat="42.50272" lon="2.04423">
        <ele>1716.9</ele>
      </trkpt>
      <trkpt lat="42.50286" lon="2.04409">
        <ele>1719.1</ele>
      </trkpt>
      <trkpt lat="42.503" lon="2.04392">
        <ele>1721.4</ele>
      </trkpt>
      <trkpt lat="42.50309" lon="2.04371">
        <ele>1722.6</ele>
      </trkpt>
      <trkpt lat="42.50314" lon="2.04356">
        <ele>1723</ele>
      </trkpt>
      <trkpt lat="42.50317" lon="2.04347">
        <ele>1723.3</ele>
      </trkpt>
      <trkpt lat="42.50317" lon="2.0434">
        <ele>1723.1</ele>
      </trkpt>
      <trkpt lat="42.50318" lon="2.04332">
        <ele>1723</ele>
      </trkpt>
      <trkpt lat="42.50318" lon="2.04324">
        <ele>1723</ele>
      </trkpt>
      <trkpt lat="42.50316" lon="2.04308">
        <ele>1722.5</ele>
      </trkpt>
      <trkpt lat="42.50314" lon="2.04289">
        <ele>1721.9</ele>
      </trkpt>
      <trkpt lat="42.50313" lon="2.0428">
        <ele>1721.6</ele>
      </trkpt>
      <trkpt lat="42.50313" lon="2.04269">
        <ele>1721.5</ele>
      </trkpt>
      <trkpt lat="42.50315" lon="2.04259">
        <ele>1721.9</ele>
      </trkpt>
      <trkpt lat="42.50318" lon="2.04252">
        <ele>1722.5</ele>
      </trkpt>
      <trkpt lat="42.50321" lon="2.04245">
        <ele>1723</ele>
      </trkpt>
      <trkpt lat="42.50327" lon="2.04228">
        <ele>1723.9</ele>
      </trkpt>
      <trkpt lat="42.50333" lon="2.04222">
        <ele>1725.2</ele>
      </trkpt>
      <trkpt lat="42.50336" lon="2.04219">
        <ele>1725.7</ele>
      </trkpt>
      <trkpt lat="42.50339" lon="2.04216">
        <ele>1726.1</ele>
      </trkpt>
      <trkpt lat="42.50344" lon="2.04211">
        <ele>1726.8</ele>
      </trkpt>
      <trkpt lat="42.50348" lon="2.04209">
        <ele>1727.5</ele>
      </trkpt>
      <trkpt lat="42.50352" lon="2.04208">
        <ele>1728.1</ele>
      </trkpt>
      <trkpt lat="42.50357" lon="2.04206">
        <ele>1729</ele>
      </trkpt>
      <trkpt lat="42.50378" lon="2.04198">
        <ele>1732.5</ele>
      </trkpt>
      <trkpt lat="42.5038" lon="2.04195">
        <ele>1732.9</ele>
      </trkpt>
      <trkpt lat="42.50381" lon="2.0419">
        <ele>1733.1</ele>
      </trkpt>
      <trkpt lat="42.50383" lon="2.04187">
        <ele>1733.4</ele>
      </trkpt>
      <trkpt lat="42.50383" lon="2.04184">
        <ele>1733.5</ele>
      </trkpt>
      <trkpt lat="42.50384" lon="2.04178">
        <ele>1733.7</ele>
      </trkpt>
      <trkpt lat="42.50384" lon="2.0417">
        <ele>1733.7</ele>
      </trkpt>
      <trkpt lat="42.50384" lon="2.04161">
        <ele>1733.7</ele>
      </trkpt>
      <trkpt lat="42.50384" lon="2.04147">
        <ele>1733.5</ele>
      </trkpt>
      <trkpt lat="42.50384" lon="2.04131">
        <ele>1733.2</ele>
      </trkpt>
      <trkpt lat="42.50385" lon="2.04119">
        <ele>1733.3</ele>
      </trkpt>
      <trkpt lat="42.50386" lon="2.04106">
        <ele>1733.3</ele>
      </trkpt>
      <trkpt lat="42.50389" lon="2.04095">
        <ele>1733.8</ele>
      </trkpt>
      <trkpt lat="42.50391" lon="2.04085">
        <ele>1734.2</ele>
      </trkpt>
      <trkpt lat="42.50394" lon="2.04072">
        <ele>1735.3</ele>
      </trkpt>
      <trkpt lat="42.50397" lon="2.04059">
        <ele>1736.5</ele>
      </trkpt>
      <trkpt lat="42.50399" lon="2.04052">
        <ele>1737.3</ele>
      </trkpt>
      <trkpt lat="42.50401" lon="2.04047">
        <ele>1737.9</ele>
      </trkpt>
      <trkpt lat="42.50404" lon="2.04041">
        <ele>1738.8</ele>
      </trkpt>
      <trkpt lat="42.50407" lon="2.04036">
        <ele>1739.6</ele>
      </trkpt>
      <trkpt lat="42.5041" lon="2.04031">
        <ele>1740.5</ele>
      </trkpt>
      <trkpt lat="42.50415" lon="2.04022">
        <ele>1741.9</ele>
      </trkpt>
      <trkpt lat="42.504159" lon="2.040207">
        <ele>1742.1</ele>
      </trkpt>
      <trkpt lat="42.5042" lon="2.04015">
        <ele>1743.1</ele>
      </trkpt>
      <trkpt lat="42.50423" lon="2.04008">
        <ele>1744</ele>
      </trkpt>
      <trkpt lat="42.50425" lon="2.04001">
        <ele>1744.7</ele>
      </trkpt>
      <trkpt lat="42.50425" lon="2.03995">
        <ele>1745.2</ele>
      </trkpt>
      <trkpt lat="42.50426" lon="2.0399">
        <ele>1745.9</ele>
      </trkpt>
      <trkpt lat="42.50426" lon="2.03986">
        <ele>1746.3</ele>
      </trkpt>
      <trkpt lat="42.50425" lon="2.03981">
        <ele>1746.6</ele>
      </trkpt>
      <trkpt lat="42.50424" lon="2.03976">
        <ele>1746.9</ele>
      </trkpt>
      <trkpt lat="42.50423" lon="2.03973">
        <ele>1747</ele>
      </trkpt>
      <trkpt lat="42.50422" lon="2.03971">
        <ele>1747</ele>
      </trkpt>
      <trkpt lat="42.5042" lon="2.03966">
        <ele>1747</ele>
      </trkpt>
      <trkpt lat="42.50418" lon="2.03964">
        <ele>1746.8</ele>
      </trkpt>
      <trkpt lat="42.50417" lon="2.03962">
        <ele>1746.7</ele>
      </trkpt>
      <trkpt lat="42.50415" lon="2.0396">
        <ele>1746.5</ele>
      </trkpt>
      <trkpt lat="42.50412" lon="2.03959">
        <ele>1746.1</ele>
      </trkpt>
      <trkpt lat="42.50404" lon="2.03954">
        <ele>1745.2</ele>
      </trkpt>
      <trkpt lat="42.50391" lon="2.03945">
        <ele>1743.9</ele>
      </trkpt>
      <trkpt lat="42.50381" lon="2.03939">
        <ele>1742.8</ele>
      </trkpt>
      <trkpt lat="42.50376" lon="2.03934">
        <ele>1742.6</ele>
      </trkpt>
      <trkpt lat="42.503734" lon="2.039314">
        <ele>1742.5</ele>
      </trkpt>
      <trkpt lat="42.50373" lon="2.03931">
        <ele>1742.5</ele>
      </trkpt>
      <trkpt lat="42.50371" lon="2.03928">
        <ele>1742.5</ele>
      </trkpt>
      <trkpt lat="42.5037" lon="2.03926">
        <ele>1742.6</ele>
      </trkpt>
      <trkpt lat="42.50369" lon="2.03924">
        <ele>1742.7</ele>
      </trkpt>
      <trkpt lat="42.50368" lon="2.0392">
        <ele>1743</ele>
      </trkpt>
      <trkpt lat="42.50368" lon="2.03918">
        <ele>1743.2</ele>
      </trkpt>
      <trkpt lat="42.50368" lon="2.03915">
        <ele>1743.4</ele>
      </trkpt>
      <trkpt lat="42.50368" lon="2.03913">
        <ele>1743.4</ele>
      </trkpt>
      <trkpt lat="42.50369" lon="2.0391">
        <ele>1743.6</ele>
      </trkpt>
      <trkpt lat="42.50371" lon="2.03904">
        <ele>1743.9</ele>
      </trkpt>
      <trkpt lat="42.50371" lon="2.03903">
        <ele>1743.9</ele>
      </trkpt>
      <trkpt lat="42.50373" lon="2.039">
        <ele>1744.2</ele>
      </trkpt>
      <trkpt lat="42.50374" lon="2.03899">
        <ele>1744.3</ele>
      </trkpt>
      <trkpt lat="42.50377" lon="2.03896">
        <ele>1744.8</ele>
      </trkpt>
      <trkpt lat="42.50383" lon="2.03896">
        <ele>1745.8</ele>
      </trkpt>
      <trkpt lat="42.50392" lon="2.03902">
        <ele>1747.2</ele>
      </trkpt>
      <trkpt lat="42.503919" lon="2.039019">
        <ele>1747.2</ele>
      </trkpt>
      <trkpt lat="42.50395" lon="2.03904">
        <ele>1747.7</ele>
      </trkpt>
      <trkpt lat="42.50403" lon="2.03909">
        <ele>1748.9</ele>
      </trkpt>
      <trkpt lat="42.50412" lon="2.03914">
        <ele>1750.3</ele>
      </trkpt>
      <trkpt lat="42.50421" lon="2.03919">
        <ele>1751.9</ele>
      </trkpt>
      <trkpt lat="42.50435" lon="2.03935">
        <ele>1753.7</ele>
      </trkpt>
      <trkpt lat="42.50443" lon="2.03948">
        <ele>1754.2</ele>
      </trkpt>
      <trkpt lat="42.50453" lon="2.03966">
        <ele>1754.4</ele>
      </trkpt>
      <trkpt lat="42.50462" lon="2.03982">
        <ele>1754.4</ele>
      </trkpt>
      <trkpt lat="42.50478" lon="2.0401">
        <ele>1755.2</ele>
      </trkpt>
      <trkpt lat="42.50483" lon="2.04022">
        <ele>1756</ele>
      </trkpt>
      <trkpt lat="42.50496" lon="2.04047">
        <ele>1758</ele>
      </trkpt>
      <trkpt lat="42.505" lon="2.04057">
        <ele>1758.6</ele>
      </trkpt>
      <trkpt lat="42.50502" lon="2.04064">
        <ele>1758.9</ele>
      </trkpt>
      <trkpt lat="42.50503" lon="2.04072">
        <ele>1758.9</ele>
      </trkpt>
      <trkpt lat="42.50505" lon="2.04091">
        <ele>1758.8</ele>
      </trkpt>
      <trkpt lat="42.50507" lon="2.04126">
        <ele>1758.5</ele>
      </trkpt>
      <trkpt lat="42.5051" lon="2.04153">
        <ele>1758.6</ele>
      </trkpt>
      <trkpt lat="42.50512" lon="2.04182">
        <ele>1758.8</ele>
      </trkpt>
      <trkpt lat="42.50525" lon="2.04311">
        <ele>1763</ele>
      </trkpt>
      <trkpt lat="42.50527" lon="2.04326">
        <ele>1763.7</ele>
      </trkpt>
      <trkpt lat="42.50527" lon="2.04347">
        <ele>1764.5</ele>
      </trkpt>
      <trkpt lat="42.50527" lon="2.04365">
        <ele>1765.5</ele>
      </trkpt>
      <trkpt lat="42.50527" lon="2.04372">
        <ele>1765.8</ele>
      </trkpt>
      <trkpt lat="42.50527" lon="2.0438">
        <ele>1766.2</ele>
      </trkpt>
      <trkpt lat="42.50526" lon="2.04388">
        <ele>1766.4</ele>
      </trkpt>
      <trkpt lat="42.50525" lon="2.04396">
        <ele>1766.6</ele>
      </trkpt>
      <trkpt lat="42.50524" lon="2.044">
        <ele>1766.6</ele>
      </trkpt>
      <trkpt lat="42.50524" lon="2.04404">
        <ele>1766.8</ele>
      </trkpt>
      <trkpt lat="42.50522" lon="2.04411">
        <ele>1766.7</ele>
      </trkpt>
      <trkpt lat="42.50517" lon="2.04423">
        <ele>1766.3</ele>
      </trkpt>
      <trkpt lat="42.50515" lon="2.04431">
        <ele>1766.4</ele>
      </trkpt>
      <trkpt lat="42.50513" lon="2.04439">
        <ele>1766.5</ele>
      </trkpt>
      <trkpt lat="42.50511" lon="2.04445">
        <ele>1766.6</ele>
      </trkpt>
      <trkpt lat="42.5051" lon="2.04451">
        <ele>1766.8</ele>
      </trkpt>
      <trkpt lat="42.50509" lon="2.04454">
        <ele>1766.9</ele>
      </trkpt>
      <trkpt lat="42.50509" lon="2.04457">
        <ele>1767.1</ele>
      </trkpt>
      <trkpt lat="42.50509" lon="2.04459">
        <ele>1767.2</ele>
      </trkpt>
      <trkpt lat="42.5051" lon="2.04463">
        <ele>1767.7</ele>
      </trkpt>
      <trkpt lat="42.50512" lon="2.04469">
        <ele>1768.5</ele>
      </trkpt>
      <trkpt lat="42.50513" lon="2.04472">
        <ele>1768.9</ele>
      </trkpt>
      <trkpt lat="42.50514" lon="2.04474">
        <ele>1769.2</ele>
      </trkpt>
      <trkpt lat="42.50517" lon="2.04479">
        <ele>1770</ele>
      </trkpt>
      <trkpt lat="42.50523" lon="2.04487">
        <ele>1771.5</ele>
      </trkpt>
      <trkpt lat="42.50542" lon="2.04503">
        <ele>1775</ele>
      </trkpt>
      <trkpt lat="42.50552" lon="2.0451">
        <ele>1776.3</ele>
      </trkpt>
      <trkpt lat="42.50561" lon="2.04516">
        <ele>1777.4</ele>
      </trkpt>
      <trkpt lat="42.5057" lon="2.04523">
        <ele>1778.4</ele>
      </trkpt>
      <trkpt lat="42.50592" lon="2.04539">
        <ele>1780.9</ele>
      </trkpt>
      <trkpt lat="42.50596" lon="2.04542">
        <ele>1781.4</ele>
      </trkpt>
      <trkpt lat="42.50643" lon="2.04579">
        <ele>1786.8</ele>
      </trkpt>
      <trkpt lat="42.50649" lon="2.04584">
        <ele>1787.4</ele>
      </trkpt>
      <trkpt lat="42.50659" lon="2.04592">
        <ele>1787.5</ele>
      </trkpt>
      <trkpt lat="42.50667" lon="2.04599">
        <ele>1787.4</ele>
      </trkpt>
      <trkpt lat="42.50672" lon="2.04602">
        <ele>1787</ele>
      </trkpt>
      <trkpt lat="42.50677" lon="2.04605">
        <ele>1786.7</ele>
      </trkpt>
      <trkpt lat="42.50682" lon="2.04608">
        <ele>1786.4</ele>
      </trkpt>
      <trkpt lat="42.50688" lon="2.04611">
        <ele>1786</ele>
      </trkpt>
      <trkpt lat="42.50693" lon="2.04613">
        <ele>1785.9</ele>
      </trkpt>
      <trkpt lat="42.50698" lon="2.04615">
        <ele>1785.7</ele>
      </trkpt>
      <trkpt lat="42.50704" lon="2.04616">
        <ele>1785.7</ele>
      </trkpt>
      <trkpt lat="42.5071" lon="2.04617">
        <ele>1785.7</ele>
      </trkpt>
      <trkpt lat="42.50717" lon="2.04618">
        <ele>1785.7</ele>
      </trkpt>
      <trkpt lat="42.50724" lon="2.04617">
        <ele>1786.1</ele>
      </trkpt>
      <trkpt lat="42.50734" lon="2.04615">
        <ele>1786.8</ele>
      </trkpt>
      <trkpt lat="42.50742" lon="2.04612">
        <ele>1787.6</ele>
      </trkpt>
      <trkpt lat="42.50748" lon="2.04608">
        <ele>1788.5</ele>
      </trkpt>
      <trkpt lat="42.50754" lon="2.04605">
        <ele>1789.3</ele>
      </trkpt>
      <trkpt lat="42.50763" lon="2.046">
        <ele>1790.6</ele>
      </trkpt>
      <trkpt lat="42.50775" lon="2.04589">
        <ele>1793</ele>
      </trkpt>
      <trkpt lat="42.50783" lon="2.04584">
        <ele>1794.1</ele>
      </trkpt>
      <trkpt lat="42.50789" lon="2.04581">
        <ele>1794.7</ele>
      </trkpt>
      <trkpt lat="42.50797" lon="2.04578">
        <ele>1795.5</ele>
      </trkpt>
      <trkpt lat="42.50801" lon="2.04578">
        <ele>1795.6</ele>
      </trkpt>
      <trkpt lat="42.50804" lon="2.04577">
        <ele>1795.9</ele>
      </trkpt>
      <trkpt lat="42.50808" lon="2.04576">
        <ele>1796.2</ele>
      </trkpt>
      <trkpt lat="42.50812" lon="2.04575">
        <ele>1796.5</ele>
      </trkpt>
      <trkpt lat="42.50815" lon="2.04575">
        <ele>1796.6</ele>
      </trkpt>
      <trkpt lat="42.50819" lon="2.04575">
        <ele>1796.7</ele>
      </trkpt>
      <trkpt lat="42.50827" lon="2.04575">
        <ele>1797.1</ele>
      </trkpt>
      <trkpt lat="42.50834" lon="2.04575">
        <ele>1797.4</ele>
      </trkpt>
      <trkpt lat="42.50842" lon="2.04576">
        <ele>1798.9</ele>
      </trkpt>
      <trkpt lat="42.5085" lon="2.0458">
        <ele>1800.1</ele>
      </trkpt>
      <trkpt lat="42.50856" lon="2.04583">
        <ele>1800.9</ele>
      </trkpt>
      <trkpt lat="42.50863" lon="2.04586">
        <ele>1802</ele>
      </trkpt>
      <trkpt lat="42.50869" lon="2.04591">
        <ele>1802.5</ele>
      </trkpt>
      <trkpt lat="42.50878" lon="2.04599">
        <ele>1803.2</ele>
      </trkpt>
      <trkpt lat="42.50888" lon="2.0461">
        <ele>1803.4</ele>
      </trkpt>
      <trkpt lat="42.50892" lon="2.04615">
        <ele>1803.4</ele>
      </trkpt>
      <trkpt lat="42.50896" lon="2.0462">
        <ele>1803.4</ele>
      </trkpt>
      <trkpt lat="42.50901" lon="2.04627">
        <ele>1803.2</ele>
      </trkpt>
      <trkpt lat="42.50906" lon="2.04634">
        <ele>1802.9</ele>
      </trkpt>
      <trkpt lat="42.5091" lon="2.04639">
        <ele>1802.8</ele>
      </trkpt>
      <trkpt lat="42.50914" lon="2.04645">
        <ele>1802.4</ele>
      </trkpt>
      <trkpt lat="42.50917" lon="2.04649">
        <ele>1802.2</ele>
      </trkpt>
      <trkpt lat="42.50922" lon="2.04654">
        <ele>1802.3</ele>
      </trkpt>
      <trkpt lat="42.50927" lon="2.04659">
        <ele>1802.5</ele>
      </trkpt>
      <trkpt lat="42.50933" lon="2.04663">
        <ele>1803</ele>
      </trkpt>
      <trkpt lat="42.50937" lon="2.04665">
        <ele>1803.4</ele>
      </trkpt>
      <trkpt lat="42.50941" lon="2.04667">
        <ele>1803.9</ele>
      </trkpt>
      <trkpt lat="42.50947" lon="2.04668">
        <ele>1804.9</ele>
      </trkpt>
      <trkpt lat="42.50952" lon="2.0467">
        <ele>1805.6</ele>
      </trkpt>
      <trkpt lat="42.50958" lon="2.04671">
        <ele>1806.6</ele>
      </trkpt>
      <trkpt lat="42.50963" lon="2.04672">
        <ele>1807.4</ele>
      </trkpt>
      <trkpt lat="42.50967" lon="2.04674">
        <ele>1807.8</ele>
      </trkpt>
      <trkpt lat="42.50974" lon="2.04676">
        <ele>1808.8</ele>
      </trkpt>
      <trkpt lat="42.50979" lon="2.04678">
        <ele>1809.3</ele>
      </trkpt>
      <trkpt lat="42.50984" lon="2.04681">
        <ele>1809.7</ele>
      </trkpt>
      <trkpt lat="42.50991" lon="2.04685">
        <ele>1810.1</ele>
      </trkpt>
      <trkpt lat="42.50997" lon="2.04689">
        <ele>1810.4</ele>
      </trkpt>
      <trkpt lat="42.51003" lon="2.04692">
        <ele>1810.4</ele>
      </trkpt>
      <trkpt lat="42.51006" lon="2.04693">
        <ele>1810.4</ele>
      </trkpt>
      <trkpt lat="42.5101" lon="2.04694">
        <ele>1810.5</ele>
      </trkpt>
      <trkpt lat="42.51016" lon="2.04695">
        <ele>1810.7</ele>
      </trkpt>
      <trkpt lat="42.51019" lon="2.04695">
        <ele>1810.9</ele>
      </trkpt>
      <trkpt lat="42.51023" lon="2.04694">
        <ele>1811.4</ele>
      </trkpt>
      <trkpt lat="42.51027" lon="2.04693">
        <ele>1811.9</ele>
      </trkpt>
      <trkpt lat="42.51031" lon="2.04692">
        <ele>1812.3</ele>
      </trkpt>
      <trkpt lat="42.51035" lon="2.0469">
        <ele>1812.9</ele>
      </trkpt>
      <trkpt lat="42.51038" lon="2.04688">
        <ele>1813.4</ele>
      </trkpt>
      <trkpt lat="42.51044" lon="2.04683">
        <ele>1814.6</ele>
      </trkpt>
      <trkpt lat="42.51048" lon="2.04679">
        <ele>1815.4</ele>
      </trkpt>
      <trkpt lat="42.51054" lon="2.0467">
        <ele>1816.8</ele>
      </trkpt>
      <trkpt lat="42.51059" lon="2.04663">
        <ele>1818</ele>
      </trkpt>
      <trkpt lat="42.51066" lon="2.04654">
        <ele>1819.8</ele>
      </trkpt>
      <trkpt lat="42.5107" lon="2.04649">
        <ele>1820.8</ele>
      </trkpt>
      <trkpt lat="42.51073" lon="2.04645">
        <ele>1821.6</ele>
      </trkpt>
      <trkpt lat="42.51077" lon="2.0464">
        <ele>1822.6</ele>
      </trkpt>
      <trkpt lat="42.51082" lon="2.04636">
        <ele>1823.5</ele>
      </trkpt>
      <trkpt lat="42.51091" lon="2.04631">
        <ele>1824.4</ele>
      </trkpt>
      <trkpt lat="42.51102" lon="2.04627">
        <ele>1825</ele>
      </trkpt>
      <trkpt lat="42.51117" lon="2.04623">
        <ele>1825.6</ele>
      </trkpt>
      <trkpt lat="42.51127" lon="2.0462">
        <ele>1826</ele>
      </trkpt>
      <trkpt lat="42.51136" lon="2.0462">
        <ele>1826</ele>
      </trkpt>
      <trkpt lat="42.51155" lon="2.04614">
        <ele>1826.7</ele>
      </trkpt>
      <trkpt lat="42.51161" lon="2.04613">
        <ele>1826.8</ele>
      </trkpt>
      <trkpt lat="42.51164" lon="2.04612">
        <ele>1826.9</ele>
      </trkpt>
      <trkpt lat="42.51168" lon="2.04612">
        <ele>1826.9</ele>
      </trkpt>
      <trkpt lat="42.51172" lon="2.04611">
        <ele>1827.3</ele>
      </trkpt>
      <trkpt lat="42.51176" lon="2.04611">
        <ele>1827.5</ele>
      </trkpt>
      <trkpt lat="42.51184" lon="2.04611">
        <ele>1827.9</ele>
      </trkpt>
      <trkpt lat="42.51192" lon="2.04616">
        <ele>1827.8</ele>
      </trkpt>
      <trkpt lat="42.51199" lon="2.04622">
        <ele>1827.8</ele>
      </trkpt>
      <trkpt lat="42.51205" lon="2.0463">
        <ele>1827.6</ele>
      </trkpt>
      <trkpt lat="42.51207" lon="2.04634">
        <ele>1827.5</ele>
      </trkpt>
      <trkpt lat="42.51209" lon="2.04638">
        <ele>1827.5</ele>
      </trkpt>
      <trkpt lat="42.51213" lon="2.04648">
        <ele>1827.3</ele>
      </trkpt>
      <trkpt lat="42.51214" lon="2.04658">
        <ele>1826.9</ele>
      </trkpt>
      <trkpt lat="42.51214" lon="2.04665">
        <ele>1826.5</ele>
      </trkpt>
      <trkpt lat="42.51214" lon="2.04669">
        <ele>1826.6</ele>
      </trkpt>
      <trkpt lat="42.51214" lon="2.04673">
        <ele>1827</ele>
      </trkpt>
      <trkpt lat="42.51214" lon="2.04679">
        <ele>1827.6</ele>
      </trkpt>
      <trkpt lat="42.51213" lon="2.04683">
        <ele>1827.8</ele>
      </trkpt>
      <trkpt lat="42.51211" lon="2.04692">
        <ele>1828.4</ele>
      </trkpt>
      <trkpt lat="42.51209" lon="2.04704">
        <ele>1829.2</ele>
      </trkpt>
      <trkpt lat="42.5118" lon="2.04799">
        <ele>1832.8</ele>
      </trkpt>
      <trkpt lat="42.51168" lon="2.0484">
        <ele>1833.8</ele>
      </trkpt>
      <trkpt lat="42.51159" lon="2.04869">
        <ele>1835.1</ele>
      </trkpt>
      <trkpt lat="42.51155" lon="2.04883">
        <ele>1836</ele>
      </trkpt>
      <trkpt lat="42.51152" lon="2.04894">
        <ele>1836.8</ele>
      </trkpt>
      <trkpt lat="42.5115" lon="2.04908">
        <ele>1838.1</ele>
      </trkpt>
      <trkpt lat="42.51149" lon="2.04922">
        <ele>1839.1</ele>
      </trkpt>
      <trkpt lat="42.51149" lon="2.04937">
        <ele>1839.7</ele>
      </trkpt>
      <trkpt lat="42.5115" lon="2.04951">
        <ele>1840.2</ele>
      </trkpt>
      <trkpt lat="42.51152" lon="2.04966">
        <ele>1840.6</ele>
      </trkpt>
      <trkpt lat="42.51155" lon="2.04987">
        <ele>1841.2</ele>
      </trkpt>
      <trkpt lat="42.51157" lon="2.05002">
        <ele>1841.3</ele>
      </trkpt>
      <trkpt lat="42.5116" lon="2.05015">
        <ele>1840.2</ele>
      </trkpt>
      <trkpt lat="42.51163" lon="2.05022">
        <ele>1839.6</ele>
      </trkpt>
      <trkpt lat="42.51166" lon="2.05029">
        <ele>1838.9</ele>
      </trkpt>
      <trkpt lat="42.51171" lon="2.0504">
        <ele>1838.3</ele>
      </trkpt>
      <trkpt lat="42.51175" lon="2.05046">
        <ele>1838</ele>
      </trkpt>
      <trkpt lat="42.51178" lon="2.0505">
        <ele>1837.8</ele>
      </trkpt>
      <trkpt lat="42.51183" lon="2.05059">
        <ele>1837.2</ele>
      </trkpt>
      <trkpt lat="42.51183" lon="2.0506">
        <ele>1837.1</ele>
      </trkpt>
      <trkpt lat="42.51183" lon="2.05061">
        <ele>1837</ele>
      </trkpt>
      <trkpt lat="42.51183" lon="2.05062">
        <ele>1836.9</ele>
      </trkpt>
      <trkpt lat="42.51183" lon="2.05063">
        <ele>1836.8</ele>
      </trkpt>
      <trkpt lat="42.51184" lon="2.05064">
        <ele>1836.7</ele>
      </trkpt>
      <trkpt lat="42.51184" lon="2.05065">
        <ele>1836.6</ele>
      </trkpt>
      <trkpt lat="42.51184" lon="2.05066">
        <ele>1836.6</ele>
      </trkpt>
      <trkpt lat="42.51185" lon="2.05067">
        <ele>1836.5</ele>
      </trkpt>
      <trkpt lat="42.51185" lon="2.05068">
        <ele>1836.4</ele>
      </trkpt>
      <trkpt lat="42.51185" lon="2.05069">
        <ele>1836.3</ele>
      </trkpt>
      <trkpt lat="42.51186" lon="2.05069">
        <ele>1836.3</ele>
      </trkpt>
      <trkpt lat="42.51186" lon="2.0507">
        <ele>1836.2</ele>
      </trkpt>
      <trkpt lat="42.51187" lon="2.05071">
        <ele>1836.1</ele>
      </trkpt>
      <trkpt lat="42.51188" lon="2.05071">
        <ele>1836.2</ele>
      </trkpt>
      <trkpt lat="42.51188" lon="2.05072">
        <ele>1836.1</ele>
      </trkpt>
      <trkpt lat="42.51189" lon="2.05072">
        <ele>1836.1</ele>
      </trkpt>
      <trkpt lat="42.51189" lon="2.05073">
        <ele>1836</ele>
      </trkpt>
      <trkpt lat="42.5119" lon="2.05073">
        <ele>1836</ele>
      </trkpt>
      <trkpt lat="42.51191" lon="2.05073">
        <ele>1836</ele>
      </trkpt>
      <trkpt lat="42.51191" lon="2.05074">
        <ele>1835.9</ele>
      </trkpt>
      <trkpt lat="42.51192" lon="2.05074">
        <ele>1835.9</ele>
      </trkpt>
      <trkpt lat="42.51193" lon="2.05074">
        <ele>1835.9</ele>
      </trkpt>
      <trkpt lat="42.51194" lon="2.05074">
        <ele>1835.9</ele>
      </trkpt>
      <trkpt lat="42.51195" lon="2.05074">
        <ele>1835.9</ele>
      </trkpt>
      <trkpt lat="42.51196" lon="2.05074">
        <ele>1835.9</ele>
      </trkpt>
      <trkpt lat="42.51196" lon="2.05073">
        <ele>1836</ele>
      </trkpt>
      <trkpt lat="42.51197" lon="2.05073">
        <ele>1836.1</ele>
      </trkpt>
      <trkpt lat="42.51208" lon="2.05077">
        <ele>1835.7</ele>
      </trkpt>
      <trkpt lat="42.51214" lon="2.05079">
        <ele>1835.5</ele>
      </trkpt>
      <trkpt lat="42.5122" lon="2.05081">
        <ele>1835.3</ele>
      </trkpt>
      <trkpt lat="42.51231" lon="2.05084">
        <ele>1834.9</ele>
      </trkpt>
      <trkpt lat="42.51234" lon="2.05084">
        <ele>1834.9</ele>
      </trkpt>
      <trkpt lat="42.51239" lon="2.05085">
        <ele>1834.8</ele>
      </trkpt>
      <trkpt lat="42.51244" lon="2.05085">
        <ele>1834.8</ele>
      </trkpt>
      <trkpt lat="42.5125" lon="2.05084">
        <ele>1834.9</ele>
      </trkpt>
      <trkpt lat="42.51259" lon="2.0508">
        <ele>1834.6</ele>
      </trkpt>
      <trkpt lat="42.51273" lon="2.05074">
        <ele>1834.1</ele>
      </trkpt>
      <trkpt lat="42.51289" lon="2.05065">
        <ele>1834</ele>
      </trkpt>
      <trkpt lat="42.51309" lon="2.05052">
        <ele>1834.3</ele>
      </trkpt>
      <trkpt lat="42.51323" lon="2.05043">
        <ele>1834.7</ele>
      </trkpt>
      <trkpt lat="42.51336" lon="2.05036">
        <ele>1834.9</ele>
      </trkpt>
      <trkpt lat="42.51344" lon="2.05031">
        <ele>1835.3</ele>
      </trkpt>
      <trkpt lat="42.51352" lon="2.05028">
        <ele>1835.4</ele>
      </trkpt>
      <trkpt lat="42.51358" lon="2.05025">
        <ele>1835.5</ele>
      </trkpt>
      <trkpt lat="42.51363" lon="2.05024">
        <ele>1835.4</ele>
      </trkpt>
      <trkpt lat="42.51369" lon="2.05023">
        <ele>1835.1</ele>
      </trkpt>
      <trkpt lat="42.51375" lon="2.05022">
        <ele>1834.9</ele>
      </trkpt>
      <trkpt lat="42.51381" lon="2.05022">
        <ele>1834.5</ele>
      </trkpt>
      <trkpt lat="42.51387" lon="2.05021">
        <ele>1834.3</ele>
      </trkpt>
      <trkpt lat="42.51398" lon="2.05023">
        <ele>1833.1</ele>
      </trkpt>
      <trkpt lat="42.51417" lon="2.05028">
        <ele>1831</ele>
      </trkpt>
      <trkpt lat="42.51433" lon="2.05035">
        <ele>1829.9</ele>
      </trkpt>
      <trkpt lat="42.51448" lon="2.05041">
        <ele>1829.2</ele>
      </trkpt>
      <trkpt lat="42.5146" lon="2.05045">
        <ele>1828.7</ele>
      </trkpt>
      <trkpt lat="42.51474" lon="2.05051">
        <ele>1828.1</ele>
      </trkpt>
      <trkpt lat="42.51485" lon="2.05055">
        <ele>1827.7</ele>
      </trkpt>
      <trkpt lat="42.51491" lon="2.05059">
        <ele>1827.3</ele>
      </trkpt>
      <trkpt lat="42.51496" lon="2.05062">
        <ele>1827</ele>
      </trkpt>
      <trkpt lat="42.515" lon="2.05064">
        <ele>1826.8</ele>
      </trkpt>
      <trkpt lat="42.51504" lon="2.05067">
        <ele>1826.9</ele>
      </trkpt>
      <trkpt lat="42.51508" lon="2.05071">
        <ele>1827</ele>
      </trkpt>
      <trkpt lat="42.51512" lon="2.05075">
        <ele>1827</ele>
      </trkpt>
      <trkpt lat="42.51514" lon="2.05079">
        <ele>1826.8</ele>
      </trkpt>
      <trkpt lat="42.51517" lon="2.05082">
        <ele>1826.8</ele>
      </trkpt>
      <trkpt lat="42.51522" lon="2.05091">
        <ele>1826.9</ele>
      </trkpt>
      <trkpt lat="42.51527" lon="2.051">
        <ele>1826.9</ele>
      </trkpt>
      <trkpt lat="42.51531" lon="2.05107">
        <ele>1827</ele>
      </trkpt>
      <trkpt lat="42.51535" lon="2.05116">
        <ele>1826.9</ele>
      </trkpt>
      <trkpt lat="42.51539" lon="2.05127">
        <ele>1826.7</ele>
      </trkpt>
      <trkpt lat="42.51541" lon="2.0515">
        <ele>1825.2</ele>
      </trkpt>
      <trkpt lat="42.51541" lon="2.05172">
        <ele>1823.6</ele>
      </trkpt>
      <trkpt lat="42.51541" lon="2.0519">
        <ele>1822.7</ele>
      </trkpt>
      <trkpt lat="42.51541" lon="2.05209">
        <ele>1821.6</ele>
      </trkpt>
      <trkpt lat="42.5154" lon="2.05217">
        <ele>1821.1</ele>
      </trkpt>
      <trkpt lat="42.5154" lon="2.05224">
        <ele>1820.7</ele>
      </trkpt>
      <trkpt lat="42.51538" lon="2.05232">
        <ele>1820.1</ele>
      </trkpt>
      <trkpt lat="42.51536" lon="2.0524">
        <ele>1819.5</ele>
      </trkpt>
      <trkpt lat="42.51532" lon="2.05255">
        <ele>1818.5</ele>
      </trkpt>
      <trkpt lat="42.51528" lon="2.05272">
        <ele>1817.6</ele>
      </trkpt>
      <trkpt lat="42.51526" lon="2.0528">
        <ele>1817.2</ele>
      </trkpt>
      <trkpt lat="42.51525" lon="2.05287">
        <ele>1816.9</ele>
      </trkpt>
      <trkpt lat="42.51524" lon="2.05296">
        <ele>1816.6</ele>
      </trkpt>
      <trkpt lat="42.51523" lon="2.05319">
        <ele>1815.8</ele>
      </trkpt>
      <trkpt lat="42.51525" lon="2.05345">
        <ele>1814.7</ele>
      </trkpt>
      <trkpt lat="42.51526" lon="2.0537">
        <ele>1813.1</ele>
      </trkpt>
      <trkpt lat="42.51529" lon="2.05391">
        <ele>1811.8</ele>
      </trkpt>
      <trkpt lat="42.51531" lon="2.05417">
        <ele>1810.2</ele>
      </trkpt>
      <trkpt lat="42.51533" lon="2.05443">
        <ele>1809.6</ele>
      </trkpt>
      <trkpt lat="42.51535" lon="2.05469">
        <ele>1808.9</ele>
      </trkpt>
      <trkpt lat="42.51536" lon="2.05489">
        <ele>1808.4</ele>
      </trkpt>
      <trkpt lat="42.51536" lon="2.05502">
        <ele>1808</ele>
      </trkpt>
      <trkpt lat="42.51535" lon="2.05517">
        <ele>1807.8</ele>
      </trkpt>
      <trkpt lat="42.51534" lon="2.05528">
        <ele>1807.6</ele>
      </trkpt>
      <trkpt lat="42.51532" lon="2.0554">
        <ele>1807.3</ele>
      </trkpt>
      <trkpt lat="42.51528" lon="2.05562">
        <ele>1806.9</ele>
      </trkpt>
      <trkpt lat="42.5151" lon="2.05642">
        <ele>1804.6</ele>
      </trkpt>
      <trkpt lat="42.51502" lon="2.05681">
        <ele>1803.3</ele>
      </trkpt>
      <trkpt lat="42.51497" lon="2.0571">
        <ele>1801.9</ele>
      </trkpt>
      <trkpt lat="42.5149" lon="2.05748">
        <ele>1800.2</ele>
      </trkpt>
      <trkpt lat="42.51485" lon="2.05798">
        <ele>1798.2</ele>
      </trkpt>
      <trkpt lat="42.51472" lon="2.059">
        <ele>1794.5</ele>
      </trkpt>
      <trkpt lat="42.5147" lon="2.05913">
        <ele>1794</ele>
      </trkpt>
      <trkpt lat="42.51467" lon="2.05925">
        <ele>1793.3</ele>
      </trkpt>
      <trkpt lat="42.51466" lon="2.05938">
        <ele>1792.3</ele>
      </trkpt>
      <trkpt lat="42.51464" lon="2.0595">
        <ele>1791.5</ele>
      </trkpt>
      <trkpt lat="42.51462" lon="2.05961">
        <ele>1790.7</ele>
      </trkpt>
      <trkpt lat="42.5146" lon="2.05972">
        <ele>1789.9</ele>
      </trkpt>
      <trkpt lat="42.51457" lon="2.05979">
        <ele>1789.3</ele>
      </trkpt>
      <trkpt lat="42.51455" lon="2.05989">
        <ele>1788.6</ele>
      </trkpt>
      <trkpt lat="42.51454" lon="2.05989">
        <ele>1788.6</ele>
      </trkpt>
      <trkpt lat="42.51454" lon="2.0599">
        <ele>1788.5</ele>
      </trkpt>
      <trkpt lat="42.51453" lon="2.0599">
        <ele>1788.5</ele>
      </trkpt>
      <trkpt lat="42.51452" lon="2.05991">
        <ele>1788.4</ele>
      </trkpt>
      <trkpt lat="42.51451" lon="2.05992">
        <ele>1788.3</ele>
      </trkpt>
      <trkpt lat="42.5145" lon="2.05993">
        <ele>1788.3</ele>
      </trkpt>
      <trkpt lat="42.51449" lon="2.05994">
        <ele>1788.2</ele>
      </trkpt>
      <trkpt lat="42.51449" lon="2.05995">
        <ele>1788.1</ele>
      </trkpt>
      <trkpt lat="42.51448" lon="2.05996">
        <ele>1788</ele>
      </trkpt>
      <trkpt lat="42.51447" lon="2.05997">
        <ele>1787.9</ele>
      </trkpt>
      <trkpt lat="42.51447" lon="2.05998">
        <ele>1787.9</ele>
      </trkpt>
      <trkpt lat="42.51446" lon="2.05999">
        <ele>1787.8</ele>
      </trkpt>
      <trkpt lat="42.51446" lon="2.06001">
        <ele>1787.7</ele>
      </trkpt>
      <trkpt lat="42.51446" lon="2.06002">
        <ele>1787.7</ele>
      </trkpt>
      <trkpt lat="42.51446" lon="2.06003">
        <ele>1787.7</ele>
      </trkpt>
      <trkpt lat="42.51445" lon="2.06004">
        <ele>1787.7</ele>
      </trkpt>
      <trkpt lat="42.51445" lon="2.06005">
        <ele>1787.7</ele>
      </trkpt>
      <trkpt lat="42.51445" lon="2.06006">
        <ele>1787.7</ele>
      </trkpt>
      <trkpt lat="42.51446" lon="2.06007">
        <ele>1787.7</ele>
      </trkpt>
      <trkpt lat="42.51446" lon="2.06008">
        <ele>1787.7</ele>
      </trkpt>
      <trkpt lat="42.51446" lon="2.06009">
        <ele>1787.7</ele>
      </trkpt>
      <trkpt lat="42.51446" lon="2.0601">
        <ele>1787.7</ele>
      </trkpt>
      <trkpt lat="42.51446" lon="2.06011">
        <ele>1787.7</ele>
      </trkpt>
      <trkpt lat="42.51446" lon="2.06012">
        <ele>1787.7</ele>
      </trkpt>
      <trkpt lat="42.51447" lon="2.06013">
        <ele>1787.8</ele>
      </trkpt>
      <trkpt lat="42.51447" lon="2.06014">
        <ele>1787.8</ele>
      </trkpt>
      <trkpt lat="42.51448" lon="2.06016">
        <ele>1787.8</ele>
      </trkpt>
      <trkpt lat="42.51448" lon="2.06017">
        <ele>1787.8</ele>
      </trkpt>
      <trkpt lat="42.51449" lon="2.06018">
        <ele>1787.8</ele>
      </trkpt>
      <trkpt lat="42.5145" lon="2.06019">
        <ele>1787.8</ele>
      </trkpt>
      <trkpt lat="42.51451" lon="2.0602">
        <ele>1787.9</ele>
      </trkpt>
      <trkpt lat="42.51452" lon="2.06021">
        <ele>1787.9</ele>
      </trkpt>
      <trkpt lat="42.51452" lon="2.06022">
        <ele>1787.9</ele>
      </trkpt>
      <trkpt lat="42.51453" lon="2.06022">
        <ele>1787.9</ele>
      </trkpt>
      <trkpt lat="42.51454" lon="2.06033">
        <ele>1787.9</ele>
      </trkpt>
      <trkpt lat="42.51455" lon="2.06047">
        <ele>1788</ele>
      </trkpt>
      <trkpt lat="42.51455" lon="2.0606">
        <ele>1788</ele>
      </trkpt>
      <trkpt lat="42.51454" lon="2.06073">
        <ele>1788</ele>
      </trkpt>
      <trkpt lat="42.51453" lon="2.06087">
        <ele>1787.9</ele>
      </trkpt>
      <trkpt lat="42.51451" lon="2.06101">
        <ele>1787.7</ele>
      </trkpt>
      <trkpt lat="42.5145" lon="2.06116">
        <ele>1787.5</ele>
      </trkpt>
      <trkpt lat="42.51448" lon="2.06129">
        <ele>1787.4</ele>
      </trkpt>
      <trkpt lat="42.51444" lon="2.06147">
        <ele>1787.2</ele>
      </trkpt>
      <trkpt lat="42.5144" lon="2.06168">
        <ele>1787.1</ele>
      </trkpt>
      <trkpt lat="42.51435" lon="2.06188">
        <ele>1787.1</ele>
      </trkpt>
      <trkpt lat="42.51433" lon="2.06193">
        <ele>1787.1</ele>
      </trkpt>
      <trkpt lat="42.51428" lon="2.06211">
        <ele>1787.1</ele>
      </trkpt>
      <trkpt lat="42.51422" lon="2.06229">
        <ele>1787.1</ele>
      </trkpt>
      <trkpt lat="42.51416" lon="2.06249">
        <ele>1787</ele>
      </trkpt>
      <trkpt lat="42.51407" lon="2.06284">
        <ele>1784.6</ele>
      </trkpt>
      <trkpt lat="42.514" lon="2.06307">
        <ele>1783</ele>
      </trkpt>
      <trkpt lat="42.51396" lon="2.06326">
        <ele>1781.7</ele>
      </trkpt>
      <trkpt lat="42.51394" lon="2.06331">
        <ele>1781.3</ele>
      </trkpt>
      <trkpt lat="42.51393" lon="2.06336">
        <ele>1781</ele>
      </trkpt>
      <trkpt lat="42.51392" lon="2.06341">
        <ele>1780.6</ele>
      </trkpt>
      <trkpt lat="42.5139" lon="2.06349">
        <ele>1780</ele>
      </trkpt>
      <trkpt lat="42.51386" lon="2.0637">
        <ele>1778.4</ele>
      </trkpt>
      <trkpt lat="42.51386" lon="2.06384">
        <ele>1777.4</ele>
      </trkpt>
      <trkpt lat="42.51386" lon="2.06392">
        <ele>1776.9</ele>
      </trkpt>
      <trkpt lat="42.51386" lon="2.06401">
        <ele>1776.2</ele>
      </trkpt>
      <trkpt lat="42.51387" lon="2.0641">
        <ele>1775.7</ele>
      </trkpt>
      <trkpt lat="42.51388" lon="2.06419">
        <ele>1775.1</ele>
      </trkpt>
      <trkpt lat="42.5139" lon="2.06427">
        <ele>1774.6</ele>
      </trkpt>
      <trkpt lat="42.51391" lon="2.06436">
        <ele>1774</ele>
      </trkpt>
      <trkpt lat="42.51394" lon="2.06447">
        <ele>1773.3</ele>
      </trkpt>
      <trkpt lat="42.51395" lon="2.06451">
        <ele>1773</ele>
      </trkpt>
      <trkpt lat="42.51397" lon="2.06456">
        <ele>1772.7</ele>
      </trkpt>
      <trkpt lat="42.51399" lon="2.06462">
        <ele>1772.4</ele>
      </trkpt>
      <trkpt lat="42.51401" lon="2.06468">
        <ele>1772</ele>
      </trkpt>
      <trkpt lat="42.51405" lon="2.06478">
        <ele>1771.4</ele>
      </trkpt>
      <trkpt lat="42.51412" lon="2.06489">
        <ele>1770.7</ele>
      </trkpt>
      <trkpt lat="42.51416" lon="2.06496">
        <ele>1770.3</ele>
      </trkpt>
      <trkpt lat="42.51424" lon="2.06507">
        <ele>1769.4</ele>
      </trkpt>
      <trkpt lat="42.51464" lon="2.06544">
        <ele>1765.9</ele>
      </trkpt>
      <trkpt lat="42.51505" lon="2.06579">
        <ele>1761.9</ele>
      </trkpt>
      <trkpt lat="42.5152" lon="2.06594">
        <ele>1759.9</ele>
      </trkpt>
      <trkpt lat="42.51531" lon="2.06607">
        <ele>1758.5</ele>
      </trkpt>
      <trkpt lat="42.5154" lon="2.06622">
        <ele>1757.2</ele>
      </trkpt>
      <trkpt lat="42.51548" lon="2.0664">
        <ele>1755.9</ele>
      </trkpt>
      <trkpt lat="42.51556" lon="2.0666">
        <ele>1754.5</ele>
      </trkpt>
      <trkpt lat="42.51561" lon="2.06682">
        <ele>1753.1</ele>
      </trkpt>
      <trkpt lat="42.51562" lon="2.06699">
        <ele>1752.1</ele>
      </trkpt>
      <trkpt lat="42.51563" lon="2.06716">
        <ele>1751.2</ele>
      </trkpt>
      <trkpt lat="42.51562" lon="2.06732">
        <ele>1750.4</ele>
      </trkpt>
      <trkpt lat="42.51562" lon="2.06758">
        <ele>1749.2</ele>
      </trkpt>
      <trkpt lat="42.51558" lon="2.06823">
        <ele>1746.8</ele>
      </trkpt>
      <trkpt lat="42.51553" lon="2.06904">
        <ele>1742.3</ele>
      </trkpt>
      <trkpt lat="42.51549" lon="2.06954">
        <ele>1741.3</ele>
      </trkpt>
      <trkpt lat="42.51548" lon="2.06973">
        <ele>1741.1</ele>
      </trkpt>
      <trkpt lat="42.51547" lon="2.06991">
        <ele>1740.9</ele>
      </trkpt>
      <trkpt lat="42.51544" lon="2.07012">
        <ele>1740.7</ele>
      </trkpt>
      <trkpt lat="42.51542" lon="2.07026">
        <ele>1740.7</ele>
      </trkpt>
      <trkpt lat="42.51538" lon="2.07053">
        <ele>1740.6</ele>
      </trkpt>
      <trkpt lat="42.51535" lon="2.07068">
        <ele>1740.6</ele>
      </trkpt>
      <trkpt lat="42.51528" lon="2.0709">
        <ele>1740.6</ele>
      </trkpt>
      <trkpt lat="42.51522" lon="2.07111">
        <ele>1740.8</ele>
      </trkpt>
      <trkpt lat="42.51516" lon="2.07127">
        <ele>1740.7</ele>
      </trkpt>
      <trkpt lat="42.51508" lon="2.07146">
        <ele>1740</ele>
      </trkpt>
      <trkpt lat="42.51506" lon="2.07151">
        <ele>1739.8</ele>
      </trkpt>
      <trkpt lat="42.51493" lon="2.07184">
        <ele>1738.2</ele>
      </trkpt>
      <trkpt lat="42.51488" lon="2.07202">
        <ele>1737.6</ele>
      </trkpt>
      <trkpt lat="42.51481" lon="2.07227">
        <ele>1736.7</ele>
      </trkpt>
      <trkpt lat="42.51477" lon="2.07252">
        <ele>1735.9</ele>
      </trkpt>
      <trkpt lat="42.51476" lon="2.07268">
        <ele>1735.3</ele>
      </trkpt>
      <trkpt lat="42.51476" lon="2.07281">
        <ele>1734.7</ele>
      </trkpt>
      <trkpt lat="42.51477" lon="2.07296">
        <ele>1734.1</ele>
      </trkpt>
      <trkpt lat="42.5148" lon="2.07316">
        <ele>1733.2</ele>
      </trkpt>
      <trkpt lat="42.51486" lon="2.07339">
        <ele>1732.2</ele>
      </trkpt>
      <trkpt lat="42.51499" lon="2.07376">
        <ele>1731</ele>
      </trkpt>
      <trkpt lat="42.51508" lon="2.07408">
        <ele>1731</ele>
      </trkpt>
      <trkpt lat="42.5151" lon="2.07416">
        <ele>1731</ele>
      </trkpt>
      <trkpt lat="42.51516" lon="2.07443">
        <ele>1731.1</ele>
      </trkpt>
      <trkpt lat="42.5152" lon="2.07463">
        <ele>1731.1</ele>
      </trkpt>
      <trkpt lat="42.51522" lon="2.07485">
        <ele>1730.9</ele>
      </trkpt>
      <trkpt lat="42.51524" lon="2.07501">
        <ele>1730.7</ele>
      </trkpt>
      <trkpt lat="42.51527" lon="2.07535">
        <ele>1731.1</ele>
      </trkpt>
      <trkpt lat="42.51528" lon="2.07551">
        <ele>1731.2</ele>
      </trkpt>
      <trkpt lat="42.51529" lon="2.07569">
        <ele>1731.4</ele>
      </trkpt>
      <trkpt lat="42.51527" lon="2.07604">
        <ele>1731.5</ele>
      </trkpt>
      <trkpt lat="42.5152" lon="2.07628">
        <ele>1731.2</ele>
      </trkpt>
      <trkpt lat="42.51512" lon="2.07644">
        <ele>1730.7</ele>
      </trkpt>
      <trkpt lat="42.515" lon="2.07666">
        <ele>1730</ele>
      </trkpt>
      <trkpt lat="42.51449" lon="2.07747">
        <ele>1734.1</ele>
      </trkpt>
      <trkpt lat="42.51425" lon="2.07789">
        <ele>1735.1</ele>
      </trkpt>
      <trkpt lat="42.51411" lon="2.07817">
        <ele>1736.1</ele>
      </trkpt>
      <trkpt lat="42.51408" lon="2.07823">
        <ele>1736.3</ele>
      </trkpt>
      <trkpt lat="42.51387" lon="2.07868">
        <ele>1735.3</ele>
      </trkpt>
      <trkpt lat="42.51364" lon="2.07915">
        <ele>1732.7</ele>
      </trkpt>
      <trkpt lat="42.51333" lon="2.07977">
        <ele>1726.5</ele>
      </trkpt>
      <trkpt lat="42.5131" lon="2.08025">
        <ele>1723.8</ele>
      </trkpt>
      <trkpt lat="42.51287" lon="2.08081">
        <ele>1720.7</ele>
      </trkpt>
      <trkpt lat="42.51268" lon="2.08128">
        <ele>1717.3</ele>
      </trkpt>
      <trkpt lat="42.51267" lon="2.08132">
        <ele>1717</ele>
      </trkpt>
      <trkpt lat="42.51254" lon="2.08166">
        <ele>1713.7</ele>
      </trkpt>
      <trkpt lat="42.51228" lon="2.08237">
        <ele>1715.1</ele>
      </trkpt>
      <trkpt lat="42.51201" lon="2.08308">
        <ele>1713.9</ele>
      </trkpt>
      <trkpt lat="42.51181" lon="2.08357">
        <ele>1711.2</ele>
      </trkpt>
      <trkpt lat="42.51171" lon="2.0838">
        <ele>1709.5</ele>
      </trkpt>
      <trkpt lat="42.51167" lon="2.08389">
        <ele>1708.7</ele>
      </trkpt>
      <trkpt lat="42.51155" lon="2.08416">
        <ele>1708.2</ele>
      </trkpt>
      <trkpt lat="42.51142" lon="2.08443">
        <ele>1708.3</ele>
      </trkpt>
      <trkpt lat="42.51137" lon="2.08454">
        <ele>1708.1</ele>
      </trkpt>
      <trkpt lat="42.51133" lon="2.08466">
        <ele>1707.6</ele>
      </trkpt>
      <trkpt lat="42.51125" lon="2.0849">
        <ele>1706.2</ele>
      </trkpt>
      <trkpt lat="42.5112" lon="2.08513">
        <ele>1704.3</ele>
      </trkpt>
      <trkpt lat="42.51117" lon="2.08539">
        <ele>1702.1</ele>
      </trkpt>
      <trkpt lat="42.51116" lon="2.08562">
        <ele>1700.3</ele>
      </trkpt>
      <trkpt lat="42.51116" lon="2.08583">
        <ele>1698.6</ele>
      </trkpt>
      <trkpt lat="42.51119" lon="2.08622">
        <ele>1697.3</ele>
      </trkpt>
      <trkpt lat="42.51123" lon="2.08673">
        <ele>1695.6</ele>
      </trkpt>
      <trkpt lat="42.51128" lon="2.08745">
        <ele>1692.2</ele>
      </trkpt>
      <trkpt lat="42.5113" lon="2.08775">
        <ele>1691.1</ele>
      </trkpt>
      <trkpt lat="42.51132" lon="2.08808">
        <ele>1689.9</ele>
      </trkpt>
      <trkpt lat="42.51131" lon="2.08834">
        <ele>1689</ele>
      </trkpt>
      <trkpt lat="42.51129" lon="2.0885">
        <ele>1688.6</ele>
      </trkpt>
      <trkpt lat="42.51127" lon="2.08864">
        <ele>1688.3</ele>
      </trkpt>
      <trkpt lat="42.5112" lon="2.08904">
        <ele>1687.3</ele>
      </trkpt>
      <trkpt lat="42.51116" lon="2.08933">
        <ele>1686.3</ele>
      </trkpt>
      <trkpt lat="42.51112" lon="2.08971">
        <ele>1684.6</ele>
      </trkpt>
      <trkpt lat="42.5111" lon="2.09006">
        <ele>1683.1</ele>
      </trkpt>
      <trkpt lat="42.5111" lon="2.09027">
        <ele>1682.6</ele>
      </trkpt>
      <trkpt lat="42.51112" lon="2.09065">
        <ele>1681.8</ele>
      </trkpt>
      <trkpt lat="42.51116" lon="2.09115">
        <ele>1680.4</ele>
      </trkpt>
      <trkpt lat="42.51115" lon="2.09136">
        <ele>1679.6</ele>
      </trkpt>
      <trkpt lat="42.51114" lon="2.09152">
        <ele>1679</ele>
      </trkpt>
      <trkpt lat="42.51113" lon="2.09168">
        <ele>1678.4</ele>
      </trkpt>
      <trkpt lat="42.51107" lon="2.09206">
        <ele>1677.5</ele>
      </trkpt>
      <trkpt lat="42.51102" lon="2.09239">
        <ele>1676.8</ele>
      </trkpt>
      <trkpt lat="42.51098" lon="2.09278">
        <ele>1676.1</ele>
      </trkpt>
      <trkpt lat="42.51097" lon="2.093">
        <ele>1675.8</ele>
      </trkpt>
      <trkpt lat="42.51095" lon="2.09379">
        <ele>1675.2</ele>
      </trkpt>
      <trkpt lat="42.51093" lon="2.09425">
        <ele>1674.9</ele>
      </trkpt>
      <trkpt lat="42.51092" lon="2.09466">
        <ele>1673.9</ele>
      </trkpt>
      <trkpt lat="42.51094" lon="2.09526">
        <ele>1673.9</ele>
      </trkpt>
      <trkpt lat="42.51097" lon="2.09556">
        <ele>1674.7</ele>
      </trkpt>
      <trkpt lat="42.51107" lon="2.09607">
        <ele>1674.7</ele>
      </trkpt>
      <trkpt lat="42.51132" lon="2.09709">
        <ele>1672.9</ele>
      </trkpt>
      <trkpt lat="42.51141" lon="2.09738">
        <ele>1672.2</ele>
      </trkpt>
      <trkpt lat="42.51149" lon="2.09765">
        <ele>1671.3</ele>
      </trkpt>
      <trkpt lat="42.51158" lon="2.09788">
        <ele>1670.1</ele>
      </trkpt>
      <trkpt lat="42.51167" lon="2.09811">
        <ele>1668.5</ele>
      </trkpt>
      <trkpt lat="42.51181" lon="2.09844">
        <ele>1667.2</ele>
      </trkpt>
      <trkpt lat="42.51189" lon="2.09864">
        <ele>1666.3</ele>
      </trkpt>
      <trkpt lat="42.51194" lon="2.09876">
        <ele>1665.6</ele>
      </trkpt>
      <trkpt lat="42.51198" lon="2.0989">
        <ele>1665</ele>
      </trkpt>
      <trkpt lat="42.51203" lon="2.09912">
        <ele>1663.9</ele>
      </trkpt>
      <trkpt lat="42.51206" lon="2.09932">
        <ele>1663.6</ele>
      </trkpt>
      <trkpt lat="42.51207" lon="2.09954">
        <ele>1663.6</ele>
      </trkpt>
      <trkpt lat="42.51209" lon="2.09975">
        <ele>1663.5</ele>
      </trkpt>
      <trkpt lat="42.5121" lon="2.10004">
        <ele>1663.4</ele>
      </trkpt>
      <trkpt lat="42.51213" lon="2.10037">
        <ele>1663.6</ele>
      </trkpt>
      <trkpt lat="42.51219" lon="2.10061">
        <ele>1663.2</ele>
      </trkpt>
      <trkpt lat="42.51226" lon="2.10086">
        <ele>1662.6</ele>
      </trkpt>
      <trkpt lat="42.5124" lon="2.10118">
        <ele>1661</ele>
      </trkpt>
      <trkpt lat="42.51259" lon="2.10152">
        <ele>1658.8</ele>
      </trkpt>
      <trkpt lat="42.51266" lon="2.10164">
        <ele>1658.3</ele>
      </trkpt>
      <trkpt lat="42.51268" lon="2.1017">
        <ele>1658.1</ele>
      </trkpt>
      <trkpt lat="42.51269" lon="2.10174">
        <ele>1657.9</ele>
      </trkpt>
      <trkpt lat="42.51274" lon="2.10185">
        <ele>1657.4</ele>
      </trkpt>
      <trkpt lat="42.51279" lon="2.10195">
        <ele>1656.8</ele>
      </trkpt>
      <trkpt lat="42.51286" lon="2.10214">
        <ele>1655.7</ele>
      </trkpt>
      <trkpt lat="42.51291" lon="2.10234">
        <ele>1654.6</ele>
      </trkpt>
      <trkpt lat="42.51304" lon="2.10315">
        <ele>1652.3</ele>
      </trkpt>
      <trkpt lat="42.51307" lon="2.10336">
        <ele>1651.8</ele>
      </trkpt>
      <trkpt lat="42.51314" lon="2.10376">
        <ele>1649.9</ele>
      </trkpt>
      <trkpt lat="42.51325" lon="2.10443">
        <ele>1647.8</ele>
      </trkpt>
      <trkpt lat="42.51331" lon="2.10475">
        <ele>1647.2</ele>
      </trkpt>
      <trkpt lat="42.51337" lon="2.10496">
        <ele>1646.7</ele>
      </trkpt>
      <trkpt lat="42.51345" lon="2.10523">
        <ele>1646.6</ele>
      </trkpt>
      <trkpt lat="42.5135" lon="2.10535">
        <ele>1646.5</ele>
      </trkpt>
      <trkpt lat="42.5135" lon="2.10536">
        <ele>1646.5</ele>
      </trkpt>
      <trkpt lat="42.51354" lon="2.1054">
        <ele>1646.2</ele>
      </trkpt>
      <trkpt lat="42.51364" lon="2.10566">
        <ele>1645.8</ele>
      </trkpt>
      <trkpt lat="42.51374" lon="2.10592">
        <ele>1645.4</ele>
      </trkpt>
      <trkpt lat="42.5138" lon="2.10609">
        <ele>1645.3</ele>
      </trkpt>
      <trkpt lat="42.51396" lon="2.10645">
        <ele>1644.6</ele>
      </trkpt>
      <trkpt lat="42.51407" lon="2.1067">
        <ele>1644.4</ele>
      </trkpt>
      <trkpt lat="42.51414" lon="2.10685">
        <ele>1645</ele>
      </trkpt>
      <trkpt lat="42.5143" lon="2.10719">
        <ele>1645.4</ele>
      </trkpt>
      <trkpt lat="42.51434" lon="2.10732">
        <ele>1645.5</ele>
      </trkpt>
      <trkpt lat="42.51438" lon="2.10747">
        <ele>1645.7</ele>
      </trkpt>
      <trkpt lat="42.51439" lon="2.10759">
        <ele>1644.8</ele>
      </trkpt>
      <trkpt lat="42.51439" lon="2.10773">
        <ele>1643.5</ele>
      </trkpt>
      <trkpt lat="42.51438" lon="2.10783">
        <ele>1642.8</ele>
      </trkpt>
      <trkpt lat="42.51436" lon="2.10793">
        <ele>1642.3</ele>
      </trkpt>
      <trkpt lat="42.51434" lon="2.10803">
        <ele>1641.9</ele>
      </trkpt>
      <trkpt lat="42.51429" lon="2.10815">
        <ele>1641.9</ele>
      </trkpt>
      <trkpt lat="42.5142" lon="2.10833">
        <ele>1642.3</ele>
      </trkpt>
      <trkpt lat="42.51411" lon="2.10846">
        <ele>1641.8</ele>
      </trkpt>
      <trkpt lat="42.51395" lon="2.10866">
        <ele>1642.4</ele>
      </trkpt>
      <trkpt lat="42.51372" lon="2.109">
        <ele>1642.5</ele>
      </trkpt>
      <trkpt lat="42.5135" lon="2.10933">
        <ele>1642.3</ele>
      </trkpt>
      <trkpt lat="42.51338" lon="2.10957">
        <ele>1639.9</ele>
      </trkpt>
      <trkpt lat="42.5133" lon="2.10977">
        <ele>1636.3</ele>
      </trkpt>
      <trkpt lat="42.51326" lon="2.10984">
        <ele>1634.7</ele>
      </trkpt>
      <trkpt lat="42.51321" lon="2.10991">
        <ele>1633.1</ele>
      </trkpt>
      <trkpt lat="42.51316" lon="2.10996">
        <ele>1632.1</ele>
      </trkpt>
      <trkpt lat="42.51313" lon="2.10999">
        <ele>1631.5</ele>
      </trkpt>
      <trkpt lat="42.5131" lon="2.11001">
        <ele>1631.2</ele>
      </trkpt>
      <trkpt lat="42.51301" lon="2.11004">
        <ele>1631.1</ele>
      </trkpt>
      <trkpt lat="42.51293" lon="2.11005">
        <ele>1631.4</ele>
      </trkpt>
      <trkpt lat="42.51287" lon="2.11006">
        <ele>1631.6</ele>
      </trkpt>
      <trkpt lat="42.51279" lon="2.11007">
        <ele>1631.9</ele>
      </trkpt>
      <trkpt lat="42.51271" lon="2.11007">
        <ele>1632.4</ele>
      </trkpt>
      <trkpt lat="42.5126" lon="2.11009">
        <ele>1632.7</ele>
      </trkpt>
      <trkpt lat="42.51249" lon="2.11011">
        <ele>1633</ele>
      </trkpt>
      <trkpt lat="42.51246" lon="2.11012">
        <ele>1632.6</ele>
      </trkpt>
      <trkpt lat="42.51242" lon="2.11013">
        <ele>1632.2</ele>
      </trkpt>
      <trkpt lat="42.51234" lon="2.1102">
        <ele>1630.6</ele>
      </trkpt>
      <trkpt lat="42.51227" lon="2.11026">
        <ele>1629.3</ele>
      </trkpt>
      <trkpt lat="42.51222" lon="2.11031">
        <ele>1628.2</ele>
      </trkpt>
      <trkpt lat="42.51217" lon="2.11038">
        <ele>1626.9</ele>
      </trkpt>
      <trkpt lat="42.51211" lon="2.11055">
        <ele>1624</ele>
      </trkpt>
      <trkpt lat="42.51207" lon="2.11069">
        <ele>1621.7</ele>
      </trkpt>
      <trkpt lat="42.51202" lon="2.11092">
        <ele>1618.6</ele>
      </trkpt>
      <trkpt lat="42.51197" lon="2.11115">
        <ele>1616.4</ele>
      </trkpt>
      <trkpt lat="42.51194" lon="2.11138">
        <ele>1614.3</ele>
      </trkpt>
      <trkpt lat="42.51193" lon="2.11141">
        <ele>1614</ele>
      </trkpt>
      <trkpt lat="42.51191" lon="2.11152">
        <ele>1613</ele>
      </trkpt>
      <trkpt lat="42.51187" lon="2.11171">
        <ele>1611.5</ele>
      </trkpt>
      <trkpt lat="42.51177" lon="2.11226">
        <ele>1609.2</ele>
      </trkpt>
      <trkpt lat="42.51169" lon="2.11253">
        <ele>1608.5</ele>
      </trkpt>
      <trkpt lat="42.51164" lon="2.11279">
        <ele>1606.2</ele>
      </trkpt>
      <trkpt lat="42.51157" lon="2.11312">
        <ele>1603.2</ele>
      </trkpt>
      <trkpt lat="42.51154" lon="2.11323">
        <ele>1602.2</ele>
      </trkpt>
      <trkpt lat="42.51152" lon="2.11332">
        <ele>1601.5</ele>
      </trkpt>
      <trkpt lat="42.51151" lon="2.11335">
        <ele>1601.3</ele>
      </trkpt>
      <trkpt lat="42.51147" lon="2.11345">
        <ele>1600.9</ele>
      </trkpt>
      <trkpt lat="42.5114" lon="2.11358">
        <ele>1600.4</ele>
      </trkpt>
      <trkpt lat="42.51129" lon="2.11376">
        <ele>1599.6</ele>
      </trkpt>
      <trkpt lat="42.51118" lon="2.11388">
        <ele>1599.2</ele>
      </trkpt>
      <trkpt lat="42.5111" lon="2.11397">
        <ele>1598.8</ele>
      </trkpt>
      <trkpt lat="42.51105" lon="2.11402">
        <ele>1598.6</ele>
      </trkpt>
      <trkpt lat="42.51098" lon="2.1141">
        <ele>1598.2</ele>
      </trkpt>
      <trkpt lat="42.51098" lon="2.1141">
        <ele>1598.2</ele>
      </trkpt>
      <trkpt lat="42.51097" lon="2.1141">
        <ele>1598.2</ele>
      </trkpt>
      <trkpt lat="42.51095" lon="2.1141">
        <ele>1598.2</ele>
      </trkpt>
      <trkpt lat="42.51094" lon="2.1141">
        <ele>1598.3</ele>
      </trkpt>
      <trkpt lat="42.51093" lon="2.1141">
        <ele>1598.3</ele>
      </trkpt>
      <trkpt lat="42.51092" lon="2.11411">
        <ele>1598.2</ele>
      </trkpt>
      <trkpt lat="42.51091" lon="2.11411">
        <ele>1598.2</ele>
      </trkpt>
      <trkpt lat="42.5109" lon="2.11412">
        <ele>1598.2</ele>
      </trkpt>
      <trkpt lat="42.51089" lon="2.11412">
        <ele>1598.2</ele>
      </trkpt>
      <trkpt lat="42.51088" lon="2.11413">
        <ele>1598.2</ele>
      </trkpt>
      <trkpt lat="42.51087" lon="2.11414">
        <ele>1598.1</ele>
      </trkpt>
      <trkpt lat="42.51085" lon="2.11416">
        <ele>1598</ele>
      </trkpt>
      <trkpt lat="42.51084" lon="2.11417">
        <ele>1598</ele>
      </trkpt>
      <trkpt lat="42.51083" lon="2.11419">
        <ele>1598</ele>
      </trkpt>
      <trkpt lat="42.51083" lon="2.1142">
        <ele>1598</ele>
      </trkpt>
      <trkpt lat="42.51082" lon="2.11422">
        <ele>1598.1</ele>
      </trkpt>
      <trkpt lat="42.51082" lon="2.11423">
        <ele>1598.1</ele>
      </trkpt>
      <trkpt lat="42.51081" lon="2.11425">
        <ele>1598.1</ele>
      </trkpt>
      <trkpt lat="42.51081" lon="2.11426">
        <ele>1598.1</ele>
      </trkpt>
      <trkpt lat="42.5108" lon="2.11428">
        <ele>1598.1</ele>
      </trkpt>
      <trkpt lat="42.5108" lon="2.1143">
        <ele>1598.1</ele>
      </trkpt>
      <trkpt lat="42.5108" lon="2.11431">
        <ele>1598.2</ele>
      </trkpt>
      <trkpt lat="42.5108" lon="2.11433">
        <ele>1598.2</ele>
      </trkpt>
      <trkpt lat="42.5108" lon="2.11435">
        <ele>1598.2</ele>
      </trkpt>
      <trkpt lat="42.51081" lon="2.11437">
        <ele>1598.2</ele>
      </trkpt>
      <trkpt lat="42.51081" lon="2.11439">
        <ele>1598.2</ele>
      </trkpt>
      <trkpt lat="42.51081" lon="2.1144">
        <ele>1598.3</ele>
      </trkpt>
      <trkpt lat="42.51082" lon="2.11442">
        <ele>1598.3</ele>
      </trkpt>
      <trkpt lat="42.51083" lon="2.11443">
        <ele>1598.3</ele>
      </trkpt>
      <trkpt lat="42.51083" lon="2.11445">
        <ele>1598.3</ele>
      </trkpt>
      <trkpt lat="42.51084" lon="2.11446">
        <ele>1598.3</ele>
      </trkpt>
      <trkpt lat="42.51085" lon="2.11448">
        <ele>1598.3</ele>
      </trkpt>
      <trkpt lat="42.51087" lon="2.1145">
        <ele>1598.3</ele>
      </trkpt>
      <trkpt lat="42.51088" lon="2.11451">
        <ele>1598.3</ele>
      </trkpt>
      <trkpt lat="42.51089" lon="2.11451">
        <ele>1598.3</ele>
      </trkpt>
      <trkpt lat="42.5109" lon="2.11452">
        <ele>1598.2</ele>
      </trkpt>
      <trkpt lat="42.51091" lon="2.11453">
        <ele>1598.2</ele>
      </trkpt>
      <trkpt lat="42.51093" lon="2.11453">
        <ele>1598.2</ele>
      </trkpt>
      <trkpt lat="42.51094" lon="2.11453">
        <ele>1598.1</ele>
      </trkpt>
      <trkpt lat="42.51095" lon="2.11454">
        <ele>1598.1</ele>
      </trkpt>
      <trkpt lat="42.51097" lon="2.11454">
        <ele>1598.1</ele>
      </trkpt>
      <trkpt lat="42.51098" lon="2.11454">
        <ele>1598</ele>
      </trkpt>
      <trkpt lat="42.51099" lon="2.11453">
        <ele>1598</ele>
      </trkpt>
      <trkpt lat="42.511" lon="2.11453">
        <ele>1598</ele>
      </trkpt>
      <trkpt lat="42.51101" lon="2.11453">
        <ele>1597.9</ele>
      </trkpt>
      <trkpt lat="42.51102" lon="2.11452">
        <ele>1597.9</ele>
      </trkpt>
      <trkpt lat="42.51103" lon="2.11452">
        <ele>1597.9</ele>
      </trkpt>
      <trkpt lat="42.51104" lon="2.11451">
        <ele>1597.9</ele>
      </trkpt>
      <trkpt lat="42.51106" lon="2.11451">
        <ele>1597.8</ele>
      </trkpt>
      <trkpt lat="42.51123" lon="2.11455">
        <ele>1597.3</ele>
      </trkpt>
      <trkpt lat="42.51135" lon="2.11459">
        <ele>1596.9</ele>
      </trkpt>
      <trkpt lat="42.51146" lon="2.11461">
        <ele>1596.6</ele>
      </trkpt>
      <trkpt lat="42.51158" lon="2.11466">
        <ele>1596.1</ele>
      </trkpt>
      <trkpt lat="42.51167" lon="2.11468">
        <ele>1595.7</ele>
      </trkpt>
      <trkpt lat="42.51174" lon="2.11469">
        <ele>1594.9</ele>
      </trkpt>
      <trkpt lat="42.51178" lon="2.1147">
        <ele>1594.5</ele>
      </trkpt>
      <trkpt lat="42.51183" lon="2.11469">
        <ele>1594</ele>
      </trkpt>
      <trkpt lat="42.51187" lon="2.11468">
        <ele>1593.6</ele>
      </trkpt>
      <trkpt lat="42.51191" lon="2.11466">
        <ele>1593.2</ele>
      </trkpt>
      <trkpt lat="42.51195" lon="2.11464">
        <ele>1592.9</ele>
      </trkpt>
      <trkpt lat="42.512" lon="2.1146">
        <ele>1592.5</ele>
      </trkpt>
      <trkpt lat="42.51204" lon="2.11455">
        <ele>1592.4</ele>
      </trkpt>
      <trkpt lat="42.51208" lon="2.11448">
        <ele>1592.3</ele>
      </trkpt>
      <trkpt lat="42.51211" lon="2.11442">
        <ele>1592.4</ele>
      </trkpt>
      <trkpt lat="42.51214" lon="2.11435">
        <ele>1592.5</ele>
      </trkpt>
      <trkpt lat="42.51215" lon="2.11428">
        <ele>1592.9</ele>
      </trkpt>
      <trkpt lat="42.51217" lon="2.11417">
        <ele>1593.4</ele>
      </trkpt>
      <trkpt lat="42.51219" lon="2.11397">
        <ele>1593.9</ele>
      </trkpt>
      <trkpt lat="42.51223" lon="2.11351">
        <ele>1595</ele>
      </trkpt>
      <trkpt lat="42.51224" lon="2.11335">
        <ele>1595.4</ele>
      </trkpt>
      <trkpt lat="42.51225" lon="2.11326">
        <ele>1596.2</ele>
      </trkpt>
      <trkpt lat="42.51227" lon="2.11318">
        <ele>1596.8</ele>
      </trkpt>
      <trkpt lat="42.51229" lon="2.11309">
        <ele>1597.6</ele>
      </trkpt>
      <trkpt lat="42.51231" lon="2.11301">
        <ele>1598.2</ele>
      </trkpt>
      <trkpt lat="42.51234" lon="2.11293">
        <ele>1598.8</ele>
      </trkpt>
      <trkpt lat="42.51238" lon="2.11284">
        <ele>1599.4</ele>
      </trkpt>
      <trkpt lat="42.51244" lon="2.11274">
        <ele>1599.9</ele>
      </trkpt>
      <trkpt lat="42.51254" lon="2.11254">
        <ele>1600.8</ele>
      </trkpt>
      <trkpt lat="42.51271" lon="2.11223">
        <ele>1601</ele>
      </trkpt>
      <trkpt lat="42.51284" lon="2.11201">
        <ele>1601.3</ele>
      </trkpt>
      <trkpt lat="42.51298" lon="2.11182">
        <ele>1601.4</ele>
      </trkpt>
      <trkpt lat="42.51311" lon="2.11164">
        <ele>1601.9</ele>
      </trkpt>
      <trkpt lat="42.51323" lon="2.11147">
        <ele>1602.8</ele>
      </trkpt>
      <trkpt lat="42.51338" lon="2.11125">
        <ele>1604.4</ele>
      </trkpt>
      <trkpt lat="42.51343" lon="2.11117">
        <ele>1605</ele>
      </trkpt>
      <trkpt lat="42.51345" lon="2.11112">
        <ele>1605.5</ele>
      </trkpt>
      <trkpt lat="42.51351" lon="2.111">
        <ele>1606.4</ele>
      </trkpt>
      <trkpt lat="42.51354" lon="2.11091">
        <ele>1607.2</ele>
      </trkpt>
      <trkpt lat="42.51358" lon="2.1108">
        <ele>1608.2</ele>
      </trkpt>
      <trkpt lat="42.51362" lon="2.1107">
        <ele>1609.3</ele>
      </trkpt>
      <trkpt lat="42.51366" lon="2.11062">
        <ele>1610</ele>
      </trkpt>
      <trkpt lat="42.51369" lon="2.11056">
        <ele>1610.5</ele>
      </trkpt>
      <trkpt lat="42.51375" lon="2.11051">
        <ele>1610.1</ele>
      </trkpt>
      <trkpt lat="42.51376" lon="2.11049">
        <ele>1610.3</ele>
      </trkpt>
      <trkpt lat="42.5138" lon="2.11046">
        <ele>1609.9</ele>
      </trkpt>
      <trkpt lat="42.51384" lon="2.11045">
        <ele>1609.2</ele>
      </trkpt>
      <trkpt lat="42.51393" lon="2.11046">
        <ele>1607.1</ele>
      </trkpt>
      <trkpt lat="42.51401" lon="2.11047">
        <ele>1605.2</ele>
      </trkpt>
      <trkpt lat="42.51405" lon="2.11048">
        <ele>1604.2</ele>
      </trkpt>
      <trkpt lat="42.51415" lon="2.11049">
        <ele>1601.9</ele>
      </trkpt>
      <trkpt lat="42.51446" lon="2.11054">
        <ele>1607.2</ele>
      </trkpt>
      <trkpt lat="42.51453" lon="2.11056">
        <ele>1608.5</ele>
      </trkpt>
      <trkpt lat="42.5146" lon="2.11058">
        <ele>1609.8</ele>
      </trkpt>
      <trkpt lat="42.51467" lon="2.11059">
        <ele>1611.3</ele>
      </trkpt>
      <trkpt lat="42.51471" lon="2.11061">
        <ele>1612.1</ele>
      </trkpt>
      <trkpt lat="42.51476" lon="2.11064">
        <ele>1613</ele>
      </trkpt>
      <trkpt lat="42.51481" lon="2.11067">
        <ele>1614</ele>
      </trkpt>
      <trkpt lat="42.51486" lon="2.11072">
        <ele>1615</ele>
      </trkpt>
      <trkpt lat="42.51489" lon="2.11076">
        <ele>1615.5</ele>
      </trkpt>
      <trkpt lat="42.51492" lon="2.11081">
        <ele>1616.1</ele>
      </trkpt>
      <trkpt lat="42.51494" lon="2.11085">
        <ele>1616.5</ele>
      </trkpt>
      <trkpt lat="42.51495" lon="2.11087">
        <ele>1616.7</ele>
      </trkpt>
      <trkpt lat="42.51498" lon="2.11096">
        <ele>1617.3</ele>
      </trkpt>
      <trkpt lat="42.515" lon="2.11108">
        <ele>1617.7</ele>
      </trkpt>
      <trkpt lat="42.515" lon="2.11114">
        <ele>1617.6</ele>
      </trkpt>
      <trkpt lat="42.515" lon="2.1112">
        <ele>1617.6</ele>
      </trkpt>
      <trkpt lat="42.515" lon="2.11126">
        <ele>1617.5</ele>
      </trkpt>
      <trkpt lat="42.51499" lon="2.11136">
        <ele>1617.1</ele>
      </trkpt>
      <trkpt lat="42.51497" lon="2.11145">
        <ele>1616.4</ele>
      </trkpt>
      <trkpt lat="42.51488" lon="2.11181">
        <ele>1612.8</ele>
      </trkpt>
      <trkpt lat="42.51486" lon="2.11193">
        <ele>1611.7</ele>
      </trkpt>
      <trkpt lat="42.51484" lon="2.11201">
        <ele>1610.9</ele>
      </trkpt>
      <trkpt lat="42.51484" lon="2.11208">
        <ele>1610.6</ele>
      </trkpt>
      <trkpt lat="42.51484" lon="2.11214">
        <ele>1610.4</ele>
      </trkpt>
      <trkpt lat="42.51484" lon="2.11219">
        <ele>1610.2</ele>
      </trkpt>
      <trkpt lat="42.51484" lon="2.11225">
        <ele>1610</ele>
      </trkpt>
      <trkpt lat="42.51485" lon="2.1123">
        <ele>1610.2</ele>
      </trkpt>
      <trkpt lat="42.51486" lon="2.11232">
        <ele>1610.4</ele>
      </trkpt>
      <trkpt lat="42.51486" lon="2.11235">
        <ele>1610.3</ele>
      </trkpt>
      <trkpt lat="42.5149" lon="2.11244">
        <ele>1611.2</ele>
      </trkpt>
      <trkpt lat="42.51509" lon="2.11284">
        <ele>1615</ele>
      </trkpt>
      <trkpt lat="42.51518" lon="2.11306">
        <ele>1615.9</ele>
      </trkpt>
      <trkpt lat="42.5152" lon="2.11313">
        <ele>1616</ele>
      </trkpt>
      <trkpt lat="42.51521" lon="2.11315">
        <ele>1616.1</ele>
      </trkpt>
      <trkpt lat="42.51529" lon="2.11332">
        <ele>1616.6</ele>
      </trkpt>
      <trkpt lat="42.51546" lon="2.11369">
        <ele>1619.2</ele>
      </trkpt>
      <trkpt lat="42.51552" lon="2.11383">
        <ele>1619.7</ele>
      </trkpt>
      <trkpt lat="42.51556" lon="2.11392">
        <ele>1620</ele>
      </trkpt>
      <trkpt lat="42.51564" lon="2.11408">
        <ele>1620.3</ele>
      </trkpt>
      <trkpt lat="42.51569" lon="2.11418">
        <ele>1620.3</ele>
      </trkpt>
      <trkpt lat="42.51574" lon="2.11425">
        <ele>1620.6</ele>
      </trkpt>
      <trkpt lat="42.51575" lon="2.11426">
        <ele>1620.6</ele>
      </trkpt>
      <trkpt lat="42.51579" lon="2.11431">
        <ele>1620.8</ele>
      </trkpt>
      <trkpt lat="42.51583" lon="2.11438">
        <ele>1621</ele>
      </trkpt>
      <trkpt lat="42.51589" lon="2.11444">
        <ele>1621</ele>
      </trkpt>
      <trkpt lat="42.51595" lon="2.1145">
        <ele>1620.9</ele>
      </trkpt>
      <trkpt lat="42.51601" lon="2.11456">
        <ele>1620.9</ele>
      </trkpt>
      <trkpt lat="42.51607" lon="2.11461">
        <ele>1620.9</ele>
      </trkpt>
      <trkpt lat="42.51618" lon="2.11469">
        <ele>1620.8</ele>
      </trkpt>
      <trkpt lat="42.51639" lon="2.11484">
        <ele>1620.9</ele>
      </trkpt>
      <trkpt lat="42.51645" lon="2.11488">
        <ele>1620.9</ele>
      </trkpt>
      <trkpt lat="42.51649" lon="2.11489">
        <ele>1620.9</ele>
      </trkpt>
      <trkpt lat="42.5174" lon="2.11553">
        <ele>1622.6</ele>
      </trkpt>
      <trkpt lat="42.51838" lon="2.11621">
        <ele>1619</ele>
      </trkpt>
      <trkpt lat="42.51933" lon="2.11687">
        <ele>1621.3</ele>
      </trkpt>
      <trkpt lat="42.51999" lon="2.11733">
        <ele>1624.8</ele>
      </trkpt>
      <trkpt lat="42.52017" lon="2.11745">
        <ele>1625.9</ele>
      </trkpt>
      <trkpt lat="42.52036" lon="2.1176">
        <ele>1627.3</ele>
      </trkpt>
      <trkpt lat="42.52052" lon="2.11773">
        <ele>1628.4</ele>
      </trkpt>
      <trkpt lat="42.52057" lon="2.11777">
        <ele>1628.6</ele>
      </trkpt>
      <trkpt lat="42.52063" lon="2.11784">
        <ele>1629</ele>
      </trkpt>
      <trkpt lat="42.52068" lon="2.11791">
        <ele>1629.3</ele>
      </trkpt>
      <trkpt lat="42.52074" lon="2.118">
        <ele>1629.7</ele>
      </trkpt>
      <trkpt lat="42.52085" lon="2.11815">
        <ele>1630.2</ele>
      </trkpt>
      <trkpt lat="42.52115" lon="2.1186">
        <ele>1632.6</ele>
      </trkpt>
      <trkpt lat="42.5216" lon="2.11928">
        <ele>1632.8</ele>
      </trkpt>
      <trkpt lat="42.52202" lon="2.11989">
        <ele>1637.5</ele>
      </trkpt>
      <trkpt lat="42.52235" lon="2.12038">
        <ele>1640.4</ele>
      </trkpt>
      <trkpt lat="42.52254" lon="2.12066">
        <ele>1641.8</ele>
      </trkpt>
      <trkpt lat="42.5226" lon="2.12075">
        <ele>1642.5</ele>
      </trkpt>
      <trkpt lat="42.52275" lon="2.12099">
        <ele>1643.8</ele>
      </trkpt>
      <trkpt lat="42.52286" lon="2.12115">
        <ele>1644.2</ele>
      </trkpt>
      <trkpt lat="42.52293" lon="2.12123">
        <ele>1644.5</ele>
      </trkpt>
      <trkpt lat="42.52302" lon="2.12132">
        <ele>1644.9</ele>
      </trkpt>
      <trkpt lat="42.52313" lon="2.12141">
        <ele>1645.4</ele>
      </trkpt>
      <trkpt lat="42.52322" lon="2.12149">
        <ele>1645.6</ele>
      </trkpt>
      <trkpt lat="42.52326" lon="2.12157">
        <ele>1645.3</ele>
      </trkpt>
      <trkpt lat="42.52327" lon="2.12158">
        <ele>1645.3</ele>
      </trkpt>
      <trkpt lat="42.52393" lon="2.12205">
        <ele>1647.2</ele>
      </trkpt>
      <trkpt lat="42.52401" lon="2.12208">
        <ele>1648</ele>
      </trkpt>
      <trkpt lat="42.52421" lon="2.12223">
        <ele>1649.5</ele>
      </trkpt>
      <trkpt lat="42.52444" lon="2.12242">
        <ele>1651.1</ele>
      </trkpt>
      <trkpt lat="42.52455" lon="2.12251">
        <ele>1652</ele>
      </trkpt>
      <trkpt lat="42.52464" lon="2.12257">
        <ele>1652.8</ele>
      </trkpt>
      <trkpt lat="42.5247" lon="2.12261">
        <ele>1653.3</ele>
      </trkpt>
      <trkpt lat="42.52476" lon="2.12265">
        <ele>1653.8</ele>
      </trkpt>
      <trkpt lat="42.52484" lon="2.12269">
        <ele>1654.6</ele>
      </trkpt>
      <trkpt lat="42.52492" lon="2.12273">
        <ele>1655.3</ele>
      </trkpt>
      <trkpt lat="42.52502" lon="2.12276">
        <ele>1656.2</ele>
      </trkpt>
      <trkpt lat="42.52508" lon="2.12279">
        <ele>1656.4</ele>
      </trkpt>
      <trkpt lat="42.52512" lon="2.12279">
        <ele>1656.6</ele>
      </trkpt>
      <trkpt lat="42.52517" lon="2.12278">
        <ele>1656.9</ele>
      </trkpt>
      <trkpt lat="42.52523" lon="2.12278">
        <ele>1657.3</ele>
      </trkpt>
      <trkpt lat="42.52531" lon="2.12276">
        <ele>1657.9</ele>
      </trkpt>
      <trkpt lat="42.52537" lon="2.12275">
        <ele>1658.4</ele>
      </trkpt>
      <trkpt lat="42.52543" lon="2.12275">
        <ele>1658.7</ele>
      </trkpt>
      <trkpt lat="42.52563" lon="2.12277">
        <ele>1659.6</ele>
      </trkpt>
      <trkpt lat="42.52569" lon="2.12279">
        <ele>1659.7</ele>
      </trkpt>
      <trkpt lat="42.52577" lon="2.12282">
        <ele>1659.7</ele>
      </trkpt>
      <trkpt lat="42.52585" lon="2.12285">
        <ele>1659.6</ele>
      </trkpt>
      <trkpt lat="42.52618" lon="2.12298">
        <ele>1659.4</ele>
      </trkpt>
      <trkpt lat="42.52632" lon="2.12302">
        <ele>1659.6</ele>
      </trkpt>
      <trkpt lat="42.5264" lon="2.12303">
        <ele>1659.9</ele>
      </trkpt>
      <trkpt lat="42.52646" lon="2.12303">
        <ele>1660.2</ele>
      </trkpt>
      <trkpt lat="42.52652" lon="2.12303">
        <ele>1660.6</ele>
      </trkpt>
      <trkpt lat="42.52658" lon="2.12301">
        <ele>1661.2</ele>
      </trkpt>
      <trkpt lat="42.52679" lon="2.12294">
        <ele>1662.8</ele>
      </trkpt>
      <trkpt lat="42.52705" lon="2.12283">
        <ele>1664.5</ele>
      </trkpt>
      <trkpt lat="42.5272" lon="2.12277">
        <ele>1665.3</ele>
      </trkpt>
      <trkpt lat="42.52729" lon="2.12273">
        <ele>1665.8</ele>
      </trkpt>
      <trkpt lat="42.52736" lon="2.1227">
        <ele>1666.1</ele>
      </trkpt>
      <trkpt lat="42.5274" lon="2.12268">
        <ele>1666.3</ele>
      </trkpt>
      <trkpt lat="42.52749" lon="2.12265">
        <ele>1666.6</ele>
      </trkpt>
      <trkpt lat="42.52754" lon="2.12264">
        <ele>1667.1</ele>
      </trkpt>
      <trkpt lat="42.5276" lon="2.12263">
        <ele>1667.9</ele>
      </trkpt>
      <trkpt lat="42.52766" lon="2.12263">
        <ele>1668.6</ele>
      </trkpt>
      <trkpt lat="42.52773" lon="2.12263">
        <ele>1669.4</ele>
      </trkpt>
      <trkpt lat="42.52779" lon="2.12266">
        <ele>1669.8</ele>
      </trkpt>
      <trkpt lat="42.52785" lon="2.12269">
        <ele>1670.2</ele>
      </trkpt>
      <trkpt lat="42.52791" lon="2.12274">
        <ele>1670.3</ele>
      </trkpt>
      <trkpt lat="42.528" lon="2.12281">
        <ele>1670.6</ele>
      </trkpt>
      <trkpt lat="42.52809" lon="2.1229">
        <ele>1670.6</ele>
      </trkpt>
      <trkpt lat="42.52823" lon="2.12303">
        <ele>1670.6</ele>
      </trkpt>
      <trkpt lat="42.52842" lon="2.1232">
        <ele>1670.9</ele>
      </trkpt>
      <trkpt lat="42.52851" lon="2.12328">
        <ele>1671.2</ele>
      </trkpt>
      <trkpt lat="42.52857" lon="2.12333">
        <ele>1671.4</ele>
      </trkpt>
      <trkpt lat="42.52867" lon="2.12338">
        <ele>1672.8</ele>
      </trkpt>
      <trkpt lat="42.52874" lon="2.12342">
        <ele>1673.8</ele>
      </trkpt>
      <trkpt lat="42.5288" lon="2.12344">
        <ele>1674.7</ele>
      </trkpt>
      <trkpt lat="42.52887" lon="2.12347">
        <ele>1675.7</ele>
      </trkpt>
      <trkpt lat="42.52894" lon="2.1235">
        <ele>1676.8</ele>
      </trkpt>
      <trkpt lat="42.52899" lon="2.12353">
        <ele>1677.5</ele>
      </trkpt>
      <trkpt lat="42.52903" lon="2.12357">
        <ele>1678.2</ele>
      </trkpt>
      <trkpt lat="42.52907" lon="2.12361">
        <ele>1678.8</ele>
      </trkpt>
      <trkpt lat="42.52909" lon="2.12367">
        <ele>1679.2</ele>
      </trkpt>
      <trkpt lat="42.52912" lon="2.12374">
        <ele>1679.7</ele>
      </trkpt>
      <trkpt lat="42.52912" lon="2.12377">
        <ele>1679.8</ele>
      </trkpt>
      <trkpt lat="42.52912" lon="2.12381">
        <ele>1679.8</ele>
      </trkpt>
      <trkpt lat="42.52912" lon="2.12388">
        <ele>1679.9</ele>
      </trkpt>
      <trkpt lat="42.52911" lon="2.12394">
        <ele>1679.8</ele>
      </trkpt>
      <trkpt lat="42.5291" lon="2.124">
        <ele>1679.6</ele>
      </trkpt>
      <trkpt lat="42.52905" lon="2.12408">
        <ele>1678.8</ele>
      </trkpt>
      <trkpt lat="42.52892" lon="2.12429">
        <ele>1677.9</ele>
      </trkpt>
      <trkpt lat="42.52887" lon="2.12437">
        <ele>1677.8</ele>
      </trkpt>
      <trkpt lat="42.52884" lon="2.12445">
        <ele>1678.1</ele>
      </trkpt>
      <trkpt lat="42.52881" lon="2.12451">
        <ele>1678.1</ele>
      </trkpt>
      <trkpt lat="42.52879" lon="2.12458">
        <ele>1678.3</ele>
      </trkpt>
      <trkpt lat="42.52877" lon="2.12465">
        <ele>1678.6</ele>
      </trkpt>
      <trkpt lat="42.52876" lon="2.12472">
        <ele>1679</ele>
      </trkpt>
      <trkpt lat="42.52875" lon="2.12476">
        <ele>1679.2</ele>
      </trkpt>
      <trkpt lat="42.52874" lon="2.12483">
        <ele>1679.6</ele>
      </trkpt>
      <trkpt lat="42.52874" lon="2.12489">
        <ele>1680.2</ele>
      </trkpt>
      <trkpt lat="42.52874" lon="2.12496">
        <ele>1680.9</ele>
      </trkpt>
      <trkpt lat="42.52875" lon="2.12503">
        <ele>1681.4</ele>
      </trkpt>
      <trkpt lat="42.52876" lon="2.12511">
        <ele>1681.4</ele>
      </trkpt>
      <trkpt lat="42.52877" lon="2.12517">
        <ele>1681.5</ele>
      </trkpt>
      <trkpt lat="42.52878" lon="2.12524">
        <ele>1681.5</ele>
      </trkpt>
      <trkpt lat="42.5288" lon="2.12531">
        <ele>1681.8</ele>
      </trkpt>
      <trkpt lat="42.52883" lon="2.12537">
        <ele>1682.4</ele>
      </trkpt>
      <trkpt lat="42.52886" lon="2.12544">
        <ele>1682.9</ele>
      </trkpt>
      <trkpt lat="42.5289" lon="2.1255">
        <ele>1683.7</ele>
      </trkpt>
      <trkpt lat="42.52894" lon="2.12556">
        <ele>1684.5</ele>
      </trkpt>
      <trkpt lat="42.52904" lon="2.12568">
        <ele>1686.5</ele>
      </trkpt>
      <trkpt lat="42.52913" lon="2.12579">
        <ele>1688.3</ele>
      </trkpt>
      <trkpt lat="42.52917" lon="2.12584">
        <ele>1689</ele>
      </trkpt>
      <trkpt lat="42.52921" lon="2.12589">
        <ele>1689.4</ele>
      </trkpt>
      <trkpt lat="42.52924" lon="2.12594">
        <ele>1689.7</ele>
      </trkpt>
      <trkpt lat="42.52927" lon="2.12599">
        <ele>1690</ele>
      </trkpt>
      <trkpt lat="42.5293" lon="2.12605">
        <ele>1690.2</ele>
      </trkpt>
      <trkpt lat="42.52933" lon="2.12612">
        <ele>1690.5</ele>
      </trkpt>
      <trkpt lat="42.52936" lon="2.12618">
        <ele>1690.7</ele>
      </trkpt>
      <trkpt lat="42.52939" lon="2.12626">
        <ele>1691</ele>
      </trkpt>
      <trkpt lat="42.52943" lon="2.12635">
        <ele>1691.3</ele>
      </trkpt>
      <trkpt lat="42.5295" lon="2.12658">
        <ele>1691.8</ele>
      </trkpt>
      <trkpt lat="42.52956" lon="2.12673">
        <ele>1692.6</ele>
      </trkpt>
      <trkpt lat="42.52959" lon="2.12682">
        <ele>1693</ele>
      </trkpt>
      <trkpt lat="42.52962" lon="2.1269">
        <ele>1693.4</ele>
      </trkpt>
      <trkpt lat="42.52965" lon="2.12696">
        <ele>1693.7</ele>
      </trkpt>
      <trkpt lat="42.52967" lon="2.12701">
        <ele>1694</ele>
      </trkpt>
      <trkpt lat="42.52971" lon="2.12709">
        <ele>1694.3</ele>
      </trkpt>
      <trkpt lat="42.52976" lon="2.12716">
        <ele>1694.8</ele>
      </trkpt>
      <trkpt lat="42.5299" lon="2.12726">
        <ele>1696.1</ele>
      </trkpt>
      <trkpt lat="42.53001" lon="2.12731">
        <ele>1696.9</ele>
      </trkpt>
      <trkpt lat="42.53011" lon="2.12734">
        <ele>1696.2</ele>
      </trkpt>
      <trkpt lat="42.53021" lon="2.12733">
        <ele>1695.7</ele>
      </trkpt>
      <trkpt lat="42.53031" lon="2.12731">
        <ele>1695.3</ele>
      </trkpt>
      <trkpt lat="42.53043" lon="2.12725">
        <ele>1695.2</ele>
      </trkpt>
      <trkpt lat="42.53077" lon="2.12696">
        <ele>1697.2</ele>
      </trkpt>
      <trkpt lat="42.53084" lon="2.12691">
        <ele>1697.8</ele>
      </trkpt>
      <trkpt lat="42.5309" lon="2.12687">
        <ele>1698.2</ele>
      </trkpt>
      <trkpt lat="42.53096" lon="2.12685">
        <ele>1698.3</ele>
      </trkpt>
      <trkpt lat="42.53105" lon="2.12683">
        <ele>1698.4</ele>
      </trkpt>
      <trkpt lat="42.53128" lon="2.12684">
        <ele>1697.8</ele>
      </trkpt>
      <trkpt lat="42.53136" lon="2.12684">
        <ele>1697.6</ele>
      </trkpt>
      <trkpt lat="42.53144" lon="2.12681">
        <ele>1697.8</ele>
      </trkpt>
      <trkpt lat="42.53152" lon="2.12677">
        <ele>1698.1</ele>
      </trkpt>
      <trkpt lat="42.53159" lon="2.12671">
        <ele>1698.7</ele>
      </trkpt>
      <trkpt lat="42.53165" lon="2.12662">
        <ele>1699.3</ele>
      </trkpt>
      <trkpt lat="42.5317" lon="2.1265">
        <ele>1700</ele>
      </trkpt>
      <trkpt lat="42.53183" lon="2.12611">
        <ele>1702</ele>
      </trkpt>
      <trkpt lat="42.53191" lon="2.12603">
        <ele>1702.2</ele>
      </trkpt>
      <trkpt lat="42.53202" lon="2.1259">
        <ele>1702.5</ele>
      </trkpt>
      <trkpt lat="42.53213" lon="2.12581">
        <ele>1702.5</ele>
      </trkpt>
      <trkpt lat="42.53232" lon="2.12574">
        <ele>1702.2</ele>
      </trkpt>
      <trkpt lat="42.53238" lon="2.12572">
        <ele>1702.2</ele>
      </trkpt>
      <trkpt lat="42.53238" lon="2.12572">
        <ele>1702.2</ele>
      </trkpt>
      <trkpt lat="42.53247" lon="2.12604">
        <ele>1700.8</ele>
      </trkpt>
      <trkpt lat="42.53251" lon="2.12621">
        <ele>1700.6</ele>
      </trkpt>
      <trkpt lat="42.53252" lon="2.12633">
        <ele>1700.5</ele>
      </trkpt>
      <trkpt lat="42.53252" lon="2.1265">
        <ele>1700.3</ele>
      </trkpt>
      <trkpt lat="42.53251" lon="2.12663">
        <ele>1700.1</ele>
      </trkpt>
      <trkpt lat="42.5325" lon="2.12673">
        <ele>1700.2</ele>
      </trkpt>
      <trkpt lat="42.53248" lon="2.12684">
        <ele>1700.5</ele>
      </trkpt>
      <trkpt lat="42.53242" lon="2.127">
        <ele>1700.6</ele>
      </trkpt>
      <trkpt lat="42.53198" lon="2.12816">
        <ele>1692.1</ele>
      </trkpt>
      <trkpt lat="42.53193" lon="2.1283">
        <ele>1690.4</ele>
      </trkpt>
      <trkpt lat="42.53192" lon="2.12839">
        <ele>1690.3</ele>
      </trkpt>
      <trkpt lat="42.53191" lon="2.12849">
        <ele>1690.4</ele>
      </trkpt>
      <trkpt lat="42.5319" lon="2.12858">
        <ele>1690.6</ele>
      </trkpt>
      <trkpt lat="42.53191" lon="2.12867">
        <ele>1691.1</ele>
      </trkpt>
      <trkpt lat="42.53193" lon="2.12875">
        <ele>1691.8</ele>
      </trkpt>
      <trkpt lat="42.53196" lon="2.12884">
        <ele>1692.5</ele>
      </trkpt>
      <trkpt lat="42.53201" lon="2.12896">
        <ele>1693.5</ele>
      </trkpt>
      <trkpt lat="42.53208" lon="2.12909">
        <ele>1694.4</ele>
      </trkpt>
      <trkpt lat="42.53216" lon="2.12919">
        <ele>1695</ele>
      </trkpt>
      <trkpt lat="42.53224" lon="2.12927">
        <ele>1695.2</ele>
      </trkpt>
      <trkpt lat="42.53232" lon="2.12931">
        <ele>1695.4</ele>
      </trkpt>
      <trkpt lat="42.53322" lon="2.12979">
        <ele>1696.6</ele>
      </trkpt>
      <trkpt lat="42.53336" lon="2.12987">
        <ele>1696.6</ele>
      </trkpt>
      <trkpt lat="42.53344" lon="2.12992">
        <ele>1696.8</ele>
      </trkpt>
      <trkpt lat="42.53358" lon="2.13009">
        <ele>1697.5</ele>
      </trkpt>
      <trkpt lat="42.5337" lon="2.13026">
        <ele>1698.8</ele>
      </trkpt>
      <trkpt lat="42.53377" lon="2.13039">
        <ele>1699.7</ele>
      </trkpt>
      <trkpt lat="42.53384" lon="2.13055">
        <ele>1700.5</ele>
      </trkpt>
      <trkpt lat="42.53389" lon="2.13072">
        <ele>1701.2</ele>
      </trkpt>
      <trkpt lat="42.53393" lon="2.13093">
        <ele>1701.9</ele>
      </trkpt>
      <trkpt lat="42.53395" lon="2.13113">
        <ele>1702.4</ele>
      </trkpt>
      <trkpt lat="42.53401" lon="2.13191">
        <ele>1704.8</ele>
      </trkpt>
      <trkpt lat="42.53402" lon="2.13213">
        <ele>1705.9</ele>
      </trkpt>
      <trkpt lat="42.53401" lon="2.13235">
        <ele>1706.8</ele>
      </trkpt>
      <trkpt lat="42.53389" lon="2.134">
        <ele>1713.8</ele>
      </trkpt>
      <trkpt lat="42.53386" lon="2.13418">
        <ele>1714.7</ele>
      </trkpt>
      <trkpt lat="42.53382" lon="2.13431">
        <ele>1715.6</ele>
      </trkpt>
      <trkpt lat="42.53361" lon="2.13479">
        <ele>1718.7</ele>
      </trkpt>
      <trkpt lat="42.53355" lon="2.13489">
        <ele>1719.4</ele>
      </trkpt>
      <trkpt lat="42.53348" lon="2.13499">
        <ele>1720.1</ele>
      </trkpt>
      <trkpt lat="42.53311" lon="2.13544">
        <ele>1725.3</ele>
      </trkpt>
      <trkpt lat="42.53299" lon="2.13557">
        <ele>1727.1</ele>
      </trkpt>
      <trkpt lat="42.53287" lon="2.13567">
        <ele>1728.4</ele>
      </trkpt>
      <trkpt lat="42.53279" lon="2.13572">
        <ele>1729</ele>
      </trkpt>
      <trkpt lat="42.53252" lon="2.13585">
        <ele>1730.5</ele>
      </trkpt>
      <trkpt lat="42.53239" lon="2.13588">
        <ele>1730.9</ele>
      </trkpt>
      <trkpt lat="42.53218" lon="2.13592">
        <ele>1731.4</ele>
      </trkpt>
      <trkpt lat="42.53208" lon="2.13596">
        <ele>1732.1</ele>
      </trkpt>
      <trkpt lat="42.532" lon="2.136">
        <ele>1732.8</ele>
      </trkpt>
      <trkpt lat="42.53143" lon="2.13633">
        <ele>1739</ele>
      </trkpt>
      <trkpt lat="42.53126" lon="2.13642">
        <ele>1740.9</ele>
      </trkpt>
      <trkpt lat="42.53073" lon="2.1366">
        <ele>1744.3</ele>
      </trkpt>
      <trkpt lat="42.53063" lon="2.13662">
        <ele>1743.9</ele>
      </trkpt>
      <trkpt lat="42.5305" lon="2.13664">
        <ele>1743.2</ele>
      </trkpt>
      <trkpt lat="42.53036" lon="2.13668">
        <ele>1742.8</ele>
      </trkpt>
      <trkpt lat="42.53016" lon="2.13673">
        <ele>1742</ele>
      </trkpt>
      <trkpt lat="42.53004" lon="2.13676">
        <ele>1741.5</ele>
      </trkpt>
      <trkpt lat="42.52998" lon="2.13678">
        <ele>1741.5</ele>
      </trkpt>
      <trkpt lat="42.52996" lon="2.13679">
        <ele>1741.6</ele>
      </trkpt>
      <trkpt lat="42.52992" lon="2.13681">
        <ele>1741.8</ele>
      </trkpt>
      <trkpt lat="42.52989" lon="2.13683">
        <ele>1742.1</ele>
      </trkpt>
      <trkpt lat="42.52985" lon="2.13687">
        <ele>1742.7</ele>
      </trkpt>
      <trkpt lat="42.52981" lon="2.13691">
        <ele>1743.4</ele>
      </trkpt>
      <trkpt lat="42.52972" lon="2.13701">
        <ele>1744.9</ele>
      </trkpt>
      <trkpt lat="42.52961" lon="2.13717">
        <ele>1747.5</ele>
      </trkpt>
      <trkpt lat="42.52951" lon="2.13729">
        <ele>1749.1</ele>
      </trkpt>
      <trkpt lat="42.52943" lon="2.13741">
        <ele>1750.8</ele>
      </trkpt>
      <trkpt lat="42.52938" lon="2.13748">
        <ele>1751.7</ele>
      </trkpt>
      <trkpt lat="42.52935" lon="2.13752">
        <ele>1752.1</ele>
      </trkpt>
      <trkpt lat="42.52932" lon="2.13756">
        <ele>1752.6</ele>
      </trkpt>
      <trkpt lat="42.52929" lon="2.1376">
        <ele>1753.1</ele>
      </trkpt>
      <trkpt lat="42.52926" lon="2.13762">
        <ele>1753.2</ele>
      </trkpt>
      <trkpt lat="42.52923" lon="2.13766">
        <ele>1753.7</ele>
      </trkpt>
      <trkpt lat="42.52918" lon="2.13771">
        <ele>1754.2</ele>
      </trkpt>
      <trkpt lat="42.52912" lon="2.13776">
        <ele>1754.6</ele>
      </trkpt>
      <trkpt lat="42.52884" lon="2.13802">
        <ele>1757.1</ele>
      </trkpt>
      <trkpt lat="42.52857" lon="2.13829">
        <ele>1759.5</ele>
      </trkpt>
      <trkpt lat="42.52845" lon="2.13842">
        <ele>1760.4</ele>
      </trkpt>
      <trkpt lat="42.5284" lon="2.13848">
        <ele>1760.7</ele>
      </trkpt>
      <trkpt lat="42.52837" lon="2.13852">
        <ele>1760.9</ele>
      </trkpt>
      <trkpt lat="42.52835" lon="2.13858">
        <ele>1761.5</ele>
      </trkpt>
      <trkpt lat="42.52833" lon="2.13863">
        <ele>1761.8</ele>
      </trkpt>
      <trkpt lat="42.52832" lon="2.13867">
        <ele>1762.1</ele>
      </trkpt>
      <trkpt lat="42.52832" lon="2.13872">
        <ele>1762.8</ele>
      </trkpt>
      <trkpt lat="42.52832" lon="2.1388">
        <ele>1763.9</ele>
      </trkpt>
      <trkpt lat="42.52832" lon="2.13888">
        <ele>1764.9</ele>
      </trkpt>
      <trkpt lat="42.52834" lon="2.13911">
        <ele>1768.4</ele>
      </trkpt>
      <trkpt lat="42.52833" lon="2.13921">
        <ele>1769.4</ele>
      </trkpt>
      <trkpt lat="42.52833" lon="2.13928">
        <ele>1770.3</ele>
      </trkpt>
      <trkpt lat="42.52832" lon="2.13935">
        <ele>1770.9</ele>
      </trkpt>
      <trkpt lat="42.5283" lon="2.13944">
        <ele>1771.5</ele>
      </trkpt>
      <trkpt lat="42.52829" lon="2.1395">
        <ele>1772</ele>
      </trkpt>
      <trkpt lat="42.52828" lon="2.13956">
        <ele>1772.5</ele>
      </trkpt>
      <trkpt lat="42.52826" lon="2.13963">
        <ele>1773</ele>
      </trkpt>
      <trkpt lat="42.52824" lon="2.13969">
        <ele>1773.3</ele>
      </trkpt>
      <trkpt lat="42.52821" lon="2.13974">
        <ele>1773.3</ele>
      </trkpt>
      <trkpt lat="42.52819" lon="2.13979">
        <ele>1773.5</ele>
      </trkpt>
      <trkpt lat="42.52816" lon="2.13984">
        <ele>1773.6</ele>
      </trkpt>
      <trkpt lat="42.52813" lon="2.13988">
        <ele>1773.5</ele>
      </trkpt>
      <trkpt lat="42.52811" lon="2.13992">
        <ele>1773.6</ele>
      </trkpt>
      <trkpt lat="42.52805" lon="2.14001">
        <ele>1773.7</ele>
      </trkpt>
      <trkpt lat="42.528" lon="2.14007">
        <ele>1773.7</ele>
      </trkpt>
      <trkpt lat="42.52797" lon="2.14011">
        <ele>1773.8</ele>
      </trkpt>
      <trkpt lat="42.52795" lon="2.14015">
        <ele>1774.1</ele>
      </trkpt>
      <trkpt lat="42.52793" lon="2.1402">
        <ele>1774.5</ele>
      </trkpt>
      <trkpt lat="42.5279" lon="2.14024">
        <ele>1774.6</ele>
      </trkpt>
      <trkpt lat="42.52789" lon="2.14029">
        <ele>1775.2</ele>
      </trkpt>
      <trkpt lat="42.52787" lon="2.14037">
        <ele>1776.1</ele>
      </trkpt>
      <trkpt lat="42.52784" lon="2.14049">
        <ele>1777.4</ele>
      </trkpt>
      <trkpt lat="42.52779" lon="2.14078">
        <ele>1781.1</ele>
      </trkpt>
      <trkpt lat="42.52775" lon="2.14099">
        <ele>1783.2</ele>
      </trkpt>
      <trkpt lat="42.52768" lon="2.14134">
        <ele>1786.4</ele>
      </trkpt>
      <trkpt lat="42.52764" lon="2.14155">
        <ele>1788.3</ele>
      </trkpt>
      <trkpt lat="42.52761" lon="2.14164">
        <ele>1788.9</ele>
      </trkpt>
      <trkpt lat="42.52758" lon="2.14173">
        <ele>1789.6</ele>
      </trkpt>
      <trkpt lat="42.52751" lon="2.14187">
        <ele>1790.4</ele>
      </trkpt>
      <trkpt lat="42.52747" lon="2.14195">
        <ele>1791.7</ele>
      </trkpt>
      <trkpt lat="42.52742" lon="2.14202">
        <ele>1793.2</ele>
      </trkpt>
      <trkpt lat="42.52738" lon="2.14208">
        <ele>1794.5</ele>
      </trkpt>
      <trkpt lat="42.52734" lon="2.14215">
        <ele>1796</ele>
      </trkpt>
      <trkpt lat="42.52731" lon="2.14222">
        <ele>1797.4</ele>
      </trkpt>
      <trkpt lat="42.52729" lon="2.1423">
        <ele>1798.8</ele>
      </trkpt>
      <trkpt lat="42.52729" lon="2.14237">
        <ele>1799.9</ele>
      </trkpt>
      <trkpt lat="42.5273" lon="2.14243">
        <ele>1800.8</ele>
      </trkpt>
      <trkpt lat="42.52733" lon="2.14248">
        <ele>1801.3</ele>
      </trkpt>
      <trkpt lat="42.52737" lon="2.14252">
        <ele>1801.6</ele>
      </trkpt>
      <trkpt lat="42.5274" lon="2.14253">
        <ele>1801.4</ele>
      </trkpt>
      <trkpt lat="42.52744" lon="2.14254">
        <ele>1801.2</ele>
      </trkpt>
      <trkpt lat="42.52746" lon="2.14254">
        <ele>1801</ele>
      </trkpt>
      <trkpt lat="42.52749" lon="2.14253">
        <ele>1800.6</ele>
      </trkpt>
      <trkpt lat="42.52751" lon="2.14252">
        <ele>1800.5</ele>
      </trkpt>
      <trkpt lat="42.52755" lon="2.14248">
        <ele>1800.5</ele>
      </trkpt>
      <trkpt lat="42.52758" lon="2.14243">
        <ele>1800.2</ele>
      </trkpt>
      <trkpt lat="42.52762" lon="2.14238">
        <ele>1800.1</ele>
      </trkpt>
      <trkpt lat="42.52765" lon="2.14231">
        <ele>1799.5</ele>
      </trkpt>
      <trkpt lat="42.52768" lon="2.14224">
        <ele>1799</ele>
      </trkpt>
      <trkpt lat="42.52771" lon="2.14215">
        <ele>1798.2</ele>
      </trkpt>
      <trkpt lat="42.52774" lon="2.14207">
        <ele>1797.6</ele>
      </trkpt>
      <trkpt lat="42.52777" lon="2.14198">
        <ele>1796.9</ele>
      </trkpt>
      <trkpt lat="42.5278" lon="2.14191">
        <ele>1796.5</ele>
      </trkpt>
      <trkpt lat="42.52782" lon="2.14183">
        <ele>1795.8</ele>
      </trkpt>
      <trkpt lat="42.52788" lon="2.14169">
        <ele>1795.1</ele>
      </trkpt>
      <trkpt lat="42.52795" lon="2.14157">
        <ele>1794.9</ele>
      </trkpt>
      <trkpt lat="42.52798" lon="2.14153">
        <ele>1795</ele>
      </trkpt>
      <trkpt lat="42.52802" lon="2.14151">
        <ele>1795.5</ele>
      </trkpt>
      <trkpt lat="42.52807" lon="2.14149">
        <ele>1796.3</ele>
      </trkpt>
      <trkpt lat="42.52811" lon="2.14148">
        <ele>1797</ele>
      </trkpt>
      <trkpt lat="42.52816" lon="2.14148">
        <ele>1798</ele>
      </trkpt>
      <trkpt lat="42.5282" lon="2.14149">
        <ele>1799</ele>
      </trkpt>
      <trkpt lat="42.5283" lon="2.14149">
        <ele>1801</ele>
      </trkpt>
      <trkpt lat="42.52838" lon="2.14151">
        <ele>1802.9</ele>
      </trkpt>
      <trkpt lat="42.52847" lon="2.14151">
        <ele>1804.7</ele>
      </trkpt>
      <trkpt lat="42.52856" lon="2.14149">
        <ele>1806.3</ele>
      </trkpt>
      <trkpt lat="42.52865" lon="2.14144">
        <ele>1807.5</ele>
      </trkpt>
      <trkpt lat="42.52886" lon="2.14126">
        <ele>1809.4</ele>
      </trkpt>
      <trkpt lat="42.5293" lon="2.14086">
        <ele>1812.3</ele>
      </trkpt>
      <trkpt lat="42.52945" lon="2.14078">
        <ele>1813.3</ele>
      </trkpt>
      <trkpt lat="42.52958" lon="2.14072">
        <ele>1814.2</ele>
      </trkpt>
      <trkpt lat="42.52971" lon="2.14069">
        <ele>1815.5</ele>
      </trkpt>
      <trkpt lat="42.52984" lon="2.14067">
        <ele>1816.9</ele>
      </trkpt>
      <trkpt lat="42.53038" lon="2.14064">
        <ele>1824.3</ele>
      </trkpt>
      <trkpt lat="42.53051" lon="2.14063">
        <ele>1826.1</ele>
      </trkpt>
      <trkpt lat="42.5306" lon="2.1406">
        <ele>1827</ele>
      </trkpt>
      <trkpt lat="42.53068" lon="2.14055">
        <ele>1827.2</ele>
      </trkpt>
      <trkpt lat="42.53077" lon="2.14048">
        <ele>1827.3</ele>
      </trkpt>
      <trkpt lat="42.5309" lon="2.14034">
        <ele>1826.8</ele>
      </trkpt>
      <trkpt lat="42.53094" lon="2.14026">
        <ele>1826</ele>
      </trkpt>
      <trkpt lat="42.53103" lon="2.14007">
        <ele>1824.1</ele>
      </trkpt>
      <trkpt lat="42.53108" lon="2.14001">
        <ele>1823.9</ele>
      </trkpt>
      <trkpt lat="42.53116" lon="2.13995">
        <ele>1824.3</ele>
      </trkpt>
      <trkpt lat="42.53123" lon="2.13991">
        <ele>1824.8</ele>
      </trkpt>
      <trkpt lat="42.53134" lon="2.13989">
        <ele>1826.4</ele>
      </trkpt>
      <trkpt lat="42.53154" lon="2.1399">
        <ele>1830.4</ele>
      </trkpt>
      <trkpt lat="42.53164" lon="2.13989">
        <ele>1832</ele>
      </trkpt>
      <trkpt lat="42.53185" lon="2.13984">
        <ele>1832.5</ele>
      </trkpt>
      <trkpt lat="42.532" lon="2.13982">
        <ele>1833</ele>
      </trkpt>
      <trkpt lat="42.53217" lon="2.13982">
        <ele>1834.1</ele>
      </trkpt>
      <trkpt lat="42.53228" lon="2.13985">
        <ele>1835.6</ele>
      </trkpt>
      <trkpt lat="42.5325" lon="2.13996">
        <ele>1839.9</ele>
      </trkpt>
      <trkpt lat="42.53268" lon="2.14009">
        <ele>1843.4</ele>
      </trkpt>
      <trkpt lat="42.53278" lon="2.14014">
        <ele>1844.8</ele>
      </trkpt>
      <trkpt lat="42.53285" lon="2.14016">
        <ele>1845.5</ele>
      </trkpt>
      <trkpt lat="42.53294" lon="2.14016">
        <ele>1845.8</ele>
      </trkpt>
      <trkpt lat="42.53304" lon="2.14014">
        <ele>1845.7</ele>
      </trkpt>
      <trkpt lat="42.53332" lon="2.14004">
        <ele>1844</ele>
      </trkpt>
      <trkpt lat="42.5334" lon="2.14003">
        <ele>1843.9</ele>
      </trkpt>
      <trkpt lat="42.53352" lon="2.14003">
        <ele>1844</ele>
      </trkpt>
      <trkpt lat="42.53382" lon="2.14007">
        <ele>1845.4</ele>
      </trkpt>
      <trkpt lat="42.53398" lon="2.14013">
        <ele>1847.1</ele>
      </trkpt>
      <trkpt lat="42.53413" lon="2.1402">
        <ele>1849</ele>
      </trkpt>
      <trkpt lat="42.53435" lon="2.14035">
        <ele>1852.7</ele>
      </trkpt>
      <trkpt lat="42.53485" lon="2.14072">
        <ele>1860.1</ele>
      </trkpt>
      <trkpt lat="42.53496" lon="2.14083">
        <ele>1862.1</ele>
      </trkpt>
      <trkpt lat="42.53505" lon="2.14093">
        <ele>1863.4</ele>
      </trkpt>
      <trkpt lat="42.53515" lon="2.14106">
        <ele>1865.3</ele>
      </trkpt>
      <trkpt lat="42.53527" lon="2.14127">
        <ele>1867.6</ele>
      </trkpt>
      <trkpt lat="42.53535" lon="2.14141">
        <ele>1868.8</ele>
      </trkpt>
      <trkpt lat="42.53543" lon="2.14162">
        <ele>1870.2</ele>
      </trkpt>
      <trkpt lat="42.53551" lon="2.14181">
        <ele>1869.9</ele>
      </trkpt>
      <trkpt lat="42.53556" lon="2.14192">
        <ele>1869.4</ele>
      </trkpt>
      <trkpt lat="42.53564" lon="2.14203">
        <ele>1868.7</ele>
      </trkpt>
      <trkpt lat="42.5357" lon="2.14211">
        <ele>1868</ele>
      </trkpt>
      <trkpt lat="42.53577" lon="2.14216">
        <ele>1867.4</ele>
      </trkpt>
      <trkpt lat="42.53584" lon="2.14219">
        <ele>1866.9</ele>
      </trkpt>
      <trkpt lat="42.53612" lon="2.14229">
        <ele>1865.7</ele>
      </trkpt>
      <trkpt lat="42.53632" lon="2.14234">
        <ele>1864.6</ele>
      </trkpt>
      <trkpt lat="42.5364" lon="2.14235">
        <ele>1864.3</ele>
      </trkpt>
      <trkpt lat="42.53643" lon="2.14235">
        <ele>1864.2</ele>
      </trkpt>
      <trkpt lat="42.5365" lon="2.14235">
        <ele>1864</ele>
      </trkpt>
      <trkpt lat="42.53663" lon="2.14233">
        <ele>1863.9</ele>
      </trkpt>
      <trkpt lat="42.5367" lon="2.1423">
        <ele>1864.2</ele>
      </trkpt>
      <trkpt lat="42.53695" lon="2.14221">
        <ele>1864.9</ele>
      </trkpt>
      <trkpt lat="42.53705" lon="2.1422">
        <ele>1864.7</ele>
      </trkpt>
      <trkpt lat="42.5371" lon="2.14221">
        <ele>1864.3</ele>
      </trkpt>
      <trkpt lat="42.53721" lon="2.14225">
        <ele>1863.2</ele>
      </trkpt>
      <trkpt lat="42.53733" lon="2.14233">
        <ele>1861.5</ele>
      </trkpt>
      <trkpt lat="42.53751" lon="2.14248">
        <ele>1858.5</ele>
      </trkpt>
      <trkpt lat="42.53767" lon="2.14261">
        <ele>1858.3</ele>
      </trkpt>
      <trkpt lat="42.5378" lon="2.14275">
        <ele>1857.4</ele>
      </trkpt>
      <trkpt lat="42.53802" lon="2.14303">
        <ele>1854.2</ele>
      </trkpt>
      <trkpt lat="42.53808" lon="2.1431">
        <ele>1853.3</ele>
      </trkpt>
      <trkpt lat="42.53818" lon="2.14319">
        <ele>1852.2</ele>
      </trkpt>
      <trkpt lat="42.53871" lon="2.14356">
        <ele>1848.4</ele>
      </trkpt>
      <trkpt lat="42.53889" lon="2.14366">
        <ele>1847.6</ele>
      </trkpt>
      <trkpt lat="42.53893" lon="2.14368">
        <ele>1847.5</ele>
      </trkpt>
      <trkpt lat="42.53898" lon="2.1437">
        <ele>1847.4</ele>
      </trkpt>
      <trkpt lat="42.53915" lon="2.14374">
        <ele>1847.6</ele>
      </trkpt>
      <trkpt lat="42.53924" lon="2.14377">
        <ele>1848</ele>
      </trkpt>
      <trkpt lat="42.53931" lon="2.14382">
        <ele>1847.8</ele>
      </trkpt>
      <trkpt lat="42.53939" lon="2.1439">
        <ele>1847.1</ele>
      </trkpt>
      <trkpt lat="42.53988" lon="2.14455">
        <ele>1841.5</ele>
      </trkpt>
      <trkpt lat="42.54002" lon="2.1447">
        <ele>1840.1</ele>
      </trkpt>
      <trkpt lat="42.54017" lon="2.14481">
        <ele>1837.5</ele>
      </trkpt>
      <trkpt lat="42.54032" lon="2.14489">
        <ele>1835.5</ele>
      </trkpt>
      <trkpt lat="42.54058" lon="2.14498">
        <ele>1833</ele>
      </trkpt>
      <trkpt lat="42.54068" lon="2.145">
        <ele>1832.4</ele>
      </trkpt>
      <trkpt lat="42.54079" lon="2.14501">
        <ele>1831.9</ele>
      </trkpt>
      <trkpt lat="42.5409" lon="2.14499">
        <ele>1832.4</ele>
      </trkpt>
      <trkpt lat="42.54103" lon="2.14498">
        <ele>1832.8</ele>
      </trkpt>
      <trkpt lat="42.54111" lon="2.14499">
        <ele>1832.8</ele>
      </trkpt>
      <trkpt lat="42.54118" lon="2.14503">
        <ele>1832.3</ele>
      </trkpt>
      <trkpt lat="42.54124" lon="2.14506">
        <ele>1832</ele>
      </trkpt>
      <trkpt lat="42.54127" lon="2.14507">
        <ele>1831.9</ele>
      </trkpt>
      <trkpt lat="42.54137" lon="2.14517">
        <ele>1830.7</ele>
      </trkpt>
      <trkpt lat="42.54146" lon="2.14526">
        <ele>1829.7</ele>
      </trkpt>
      <trkpt lat="42.54152" lon="2.14534">
        <ele>1828.8</ele>
      </trkpt>
      <trkpt lat="42.54156" lon="2.14542">
        <ele>1827.9</ele>
      </trkpt>
      <trkpt lat="42.5416" lon="2.14551">
        <ele>1826.9</ele>
      </trkpt>
      <trkpt lat="42.5417" lon="2.1457">
        <ele>1824.7</ele>
      </trkpt>
      <trkpt lat="42.54174" lon="2.14577">
        <ele>1823.8</ele>
      </trkpt>
      <trkpt lat="42.5418" lon="2.14583">
        <ele>1823</ele>
      </trkpt>
      <trkpt lat="42.54189" lon="2.14594">
        <ele>1821</ele>
      </trkpt>
      <trkpt lat="42.5421" lon="2.14613">
        <ele>1817.7</ele>
      </trkpt>
      <trkpt lat="42.54218" lon="2.14618">
        <ele>1817</ele>
      </trkpt>
      <trkpt lat="42.54228" lon="2.14623">
        <ele>1816.3</ele>
      </trkpt>
      <trkpt lat="42.54235" lon="2.14625">
        <ele>1816.1</ele>
      </trkpt>
      <trkpt lat="42.5424" lon="2.14626">
        <ele>1816.1</ele>
      </trkpt>
      <trkpt lat="42.54255" lon="2.14627">
        <ele>1815.8</ele>
      </trkpt>
      <trkpt lat="42.54259" lon="2.14629">
        <ele>1815.2</ele>
      </trkpt>
      <trkpt lat="42.54263" lon="2.14631">
        <ele>1814.6</ele>
      </trkpt>
      <trkpt lat="42.54267" lon="2.14634">
        <ele>1813.9</ele>
      </trkpt>
      <trkpt lat="42.54271" lon="2.14638">
        <ele>1813.1</ele>
      </trkpt>
      <trkpt lat="42.54276" lon="2.14646">
        <ele>1811.8</ele>
      </trkpt>
      <trkpt lat="42.54285" lon="2.14665">
        <ele>1809.3</ele>
      </trkpt>
      <trkpt lat="42.5429" lon="2.14672">
        <ele>1808.2</ele>
      </trkpt>
      <trkpt lat="42.54293" lon="2.14677">
        <ele>1807.4</ele>
      </trkpt>
      <trkpt lat="42.54297" lon="2.14681">
        <ele>1806.8</ele>
      </trkpt>
      <trkpt lat="42.54302" lon="2.14685">
        <ele>1806.2</ele>
      </trkpt>
      <trkpt lat="42.54308" lon="2.14688">
        <ele>1805.8</ele>
      </trkpt>
      <trkpt lat="42.54314" lon="2.14692">
        <ele>1805.2</ele>
      </trkpt>
      <trkpt lat="42.5432" lon="2.14694">
        <ele>1805</ele>
      </trkpt>
      <trkpt lat="42.54324" lon="2.14695">
        <ele>1804.9</ele>
      </trkpt>
      <trkpt lat="42.5433" lon="2.14696">
        <ele>1804.8</ele>
      </trkpt>
      <trkpt lat="42.54334" lon="2.14697">
        <ele>1804.6</ele>
      </trkpt>
      <trkpt lat="42.54338" lon="2.14696">
        <ele>1804.2</ele>
      </trkpt>
      <trkpt lat="42.54342" lon="2.14695">
        <ele>1803.8</ele>
      </trkpt>
      <trkpt lat="42.54345" lon="2.14694">
        <ele>1803.5</ele>
      </trkpt>
      <trkpt lat="42.54349" lon="2.14691">
        <ele>1803.3</ele>
      </trkpt>
      <trkpt lat="42.54351" lon="2.14688">
        <ele>1803.4</ele>
      </trkpt>
      <trkpt lat="42.54354" lon="2.14683">
        <ele>1803.5</ele>
      </trkpt>
      <trkpt lat="42.54356" lon="2.14679">
        <ele>1803.7</ele>
      </trkpt>
      <trkpt lat="42.54357" lon="2.14675">
        <ele>1804</ele>
      </trkpt>
      <trkpt lat="42.54358" lon="2.1467">
        <ele>1804.4</ele>
      </trkpt>
      <trkpt lat="42.54358" lon="2.14665">
        <ele>1804.8</ele>
      </trkpt>
      <trkpt lat="42.54357" lon="2.14655">
        <ele>1805.3</ele>
      </trkpt>
      <trkpt lat="42.54356" lon="2.14647">
        <ele>1805.8</ele>
      </trkpt>
      <trkpt lat="42.54356" lon="2.14638">
        <ele>1806.1</ele>
      </trkpt>
      <trkpt lat="42.54355" lon="2.14629">
        <ele>1806.6</ele>
      </trkpt>
      <trkpt lat="42.54355" lon="2.14616">
        <ele>1807.1</ele>
      </trkpt>
      <trkpt lat="42.54355" lon="2.14595">
        <ele>1807.9</ele>
      </trkpt>
      <trkpt lat="42.54355" lon="2.1459">
        <ele>1808.1</ele>
      </trkpt>
      <trkpt lat="42.54356" lon="2.14581">
        <ele>1808.4</ele>
      </trkpt>
      <trkpt lat="42.54357" lon="2.14573">
        <ele>1808.5</ele>
      </trkpt>
      <trkpt lat="42.54359" lon="2.14568">
        <ele>1808.4</ele>
      </trkpt>
      <trkpt lat="42.54362" lon="2.14563">
        <ele>1808.1</ele>
      </trkpt>
      <trkpt lat="42.54365" lon="2.14561">
        <ele>1807.7</ele>
      </trkpt>
      <trkpt lat="42.54368" lon="2.1456">
        <ele>1807.3</ele>
      </trkpt>
      <trkpt lat="42.5437" lon="2.14561">
        <ele>1807</ele>
      </trkpt>
      <trkpt lat="42.54373" lon="2.14562">
        <ele>1806.5</ele>
      </trkpt>
      <trkpt lat="42.54375" lon="2.14564">
        <ele>1806.2</ele>
      </trkpt>
      <trkpt lat="42.54378" lon="2.14567">
        <ele>1805.8</ele>
      </trkpt>
      <trkpt lat="42.54379" lon="2.14571">
        <ele>1805.6</ele>
      </trkpt>
      <trkpt lat="42.54381" lon="2.14575">
        <ele>1805.3</ele>
      </trkpt>
      <trkpt lat="42.54381" lon="2.14582">
        <ele>1805.3</ele>
      </trkpt>
      <trkpt lat="42.54381" lon="2.14587">
        <ele>1805.1</ele>
      </trkpt>
      <trkpt lat="42.54377" lon="2.146">
        <ele>1805.1</ele>
      </trkpt>
      <trkpt lat="42.54374" lon="2.1461">
        <ele>1805</ele>
      </trkpt>
      <trkpt lat="42.54373" lon="2.14616">
        <ele>1804.9</ele>
      </trkpt>
      <trkpt lat="42.54372" lon="2.14624">
        <ele>1804.7</ele>
      </trkpt>
      <trkpt lat="42.54372" lon="2.14631">
        <ele>1804.4</ele>
      </trkpt>
      <trkpt lat="42.54372" lon="2.14636">
        <ele>1804.2</ele>
      </trkpt>
      <trkpt lat="42.54372" lon="2.14641">
        <ele>1804</ele>
      </trkpt>
      <trkpt lat="42.54373" lon="2.14645">
        <ele>1803.7</ele>
      </trkpt>
      <trkpt lat="42.54375" lon="2.1465">
        <ele>1803.2</ele>
      </trkpt>
      <trkpt lat="42.54375" lon="2.14652">
        <ele>1803.1</ele>
      </trkpt>
      <trkpt lat="42.5438" lon="2.14662">
        <ele>1802</ele>
      </trkpt>
      <trkpt lat="42.54384" lon="2.14671">
        <ele>1800.8</ele>
      </trkpt>
      <trkpt lat="42.54388" lon="2.14679">
        <ele>1799.4</ele>
      </trkpt>
      <trkpt lat="42.54389" lon="2.14686">
        <ele>1798.6</ele>
      </trkpt>
      <trkpt lat="42.54389" lon="2.14693">
        <ele>1797.8</ele>
      </trkpt>
      <trkpt lat="42.54389" lon="2.14699">
        <ele>1797.2</ele>
      </trkpt>
      <trkpt lat="42.54389" lon="2.14704">
        <ele>1796.6</ele>
      </trkpt>
      <trkpt lat="42.54388" lon="2.1471">
        <ele>1796.1</ele>
      </trkpt>
      <trkpt lat="42.54387" lon="2.14716">
        <ele>1795.6</ele>
      </trkpt>
      <trkpt lat="42.54385" lon="2.14723">
        <ele>1795.1</ele>
      </trkpt>
      <trkpt lat="42.54383" lon="2.14728">
        <ele>1794.8</ele>
      </trkpt>
      <trkpt lat="42.54381" lon="2.14733">
        <ele>1794.5</ele>
      </trkpt>
      <trkpt lat="42.54379" lon="2.14736">
        <ele>1794.5</ele>
      </trkpt>
      <trkpt lat="42.54376" lon="2.14739">
        <ele>1794.6</ele>
      </trkpt>
      <trkpt lat="42.54374" lon="2.14742">
        <ele>1794.5</ele>
      </trkpt>
      <trkpt lat="42.54371" lon="2.14745">
        <ele>1794.6</ele>
      </trkpt>
      <trkpt lat="42.54367" lon="2.14747">
        <ele>1794.9</ele>
      </trkpt>
      <trkpt lat="42.54365" lon="2.14749">
        <ele>1794.9</ele>
      </trkpt>
      <trkpt lat="42.54357" lon="2.14751">
        <ele>1795.7</ele>
      </trkpt>
      <trkpt lat="42.5435" lon="2.14752">
        <ele>1796.4</ele>
      </trkpt>
      <trkpt lat="42.54331" lon="2.14754">
        <ele>1798</ele>
      </trkpt>
      <trkpt lat="42.54318" lon="2.14758">
        <ele>1796.4</ele>
      </trkpt>
      <trkpt lat="42.5431" lon="2.1476">
        <ele>1795.5</ele>
      </trkpt>
      <trkpt lat="42.54306" lon="2.14762">
        <ele>1794.8</ele>
      </trkpt>
      <trkpt lat="42.543" lon="2.14764">
        <ele>1794</ele>
      </trkpt>
      <trkpt lat="42.54295" lon="2.14766">
        <ele>1793.3</ele>
      </trkpt>
      <trkpt lat="42.5429" lon="2.14768">
        <ele>1792.6</ele>
      </trkpt>
      <trkpt lat="42.54285" lon="2.14769">
        <ele>1792.1</ele>
      </trkpt>
      <trkpt lat="42.54281" lon="2.1477">
        <ele>1791.7</ele>
      </trkpt>
      <trkpt lat="42.54276" lon="2.14771">
        <ele>1791.2</ele>
      </trkpt>
      <trkpt lat="42.54271" lon="2.14771">
        <ele>1790.9</ele>
      </trkpt>
      <trkpt lat="42.54266" lon="2.14771">
        <ele>1790.6</ele>
      </trkpt>
      <trkpt lat="42.54259" lon="2.1477">
        <ele>1790.4</ele>
      </trkpt>
      <trkpt lat="42.54253" lon="2.14768">
        <ele>1790.5</ele>
      </trkpt>
      <trkpt lat="42.54242" lon="2.14765">
        <ele>1790.5</ele>
      </trkpt>
      <trkpt lat="42.54224" lon="2.14756">
        <ele>1791.1</ele>
      </trkpt>
      <trkpt lat="42.54205" lon="2.14746">
        <ele>1791.6</ele>
      </trkpt>
      <trkpt lat="42.54193" lon="2.14737">
        <ele>1792.6</ele>
      </trkpt>
      <trkpt lat="42.54186" lon="2.14733">
        <ele>1793</ele>
      </trkpt>
      <trkpt lat="42.5418" lon="2.14732">
        <ele>1792.8</ele>
      </trkpt>
      <trkpt lat="42.54176" lon="2.14731">
        <ele>1792.7</ele>
      </trkpt>
      <trkpt lat="42.54171" lon="2.14731">
        <ele>1792.4</ele>
      </trkpt>
      <trkpt lat="42.54168" lon="2.14732">
        <ele>1792</ele>
      </trkpt>
      <trkpt lat="42.54165" lon="2.14733">
        <ele>1791.7</ele>
      </trkpt>
      <trkpt lat="42.54162" lon="2.14736">
        <ele>1791.1</ele>
      </trkpt>
      <trkpt lat="42.54161" lon="2.14737">
        <ele>1791</ele>
      </trkpt>
      <trkpt lat="42.5416" lon="2.14741">
        <ele>1790.1</ele>
      </trkpt>
      <trkpt lat="42.5416" lon="2.14746">
        <ele>1789.1</ele>
      </trkpt>
      <trkpt lat="42.5416" lon="2.1475">
        <ele>1788.2</ele>
      </trkpt>
      <trkpt lat="42.54161" lon="2.14755">
        <ele>1787.8</ele>
      </trkpt>
      <trkpt lat="42.54164" lon="2.1476">
        <ele>1787.3</ele>
      </trkpt>
      <trkpt lat="42.54168" lon="2.14763">
        <ele>1787</ele>
      </trkpt>
      <trkpt lat="42.54175" lon="2.14767">
        <ele>1787</ele>
      </trkpt>
      <trkpt lat="42.54183" lon="2.1477">
        <ele>1787</ele>
      </trkpt>
      <trkpt lat="42.54199" lon="2.14774">
        <ele>1787.2</ele>
      </trkpt>
      <trkpt lat="42.54207" lon="2.14776">
        <ele>1787.2</ele>
      </trkpt>
      <trkpt lat="42.54211" lon="2.14778">
        <ele>1787.1</ele>
      </trkpt>
      <trkpt lat="42.54216" lon="2.1478">
        <ele>1786.9</ele>
      </trkpt>
      <trkpt lat="42.54222" lon="2.14783">
        <ele>1786.6</ele>
      </trkpt>
      <trkpt lat="42.54227" lon="2.14787">
        <ele>1786</ele>
      </trkpt>
      <trkpt lat="42.54231" lon="2.14789">
        <ele>1785.7</ele>
      </trkpt>
      <trkpt lat="42.54239" lon="2.14796">
        <ele>1784.6</ele>
      </trkpt>
      <trkpt lat="42.54246" lon="2.14801">
        <ele>1783.6</ele>
      </trkpt>
      <trkpt lat="42.54254" lon="2.14808">
        <ele>1782.4</ele>
      </trkpt>
      <trkpt lat="42.54264" lon="2.14816">
        <ele>1781.2</ele>
      </trkpt>
      <trkpt lat="42.54272" lon="2.14821">
        <ele>1780.6</ele>
      </trkpt>
      <trkpt lat="42.54279" lon="2.14826">
        <ele>1779.9</ele>
      </trkpt>
      <trkpt lat="42.54285" lon="2.14831">
        <ele>1779.2</ele>
      </trkpt>
      <trkpt lat="42.54292" lon="2.14838">
        <ele>1778.6</ele>
      </trkpt>
      <trkpt lat="42.54304" lon="2.14847">
        <ele>1778.1</ele>
      </trkpt>
      <trkpt lat="42.54317" lon="2.14858">
        <ele>1777</ele>
      </trkpt>
      <trkpt lat="42.54344" lon="2.14883">
        <ele>1772.6</ele>
      </trkpt>
      <trkpt lat="42.54371" lon="2.14906">
        <ele>1767.7</ele>
      </trkpt>
      <trkpt lat="42.5438" lon="2.14914">
        <ele>1766.1</ele>
      </trkpt>
      <trkpt lat="42.54387" lon="2.1492">
        <ele>1765.3</ele>
      </trkpt>
      <trkpt lat="42.54392" lon="2.14926">
        <ele>1764.8</ele>
      </trkpt>
      <trkpt lat="42.54395" lon="2.14931">
        <ele>1764.5</ele>
      </trkpt>
      <trkpt lat="42.54397" lon="2.14935">
        <ele>1764.2</ele>
      </trkpt>
      <trkpt lat="42.54397" lon="2.14938">
        <ele>1764.1</ele>
      </trkpt>
      <trkpt lat="42.54399" lon="2.1495">
        <ele>1763.6</ele>
      </trkpt>
      <trkpt lat="42.544" lon="2.14971">
        <ele>1762.7</ele>
      </trkpt>
      <trkpt lat="42.544" lon="2.14976">
        <ele>1762.5</ele>
      </trkpt>
      <trkpt lat="42.54402" lon="2.14988">
        <ele>1762</ele>
      </trkpt>
      <trkpt lat="42.54412" lon="2.15008">
        <ele>1760.4</ele>
      </trkpt>
      <trkpt lat="42.54422" lon="2.15027">
        <ele>1757.8</ele>
      </trkpt>
      <trkpt lat="42.54428" lon="2.15034">
        <ele>1756.8</ele>
      </trkpt>
      <trkpt lat="42.54437" lon="2.15042">
        <ele>1755.6</ele>
      </trkpt>
      <trkpt lat="42.54451" lon="2.15049">
        <ele>1754.4</ele>
      </trkpt>
      <trkpt lat="42.54464" lon="2.15053">
        <ele>1753.5</ele>
      </trkpt>
      <trkpt lat="42.54471" lon="2.15055">
        <ele>1753.1</ele>
      </trkpt>
      <trkpt lat="42.54487" lon="2.1506">
        <ele>1752.1</ele>
      </trkpt>
      <trkpt lat="42.54492" lon="2.15064">
        <ele>1751.6</ele>
      </trkpt>
      <trkpt lat="42.54504" lon="2.15075">
        <ele>1750.2</ele>
      </trkpt>
      <trkpt lat="42.54513" lon="2.15079">
        <ele>1748.9</ele>
      </trkpt>
      <trkpt lat="42.54529" lon="2.15082">
        <ele>1747</ele>
      </trkpt>
      <trkpt lat="42.5454" lon="2.15078">
        <ele>1746</ele>
      </trkpt>
      <trkpt lat="42.54551" lon="2.15069">
        <ele>1745.3</ele>
      </trkpt>
      <trkpt lat="42.54556" lon="2.15063">
        <ele>1745.1</ele>
      </trkpt>
      <trkpt lat="42.54563" lon="2.15052">
        <ele>1744.9</ele>
      </trkpt>
      <trkpt lat="42.54565" lon="2.15046">
        <ele>1745</ele>
      </trkpt>
      <trkpt lat="42.54565" lon="2.15039">
        <ele>1745.3</ele>
      </trkpt>
      <trkpt lat="42.54566" lon="2.1503">
        <ele>1745.7</ele>
      </trkpt>
      <trkpt lat="42.54565" lon="2.15022">
        <ele>1746.2</ele>
      </trkpt>
      <trkpt lat="42.54562" lon="2.15006">
        <ele>1747.5</ele>
      </trkpt>
      <trkpt lat="42.54558" lon="2.14988">
        <ele>1748.8</ele>
      </trkpt>
      <trkpt lat="42.5456" lon="2.1497">
        <ele>1749.3</ele>
      </trkpt>
      <trkpt lat="42.54566" lon="2.14958">
        <ele>1749.4</ele>
      </trkpt>
      <trkpt lat="42.54577" lon="2.14946">
        <ele>1749.3</ele>
      </trkpt>
      <trkpt lat="42.54583" lon="2.14943">
        <ele>1749.1</ele>
      </trkpt>
      <trkpt lat="42.5459" lon="2.14942">
        <ele>1749.5</ele>
      </trkpt>
      <trkpt lat="42.54601" lon="2.1495">
        <ele>1749.2</ele>
      </trkpt>
      <trkpt lat="42.54614" lon="2.14963">
        <ele>1747.9</ele>
      </trkpt>
      <trkpt lat="42.54627" lon="2.14978">
        <ele>1745.8</ele>
      </trkpt>
      <trkpt lat="42.54646" lon="2.15006">
        <ele>1740.4</ele>
      </trkpt>
      <trkpt lat="42.54659" lon="2.15017">
        <ele>1737.6</ele>
      </trkpt>
      <trkpt lat="42.54666" lon="2.15021">
        <ele>1736.3</ele>
      </trkpt>
      <trkpt lat="42.54673" lon="2.15022">
        <ele>1735.9</ele>
      </trkpt>
      <trkpt lat="42.54696" lon="2.1502">
        <ele>1735.7</ele>
      </trkpt>
      <trkpt lat="42.54705" lon="2.15022">
        <ele>1735.1</ele>
      </trkpt>
      <trkpt lat="42.54717" lon="2.15028">
        <ele>1734</ele>
      </trkpt>
      <trkpt lat="42.54725" lon="2.15037">
        <ele>1732.5</ele>
      </trkpt>
      <trkpt lat="42.5476" lon="2.15093">
        <ele>1726.6</ele>
      </trkpt>
      <trkpt lat="42.54765" lon="2.15108">
        <ele>1725.7</ele>
      </trkpt>
      <trkpt lat="42.54767" lon="2.1512">
        <ele>1724.6</ele>
      </trkpt>
      <trkpt lat="42.54773" lon="2.15172">
        <ele>1719.3</ele>
      </trkpt>
      <trkpt lat="42.54775" lon="2.15183">
        <ele>1718.4</ele>
      </trkpt>
      <trkpt lat="42.54782" lon="2.15201">
        <ele>1717.1</ele>
      </trkpt>
      <trkpt lat="42.54792" lon="2.1521">
        <ele>1716.8</ele>
      </trkpt>
      <trkpt lat="42.54805" lon="2.15215">
        <ele>1717</ele>
      </trkpt>
      <trkpt lat="42.5487" lon="2.15218">
        <ele>1717</ele>
      </trkpt>
      <trkpt lat="42.54893" lon="2.15217">
        <ele>1716.5</ele>
      </trkpt>
      <trkpt lat="42.54921" lon="2.15212">
        <ele>1716.9</ele>
      </trkpt>
      <trkpt lat="42.54929" lon="2.15212">
        <ele>1716.6</ele>
      </trkpt>
      <trkpt lat="42.54942" lon="2.15215">
        <ele>1715.4</ele>
      </trkpt>
      <trkpt lat="42.54955" lon="2.15222">
        <ele>1713.2</ele>
      </trkpt>
      <trkpt lat="42.5501" lon="2.15267">
        <ele>1702.6</ele>
      </trkpt>
      <trkpt lat="42.55024" lon="2.15276">
        <ele>1700.7</ele>
      </trkpt>
      <trkpt lat="42.55052" lon="2.15287">
        <ele>1697.4</ele>
      </trkpt>
      <trkpt lat="42.55065" lon="2.15296">
        <ele>1695.5</ele>
      </trkpt>
      <trkpt lat="42.55079" lon="2.1531">
        <ele>1692.9</ele>
      </trkpt>
      <trkpt lat="42.55098" lon="2.15329">
        <ele>1691</ele>
      </trkpt>
      <trkpt lat="42.55109" lon="2.15341">
        <ele>1690.7</ele>
      </trkpt>
      <trkpt lat="42.55121" lon="2.15352">
        <ele>1690.6</ele>
      </trkpt>
      <trkpt lat="42.55129" lon="2.15358">
        <ele>1690.6</ele>
      </trkpt>
      <trkpt lat="42.55137" lon="2.15362">
        <ele>1690.6</ele>
      </trkpt>
      <trkpt lat="42.55141" lon="2.15364">
        <ele>1690.6</ele>
      </trkpt>
      <trkpt lat="42.55144" lon="2.15365">
        <ele>1690.6</ele>
      </trkpt>
      <trkpt lat="42.55147" lon="2.15365">
        <ele>1690.7</ele>
      </trkpt>
      <trkpt lat="42.55154" lon="2.15365">
        <ele>1690.8</ele>
      </trkpt>
      <trkpt lat="42.55162" lon="2.15364">
        <ele>1691.1</ele>
      </trkpt>
      <trkpt lat="42.55169" lon="2.15363">
        <ele>1691.3</ele>
      </trkpt>
      <trkpt lat="42.55173" lon="2.15363">
        <ele>1691.4</ele>
      </trkpt>
      <trkpt lat="42.55176" lon="2.15364">
        <ele>1691.5</ele>
      </trkpt>
      <trkpt lat="42.5518" lon="2.15365">
        <ele>1691.5</ele>
      </trkpt>
      <trkpt lat="42.55184" lon="2.15366">
        <ele>1691.6</ele>
      </trkpt>
      <trkpt lat="42.55188" lon="2.15368">
        <ele>1691.5</ele>
      </trkpt>
      <trkpt lat="42.55194" lon="2.15372">
        <ele>1691.3</ele>
      </trkpt>
      <trkpt lat="42.55204" lon="2.15379">
        <ele>1690.7</ele>
      </trkpt>
      <trkpt lat="42.55215" lon="2.15388">
        <ele>1689.8</ele>
      </trkpt>
      <trkpt lat="42.55227" lon="2.15397">
        <ele>1688.5</ele>
      </trkpt>
      <trkpt lat="42.55242" lon="2.15409">
        <ele>1686.5</ele>
      </trkpt>
      <trkpt lat="42.55252" lon="2.15418">
        <ele>1684.9</ele>
      </trkpt>
      <trkpt lat="42.55261" lon="2.15426">
        <ele>1683.8</ele>
      </trkpt>
      <trkpt lat="42.5527" lon="2.15435">
        <ele>1682.6</ele>
      </trkpt>
      <trkpt lat="42.55279" lon="2.15445">
        <ele>1681.1</ele>
      </trkpt>
      <trkpt lat="42.55288" lon="2.15453">
        <ele>1679.9</ele>
      </trkpt>
      <trkpt lat="42.55294" lon="2.1546">
        <ele>1678.8</ele>
      </trkpt>
      <trkpt lat="42.553" lon="2.15464">
        <ele>1678.2</ele>
      </trkpt>
      <trkpt lat="42.55306" lon="2.15468">
        <ele>1677.6</ele>
      </trkpt>
      <trkpt lat="42.5531" lon="2.15469">
        <ele>1677.6</ele>
      </trkpt>
      <trkpt lat="42.55314" lon="2.15469">
        <ele>1677.7</ele>
      </trkpt>
      <trkpt lat="42.5532" lon="2.15468">
        <ele>1678.1</ele>
      </trkpt>
      <trkpt lat="42.55325" lon="2.15467">
        <ele>1678.5</ele>
      </trkpt>
      <trkpt lat="42.55331" lon="2.15464">
        <ele>1679.3</ele>
      </trkpt>
      <trkpt lat="42.55336" lon="2.15462">
        <ele>1679.9</ele>
      </trkpt>
      <trkpt lat="42.55342" lon="2.1546">
        <ele>1680.8</ele>
      </trkpt>
      <trkpt lat="42.55344" lon="2.1546">
        <ele>1680.9</ele>
      </trkpt>
      <trkpt lat="42.55347" lon="2.1546">
        <ele>1681.1</ele>
      </trkpt>
      <trkpt lat="42.55353" lon="2.15461">
        <ele>1681.4</ele>
      </trkpt>
      <trkpt lat="42.55358" lon="2.15462">
        <ele>1681.5</ele>
      </trkpt>
      <trkpt lat="42.55364" lon="2.15463">
        <ele>1681.8</ele>
      </trkpt>
      <trkpt lat="42.55373" lon="2.15467">
        <ele>1681.6</ele>
      </trkpt>
      <trkpt lat="42.55384" lon="2.15472">
        <ele>1681.4</ele>
      </trkpt>
      <trkpt lat="42.55394" lon="2.15475">
        <ele>1681.5</ele>
      </trkpt>
      <trkpt lat="42.55402" lon="2.1548">
        <ele>1681</ele>
      </trkpt>
      <trkpt lat="42.55411" lon="2.15486">
        <ele>1680.4</ele>
      </trkpt>
      <trkpt lat="42.55421" lon="2.15493">
        <ele>1680.1</ele>
      </trkpt>
      <trkpt lat="42.55426" lon="2.15498">
        <ele>1679.9</ele>
      </trkpt>
      <trkpt lat="42.55431" lon="2.15504">
        <ele>1679.7</ele>
      </trkpt>
      <trkpt lat="42.55437" lon="2.15512">
        <ele>1679.5</ele>
      </trkpt>
      <trkpt lat="42.5544" lon="2.15517">
        <ele>1679.3</ele>
      </trkpt>
      <trkpt lat="42.55442" lon="2.15521">
        <ele>1679.1</ele>
      </trkpt>
      <trkpt lat="42.55444" lon="2.15526">
        <ele>1678.7</ele>
      </trkpt>
      <trkpt lat="42.55445" lon="2.15532">
        <ele>1678.1</ele>
      </trkpt>
      <trkpt lat="42.55447" lon="2.15536">
        <ele>1677.9</ele>
      </trkpt>
      <trkpt lat="42.55448" lon="2.15539">
        <ele>1677.6</ele>
      </trkpt>
      <trkpt lat="42.55449" lon="2.15547">
        <ele>1676.7</ele>
      </trkpt>
      <trkpt lat="42.5545" lon="2.15554">
        <ele>1675.9</ele>
      </trkpt>
      <trkpt lat="42.55451" lon="2.15562">
        <ele>1675</ele>
      </trkpt>
      <trkpt lat="42.55452" lon="2.15571">
        <ele>1674</ele>
      </trkpt>
      <trkpt lat="42.55452" lon="2.15577">
        <ele>1673.2</ele>
      </trkpt>
      <trkpt lat="42.55452" lon="2.15585">
        <ele>1672.3</ele>
      </trkpt>
      <trkpt lat="42.55451" lon="2.15598">
        <ele>1671.3</ele>
      </trkpt>
      <trkpt lat="42.5545" lon="2.15622">
        <ele>1669.6</ele>
      </trkpt>
      <trkpt lat="42.55449" lon="2.15657">
        <ele>1667.2</ele>
      </trkpt>
      <trkpt lat="42.55449" lon="2.15659">
        <ele>1667.1</ele>
      </trkpt>
      <trkpt lat="42.5545" lon="2.15673">
        <ele>1666.1</ele>
      </trkpt>
      <trkpt lat="42.55451" lon="2.15686">
        <ele>1665</ele>
      </trkpt>
      <trkpt lat="42.55453" lon="2.157">
        <ele>1663.9</ele>
      </trkpt>
      <trkpt lat="42.55457" lon="2.15712">
        <ele>1663.4</ele>
      </trkpt>
      <trkpt lat="42.55462" lon="2.15725">
        <ele>1662.8</ele>
      </trkpt>
      <trkpt lat="42.55467" lon="2.15736">
        <ele>1662.4</ele>
      </trkpt>
      <trkpt lat="42.55472" lon="2.15745">
        <ele>1662.2</ele>
      </trkpt>
      <trkpt lat="42.55478" lon="2.15753">
        <ele>1662</ele>
      </trkpt>
      <trkpt lat="42.55485" lon="2.15759">
        <ele>1661.8</ele>
      </trkpt>
      <trkpt lat="42.55494" lon="2.15764">
        <ele>1662</ele>
      </trkpt>
      <trkpt lat="42.55499" lon="2.15766">
        <ele>1662.2</ele>
      </trkpt>
      <trkpt lat="42.55512" lon="2.15767">
        <ele>1662.4</ele>
      </trkpt>
      <trkpt lat="42.55522" lon="2.15768">
        <ele>1662.5</ele>
      </trkpt>
      <trkpt lat="42.55533" lon="2.15773">
        <ele>1661.7</ele>
      </trkpt>
      <trkpt lat="42.55542" lon="2.15778">
        <ele>1660.8</ele>
      </trkpt>
      <trkpt lat="42.55554" lon="2.15785">
        <ele>1659.6</ele>
      </trkpt>
      <trkpt lat="42.55564" lon="2.1579">
        <ele>1658.8</ele>
      </trkpt>
      <trkpt lat="42.55576" lon="2.15792">
        <ele>1658.7</ele>
      </trkpt>
      <trkpt lat="42.55586" lon="2.15794">
        <ele>1658.9</ele>
      </trkpt>
      <trkpt lat="42.55593" lon="2.15796">
        <ele>1659.4</ele>
      </trkpt>
      <trkpt lat="42.55599" lon="2.15799">
        <ele>1659.5</ele>
      </trkpt>
      <trkpt lat="42.55604" lon="2.15804">
        <ele>1659.2</ele>
      </trkpt>
      <trkpt lat="42.55608" lon="2.15809">
        <ele>1658.8</ele>
      </trkpt>
      <trkpt lat="42.55612" lon="2.15814">
        <ele>1658.3</ele>
      </trkpt>
      <trkpt lat="42.55616" lon="2.15823">
        <ele>1657.1</ele>
      </trkpt>
      <trkpt lat="42.55621" lon="2.15835">
        <ele>1655.6</ele>
      </trkpt>
      <trkpt lat="42.55627" lon="2.15848">
        <ele>1654.6</ele>
      </trkpt>
      <trkpt lat="42.55634" lon="2.15862">
        <ele>1653.7</ele>
      </trkpt>
      <trkpt lat="42.55641" lon="2.1588">
        <ele>1652.3</ele>
      </trkpt>
      <trkpt lat="42.55647" lon="2.15894">
        <ele>1651.4</ele>
      </trkpt>
      <trkpt lat="42.55651" lon="2.15904">
        <ele>1650.8</ele>
      </trkpt>
      <trkpt lat="42.55656" lon="2.15914">
        <ele>1650.3</ele>
      </trkpt>
      <trkpt lat="42.55663" lon="2.15923">
        <ele>1650</ele>
      </trkpt>
      <trkpt lat="42.55666" lon="2.1593">
        <ele>1649.2</ele>
      </trkpt>
      <trkpt lat="42.5567" lon="2.15939">
        <ele>1647.9</ele>
      </trkpt>
      <trkpt lat="42.55674" lon="2.15949">
        <ele>1646.3</ele>
      </trkpt>
      <trkpt lat="42.55679" lon="2.15958">
        <ele>1645</ele>
      </trkpt>
      <trkpt lat="42.55685" lon="2.15967">
        <ele>1643.7</ele>
      </trkpt>
      <trkpt lat="42.55692" lon="2.15973">
        <ele>1643.1</ele>
      </trkpt>
      <trkpt lat="42.55702" lon="2.1598">
        <ele>1642.6</ele>
      </trkpt>
      <trkpt lat="42.55716" lon="2.15988">
        <ele>1642</ele>
      </trkpt>
      <trkpt lat="42.55727" lon="2.15995">
        <ele>1641.3</ele>
      </trkpt>
      <trkpt lat="42.5574" lon="2.16005">
        <ele>1640.4</ele>
      </trkpt>
      <trkpt lat="42.55759" lon="2.1602">
        <ele>1640.4</ele>
      </trkpt>
      <trkpt lat="42.55775" lon="2.16031">
        <ele>1641.1</ele>
      </trkpt>
      <trkpt lat="42.5578" lon="2.16037">
        <ele>1641</ele>
      </trkpt>
      <trkpt lat="42.55783" lon="2.16041">
        <ele>1640.8</ele>
      </trkpt>
      <trkpt lat="42.55785" lon="2.16045">
        <ele>1640.6</ele>
      </trkpt>
      <trkpt lat="42.55786" lon="2.16051">
        <ele>1639.8</ele>
      </trkpt>
      <trkpt lat="42.55786" lon="2.16055">
        <ele>1639.3</ele>
      </trkpt>
      <trkpt lat="42.55786" lon="2.16057">
        <ele>1639</ele>
      </trkpt>
      <trkpt lat="42.55785" lon="2.1606">
        <ele>1638.4</ele>
      </trkpt>
      <trkpt lat="42.55782" lon="2.16064">
        <ele>1637.4</ele>
      </trkpt>
      <trkpt lat="42.55779" lon="2.16067">
        <ele>1636.5</ele>
      </trkpt>
      <trkpt lat="42.55775" lon="2.16069">
        <ele>1635.7</ele>
      </trkpt>
      <trkpt lat="42.55771" lon="2.1607">
        <ele>1634.9</ele>
      </trkpt>
      <trkpt lat="42.55764" lon="2.16068">
        <ele>1634.2</ele>
      </trkpt>
      <trkpt lat="42.55749" lon="2.16067">
        <ele>1632.3</ele>
      </trkpt>
      <trkpt lat="42.55736" lon="2.16066">
        <ele>1631.2</ele>
      </trkpt>
      <trkpt lat="42.55726" lon="2.16065">
        <ele>1630.4</ele>
      </trkpt>
      <trkpt lat="42.5572" lon="2.16062">
        <ele>1630.3</ele>
      </trkpt>
      <trkpt lat="42.55716" lon="2.1606">
        <ele>1630.2</ele>
      </trkpt>
      <trkpt lat="42.55713" lon="2.16058">
        <ele>1630.2</ele>
      </trkpt>
      <trkpt lat="42.55709" lon="2.16053">
        <ele>1630.6</ele>
      </trkpt>
      <trkpt lat="42.55703" lon="2.16045">
        <ele>1631.3</ele>
      </trkpt>
      <trkpt lat="42.55698" lon="2.16039">
        <ele>1631.7</ele>
      </trkpt>
      <trkpt lat="42.5569" lon="2.16034">
        <ele>1631.8</ele>
      </trkpt>
      <trkpt lat="42.55681" lon="2.16028">
        <ele>1631.9</ele>
      </trkpt>
      <trkpt lat="42.55662" lon="2.16017">
        <ele>1632.4</ele>
      </trkpt>
      <trkpt lat="42.5564" lon="2.16004">
        <ele>1633.7</ele>
      </trkpt>
      <trkpt lat="42.55629" lon="2.15996">
        <ele>1634.2</ele>
      </trkpt>
      <trkpt lat="42.55622" lon="2.15992">
        <ele>1634.4</ele>
      </trkpt>
      <trkpt lat="42.55616" lon="2.15992">
        <ele>1634</ele>
      </trkpt>
      <trkpt lat="42.55613" lon="2.15992">
        <ele>1633.9</ele>
      </trkpt>
      <trkpt lat="42.55609" lon="2.15994">
        <ele>1633.5</ele>
      </trkpt>
      <trkpt lat="42.55605" lon="2.15996">
        <ele>1633.1</ele>
      </trkpt>
      <trkpt lat="42.55602" lon="2.16">
        <ele>1632.7</ele>
      </trkpt>
      <trkpt lat="42.556" lon="2.16003">
        <ele>1632.7</ele>
      </trkpt>
      <trkpt lat="42.55598" lon="2.16006">
        <ele>1632.7</ele>
      </trkpt>
      <trkpt lat="42.55597" lon="2.16011">
        <ele>1632.9</ele>
      </trkpt>
      <trkpt lat="42.55597" lon="2.16022">
        <ele>1633.3</ele>
      </trkpt>
      <trkpt lat="42.55599" lon="2.16029">
        <ele>1633.4</ele>
      </trkpt>
      <trkpt lat="42.55603" lon="2.16038">
        <ele>1633.4</ele>
      </trkpt>
      <trkpt lat="42.55615" lon="2.16061">
        <ele>1632.2</ele>
      </trkpt>
      <trkpt lat="42.55623" lon="2.16078">
        <ele>1630.6</ele>
      </trkpt>
      <trkpt lat="42.55633" lon="2.16098">
        <ele>1627.9</ele>
      </trkpt>
      <trkpt lat="42.55636" lon="2.16111">
        <ele>1626.9</ele>
      </trkpt>
      <trkpt lat="42.55638" lon="2.16117">
        <ele>1626.3</ele>
      </trkpt>
      <trkpt lat="42.55639" lon="2.16121">
        <ele>1626</ele>
      </trkpt>
      <trkpt lat="42.55639" lon="2.16124">
        <ele>1625.8</ele>
      </trkpt>
      <trkpt lat="42.55639" lon="2.16128">
        <ele>1625.7</ele>
      </trkpt>
      <trkpt lat="42.55638" lon="2.16134">
        <ele>1625.7</ele>
      </trkpt>
      <trkpt lat="42.55635" lon="2.16145">
        <ele>1625.9</ele>
      </trkpt>
      <trkpt lat="42.55632" lon="2.16156">
        <ele>1626</ele>
      </trkpt>
      <trkpt lat="42.55625" lon="2.16176">
        <ele>1626.3</ele>
      </trkpt>
      <trkpt lat="42.55614" lon="2.16204">
        <ele>1626.2</ele>
      </trkpt>
      <trkpt lat="42.55605" lon="2.16231">
        <ele>1625.5</ele>
      </trkpt>
      <trkpt lat="42.55599" lon="2.16256">
        <ele>1624.1</ele>
      </trkpt>
      <trkpt lat="42.55592" lon="2.16292">
        <ele>1621.6</ele>
      </trkpt>
      <trkpt lat="42.55584" lon="2.16337">
        <ele>1618.7</ele>
      </trkpt>
      <trkpt lat="42.55584" lon="2.16345">
        <ele>1618.5</ele>
      </trkpt>
      <trkpt lat="42.55584" lon="2.16353">
        <ele>1618.2</ele>
      </trkpt>
      <trkpt lat="42.55585" lon="2.1636">
        <ele>1617.8</ele>
      </trkpt>
      <trkpt lat="42.55587" lon="2.16372">
        <ele>1617</ele>
      </trkpt>
      <trkpt lat="42.55608" lon="2.16439">
        <ele>1612.2</ele>
      </trkpt>
      <trkpt lat="42.55616" lon="2.16466">
        <ele>1610.9</ele>
      </trkpt>
      <trkpt lat="42.55626" lon="2.16498">
        <ele>1609.3</ele>
      </trkpt>
      <trkpt lat="42.55635" lon="2.1652">
        <ele>1607.2</ele>
      </trkpt>
      <trkpt lat="42.55639" lon="2.16527">
        <ele>1606.2</ele>
      </trkpt>
      <trkpt lat="42.55643" lon="2.16531">
        <ele>1605.4</ele>
      </trkpt>
      <trkpt lat="42.55648" lon="2.16535">
        <ele>1604.4</ele>
      </trkpt>
      <trkpt lat="42.55654" lon="2.16542">
        <ele>1603.1</ele>
      </trkpt>
      <trkpt lat="42.55656" lon="2.16545">
        <ele>1602.6</ele>
      </trkpt>
      <trkpt lat="42.55658" lon="2.16549">
        <ele>1602.1</ele>
      </trkpt>
      <trkpt lat="42.5566" lon="2.16558">
        <ele>1601.4</ele>
      </trkpt>
      <trkpt lat="42.5566" lon="2.16563">
        <ele>1601.1</ele>
      </trkpt>
      <trkpt lat="42.5566" lon="2.16567">
        <ele>1601</ele>
      </trkpt>
      <trkpt lat="42.5566" lon="2.16571">
        <ele>1600.8</ele>
      </trkpt>
      <trkpt lat="42.55659" lon="2.16576">
        <ele>1600.7</ele>
      </trkpt>
      <trkpt lat="42.55656" lon="2.16583">
        <ele>1600.9</ele>
      </trkpt>
      <trkpt lat="42.55652" lon="2.16591">
        <ele>1600.5</ele>
      </trkpt>
      <trkpt lat="42.55645" lon="2.16599">
        <ele>1600.5</ele>
      </trkpt>
      <trkpt lat="42.55628" lon="2.16614">
        <ele>1601</ele>
      </trkpt>
      <trkpt lat="42.55616" lon="2.16628">
        <ele>1600.7</ele>
      </trkpt>
      <trkpt lat="42.55605" lon="2.16639">
        <ele>1600.6</ele>
      </trkpt>
      <trkpt lat="42.55596" lon="2.16646">
        <ele>1600.8</ele>
      </trkpt>
      <trkpt lat="42.55589" lon="2.16649">
        <ele>1601.3</ele>
      </trkpt>
      <trkpt lat="42.55572" lon="2.16653">
        <ele>1602.5</ele>
      </trkpt>
      <trkpt lat="42.55561" lon="2.16658">
        <ele>1602.7</ele>
      </trkpt>
      <trkpt lat="42.55556" lon="2.16662">
        <ele>1602.6</ele>
      </trkpt>
      <trkpt lat="42.5555" lon="2.16668">
        <ele>1602.3</ele>
      </trkpt>
      <trkpt lat="42.55545" lon="2.16676">
        <ele>1600.8</ele>
      </trkpt>
      <trkpt lat="42.55541" lon="2.16684">
        <ele>1599.2</ele>
      </trkpt>
      <trkpt lat="42.55536" lon="2.16692">
        <ele>1597.8</ele>
      </trkpt>
      <trkpt lat="42.5553" lon="2.167">
        <ele>1596.5</ele>
      </trkpt>
      <trkpt lat="42.55526" lon="2.16704">
        <ele>1595.9</ele>
      </trkpt>
      <trkpt lat="42.55521" lon="2.16707">
        <ele>1595.8</ele>
      </trkpt>
      <trkpt lat="42.55516" lon="2.16708">
        <ele>1596.2</ele>
      </trkpt>
      <trkpt lat="42.55506" lon="2.1671">
        <ele>1596.9</ele>
      </trkpt>
      <trkpt lat="42.55494" lon="2.16712">
        <ele>1596.9</ele>
      </trkpt>
      <trkpt lat="42.55485" lon="2.16715">
        <ele>1595.9</ele>
      </trkpt>
      <trkpt lat="42.55473" lon="2.16721">
        <ele>1594.3</ele>
      </trkpt>
      <trkpt lat="42.55452" lon="2.16734">
        <ele>1591.2</ele>
      </trkpt>
      <trkpt lat="42.55442" lon="2.16741">
        <ele>1589.7</ele>
      </trkpt>
      <trkpt lat="42.55435" lon="2.16745">
        <ele>1588.9</ele>
      </trkpt>
      <trkpt lat="42.55428" lon="2.1675">
        <ele>1588</ele>
      </trkpt>
      <trkpt lat="42.55422" lon="2.16754">
        <ele>1588.2</ele>
      </trkpt>
      <trkpt lat="42.55417" lon="2.16755">
        <ele>1588.3</ele>
      </trkpt>
      <trkpt lat="42.55414" lon="2.16756">
        <ele>1588.6</ele>
      </trkpt>
      <trkpt lat="42.55406" lon="2.16758">
        <ele>1589.4</ele>
      </trkpt>
      <trkpt lat="42.554" lon="2.16762">
        <ele>1590.2</ele>
      </trkpt>
      <trkpt lat="42.55397" lon="2.16765">
        <ele>1590.7</ele>
      </trkpt>
      <trkpt lat="42.55394" lon="2.16767">
        <ele>1591.1</ele>
      </trkpt>
      <trkpt lat="42.55393" lon="2.1677">
        <ele>1591.4</ele>
      </trkpt>
      <trkpt lat="42.55391" lon="2.16774">
        <ele>1591.9</ele>
      </trkpt>
      <trkpt lat="42.55389" lon="2.1678">
        <ele>1592.5</ele>
      </trkpt>
      <trkpt lat="42.55385" lon="2.16788">
        <ele>1593.5</ele>
      </trkpt>
      <trkpt lat="42.55385" lon="2.16789">
        <ele>1593.5</ele>
      </trkpt>
      <trkpt lat="42.55385" lon="2.16792">
        <ele>1593.8</ele>
      </trkpt>
      <trkpt lat="42.55385" lon="2.16793">
        <ele>1593.8</ele>
      </trkpt>
      <trkpt lat="42.55385" lon="2.16796">
        <ele>1594</ele>
      </trkpt>
      <trkpt lat="42.55387" lon="2.16798">
        <ele>1594</ele>
      </trkpt>
      <trkpt lat="42.55391" lon="2.16803">
        <ele>1593.9</ele>
      </trkpt>
      <trkpt lat="42.55399" lon="2.16808">
        <ele>1593.4</ele>
      </trkpt>
      <trkpt lat="42.55406" lon="2.16809">
        <ele>1592.7</ele>
      </trkpt>
      <trkpt lat="42.55413" lon="2.16811">
        <ele>1592.1</ele>
      </trkpt>
      <trkpt lat="42.5542" lon="2.16813">
        <ele>1591.7</ele>
      </trkpt>
      <trkpt lat="42.55426" lon="2.16813">
        <ele>1591.5</ele>
      </trkpt>
      <trkpt lat="42.5543" lon="2.16812">
        <ele>1591.4</ele>
      </trkpt>
      <trkpt lat="42.55435" lon="2.16811">
        <ele>1591.2</ele>
      </trkpt>
      <trkpt lat="42.55441" lon="2.1681">
        <ele>1591</ele>
      </trkpt>
      <trkpt lat="42.55446" lon="2.16809">
        <ele>1590.8</ele>
      </trkpt>
      <trkpt lat="42.55452" lon="2.16808">
        <ele>1590.6</ele>
      </trkpt>
      <trkpt lat="42.55456" lon="2.16808">
        <ele>1590.5</ele>
      </trkpt>
      <trkpt lat="42.55461" lon="2.16807">
        <ele>1590.3</ele>
      </trkpt>
      <trkpt lat="42.55467" lon="2.16808">
        <ele>1590.2</ele>
      </trkpt>
      <trkpt lat="42.55473" lon="2.1681">
        <ele>1590.1</ele>
      </trkpt>
      <trkpt lat="42.55484" lon="2.16814">
        <ele>1590</ele>
      </trkpt>
      <trkpt lat="42.55495" lon="2.16817">
        <ele>1589.8</ele>
      </trkpt>
      <trkpt lat="42.55505" lon="2.1682">
        <ele>1588.9</ele>
      </trkpt>
      <trkpt lat="42.55512" lon="2.16821">
        <ele>1587.8</ele>
      </trkpt>
      <trkpt lat="42.55519" lon="2.16818">
        <ele>1586.6</ele>
      </trkpt>
      <trkpt lat="42.55526" lon="2.16817">
        <ele>1585.4</ele>
      </trkpt>
      <trkpt lat="42.55534" lon="2.16814">
        <ele>1584.1</ele>
      </trkpt>
      <trkpt lat="42.55542" lon="2.16812">
        <ele>1582.8</ele>
      </trkpt>
      <trkpt lat="42.55551" lon="2.16809">
        <ele>1581.4</ele>
      </trkpt>
      <trkpt lat="42.5556" lon="2.16809">
        <ele>1580</ele>
      </trkpt>
      <trkpt lat="42.55566" lon="2.16808">
        <ele>1579</ele>
      </trkpt>
      <trkpt lat="42.55572" lon="2.16809">
        <ele>1578.1</ele>
      </trkpt>
      <trkpt lat="42.55578" lon="2.16812">
        <ele>1577.1</ele>
      </trkpt>
      <trkpt lat="42.55598" lon="2.16823">
        <ele>1574.1</ele>
      </trkpt>
      <trkpt lat="42.55604" lon="2.16827">
        <ele>1573.1</ele>
      </trkpt>
      <trkpt lat="42.55608" lon="2.16831">
        <ele>1572.3</ele>
      </trkpt>
      <trkpt lat="42.55612" lon="2.16837">
        <ele>1571.6</ele>
      </trkpt>
      <trkpt lat="42.55614" lon="2.16842">
        <ele>1571.4</ele>
      </trkpt>
      <trkpt lat="42.55618" lon="2.16851">
        <ele>1570.7</ele>
      </trkpt>
      <trkpt lat="42.55621" lon="2.16863">
        <ele>1570.1</ele>
      </trkpt>
      <trkpt lat="42.55623" lon="2.16874">
        <ele>1569.5</ele>
      </trkpt>
      <trkpt lat="42.55627" lon="2.16898">
        <ele>1568.1</ele>
      </trkpt>
      <trkpt lat="42.5563" lon="2.1692">
        <ele>1566.5</ele>
      </trkpt>
      <trkpt lat="42.55632" lon="2.16932">
        <ele>1565.4</ele>
      </trkpt>
      <trkpt lat="42.55633" lon="2.1694">
        <ele>1564.7</ele>
      </trkpt>
      <trkpt lat="42.55636" lon="2.1695">
        <ele>1563.1</ele>
      </trkpt>
      <trkpt lat="42.55639" lon="2.16964">
        <ele>1561.4</ele>
      </trkpt>
      <trkpt lat="42.5564" lon="2.16974">
        <ele>1560.6</ele>
      </trkpt>
      <trkpt lat="42.55641" lon="2.16984">
        <ele>1559.7</ele>
      </trkpt>
      <trkpt lat="42.55641" lon="2.16989">
        <ele>1559.5</ele>
      </trkpt>
      <trkpt lat="42.55641" lon="2.16994">
        <ele>1559.3</ele>
      </trkpt>
      <trkpt lat="42.55642" lon="2.17001">
        <ele>1558.6</ele>
      </trkpt>
      <trkpt lat="42.55642" lon="2.17008">
        <ele>1558.2</ele>
      </trkpt>
      <trkpt lat="42.55644" lon="2.17017">
        <ele>1557</ele>
      </trkpt>
      <trkpt lat="42.55644" lon="2.17026">
        <ele>1556.5</ele>
      </trkpt>
      <trkpt lat="42.55645" lon="2.17033">
        <ele>1555.8</ele>
      </trkpt>
      <trkpt lat="42.55646" lon="2.17039">
        <ele>1555.2</ele>
      </trkpt>
      <trkpt lat="42.55646" lon="2.17046">
        <ele>1554.9</ele>
      </trkpt>
      <trkpt lat="42.55646" lon="2.17054">
        <ele>1554.5</ele>
      </trkpt>
      <trkpt lat="42.55645" lon="2.17059">
        <ele>1554.6</ele>
      </trkpt>
      <trkpt lat="42.55644" lon="2.17067">
        <ele>1554.6</ele>
      </trkpt>
      <trkpt lat="42.55642" lon="2.17073">
        <ele>1554.9</ele>
      </trkpt>
      <trkpt lat="42.5564" lon="2.1708">
        <ele>1555.2</ele>
      </trkpt>
      <trkpt lat="42.55636" lon="2.17087">
        <ele>1555.5</ele>
      </trkpt>
      <trkpt lat="42.55632" lon="2.17095">
        <ele>1555.2</ele>
      </trkpt>
      <trkpt lat="42.55629" lon="2.171">
        <ele>1555</ele>
      </trkpt>
      <trkpt lat="42.55625" lon="2.17104">
        <ele>1555.3</ele>
      </trkpt>
      <trkpt lat="42.55621" lon="2.17109">
        <ele>1555.3</ele>
      </trkpt>
      <trkpt lat="42.55614" lon="2.17115">
        <ele>1555.6</ele>
      </trkpt>
      <trkpt lat="42.55606" lon="2.17123">
        <ele>1555.6</ele>
      </trkpt>
      <trkpt lat="42.55598" lon="2.17128">
        <ele>1556.1</ele>
      </trkpt>
      <trkpt lat="42.55591" lon="2.17131">
        <ele>1556.7</ele>
      </trkpt>
      <trkpt lat="42.55587" lon="2.17133">
        <ele>1557</ele>
      </trkpt>
      <trkpt lat="42.55582" lon="2.17134">
        <ele>1557.5</ele>
      </trkpt>
      <trkpt lat="42.55576" lon="2.17135">
        <ele>1557.4</ele>
      </trkpt>
      <trkpt lat="42.55568" lon="2.17137">
        <ele>1557</ele>
      </trkpt>
      <trkpt lat="42.55557" lon="2.17139">
        <ele>1556.7</ele>
      </trkpt>
      <trkpt lat="42.55546" lon="2.17142">
        <ele>1556</ele>
      </trkpt>
      <trkpt lat="42.55541" lon="2.17143">
        <ele>1555.7</ele>
      </trkpt>
      <trkpt lat="42.55535" lon="2.17144">
        <ele>1555.5</ele>
      </trkpt>
      <trkpt lat="42.5553" lon="2.17145">
        <ele>1555.3</ele>
      </trkpt>
      <trkpt lat="42.55524" lon="2.17148">
        <ele>1554.3</ele>
      </trkpt>
      <trkpt lat="42.55517" lon="2.1715">
        <ele>1553.6</ele>
      </trkpt>
      <trkpt lat="42.55511" lon="2.17154">
        <ele>1552.1</ele>
      </trkpt>
      <trkpt lat="42.55504" lon="2.17159">
        <ele>1550.1</ele>
      </trkpt>
      <trkpt lat="42.55496" lon="2.17164">
        <ele>1548.1</ele>
      </trkpt>
      <trkpt lat="42.55485" lon="2.17173">
        <ele>1545.4</ele>
      </trkpt>
      <trkpt lat="42.55472" lon="2.17182">
        <ele>1543.1</ele>
      </trkpt>
      <trkpt lat="42.55465" lon="2.17185">
        <ele>1542.4</ele>
      </trkpt>
      <trkpt lat="42.5546" lon="2.17188">
        <ele>1541.6</ele>
      </trkpt>
      <trkpt lat="42.55455" lon="2.17189">
        <ele>1541.4</ele>
      </trkpt>
      <trkpt lat="42.55452" lon="2.1719">
        <ele>1541.1</ele>
      </trkpt>
      <trkpt lat="42.55449" lon="2.1719">
        <ele>1541.2</ele>
      </trkpt>
      <trkpt lat="42.55442" lon="2.17188">
        <ele>1541.8</ele>
      </trkpt>
      <trkpt lat="42.55435" lon="2.17184">
        <ele>1543</ele>
      </trkpt>
      <trkpt lat="42.5543" lon="2.17183">
        <ele>1543.3</ele>
      </trkpt>
      <trkpt lat="42.55426" lon="2.17181">
        <ele>1543.9</ele>
      </trkpt>
      <trkpt lat="42.55422" lon="2.17181">
        <ele>1544</ele>
      </trkpt>
      <trkpt lat="42.55417" lon="2.1718">
        <ele>1544.3</ele>
      </trkpt>
      <trkpt lat="42.55414" lon="2.1718">
        <ele>1544.7</ele>
      </trkpt>
      <trkpt lat="42.55408" lon="2.17181">
        <ele>1545.2</ele>
      </trkpt>
      <trkpt lat="42.55404" lon="2.17181">
        <ele>1545.7</ele>
      </trkpt>
      <trkpt lat="42.55401" lon="2.17181">
        <ele>1546.1</ele>
      </trkpt>
      <trkpt lat="42.55399" lon="2.17181">
        <ele>1546.4</ele>
      </trkpt>
      <trkpt lat="42.55397" lon="2.17182">
        <ele>1546.4</ele>
      </trkpt>
      <trkpt lat="42.55394" lon="2.17183">
        <ele>1546.5</ele>
      </trkpt>
      <trkpt lat="42.55389" lon="2.17186">
        <ele>1546.4</ele>
      </trkpt>
      <trkpt lat="42.55384" lon="2.17188">
        <ele>1546.5</ele>
      </trkpt>
      <trkpt lat="42.55381" lon="2.17191">
        <ele>1546.1</ele>
      </trkpt>
      <trkpt lat="42.55377" lon="2.17194">
        <ele>1545.8</ele>
      </trkpt>
      <trkpt lat="42.55373" lon="2.17198">
        <ele>1545.3</ele>
      </trkpt>
      <trkpt lat="42.5537" lon="2.17202">
        <ele>1544.6</ele>
      </trkpt>
      <trkpt lat="42.55367" lon="2.17205">
        <ele>1544.2</ele>
      </trkpt>
      <trkpt lat="42.55364" lon="2.17212">
        <ele>1542.8</ele>
      </trkpt>
      <trkpt lat="42.55362" lon="2.17216">
        <ele>1542</ele>
      </trkpt>
      <trkpt lat="42.5536" lon="2.17222">
        <ele>1540.7</ele>
      </trkpt>
      <trkpt lat="42.55358" lon="2.17229">
        <ele>1539.1</ele>
      </trkpt>
      <trkpt lat="42.55356" lon="2.17237">
        <ele>1537.2</ele>
      </trkpt>
      <trkpt lat="42.55351" lon="2.17262">
        <ele>1532.8</ele>
      </trkpt>
      <trkpt lat="42.55345" lon="2.17288">
        <ele>1530.3</ele>
      </trkpt>
      <trkpt lat="42.55342" lon="2.17309">
        <ele>1528.2</ele>
      </trkpt>
      <trkpt lat="42.5534" lon="2.1732">
        <ele>1527.2</ele>
      </trkpt>
      <trkpt lat="42.55338" lon="2.17333">
        <ele>1526</ele>
      </trkpt>
      <trkpt lat="42.55337" lon="2.17341">
        <ele>1525.8</ele>
      </trkpt>
      <trkpt lat="42.55336" lon="2.17343">
        <ele>1525.9</ele>
      </trkpt>
      <trkpt lat="42.55334" lon="2.1735">
        <ele>1526</ele>
      </trkpt>
      <trkpt lat="42.55332" lon="2.17354">
        <ele>1526.2</ele>
      </trkpt>
      <trkpt lat="42.55329" lon="2.17357">
        <ele>1526.6</ele>
      </trkpt>
      <trkpt lat="42.55326" lon="2.1736">
        <ele>1527</ele>
      </trkpt>
      <trkpt lat="42.55324" lon="2.17364">
        <ele>1527.1</ele>
      </trkpt>
      <trkpt lat="42.55317" lon="2.1737">
        <ele>1528.1</ele>
      </trkpt>
      <trkpt lat="42.55313" lon="2.17375">
        <ele>1528.7</ele>
      </trkpt>
      <trkpt lat="42.55311" lon="2.17381">
        <ele>1528.8</ele>
      </trkpt>
      <trkpt lat="42.5531" lon="2.17388">
        <ele>1528.7</ele>
      </trkpt>
      <trkpt lat="42.55311" lon="2.17397">
        <ele>1528.2</ele>
      </trkpt>
      <trkpt lat="42.55312" lon="2.17401">
        <ele>1527.9</ele>
      </trkpt>
      <trkpt lat="42.55314" lon="2.17407">
        <ele>1527.3</ele>
      </trkpt>
      <trkpt lat="42.55317" lon="2.1741">
        <ele>1526.6</ele>
      </trkpt>
      <trkpt lat="42.5532" lon="2.17414">
        <ele>1525.8</ele>
      </trkpt>
      <trkpt lat="42.55324" lon="2.17417">
        <ele>1525</ele>
      </trkpt>
      <trkpt lat="42.55333" lon="2.17425">
        <ele>1524.7</ele>
      </trkpt>
      <trkpt lat="42.55344" lon="2.17434">
        <ele>1524.1</ele>
      </trkpt>
      <trkpt lat="42.55356" lon="2.17441">
        <ele>1523</ele>
      </trkpt>
      <trkpt lat="42.55364" lon="2.17445">
        <ele>1522.1</ele>
      </trkpt>
      <trkpt lat="42.5537" lon="2.17448">
        <ele>1521.4</ele>
      </trkpt>
      <trkpt lat="42.55376" lon="2.1745">
        <ele>1520.5</ele>
      </trkpt>
      <trkpt lat="42.55384" lon="2.17452">
        <ele>1519.2</ele>
      </trkpt>
      <trkpt lat="42.55393" lon="2.17453">
        <ele>1517.5</ele>
      </trkpt>
      <trkpt lat="42.55406" lon="2.17454">
        <ele>1515</ele>
      </trkpt>
      <trkpt lat="42.55413" lon="2.17455">
        <ele>1513.7</ele>
      </trkpt>
      <trkpt lat="42.55421" lon="2.17457">
        <ele>1512.7</ele>
      </trkpt>
      <trkpt lat="42.55427" lon="2.17459">
        <ele>1512.2</ele>
      </trkpt>
      <trkpt lat="42.55434" lon="2.17462">
        <ele>1511.7</ele>
      </trkpt>
      <trkpt lat="42.5544" lon="2.17464">
        <ele>1511.2</ele>
      </trkpt>
      <trkpt lat="42.55447" lon="2.17467">
        <ele>1510.7</ele>
      </trkpt>
      <trkpt lat="42.55456" lon="2.1747">
        <ele>1509.8</ele>
      </trkpt>
      <trkpt lat="42.55462" lon="2.17474">
        <ele>1509.6</ele>
      </trkpt>
      <trkpt lat="42.55467" lon="2.17477">
        <ele>1509.2</ele>
      </trkpt>
      <trkpt lat="42.55471" lon="2.17481">
        <ele>1509.2</ele>
      </trkpt>
      <trkpt lat="42.55474" lon="2.17484">
        <ele>1509.1</ele>
      </trkpt>
      <trkpt lat="42.55476" lon="2.17489">
        <ele>1509.5</ele>
      </trkpt>
      <trkpt lat="42.55479" lon="2.17493">
        <ele>1509.6</ele>
      </trkpt>
      <trkpt lat="42.55483" lon="2.17497">
        <ele>1509.5</ele>
      </trkpt>
      <trkpt lat="42.55485" lon="2.175">
        <ele>1509.5</ele>
      </trkpt>
      <trkpt lat="42.55489" lon="2.17503">
        <ele>1509.4</ele>
      </trkpt>
      <trkpt lat="42.55491" lon="2.17505">
        <ele>1509.4</ele>
      </trkpt>
      <trkpt lat="42.55495" lon="2.17506">
        <ele>1509</ele>
      </trkpt>
      <trkpt lat="42.555" lon="2.17506">
        <ele>1508.2</ele>
      </trkpt>
      <trkpt lat="42.55504" lon="2.17506">
        <ele>1507.8</ele>
      </trkpt>
      <trkpt lat="42.55509" lon="2.17504">
        <ele>1506.9</ele>
      </trkpt>
      <trkpt lat="42.55516" lon="2.17503">
        <ele>1506.1</ele>
      </trkpt>
      <trkpt lat="42.5552" lon="2.17501">
        <ele>1505.3</ele>
      </trkpt>
      <trkpt lat="42.55524" lon="2.17499">
        <ele>1504.6</ele>
      </trkpt>
      <trkpt lat="42.55528" lon="2.17497">
        <ele>1504</ele>
      </trkpt>
      <trkpt lat="42.55531" lon="2.17494">
        <ele>1503.4</ele>
      </trkpt>
      <trkpt lat="42.55535" lon="2.17491">
        <ele>1502.7</ele>
      </trkpt>
      <trkpt lat="42.55539" lon="2.17487">
        <ele>1501.9</ele>
      </trkpt>
      <trkpt lat="42.55544" lon="2.17481">
        <ele>1500.9</ele>
      </trkpt>
      <trkpt lat="42.55549" lon="2.17476">
        <ele>1499.9</ele>
      </trkpt>
      <trkpt lat="42.55553" lon="2.17472">
        <ele>1499.2</ele>
      </trkpt>
      <trkpt lat="42.55557" lon="2.1747">
        <ele>1498.7</ele>
      </trkpt>
      <trkpt lat="42.55562" lon="2.17468">
        <ele>1498.1</ele>
      </trkpt>
      <trkpt lat="42.55565" lon="2.17467">
        <ele>1497.7</ele>
      </trkpt>
      <trkpt lat="42.55569" lon="2.17467">
        <ele>1497.4</ele>
      </trkpt>
      <trkpt lat="42.55574" lon="2.17467">
        <ele>1497</ele>
      </trkpt>
      <trkpt lat="42.55577" lon="2.17469">
        <ele>1496.9</ele>
      </trkpt>
      <trkpt lat="42.55581" lon="2.1747">
        <ele>1496.7</ele>
      </trkpt>
      <trkpt lat="42.55586" lon="2.17474">
        <ele>1496.5</ele>
      </trkpt>
      <trkpt lat="42.5559" lon="2.17479">
        <ele>1496.4</ele>
      </trkpt>
      <trkpt lat="42.55596" lon="2.17486">
        <ele>1496</ele>
      </trkpt>
      <trkpt lat="42.55604" lon="2.17497">
        <ele>1495.2</ele>
      </trkpt>
      <trkpt lat="42.5561" lon="2.17505">
        <ele>1495.3</ele>
      </trkpt>
      <trkpt lat="42.55613" lon="2.17509">
        <ele>1495.6</ele>
      </trkpt>
      <trkpt lat="42.55618" lon="2.17514">
        <ele>1495.8</ele>
      </trkpt>
      <trkpt lat="42.55621" lon="2.17517">
        <ele>1495.9</ele>
      </trkpt>
      <trkpt lat="42.55625" lon="2.17521">
        <ele>1496</ele>
      </trkpt>
      <trkpt lat="42.5563" lon="2.17524">
        <ele>1495.8</ele>
      </trkpt>
      <trkpt lat="42.55635" lon="2.17528">
        <ele>1495.7</ele>
      </trkpt>
      <trkpt lat="42.5564" lon="2.17531">
        <ele>1495.5</ele>
      </trkpt>
      <trkpt lat="42.55646" lon="2.17533">
        <ele>1494.8</ele>
      </trkpt>
      <trkpt lat="42.55653" lon="2.17534">
        <ele>1493.8</ele>
      </trkpt>
      <trkpt lat="42.5566" lon="2.17535">
        <ele>1492.8</ele>
      </trkpt>
      <trkpt lat="42.55669" lon="2.17537">
        <ele>1491.6</ele>
      </trkpt>
      <trkpt lat="42.55678" lon="2.17537">
        <ele>1490</ele>
      </trkpt>
      <trkpt lat="42.55684" lon="2.17538">
        <ele>1489.2</ele>
      </trkpt>
      <trkpt lat="42.55691" lon="2.17539">
        <ele>1488.1</ele>
      </trkpt>
      <trkpt lat="42.55696" lon="2.17539">
        <ele>1487.2</ele>
      </trkpt>
      <trkpt lat="42.55703" lon="2.17542">
        <ele>1486.5</ele>
      </trkpt>
      <trkpt lat="42.5571" lon="2.17544">
        <ele>1485.6</ele>
      </trkpt>
      <trkpt lat="42.55715" lon="2.17548">
        <ele>1485.3</ele>
      </trkpt>
      <trkpt lat="42.55722" lon="2.17551">
        <ele>1484.5</ele>
      </trkpt>
      <trkpt lat="42.55726" lon="2.17555">
        <ele>1484.3</ele>
      </trkpt>
      <trkpt lat="42.55732" lon="2.17561">
        <ele>1484</ele>
      </trkpt>
      <trkpt lat="42.55738" lon="2.17569">
        <ele>1483.8</ele>
      </trkpt>
      <trkpt lat="42.55743" lon="2.17578">
        <ele>1483.9</ele>
      </trkpt>
      <trkpt lat="42.55747" lon="2.17583">
        <ele>1483.6</ele>
      </trkpt>
      <trkpt lat="42.55752" lon="2.17588">
        <ele>1484</ele>
      </trkpt>
      <trkpt lat="42.55756" lon="2.17591">
        <ele>1484.1</ele>
      </trkpt>
      <trkpt lat="42.55768" lon="2.17593">
        <ele>1482.7</ele>
      </trkpt>
      <trkpt lat="42.55777" lon="2.17594">
        <ele>1481.5</ele>
      </trkpt>
      <trkpt lat="42.55781" lon="2.17595">
        <ele>1481.2</ele>
      </trkpt>
      <trkpt lat="42.55786" lon="2.17597">
        <ele>1480.9</ele>
      </trkpt>
      <trkpt lat="42.55792" lon="2.17598">
        <ele>1480.3</ele>
      </trkpt>
      <trkpt lat="42.55799" lon="2.17602">
        <ele>1480.3</ele>
      </trkpt>
      <trkpt lat="42.55805" lon="2.17604">
        <ele>1480</ele>
      </trkpt>
      <trkpt lat="42.55811" lon="2.17607">
        <ele>1479.9</ele>
      </trkpt>
      <trkpt lat="42.55829" lon="2.17612">
        <ele>1478.6</ele>
      </trkpt>
      <trkpt lat="42.55835" lon="2.17612">
        <ele>1477.7</ele>
      </trkpt>
      <trkpt lat="42.5585" lon="2.17613">
        <ele>1475.9</ele>
      </trkpt>
      <trkpt lat="42.55855" lon="2.17614">
        <ele>1475.4</ele>
      </trkpt>
      <trkpt lat="42.5586" lon="2.17615">
        <ele>1474.9</ele>
      </trkpt>
      <trkpt lat="42.5587" lon="2.17618">
        <ele>1474.2</ele>
      </trkpt>
      <trkpt lat="42.5588" lon="2.17622">
        <ele>1473.5</ele>
      </trkpt>
      <trkpt lat="42.55894" lon="2.17628">
        <ele>1472.4</ele>
      </trkpt>
      <trkpt lat="42.55905" lon="2.17632">
        <ele>1471.1</ele>
      </trkpt>
      <trkpt lat="42.55914" lon="2.17636">
        <ele>1470.1</ele>
      </trkpt>
      <trkpt lat="42.55927" lon="2.1764">
        <ele>1468.6</ele>
      </trkpt>
      <trkpt lat="42.5594" lon="2.17645">
        <ele>1466.9</ele>
      </trkpt>
      <trkpt lat="42.55948" lon="2.17648">
        <ele>1465.6</ele>
      </trkpt>
      <trkpt lat="42.55956" lon="2.17651">
        <ele>1464.3</ele>
      </trkpt>
      <trkpt lat="42.55964" lon="2.17656">
        <ele>1462.7</ele>
      </trkpt>
      <trkpt lat="42.55967" lon="2.17659">
        <ele>1462</ele>
      </trkpt>
      <trkpt lat="42.55971" lon="2.17663">
        <ele>1461.1</ele>
      </trkpt>
      <trkpt lat="42.55974" lon="2.17668">
        <ele>1460.5</ele>
      </trkpt>
      <trkpt lat="42.55977" lon="2.17675">
        <ele>1460.9</ele>
      </trkpt>
      <trkpt lat="42.55979" lon="2.17682">
        <ele>1461.6</ele>
      </trkpt>
      <trkpt lat="42.55981" lon="2.17692">
        <ele>1462.7</ele>
      </trkpt>
      <trkpt lat="42.55983" lon="2.17703">
        <ele>1463.9</ele>
      </trkpt>
      <trkpt lat="42.55985" lon="2.17713">
        <ele>1464.8</ele>
      </trkpt>
      <trkpt lat="42.55987" lon="2.1772">
        <ele>1465.3</ele>
      </trkpt>
      <trkpt lat="42.5599" lon="2.17725">
        <ele>1465</ele>
      </trkpt>
      <trkpt lat="42.55992" lon="2.17729">
        <ele>1464.9</ele>
      </trkpt>
      <trkpt lat="42.55994" lon="2.17733">
        <ele>1464.8</ele>
      </trkpt>
      <trkpt lat="42.55998" lon="2.17735">
        <ele>1463.7</ele>
      </trkpt>
      <trkpt lat="42.56002" lon="2.17736">
        <ele>1462.6</ele>
      </trkpt>
      <trkpt lat="42.56006" lon="2.17735">
        <ele>1461.3</ele>
      </trkpt>
      <trkpt lat="42.56009" lon="2.17733">
        <ele>1460.3</ele>
      </trkpt>
      <trkpt lat="42.56011" lon="2.1773">
        <ele>1459.5</ele>
      </trkpt>
      <trkpt lat="42.56012" lon="2.17726">
        <ele>1458.9</ele>
      </trkpt>
      <trkpt lat="42.56013" lon="2.17722">
        <ele>1458.4</ele>
      </trkpt>
      <trkpt lat="42.56013" lon="2.17717">
        <ele>1458</ele>
      </trkpt>
      <trkpt lat="42.56012" lon="2.17713">
        <ele>1457.9</ele>
      </trkpt>
      <trkpt lat="42.56011" lon="2.17706">
        <ele>1457.5</ele>
      </trkpt>
      <trkpt lat="42.56002" lon="2.17668">
        <ele>1454.2</ele>
      </trkpt>
      <trkpt lat="42.55999" lon="2.17658">
        <ele>1455.2</ele>
      </trkpt>
      <trkpt lat="42.55996" lon="2.17651">
        <ele>1456.6</ele>
      </trkpt>
      <trkpt lat="42.55991" lon="2.17648">
        <ele>1457.9</ele>
      </trkpt>
      <trkpt lat="42.55985" lon="2.17642">
        <ele>1459.4</ele>
      </trkpt>
      <trkpt lat="42.55979" lon="2.17639">
        <ele>1460.5</ele>
      </trkpt>
      <trkpt lat="42.55973" lon="2.17635">
        <ele>1461.6</ele>
      </trkpt>
      <trkpt lat="42.55961" lon="2.17629">
        <ele>1463.2</ele>
      </trkpt>
      <trkpt lat="42.5594" lon="2.1762">
        <ele>1465.1</ele>
      </trkpt>
      <trkpt lat="42.55933" lon="2.17616">
        <ele>1465.4</ele>
      </trkpt>
      <trkpt lat="42.55931" lon="2.17612">
        <ele>1465.2</ele>
      </trkpt>
      <trkpt lat="42.55929" lon="2.17607">
        <ele>1464.8</ele>
      </trkpt>
      <trkpt lat="42.55929" lon="2.17602">
        <ele>1464.3</ele>
      </trkpt>
      <trkpt lat="42.55929" lon="2.17598">
        <ele>1463.8</ele>
      </trkpt>
      <trkpt lat="42.55931" lon="2.17583">
        <ele>1462.4</ele>
      </trkpt>
      <trkpt lat="42.55932" lon="2.1758">
        <ele>1463.4</ele>
      </trkpt>
      <trkpt lat="42.55934" lon="2.17576">
        <ele>1464.7</ele>
      </trkpt>
      <trkpt lat="42.55938" lon="2.17574">
        <ele>1465.4</ele>
      </trkpt>
      <trkpt lat="42.5594" lon="2.17573">
        <ele>1465.8</ele>
      </trkpt>
      <trkpt lat="42.55944" lon="2.17572">
        <ele>1466.3</ele>
      </trkpt>
      <trkpt lat="42.5595" lon="2.17572">
        <ele>1466.6</ele>
      </trkpt>
      <trkpt lat="42.55955" lon="2.17574">
        <ele>1466.1</ele>
      </trkpt>
      <trkpt lat="42.55962" lon="2.17577">
        <ele>1465.3</ele>
      </trkpt>
      <trkpt lat="42.55969" lon="2.1758">
        <ele>1464.5</ele>
      </trkpt>
      <trkpt lat="42.55976" lon="2.17584">
        <ele>1463.4</ele>
      </trkpt>
      <trkpt lat="42.55981" lon="2.17586">
        <ele>1463.4</ele>
      </trkpt>
      <trkpt lat="42.55986" lon="2.17588">
        <ele>1463.3</ele>
      </trkpt>
      <trkpt lat="42.55989" lon="2.1759">
        <ele>1463.2</ele>
      </trkpt>
      <trkpt lat="42.55993" lon="2.17592">
        <ele>1463</ele>
      </trkpt>
      <trkpt lat="42.55998" lon="2.17594">
        <ele>1462.7</ele>
      </trkpt>
      <trkpt lat="42.56004" lon="2.17595">
        <ele>1463.2</ele>
      </trkpt>
      <trkpt lat="42.56008" lon="2.17596">
        <ele>1463.7</ele>
      </trkpt>
      <trkpt lat="42.56014" lon="2.17597">
        <ele>1464.5</ele>
      </trkpt>
      <trkpt lat="42.5602" lon="2.176">
        <ele>1464.9</ele>
      </trkpt>
      <trkpt lat="42.56026" lon="2.17602">
        <ele>1465.5</ele>
      </trkpt>
      <trkpt lat="42.56031" lon="2.17604">
        <ele>1465.8</ele>
      </trkpt>
      <trkpt lat="42.56034" lon="2.17605">
        <ele>1466</ele>
      </trkpt>
      <trkpt lat="42.56038" lon="2.17608">
        <ele>1466</ele>
      </trkpt>
      <trkpt lat="42.56039" lon="2.17608">
        <ele>1466.1</ele>
      </trkpt>
      <trkpt lat="42.56043" lon="2.17612">
        <ele>1465.8</ele>
      </trkpt>
      <trkpt lat="42.56047" lon="2.17618">
        <ele>1465</ele>
      </trkpt>
      <trkpt lat="42.56051" lon="2.17625">
        <ele>1463.9</ele>
      </trkpt>
      <trkpt lat="42.56055" lon="2.17634">
        <ele>1462.2</ele>
      </trkpt>
      <trkpt lat="42.56059" lon="2.17641">
        <ele>1460.8</ele>
      </trkpt>
      <trkpt lat="42.56061" lon="2.17647">
        <ele>1459.5</ele>
      </trkpt>
      <trkpt lat="42.56065" lon="2.17651">
        <ele>1458.7</ele>
      </trkpt>
      <trkpt lat="42.56068" lon="2.17656">
        <ele>1457.6</ele>
      </trkpt>
      <trkpt lat="42.56071" lon="2.17661">
        <ele>1456.3</ele>
      </trkpt>
      <trkpt lat="42.56074" lon="2.17668">
        <ele>1454.6</ele>
      </trkpt>
      <trkpt lat="42.56077" lon="2.17679">
        <ele>1452.4</ele>
      </trkpt>
      <trkpt lat="42.56079" lon="2.17692">
        <ele>1449.6</ele>
      </trkpt>
      <trkpt lat="42.56081" lon="2.17698">
        <ele>1448.1</ele>
      </trkpt>
      <trkpt lat="42.56081" lon="2.17703">
        <ele>1447.1</ele>
      </trkpt>
      <trkpt lat="42.56083" lon="2.17707">
        <ele>1445.9</ele>
      </trkpt>
      <trkpt lat="42.56085" lon="2.17709">
        <ele>1445.5</ele>
      </trkpt>
      <trkpt lat="42.56086" lon="2.17712">
        <ele>1444.9</ele>
      </trkpt>
      <trkpt lat="42.56091" lon="2.17717">
        <ele>1444</ele>
      </trkpt>
      <trkpt lat="42.56097" lon="2.17722">
        <ele>1443.1</ele>
      </trkpt>
      <trkpt lat="42.56103" lon="2.17728">
        <ele>1441.8</ele>
      </trkpt>
      <trkpt lat="42.56111" lon="2.17734">
        <ele>1440.3</ele>
      </trkpt>
      <trkpt lat="42.56118" lon="2.17739">
        <ele>1439</ele>
      </trkpt>
      <trkpt lat="42.56124" lon="2.17742">
        <ele>1438.1</ele>
      </trkpt>
      <trkpt lat="42.5613" lon="2.17745">
        <ele>1437.1</ele>
      </trkpt>
      <trkpt lat="42.56134" lon="2.17746">
        <ele>1436.8</ele>
      </trkpt>
      <trkpt lat="42.56141" lon="2.17748">
        <ele>1436</ele>
      </trkpt>
      <trkpt lat="42.56147" lon="2.17749">
        <ele>1435.6</ele>
      </trkpt>
      <trkpt lat="42.56152" lon="2.1775">
        <ele>1435.2</ele>
      </trkpt>
      <trkpt lat="42.56156" lon="2.17751">
        <ele>1434.9</ele>
      </trkpt>
      <trkpt lat="42.56159" lon="2.1775">
        <ele>1435.1</ele>
      </trkpt>
      <trkpt lat="42.5616" lon="2.17751">
        <ele>1434.8</ele>
      </trkpt>
      <trkpt lat="42.56165" lon="2.17751">
        <ele>1434.7</ele>
      </trkpt>
      <trkpt lat="42.56174" lon="2.1775">
        <ele>1434.5</ele>
      </trkpt>
      <trkpt lat="42.56189" lon="2.17748">
        <ele>1434.2</ele>
      </trkpt>
      <trkpt lat="42.56203" lon="2.17747">
        <ele>1433.7</ele>
      </trkpt>
      <trkpt lat="42.56211" lon="2.17746">
        <ele>1433.5</ele>
      </trkpt>
      <trkpt lat="42.56218" lon="2.17746">
        <ele>1433</ele>
      </trkpt>
      <trkpt lat="42.56225" lon="2.17744">
        <ele>1433.4</ele>
      </trkpt>
      <trkpt lat="42.5623" lon="2.17743">
        <ele>1433.4</ele>
      </trkpt>
      <trkpt lat="42.56235" lon="2.17742">
        <ele>1433.5</ele>
      </trkpt>
      <trkpt lat="42.5624" lon="2.1774">
        <ele>1434</ele>
      </trkpt>
      <trkpt lat="42.56248" lon="2.17739">
        <ele>1433.9</ele>
      </trkpt>
      <trkpt lat="42.56256" lon="2.17736">
        <ele>1434.4</ele>
      </trkpt>
      <trkpt lat="42.56265" lon="2.17734">
        <ele>1434.4</ele>
      </trkpt>
      <trkpt lat="42.56271" lon="2.17733">
        <ele>1434.2</ele>
      </trkpt>
      <trkpt lat="42.56276" lon="2.17733">
        <ele>1433.7</ele>
      </trkpt>
      <trkpt lat="42.5628" lon="2.17733">
        <ele>1433.3</ele>
      </trkpt>
      <trkpt lat="42.56286" lon="2.17733">
        <ele>1432.7</ele>
      </trkpt>
      <trkpt lat="42.56292" lon="2.17733">
        <ele>1432.1</ele>
      </trkpt>
      <trkpt lat="42.56293" lon="2.17733">
        <ele>1432</ele>
      </trkpt>
      <trkpt lat="42.56297" lon="2.17734">
        <ele>1431.2</ele>
      </trkpt>
      <trkpt lat="42.56311" lon="2.17738">
        <ele>1427.9</ele>
      </trkpt>
      <trkpt lat="42.56317" lon="2.1774">
        <ele>1426.4</ele>
      </trkpt>
      <trkpt lat="42.56321" lon="2.1774">
        <ele>1426</ele>
      </trkpt>
      <trkpt lat="42.56327" lon="2.17741">
        <ele>1424.9</ele>
      </trkpt>
      <trkpt lat="42.56332" lon="2.17741">
        <ele>1424.3</ele>
      </trkpt>
      <trkpt lat="42.56336" lon="2.17741">
        <ele>1424.2</ele>
      </trkpt>
      <trkpt lat="42.56341" lon="2.1774">
        <ele>1424.6</ele>
      </trkpt>
      <trkpt lat="42.56348" lon="2.17739">
        <ele>1425</ele>
      </trkpt>
      <trkpt lat="42.56356" lon="2.17737">
        <ele>1425.8</ele>
      </trkpt>
      <trkpt lat="42.56361" lon="2.17737">
        <ele>1425.7</ele>
      </trkpt>
      <trkpt lat="42.56365" lon="2.17736">
        <ele>1426.2</ele>
      </trkpt>
      <trkpt lat="42.56372" lon="2.17736">
        <ele>1426.1</ele>
      </trkpt>
      <trkpt lat="42.56376" lon="2.17736">
        <ele>1426</ele>
      </trkpt>
      <trkpt lat="42.5638" lon="2.17737">
        <ele>1425.5</ele>
      </trkpt>
      <trkpt lat="42.56385" lon="2.17737">
        <ele>1425.5</ele>
      </trkpt>
      <trkpt lat="42.56392" lon="2.17738">
        <ele>1424.9</ele>
      </trkpt>
      <trkpt lat="42.56396" lon="2.17738">
        <ele>1424.9</ele>
      </trkpt>
      <trkpt lat="42.56402" lon="2.17739">
        <ele>1424.3</ele>
      </trkpt>
      <trkpt lat="42.56408" lon="2.1774">
        <ele>1423.8</ele>
      </trkpt>
      <trkpt lat="42.56415" lon="2.17741">
        <ele>1423.2</ele>
      </trkpt>
      <trkpt lat="42.56423" lon="2.17743">
        <ele>1421.8</ele>
      </trkpt>
      <trkpt lat="42.5643" lon="2.17743">
        <ele>1421.2</ele>
      </trkpt>
      <trkpt lat="42.56436" lon="2.17744">
        <ele>1420.2</ele>
      </trkpt>
      <trkpt lat="42.56448" lon="2.17744">
        <ele>1419.2</ele>
      </trkpt>
      <trkpt lat="42.56458" lon="2.17746">
        <ele>1417.4</ele>
      </trkpt>
      <trkpt lat="42.56463" lon="2.17746">
        <ele>1417</ele>
      </trkpt>
      <trkpt lat="42.56466" lon="2.17747">
        <ele>1416.3</ele>
      </trkpt>
      <trkpt lat="42.56468" lon="2.17748">
        <ele>1415.6</ele>
      </trkpt>
      <trkpt lat="42.56472" lon="2.17749">
        <ele>1414.8</ele>
      </trkpt>
      <trkpt lat="42.56476" lon="2.17751">
        <ele>1413.6</ele>
      </trkpt>
      <trkpt lat="42.56483" lon="2.17753">
        <ele>1412.1</ele>
      </trkpt>
      <trkpt lat="42.56489" lon="2.17756">
        <ele>1410.3</ele>
      </trkpt>
      <trkpt lat="42.56494" lon="2.17759">
        <ele>1408.5</ele>
      </trkpt>
      <trkpt lat="42.565" lon="2.17763">
        <ele>1406.2</ele>
      </trkpt>
      <trkpt lat="42.56511" lon="2.17769">
        <ele>1402.4</ele>
      </trkpt>
      <trkpt lat="42.56518" lon="2.17772">
        <ele>1400.4</ele>
      </trkpt>
      <trkpt lat="42.56522" lon="2.17773">
        <ele>1399.6</ele>
      </trkpt>
      <trkpt lat="42.56526" lon="2.17774">
        <ele>1398.7</ele>
      </trkpt>
      <trkpt lat="42.56531" lon="2.17775">
        <ele>1397.8</ele>
      </trkpt>
      <trkpt lat="42.56534" lon="2.17775">
        <ele>1397.5</ele>
      </trkpt>
      <trkpt lat="42.56539" lon="2.17775">
        <ele>1397</ele>
      </trkpt>
      <trkpt lat="42.56544" lon="2.17774">
        <ele>1396.9</ele>
      </trkpt>
      <trkpt lat="42.56548" lon="2.17772">
        <ele>1397.3</ele>
      </trkpt>
      <trkpt lat="42.56553" lon="2.1777">
        <ele>1397.7</ele>
      </trkpt>
      <trkpt lat="42.56558" lon="2.17766">
        <ele>1398.9</ele>
      </trkpt>
      <trkpt lat="42.56563" lon="2.17763">
        <ele>1399.7</ele>
      </trkpt>
      <trkpt lat="42.56568" lon="2.17759">
        <ele>1400.8</ele>
      </trkpt>
      <trkpt lat="42.56572" lon="2.17757">
        <ele>1401.3</ele>
      </trkpt>
      <trkpt lat="42.56577" lon="2.17754">
        <ele>1402</ele>
      </trkpt>
      <trkpt lat="42.56582" lon="2.17752">
        <ele>1402.3</ele>
      </trkpt>
      <trkpt lat="42.56588" lon="2.1775">
        <ele>1402.9</ele>
      </trkpt>
      <trkpt lat="42.56595" lon="2.17748">
        <ele>1403.7</ele>
      </trkpt>
      <trkpt lat="42.56608" lon="2.17746">
        <ele>1404.4</ele>
      </trkpt>
      <trkpt lat="42.56622" lon="2.17743">
        <ele>1405.4</ele>
      </trkpt>
      <trkpt lat="42.56633" lon="2.17742">
        <ele>1405.6</ele>
      </trkpt>
      <trkpt lat="42.56637" lon="2.1774">
        <ele>1406.4</ele>
      </trkpt>
      <trkpt lat="42.56641" lon="2.1774">
        <ele>1406.3</ele>
      </trkpt>
      <trkpt lat="42.56645" lon="2.1774">
        <ele>1406.2</ele>
      </trkpt>
      <trkpt lat="42.56649" lon="2.17742">
        <ele>1405.4</ele>
      </trkpt>
      <trkpt lat="42.56653" lon="2.17744">
        <ele>1404.5</ele>
      </trkpt>
      <trkpt lat="42.56658" lon="2.17747">
        <ele>1403.3</ele>
      </trkpt>
      <trkpt lat="42.56662" lon="2.17749">
        <ele>1402.4</ele>
      </trkpt>
      <trkpt lat="42.56672" lon="2.17756">
        <ele>1400.7</ele>
      </trkpt>
      <trkpt lat="42.56675" lon="2.17761">
        <ele>1399.3</ele>
      </trkpt>
      <trkpt lat="42.56684" lon="2.1777">
        <ele>1397.5</ele>
      </trkpt>
      <trkpt lat="42.56689" lon="2.17774">
        <ele>1396.9</ele>
      </trkpt>
      <trkpt lat="42.56694" lon="2.17778">
        <ele>1396.3</ele>
      </trkpt>
      <trkpt lat="42.567" lon="2.17782">
        <ele>1395.8</ele>
      </trkpt>
      <trkpt lat="42.56704" lon="2.17785">
        <ele>1395.4</ele>
      </trkpt>
      <trkpt lat="42.5671" lon="2.17791">
        <ele>1394.1</ele>
      </trkpt>
      <trkpt lat="42.56717" lon="2.17797">
        <ele>1392.9</ele>
      </trkpt>
      <trkpt lat="42.56725" lon="2.17804">
        <ele>1391.6</ele>
      </trkpt>
      <trkpt lat="42.56731" lon="2.1781">
        <ele>1390.2</ele>
      </trkpt>
      <trkpt lat="42.56737" lon="2.17817">
        <ele>1388.4</ele>
      </trkpt>
      <trkpt lat="42.56748" lon="2.17827">
        <ele>1386.2</ele>
      </trkpt>
      <trkpt lat="42.56761" lon="2.1784">
        <ele>1383.9</ele>
      </trkpt>
      <trkpt lat="42.56769" lon="2.17846">
        <ele>1383.4</ele>
      </trkpt>
      <trkpt lat="42.56774" lon="2.17851">
        <ele>1382.7</ele>
      </trkpt>
      <trkpt lat="42.56779" lon="2.17856">
        <ele>1382</ele>
      </trkpt>
      <trkpt lat="42.56783" lon="2.17858">
        <ele>1382</ele>
      </trkpt>
      <trkpt lat="42.56786" lon="2.1786">
        <ele>1381.8</ele>
      </trkpt>
      <trkpt lat="42.5679" lon="2.17861">
        <ele>1382.1</ele>
      </trkpt>
      <trkpt lat="42.56795" lon="2.17863">
        <ele>1382.2</ele>
      </trkpt>
      <trkpt lat="42.568" lon="2.17864">
        <ele>1382.7</ele>
      </trkpt>
      <trkpt lat="42.56805" lon="2.17866">
        <ele>1382.8</ele>
      </trkpt>
      <trkpt lat="42.5681" lon="2.17868">
        <ele>1382.9</ele>
      </trkpt>
      <trkpt lat="42.56816" lon="2.1787">
        <ele>1383.1</ele>
      </trkpt>
      <trkpt lat="42.5682" lon="2.17873">
        <ele>1382.7</ele>
      </trkpt>
      <trkpt lat="42.56827" lon="2.17877">
        <ele>1382.4</ele>
      </trkpt>
      <trkpt lat="42.56836" lon="2.17883">
        <ele>1381.8</ele>
      </trkpt>
      <trkpt lat="42.56849" lon="2.17891">
        <ele>1381.3</ele>
      </trkpt>
      <trkpt lat="42.5686" lon="2.17899">
        <ele>1380.5</ele>
      </trkpt>
      <trkpt lat="42.5687" lon="2.17905">
        <ele>1380.3</ele>
      </trkpt>
      <trkpt lat="42.5688" lon="2.17912">
        <ele>1379.9</ele>
      </trkpt>
      <trkpt lat="42.56885" lon="2.17915">
        <ele>1379.8</ele>
      </trkpt>
      <trkpt lat="42.5689" lon="2.17919">
        <ele>1379.6</ele>
      </trkpt>
      <trkpt lat="42.56894" lon="2.17923">
        <ele>1379.3</ele>
      </trkpt>
      <trkpt lat="42.56898" lon="2.17927">
        <ele>1379.1</ele>
      </trkpt>
      <trkpt lat="42.56901" lon="2.17931">
        <ele>1378.6</ele>
      </trkpt>
      <trkpt lat="42.56903" lon="2.17933">
        <ele>1378.5</ele>
      </trkpt>
      <trkpt lat="42.56908" lon="2.17939">
        <ele>1378</ele>
      </trkpt>
      <trkpt lat="42.56927" lon="2.1796">
        <ele>1377.5</ele>
      </trkpt>
      <trkpt lat="42.56932" lon="2.17968">
        <ele>1377</ele>
      </trkpt>
      <trkpt lat="42.56942" lon="2.17978">
        <ele>1377.4</ele>
      </trkpt>
      <trkpt lat="42.56948" lon="2.17983">
        <ele>1377.8</ele>
      </trkpt>
      <trkpt lat="42.56954" lon="2.1799">
        <ele>1377.8</ele>
      </trkpt>
      <trkpt lat="42.56961" lon="2.17997">
        <ele>1378</ele>
      </trkpt>
      <trkpt lat="42.56965" lon="2.18003">
        <ele>1377.3</ele>
      </trkpt>
      <trkpt lat="42.56968" lon="2.18009">
        <ele>1376.1</ele>
      </trkpt>
      <trkpt lat="42.56972" lon="2.18017">
        <ele>1374.4</ele>
      </trkpt>
      <trkpt lat="42.56974" lon="2.18022">
        <ele>1373.2</ele>
      </trkpt>
      <trkpt lat="42.56977" lon="2.18027">
        <ele>1372.3</ele>
      </trkpt>
      <trkpt lat="42.5698" lon="2.18031">
        <ele>1371.7</ele>
      </trkpt>
      <trkpt lat="42.56983" lon="2.18035">
        <ele>1371.1</ele>
      </trkpt>
      <trkpt lat="42.56984" lon="2.18035">
        <ele>1371.3</ele>
      </trkpt>
      <trkpt lat="42.56988" lon="2.1804">
        <ele>1370.6</ele>
      </trkpt>
      <trkpt lat="42.56992" lon="2.18042">
        <ele>1370.9</ele>
      </trkpt>
      <trkpt lat="42.56996" lon="2.18044">
        <ele>1371.2</ele>
      </trkpt>
      <trkpt lat="42.57" lon="2.18046">
        <ele>1371.4</ele>
      </trkpt>
      <trkpt lat="42.57004" lon="2.18048">
        <ele>1371.8</ele>
      </trkpt>
      <trkpt lat="42.57007" lon="2.18051">
        <ele>1371.5</ele>
      </trkpt>
      <trkpt lat="42.5701" lon="2.18056">
        <ele>1370.4</ele>
      </trkpt>
      <trkpt lat="42.57013" lon="2.1806">
        <ele>1369.7</ele>
      </trkpt>
      <trkpt lat="42.57018" lon="2.18065">
        <ele>1369.2</ele>
      </trkpt>
      <trkpt lat="42.57022" lon="2.18073">
        <ele>1367.2</ele>
      </trkpt>
      <trkpt lat="42.57025" lon="2.18077">
        <ele>1366.4</ele>
      </trkpt>
      <trkpt lat="42.57027" lon="2.1808">
        <ele>1365.7</ele>
      </trkpt>
      <trkpt lat="42.5703" lon="2.18083">
        <ele>1365.3</ele>
      </trkpt>
      <trkpt lat="42.57034" lon="2.18086">
        <ele>1365.4</ele>
      </trkpt>
      <trkpt lat="42.57038" lon="2.18089">
        <ele>1365.5</ele>
      </trkpt>
      <trkpt lat="42.57047" lon="2.18093">
        <ele>1366.4</ele>
      </trkpt>
      <trkpt lat="42.57057" lon="2.18098">
        <ele>1367.2</ele>
      </trkpt>
      <trkpt lat="42.57069" lon="2.18102">
        <ele>1368.7</ele>
      </trkpt>
      <trkpt lat="42.5708" lon="2.18107">
        <ele>1369.6</ele>
      </trkpt>
      <trkpt lat="42.57089" lon="2.18111">
        <ele>1370.3</ele>
      </trkpt>
      <trkpt lat="42.57095" lon="2.18114">
        <ele>1370.7</ele>
      </trkpt>
      <trkpt lat="42.57098" lon="2.18116">
        <ele>1370.7</ele>
      </trkpt>
      <trkpt lat="42.57101" lon="2.18119">
        <ele>1370.4</ele>
      </trkpt>
      <trkpt lat="42.57104" lon="2.18123">
        <ele>1369.8</ele>
      </trkpt>
      <trkpt lat="42.57109" lon="2.18129">
        <ele>1369.1</ele>
      </trkpt>
      <trkpt lat="42.57116" lon="2.18139">
        <ele>1367.5</ele>
      </trkpt>
      <trkpt lat="42.57126" lon="2.18157">
        <ele>1364.3</ele>
      </trkpt>
      <trkpt lat="42.57133" lon="2.1817">
        <ele>1362</ele>
      </trkpt>
      <trkpt lat="42.57141" lon="2.18181">
        <ele>1360.7</ele>
      </trkpt>
      <trkpt lat="42.57146" lon="2.18189">
        <ele>1359.5</ele>
      </trkpt>
      <trkpt lat="42.57152" lon="2.18194">
        <ele>1359.3</ele>
      </trkpt>
      <trkpt lat="42.57161" lon="2.18203">
        <ele>1358.5</ele>
      </trkpt>
      <trkpt lat="42.57172" lon="2.18219">
        <ele>1356.2</ele>
      </trkpt>
      <trkpt lat="42.57181" lon="2.18232">
        <ele>1354.7</ele>
      </trkpt>
      <trkpt lat="42.57187" lon="2.18238">
        <ele>1354.6</ele>
      </trkpt>
      <trkpt lat="42.57191" lon="2.18244">
        <ele>1353.9</ele>
      </trkpt>
      <trkpt lat="42.57194" lon="2.1825">
        <ele>1352.9</ele>
      </trkpt>
      <trkpt lat="42.57196" lon="2.18254">
        <ele>1352.6</ele>
      </trkpt>
      <trkpt lat="42.57198" lon="2.18259">
        <ele>1352</ele>
      </trkpt>
      <trkpt lat="42.57201" lon="2.18263">
        <ele>1352</ele>
      </trkpt>
      <trkpt lat="42.57203" lon="2.18265">
        <ele>1352.1</ele>
      </trkpt>
      <trkpt lat="42.57207" lon="2.1827">
        <ele>1352.1</ele>
      </trkpt>
      <trkpt lat="42.57214" lon="2.18277">
        <ele>1352.4</ele>
      </trkpt>
      <trkpt lat="42.57219" lon="2.18282">
        <ele>1352.6</ele>
      </trkpt>
      <trkpt lat="42.57226" lon="2.18287">
        <ele>1353.3</ele>
      </trkpt>
      <trkpt lat="42.57232" lon="2.18292">
        <ele>1353.7</ele>
      </trkpt>
      <trkpt lat="42.57236" lon="2.18295">
        <ele>1354</ele>
      </trkpt>
      <trkpt lat="42.5724" lon="2.18299">
        <ele>1354.1</ele>
      </trkpt>
      <trkpt lat="42.57241" lon="2.18302">
        <ele>1353.6</ele>
      </trkpt>
      <trkpt lat="42.57241" lon="2.18306">
        <ele>1352.6</ele>
      </trkpt>
      <trkpt lat="42.57241" lon="2.18309">
        <ele>1351.8</ele>
      </trkpt>
      <trkpt lat="42.5724" lon="2.18313">
        <ele>1350.6</ele>
      </trkpt>
      <trkpt lat="42.57239" lon="2.18315">
        <ele>1349.9</ele>
      </trkpt>
      <trkpt lat="42.57239" lon="2.18315">
        <ele>1349.9</ele>
      </trkpt>
      <trkpt lat="42.57236" lon="2.18317">
        <ele>1348.6</ele>
      </trkpt>
      <trkpt lat="42.57233" lon="2.18317">
        <ele>1347.9</ele>
      </trkpt>
      <trkpt lat="42.57229" lon="2.18315">
        <ele>1347.4</ele>
      </trkpt>
      <trkpt lat="42.57212" lon="2.18297">
        <ele>1347.2</ele>
      </trkpt>
      <trkpt lat="42.57194" lon="2.18278">
        <ele>1346.7</ele>
      </trkpt>
      <trkpt lat="42.57191" lon="2.18277">
        <ele>1346.1</ele>
      </trkpt>
      <trkpt lat="42.57187" lon="2.18278">
        <ele>1344.8</ele>
      </trkpt>
      <trkpt lat="42.57185" lon="2.18279">
        <ele>1344.1</ele>
      </trkpt>
      <trkpt lat="42.57183" lon="2.18281">
        <ele>1343.1</ele>
      </trkpt>
      <trkpt lat="42.57181" lon="2.18286">
        <ele>1341.5</ele>
      </trkpt>
      <trkpt lat="42.57183" lon="2.18291">
        <ele>1341</ele>
      </trkpt>
      <trkpt lat="42.57184" lon="2.18294">
        <ele>1340.6</ele>
      </trkpt>
      <trkpt lat="42.57188" lon="2.18298">
        <ele>1340.8</ele>
      </trkpt>
      <trkpt lat="42.57196" lon="2.18307">
        <ele>1340.9</ele>
      </trkpt>
      <trkpt lat="42.57201" lon="2.18312">
        <ele>1341</ele>
      </trkpt>
      <trkpt lat="42.57204" lon="2.18318">
        <ele>1340.4</ele>
      </trkpt>
      <trkpt lat="42.57208" lon="2.18326">
        <ele>1339.6</ele>
      </trkpt>
      <trkpt lat="42.57211" lon="2.18332">
        <ele>1338.9</ele>
      </trkpt>
      <trkpt lat="42.57213" lon="2.18341">
        <ele>1338.1</ele>
      </trkpt>
      <trkpt lat="42.57219" lon="2.18359">
        <ele>1337</ele>
      </trkpt>
      <trkpt lat="42.57221" lon="2.18364">
        <ele>1336.8</ele>
      </trkpt>
      <trkpt lat="42.57223" lon="2.1837">
        <ele>1336.4</ele>
      </trkpt>
      <trkpt lat="42.57225" lon="2.18372">
        <ele>1336.6</ele>
      </trkpt>
      <trkpt lat="42.57228" lon="2.18376">
        <ele>1336.7</ele>
      </trkpt>
      <trkpt lat="42.57232" lon="2.18379">
        <ele>1337.2</ele>
      </trkpt>
      <trkpt lat="42.57236" lon="2.18381">
        <ele>1337.9</ele>
      </trkpt>
      <trkpt lat="42.57239" lon="2.18383">
        <ele>1338.3</ele>
      </trkpt>
      <trkpt lat="42.57242" lon="2.18386">
        <ele>1338.6</ele>
      </trkpt>
      <trkpt lat="42.57243" lon="2.18388">
        <ele>1338.5</ele>
      </trkpt>
      <trkpt lat="42.57244" lon="2.18392">
        <ele>1338.2</ele>
      </trkpt>
      <trkpt lat="42.57243" lon="2.18397">
        <ele>1337.2</ele>
      </trkpt>
      <trkpt lat="42.57243" lon="2.18401">
        <ele>1336.6</ele>
      </trkpt>
      <trkpt lat="42.57243" lon="2.18401">
        <ele>1336.6</ele>
      </trkpt>
      <trkpt lat="42.57239" lon="2.18401">
        <ele>1335.7</ele>
      </trkpt>
      <trkpt lat="42.57234" lon="2.184">
        <ele>1334.7</ele>
      </trkpt>
      <trkpt lat="42.5723" lon="2.18396">
        <ele>1334.4</ele>
      </trkpt>
      <trkpt lat="42.57219" lon="2.18388">
        <ele>1332.9</ele>
      </trkpt>
      <trkpt lat="42.57208" lon="2.1838">
        <ele>1331.5</ele>
      </trkpt>
      <trkpt lat="42.57196" lon="2.18369">
        <ele>1330.2</ele>
      </trkpt>
      <trkpt lat="42.57181" lon="2.18357">
        <ele>1328.3</ele>
      </trkpt>
      <trkpt lat="42.57167" lon="2.18346">
        <ele>1326.4</ele>
      </trkpt>
      <trkpt lat="42.57147" lon="2.18328">
        <ele>1326.2</ele>
      </trkpt>
      <trkpt lat="42.57139" lon="2.18323">
        <ele>1326</ele>
      </trkpt>
      <trkpt lat="42.57135" lon="2.1832">
        <ele>1326</ele>
      </trkpt>
      <trkpt lat="42.57128" lon="2.18317">
        <ele>1325.6</ele>
      </trkpt>
      <trkpt lat="42.5712" lon="2.18312">
        <ele>1325.3</ele>
      </trkpt>
      <trkpt lat="42.57108" lon="2.18306">
        <ele>1324.7</ele>
      </trkpt>
      <trkpt lat="42.57089" lon="2.18297">
        <ele>1323.4</ele>
      </trkpt>
      <trkpt lat="42.5707" lon="2.18286">
        <ele>1322.8</ele>
      </trkpt>
      <trkpt lat="42.57047" lon="2.18274">
        <ele>1322.4</ele>
      </trkpt>
      <trkpt lat="42.5704" lon="2.1827">
        <ele>1322.5</ele>
      </trkpt>
      <trkpt lat="42.57034" lon="2.1827">
        <ele>1321.8</ele>
      </trkpt>
      <trkpt lat="42.57029" lon="2.18268">
        <ele>1321.7</ele>
      </trkpt>
      <trkpt lat="42.57024" lon="2.18267">
        <ele>1321.4</ele>
      </trkpt>
      <trkpt lat="42.57017" lon="2.18267">
        <ele>1320.6</ele>
      </trkpt>
      <trkpt lat="42.57011" lon="2.18268">
        <ele>1319.7</ele>
      </trkpt>
      <trkpt lat="42.57004" lon="2.18268">
        <ele>1318.9</ele>
      </trkpt>
      <trkpt lat="42.56997" lon="2.18268">
        <ele>1317.6</ele>
      </trkpt>
      <trkpt lat="42.56993" lon="2.18268">
        <ele>1316.6</ele>
      </trkpt>
      <trkpt lat="42.56987" lon="2.18268">
        <ele>1314.9</ele>
      </trkpt>
      <trkpt lat="42.56983" lon="2.18267">
        <ele>1314.1</ele>
      </trkpt>
      <trkpt lat="42.5698" lon="2.18267">
        <ele>1313.3</ele>
      </trkpt>
      <trkpt lat="42.56976" lon="2.18266">
        <ele>1312.5</ele>
      </trkpt>
      <trkpt lat="42.56972" lon="2.18264">
        <ele>1311.9</ele>
      </trkpt>
      <trkpt lat="42.56965" lon="2.1826">
        <ele>1311.1</ele>
      </trkpt>
      <trkpt lat="42.56955" lon="2.18254">
        <ele>1310</ele>
      </trkpt>
      <trkpt lat="42.56944" lon="2.18248">
        <ele>1308.6</ele>
      </trkpt>
      <trkpt lat="42.56936" lon="2.18242">
        <ele>1307.8</ele>
      </trkpt>
      <trkpt lat="42.56931" lon="2.18238">
        <ele>1307.4</ele>
      </trkpt>
      <trkpt lat="42.56926" lon="2.18236">
        <ele>1306.5</ele>
      </trkpt>
      <trkpt lat="42.56923" lon="2.18233">
        <ele>1306.5</ele>
      </trkpt>
      <trkpt lat="42.56919" lon="2.1823">
        <ele>1306.1</ele>
      </trkpt>
      <trkpt lat="42.56916" lon="2.18226">
        <ele>1306.3</ele>
      </trkpt>
      <trkpt lat="42.56912" lon="2.18221">
        <ele>1306.7</ele>
      </trkpt>
      <trkpt lat="42.5691" lon="2.18216">
        <ele>1307.4</ele>
      </trkpt>
      <trkpt lat="42.56909" lon="2.18212">
        <ele>1308.1</ele>
      </trkpt>
      <trkpt lat="42.56904" lon="2.182">
        <ele>1309.9</ele>
      </trkpt>
      <trkpt lat="42.56902" lon="2.18191">
        <ele>1311.6</ele>
      </trkpt>
      <trkpt lat="42.56898" lon="2.18182">
        <ele>1312.9</ele>
      </trkpt>
      <trkpt lat="42.56894" lon="2.18176">
        <ele>1313.5</ele>
      </trkpt>
      <trkpt lat="42.5689" lon="2.18172">
        <ele>1313.6</ele>
      </trkpt>
      <trkpt lat="42.56886" lon="2.18168">
        <ele>1313.8</ele>
      </trkpt>
      <trkpt lat="42.56879" lon="2.18164">
        <ele>1313.4</ele>
      </trkpt>
      <trkpt lat="42.56871" lon="2.18158">
        <ele>1313.3</ele>
      </trkpt>
      <trkpt lat="42.56864" lon="2.18154">
        <ele>1313</ele>
      </trkpt>
      <trkpt lat="42.5686" lon="2.18152">
        <ele>1312.7</ele>
      </trkpt>
      <trkpt lat="42.56856" lon="2.18151">
        <ele>1312.2</ele>
      </trkpt>
      <trkpt lat="42.56851" lon="2.1815">
        <ele>1311.5</ele>
      </trkpt>
      <trkpt lat="42.56843" lon="2.1815">
        <ele>1310</ele>
      </trkpt>
      <trkpt lat="42.56826" lon="2.18149">
        <ele>1308</ele>
      </trkpt>
      <trkpt lat="42.56805" lon="2.18148">
        <ele>1307</ele>
      </trkpt>
      <trkpt lat="42.56796" lon="2.18148">
        <ele>1306.4</ele>
      </trkpt>
      <trkpt lat="42.56791" lon="2.18149">
        <ele>1305.9</ele>
      </trkpt>
      <trkpt lat="42.56786" lon="2.18151">
        <ele>1305.1</ele>
      </trkpt>
      <trkpt lat="42.56782" lon="2.18154">
        <ele>1304.3</ele>
      </trkpt>
      <trkpt lat="42.56777" lon="2.18159">
        <ele>1302.9</ele>
      </trkpt>
      <trkpt lat="42.56769" lon="2.18167">
        <ele>1300.8</ele>
      </trkpt>
      <trkpt lat="42.56765" lon="2.1817">
        <ele>1299.9</ele>
      </trkpt>
      <trkpt lat="42.56761" lon="2.18172">
        <ele>1299.2</ele>
      </trkpt>
      <trkpt lat="42.56756" lon="2.18173">
        <ele>1298.7</ele>
      </trkpt>
      <trkpt lat="42.56744" lon="2.18174">
        <ele>1297.9</ele>
      </trkpt>
      <trkpt lat="42.56727" lon="2.18173">
        <ele>1297.4</ele>
      </trkpt>
      <trkpt lat="42.5672" lon="2.18172">
        <ele>1297.3</ele>
      </trkpt>
      <trkpt lat="42.56716" lon="2.18171">
        <ele>1297.3</ele>
      </trkpt>
      <trkpt lat="42.56713" lon="2.1817">
        <ele>1297.3</ele>
      </trkpt>
      <trkpt lat="42.5671" lon="2.18169">
        <ele>1297.3</ele>
      </trkpt>
      <trkpt lat="42.56707" lon="2.18167">
        <ele>1297.4</ele>
      </trkpt>
      <trkpt lat="42.56703" lon="2.18162">
        <ele>1297.9</ele>
      </trkpt>
      <trkpt lat="42.56697" lon="2.18152">
        <ele>1299</ele>
      </trkpt>
      <trkpt lat="42.56693" lon="2.18145">
        <ele>1299.7</ele>
      </trkpt>
      <trkpt lat="42.5669" lon="2.18141">
        <ele>1300</ele>
      </trkpt>
      <trkpt lat="42.56687" lon="2.18139">
        <ele>1300</ele>
      </trkpt>
      <trkpt lat="42.56683" lon="2.18138">
        <ele>1299.8</ele>
      </trkpt>
      <trkpt lat="42.56678" lon="2.18138">
        <ele>1299.4</ele>
      </trkpt>
      <trkpt lat="42.5667" lon="2.18141">
        <ele>1298.4</ele>
      </trkpt>
      <trkpt lat="42.56663" lon="2.18144">
        <ele>1298.7</ele>
      </trkpt>
      <trkpt lat="42.56655" lon="2.18149">
        <ele>1300.5</ele>
      </trkpt>
      <trkpt lat="42.56652" lon="2.18152">
        <ele>1301.2</ele>
      </trkpt>
      <trkpt lat="42.5665" lon="2.18157">
        <ele>1301.4</ele>
      </trkpt>
      <trkpt lat="42.56649" lon="2.18164">
        <ele>1301.3</ele>
      </trkpt>
      <trkpt lat="42.56649" lon="2.18175">
        <ele>1301.3</ele>
      </trkpt>
      <trkpt lat="42.56651" lon="2.18184">
        <ele>1300.7</ele>
      </trkpt>
      <trkpt lat="42.56656" lon="2.18199">
        <ele>1299</ele>
      </trkpt>
      <trkpt lat="42.56662" lon="2.18215">
        <ele>1296.5</ele>
      </trkpt>
      <trkpt lat="42.56665" lon="2.18225">
        <ele>1295.1</ele>
      </trkpt>
      <trkpt lat="42.56671" lon="2.18235">
        <ele>1293.6</ele>
      </trkpt>
      <trkpt lat="42.56675" lon="2.18241">
        <ele>1292.8</ele>
      </trkpt>
      <trkpt lat="42.56681" lon="2.18249">
        <ele>1291.5</ele>
      </trkpt>
      <trkpt lat="42.5669" lon="2.18261">
        <ele>1291.3</ele>
      </trkpt>
      <trkpt lat="42.56709" lon="2.18286">
        <ele>1289.6</ele>
      </trkpt>
      <trkpt lat="42.56722" lon="2.18304">
        <ele>1287.1</ele>
      </trkpt>
      <trkpt lat="42.56732" lon="2.18322">
        <ele>1284.5</ele>
      </trkpt>
      <trkpt lat="42.56739" lon="2.18335">
        <ele>1282.7</ele>
      </trkpt>
      <trkpt lat="42.56747" lon="2.18347">
        <ele>1282.8</ele>
      </trkpt>
      <trkpt lat="42.56755" lon="2.18361">
        <ele>1284.3</ele>
      </trkpt>
      <trkpt lat="42.56761" lon="2.18369">
        <ele>1285.1</ele>
      </trkpt>
      <trkpt lat="42.56772" lon="2.18376">
        <ele>1284.3</ele>
      </trkpt>
      <trkpt lat="42.56777" lon="2.18379">
        <ele>1283.9</ele>
      </trkpt>
      <trkpt lat="42.56785" lon="2.18382">
        <ele>1282.6</ele>
      </trkpt>
      <trkpt lat="42.56791" lon="2.18384">
        <ele>1281.6</ele>
      </trkpt>
      <trkpt lat="42.56795" lon="2.18386">
        <ele>1281</ele>
      </trkpt>
      <trkpt lat="42.56802" lon="2.18387">
        <ele>1279.5</ele>
      </trkpt>
      <trkpt lat="42.56811" lon="2.18391">
        <ele>1277.9</ele>
      </trkpt>
      <trkpt lat="42.56816" lon="2.18392">
        <ele>1276.7</ele>
      </trkpt>
      <trkpt lat="42.56821" lon="2.18393">
        <ele>1275.6</ele>
      </trkpt>
      <trkpt lat="42.56824" lon="2.18393">
        <ele>1274.8</ele>
      </trkpt>
      <trkpt lat="42.56829" lon="2.18394">
        <ele>1273.7</ele>
      </trkpt>
      <trkpt lat="42.56838" lon="2.18392">
        <ele>1271.8</ele>
      </trkpt>
      <trkpt lat="42.56846" lon="2.1839">
        <ele>1270.8</ele>
      </trkpt>
      <trkpt lat="42.56853" lon="2.18389">
        <ele>1270</ele>
      </trkpt>
      <trkpt lat="42.56858" lon="2.1839">
        <ele>1269.5</ele>
      </trkpt>
      <trkpt lat="42.56861" lon="2.18392">
        <ele>1269.2</ele>
      </trkpt>
      <trkpt lat="42.56865" lon="2.18394">
        <ele>1268.7</ele>
      </trkpt>
      <trkpt lat="42.56867" lon="2.18397">
        <ele>1268.4</ele>
      </trkpt>
      <trkpt lat="42.56871" lon="2.18407">
        <ele>1267.3</ele>
      </trkpt>
      <trkpt lat="42.56873" lon="2.18414">
        <ele>1266.6</ele>
      </trkpt>
      <trkpt lat="42.56874" lon="2.18421">
        <ele>1266.6</ele>
      </trkpt>
      <trkpt lat="42.56875" lon="2.1843">
        <ele>1267.2</ele>
      </trkpt>
      <trkpt lat="42.56875" lon="2.18439">
        <ele>1268</ele>
      </trkpt>
      <trkpt lat="42.56877" lon="2.18463">
        <ele>1269.4</ele>
      </trkpt>
      <trkpt lat="42.5688" lon="2.18478">
        <ele>1269.3</ele>
      </trkpt>
      <trkpt lat="42.56884" lon="2.1849">
        <ele>1268.3</ele>
      </trkpt>
      <trkpt lat="42.56887" lon="2.18502">
        <ele>1267.7</ele>
      </trkpt>
      <trkpt lat="42.56891" lon="2.18513">
        <ele>1267.7</ele>
      </trkpt>
      <trkpt lat="42.56896" lon="2.18525">
        <ele>1267.2</ele>
      </trkpt>
      <trkpt lat="42.56901" lon="2.18539">
        <ele>1267</ele>
      </trkpt>
      <trkpt lat="42.56907" lon="2.1855">
        <ele>1265.4</ele>
      </trkpt>
      <trkpt lat="42.56914" lon="2.1856">
        <ele>1262.9</ele>
      </trkpt>
      <trkpt lat="42.56924" lon="2.18573">
        <ele>1260.5</ele>
      </trkpt>
      <trkpt lat="42.5693" lon="2.18581">
        <ele>1258.9</ele>
      </trkpt>
      <trkpt lat="42.56936" lon="2.18588">
        <ele>1257.3</ele>
      </trkpt>
      <trkpt lat="42.56938" lon="2.18592">
        <ele>1257.1</ele>
      </trkpt>
      <trkpt lat="42.56942" lon="2.18598">
        <ele>1256.3</ele>
      </trkpt>
      <trkpt lat="42.56945" lon="2.18605">
        <ele>1256.1</ele>
      </trkpt>
      <trkpt lat="42.56948" lon="2.18614">
        <ele>1256.1</ele>
      </trkpt>
      <trkpt lat="42.56951" lon="2.18629">
        <ele>1257</ele>
      </trkpt>
      <trkpt lat="42.56958" lon="2.1865">
        <ele>1256.3</ele>
      </trkpt>
      <trkpt lat="42.56965" lon="2.18667">
        <ele>1254.5</ele>
      </trkpt>
      <trkpt lat="42.56971" lon="2.18681">
        <ele>1253.5</ele>
      </trkpt>
      <trkpt lat="42.56974" lon="2.18691">
        <ele>1253.4</ele>
      </trkpt>
      <trkpt lat="42.56977" lon="2.187">
        <ele>1253.2</ele>
      </trkpt>
      <trkpt lat="42.56979" lon="2.18707">
        <ele>1253.1</ele>
      </trkpt>
      <trkpt lat="42.56982" lon="2.18718">
        <ele>1253.1</ele>
      </trkpt>
      <trkpt lat="42.56985" lon="2.18729">
        <ele>1253</ele>
      </trkpt>
      <trkpt lat="42.56987" lon="2.18737">
        <ele>1253</ele>
      </trkpt>
      <trkpt lat="42.56989" lon="2.18746">
        <ele>1253.1</ele>
      </trkpt>
      <trkpt lat="42.56992" lon="2.18755">
        <ele>1252.8</ele>
      </trkpt>
      <trkpt lat="42.56994" lon="2.18762">
        <ele>1253</ele>
      </trkpt>
      <trkpt lat="42.56998" lon="2.18769">
        <ele>1251.7</ele>
      </trkpt>
      <trkpt lat="42.57001" lon="2.18776">
        <ele>1251.4</ele>
      </trkpt>
      <trkpt lat="42.57005" lon="2.18782">
        <ele>1250.8</ele>
      </trkpt>
      <trkpt lat="42.5701" lon="2.18789">
        <ele>1249.8</ele>
      </trkpt>
      <trkpt lat="42.57017" lon="2.188">
        <ele>1248.4</ele>
      </trkpt>
      <trkpt lat="42.57026" lon="2.18812">
        <ele>1246</ele>
      </trkpt>
      <trkpt lat="42.57035" lon="2.18821">
        <ele>1242.6</ele>
      </trkpt>
      <trkpt lat="42.57047" lon="2.18836">
        <ele>1238.7</ele>
      </trkpt>
      <trkpt lat="42.57054" lon="2.18846">
        <ele>1237.4</ele>
      </trkpt>
      <trkpt lat="42.57058" lon="2.18852">
        <ele>1236.7</ele>
      </trkpt>
      <trkpt lat="42.57064" lon="2.1886">
        <ele>1235.4</ele>
      </trkpt>
      <trkpt lat="42.57069" lon="2.18868">
        <ele>1234.6</ele>
      </trkpt>
      <trkpt lat="42.57073" lon="2.18876">
        <ele>1234.4</ele>
      </trkpt>
      <trkpt lat="42.5708" lon="2.18886">
        <ele>1232.9</ele>
      </trkpt>
      <trkpt lat="42.57085" lon="2.18897">
        <ele>1233.1</ele>
      </trkpt>
      <trkpt lat="42.57092" lon="2.18912">
        <ele>1233.7</ele>
      </trkpt>
      <trkpt lat="42.57098" lon="2.18925">
        <ele>1233.3</ele>
      </trkpt>
      <trkpt lat="42.57103" lon="2.18938">
        <ele>1233</ele>
      </trkpt>
      <trkpt lat="42.57107" lon="2.18949">
        <ele>1232.8</ele>
      </trkpt>
      <trkpt lat="42.57109" lon="2.18957">
        <ele>1233.1</ele>
      </trkpt>
      <trkpt lat="42.57111" lon="2.1896">
        <ele>1232.5</ele>
      </trkpt>
      <trkpt lat="42.57116" lon="2.1897">
        <ele>1231.4</ele>
      </trkpt>
      <trkpt lat="42.57119" lon="2.18977">
        <ele>1230.9</ele>
      </trkpt>
      <trkpt lat="42.57126" lon="2.18989">
        <ele>1228.8</ele>
      </trkpt>
      <trkpt lat="42.57134" lon="2.19003">
        <ele>1226.1</ele>
      </trkpt>
      <trkpt lat="42.57139" lon="2.19009">
        <ele>1223.9</ele>
      </trkpt>
      <trkpt lat="42.57142" lon="2.19019">
        <ele>1223.1</ele>
      </trkpt>
      <trkpt lat="42.57144" lon="2.19025">
        <ele>1222.6</ele>
      </trkpt>
      <trkpt lat="42.57145" lon="2.19032">
        <ele>1222.7</ele>
      </trkpt>
      <trkpt lat="42.57146" lon="2.1904">
        <ele>1222.9</ele>
      </trkpt>
      <trkpt lat="42.57146" lon="2.1905">
        <ele>1223.8</ele>
      </trkpt>
      <trkpt lat="42.57146" lon="2.19062">
        <ele>1225</ele>
      </trkpt>
      <trkpt lat="42.57146" lon="2.19065">
        <ele>1225.3</ele>
      </trkpt>
      <trkpt lat="42.57148" lon="2.19092">
        <ele>1226.1</ele>
      </trkpt>
      <trkpt lat="42.5715" lon="2.19129">
        <ele>1226</ele>
      </trkpt>
      <trkpt lat="42.57151" lon="2.19137">
        <ele>1225.6</ele>
      </trkpt>
      <trkpt lat="42.57152" lon="2.19145">
        <ele>1225.2</ele>
      </trkpt>
      <trkpt lat="42.57154" lon="2.19153">
        <ele>1224.1</ele>
      </trkpt>
      <trkpt lat="42.57158" lon="2.19161">
        <ele>1221.7</ele>
      </trkpt>
      <trkpt lat="42.57161" lon="2.19168">
        <ele>1219.9</ele>
      </trkpt>
      <trkpt lat="42.57166" lon="2.19175">
        <ele>1217.3</ele>
      </trkpt>
      <trkpt lat="42.57171" lon="2.19182">
        <ele>1215.3</ele>
      </trkpt>
      <trkpt lat="42.57176" lon="2.19189">
        <ele>1213.2</ele>
      </trkpt>
      <trkpt lat="42.57181" lon="2.19196">
        <ele>1211.1</ele>
      </trkpt>
      <trkpt lat="42.57183" lon="2.19202">
        <ele>1210.4</ele>
      </trkpt>
      <trkpt lat="42.57186" lon="2.19209">
        <ele>1209.3</ele>
      </trkpt>
      <trkpt lat="42.57185" lon="2.19212">
        <ele>1210.1</ele>
      </trkpt>
      <trkpt lat="42.57187" lon="2.19237">
        <ele>1211</ele>
      </trkpt>
      <trkpt lat="42.57185" lon="2.19264">
        <ele>1212.6</ele>
      </trkpt>
      <trkpt lat="42.57175" lon="2.1933">
        <ele>1215.1</ele>
      </trkpt>
      <trkpt lat="42.57175" lon="2.19351">
        <ele>1216.2</ele>
      </trkpt>
      <trkpt lat="42.57174" lon="2.19353">
        <ele>1217</ele>
      </trkpt>
      <trkpt lat="42.57178" lon="2.19372">
        <ele>1216</ele>
      </trkpt>
      <trkpt lat="42.57184" lon="2.19388">
        <ele>1213.7</ele>
      </trkpt>
      <trkpt lat="42.57191" lon="2.19399">
        <ele>1210.5</ele>
      </trkpt>
      <trkpt lat="42.57212" lon="2.19427">
        <ele>1202.2</ele>
      </trkpt>
      <trkpt lat="42.57233" lon="2.19454">
        <ele>1196.2</ele>
      </trkpt>
      <trkpt lat="42.5724" lon="2.1946">
        <ele>1193.6</ele>
      </trkpt>
      <trkpt lat="42.57247" lon="2.1947">
        <ele>1191.9</ele>
      </trkpt>
      <trkpt lat="42.5725" lon="2.19473">
        <ele>1190.8</ele>
      </trkpt>
      <trkpt lat="42.57253" lon="2.19478">
        <ele>1190.2</ele>
      </trkpt>
      <trkpt lat="42.57254" lon="2.19482">
        <ele>1190.5</ele>
      </trkpt>
      <trkpt lat="42.57256" lon="2.19487">
        <ele>1190.4</ele>
      </trkpt>
      <trkpt lat="42.57259" lon="2.19492">
        <ele>1189.6</ele>
      </trkpt>
      <trkpt lat="42.5726" lon="2.19498">
        <ele>1190.2</ele>
      </trkpt>
      <trkpt lat="42.57262" lon="2.19504">
        <ele>1189.7</ele>
      </trkpt>
      <trkpt lat="42.57264" lon="2.19509">
        <ele>1188.9</ele>
      </trkpt>
      <trkpt lat="42.57265" lon="2.19516">
        <ele>1188.9</ele>
      </trkpt>
      <trkpt lat="42.57267" lon="2.19524">
        <ele>1188.3</ele>
      </trkpt>
      <trkpt lat="42.57267" lon="2.19533">
        <ele>1189.1</ele>
      </trkpt>
      <trkpt lat="42.57267" lon="2.19544">
        <ele>1190.1</ele>
      </trkpt>
      <trkpt lat="42.57267" lon="2.19549">
        <ele>1190.5</ele>
      </trkpt>
      <trkpt lat="42.57267" lon="2.19552">
        <ele>1190.8</ele>
      </trkpt>
      <trkpt lat="42.57269" lon="2.19558">
        <ele>1190</ele>
      </trkpt>
      <trkpt lat="42.5727" lon="2.19565">
        <ele>1190</ele>
      </trkpt>
      <trkpt lat="42.57272" lon="2.19571">
        <ele>1189.1</ele>
      </trkpt>
      <trkpt lat="42.57273" lon="2.19575">
        <ele>1188.8</ele>
      </trkpt>
      <trkpt lat="42.57275" lon="2.19582">
        <ele>1188.1</ele>
      </trkpt>
      <trkpt lat="42.57277" lon="2.1959">
        <ele>1186.8</ele>
      </trkpt>
      <trkpt lat="42.57279" lon="2.19598">
        <ele>1185.4</ele>
      </trkpt>
      <trkpt lat="42.5728" lon="2.19605">
        <ele>1184.7</ele>
      </trkpt>
      <trkpt lat="42.57283" lon="2.19618">
        <ele>1182.8</ele>
      </trkpt>
      <trkpt lat="42.57286" lon="2.19626">
        <ele>1181</ele>
      </trkpt>
      <trkpt lat="42.57288" lon="2.19632">
        <ele>1179.8</ele>
      </trkpt>
      <trkpt lat="42.57289" lon="2.19636">
        <ele>1179.2</ele>
      </trkpt>
      <trkpt lat="42.5729" lon="2.1964">
        <ele>1178.7</ele>
      </trkpt>
      <trkpt lat="42.57291" lon="2.19644">
        <ele>1178.1</ele>
      </trkpt>
      <trkpt lat="42.57291" lon="2.19648">
        <ele>1178.2</ele>
      </trkpt>
      <trkpt lat="42.57291" lon="2.19651">
        <ele>1178.2</ele>
      </trkpt>
      <trkpt lat="42.57291" lon="2.19655">
        <ele>1178.2</ele>
      </trkpt>
      <trkpt lat="42.5729" lon="2.19659">
        <ele>1178.8</ele>
      </trkpt>
      <trkpt lat="42.57289" lon="2.19662">
        <ele>1179.4</ele>
      </trkpt>
      <trkpt lat="42.57287" lon="2.19668">
        <ele>1180.2</ele>
      </trkpt>
      <trkpt lat="42.57279" lon="2.1968">
        <ele>1180.9</ele>
      </trkpt>
      <trkpt lat="42.57278" lon="2.19681">
        <ele>1181.2</ele>
      </trkpt>
      <trkpt lat="42.57246" lon="2.19719">
        <ele>1185</ele>
      </trkpt>
      <trkpt lat="42.57228" lon="2.19745">
        <ele>1183.6</ele>
      </trkpt>
      <trkpt lat="42.57211" lon="2.19773">
        <ele>1182.1</ele>
      </trkpt>
      <trkpt lat="42.57186" lon="2.19816">
        <ele>1179.9</ele>
      </trkpt>
      <trkpt lat="42.57178" lon="2.19834">
        <ele>1178.1</ele>
      </trkpt>
      <trkpt lat="42.57171" lon="2.19858">
        <ele>1175.5</ele>
      </trkpt>
      <trkpt lat="42.57164" lon="2.19896">
        <ele>1169.8</ele>
      </trkpt>
      <trkpt lat="42.57162" lon="2.19902">
        <ele>1169.3</ele>
      </trkpt>
      <trkpt lat="42.57157" lon="2.19919">
        <ele>1167.1</ele>
      </trkpt>
      <trkpt lat="42.57153" lon="2.19927">
        <ele>1166.1</ele>
      </trkpt>
      <trkpt lat="42.57134" lon="2.1997">
        <ele>1157.2</ele>
      </trkpt>
      <trkpt lat="42.5713" lon="2.1998">
        <ele>1154.3</ele>
      </trkpt>
      <trkpt lat="42.57125" lon="2.19991">
        <ele>1151.1</ele>
      </trkpt>
      <trkpt lat="42.57122" lon="2.19997">
        <ele>1149.2</ele>
      </trkpt>
      <trkpt lat="42.5712" lon="2.19999">
        <ele>1148.7</ele>
      </trkpt>
      <trkpt lat="42.57119" lon="2.2">
        <ele>1148.4</ele>
      </trkpt>
      <trkpt lat="42.57116" lon="2.20001">
        <ele>1148.3</ele>
      </trkpt>
      <trkpt lat="42.57113" lon="2.20001">
        <ele>1148.8</ele>
      </trkpt>
      <trkpt lat="42.5711" lon="2.20001">
        <ele>1149.3</ele>
      </trkpt>
      <trkpt lat="42.57106" lon="2.19999">
        <ele>1150.9</ele>
      </trkpt>
      <trkpt lat="42.57099" lon="2.19995">
        <ele>1153.9</ele>
      </trkpt>
      <trkpt lat="42.57088" lon="2.19988">
        <ele>1159.3</ele>
      </trkpt>
      <trkpt lat="42.57073" lon="2.1998">
        <ele>1162.1</ele>
      </trkpt>
      <trkpt lat="42.57063" lon="2.19975">
        <ele>1162.4</ele>
      </trkpt>
      <trkpt lat="42.57055" lon="2.19971">
        <ele>1162.7</ele>
      </trkpt>
      <trkpt lat="42.57052" lon="2.1997">
        <ele>1162.6</ele>
      </trkpt>
      <trkpt lat="42.57047" lon="2.19969">
        <ele>1162</ele>
      </trkpt>
      <trkpt lat="42.57041" lon="2.19969">
        <ele>1160.7</ele>
      </trkpt>
      <trkpt lat="42.57031" lon="2.19971">
        <ele>1157.4</ele>
      </trkpt>
      <trkpt lat="42.57026" lon="2.19971">
        <ele>1156.3</ele>
      </trkpt>
      <trkpt lat="42.57023" lon="2.19972">
        <ele>1155.2</ele>
      </trkpt>
      <trkpt lat="42.57019" lon="2.19971">
        <ele>1154.8</ele>
      </trkpt>
      <trkpt lat="42.57014" lon="2.19968">
        <ele>1155.2</ele>
      </trkpt>
      <trkpt lat="42.57006" lon="2.19962">
        <ele>1156.5</ele>
      </trkpt>
      <trkpt lat="42.57" lon="2.19957">
        <ele>1157.7</ele>
      </trkpt>
      <trkpt lat="42.56994" lon="2.19952">
        <ele>1160</ele>
      </trkpt>
      <trkpt lat="42.56988" lon="2.19951">
        <ele>1160.3</ele>
      </trkpt>
      <trkpt lat="42.56983" lon="2.19947">
        <ele>1162.1</ele>
      </trkpt>
      <trkpt lat="42.56978" lon="2.19945">
        <ele>1162.9</ele>
      </trkpt>
      <trkpt lat="42.56975" lon="2.19943">
        <ele>1163.7</ele>
      </trkpt>
      <trkpt lat="42.5697" lon="2.19941">
        <ele>1164.4</ele>
      </trkpt>
      <trkpt lat="42.56957" lon="2.19939">
        <ele>1164.6</ele>
      </trkpt>
      <trkpt lat="42.56953" lon="2.19938">
        <ele>1164.9</ele>
      </trkpt>
      <trkpt lat="42.56946" lon="2.19937">
        <ele>1165</ele>
      </trkpt>
      <trkpt lat="42.56938" lon="2.19936">
        <ele>1164.9</ele>
      </trkpt>
      <trkpt lat="42.56933" lon="2.19937">
        <ele>1164.3</ele>
      </trkpt>
      <trkpt lat="42.56929" lon="2.19938">
        <ele>1163.7</ele>
      </trkpt>
      <trkpt lat="42.56925" lon="2.19939">
        <ele>1163.1</ele>
      </trkpt>
      <trkpt lat="42.56918" lon="2.19942">
        <ele>1161.6</ele>
      </trkpt>
      <trkpt lat="42.56908" lon="2.19949">
        <ele>1163.4</ele>
      </trkpt>
      <trkpt lat="42.56903" lon="2.19953">
        <ele>1164.6</ele>
      </trkpt>
      <trkpt lat="42.569" lon="2.19958">
        <ele>1164.3</ele>
      </trkpt>
      <trkpt lat="42.56898" lon="2.1996">
        <ele>1164.6</ele>
      </trkpt>
      <trkpt lat="42.56897" lon="2.19964">
        <ele>1163.7</ele>
      </trkpt>
      <trkpt lat="42.56895" lon="2.19971">
        <ele>1162.3</ele>
      </trkpt>
      <trkpt lat="42.56893" lon="2.19979">
        <ele>1160.5</ele>
      </trkpt>
      <trkpt lat="42.56892" lon="2.19986">
        <ele>1158.6</ele>
      </trkpt>
      <trkpt lat="42.56891" lon="2.19995">
        <ele>1155.9</ele>
      </trkpt>
      <trkpt lat="42.56889" lon="2.20004">
        <ele>1153.9</ele>
      </trkpt>
      <trkpt lat="42.56888" lon="2.20013">
        <ele>1151.3</ele>
      </trkpt>
      <trkpt lat="42.56887" lon="2.20021">
        <ele>1149</ele>
      </trkpt>
      <trkpt lat="42.56885" lon="2.20031">
        <ele>1146.6</ele>
      </trkpt>
      <trkpt lat="42.56883" lon="2.2004">
        <ele>1144.6</ele>
      </trkpt>
      <trkpt lat="42.56882" lon="2.20045">
        <ele>1143.3</ele>
      </trkpt>
      <trkpt lat="42.5688" lon="2.20051">
        <ele>1142.3</ele>
      </trkpt>
      <trkpt lat="42.56877" lon="2.20059">
        <ele>1141.1</ele>
      </trkpt>
      <trkpt lat="42.56874" lon="2.20066">
        <ele>1140.2</ele>
      </trkpt>
      <trkpt lat="42.5687" lon="2.20074">
        <ele>1139.4</ele>
      </trkpt>
      <trkpt lat="42.56866" lon="2.20081">
        <ele>1139</ele>
      </trkpt>
      <trkpt lat="42.56864" lon="2.20087">
        <ele>1137.7</ele>
      </trkpt>
      <trkpt lat="42.56861" lon="2.20094">
        <ele>1136.5</ele>
      </trkpt>
      <trkpt lat="42.56858" lon="2.20105">
        <ele>1133.6</ele>
      </trkpt>
      <trkpt lat="42.56853" lon="2.20115">
        <ele>1132.1</ele>
      </trkpt>
      <trkpt lat="42.56847" lon="2.20128">
        <ele>1129.7</ele>
      </trkpt>
      <trkpt lat="42.5684" lon="2.20139">
        <ele>1128.5</ele>
      </trkpt>
      <trkpt lat="42.56836" lon="2.20145">
        <ele>1127.9</ele>
      </trkpt>
      <trkpt lat="42.56833" lon="2.20148">
        <ele>1127.8</ele>
      </trkpt>
      <trkpt lat="42.56831" lon="2.20151">
        <ele>1126.7</ele>
      </trkpt>
      <trkpt lat="42.56829" lon="2.20153">
        <ele>1125.9</ele>
      </trkpt>
      <trkpt lat="42.56824" lon="2.20155">
        <ele>1125.2</ele>
      </trkpt>
      <trkpt lat="42.5682" lon="2.20156">
        <ele>1124.9</ele>
      </trkpt>
      <trkpt lat="42.5682" lon="2.20157">
        <ele>1124.5</ele>
      </trkpt>
      <trkpt lat="42.56816" lon="2.20155">
        <ele>1125.5</ele>
      </trkpt>
      <trkpt lat="42.56811" lon="2.20154">
        <ele>1126.1</ele>
      </trkpt>
      <trkpt lat="42.56803" lon="2.20151">
        <ele>1127.7</ele>
      </trkpt>
      <trkpt lat="42.56796" lon="2.2015">
        <ele>1128.4</ele>
      </trkpt>
      <trkpt lat="42.56787" lon="2.20148">
        <ele>1129.7</ele>
      </trkpt>
      <trkpt lat="42.56779" lon="2.20147">
        <ele>1130.5</ele>
      </trkpt>
      <trkpt lat="42.56768" lon="2.20147">
        <ele>1130.9</ele>
      </trkpt>
      <trkpt lat="42.56759" lon="2.20148">
        <ele>1130.8</ele>
      </trkpt>
      <trkpt lat="42.56749" lon="2.20149">
        <ele>1130.4</ele>
      </trkpt>
      <trkpt lat="42.5674" lon="2.20151">
        <ele>1126.4</ele>
      </trkpt>
      <trkpt lat="42.56735" lon="2.20153">
        <ele>1123.8</ele>
      </trkpt>
      <trkpt lat="42.5673" lon="2.20154">
        <ele>1121.7</ele>
      </trkpt>
      <trkpt lat="42.56728" lon="2.20154">
        <ele>1121</ele>
      </trkpt>
      <trkpt lat="42.56725" lon="2.20154">
        <ele>1120</ele>
      </trkpt>
      <trkpt lat="42.5672" lon="2.20152">
        <ele>1119.4</ele>
      </trkpt>
      <trkpt lat="42.56715" lon="2.20148">
        <ele>1119.8</ele>
      </trkpt>
      <trkpt lat="42.56707" lon="2.20143">
        <ele>1119.8</ele>
      </trkpt>
      <trkpt lat="42.56696" lon="2.20137">
        <ele>1119.4</ele>
      </trkpt>
      <trkpt lat="42.56687" lon="2.20129">
        <ele>1120.7</ele>
      </trkpt>
      <trkpt lat="42.56681" lon="2.20125">
        <ele>1121</ele>
      </trkpt>
      <trkpt lat="42.56672" lon="2.20118">
        <ele>1121.9</ele>
      </trkpt>
      <trkpt lat="42.56665" lon="2.2011">
        <ele>1124.3</ele>
      </trkpt>
      <trkpt lat="42.5666" lon="2.20103">
        <ele>1127</ele>
      </trkpt>
      <trkpt lat="42.56654" lon="2.20098">
        <ele>1128.4</ele>
      </trkpt>
      <trkpt lat="42.56648" lon="2.20094">
        <ele>1129.3</ele>
      </trkpt>
      <trkpt lat="42.56644" lon="2.20091">
        <ele>1130</ele>
      </trkpt>
      <trkpt lat="42.56639" lon="2.2009">
        <ele>1129.5</ele>
      </trkpt>
      <trkpt lat="42.56633" lon="2.20087">
        <ele>1129.8</ele>
      </trkpt>
      <trkpt lat="42.56625" lon="2.20083">
        <ele>1130.2</ele>
      </trkpt>
      <trkpt lat="42.56609" lon="2.20072">
        <ele>1132.5</ele>
      </trkpt>
      <trkpt lat="42.56602" lon="2.20068">
        <ele>1133.2</ele>
      </trkpt>
      <trkpt lat="42.56598" lon="2.20065">
        <ele>1134</ele>
      </trkpt>
      <trkpt lat="42.56595" lon="2.20062">
        <ele>1135</ele>
      </trkpt>
      <trkpt lat="42.56592" lon="2.20061">
        <ele>1135</ele>
      </trkpt>
      <trkpt lat="42.5659" lon="2.2006">
        <ele>1135.1</ele>
      </trkpt>
      <trkpt lat="42.56587" lon="2.20061">
        <ele>1134</ele>
      </trkpt>
      <trkpt lat="42.56586" lon="2.20061">
        <ele>1133.8</ele>
      </trkpt>
      <trkpt lat="42.56585" lon="2.20062">
        <ele>1133.1</ele>
      </trkpt>
      <trkpt lat="42.56583" lon="2.20064">
        <ele>1131.7</ele>
      </trkpt>
      <trkpt lat="42.56581" lon="2.20067">
        <ele>1130.5</ele>
      </trkpt>
      <trkpt lat="42.56581" lon="2.20069">
        <ele>1129.4</ele>
      </trkpt>
      <trkpt lat="42.56582" lon="2.20071">
        <ele>1128.1</ele>
      </trkpt>
      <trkpt lat="42.56583" lon="2.20074">
        <ele>1126.2</ele>
      </trkpt>
      <trkpt lat="42.56586" lon="2.20076">
        <ele>1125.6</ele>
      </trkpt>
      <trkpt lat="42.56588" lon="2.20077">
        <ele>1125.5</ele>
      </trkpt>
      <trkpt lat="42.56591" lon="2.20078">
        <ele>1125.6</ele>
      </trkpt>
      <trkpt lat="42.56594" lon="2.20078">
        <ele>1126.2</ele>
      </trkpt>
      <trkpt lat="42.56604" lon="2.20079">
        <ele>1127.8</ele>
      </trkpt>
      <trkpt lat="42.5661" lon="2.20082">
        <ele>1127.5</ele>
      </trkpt>
      <trkpt lat="42.56622" lon="2.2009">
        <ele>1125.8</ele>
      </trkpt>
      <trkpt lat="42.56631" lon="2.20097">
        <ele>1124.1</ele>
      </trkpt>
      <trkpt lat="42.56642" lon="2.20105">
        <ele>1122.1</ele>
      </trkpt>
      <trkpt lat="42.5665" lon="2.20114">
        <ele>1119</ele>
      </trkpt>
      <trkpt lat="42.56659" lon="2.20127">
        <ele>1113.9</ele>
      </trkpt>
      <trkpt lat="42.56668" lon="2.20137">
        <ele>1110.4</ele>
      </trkpt>
      <trkpt lat="42.56674" lon="2.20144">
        <ele>1108.6</ele>
      </trkpt>
      <trkpt lat="42.56684" lon="2.20157">
        <ele>1104.9</ele>
      </trkpt>
      <trkpt lat="42.56694" lon="2.20169">
        <ele>1102.1</ele>
      </trkpt>
      <trkpt lat="42.56699" lon="2.20174">
        <ele>1101.3</ele>
      </trkpt>
      <trkpt lat="42.56703" lon="2.20177">
        <ele>1101.1</ele>
      </trkpt>
      <trkpt lat="42.56706" lon="2.20179">
        <ele>1101</ele>
      </trkpt>
      <trkpt lat="42.56707" lon="2.2018">
        <ele>1100.9</ele>
      </trkpt>
      <trkpt lat="42.5671" lon="2.20181">
        <ele>1101.3</ele>
      </trkpt>
      <trkpt lat="42.56713" lon="2.20182">
        <ele>1101.7</ele>
      </trkpt>
      <trkpt lat="42.56715" lon="2.20182">
        <ele>1102.3</ele>
      </trkpt>
      <trkpt lat="42.56718" lon="2.20182">
        <ele>1103.3</ele>
      </trkpt>
      <trkpt lat="42.56723" lon="2.20181">
        <ele>1105.3</ele>
      </trkpt>
      <trkpt lat="42.56728" lon="2.20181">
        <ele>1106.9</ele>
      </trkpt>
      <trkpt lat="42.56735" lon="2.2018">
        <ele>1109.6</ele>
      </trkpt>
      <trkpt lat="42.5674" lon="2.2018">
        <ele>1111.2</ele>
      </trkpt>
      <trkpt lat="42.56745" lon="2.2018">
        <ele>1112.8</ele>
      </trkpt>
      <trkpt lat="42.5675" lon="2.20182">
        <ele>1113.2</ele>
      </trkpt>
      <trkpt lat="42.56755" lon="2.20186">
        <ele>1110.9</ele>
      </trkpt>
      <trkpt lat="42.56763" lon="2.20191">
        <ele>1108.1</ele>
      </trkpt>
      <trkpt lat="42.56773" lon="2.20197">
        <ele>1104.9</ele>
      </trkpt>
      <trkpt lat="42.56788" lon="2.20207">
        <ele>1099.8</ele>
      </trkpt>
      <trkpt lat="42.56797" lon="2.20214">
        <ele>1096.5</ele>
      </trkpt>
      <trkpt lat="42.56805" lon="2.20221">
        <ele>1093.3</ele>
      </trkpt>
      <trkpt lat="42.56811" lon="2.20229">
        <ele>1089.6</ele>
      </trkpt>
      <trkpt lat="42.56814" lon="2.20233">
        <ele>1087.8</ele>
      </trkpt>
      <trkpt lat="42.56817" lon="2.20236">
        <ele>1086.5</ele>
      </trkpt>
      <trkpt lat="42.5682" lon="2.2024">
        <ele>1084.7</ele>
      </trkpt>
      <trkpt lat="42.56823" lon="2.20245">
        <ele>1082.5</ele>
      </trkpt>
      <trkpt lat="42.56826" lon="2.20248">
        <ele>1081.3</ele>
      </trkpt>
      <trkpt lat="42.56831" lon="2.20251">
        <ele>1080.3</ele>
      </trkpt>
      <trkpt lat="42.56834" lon="2.20251">
        <ele>1080.2</ele>
      </trkpt>
      <trkpt lat="42.56838" lon="2.20252">
        <ele>1078</ele>
      </trkpt>
      <trkpt lat="42.56843" lon="2.20251">
        <ele>1076.3</ele>
      </trkpt>
      <trkpt lat="42.56847" lon="2.2025">
        <ele>1075.1</ele>
      </trkpt>
      <trkpt lat="42.56851" lon="2.20248">
        <ele>1074.3</ele>
      </trkpt>
      <trkpt lat="42.56856" lon="2.20245">
        <ele>1073.5</ele>
      </trkpt>
      <trkpt lat="42.5686" lon="2.20241">
        <ele>1073.6</ele>
      </trkpt>
      <trkpt lat="42.56865" lon="2.20235">
        <ele>1074.3</ele>
      </trkpt>
      <trkpt lat="42.56867" lon="2.20233">
        <ele>1074.3</ele>
      </trkpt>
      <trkpt lat="42.56871" lon="2.20228">
        <ele>1074.9</ele>
      </trkpt>
      <trkpt lat="42.56875" lon="2.20222">
        <ele>1075.9</ele>
      </trkpt>
      <trkpt lat="42.56879" lon="2.20215">
        <ele>1077.4</ele>
      </trkpt>
      <trkpt lat="42.56883" lon="2.20208">
        <ele>1078.9</ele>
      </trkpt>
      <trkpt lat="42.56887" lon="2.202">
        <ele>1080.8</ele>
      </trkpt>
      <trkpt lat="42.56889" lon="2.20196">
        <ele>1081.8</ele>
      </trkpt>
      <trkpt lat="42.56893" lon="2.2019">
        <ele>1082.8</ele>
      </trkpt>
      <trkpt lat="42.56895" lon="2.20183">
        <ele>1085.1</ele>
      </trkpt>
      <trkpt lat="42.56899" lon="2.20176">
        <ele>1086.6</ele>
      </trkpt>
      <trkpt lat="42.56903" lon="2.20167">
        <ele>1088.9</ele>
      </trkpt>
      <trkpt lat="42.56906" lon="2.20161">
        <ele>1089.8</ele>
      </trkpt>
      <trkpt lat="42.56912" lon="2.20152">
        <ele>1090.2</ele>
      </trkpt>
      <trkpt lat="42.56916" lon="2.20147">
        <ele>1090.1</ele>
      </trkpt>
      <trkpt lat="42.5692" lon="2.20144">
        <ele>1089.8</ele>
      </trkpt>
      <trkpt lat="42.56924" lon="2.2014">
        <ele>1089.9</ele>
      </trkpt>
      <trkpt lat="42.56926" lon="2.20138">
        <ele>1090</ele>
      </trkpt>
      <trkpt lat="42.56928" lon="2.20137">
        <ele>1089.8</ele>
      </trkpt>
      <trkpt lat="42.56935" lon="2.20132">
        <ele>1089.5</ele>
      </trkpt>
      <trkpt lat="42.56939" lon="2.20129">
        <ele>1089.4</ele>
      </trkpt>
      <trkpt lat="42.56943" lon="2.20125">
        <ele>1089.8</ele>
      </trkpt>
      <trkpt lat="42.56946" lon="2.20122">
        <ele>1090.1</ele>
      </trkpt>
      <trkpt lat="42.5695" lon="2.20117">
        <ele>1090.9</ele>
      </trkpt>
      <trkpt lat="42.56954" lon="2.20112">
        <ele>1091.8</ele>
      </trkpt>
      <trkpt lat="42.56957" lon="2.20109">
        <ele>1092.2</ele>
      </trkpt>
      <trkpt lat="42.56961" lon="2.20107">
        <ele>1092</ele>
      </trkpt>
      <trkpt lat="42.56966" lon="2.20105">
        <ele>1091.5</ele>
      </trkpt>
      <trkpt lat="42.56972" lon="2.20103">
        <ele>1090.8</ele>
      </trkpt>
      <trkpt lat="42.56975" lon="2.20101">
        <ele>1090.9</ele>
      </trkpt>
      <trkpt lat="42.56978" lon="2.201">
        <ele>1090.6</ele>
      </trkpt>
      <trkpt lat="42.56983" lon="2.20098">
        <ele>1090.2</ele>
      </trkpt>
      <trkpt lat="42.56988" lon="2.20099">
        <ele>1088.5</ele>
      </trkpt>
      <trkpt lat="42.56991" lon="2.201">
        <ele>1087.3</ele>
      </trkpt>
      <trkpt lat="42.56995" lon="2.20102">
        <ele>1085.3</ele>
      </trkpt>
      <trkpt lat="42.56998" lon="2.20103">
        <ele>1084.1</ele>
      </trkpt>
      <trkpt lat="42.57001" lon="2.20107">
        <ele>1081.8</ele>
      </trkpt>
      <trkpt lat="42.57004" lon="2.2011">
        <ele>1080.7</ele>
      </trkpt>
      <trkpt lat="42.57007" lon="2.20112">
        <ele>1080</ele>
      </trkpt>
      <trkpt lat="42.57011" lon="2.20113">
        <ele>1079.9</ele>
      </trkpt>
      <trkpt lat="42.57016" lon="2.20114">
        <ele>1080</ele>
      </trkpt>
      <trkpt lat="42.57019" lon="2.20114">
        <ele>1080.3</ele>
      </trkpt>
      <trkpt lat="42.57022" lon="2.20114">
        <ele>1080.6</ele>
      </trkpt>
      <trkpt lat="42.57025" lon="2.20114">
        <ele>1080.9</ele>
      </trkpt>
      <trkpt lat="42.57028" lon="2.20114">
        <ele>1081.2</ele>
      </trkpt>
      <trkpt lat="42.57033" lon="2.20113">
        <ele>1082.3</ele>
      </trkpt>
      <trkpt lat="42.57036" lon="2.20113">
        <ele>1082.7</ele>
      </trkpt>
      <trkpt lat="42.57038" lon="2.20113">
        <ele>1082.9</ele>
      </trkpt>
      <trkpt lat="42.57044" lon="2.20115">
        <ele>1082.4</ele>
      </trkpt>
      <trkpt lat="42.57049" lon="2.20117">
        <ele>1081.7</ele>
      </trkpt>
      <trkpt lat="42.57055" lon="2.2012">
        <ele>1080.6</ele>
      </trkpt>
      <trkpt lat="42.5706" lon="2.20123">
        <ele>1079.2</ele>
      </trkpt>
      <trkpt lat="42.57067" lon="2.20128">
        <ele>1076.8</ele>
      </trkpt>
      <trkpt lat="42.57072" lon="2.20133">
        <ele>1074</ele>
      </trkpt>
      <trkpt lat="42.57077" lon="2.20138">
        <ele>1071.2</ele>
      </trkpt>
      <trkpt lat="42.57082" lon="2.20142">
        <ele>1068.9</ele>
      </trkpt>
      <trkpt lat="42.57086" lon="2.20144">
        <ele>1067.3</ele>
      </trkpt>
      <trkpt lat="42.57091" lon="2.20146">
        <ele>1065.3</ele>
      </trkpt>
      <trkpt lat="42.57097" lon="2.20146">
        <ele>1064.5</ele>
      </trkpt>
      <trkpt lat="42.57102" lon="2.20145">
        <ele>1064.4</ele>
      </trkpt>
      <trkpt lat="42.57107" lon="2.20144">
        <ele>1064.3</ele>
      </trkpt>
      <trkpt lat="42.57115" lon="2.20143">
        <ele>1063.8</ele>
      </trkpt>
      <trkpt lat="42.57118" lon="2.20144">
        <ele>1062.8</ele>
      </trkpt>
      <trkpt lat="42.57119" lon="2.20144">
        <ele>1062.6</ele>
      </trkpt>
      <trkpt lat="42.57123" lon="2.20146">
        <ele>1060.8</ele>
      </trkpt>
      <trkpt lat="42.57127" lon="2.20146">
        <ele>1060.2</ele>
      </trkpt>
      <trkpt lat="42.5713" lon="2.20144">
        <ele>1061.1</ele>
      </trkpt>
      <trkpt lat="42.57135" lon="2.20143">
        <ele>1061</ele>
      </trkpt>
      <trkpt lat="42.5714" lon="2.20142">
        <ele>1060.9</ele>
      </trkpt>
      <trkpt lat="42.57146" lon="2.20141">
        <ele>1060.7</ele>
      </trkpt>
      <trkpt lat="42.57154" lon="2.2014">
        <ele>1060.1</ele>
      </trkpt>
      <trkpt lat="42.57166" lon="2.20139">
        <ele>1059</ele>
      </trkpt>
      <trkpt lat="42.57173" lon="2.20138">
        <ele>1057.8</ele>
      </trkpt>
      <trkpt lat="42.57179" lon="2.20136">
        <ele>1057.4</ele>
      </trkpt>
      <trkpt lat="42.57186" lon="2.20132">
        <ele>1057.8</ele>
      </trkpt>
      <trkpt lat="42.57195" lon="2.20126">
        <ele>1058.6</ele>
      </trkpt>
      <trkpt lat="42.57206" lon="2.2012">
        <ele>1058.6</ele>
      </trkpt>
      <trkpt lat="42.57207" lon="2.20119">
        <ele>1058.9</ele>
      </trkpt>
      <trkpt lat="42.57222" lon="2.20109">
        <ele>1059.4</ele>
      </trkpt>
      <trkpt lat="42.57236" lon="2.20102">
        <ele>1058.2</ele>
      </trkpt>
      <trkpt lat="42.57244" lon="2.20098">
        <ele>1057.4</ele>
      </trkpt>
      <trkpt lat="42.57252" lon="2.20095">
        <ele>1056.1</ele>
      </trkpt>
      <trkpt lat="42.57254" lon="2.20095">
        <ele>1055.5</ele>
      </trkpt>
      <trkpt lat="42.57259" lon="2.20094">
        <ele>1054.4</ele>
      </trkpt>
      <trkpt lat="42.57266" lon="2.20094">
        <ele>1052.3</ele>
      </trkpt>
      <trkpt lat="42.57272" lon="2.20094">
        <ele>1050.4</ele>
      </trkpt>
      <trkpt lat="42.57278" lon="2.20096">
        <ele>1047.9</ele>
      </trkpt>
      <trkpt lat="42.57283" lon="2.20098">
        <ele>1045.7</ele>
      </trkpt>
      <trkpt lat="42.57287" lon="2.20098">
        <ele>1044.5</ele>
      </trkpt>
      <trkpt lat="42.5729" lon="2.20098">
        <ele>1043.6</ele>
      </trkpt>
      <trkpt lat="42.57293" lon="2.20097">
        <ele>1043.1</ele>
      </trkpt>
      <trkpt lat="42.57295" lon="2.20095">
        <ele>1043.1</ele>
      </trkpt>
      <trkpt lat="42.57297" lon="2.20093">
        <ele>1043.2</ele>
      </trkpt>
      <trkpt lat="42.57298" lon="2.2009">
        <ele>1043.8</ele>
      </trkpt>
      <trkpt lat="42.57299" lon="2.20085">
        <ele>1045</ele>
      </trkpt>
      <trkpt lat="42.573" lon="2.20081">
        <ele>1046</ele>
      </trkpt>
      <trkpt lat="42.57301" lon="2.20076">
        <ele>1047.4</ele>
      </trkpt>
      <trkpt lat="42.57301" lon="2.20074">
        <ele>1048.1</ele>
      </trkpt>
      <trkpt lat="42.57302" lon="2.20069">
        <ele>1049.5</ele>
      </trkpt>
      <trkpt lat="42.57304" lon="2.20062">
        <ele>1051.1</ele>
      </trkpt>
      <trkpt lat="42.57306" lon="2.20057">
        <ele>1052</ele>
      </trkpt>
      <trkpt lat="42.57309" lon="2.20052">
        <ele>1052.4</ele>
      </trkpt>
      <trkpt lat="42.57312" lon="2.20049">
        <ele>1052.1</ele>
      </trkpt>
      <trkpt lat="42.57316" lon="2.20044">
        <ele>1052</ele>
      </trkpt>
      <trkpt lat="42.5732" lon="2.20041">
        <ele>1051.1</ele>
      </trkpt>
      <trkpt lat="42.57324" lon="2.20038">
        <ele>1050.2</ele>
      </trkpt>
      <trkpt lat="42.57329" lon="2.20034">
        <ele>1049</ele>
      </trkpt>
      <trkpt lat="42.57334" lon="2.2003">
        <ele>1048.1</ele>
      </trkpt>
      <trkpt lat="42.57337" lon="2.20025">
        <ele>1049.5</ele>
      </trkpt>
      <trkpt lat="42.57343" lon="2.20021">
        <ele>1050.9</ele>
      </trkpt>
      <trkpt lat="42.57346" lon="2.2002">
        <ele>1051.3</ele>
      </trkpt>
      <trkpt lat="42.57348" lon="2.20019">
        <ele>1051.7</ele>
      </trkpt>
      <trkpt lat="42.57351" lon="2.20019">
        <ele>1051.8</ele>
      </trkpt>
      <trkpt lat="42.57357" lon="2.20021">
        <ele>1051.5</ele>
      </trkpt>
      <trkpt lat="42.57362" lon="2.20024">
        <ele>1050.8</ele>
      </trkpt>
      <trkpt lat="42.57364" lon="2.20027">
        <ele>1050</ele>
      </trkpt>
      <trkpt lat="42.57366" lon="2.20029">
        <ele>1049.5</ele>
      </trkpt>
      <trkpt lat="42.57367" lon="2.20033">
        <ele>1048.3</ele>
      </trkpt>
      <trkpt lat="42.57368" lon="2.20038">
        <ele>1046.8</ele>
      </trkpt>
      <trkpt lat="42.57369" lon="2.20043">
        <ele>1045.2</ele>
      </trkpt>
      <trkpt lat="42.5737" lon="2.20051">
        <ele>1042.7</ele>
      </trkpt>
      <trkpt lat="42.57371" lon="2.20055">
        <ele>1041.5</ele>
      </trkpt>
      <trkpt lat="42.57373" lon="2.2006">
        <ele>1039.9</ele>
      </trkpt>
      <trkpt lat="42.57374" lon="2.20063">
        <ele>1039</ele>
      </trkpt>
      <trkpt lat="42.57376" lon="2.20065">
        <ele>1038.3</ele>
      </trkpt>
      <trkpt lat="42.5738" lon="2.20068">
        <ele>1037.3</ele>
      </trkpt>
      <trkpt lat="42.57382" lon="2.2007">
        <ele>1036.6</ele>
      </trkpt>
      <trkpt lat="42.57385" lon="2.20071">
        <ele>1036.2</ele>
      </trkpt>
      <trkpt lat="42.57389" lon="2.2007">
        <ele>1036.5</ele>
      </trkpt>
      <trkpt lat="42.57394" lon="2.20069">
        <ele>1036.7</ele>
      </trkpt>
      <trkpt lat="42.574" lon="2.20065">
        <ele>1038</ele>
      </trkpt>
      <trkpt lat="42.57412" lon="2.20059">
        <ele>1040.1</ele>
      </trkpt>
      <trkpt lat="42.57426" lon="2.20053">
        <ele>1042.8</ele>
      </trkpt>
      <trkpt lat="42.57438" lon="2.20049">
        <ele>1044.8</ele>
      </trkpt>
      <trkpt lat="42.57446" lon="2.20046">
        <ele>1046.1</ele>
      </trkpt>
      <trkpt lat="42.57458" lon="2.20044">
        <ele>1047.3</ele>
      </trkpt>
      <trkpt lat="42.57463" lon="2.20042">
        <ele>1048.1</ele>
      </trkpt>
      <trkpt lat="42.57467" lon="2.2004">
        <ele>1048.8</ele>
      </trkpt>
      <trkpt lat="42.57472" lon="2.20037">
        <ele>1049.9</ele>
      </trkpt>
      <trkpt lat="42.57477" lon="2.20036">
        <ele>1050.3</ele>
      </trkpt>
      <trkpt lat="42.57482" lon="2.20035">
        <ele>1050.7</ele>
      </trkpt>
      <trkpt lat="42.57486" lon="2.20034">
        <ele>1051.1</ele>
      </trkpt>
      <trkpt lat="42.5749" lon="2.20035">
        <ele>1050.9</ele>
      </trkpt>
      <trkpt lat="42.57493" lon="2.20035">
        <ele>1051</ele>
      </trkpt>
      <trkpt lat="42.57496" lon="2.20036">
        <ele>1050.8</ele>
      </trkpt>
      <trkpt lat="42.57499" lon="2.20036">
        <ele>1050.9</ele>
      </trkpt>
      <trkpt lat="42.57501" lon="2.20037">
        <ele>1050.7</ele>
      </trkpt>
      <trkpt lat="42.57502" lon="2.2004">
        <ele>1050.1</ele>
      </trkpt>
      <trkpt lat="42.57504" lon="2.20042">
        <ele>1049.7</ele>
      </trkpt>
      <trkpt lat="42.57505" lon="2.20045">
        <ele>1049</ele>
      </trkpt>
      <trkpt lat="42.57505" lon="2.20048">
        <ele>1048.2</ele>
      </trkpt>
      <trkpt lat="42.57505" lon="2.2005">
        <ele>1047.7</ele>
      </trkpt>
      <trkpt lat="42.57506" lon="2.20053">
        <ele>1047</ele>
      </trkpt>
      <trkpt lat="42.57506" lon="2.20056">
        <ele>1046.3</ele>
      </trkpt>
      <trkpt lat="42.57506" lon="2.20058">
        <ele>1045.8</ele>
      </trkpt>
      <trkpt lat="42.57506" lon="2.20061">
        <ele>1045</ele>
      </trkpt>
      <trkpt lat="42.57506" lon="2.20063">
        <ele>1044.5</ele>
      </trkpt>
      <trkpt lat="42.57506" lon="2.20069">
        <ele>1042.9</ele>
      </trkpt>
      <trkpt lat="42.57504" lon="2.20075">
        <ele>1041.3</ele>
      </trkpt>
      <trkpt lat="42.57502" lon="2.2008">
        <ele>1039.9</ele>
      </trkpt>
      <trkpt lat="42.575" lon="2.20082">
        <ele>1039.3</ele>
      </trkpt>
      <trkpt lat="42.57497" lon="2.20084">
        <ele>1038.9</ele>
      </trkpt>
      <trkpt lat="42.57495" lon="2.20086">
        <ele>1039.4</ele>
      </trkpt>
      <trkpt lat="42.57493" lon="2.20087">
        <ele>1039.6</ele>
      </trkpt>
      <trkpt lat="42.57492" lon="2.20088">
        <ele>1039.8</ele>
      </trkpt>
      <trkpt lat="42.57491" lon="2.20088">
        <ele>1039.7</ele>
      </trkpt>
      <trkpt lat="42.57487" lon="2.2009">
        <ele>1039.9</ele>
      </trkpt>
      <trkpt lat="42.57483" lon="2.20092">
        <ele>1040</ele>
      </trkpt>
      <trkpt lat="42.57477" lon="2.20095">
        <ele>1040.1</ele>
      </trkpt>
      <trkpt lat="42.57474" lon="2.20096">
        <ele>1039.9</ele>
      </trkpt>
      <trkpt lat="42.57472" lon="2.20097">
        <ele>1039.9</ele>
      </trkpt>
      <trkpt lat="42.5747" lon="2.20098">
        <ele>1039.9</ele>
      </trkpt>
      <trkpt lat="42.57468" lon="2.20099">
        <ele>1039.8</ele>
      </trkpt>
      <trkpt lat="42.57467" lon="2.20099">
        <ele>1039.7</ele>
      </trkpt>
      <trkpt lat="42.57459" lon="2.20105">
        <ele>1039.8</ele>
      </trkpt>
      <trkpt lat="42.57452" lon="2.20111">
        <ele>1039.8</ele>
      </trkpt>
      <trkpt lat="42.5745" lon="2.20113">
        <ele>1039.8</ele>
      </trkpt>
      <trkpt lat="42.57449" lon="2.20115">
        <ele>1039.9</ele>
      </trkpt>
      <trkpt lat="42.57447" lon="2.20117">
        <ele>1039.9</ele>
      </trkpt>
      <trkpt lat="42.57445" lon="2.20119">
        <ele>1039.8</ele>
      </trkpt>
      <trkpt lat="42.57435" lon="2.2013">
        <ele>1039.1</ele>
      </trkpt>
      <trkpt lat="42.57431" lon="2.20135">
        <ele>1038.7</ele>
      </trkpt>
      <trkpt lat="42.57428" lon="2.20137">
        <ele>1038.1</ele>
      </trkpt>
      <trkpt lat="42.57425" lon="2.20139">
        <ele>1037.4</ele>
      </trkpt>
      <trkpt lat="42.57424" lon="2.2014">
        <ele>1037.2</ele>
      </trkpt>
      <trkpt lat="42.57414" lon="2.20149">
        <ele>1035.2</ele>
      </trkpt>
      <trkpt lat="42.57407" lon="2.20155">
        <ele>1034.2</ele>
      </trkpt>
      <trkpt lat="42.57401" lon="2.20157">
        <ele>1033</ele>
      </trkpt>
      <trkpt lat="42.57395" lon="2.20161">
        <ele>1031.8</ele>
      </trkpt>
      <trkpt lat="42.57388" lon="2.20165">
        <ele>1030.2</ele>
      </trkpt>
      <trkpt lat="42.5738" lon="2.20171">
        <ele>1030.1</ele>
      </trkpt>
      <trkpt lat="42.57375" lon="2.20177">
        <ele>1031.4</ele>
      </trkpt>
      <trkpt lat="42.57369" lon="2.20188">
        <ele>1034.3</ele>
      </trkpt>
      <trkpt lat="42.57362" lon="2.20193">
        <ele>1034.3</ele>
      </trkpt>
      <trkpt lat="42.57359" lon="2.20195">
        <ele>1034.1</ele>
      </trkpt>
      <trkpt lat="42.57356" lon="2.20199">
        <ele>1034.7</ele>
      </trkpt>
      <trkpt lat="42.57354" lon="2.20203">
        <ele>1035.6</ele>
      </trkpt>
      <trkpt lat="42.57352" lon="2.20206">
        <ele>1036</ele>
      </trkpt>
      <trkpt lat="42.5735" lon="2.20213">
        <ele>1037.9</ele>
      </trkpt>
      <trkpt lat="42.57348" lon="2.20216">
        <ele>1038.3</ele>
      </trkpt>
      <trkpt lat="42.57345" lon="2.20219">
        <ele>1038.3</ele>
      </trkpt>
      <trkpt lat="42.57339" lon="2.20221">
        <ele>1036.7</ele>
      </trkpt>
      <trkpt lat="42.57331" lon="2.20222">
        <ele>1034.6</ele>
      </trkpt>
      <trkpt lat="42.57326" lon="2.20224">
        <ele>1034.4</ele>
      </trkpt>
      <trkpt lat="42.5732" lon="2.20231">
        <ele>1035.4</ele>
      </trkpt>
      <trkpt lat="42.57317" lon="2.20238">
        <ele>1036.6</ele>
      </trkpt>
      <trkpt lat="42.57314" lon="2.20243">
        <ele>1037.2</ele>
      </trkpt>
      <trkpt lat="42.57307" lon="2.20247">
        <ele>1036.4</ele>
      </trkpt>
      <trkpt lat="42.57301" lon="2.20249">
        <ele>1035.3</ele>
      </trkpt>
      <trkpt lat="42.57295" lon="2.20251">
        <ele>1034.4</ele>
      </trkpt>
      <trkpt lat="42.57287" lon="2.20253">
        <ele>1033.3</ele>
      </trkpt>
      <trkpt lat="42.57281" lon="2.20257">
        <ele>1033.6</ele>
      </trkpt>
      <trkpt lat="42.57276" lon="2.2026">
        <ele>1033.8</ele>
      </trkpt>
      <trkpt lat="42.57272" lon="2.20262">
        <ele>1033.7</ele>
      </trkpt>
      <trkpt lat="42.57269" lon="2.20264">
        <ele>1033.9</ele>
      </trkpt>
      <trkpt lat="42.57263" lon="2.20267">
        <ele>1033.8</ele>
      </trkpt>
      <trkpt lat="42.57258" lon="2.20274">
        <ele>1035.9</ele>
      </trkpt>
      <trkpt lat="42.57253" lon="2.20285">
        <ele>1040</ele>
      </trkpt>
      <trkpt lat="42.57246" lon="2.20293">
        <ele>1042.8</ele>
      </trkpt>
      <trkpt lat="42.57238" lon="2.20296">
        <ele>1043.6</ele>
      </trkpt>
      <trkpt lat="42.57224" lon="2.20292">
        <ele>1040.5</ele>
      </trkpt>
      <trkpt lat="42.5721" lon="2.20294">
        <ele>1040.2</ele>
      </trkpt>
      <trkpt lat="42.57204" lon="2.20297">
        <ele>1040.9</ele>
      </trkpt>
      <trkpt lat="42.57189" lon="2.20306">
        <ele>1043.2</ele>
      </trkpt>
      <trkpt lat="42.57172" lon="2.20306">
        <ele>1041.4</ele>
      </trkpt>
      <trkpt lat="42.57167" lon="2.20308">
        <ele>1041.6</ele>
      </trkpt>
      <trkpt lat="42.57163" lon="2.20311">
        <ele>1041.9</ele>
      </trkpt>
      <trkpt lat="42.57152" lon="2.20322">
        <ele>1043.3</ele>
      </trkpt>
      <trkpt lat="42.57146" lon="2.20325">
        <ele>1042.8</ele>
      </trkpt>
      <trkpt lat="42.57122" lon="2.20331">
        <ele>1038.6</ele>
      </trkpt>
      <trkpt lat="42.57114" lon="2.20338">
        <ele>1039.3</ele>
      </trkpt>
      <trkpt lat="42.57109" lon="2.20346">
        <ele>1041.8</ele>
      </trkpt>
      <trkpt lat="42.57096" lon="2.20379">
        <ele>1053.8</ele>
      </trkpt>
      <trkpt lat="42.57091" lon="2.20385">
        <ele>1055.3</ele>
      </trkpt>
      <trkpt lat="42.57086" lon="2.20388">
        <ele>1055.3</ele>
      </trkpt>
      <trkpt lat="42.57017" lon="2.20394">
        <ele>1043</ele>
      </trkpt>
      <trkpt lat="42.57011" lon="2.20396">
        <ele>1042.7</ele>
      </trkpt>
      <trkpt lat="42.56983" lon="2.20432">
        <ele>1050.4</ele>
      </trkpt>
      <trkpt lat="42.56967" lon="2.20444">
        <ele>1048.5</ele>
      </trkpt>
      <trkpt lat="42.56957" lon="2.20454">
        <ele>1048.5</ele>
      </trkpt>
      <trkpt lat="42.56952" lon="2.20464">
        <ele>1051.1</ele>
      </trkpt>
      <trkpt lat="42.5695" lon="2.20484">
        <ele>1060.6</ele>
      </trkpt>
      <trkpt lat="42.56947" lon="2.20492">
        <ele>1063.2</ele>
      </trkpt>
      <trkpt lat="42.56943" lon="2.20498">
        <ele>1064.2</ele>
      </trkpt>
      <trkpt lat="42.56929" lon="2.20512">
        <ele>1063.5</ele>
      </trkpt>
      <trkpt lat="42.56917" lon="2.20527">
        <ele>1064.5</ele>
      </trkpt>
      <trkpt lat="42.56901" lon="2.20539">
        <ele>1064.4</ele>
      </trkpt>
      <trkpt lat="42.56888" lon="2.20567">
        <ele>1073.1</ele>
      </trkpt>
      <trkpt lat="42.56882" lon="2.20582">
        <ele>1078.1</ele>
      </trkpt>
      <trkpt lat="42.56877" lon="2.20589">
        <ele>1079.3</ele>
      </trkpt>
      <trkpt lat="42.56868" lon="2.20595">
        <ele>1078.8</ele>
      </trkpt>
      <trkpt lat="42.56859" lon="2.20598">
        <ele>1076.9</ele>
      </trkpt>
      <trkpt lat="42.56835" lon="2.20598">
        <ele>1068.2</ele>
      </trkpt>
      <trkpt lat="42.56794" lon="2.20596">
        <ele>1058.4</ele>
      </trkpt>
      <trkpt lat="42.56786" lon="2.20599">
        <ele>1058.1</ele>
      </trkpt>
      <trkpt lat="42.56778" lon="2.20606">
        <ele>1059.6</ele>
      </trkpt>
      <trkpt lat="42.56774" lon="2.20615">
        <ele>1062.8</ele>
      </trkpt>
      <trkpt lat="42.56771" lon="2.20625">
        <ele>1066.5</ele>
      </trkpt>
      <trkpt lat="42.56766" lon="2.20653">
        <ele>1077.6</ele>
      </trkpt>
      <trkpt lat="42.56764" lon="2.20658">
        <ele>1079.3</ele>
      </trkpt>
      <trkpt lat="42.56759" lon="2.20663">
        <ele>1080</ele>
      </trkpt>
      <trkpt lat="42.56753" lon="2.20667">
        <ele>1080.1</ele>
      </trkpt>
      <trkpt lat="42.56736" lon="2.20672">
        <ele>1078.1</ele>
      </trkpt>
      <trkpt lat="42.56711" lon="2.20686">
        <ele>1079.4</ele>
      </trkpt>
      <trkpt lat="42.56677" lon="2.20701">
        <ele>1079.9</ele>
      </trkpt>
      <trkpt lat="42.56672" lon="2.20703">
        <ele>1080</ele>
      </trkpt>
      <trkpt lat="42.56667" lon="2.20707">
        <ele>1081.3</ele>
      </trkpt>
      <trkpt lat="42.56665" lon="2.20709">
        <ele>1082.2</ele>
      </trkpt>
      <trkpt lat="42.56664" lon="2.2071">
        <ele>1082.7</ele>
      </trkpt>
      <trkpt lat="42.56663" lon="2.20712">
        <ele>1083.8</ele>
      </trkpt>
      <trkpt lat="42.56662" lon="2.20715">
        <ele>1085.5</ele>
      </trkpt>
      <trkpt lat="42.56662" lon="2.20715">
        <ele>1085.5</ele>
      </trkpt>
      <trkpt lat="42.56651" lon="2.2072">
        <ele>1086.8</ele>
      </trkpt>
      <trkpt lat="42.56647" lon="2.2072">
        <ele>1086.2</ele>
      </trkpt>
      <trkpt lat="42.56643" lon="2.20719">
        <ele>1085</ele>
      </trkpt>
      <trkpt lat="42.56637" lon="2.20715">
        <ele>1081.8</ele>
      </trkpt>
      <trkpt lat="42.56617" lon="2.20706">
        <ele>1074.3</ele>
      </trkpt>
      <trkpt lat="42.56602" lon="2.207">
        <ele>1069.5</ele>
      </trkpt>
      <trkpt lat="42.56591" lon="2.20697">
        <ele>1066.9</ele>
      </trkpt>
      <trkpt lat="42.56584" lon="2.20697">
        <ele>1066.2</ele>
      </trkpt>
      <trkpt lat="42.5658" lon="2.20698">
        <ele>1065.1</ele>
      </trkpt>
      <trkpt lat="42.56577" lon="2.207">
        <ele>1064.6</ele>
      </trkpt>
      <trkpt lat="42.56574" lon="2.20703">
        <ele>1064.5</ele>
      </trkpt>
      <trkpt lat="42.56572" lon="2.20707">
        <ele>1065.2</ele>
      </trkpt>
      <trkpt lat="42.5657" lon="2.20712">
        <ele>1066.2</ele>
      </trkpt>
      <trkpt lat="42.56567" lon="2.20719">
        <ele>1067.5</ele>
      </trkpt>
      <trkpt lat="42.56565" lon="2.20727">
        <ele>1069.5</ele>
      </trkpt>
      <trkpt lat="42.56563" lon="2.20736">
        <ele>1071.8</ele>
      </trkpt>
      <trkpt lat="42.56562" lon="2.20746">
        <ele>1075</ele>
      </trkpt>
      <trkpt lat="42.5656" lon="2.20756">
        <ele>1076.3</ele>
      </trkpt>
      <trkpt lat="42.5656" lon="2.20761">
        <ele>1077.2</ele>
      </trkpt>
      <trkpt lat="42.56559" lon="2.2077">
        <ele>1078.2</ele>
      </trkpt>
      <trkpt lat="42.56557" lon="2.20779">
        <ele>1078.7</ele>
      </trkpt>
      <trkpt lat="42.56556" lon="2.20786">
        <ele>1079.4</ele>
      </trkpt>
      <trkpt lat="42.56554" lon="2.20794">
        <ele>1079.7</ele>
      </trkpt>
      <trkpt lat="42.5655" lon="2.20806">
        <ele>1079.8</ele>
      </trkpt>
      <trkpt lat="42.56546" lon="2.20826">
        <ele>1081.4</ele>
      </trkpt>
      <trkpt lat="42.56541" lon="2.20847">
        <ele>1082.1</ele>
      </trkpt>
      <trkpt lat="42.56538" lon="2.20863">
        <ele>1083.1</ele>
      </trkpt>
      <trkpt lat="42.56537" lon="2.2087">
        <ele>1083.7</ele>
      </trkpt>
      <trkpt lat="42.56537" lon="2.20876">
        <ele>1084.6</ele>
      </trkpt>
      <trkpt lat="42.56537" lon="2.20881">
        <ele>1085.4</ele>
      </trkpt>
      <trkpt lat="42.5654" lon="2.20895">
        <ele>1088.5</ele>
      </trkpt>
      <trkpt lat="42.5654" lon="2.20902">
        <ele>1089.5</ele>
      </trkpt>
      <trkpt lat="42.5654" lon="2.20905">
        <ele>1089.9</ele>
      </trkpt>
      <trkpt lat="42.56539" lon="2.20908">
        <ele>1090.1</ele>
      </trkpt>
      <trkpt lat="42.56537" lon="2.20912">
        <ele>1090.2</ele>
      </trkpt>
      <trkpt lat="42.56534" lon="2.20916">
        <ele>1090.1</ele>
      </trkpt>
      <trkpt lat="42.56531" lon="2.2092">
        <ele>1091</ele>
      </trkpt>
      <trkpt lat="42.56527" lon="2.20921">
        <ele>1090.6</ele>
      </trkpt>
      <trkpt lat="42.56524" lon="2.20923">
        <ele>1090.9</ele>
      </trkpt>
      <trkpt lat="42.5652" lon="2.20922">
        <ele>1089.5</ele>
      </trkpt>
      <trkpt lat="42.56512" lon="2.20921">
        <ele>1087.1</ele>
      </trkpt>
      <trkpt lat="42.56508" lon="2.20921">
        <ele>1086.2</ele>
      </trkpt>
      <trkpt lat="42.56504" lon="2.20922">
        <ele>1085.8</ele>
      </trkpt>
      <trkpt lat="42.56499" lon="2.20922">
        <ele>1084.9</ele>
      </trkpt>
      <trkpt lat="42.56494" lon="2.20922">
        <ele>1084.9</ele>
      </trkpt>
      <trkpt lat="42.56489" lon="2.20921">
        <ele>1084.3</ele>
      </trkpt>
      <trkpt lat="42.56484" lon="2.20919">
        <ele>1083.3</ele>
      </trkpt>
      <trkpt lat="42.56478" lon="2.20916">
        <ele>1082.1</ele>
      </trkpt>
      <trkpt lat="42.56472" lon="2.20912">
        <ele>1081.2</ele>
      </trkpt>
      <trkpt lat="42.56463" lon="2.20905">
        <ele>1079.8</ele>
      </trkpt>
      <trkpt lat="42.56459" lon="2.20899">
        <ele>1078.7</ele>
      </trkpt>
      <trkpt lat="42.56454" lon="2.20892">
        <ele>1077.4</ele>
      </trkpt>
      <trkpt lat="42.56451" lon="2.20887">
        <ele>1076.5</ele>
      </trkpt>
      <trkpt lat="42.56448" lon="2.20881">
        <ele>1075.5</ele>
      </trkpt>
      <trkpt lat="42.56444" lon="2.20874">
        <ele>1074.3</ele>
      </trkpt>
      <trkpt lat="42.56444" lon="2.20871">
        <ele>1073.8</ele>
      </trkpt>
      <trkpt lat="42.56441" lon="2.20863">
        <ele>1072.5</ele>
      </trkpt>
      <trkpt lat="42.56438" lon="2.20853">
        <ele>1070.9</ele>
      </trkpt>
      <trkpt lat="42.56434" lon="2.20838">
        <ele>1068.6</ele>
      </trkpt>
      <trkpt lat="42.56429" lon="2.20824">
        <ele>1066.1</ele>
      </trkpt>
      <trkpt lat="42.56426" lon="2.20814">
        <ele>1064.2</ele>
      </trkpt>
      <trkpt lat="42.56425" lon="2.20809">
        <ele>1063.1</ele>
      </trkpt>
      <trkpt lat="42.56422" lon="2.20799">
        <ele>1061.1</ele>
      </trkpt>
      <trkpt lat="42.56419" lon="2.20792">
        <ele>1059.8</ele>
      </trkpt>
      <trkpt lat="42.56414" lon="2.20783">
        <ele>1056.9</ele>
      </trkpt>
      <trkpt lat="42.5641" lon="2.20772">
        <ele>1052.8</ele>
      </trkpt>
      <trkpt lat="42.56405" lon="2.20761">
        <ele>1048.7</ele>
      </trkpt>
      <trkpt lat="42.564" lon="2.20752">
        <ele>1045.2</ele>
      </trkpt>
      <trkpt lat="42.56397" lon="2.20746">
        <ele>1042.2</ele>
      </trkpt>
      <trkpt lat="42.56393" lon="2.2074">
        <ele>1038.4</ele>
      </trkpt>
      <trkpt lat="42.56389" lon="2.20739">
        <ele>1036.8</ele>
      </trkpt>
      <trkpt lat="42.56385" lon="2.20739">
        <ele>1035.6</ele>
      </trkpt>
      <trkpt lat="42.56381" lon="2.20739">
        <ele>1034.4</ele>
      </trkpt>
      <trkpt lat="42.56377" lon="2.2074">
        <ele>1033.5</ele>
      </trkpt>
      <trkpt lat="42.56374" lon="2.20742">
        <ele>1033.4</ele>
      </trkpt>
      <trkpt lat="42.5637" lon="2.20746">
        <ele>1033.8</ele>
      </trkpt>
      <trkpt lat="42.56366" lon="2.20751">
        <ele>1034.3</ele>
      </trkpt>
      <trkpt lat="42.56363" lon="2.20756">
        <ele>1033.9</ele>
      </trkpt>
      <trkpt lat="42.5636" lon="2.20762">
        <ele>1033.5</ele>
      </trkpt>
      <trkpt lat="42.56358" lon="2.20768">
        <ele>1033.4</ele>
      </trkpt>
      <trkpt lat="42.56356" lon="2.20776">
        <ele>1033.5</ele>
      </trkpt>
      <trkpt lat="42.56356" lon="2.20784">
        <ele>1034.2</ele>
      </trkpt>
      <trkpt lat="42.56356" lon="2.20791">
        <ele>1034.8</ele>
      </trkpt>
      <trkpt lat="42.56357" lon="2.208">
        <ele>1036.1</ele>
      </trkpt>
      <trkpt lat="42.56358" lon="2.20811">
        <ele>1037.6</ele>
      </trkpt>
      <trkpt lat="42.5636" lon="2.20824">
        <ele>1039.8</ele>
      </trkpt>
      <trkpt lat="42.56361" lon="2.20838">
        <ele>1041.7</ele>
      </trkpt>
      <trkpt lat="42.56361" lon="2.20847">
        <ele>1042.4</ele>
      </trkpt>
      <trkpt lat="42.56361" lon="2.20853">
        <ele>1042.9</ele>
      </trkpt>
      <trkpt lat="42.5636" lon="2.2086">
        <ele>1043</ele>
      </trkpt>
      <trkpt lat="42.5636" lon="2.20864">
        <ele>1043.3</ele>
      </trkpt>
      <trkpt lat="42.56359" lon="2.20866">
        <ele>1042.9</ele>
      </trkpt>
      <trkpt lat="42.56358" lon="2.20871">
        <ele>1042.7</ele>
      </trkpt>
      <trkpt lat="42.56356" lon="2.20878">
        <ele>1042.2</ele>
      </trkpt>
      <trkpt lat="42.56355" lon="2.20885">
        <ele>1042.1</ele>
      </trkpt>
      <trkpt lat="42.56354" lon="2.20893">
        <ele>1042.1</ele>
      </trkpt>
      <trkpt lat="42.56353" lon="2.20901">
        <ele>1042.1</ele>
      </trkpt>
      <trkpt lat="42.56353" lon="2.20911">
        <ele>1042.9</ele>
      </trkpt>
      <trkpt lat="42.56353" lon="2.20921">
        <ele>1044.5</ele>
      </trkpt>
      <trkpt lat="42.56354" lon="2.20932">
        <ele>1048.2</ele>
      </trkpt>
      <trkpt lat="42.56354" lon="2.20937">
        <ele>1049.6</ele>
      </trkpt>
      <trkpt lat="42.56354" lon="2.20941">
        <ele>1050.8</ele>
      </trkpt>
      <trkpt lat="42.56353" lon="2.20944">
        <ele>1051</ele>
      </trkpt>
      <trkpt lat="42.56351" lon="2.20948">
        <ele>1050.8</ele>
      </trkpt>
      <trkpt lat="42.56348" lon="2.20952">
        <ele>1050.1</ele>
      </trkpt>
      <trkpt lat="42.56341" lon="2.20962">
        <ele>1048.4</ele>
      </trkpt>
      <trkpt lat="42.56336" lon="2.20967">
        <ele>1046.6</ele>
      </trkpt>
      <trkpt lat="42.56333" lon="2.20971">
        <ele>1045.7</ele>
      </trkpt>
      <trkpt lat="42.56331" lon="2.20974">
        <ele>1044.6</ele>
      </trkpt>
      <trkpt lat="42.56329" lon="2.20977">
        <ele>1043.5</ele>
      </trkpt>
      <trkpt lat="42.56329" lon="2.20981">
        <ele>1044.6</ele>
      </trkpt>
      <trkpt lat="42.56329" lon="2.20989">
        <ele>1046.7</ele>
      </trkpt>
      <trkpt lat="42.5633" lon="2.20999">
        <ele>1050.4</ele>
      </trkpt>
      <trkpt lat="42.56331" lon="2.2101">
        <ele>1052.2</ele>
      </trkpt>
      <trkpt lat="42.56333" lon="2.2102">
        <ele>1054.6</ele>
      </trkpt>
      <trkpt lat="42.56334" lon="2.21029">
        <ele>1055.8</ele>
      </trkpt>
      <trkpt lat="42.56335" lon="2.21037">
        <ele>1056.9</ele>
      </trkpt>
      <trkpt lat="42.56335" lon="2.21044">
        <ele>1057.3</ele>
      </trkpt>
      <trkpt lat="42.56336" lon="2.21059">
        <ele>1058.7</ele>
      </trkpt>
      <trkpt lat="42.56335" lon="2.2107">
        <ele>1058.5</ele>
      </trkpt>
      <trkpt lat="42.56336" lon="2.21084">
        <ele>1059.9</ele>
      </trkpt>
      <trkpt lat="42.56336" lon="2.21094">
        <ele>1060.4</ele>
      </trkpt>
      <trkpt lat="42.56337" lon="2.21104">
        <ele>1061.6</ele>
      </trkpt>
      <trkpt lat="42.56338" lon="2.21113">
        <ele>1062.8</ele>
      </trkpt>
      <trkpt lat="42.56337" lon="2.2112">
        <ele>1062.4</ele>
      </trkpt>
      <trkpt lat="42.56337" lon="2.21126">
        <ele>1062.7</ele>
      </trkpt>
      <trkpt lat="42.56336" lon="2.21131">
        <ele>1062.2</ele>
      </trkpt>
      <trkpt lat="42.56334" lon="2.21138">
        <ele>1061.1</ele>
      </trkpt>
      <trkpt lat="42.5633" lon="2.21144">
        <ele>1058.4</ele>
      </trkpt>
      <trkpt lat="42.56328" lon="2.21151">
        <ele>1057.3</ele>
      </trkpt>
      <trkpt lat="42.56324" lon="2.21157">
        <ele>1054.8</ele>
      </trkpt>
      <trkpt lat="42.5632" lon="2.21163">
        <ele>1052.3</ele>
      </trkpt>
      <trkpt lat="42.56315" lon="2.21168">
        <ele>1049</ele>
      </trkpt>
      <trkpt lat="42.56309" lon="2.21172">
        <ele>1044.8</ele>
      </trkpt>
      <trkpt lat="42.56303" lon="2.21177">
        <ele>1040.6</ele>
      </trkpt>
      <trkpt lat="42.563" lon="2.2118">
        <ele>1038.5</ele>
      </trkpt>
      <trkpt lat="42.56298" lon="2.21182">
        <ele>1037.1</ele>
      </trkpt>
      <trkpt lat="42.56296" lon="2.21186">
        <ele>1035.8</ele>
      </trkpt>
      <trkpt lat="42.56296" lon="2.21188">
        <ele>1035.8</ele>
      </trkpt>
      <trkpt lat="42.56295" lon="2.2119">
        <ele>1035.1</ele>
      </trkpt>
      <trkpt lat="42.56296" lon="2.21196">
        <ele>1035.9</ele>
      </trkpt>
      <trkpt lat="42.56297" lon="2.21204">
        <ele>1036.7</ele>
      </trkpt>
      <trkpt lat="42.563" lon="2.21212">
        <ele>1038.8</ele>
      </trkpt>
      <trkpt lat="42.56302" lon="2.21216">
        <ele>1040.3</ele>
      </trkpt>
      <trkpt lat="42.56308" lon="2.21226">
        <ele>1044.5</ele>
      </trkpt>
      <trkpt lat="42.56313" lon="2.21232">
        <ele>1048</ele>
      </trkpt>
      <trkpt lat="42.56317" lon="2.21238">
        <ele>1050.8</ele>
      </trkpt>
      <trkpt lat="42.5632" lon="2.21243">
        <ele>1052.9</ele>
      </trkpt>
      <trkpt lat="42.56321" lon="2.21248">
        <ele>1053.6</ele>
      </trkpt>
      <trkpt lat="42.56321" lon="2.2125">
        <ele>1053.6</ele>
      </trkpt>
      <trkpt lat="42.56322" lon="2.21254">
        <ele>1054</ele>
      </trkpt>
      <trkpt lat="42.56321" lon="2.21259">
        <ele>1052.9</ele>
      </trkpt>
      <trkpt lat="42.56321" lon="2.21262">
        <ele>1052.7</ele>
      </trkpt>
      <trkpt lat="42.5632" lon="2.21266">
        <ele>1051.7</ele>
      </trkpt>
      <trkpt lat="42.5632" lon="2.21271">
        <ele>1051.3</ele>
      </trkpt>
      <trkpt lat="42.56321" lon="2.21275">
        <ele>1051.7</ele>
      </trkpt>
      <trkpt lat="42.56321" lon="2.21278">
        <ele>1051.5</ele>
      </trkpt>
      <trkpt lat="42.56321" lon="2.21279">
        <ele>1051.4</ele>
      </trkpt>
      <trkpt lat="42.56322" lon="2.21285">
        <ele>1051.7</ele>
      </trkpt>
      <trkpt lat="42.56327" lon="2.213">
        <ele>1054</ele>
      </trkpt>
      <trkpt lat="42.56328" lon="2.21309">
        <ele>1054.1</ele>
      </trkpt>
      <trkpt lat="42.56329" lon="2.21315">
        <ele>1054.3</ele>
      </trkpt>
      <trkpt lat="42.56329" lon="2.21321">
        <ele>1053.9</ele>
      </trkpt>
      <trkpt lat="42.56329" lon="2.21327">
        <ele>1053.5</ele>
      </trkpt>
      <trkpt lat="42.56328" lon="2.21335">
        <ele>1052.4</ele>
      </trkpt>
      <trkpt lat="42.56325" lon="2.21341">
        <ele>1050.7</ele>
      </trkpt>
      <trkpt lat="42.56322" lon="2.21354">
        <ele>1049.6</ele>
      </trkpt>
      <trkpt lat="42.56319" lon="2.21362">
        <ele>1048.2</ele>
      </trkpt>
      <trkpt lat="42.56317" lon="2.2137">
        <ele>1047.5</ele>
      </trkpt>
      <trkpt lat="42.56316" lon="2.21379">
        <ele>1047.6</ele>
      </trkpt>
      <trkpt lat="42.56316" lon="2.21386">
        <ele>1048.2</ele>
      </trkpt>
      <trkpt lat="42.56316" lon="2.21393">
        <ele>1048.7</ele>
      </trkpt>
      <trkpt lat="42.56315" lon="2.21399">
        <ele>1048.6</ele>
      </trkpt>
      <trkpt lat="42.56315" lon="2.21404">
        <ele>1049</ele>
      </trkpt>
      <trkpt lat="42.56315" lon="2.21408">
        <ele>1049.3</ele>
      </trkpt>
      <trkpt lat="42.56313" lon="2.21419">
        <ele>1049.3</ele>
      </trkpt>
      <trkpt lat="42.56312" lon="2.21423">
        <ele>1049.4</ele>
      </trkpt>
      <trkpt lat="42.56309" lon="2.21437">
        <ele>1050.5</ele>
      </trkpt>
      <trkpt lat="42.56307" lon="2.21448">
        <ele>1051.6</ele>
      </trkpt>
      <trkpt lat="42.56304" lon="2.21455">
        <ele>1051.5</ele>
      </trkpt>
      <trkpt lat="42.56302" lon="2.21459">
        <ele>1051.3</ele>
      </trkpt>
      <trkpt lat="42.563" lon="2.21463">
        <ele>1051.1</ele>
      </trkpt>
      <trkpt lat="42.56298" lon="2.21467">
        <ele>1051</ele>
      </trkpt>
      <trkpt lat="42.56294" lon="2.21476">
        <ele>1051</ele>
      </trkpt>
      <trkpt lat="42.56286" lon="2.21486">
        <ele>1049.6</ele>
      </trkpt>
      <trkpt lat="42.56278" lon="2.21497">
        <ele>1048.7</ele>
      </trkpt>
      <trkpt lat="42.56272" lon="2.21503">
        <ele>1047.6</ele>
      </trkpt>
      <trkpt lat="42.56268" lon="2.21507">
        <ele>1047</ele>
      </trkpt>
      <trkpt lat="42.56261" lon="2.21513">
        <ele>1045.5</ele>
      </trkpt>
      <trkpt lat="42.56249" lon="2.21521">
        <ele>1042.2</ele>
      </trkpt>
      <trkpt lat="42.56244" lon="2.21523">
        <ele>1040</ele>
      </trkpt>
      <trkpt lat="42.56233" lon="2.21533">
        <ele>1036.6</ele>
      </trkpt>
      <trkpt lat="42.56223" lon="2.21542">
        <ele>1033.4</ele>
      </trkpt>
      <trkpt lat="42.56207" lon="2.21557">
        <ele>1028.3</ele>
      </trkpt>
      <trkpt lat="42.562" lon="2.21562">
        <ele>1025.6</ele>
      </trkpt>
      <trkpt lat="42.56199" lon="2.21564">
        <ele>1025.6</ele>
      </trkpt>
      <trkpt lat="42.56196" lon="2.21567">
        <ele>1024.7</ele>
      </trkpt>
      <trkpt lat="42.56194" lon="2.21572">
        <ele>1024.8</ele>
      </trkpt>
      <trkpt lat="42.56194" lon="2.21578">
        <ele>1026.4</ele>
      </trkpt>
      <trkpt lat="42.56194" lon="2.21582">
        <ele>1027.4</ele>
      </trkpt>
      <trkpt lat="42.56195" lon="2.21585">
        <ele>1028</ele>
      </trkpt>
      <trkpt lat="42.56197" lon="2.21589">
        <ele>1028.5</ele>
      </trkpt>
      <trkpt lat="42.56201" lon="2.21593">
        <ele>1030.1</ele>
      </trkpt>
      <trkpt lat="42.56208" lon="2.21598">
        <ele>1033.3</ele>
      </trkpt>
      <trkpt lat="42.56209" lon="2.21599">
        <ele>1033.8</ele>
      </trkpt>
      <trkpt lat="42.56222" lon="2.21609">
        <ele>1040</ele>
      </trkpt>
      <trkpt lat="42.56225" lon="2.21613">
        <ele>1041.2</ele>
      </trkpt>
      <trkpt lat="42.56228" lon="2.21617">
        <ele>1042.4</ele>
      </trkpt>
      <trkpt lat="42.5623" lon="2.21621">
        <ele>1043.1</ele>
      </trkpt>
      <trkpt lat="42.56232" lon="2.21626">
        <ele>1043.6</ele>
      </trkpt>
      <trkpt lat="42.56235" lon="2.21633">
        <ele>1044.5</ele>
      </trkpt>
      <trkpt lat="42.56237" lon="2.21639">
        <ele>1045</ele>
      </trkpt>
      <trkpt lat="42.56241" lon="2.21646">
        <ele>1046.7</ele>
      </trkpt>
      <trkpt lat="42.56243" lon="2.2165">
        <ele>1047.4</ele>
      </trkpt>
      <trkpt lat="42.56246" lon="2.21654">
        <ele>1048.9</ele>
      </trkpt>
      <trkpt lat="42.5625" lon="2.21662">
        <ele>1050.6</ele>
      </trkpt>
      <trkpt lat="42.56259" lon="2.21677">
        <ele>1055.6</ele>
      </trkpt>
      <trkpt lat="42.56265" lon="2.21689">
        <ele>1059</ele>
      </trkpt>
      <trkpt lat="42.56273" lon="2.21701">
        <ele>1063.5</ele>
      </trkpt>
      <trkpt lat="42.56276" lon="2.21705">
        <ele>1065.1</ele>
      </trkpt>
      <trkpt lat="42.56278" lon="2.21709">
        <ele>1066.1</ele>
      </trkpt>
      <trkpt lat="42.5628" lon="2.21713">
        <ele>1067.1</ele>
      </trkpt>
      <trkpt lat="42.5628" lon="2.21718">
        <ele>1066.8</ele>
      </trkpt>
      <trkpt lat="42.56279" lon="2.21721">
        <ele>1066</ele>
      </trkpt>
      <trkpt lat="42.56278" lon="2.21725">
        <ele>1065.2</ele>
      </trkpt>
      <trkpt lat="42.56274" lon="2.2173">
        <ele>1062.6</ele>
      </trkpt>
      <trkpt lat="42.56269" lon="2.21733">
        <ele>1059.5</ele>
      </trkpt>
      <trkpt lat="42.56266" lon="2.21736">
        <ele>1057.6</ele>
      </trkpt>
      <trkpt lat="42.56262" lon="2.21739">
        <ele>1055.2</ele>
      </trkpt>
      <trkpt lat="42.56258" lon="2.21743">
        <ele>1052.8</ele>
      </trkpt>
      <trkpt lat="42.56254" lon="2.21746">
        <ele>1050.4</ele>
      </trkpt>
      <trkpt lat="42.5625" lon="2.21749">
        <ele>1048</ele>
      </trkpt>
      <trkpt lat="42.56246" lon="2.21751">
        <ele>1046.5</ele>
      </trkpt>
      <trkpt lat="42.56241" lon="2.21753">
        <ele>1045</ele>
      </trkpt>
      <trkpt lat="42.56236" lon="2.21755">
        <ele>1043.5</ele>
      </trkpt>
      <trkpt lat="42.56231" lon="2.21756">
        <ele>1041.5</ele>
      </trkpt>
      <trkpt lat="42.56227" lon="2.21758">
        <ele>1040.5</ele>
      </trkpt>
      <trkpt lat="42.56223" lon="2.21761">
        <ele>1040.1</ele>
      </trkpt>
      <trkpt lat="42.56219" lon="2.21765">
        <ele>1040.3</ele>
      </trkpt>
      <trkpt lat="42.56194" lon="2.21794">
        <ele>1044.1</ele>
      </trkpt>
      <trkpt lat="42.56189" lon="2.218">
        <ele>1045.1</ele>
      </trkpt>
      <trkpt lat="42.56187" lon="2.21801">
        <ele>1044.7</ele>
      </trkpt>
      <trkpt lat="42.56186" lon="2.21802">
        <ele>1044.8</ele>
      </trkpt>
      <trkpt lat="42.56183" lon="2.21804">
        <ele>1044.6</ele>
      </trkpt>
      <trkpt lat="42.56179" lon="2.21805">
        <ele>1043.2</ele>
      </trkpt>
      <trkpt lat="42.56175" lon="2.21805">
        <ele>1041.3</ele>
      </trkpt>
      <trkpt lat="42.56159" lon="2.21801">
        <ele>1032.7</ele>
      </trkpt>
      <trkpt lat="42.56153" lon="2.218">
        <ele>1030.3</ele>
      </trkpt>
      <trkpt lat="42.5615" lon="2.21801">
        <ele>1030</ele>
      </trkpt>
      <trkpt lat="42.56147" lon="2.21803">
        <ele>1030.2</ele>
      </trkpt>
      <trkpt lat="42.56137" lon="2.21809">
        <ele>1030.7</ele>
      </trkpt>
      <trkpt lat="42.56134" lon="2.21812">
        <ele>1031.5</ele>
      </trkpt>
      <trkpt lat="42.56131" lon="2.21812">
        <ele>1030.6</ele>
      </trkpt>
      <trkpt lat="42.56129" lon="2.21812">
        <ele>1029.9</ele>
      </trkpt>
      <trkpt lat="42.56123" lon="2.21811">
        <ele>1027.5</ele>
      </trkpt>
      <trkpt lat="42.56101" lon="2.21807">
        <ele>1018.5</ele>
      </trkpt>
      <trkpt lat="42.56088" lon="2.21806">
        <ele>1014</ele>
      </trkpt>
      <trkpt lat="42.56082" lon="2.21807">
        <ele>1012.4</ele>
      </trkpt>
      <trkpt lat="42.56078" lon="2.21808">
        <ele>1010.7</ele>
      </trkpt>
      <trkpt lat="42.56074" lon="2.21809">
        <ele>1009</ele>
      </trkpt>
      <trkpt lat="42.56069" lon="2.21812">
        <ele>1007.9</ele>
      </trkpt>
      <trkpt lat="42.56059" lon="2.21817">
        <ele>1004.9</ele>
      </trkpt>
      <trkpt lat="42.56051" lon="2.21823">
        <ele>1003.5</ele>
      </trkpt>
      <trkpt lat="42.56043" lon="2.21831">
        <ele>1003.1</ele>
      </trkpt>
      <trkpt lat="42.56038" lon="2.21836">
        <ele>1003</ele>
      </trkpt>
      <trkpt lat="42.56036" lon="2.2184">
        <ele>1004.4</ele>
      </trkpt>
      <trkpt lat="42.5603" lon="2.21855">
        <ele>1010.1</ele>
      </trkpt>
      <trkpt lat="42.56019" lon="2.21888">
        <ele>1023.5</ele>
      </trkpt>
      <trkpt lat="42.56014" lon="2.21897">
        <ele>1025.7</ele>
      </trkpt>
      <trkpt lat="42.56012" lon="2.21901">
        <ele>1026.8</ele>
      </trkpt>
      <trkpt lat="42.56009" lon="2.21904">
        <ele>1026.6</ele>
      </trkpt>
      <trkpt lat="42.56006" lon="2.21906">
        <ele>1025.8</ele>
      </trkpt>
      <trkpt lat="42.55996" lon="2.21912">
        <ele>1022.3</ele>
      </trkpt>
      <trkpt lat="42.55993" lon="2.21915">
        <ele>1021.8</ele>
      </trkpt>
      <trkpt lat="42.55988" lon="2.21921">
        <ele>1019.8</ele>
      </trkpt>
      <trkpt lat="42.5598" lon="2.21928">
        <ele>1015</ele>
      </trkpt>
      <trkpt lat="42.55977" lon="2.21933">
        <ele>1013.6</ele>
      </trkpt>
      <trkpt lat="42.55972" lon="2.21941">
        <ele>1011.2</ele>
      </trkpt>
      <trkpt lat="42.5597" lon="2.2195">
        <ele>1011.3</ele>
      </trkpt>
      <trkpt lat="42.55969" lon="2.21958">
        <ele>1011.9</ele>
      </trkpt>
      <trkpt lat="42.5597" lon="2.21969">
        <ele>1014.6</ele>
      </trkpt>
      <trkpt lat="42.5597" lon="2.21976">
        <ele>1015.9</ele>
      </trkpt>
      <trkpt lat="42.55971" lon="2.21982">
        <ele>1017.8</ele>
      </trkpt>
      <trkpt lat="42.55973" lon="2.21991">
        <ele>1021</ele>
      </trkpt>
      <trkpt lat="42.55977" lon="2.22001">
        <ele>1025.9</ele>
      </trkpt>
      <trkpt lat="42.5598" lon="2.22012">
        <ele>1027.3</ele>
      </trkpt>
      <trkpt lat="42.55985" lon="2.22023">
        <ele>1030.3</ele>
      </trkpt>
      <trkpt lat="42.55988" lon="2.22031">
        <ele>1031.9</ele>
      </trkpt>
      <trkpt lat="42.5599" lon="2.22036">
        <ele>1033</ele>
      </trkpt>
      <trkpt lat="42.5599" lon="2.2204">
        <ele>1032.6</ele>
      </trkpt>
      <trkpt lat="42.5599" lon="2.22045">
        <ele>1032.1</ele>
      </trkpt>
      <trkpt lat="42.55989" lon="2.2205">
        <ele>1030.7</ele>
      </trkpt>
      <trkpt lat="42.55988" lon="2.22053">
        <ele>1029.6</ele>
      </trkpt>
      <trkpt lat="42.55987" lon="2.22057">
        <ele>1028.4</ele>
      </trkpt>
      <trkpt lat="42.55985" lon="2.2206">
        <ele>1026.5</ele>
      </trkpt>
      <trkpt lat="42.55983" lon="2.22063">
        <ele>1024.6</ele>
      </trkpt>
      <trkpt lat="42.55981" lon="2.22067">
        <ele>1022.6</ele>
      </trkpt>
      <trkpt lat="42.55979" lon="2.2207">
        <ele>1020.7</ele>
      </trkpt>
      <trkpt lat="42.55977" lon="2.22076">
        <ele>1018.5</ele>
      </trkpt>
      <trkpt lat="42.55976" lon="2.22083">
        <ele>1017</ele>
      </trkpt>
      <trkpt lat="42.55975" lon="2.22089">
        <ele>1015.1</ele>
      </trkpt>
      <trkpt lat="42.55975" lon="2.22094">
        <ele>1014.1</ele>
      </trkpt>
      <trkpt lat="42.55977" lon="2.22102">
        <ele>1014.1</ele>
      </trkpt>
      <trkpt lat="42.55981" lon="2.22111">
        <ele>1015.3</ele>
      </trkpt>
      <trkpt lat="42.55985" lon="2.22118">
        <ele>1016.8</ele>
      </trkpt>
      <trkpt lat="42.5599" lon="2.22125">
        <ele>1018.9</ele>
      </trkpt>
      <trkpt lat="42.55995" lon="2.2213">
        <ele>1021.3</ele>
      </trkpt>
      <trkpt lat="42.55997" lon="2.22134">
        <ele>1021.8</ele>
      </trkpt>
      <trkpt lat="42.56001" lon="2.22136">
        <ele>1023.9</ele>
      </trkpt>
      <trkpt lat="42.56008" lon="2.22141">
        <ele>1026.4</ele>
      </trkpt>
      <trkpt lat="42.56014" lon="2.22142">
        <ele>1029.2</ele>
      </trkpt>
      <trkpt lat="42.5602" lon="2.22146">
        <ele>1031.3</ele>
      </trkpt>
      <trkpt lat="42.5603" lon="2.22152">
        <ele>1034.7</ele>
      </trkpt>
      <trkpt lat="42.56038" lon="2.22155">
        <ele>1037.8</ele>
      </trkpt>
      <trkpt lat="42.56043" lon="2.22157">
        <ele>1039.7</ele>
      </trkpt>
      <trkpt lat="42.56049" lon="2.2216">
        <ele>1041.7</ele>
      </trkpt>
      <trkpt lat="42.56054" lon="2.22165">
        <ele>1042.5</ele>
      </trkpt>
      <trkpt lat="42.56057" lon="2.22168">
        <ele>1043</ele>
      </trkpt>
      <trkpt lat="42.56061" lon="2.22171">
        <ele>1044.3</ele>
      </trkpt>
      <trkpt lat="42.56064" lon="2.22174">
        <ele>1045.1</ele>
      </trkpt>
      <trkpt lat="42.56068" lon="2.22177">
        <ele>1046.5</ele>
      </trkpt>
      <trkpt lat="42.56072" lon="2.22181">
        <ele>1047.8</ele>
      </trkpt>
      <trkpt lat="42.56076" lon="2.22184">
        <ele>1049.4</ele>
      </trkpt>
      <trkpt lat="42.56078" lon="2.22187">
        <ele>1049.9</ele>
      </trkpt>
      <trkpt lat="42.5608" lon="2.22191">
        <ele>1050.4</ele>
      </trkpt>
      <trkpt lat="42.56082" lon="2.22195">
        <ele>1050.8</ele>
      </trkpt>
      <trkpt lat="42.56082" lon="2.22198">
        <ele>1050.3</ele>
      </trkpt>
      <trkpt lat="42.56082" lon="2.22202">
        <ele>1049.7</ele>
      </trkpt>
      <trkpt lat="42.56081" lon="2.22205">
        <ele>1048.6</ele>
      </trkpt>
      <trkpt lat="42.56078" lon="2.22219">
        <ele>1044.4</ele>
      </trkpt>
      <trkpt lat="42.56072" lon="2.22235">
        <ele>1037.5</ele>
      </trkpt>
      <trkpt lat="42.5607" lon="2.22239">
        <ele>1035.3</ele>
      </trkpt>
      <trkpt lat="42.56069" lon="2.22242">
        <ele>1034</ele>
      </trkpt>
      <trkpt lat="42.56068" lon="2.22249">
        <ele>1031.8</ele>
      </trkpt>
      <trkpt lat="42.56068" lon="2.22258">
        <ele>1029.2</ele>
      </trkpt>
      <trkpt lat="42.56067" lon="2.2227">
        <ele>1024.8</ele>
      </trkpt>
      <trkpt lat="42.56066" lon="2.22277">
        <ele>1021.9</ele>
      </trkpt>
      <trkpt lat="42.56066" lon="2.22286">
        <ele>1019.2</ele>
      </trkpt>
      <trkpt lat="42.56065" lon="2.22294">
        <ele>1016</ele>
      </trkpt>
      <trkpt lat="42.56066" lon="2.22299">
        <ele>1015.3</ele>
      </trkpt>
      <trkpt lat="42.56066" lon="2.22303">
        <ele>1014.1</ele>
      </trkpt>
      <trkpt lat="42.56067" lon="2.22308">
        <ele>1013.3</ele>
      </trkpt>
      <trkpt lat="42.56068" lon="2.22313">
        <ele>1012.6</ele>
      </trkpt>
      <trkpt lat="42.56069" lon="2.22317">
        <ele>1012.1</ele>
      </trkpt>
      <trkpt lat="42.56071" lon="2.22322">
        <ele>1012.1</ele>
      </trkpt>
      <trkpt lat="42.56073" lon="2.22326">
        <ele>1012.4</ele>
      </trkpt>
      <trkpt lat="42.56076" lon="2.2233">
        <ele>1013.5</ele>
      </trkpt>
      <trkpt lat="42.5608" lon="2.22335">
        <ele>1015.3</ele>
      </trkpt>
      <trkpt lat="42.56084" lon="2.22341">
        <ele>1017.5</ele>
      </trkpt>
      <trkpt lat="42.56092" lon="2.22351">
        <ele>1021.9</ele>
      </trkpt>
      <trkpt lat="42.56096" lon="2.22353">
        <ele>1024.5</ele>
      </trkpt>
      <trkpt lat="42.56103" lon="2.22362">
        <ele>1028.3</ele>
      </trkpt>
      <trkpt lat="42.56108" lon="2.22368">
        <ele>1031.1</ele>
      </trkpt>
      <trkpt lat="42.5611" lon="2.22372">
        <ele>1032</ele>
      </trkpt>
      <trkpt lat="42.56111" lon="2.22375">
        <ele>1032.3</ele>
      </trkpt>
      <trkpt lat="42.5611" lon="2.22389">
        <ele>1029.6</ele>
      </trkpt>
      <trkpt lat="42.56104" lon="2.22401">
        <ele>1023.8</ele>
      </trkpt>
      <trkpt lat="42.56099" lon="2.22415">
        <ele>1018.3</ele>
      </trkpt>
      <trkpt lat="42.56098" lon="2.22426">
        <ele>1015.3</ele>
      </trkpt>
      <trkpt lat="42.56099" lon="2.22438">
        <ele>1013.4</ele>
      </trkpt>
      <trkpt lat="42.56104" lon="2.22449">
        <ele>1014.6</ele>
      </trkpt>
      <trkpt lat="42.56112" lon="2.22465">
        <ele>1016.9</ele>
      </trkpt>
      <trkpt lat="42.56121" lon="2.22481">
        <ele>1020.1</ele>
      </trkpt>
      <trkpt lat="42.56131" lon="2.22493">
        <ele>1024.9</ele>
      </trkpt>
      <trkpt lat="42.56137" lon="2.22501">
        <ele>1027.8</ele>
      </trkpt>
      <trkpt lat="42.56139" lon="2.22511">
        <ele>1028.3</ele>
      </trkpt>
      <trkpt lat="42.56138" lon="2.22523">
        <ele>1026.3</ele>
      </trkpt>
      <trkpt lat="42.56128" lon="2.22535">
        <ele>1017.8</ele>
      </trkpt>
      <trkpt lat="42.56122" lon="2.22539">
        <ele>1013.1</ele>
      </trkpt>
      <trkpt lat="42.56116" lon="2.22544">
        <ele>1008.3</ele>
      </trkpt>
      <trkpt lat="42.56111" lon="2.22556">
        <ele>1003.7</ele>
      </trkpt>
      <trkpt lat="42.56106" lon="2.2258">
        <ele>998.1</ele>
      </trkpt>
      <trkpt lat="42.56103" lon="2.22598">
        <ele>994.7</ele>
      </trkpt>
      <trkpt lat="42.56104" lon="2.22612">
        <ele>994.4</ele>
      </trkpt>
      <trkpt lat="42.56107" lon="2.22631">
        <ele>995.1</ele>
      </trkpt>
      <trkpt lat="42.5611" lon="2.22647">
        <ele>995.8</ele>
      </trkpt>
      <trkpt lat="42.56109" lon="2.22656">
        <ele>994.5</ele>
      </trkpt>
      <trkpt lat="42.56107" lon="2.22666">
        <ele>992.5</ele>
      </trkpt>
      <trkpt lat="42.56108" lon="2.22684">
        <ele>989.7</ele>
      </trkpt>
      <trkpt lat="42.56114" lon="2.22704">
        <ele>989.1</ele>
      </trkpt>
      <trkpt lat="42.56123" lon="2.2272">
        <ele>990.3</ele>
      </trkpt>
      <trkpt lat="42.56131" lon="2.22728">
        <ele>992.4</ele>
      </trkpt>
      <trkpt lat="42.56137" lon="2.22731">
        <ele>994.6</ele>
      </trkpt>
      <trkpt lat="42.56146" lon="2.22731">
        <ele>999</ele>
      </trkpt>
      <trkpt lat="42.56165" lon="2.22728">
        <ele>1009.1</ele>
      </trkpt>
      <trkpt lat="42.56174" lon="2.22728">
        <ele>1011.5</ele>
      </trkpt>
      <trkpt lat="42.56187" lon="2.22733">
        <ele>1012.7</ele>
      </trkpt>
      <trkpt lat="42.5621" lon="2.22745">
        <ele>1013.6</ele>
      </trkpt>
      <trkpt lat="42.56233" lon="2.22757">
        <ele>1013.2</ele>
      </trkpt>
      <trkpt lat="42.56245" lon="2.22763">
        <ele>1012.9</ele>
      </trkpt>
      <trkpt lat="42.56267" lon="2.22768">
        <ele>1016.4</ele>
      </trkpt>
      <trkpt lat="42.56283" lon="2.22768">
        <ele>1021</ele>
      </trkpt>
      <trkpt lat="42.56296" lon="2.22768">
        <ele>1024.7</ele>
      </trkpt>
      <trkpt lat="42.56306" lon="2.22773">
        <ele>1024.9</ele>
      </trkpt>
      <trkpt lat="42.56312" lon="2.22781">
        <ele>1022.4</ele>
      </trkpt>
      <trkpt lat="42.56317" lon="2.2279">
        <ele>1019.1</ele>
      </trkpt>
      <trkpt lat="42.56322" lon="2.22802">
        <ele>1014</ele>
      </trkpt>
      <trkpt lat="42.56326" lon="2.22809">
        <ele>1011.3</ele>
      </trkpt>
      <trkpt lat="42.56332" lon="2.22815">
        <ele>1009.6</ele>
      </trkpt>
      <trkpt lat="42.5634" lon="2.22819">
        <ele>1009.6</ele>
      </trkpt>
      <trkpt lat="42.56347" lon="2.22824">
        <ele>1008.9</ele>
      </trkpt>
      <trkpt lat="42.56354" lon="2.22829">
        <ele>1008.4</ele>
      </trkpt>
      <trkpt lat="42.5636" lon="2.22836">
        <ele>1007.7</ele>
      </trkpt>
      <trkpt lat="42.56365" lon="2.22845">
        <ele>1008.1</ele>
      </trkpt>
      <trkpt lat="42.56374" lon="2.22855">
        <ele>1009.7</ele>
      </trkpt>
      <trkpt lat="42.56384" lon="2.22863">
        <ele>1011.9</ele>
      </trkpt>
      <trkpt lat="42.56396" lon="2.22873">
        <ele>1014.6</ele>
      </trkpt>
      <trkpt lat="42.56409" lon="2.22876">
        <ele>1018.5</ele>
      </trkpt>
      <trkpt lat="42.56417" lon="2.22877">
        <ele>1020.9</ele>
      </trkpt>
      <trkpt lat="42.56426" lon="2.22879">
        <ele>1023.7</ele>
      </trkpt>
      <trkpt lat="42.56432" lon="2.22882">
        <ele>1025.5</ele>
      </trkpt>
      <trkpt lat="42.56434" lon="2.22889">
        <ele>1025.8</ele>
      </trkpt>
      <trkpt lat="42.56435" lon="2.22897">
        <ele>1025.7</ele>
      </trkpt>
      <trkpt lat="42.56431" lon="2.22904">
        <ele>1023.8</ele>
      </trkpt>
      <trkpt lat="42.56426" lon="2.2291">
        <ele>1021.4</ele>
      </trkpt>
      <trkpt lat="42.56419" lon="2.22914">
        <ele>1018.2</ele>
      </trkpt>
      <trkpt lat="42.56405" lon="2.22921">
        <ele>1015.1</ele>
      </trkpt>
      <trkpt lat="42.56389" lon="2.22926">
        <ele>1011.8</ele>
      </trkpt>
      <trkpt lat="42.56378" lon="2.2293">
        <ele>1009.7</ele>
      </trkpt>
      <trkpt lat="42.56368" lon="2.2293">
        <ele>1006.2</ele>
      </trkpt>
      <trkpt lat="42.56351" lon="2.22923">
        <ele>997.5</ele>
      </trkpt>
      <trkpt lat="42.56345" lon="2.22919">
        <ele>993.9</ele>
      </trkpt>
      <trkpt lat="42.56339" lon="2.22919">
        <ele>991.8</ele>
      </trkpt>
      <trkpt lat="42.56331" lon="2.22924">
        <ele>990.9</ele>
      </trkpt>
      <trkpt lat="42.56326" lon="2.22928">
        <ele>990.5</ele>
      </trkpt>
      <trkpt lat="42.5632" lon="2.2293">
        <ele>988.9</ele>
      </trkpt>
      <trkpt lat="42.56306" lon="2.2293">
        <ele>983.5</ele>
      </trkpt>
      <trkpt lat="42.56297" lon="2.22933">
        <ele>980.9</ele>
      </trkpt>
      <trkpt lat="42.56293" lon="2.2294">
        <ele>981.4</ele>
      </trkpt>
      <trkpt lat="42.56287" lon="2.22951">
        <ele>982.1</ele>
      </trkpt>
      <trkpt lat="42.56286" lon="2.22965">
        <ele>985.6</ele>
      </trkpt>
      <trkpt lat="42.56284" lon="2.22984">
        <ele>989.9</ele>
      </trkpt>
      <trkpt lat="42.56284" lon="2.22999">
        <ele>994.1</ele>
      </trkpt>
      <trkpt lat="42.56283" lon="2.23017">
        <ele>1000.6</ele>
      </trkpt>
      <trkpt lat="42.56283" lon="2.23029">
        <ele>1005.3</ele>
      </trkpt>
      <trkpt lat="42.56279" lon="2.2304">
        <ele>1007.6</ele>
      </trkpt>
      <trkpt lat="42.56272" lon="2.23047">
        <ele>1006.9</ele>
      </trkpt>
      <trkpt lat="42.5626" lon="2.23045">
        <ele>1000</ele>
      </trkpt>
      <trkpt lat="42.56244" lon="2.23036">
        <ele>989.6</ele>
      </trkpt>
      <trkpt lat="42.56232" lon="2.23028">
        <ele>982.8</ele>
      </trkpt>
      <trkpt lat="42.5622" lon="2.23024">
        <ele>977.6</ele>
      </trkpt>
      <trkpt lat="42.5621" lon="2.23029">
        <ele>977.2</ele>
      </trkpt>
      <trkpt lat="42.56199" lon="2.23042">
        <ele>980.8</ele>
      </trkpt>
      <trkpt lat="42.56191" lon="2.2305">
        <ele>983</ele>
      </trkpt>
      <trkpt lat="42.56184" lon="2.23055">
        <ele>984</ele>
      </trkpt>
      <trkpt lat="42.56173" lon="2.23062">
        <ele>985.3</ele>
      </trkpt>
      <trkpt lat="42.56162" lon="2.23064">
        <ele>984.4</ele>
      </trkpt>
      <trkpt lat="42.56135" lon="2.23063">
        <ele>980.1</ele>
      </trkpt>
      <trkpt lat="42.56111" lon="2.23061">
        <ele>975.5</ele>
      </trkpt>
      <trkpt lat="42.56099" lon="2.23063">
        <ele>975</ele>
      </trkpt>
      <trkpt lat="42.56083" lon="2.23068">
        <ele>975.8</ele>
      </trkpt>
      <trkpt lat="42.56075" lon="2.23071">
        <ele>976.8</ele>
      </trkpt>
      <trkpt lat="42.56068" lon="2.23071">
        <ele>976.1</ele>
      </trkpt>
      <trkpt lat="42.56054" lon="2.23067">
        <ele>972.4</ele>
      </trkpt>
      <trkpt lat="42.56047" lon="2.23067">
        <ele>971.8</ele>
      </trkpt>
      <trkpt lat="42.56037" lon="2.2307">
        <ele>972.4</ele>
      </trkpt>
      <trkpt lat="42.56024" lon="2.23078">
        <ele>975.2</ele>
      </trkpt>
      <trkpt lat="42.56016" lon="2.23083">
        <ele>976.8</ele>
      </trkpt>
      <trkpt lat="42.5601" lon="2.23085">
        <ele>976.7</ele>
      </trkpt>
      <trkpt lat="42.56002" lon="2.23082">
        <ele>974.6</ele>
      </trkpt>
      <trkpt lat="42.55994" lon="2.23072">
        <ele>968.6</ele>
      </trkpt>
      <trkpt lat="42.55947" lon="2.23018">
        <ele>946.7</ele>
      </trkpt>
      <trkpt lat="42.55941" lon="2.23013">
        <ele>945.9</ele>
      </trkpt>
      <trkpt lat="42.55936" lon="2.23013">
        <ele>946.2</ele>
      </trkpt>
      <trkpt lat="42.55928" lon="2.23011">
        <ele>946.4</ele>
      </trkpt>
      <trkpt lat="42.55922" lon="2.23015">
        <ele>947.3</ele>
      </trkpt>
      <trkpt lat="42.55916" lon="2.23019">
        <ele>947.5</ele>
      </trkpt>
      <trkpt lat="42.55912" lon="2.23029">
        <ele>945.2</ele>
      </trkpt>
      <trkpt lat="42.55911" lon="2.23039">
        <ele>945.3</ele>
      </trkpt>
      <trkpt lat="42.55921" lon="2.231">
        <ele>955.1</ele>
      </trkpt>
      <trkpt lat="42.55926" lon="2.23151">
        <ele>955</ele>
      </trkpt>
      <trkpt lat="42.55929" lon="2.23175">
        <ele>955</ele>
      </trkpt>
      <trkpt lat="42.5593" lon="2.23189">
        <ele>953.5</ele>
      </trkpt>
      <trkpt lat="42.55934" lon="2.23202">
        <ele>954.1</ele>
      </trkpt>
      <trkpt lat="42.55938" lon="2.23212">
        <ele>955.3</ele>
      </trkpt>
      <trkpt lat="42.55941" lon="2.23221">
        <ele>956.1</ele>
      </trkpt>
      <trkpt lat="42.5594" lon="2.23233">
        <ele>953.8</ele>
      </trkpt>
      <trkpt lat="42.55938" lon="2.23258">
        <ele>950.4</ele>
      </trkpt>
      <trkpt lat="42.55941" lon="2.23274">
        <ele>953.1</ele>
      </trkpt>
      <trkpt lat="42.55943" lon="2.23287">
        <ele>955</ele>
      </trkpt>
      <trkpt lat="42.55944" lon="2.23297">
        <ele>956</ele>
      </trkpt>
      <trkpt lat="42.55937" lon="2.23323">
        <ele>951.8</ele>
      </trkpt>
      <trkpt lat="42.55933" lon="2.23335">
        <ele>949.3</ele>
      </trkpt>
      <trkpt lat="42.55932" lon="2.2335">
        <ele>949.4</ele>
      </trkpt>
      <trkpt lat="42.55933" lon="2.23363">
        <ele>950.9</ele>
      </trkpt>
      <trkpt lat="42.55939" lon="2.23379">
        <ele>955.8</ele>
      </trkpt>
      <trkpt lat="42.55943" lon="2.23396">
        <ele>959.2</ele>
      </trkpt>
      <trkpt lat="42.55946" lon="2.23405">
        <ele>961.5</ele>
      </trkpt>
      <trkpt lat="42.55945" lon="2.23414">
        <ele>961.2</ele>
      </trkpt>
      <trkpt lat="42.55941" lon="2.23421">
        <ele>960.4</ele>
      </trkpt>
      <trkpt lat="42.55932" lon="2.23424">
        <ele>956.2</ele>
      </trkpt>
      <trkpt lat="42.55923" lon="2.23424">
        <ele>950.8</ele>
      </trkpt>
      <trkpt lat="42.5591" lon="2.23426">
        <ele>945</ele>
      </trkpt>
      <trkpt lat="42.55898" lon="2.2343">
        <ele>941.5</ele>
      </trkpt>
      <trkpt lat="42.55884" lon="2.23441">
        <ele>940.1</ele>
      </trkpt>
      <trkpt lat="42.55875" lon="2.23453">
        <ele>941.3</ele>
      </trkpt>
      <trkpt lat="42.55867" lon="2.23461">
        <ele>941.2</ele>
      </trkpt>
      <trkpt lat="42.55856" lon="2.23469">
        <ele>939.8</ele>
      </trkpt>
      <trkpt lat="42.55846" lon="2.2347">
        <ele>935.9</ele>
      </trkpt>
      <trkpt lat="42.55822" lon="2.23476">
        <ele>927.5</ele>
      </trkpt>
      <trkpt lat="42.55804" lon="2.23485">
        <ele>922.5</ele>
      </trkpt>
      <trkpt lat="42.55792" lon="2.23499">
        <ele>922.3</ele>
      </trkpt>
      <trkpt lat="42.55777" lon="2.23517">
        <ele>920.7</ele>
      </trkpt>
      <trkpt lat="42.55769" lon="2.23527">
        <ele>919.8</ele>
      </trkpt>
      <trkpt lat="42.55761" lon="2.23535">
        <ele>918.2</ele>
      </trkpt>
      <trkpt lat="42.55741" lon="2.23551">
        <ele>910.4</ele>
      </trkpt>
      <trkpt lat="42.55735" lon="2.23561">
        <ele>908.7</ele>
      </trkpt>
      <trkpt lat="42.55733" lon="2.23571">
        <ele>910.2</ele>
      </trkpt>
      <trkpt lat="42.55733" lon="2.23584">
        <ele>913.9</ele>
      </trkpt>
      <trkpt lat="42.55735" lon="2.23595">
        <ele>914.3</ele>
      </trkpt>
      <trkpt lat="42.55738" lon="2.23604">
        <ele>915.6</ele>
      </trkpt>
      <trkpt lat="42.55747" lon="2.23629">
        <ele>919.8</ele>
      </trkpt>
      <trkpt lat="42.55752" lon="2.23645">
        <ele>921.6</ele>
      </trkpt>
      <trkpt lat="42.55756" lon="2.2366">
        <ele>922.7</ele>
      </trkpt>
      <trkpt lat="42.55761" lon="2.23673">
        <ele>925.1</ele>
      </trkpt>
      <trkpt lat="42.55769" lon="2.23686">
        <ele>929.8</ele>
      </trkpt>
      <trkpt lat="42.55772" lon="2.23696">
        <ele>931.4</ele>
      </trkpt>
      <trkpt lat="42.55773" lon="2.23712">
        <ele>931.3</ele>
      </trkpt>
      <trkpt lat="42.55768" lon="2.2374">
        <ele>926.6</ele>
      </trkpt>
      <trkpt lat="42.55765" lon="2.23751">
        <ele>924.3</ele>
      </trkpt>
      <trkpt lat="42.55761" lon="2.2376">
        <ele>923.8</ele>
      </trkpt>
      <trkpt lat="42.55756" lon="2.23764">
        <ele>921.5</ele>
      </trkpt>
      <trkpt lat="42.55743" lon="2.23765">
        <ele>913.3</ele>
      </trkpt>
      <trkpt lat="42.55735" lon="2.23771">
        <ele>909.7</ele>
      </trkpt>
      <trkpt lat="42.55726" lon="2.23787">
        <ele>907.8</ele>
      </trkpt>
      <trkpt lat="42.55713" lon="2.23811">
        <ele>905.2</ele>
      </trkpt>
      <trkpt lat="42.55706" lon="2.23834">
        <ele>906.2</ele>
      </trkpt>
      <trkpt lat="42.55699" lon="2.2386">
        <ele>910.2</ele>
      </trkpt>
      <trkpt lat="42.55693" lon="2.23876">
        <ele>911.6</ele>
      </trkpt>
      <trkpt lat="42.55677" lon="2.23902">
        <ele>909.8</ele>
      </trkpt>
      <trkpt lat="42.55662" lon="2.23922">
        <ele>905.9</ele>
      </trkpt>
      <trkpt lat="42.55648" lon="2.2394">
        <ele>899.1</ele>
      </trkpt>
      <trkpt lat="42.55642" lon="2.23951">
        <ele>896.4</ele>
      </trkpt>
      <trkpt lat="42.55638" lon="2.23962">
        <ele>895.1</ele>
      </trkpt>
      <trkpt lat="42.55637" lon="2.23975">
        <ele>896.3</ele>
      </trkpt>
      <trkpt lat="42.55638" lon="2.23983">
        <ele>898.5</ele>
      </trkpt>
      <trkpt lat="42.5564" lon="2.23991">
        <ele>901.5</ele>
      </trkpt>
      <trkpt lat="42.55643" lon="2.23999">
        <ele>905.5</ele>
      </trkpt>
      <trkpt lat="42.55649" lon="2.24012">
        <ele>908.2</ele>
      </trkpt>
      <trkpt lat="42.55654" lon="2.2403">
        <ele>908.1</ele>
      </trkpt>
      <trkpt lat="42.55657" lon="2.24072">
        <ele>900</ele>
      </trkpt>
      <trkpt lat="42.55656" lon="2.24086">
        <ele>895.7</ele>
      </trkpt>
      <trkpt lat="42.55657" lon="2.24102">
        <ele>893</ele>
      </trkpt>
      <trkpt lat="42.55661" lon="2.24121">
        <ele>892.2</ele>
      </trkpt>
      <trkpt lat="42.55665" lon="2.24136">
        <ele>892.2</ele>
      </trkpt>
      <trkpt lat="42.55669" lon="2.24163">
        <ele>890.1</ele>
      </trkpt>
      <trkpt lat="42.55672" lon="2.24178">
        <ele>890</ele>
      </trkpt>
      <trkpt lat="42.55682" lon="2.24228">
        <ele>889.5</ele>
      </trkpt>
      <trkpt lat="42.5569" lon="2.24263">
        <ele>891</ele>
      </trkpt>
      <trkpt lat="42.55694" lon="2.24286">
        <ele>892.4</ele>
      </trkpt>
      <trkpt lat="42.55697" lon="2.24305">
        <ele>893</ele>
      </trkpt>
      <trkpt lat="42.55696" lon="2.24316">
        <ele>891.1</ele>
      </trkpt>
      <trkpt lat="42.55694" lon="2.2433">
        <ele>888</ele>
      </trkpt>
      <trkpt lat="42.5569" lon="2.24362">
        <ele>884.3</ele>
      </trkpt>
      <trkpt lat="42.55686" lon="2.24395">
        <ele>881.1</ele>
      </trkpt>
      <trkpt lat="42.55686" lon="2.24417">
        <ele>881.1</ele>
      </trkpt>
      <trkpt lat="42.55686" lon="2.24439">
        <ele>879.7</ele>
      </trkpt>
      <trkpt lat="42.55687" lon="2.24463">
        <ele>879</ele>
      </trkpt>
      <trkpt lat="42.55687" lon="2.2448">
        <ele>877.9</ele>
      </trkpt>
      <trkpt lat="42.55684" lon="2.24502">
        <ele>874.2</ele>
      </trkpt>
      <trkpt lat="42.55684" lon="2.24514">
        <ele>873.4</ele>
      </trkpt>
      <trkpt lat="42.55684" lon="2.24526">
        <ele>872.6</ele>
      </trkpt>
      <trkpt lat="42.55689" lon="2.2454">
        <ele>875</ele>
      </trkpt>
      <trkpt lat="42.55693" lon="2.24551">
        <ele>876.7</ele>
      </trkpt>
      <trkpt lat="42.55705" lon="2.24572">
        <ele>882</ele>
      </trkpt>
      <trkpt lat="42.55709" lon="2.24585">
        <ele>883.3</ele>
      </trkpt>
      <trkpt lat="42.55709" lon="2.24589">
        <ele>884.2</ele>
      </trkpt>
      <trkpt lat="42.55708" lon="2.24595">
        <ele>885</ele>
      </trkpt>
      <trkpt lat="42.55708" lon="2.24599">
        <ele>885.9</ele>
      </trkpt>
      <trkpt lat="42.55706" lon="2.24602">
        <ele>885.6</ele>
      </trkpt>
      <trkpt lat="42.55705" lon="2.24605">
        <ele>885.8</ele>
      </trkpt>
      <trkpt lat="42.55701" lon="2.24609">
        <ele>884.7</ele>
      </trkpt>
      <trkpt lat="42.55698" lon="2.24612">
        <ele>884</ele>
      </trkpt>
      <trkpt lat="42.55692" lon="2.24616">
        <ele>882.1</ele>
      </trkpt>
      <trkpt lat="42.55686" lon="2.24619">
        <ele>880.1</ele>
      </trkpt>
      <trkpt lat="42.55678" lon="2.2462">
        <ele>876.6</ele>
      </trkpt>
      <trkpt lat="42.55672" lon="2.24623">
        <ele>874.8</ele>
      </trkpt>
      <trkpt lat="42.55664" lon="2.24624">
        <ele>872.3</ele>
      </trkpt>
      <trkpt lat="42.55656" lon="2.24626">
        <ele>872</ele>
      </trkpt>
      <trkpt lat="42.5565" lon="2.24625">
        <ele>870.9</ele>
      </trkpt>
      <trkpt lat="42.55644" lon="2.24623">
        <ele>869.4</ele>
      </trkpt>
      <trkpt lat="42.55634" lon="2.24617">
        <ele>865.9</ele>
      </trkpt>
      <trkpt lat="42.55622" lon="2.24609">
        <ele>861.1</ele>
      </trkpt>
      <trkpt lat="42.55616" lon="2.24607">
        <ele>859.4</ele>
      </trkpt>
      <trkpt lat="42.55605" lon="2.24604">
        <ele>856.5</ele>
      </trkpt>
      <trkpt lat="42.5559" lon="2.24603">
        <ele>853.8</ele>
      </trkpt>
      <trkpt lat="42.55575" lon="2.24603">
        <ele>850.3</ele>
      </trkpt>
      <trkpt lat="42.55567" lon="2.24602">
        <ele>847.6</ele>
      </trkpt>
      <trkpt lat="42.55557" lon="2.24602">
        <ele>844.7</ele>
      </trkpt>
      <trkpt lat="42.55549" lon="2.24601">
        <ele>841.9</ele>
      </trkpt>
      <trkpt lat="42.55544" lon="2.24601">
        <ele>840.5</ele>
      </trkpt>
      <trkpt lat="42.5554" lon="2.24602">
        <ele>839.8</ele>
      </trkpt>
      <trkpt lat="42.55523" lon="2.24609">
        <ele>838.2</ele>
      </trkpt>
      <trkpt lat="42.55514" lon="2.24611">
        <ele>836.6</ele>
      </trkpt>
      <trkpt lat="42.55508" lon="2.24612">
        <ele>835.4</ele>
      </trkpt>
      <trkpt lat="42.55505" lon="2.24615">
        <ele>836</ele>
      </trkpt>
      <trkpt lat="42.55503" lon="2.24618">
        <ele>836.9</ele>
      </trkpt>
      <trkpt lat="42.55501" lon="2.24622">
        <ele>838.3</ele>
      </trkpt>
      <trkpt lat="42.55498" lon="2.24631">
        <ele>841.5</ele>
      </trkpt>
      <trkpt lat="42.55498" lon="2.24638">
        <ele>845</ele>
      </trkpt>
      <trkpt lat="42.55496" lon="2.24642">
        <ele>846</ele>
      </trkpt>
      <trkpt lat="42.55494" lon="2.24646">
        <ele>847.1</ele>
      </trkpt>
      <trkpt lat="42.5549" lon="2.24653">
        <ele>848.7</ele>
      </trkpt>
      <trkpt lat="42.55454" lon="2.24676">
        <ele>843.9</ele>
      </trkpt>
      <trkpt lat="42.55439" lon="2.24679">
        <ele>838.7</ele>
      </trkpt>
      <trkpt lat="42.55429" lon="2.24679">
        <ele>834.2</ele>
      </trkpt>
      <trkpt lat="42.55414" lon="2.24684">
        <ele>830.5</ele>
      </trkpt>
      <trkpt lat="42.55402" lon="2.24689">
        <ele>828.8</ele>
      </trkpt>
      <trkpt lat="42.55389" lon="2.24694">
        <ele>826.2</ele>
      </trkpt>
      <trkpt lat="42.55379" lon="2.24694">
        <ele>822.4</ele>
      </trkpt>
      <trkpt lat="42.55373" lon="2.24695">
        <ele>820.4</ele>
      </trkpt>
      <trkpt lat="42.55368" lon="2.247">
        <ele>820.2</ele>
      </trkpt>
      <trkpt lat="42.55365" lon="2.24705">
        <ele>820.5</ele>
      </trkpt>
      <trkpt lat="42.55364" lon="2.24711">
        <ele>822</ele>
      </trkpt>
      <trkpt lat="42.55364" lon="2.24718">
        <ele>824.1</ele>
      </trkpt>
      <trkpt lat="42.55366" lon="2.24772">
        <ele>837.6</ele>
      </trkpt>
      <trkpt lat="42.55365" lon="2.24791">
        <ele>838.9</ele>
      </trkpt>
      <trkpt lat="42.55365" lon="2.24805">
        <ele>840.3</ele>
      </trkpt>
      <trkpt lat="42.55361" lon="2.24831">
        <ele>840</ele>
      </trkpt>
      <trkpt lat="42.55359" lon="2.24843">
        <ele>838.8</ele>
      </trkpt>
      <trkpt lat="42.55357" lon="2.24879">
        <ele>837.6</ele>
      </trkpt>
      <trkpt lat="42.55356" lon="2.24942">
        <ele>837.7</ele>
      </trkpt>
      <trkpt lat="42.55354" lon="2.24957">
        <ele>836.9</ele>
      </trkpt>
      <trkpt lat="42.5535" lon="2.24973">
        <ele>834.8</ele>
      </trkpt>
      <trkpt lat="42.55332" lon="2.25024">
        <ele>826.5</ele>
      </trkpt>
      <trkpt lat="42.55328" lon="2.2504">
        <ele>825.3</ele>
      </trkpt>
      <trkpt lat="42.55325" lon="2.25043">
        <ele>823.8</ele>
      </trkpt>
      <trkpt lat="42.55323" lon="2.25048">
        <ele>823</ele>
      </trkpt>
      <trkpt lat="42.55322" lon="2.25053">
        <ele>822.6</ele>
      </trkpt>
      <trkpt lat="42.55321" lon="2.2507">
        <ele>822.4</ele>
      </trkpt>
      <trkpt lat="42.55321" lon="2.25095">
        <ele>823.2</ele>
      </trkpt>
      <trkpt lat="42.55321" lon="2.25138">
        <ele>824.7</ele>
      </trkpt>
      <trkpt lat="42.55321" lon="2.25157">
        <ele>825.4</ele>
      </trkpt>
      <trkpt lat="42.55318" lon="2.25169">
        <ele>823.5</ele>
      </trkpt>
      <trkpt lat="42.55312" lon="2.25186">
        <ele>817.9</ele>
      </trkpt>
      <trkpt lat="42.55307" lon="2.25198">
        <ele>813.1</ele>
      </trkpt>
      <trkpt lat="42.55306" lon="2.25206">
        <ele>811.6</ele>
      </trkpt>
      <trkpt lat="42.55303" lon="2.25228">
        <ele>807</ele>
      </trkpt>
      <trkpt lat="42.55302" lon="2.25244">
        <ele>804.5</ele>
      </trkpt>
      <trkpt lat="42.55304" lon="2.2526">
        <ele>803.2</ele>
      </trkpt>
      <trkpt lat="42.55309" lon="2.25275">
        <ele>804</ele>
      </trkpt>
      <trkpt lat="42.55322" lon="2.25304">
        <ele>808.1</ele>
      </trkpt>
      <trkpt lat="42.55327" lon="2.25317">
        <ele>809.4</ele>
      </trkpt>
      <trkpt lat="42.55329" lon="2.25325">
        <ele>809.3</ele>
      </trkpt>
      <trkpt lat="42.55329" lon="2.25335">
        <ele>807.2</ele>
      </trkpt>
      <trkpt lat="42.55329" lon="2.25358">
        <ele>802.8</ele>
      </trkpt>
      <trkpt lat="42.55332" lon="2.25372">
        <ele>802.5</ele>
      </trkpt>
      <trkpt lat="42.5534" lon="2.25388">
        <ele>804.9</ele>
      </trkpt>
      <trkpt lat="42.55346" lon="2.25398">
        <ele>806.9</ele>
      </trkpt>
      <trkpt lat="42.5536" lon="2.25418">
        <ele>811.7</ele>
      </trkpt>
      <trkpt lat="42.55366" lon="2.25429">
        <ele>813.1</ele>
      </trkpt>
      <trkpt lat="42.55375" lon="2.25453">
        <ele>813.9</ele>
      </trkpt>
      <trkpt lat="42.55377" lon="2.25468">
        <ele>812</ele>
      </trkpt>
      <trkpt lat="42.55378" lon="2.25474">
        <ele>811.4</ele>
      </trkpt>
      <trkpt lat="42.55376" lon="2.25483">
        <ele>808.2</ele>
      </trkpt>
      <trkpt lat="42.55372" lon="2.25494">
        <ele>803.3</ele>
      </trkpt>
      <trkpt lat="42.55359" lon="2.2552">
        <ele>789.6</ele>
      </trkpt>
      <trkpt lat="42.55355" lon="2.25532">
        <ele>784.6</ele>
      </trkpt>
      <trkpt lat="42.55353" lon="2.25556">
        <ele>778.8</ele>
      </trkpt>
      <trkpt lat="42.55353" lon="2.25573">
        <ele>775.6</ele>
      </trkpt>
      <trkpt lat="42.55353" lon="2.25583">
        <ele>773.8</ele>
      </trkpt>
      <trkpt lat="42.55358" lon="2.25589">
        <ele>775.4</ele>
      </trkpt>
      <trkpt lat="42.55361" lon="2.25593">
        <ele>776.1</ele>
      </trkpt>
      <trkpt lat="42.55376" lon="2.25602">
        <ele>783.3</ele>
      </trkpt>
      <trkpt lat="42.55381" lon="2.25607">
        <ele>784.9</ele>
      </trkpt>
      <trkpt lat="42.55385" lon="2.25611">
        <ele>786.1</ele>
      </trkpt>
      <trkpt lat="42.55391" lon="2.25621">
        <ele>786.5</ele>
      </trkpt>
      <trkpt lat="42.55395" lon="2.25633">
        <ele>784.6</ele>
      </trkpt>
      <trkpt lat="42.55396" lon="2.25647">
        <ele>780.1</ele>
      </trkpt>
      <trkpt lat="42.55397" lon="2.25654">
        <ele>778.1</ele>
      </trkpt>
      <trkpt lat="42.55403" lon="2.25662">
        <ele>778.7</ele>
      </trkpt>
      <trkpt lat="42.5541" lon="2.25664">
        <ele>782.1</ele>
      </trkpt>
      <trkpt lat="42.55421" lon="2.25665">
        <ele>787.5</ele>
      </trkpt>
      <trkpt lat="42.55437" lon="2.2567">
        <ele>792.3</ele>
      </trkpt>
      <trkpt lat="42.55443" lon="2.25672">
        <ele>794</ele>
      </trkpt>
      <trkpt lat="42.5546" lon="2.25684">
        <ele>796.5</ele>
      </trkpt>
      <trkpt lat="42.55469" lon="2.25694">
        <ele>796.5</ele>
      </trkpt>
      <trkpt lat="42.55476" lon="2.25706">
        <ele>794.9</ele>
      </trkpt>
      <trkpt lat="42.55485" lon="2.25724">
        <ele>792.2</ele>
      </trkpt>
      <trkpt lat="42.55489" lon="2.25736">
        <ele>789.6</ele>
      </trkpt>
      <trkpt lat="42.5549" lon="2.25743">
        <ele>787.4</ele>
      </trkpt>
      <trkpt lat="42.55493" lon="2.2577">
        <ele>780.4</ele>
      </trkpt>
      <trkpt lat="42.55498" lon="2.25807">
        <ele>772.4</ele>
      </trkpt>
      <trkpt lat="42.55499" lon="2.25826">
        <ele>767.5</ele>
      </trkpt>
      <trkpt lat="42.555" lon="2.25842">
        <ele>764.6</ele>
      </trkpt>
      <trkpt lat="42.55502" lon="2.25851">
        <ele>763.9</ele>
      </trkpt>
      <trkpt lat="42.55504" lon="2.25861">
        <ele>762.8</ele>
      </trkpt>
      <trkpt lat="42.55508" lon="2.2587">
        <ele>762.5</ele>
      </trkpt>
      <trkpt lat="42.55521" lon="2.25891">
        <ele>762</ele>
      </trkpt>
      <trkpt lat="42.55528" lon="2.25904">
        <ele>761</ele>
      </trkpt>
      <trkpt lat="42.55534" lon="2.25912">
        <ele>760.5</ele>
      </trkpt>
      <trkpt lat="42.55537" lon="2.25916">
        <ele>760.3</ele>
      </trkpt>
      <trkpt lat="42.55541" lon="2.2592">
        <ele>759.9</ele>
      </trkpt>
      <trkpt lat="42.55545" lon="2.25922">
        <ele>760</ele>
      </trkpt>
      <trkpt lat="42.5555" lon="2.25923">
        <ele>760.5</ele>
      </trkpt>
      <trkpt lat="42.55554" lon="2.25923">
        <ele>761.2</ele>
      </trkpt>
      <trkpt lat="42.5556" lon="2.25922">
        <ele>762.6</ele>
      </trkpt>
      <trkpt lat="42.55581" lon="2.25916">
        <ele>768.7</ele>
      </trkpt>
      <trkpt lat="42.55586" lon="2.25915">
        <ele>769</ele>
      </trkpt>
      <trkpt lat="42.55592" lon="2.25915">
        <ele>768</ele>
      </trkpt>
      <trkpt lat="42.55598" lon="2.25915">
        <ele>766.9</ele>
      </trkpt>
      <trkpt lat="42.55603" lon="2.25917">
        <ele>765.3</ele>
      </trkpt>
      <trkpt lat="42.55609" lon="2.25918">
        <ele>763.8</ele>
      </trkpt>
      <trkpt lat="42.55614" lon="2.2592">
        <ele>762</ele>
      </trkpt>
      <trkpt lat="42.55619" lon="2.25922">
        <ele>760.2</ele>
      </trkpt>
      <trkpt lat="42.55624" lon="2.25924">
        <ele>758.4</ele>
      </trkpt>
      <trkpt lat="42.55629" lon="2.25925">
        <ele>757</ele>
      </trkpt>
      <trkpt lat="42.55634" lon="2.25925">
        <ele>756.1</ele>
      </trkpt>
      <trkpt lat="42.55639" lon="2.25925">
        <ele>755.2</ele>
      </trkpt>
      <trkpt lat="42.55648" lon="2.25919">
        <ele>756.3</ele>
      </trkpt>
      <trkpt lat="42.55652" lon="2.25916">
        <ele>756.9</ele>
      </trkpt>
      <trkpt lat="42.55656" lon="2.25911">
        <ele>758.1</ele>
      </trkpt>
      <trkpt lat="42.55659" lon="2.25906">
        <ele>759.5</ele>
      </trkpt>
      <trkpt lat="42.55662" lon="2.25902">
        <ele>760.6</ele>
      </trkpt>
      <trkpt lat="42.55664" lon="2.25897">
        <ele>762.2</ele>
      </trkpt>
      <trkpt lat="42.55667" lon="2.25893">
        <ele>763.3</ele>
      </trkpt>
      <trkpt lat="42.55669" lon="2.25889">
        <ele>764.5</ele>
      </trkpt>
      <trkpt lat="42.55673" lon="2.25886">
        <ele>765</ele>
      </trkpt>
      <trkpt lat="42.55676" lon="2.25884">
        <ele>765.3</ele>
      </trkpt>
      <trkpt lat="42.55681" lon="2.25883">
        <ele>764.8</ele>
      </trkpt>
      <trkpt lat="42.55685" lon="2.25882">
        <ele>764.5</ele>
      </trkpt>
      <trkpt lat="42.5569" lon="2.25882">
        <ele>763.7</ele>
      </trkpt>
      <trkpt lat="42.55694" lon="2.25882">
        <ele>763</ele>
      </trkpt>
      <trkpt lat="42.557" lon="2.25882">
        <ele>761.9</ele>
      </trkpt>
      <trkpt lat="42.55704" lon="2.25883">
        <ele>760.8</ele>
      </trkpt>
      <trkpt lat="42.55709" lon="2.25883">
        <ele>759.9</ele>
      </trkpt>
      <trkpt lat="42.55714" lon="2.25884">
        <ele>758.6</ele>
      </trkpt>
      <trkpt lat="42.55719" lon="2.25886">
        <ele>756.8</ele>
      </trkpt>
      <trkpt lat="42.55723" lon="2.25887">
        <ele>755.7</ele>
      </trkpt>
      <trkpt lat="42.55728" lon="2.25889">
        <ele>753.9</ele>
      </trkpt>
      <trkpt lat="42.55732" lon="2.25891">
        <ele>752.3</ele>
      </trkpt>
      <trkpt lat="42.55736" lon="2.25892">
        <ele>751.1</ele>
      </trkpt>
      <trkpt lat="42.55741" lon="2.25894">
        <ele>749.3</ele>
      </trkpt>
      <trkpt lat="42.55745" lon="2.25895">
        <ele>748.1</ele>
      </trkpt>
      <trkpt lat="42.5575" lon="2.25895">
        <ele>747.1</ele>
      </trkpt>
      <trkpt lat="42.55755" lon="2.25894">
        <ele>746</ele>
      </trkpt>
      <trkpt lat="42.55759" lon="2.25893">
        <ele>745.1</ele>
      </trkpt>
      <trkpt lat="42.55768" lon="2.25887">
        <ele>745.1</ele>
      </trkpt>
      <trkpt lat="42.55772" lon="2.25883">
        <ele>745.7</ele>
      </trkpt>
      <trkpt lat="42.55776" lon="2.25879">
        <ele>746.4</ele>
      </trkpt>
      <trkpt lat="42.5578" lon="2.25874">
        <ele>747.6</ele>
      </trkpt>
      <trkpt lat="42.55783" lon="2.2587">
        <ele>748.7</ele>
      </trkpt>
      <trkpt lat="42.55788" lon="2.25867">
        <ele>748.6</ele>
      </trkpt>
      <trkpt lat="42.55793" lon="2.25865">
        <ele>748.1</ele>
      </trkpt>
      <trkpt lat="42.55798" lon="2.25863">
        <ele>747.6</ele>
      </trkpt>
      <trkpt lat="42.55803" lon="2.25862">
        <ele>746.6</ele>
      </trkpt>
      <trkpt lat="42.55808" lon="2.25862">
        <ele>745.1</ele>
      </trkpt>
      <trkpt lat="42.55823" lon="2.2586">
        <ele>741.7</ele>
      </trkpt>
      <trkpt lat="42.55828" lon="2.2586">
        <ele>740.2</ele>
      </trkpt>
      <trkpt lat="42.55833" lon="2.25858">
        <ele>739.8</ele>
      </trkpt>
      <trkpt lat="42.55837" lon="2.25856">
        <ele>739.6</ele>
      </trkpt>
      <trkpt lat="42.55841" lon="2.25852">
        <ele>740.5</ele>
      </trkpt>
      <trkpt lat="42.55845" lon="2.25848">
        <ele>741.3</ele>
      </trkpt>
      <trkpt lat="42.55848" lon="2.25844">
        <ele>742.4</ele>
      </trkpt>
      <trkpt lat="42.55851" lon="2.25839">
        <ele>743.9</ele>
      </trkpt>
      <trkpt lat="42.55855" lon="2.25836">
        <ele>744.1</ele>
      </trkpt>
      <trkpt lat="42.55859" lon="2.25833">
        <ele>744.2</ele>
      </trkpt>
      <trkpt lat="42.55863" lon="2.25831">
        <ele>743.7</ele>
      </trkpt>
      <trkpt lat="42.55868" lon="2.2583">
        <ele>742.4</ele>
      </trkpt>
      <trkpt lat="42.55873" lon="2.25829">
        <ele>741.1</ele>
      </trkpt>
      <trkpt lat="42.55877" lon="2.25827">
        <ele>740.6</ele>
      </trkpt>
      <trkpt lat="42.55882" lon="2.25824">
        <ele>740.3</ele>
      </trkpt>
      <trkpt lat="42.55886" lon="2.25821">
        <ele>740.2</ele>
      </trkpt>
      <trkpt lat="42.55889" lon="2.25816">
        <ele>741.5</ele>
      </trkpt>
      <trkpt lat="42.55892" lon="2.25812">
        <ele>742.2</ele>
      </trkpt>
      <trkpt lat="42.55895" lon="2.25806">
        <ele>743.9</ele>
      </trkpt>
      <trkpt lat="42.55897" lon="2.258">
        <ele>745.9</ele>
      </trkpt>
      <trkpt lat="42.55899" lon="2.25795">
        <ele>747.5</ele>
      </trkpt>
      <trkpt lat="42.55902" lon="2.2579">
        <ele>748.8</ele>
      </trkpt>
      <trkpt lat="42.55905" lon="2.25787">
        <ele>749.1</ele>
      </trkpt>
      <trkpt lat="42.55909" lon="2.25784">
        <ele>749.1</ele>
      </trkpt>
      <trkpt lat="42.55913" lon="2.25782">
        <ele>748.6</ele>
      </trkpt>
      <trkpt lat="42.55917" lon="2.25781">
        <ele>747.8</ele>
      </trkpt>
      <trkpt lat="42.55921" lon="2.25782">
        <ele>746.7</ele>
      </trkpt>
      <trkpt lat="42.55926" lon="2.25784">
        <ele>745</ele>
      </trkpt>
      <trkpt lat="42.5593" lon="2.25787">
        <ele>743.1</ele>
      </trkpt>
      <trkpt lat="42.55934" lon="2.2579">
        <ele>741.1</ele>
      </trkpt>
      <trkpt lat="42.55938" lon="2.25794">
        <ele>738.8</ele>
      </trkpt>
      <trkpt lat="42.55941" lon="2.25797">
        <ele>737</ele>
      </trkpt>
      <trkpt lat="42.55945" lon="2.25799">
        <ele>735.6</ele>
      </trkpt>
      <trkpt lat="42.55949" lon="2.25801">
        <ele>734.1</ele>
      </trkpt>
      <trkpt lat="42.55952" lon="2.25802">
        <ele>733.2</ele>
      </trkpt>
      <trkpt lat="42.55957" lon="2.25801">
        <ele>733</ele>
      </trkpt>
      <trkpt lat="42.5596" lon="2.25798">
        <ele>733.8</ele>
      </trkpt>
      <trkpt lat="42.55964" lon="2.25795">
        <ele>734.5</ele>
      </trkpt>
      <trkpt lat="42.55967" lon="2.25791">
        <ele>735.7</ele>
      </trkpt>
      <trkpt lat="42.5597" lon="2.25786">
        <ele>737.4</ele>
      </trkpt>
      <trkpt lat="42.55973" lon="2.25782">
        <ele>738.6</ele>
      </trkpt>
      <trkpt lat="42.55977" lon="2.25778">
        <ele>739.6</ele>
      </trkpt>
      <trkpt lat="42.55981" lon="2.25776">
        <ele>739.8</ele>
      </trkpt>
      <trkpt lat="42.55985" lon="2.25774">
        <ele>739.9</ele>
      </trkpt>
      <trkpt lat="42.55988" lon="2.25774">
        <ele>739.4</ele>
      </trkpt>
      <trkpt lat="42.55993" lon="2.25774">
        <ele>738.6</ele>
      </trkpt>
      <trkpt lat="42.55997" lon="2.25776">
        <ele>737.2</ele>
      </trkpt>
      <trkpt lat="42.56001" lon="2.25778">
        <ele>735.9</ele>
      </trkpt>
      <trkpt lat="42.56006" lon="2.25781">
        <ele>734.4</ele>
      </trkpt>
      <trkpt lat="42.5601" lon="2.25785">
        <ele>732.5</ele>
      </trkpt>
      <trkpt lat="42.56014" lon="2.25789">
        <ele>730.7</ele>
      </trkpt>
      <trkpt lat="42.56019" lon="2.25793">
        <ele>728.7</ele>
      </trkpt>
      <trkpt lat="42.56023" lon="2.25796">
        <ele>727.2</ele>
      </trkpt>
      <trkpt lat="42.56028" lon="2.25799">
        <ele>725.6</ele>
      </trkpt>
      <trkpt lat="42.56033" lon="2.25801">
        <ele>724.4</ele>
      </trkpt>
      <trkpt lat="42.56038" lon="2.25802">
        <ele>723.6</ele>
      </trkpt>
      <trkpt lat="42.56044" lon="2.25803">
        <ele>722.7</ele>
      </trkpt>
      <trkpt lat="42.56049" lon="2.25804">
        <ele>721.9</ele>
      </trkpt>
      <trkpt lat="42.56055" lon="2.25804">
        <ele>721.5</ele>
      </trkpt>
      <trkpt lat="42.56061" lon="2.25804">
        <ele>721</ele>
      </trkpt>
      <trkpt lat="42.56068" lon="2.25804">
        <ele>720.5</ele>
      </trkpt>
      <trkpt lat="42.56074" lon="2.25805">
        <ele>719.6</ele>
      </trkpt>
      <trkpt lat="42.5608" lon="2.25805">
        <ele>719.2</ele>
      </trkpt>
      <trkpt lat="42.56086" lon="2.25805">
        <ele>718.5</ele>
      </trkpt>
      <trkpt lat="42.56091" lon="2.25805">
        <ele>717.7</ele>
      </trkpt>
      <trkpt lat="42.56097" lon="2.25804">
        <ele>717.2</ele>
      </trkpt>
      <trkpt lat="42.56103" lon="2.25802">
        <ele>717.1</ele>
      </trkpt>
      <trkpt lat="42.56114" lon="2.25796">
        <ele>717.9</ele>
      </trkpt>
      <trkpt lat="42.56119" lon="2.25791">
        <ele>719.3</ele>
      </trkpt>
      <trkpt lat="42.56124" lon="2.25786">
        <ele>720.6</ele>
      </trkpt>
      <trkpt lat="42.56129" lon="2.25781">
        <ele>721.9</ele>
      </trkpt>
      <trkpt lat="42.56133" lon="2.25777">
        <ele>722.9</ele>
      </trkpt>
      <trkpt lat="42.56138" lon="2.25774">
        <ele>723.3</ele>
      </trkpt>
      <trkpt lat="42.56143" lon="2.2577">
        <ele>724.1</ele>
      </trkpt>
      <trkpt lat="42.56148" lon="2.25768">
        <ele>724</ele>
      </trkpt>
      <trkpt lat="42.56153" lon="2.25767">
        <ele>723.5</ele>
      </trkpt>
      <trkpt lat="42.56158" lon="2.25766">
        <ele>723.1</ele>
      </trkpt>
      <trkpt lat="42.56163" lon="2.25767">
        <ele>721.7</ele>
      </trkpt>
      <trkpt lat="42.56168" lon="2.25768">
        <ele>720.5</ele>
      </trkpt>
      <trkpt lat="42.56172" lon="2.2577">
        <ele>719.2</ele>
      </trkpt>
      <trkpt lat="42.56176" lon="2.2577">
        <ele>718.8</ele>
      </trkpt>
      <trkpt lat="42.56181" lon="2.25769">
        <ele>718.6</ele>
      </trkpt>
      <trkpt lat="42.56185" lon="2.25767">
        <ele>718.8</ele>
      </trkpt>
      <trkpt lat="42.56194" lon="2.25762">
        <ele>719.1</ele>
      </trkpt>
      <trkpt lat="42.56205" lon="2.25758">
        <ele>718.6</ele>
      </trkpt>
      <trkpt lat="42.5621" lon="2.25756">
        <ele>718.2</ele>
      </trkpt>
      <trkpt lat="42.56216" lon="2.25755">
        <ele>717.4</ele>
      </trkpt>
      <trkpt lat="42.56222" lon="2.25753">
        <ele>716.8</ele>
      </trkpt>
      <trkpt lat="42.56229" lon="2.25752">
        <ele>715.7</ele>
      </trkpt>
      <trkpt lat="42.56235" lon="2.25751">
        <ele>714.7</ele>
      </trkpt>
      <trkpt lat="42.56241" lon="2.25749">
        <ele>714.2</ele>
      </trkpt>
      <trkpt lat="42.56247" lon="2.25747">
        <ele>714</ele>
      </trkpt>
      <trkpt lat="42.56253" lon="2.25744">
        <ele>714.7</ele>
      </trkpt>
      <trkpt lat="42.56259" lon="2.2574">
        <ele>716.3</ele>
      </trkpt>
      <trkpt lat="42.56264" lon="2.25736">
        <ele>717.8</ele>
      </trkpt>
      <trkpt lat="42.5627" lon="2.25733">
        <ele>718.6</ele>
      </trkpt>
      <trkpt lat="42.56276" lon="2.2573">
        <ele>719.3</ele>
      </trkpt>
      <trkpt lat="42.56282" lon="2.25729">
        <ele>719.2</ele>
      </trkpt>
      <trkpt lat="42.56288" lon="2.25727">
        <ele>719.4</ele>
      </trkpt>
      <trkpt lat="42.56295" lon="2.25724">
        <ele>719.6</ele>
      </trkpt>
      <trkpt lat="42.56301" lon="2.25721">
        <ele>719.8</ele>
      </trkpt>
      <trkpt lat="42.56307" lon="2.25717">
        <ele>720.1</ele>
      </trkpt>
      <trkpt lat="42.56312" lon="2.25713">
        <ele>720.4</ele>
      </trkpt>
      <trkpt lat="42.56318" lon="2.25709">
        <ele>720.3</ele>
      </trkpt>
      <trkpt lat="42.56344" lon="2.25691">
        <ele>720.2</ele>
      </trkpt>
      <trkpt lat="42.56348" lon="2.25688">
        <ele>720.3</ele>
      </trkpt>
      <trkpt lat="42.56352" lon="2.25685">
        <ele>720.3</ele>
      </trkpt>
      <trkpt lat="42.56359" lon="2.2568">
        <ele>720.1</ele>
      </trkpt>
      <trkpt lat="42.56362" lon="2.25678">
        <ele>719.8</ele>
      </trkpt>
      <trkpt lat="42.56368" lon="2.25674">
        <ele>719.2</ele>
      </trkpt>
      <trkpt lat="42.56375" lon="2.25676">
        <ele>718.6</ele>
      </trkpt>
      <trkpt lat="42.56384" lon="2.25681">
        <ele>718.2</ele>
      </trkpt>
      <trkpt lat="42.56393" lon="2.25689">
        <ele>718.7</ele>
      </trkpt>
      <trkpt lat="42.56393" lon="2.25689">
        <ele>718.7</ele>
      </trkpt>
      <trkpt lat="42.56393" lon="2.25701">
        <ele>720.5</ele>
      </trkpt>
      <trkpt lat="42.56389" lon="2.25714">
        <ele>722.1</ele>
      </trkpt>
      <trkpt lat="42.56371" lon="2.25722">
        <ele>720.8</ele>
      </trkpt>
      <trkpt lat="42.5636" lon="2.25725">
        <ele>719.4</ele>
      </trkpt>
      <trkpt lat="42.56344" lon="2.25738">
        <ele>715.9</ele>
      </trkpt>
      <trkpt lat="42.56333" lon="2.25751">
        <ele>712.3</ele>
      </trkpt>
      <trkpt lat="42.56312" lon="2.25771">
        <ele>715.9</ele>
      </trkpt>
      <trkpt lat="42.56298" lon="2.25782">
        <ele>716</ele>
      </trkpt>
      <trkpt lat="42.56285" lon="2.25793">
        <ele>714.9</ele>
      </trkpt>
      <trkpt lat="42.56263" lon="2.25798">
        <ele>710.7</ele>
      </trkpt>
      <trkpt lat="42.56249" lon="2.25805">
        <ele>707.4</ele>
      </trkpt>
      <trkpt lat="42.5623" lon="2.25816">
        <ele>705.2</ele>
      </trkpt>
      <trkpt lat="42.5622" lon="2.25821">
        <ele>703.5</ele>
      </trkpt>
      <trkpt lat="42.56199" lon="2.2583">
        <ele>699.2</ele>
      </trkpt>
      <trkpt lat="42.56178" lon="2.25847">
        <ele>697.8</ele>
      </trkpt>
      <trkpt lat="42.56169" lon="2.25867">
        <ele>699.3</ele>
      </trkpt>
      <trkpt lat="42.5616" lon="2.25888">
        <ele>701.3</ele>
      </trkpt>
      <trkpt lat="42.56145" lon="2.259">
        <ele>700.5</ele>
      </trkpt>
      <trkpt lat="42.56126" lon="2.25905">
        <ele>697.6</ele>
      </trkpt>
      <trkpt lat="42.56102" lon="2.2592">
        <ele>693.8</ele>
      </trkpt>
      <trkpt lat="42.56091" lon="2.25926">
        <ele>694.5</ele>
      </trkpt>
      <trkpt lat="42.56067" lon="2.25933">
        <ele>694.6</ele>
      </trkpt>
      <trkpt lat="42.56023" lon="2.25946">
        <ele>694.2</ele>
      </trkpt>
      <trkpt lat="42.56006" lon="2.25949">
        <ele>692.6</ele>
      </trkpt>
      <trkpt lat="42.55992" lon="2.25947">
        <ele>690.9</ele>
      </trkpt>
      <trkpt lat="42.55975" lon="2.25948">
        <ele>690.7</ele>
      </trkpt>
      <trkpt lat="42.55962" lon="2.25953">
        <ele>691.1</ele>
      </trkpt>
      <trkpt lat="42.55913" lon="2.25984">
        <ele>688.7</ele>
      </trkpt>
      <trkpt lat="42.55906" lon="2.25986">
        <ele>687.9</ele>
      </trkpt>
      <trkpt lat="42.55898" lon="2.25987">
        <ele>687</ele>
      </trkpt>
      <trkpt lat="42.55885" lon="2.25983">
        <ele>686.2</ele>
      </trkpt>
      <trkpt lat="42.55875" lon="2.25978">
        <ele>686.4</ele>
      </trkpt>
      <trkpt lat="42.55867" lon="2.25977">
        <ele>686.1</ele>
      </trkpt>
      <trkpt lat="42.55856" lon="2.25982">
        <ele>684</ele>
      </trkpt>
      <trkpt lat="42.55841" lon="2.25987">
        <ele>681</ele>
      </trkpt>
      <trkpt lat="42.55831" lon="2.25995">
        <ele>677.4</ele>
      </trkpt>
      <trkpt lat="42.55821" lon="2.26003">
        <ele>677.8</ele>
      </trkpt>
      <trkpt lat="42.55774" lon="2.26064">
        <ele>678.8</ele>
      </trkpt>
      <trkpt lat="42.55763" lon="2.26072">
        <ele>675.2</ele>
      </trkpt>
      <trkpt lat="42.55754" lon="2.26079">
        <ele>671.3</ele>
      </trkpt>
      <trkpt lat="42.55745" lon="2.26086">
        <ele>670.2</ele>
      </trkpt>
      <trkpt lat="42.55726" lon="2.26089">
        <ele>671</ele>
      </trkpt>
      <trkpt lat="42.55715" lon="2.26088">
        <ele>670.4</ele>
      </trkpt>
      <trkpt lat="42.55693" lon="2.26099">
        <ele>672.3</ele>
      </trkpt>
      <trkpt lat="42.55685" lon="2.26104">
        <ele>672.6</ele>
      </trkpt>
      <trkpt lat="42.5568" lon="2.26108">
        <ele>672.8</ele>
      </trkpt>
      <trkpt lat="42.55672" lon="2.26111">
        <ele>672.3</ele>
      </trkpt>
      <trkpt lat="42.55653" lon="2.26114">
        <ele>673.4</ele>
      </trkpt>
      <trkpt lat="42.55636" lon="2.26121">
        <ele>674.9</ele>
      </trkpt>
      <trkpt lat="42.55618" lon="2.26139">
        <ele>673.5</ele>
      </trkpt>
      <trkpt lat="42.55599" lon="2.26155">
        <ele>669.3</ele>
      </trkpt>
      <trkpt lat="42.55552" lon="2.26188">
        <ele>668.5</ele>
      </trkpt>
      <trkpt lat="42.55538" lon="2.26196">
        <ele>668.3</ele>
      </trkpt>
      <trkpt lat="42.55517" lon="2.26199">
        <ele>666.6</ele>
      </trkpt>
      <trkpt lat="42.55498" lon="2.26204">
        <ele>664.7</ele>
      </trkpt>
      <trkpt lat="42.5549" lon="2.26208">
        <ele>665.5</ele>
      </trkpt>
      <trkpt lat="42.55484" lon="2.26215">
        <ele>665.2</ele>
      </trkpt>
      <trkpt lat="42.55479" lon="2.2622">
        <ele>665.1</ele>
      </trkpt>
      <trkpt lat="42.55476" lon="2.26223">
        <ele>665</ele>
      </trkpt>
      <trkpt lat="42.55473" lon="2.26229">
        <ele>664.2</ele>
      </trkpt>
      <trkpt lat="42.5547" lon="2.2624">
        <ele>662.2</ele>
      </trkpt>
      <trkpt lat="42.55466" lon="2.26274">
        <ele>662.6</ele>
      </trkpt>
      <trkpt lat="42.55465" lon="2.26296">
        <ele>664.4</ele>
      </trkpt>
      <trkpt lat="42.55462" lon="2.2631">
        <ele>665</ele>
      </trkpt>
      <trkpt lat="42.554567" lon="2.263198">
        <ele>664.5</ele>
      </trkpt>
      <trkpt lat="42.55457" lon="2.2632">
        <ele>664.6</ele>
      </trkpt>
      <trkpt lat="42.55456" lon="2.26321">
        <ele>664.4</ele>
      </trkpt>
      <trkpt lat="42.55446" lon="2.26331">
        <ele>661.8</ele>
      </trkpt>
      <trkpt lat="42.55433" lon="2.26344">
        <ele>659</ele>
      </trkpt>
      <trkpt lat="42.55422" lon="2.2636">
        <ele>656.4</ele>
      </trkpt>
      <trkpt lat="42.55421" lon="2.26361">
        <ele>656</ele>
      </trkpt>
      <trkpt lat="42.55413" lon="2.26373">
        <ele>654.9</ele>
      </trkpt>
      <trkpt lat="42.55411" lon="2.2638">
        <ele>655.2</ele>
      </trkpt>
      <trkpt lat="42.55409" lon="2.26384">
        <ele>655.3</ele>
      </trkpt>
      <trkpt lat="42.55407" lon="2.26395">
        <ele>655.7</ele>
      </trkpt>
      <trkpt lat="42.55406" lon="2.26425">
        <ele>656.1</ele>
      </trkpt>
      <trkpt lat="42.55406" lon="2.26428">
        <ele>656</ele>
      </trkpt>
      <trkpt lat="42.55405" lon="2.2644">
        <ele>655.4</ele>
      </trkpt>
      <trkpt lat="42.55404" lon="2.26452">
        <ele>654.9</ele>
      </trkpt>
      <trkpt lat="42.55402" lon="2.26475">
        <ele>653.6</ele>
      </trkpt>
      <trkpt lat="42.55402" lon="2.26477">
        <ele>653.5</ele>
      </trkpt>
      <trkpt lat="42.55401" lon="2.26492">
        <ele>652.6</ele>
      </trkpt>
      <trkpt lat="42.55399" lon="2.26501">
        <ele>651.8</ele>
      </trkpt>
      <trkpt lat="42.55395" lon="2.26524">
        <ele>650.8</ele>
      </trkpt>
      <trkpt lat="42.55394" lon="2.26531">
        <ele>650.6</ele>
      </trkpt>
      <trkpt lat="42.5539" lon="2.26545">
        <ele>649.3</ele>
      </trkpt>
      <trkpt lat="42.55389" lon="2.26547">
        <ele>649</ele>
      </trkpt>
      <trkpt lat="42.55386" lon="2.26555">
        <ele>648</ele>
      </trkpt>
      <trkpt lat="42.55381" lon="2.26565">
        <ele>646.1</ele>
      </trkpt>
      <trkpt lat="42.55378" lon="2.2657">
        <ele>645</ele>
      </trkpt>
      <trkpt lat="42.55375" lon="2.26574">
        <ele>643.8</ele>
      </trkpt>
      <trkpt lat="42.55375" lon="2.26575">
        <ele>643.8</ele>
      </trkpt>
      <trkpt lat="42.55372" lon="2.2658">
        <ele>642.5</ele>
      </trkpt>
      <trkpt lat="42.5537" lon="2.26587">
        <ele>641.7</ele>
      </trkpt>
      <trkpt lat="42.55369" lon="2.26589">
        <ele>641.3</ele>
      </trkpt>
      <trkpt lat="42.553676" lon="2.266684">
        <ele>628.178456</ele>
        <time>2019-08-22T14:16:48.397Z</time>
      </trkpt>
      <trkpt lat="42.553621" lon="2.266758">
        <ele>628.178456</ele>
        <time>2019-08-22T14:16:49.646Z</time>
      </trkpt>
      <trkpt lat="42.553490" lon="2.267009">
        <ele>628.178456</ele>
        <time>2019-08-22T14:16:53.748Z</time>
      </trkpt>
      <trkpt lat="42.553425" lon="2.267083">
        <ele>628.178456</ele>
        <time>2019-08-22T14:16:55.246Z</time>
      </trkpt>
      <trkpt lat="42.553352" lon="2.267360">
        <ele>628.178456</ele>
        <time>2019-08-22T14:16:57.723Z</time>
      </trkpt>
      <trkpt lat="42.553321" lon="2.267554">
        <ele>628.178456</ele>
        <time>2019-08-22T14:17:00.019Z</time>
      </trkpt>
      <trkpt lat="42.553403" lon="2.267627">
        <ele>628.178456</ele>
        <time>2019-08-22T14:17:01.134Z</time>
      </trkpt>
      <trkpt lat="42.553711" lon="2.267877">
        <ele>627.763399</ele>
        <time>2019-08-22T14:17:05.580Z</time>
      </trkpt>
      <trkpt lat="42.553818" lon="2.267938">
        <ele>627.607725</ele>
        <time>2019-08-22T14:17:06.909Z</time>
      </trkpt>
      <trkpt lat="42.553879" lon="2.267969">
        <ele>627.520353</ele>
        <time>2019-08-22T14:17:08.258Z</time>
      </trkpt>
      <trkpt lat="42.554108" lon="2.268342">
        <ele>627.040552</ele>
        <time>2019-08-22T14:17:12.502Z</time>
      </trkpt>
      <trkpt lat="42.554363" lon="2.268577">
        <ele>626.627118</ele>
        <time>2019-08-22T14:17:15.969Z</time>
      </trkpt>
      <trkpt lat="42.554447" lon="2.268650">
        <ele>626.493328</ele>
        <time>2019-08-22T14:17:17.382Z</time>
      </trkpt>
      <trkpt lat="42.554549" lon="2.268746">
        <ele>626.326837</ele>
        <time>2019-08-22T14:17:18.796Z</time>
      </trkpt>
      <trkpt lat="42.554647" lon="2.268923">
        <ele>626.108043</ele>
        <time>2019-08-22T14:17:20.906Z</time>
      </trkpt>
      <trkpt lat="42.554812" lon="2.269722">
        <ele>625.019897</ele>
        <time>2019-08-22T14:17:27.422Z</time>
      </trkpt>
      <trkpt lat="42.555210" lon="2.270786">
        <ele>623.178660</ele>
        <time>2019-08-22T14:17:37.349Z</time>
      </trkpt>
      <trkpt lat="42.555279" lon="2.270980">
        <ele>622.846264</ele>
        <time>2019-08-22T14:17:38.937Z</time>
      </trkpt>
      <trkpt lat="42.555313" lon="2.271154">
        <ele>622.568507</ele>
        <time>2019-08-22T14:17:40.459Z</time>
      </trkpt>
      <trkpt lat="42.555358" lon="2.271337">
        <ele>622.270831</ele>
        <time>2019-08-22T14:17:41.948Z</time>
      </trkpt>
      <trkpt lat="42.555373" lon="2.271380">
        <ele>622.197421</ele>
        <time>2019-08-22T14:17:42.272Z</time>
      </trkpt>
      <trkpt lat="42.555414" lon="2.271488">
        <ele>622.009956</ele>
        <time>2019-08-22T14:17:43.194Z</time>
      </trkpt>
      <trkpt lat="42.555495" lon="2.271678">
        <ele>621.684137</ele>
        <time>2019-08-22T14:17:45.102Z</time>
      </trkpt>
      <trkpt lat="42.555548" lon="2.271888">
        <ele>621.355136</ele>
        <time>2019-08-22T14:17:46.728Z</time>
      </trkpt>
      <trkpt lat="42.555688" lon="2.272484">
        <ele>620.427983</ele>
        <time>2019-08-22T14:17:51.742Z</time>
      </trkpt>
      <trkpt lat="42.555695" lon="2.272578">
        <ele>620.287957</ele>
        <time>2019-08-22T14:17:52.458Z</time>
      </trkpt>
      <trkpt lat="42.555665" lon="2.273123">
        <ele>619.477964</ele>
        <time>2019-08-22T14:17:56.759Z</time>
      </trkpt>
      <trkpt lat="42.555670" lon="2.273252">
        <ele>619.286510</ele>
        <time>2019-08-22T14:17:57.835Z</time>
      </trkpt>
      <trkpt lat="42.555715" lon="2.273957">
        <ele>618.261183</ele>
        <time>2019-08-22T14:18:04.797Z</time>
      </trkpt>
      <trkpt lat="42.555724" lon="2.274079">
        <ele>618.109562</ele>
        <time>2019-08-22T14:18:05.737Z</time>
      </trkpt>
      <trkpt lat="42.555821" lon="2.275061">
        <ele>616.884343</ele>
        <time>2019-08-22T14:18:13.828Z</time>
      </trkpt>
      <trkpt lat="42.556199" lon="2.276452">
        <ele>615.061868</ele>
        <time>2019-08-22T14:18:26.145Z</time>
      </trkpt>
      <trkpt lat="42.556210" lon="2.276558">
        <ele>614.934189</ele>
        <time>2019-08-22T14:18:26.986Z</time>
      </trkpt>
      <trkpt lat="42.556210" lon="2.276625">
        <ele>614.854276</ele>
        <time>2019-08-22T14:18:27.562Z</time>
      </trkpt>
      <trkpt lat="42.556110" lon="2.277398">
        <ele>613.918179</ele>
        <time>2019-08-22T14:18:34.425Z</time>
      </trkpt>
      <trkpt lat="42.556094" lon="2.277643">
        <ele>613.624811</ele>
        <time>2019-08-22T14:18:36.457Z</time>
      </trkpt>
      <trkpt lat="42.556109" lon="2.277862">
        <ele>613.362475</ele>
        <time>2019-08-22T14:18:38.311Z</time>
      </trkpt>
      <trkpt lat="42.556211" lon="2.278304">
        <ele>612.810019</ele>
        <time>2019-08-22T14:18:42.128Z</time>
      </trkpt>
      <trkpt lat="42.556554" lon="2.279160">
        <ele>611.448021</ele>
        <time>2019-08-22T14:18:50.243Z</time>
      </trkpt>
      <trkpt lat="42.556785" lon="2.279775">
        <ele>610.418993</ele>
        <time>2019-08-22T14:18:55.895Z</time>
      </trkpt>
      <trkpt lat="42.557179" lon="2.280719">
        <ele>608.798864</ele>
        <time>2019-08-22T14:19:04.576Z</time>
      </trkpt>
      <trkpt lat="42.557737" lon="2.281312">
        <ele>606.698491</ele>
        <time>2019-08-22T14:19:11.966Z</time>
      </trkpt>
      <trkpt lat="42.557993" lon="2.281763">
        <ele>605.455401</ele>
        <time>2019-08-22T14:19:16.296Z</time>
      </trkpt>
      <trkpt lat="42.558113" lon="2.282105">
        <ele>604.628345</ele>
        <time>2019-08-22T14:19:19.128Z</time>
      </trkpt>
      <trkpt lat="42.558142" lon="2.282397">
        <ele>603.985071</ele>
        <time>2019-08-22T14:19:21.297Z</time>
      </trkpt>
      <trkpt lat="42.558081" lon="2.283113">
        <ele>602.227597</ele>
        <time>2019-08-22T14:19:26.580Z</time>
      </trkpt>
      <trkpt lat="42.558228" lon="2.283634">
        <ele>600.799292</ele>
        <time>2019-08-22T14:19:30.696Z</time>
      </trkpt>
      <trkpt lat="42.558806" lon="2.284445">
        <ele>597.910302</ele>
        <time>2019-08-22T14:19:39.038Z</time>
      </trkpt>
      <trkpt lat="42.559861" lon="2.285615">
        <ele>593.533087</ele>
        <time>2019-08-22T14:19:52.670Z</time>
      </trkpt>
      <trkpt lat="42.560101" lon="2.285941">
        <ele>592.457269</ele>
        <time>2019-08-22T14:19:56.203Z</time>
      </trkpt>
      <trkpt lat="42.560241" lon="2.286176">
        <ele>591.751807</ele>
        <time>2019-08-22T14:19:58.483Z</time>
      </trkpt>
      <trkpt lat="42.560477" lon="2.286689">
        <ele>590.583489</ele>
        <time>2019-08-22T14:20:03.237Z</time>
      </trkpt>
      <trkpt lat="42.560918" lon="2.287384">
        <ele>588.881982</ele>
        <time>2019-08-22T14:20:10.474Z</time>
      </trkpt>
      <trkpt lat="42.561076" lon="2.287724">
        <ele>588.136315</ele>
        <time>2019-08-22T14:20:13.548Z</time>
      </trkpt>
      <trkpt lat="42.561414" lon="2.288390">
        <ele>586.690735</ele>
        <time>2019-08-22T14:20:19.863Z</time>
      </trkpt>
      <trkpt lat="42.561626" lon="2.288848">
        <ele>585.839492</ele>
        <time>2019-08-22T14:20:24.128Z</time>
      </trkpt>
      <trkpt lat="42.561651" lon="2.288983">
        <ele>585.620437</ele>
        <time>2019-08-22T14:20:25.314Z</time>
      </trkpt>
      <trkpt lat="42.561663" lon="2.289221">
        <ele>585.245031</ele>
        <time>2019-08-22T14:20:27.070Z</time>
      </trkpt>
      <trkpt lat="42.561642" lon="2.289760">
        <ele>584.395646</ele>
        <time>2019-08-22T14:20:31.469Z</time>
      </trkpt>
      <trkpt lat="42.561822" lon="2.291378">
        <ele>582.430774</ele>
        <time>2019-08-22T14:20:45.113Z</time>
      </trkpt>
      <trkpt lat="42.561863" lon="2.291470">
        <ele>582.339029</ele>
        <time>2019-08-22T14:20:45.946Z</time>
      </trkpt>
      <trkpt lat="42.561964" lon="2.291645">
        <ele>582.149341</ele>
        <time>2019-08-22T14:20:48.538Z</time>
      </trkpt>
      <trkpt lat="42.561991" lon="2.291723">
        <ele>582.075808</ele>
        <time>2019-08-22T14:20:49.268Z</time>
      </trkpt>
      <trkpt lat="42.561707" lon="2.292839">
        <ele>581.068013</ele>
        <time>2019-08-22T14:21:00.136Z</time>
      </trkpt>
      <trkpt lat="42.561658" lon="2.293117">
        <ele>580.759444</ele>
        <time>2019-08-22T14:21:03.273Z</time>
      </trkpt>
      <trkpt lat="42.561633" lon="2.293270">
        <ele>580.590268</ele>
        <time>2019-08-22T14:21:04.593Z</time>
      </trkpt>
      <trkpt lat="42.561617" lon="2.295535">
        <ele>577.873884</ele>
        <time>2019-08-22T14:21:23.692Z</time>
      </trkpt>
      <trkpt lat="42.561547" lon="2.296110">
        <ele>576.653607</ele>
        <time>2019-08-22T14:21:28.198Z</time>
      </trkpt>
      <trkpt lat="42.561342" lon="2.296738">
        <ele>575.215337</ele>
        <time>2019-08-22T14:21:33.397Z</time>
      </trkpt>
      <trkpt lat="42.561199" lon="2.297862">
        <ele>572.851860</ele>
        <time>2019-08-22T14:21:41.826Z</time>
      </trkpt>
      <trkpt lat="42.561367" lon="2.299514">
        <ele>569.535683</ele>
        <time>2019-08-22T14:21:54.271Z</time>
      </trkpt>
      <trkpt lat="42.561379" lon="2.300197">
        <ele>568.510618</ele>
        <time>2019-08-22T14:22:00.349Z</time>
      </trkpt>
      <trkpt lat="42.561361" lon="2.300468">
        <ele>568.596662</ele>
        <time>2019-08-22T14:22:02.613Z</time>
      </trkpt>
      <trkpt lat="42.561330" lon="2.301144">
        <ele>568.810844</ele>
        <time>2019-08-22T14:22:10.118Z</time>
      </trkpt>
      <trkpt lat="42.561323" lon="2.301263">
        <ele>568.848595</ele>
        <time>2019-08-22T14:22:11.335Z</time>
      </trkpt>
      <trkpt lat="42.561292" lon="2.301642">
        <ele>568.969180</ele>
        <time>2019-08-22T14:22:16.301Z</time>
      </trkpt>
      <trkpt lat="42.561289" lon="2.302797">
        <ele>569.866553</ele>
        <time>2019-08-22T14:22:34.699Z</time>
      </trkpt>
      <trkpt lat="42.561431" lon="2.303897">
        <ele>572.150125</ele>
        <time>2019-08-22T14:22:57.372Z</time>
      </trkpt>
      <trkpt lat="42.561558" lon="2.304500">
        <ele>573.432558</ele>
        <time>2019-08-22T14:23:09.743Z</time>
      </trkpt>
      <trkpt lat="42.561726" lon="2.305021">
        <ele>574.447290</ele>
        <time>2019-08-22T14:23:21.071Z</time>
      </trkpt>
      <trkpt lat="42.562135" lon="2.306099">
        <ele>575.920111</ele>
        <time>2019-08-22T14:23:43.898Z</time>
      </trkpt>
      <trkpt lat="42.562733" lon="2.307309">
        <ele>576.493515</ele>
        <time>2019-08-22T14:24:02.466Z</time>
      </trkpt>
      <trkpt lat="42.563413" lon="2.309202">
        <ele>572.703339</ele>
        <time>2019-08-22T14:24:18.689Z</time>
      </trkpt>
      <trkpt lat="42.563785" lon="2.309934">
        <ele>569.314211</ele>
        <time>2019-08-22T14:24:24.697Z</time>
      </trkpt>
      <trkpt lat="42.564253" lon="2.310640">
        <ele>565.694552</ele>
        <time>2019-08-22T14:24:31.252Z</time>
      </trkpt>
      <trkpt lat="42.564391" lon="2.310887">
        <ele>564.513108</ele>
        <time>2019-08-22T14:24:33.355Z</time>
      </trkpt>
      <trkpt lat="42.564487" lon="2.311057">
        <ele>563.696768</ele>
        <time>2019-08-22T14:24:34.839Z</time>
      </trkpt>
      <trkpt lat="42.564656" lon="2.311375">
        <ele>562.247350</ele>
        <time>2019-08-22T14:24:37.527Z</time>
      </trkpt>
      <trkpt lat="42.565031" lon="2.312182">
        <ele>558.722856</ele>
        <time>2019-08-22T14:24:44.079Z</time>
      </trkpt>
      <trkpt lat="42.565517" lon="2.313226">
        <ele>554.229701</ele>
        <time>2019-08-22T14:24:52.796Z</time>
      </trkpt>
      <trkpt lat="42.565713" lon="2.313639">
        <ele>552.672615</ele>
        <time>2019-08-22T14:24:56.344Z</time>
      </trkpt>
      <trkpt lat="42.565884" lon="2.313952">
        <ele>551.437532</ele>
        <time>2019-08-22T14:24:59.109Z</time>
      </trkpt>
      <trkpt lat="42.566132" lon="2.314503">
        <ele>549.391034</ele>
        <time>2019-08-22T14:25:03.643Z</time>
      </trkpt>
      <trkpt lat="42.566206" lon="2.314652">
        <ele>548.821493</ele>
        <time>2019-08-22T14:25:04.902Z</time>
      </trkpt>
      <trkpt lat="42.566467" lon="2.315020">
        <ele>547.202382</ele>
        <time>2019-08-22T14:25:08.571Z</time>
      </trkpt>
      <trkpt lat="42.566708" lon="2.315355">
        <ele>546.128029</ele>
        <time>2019-08-22T14:25:11.969Z</time>
      </trkpt>
      <trkpt lat="42.567021" lon="2.315968">
        <ele>544.580126</ele>
        <time>2019-08-22T14:25:17.527Z</time>
      </trkpt>
      <trkpt lat="42.567349" lon="2.316596">
        <ele>542.982476</ele>
        <time>2019-08-22T14:25:23.439Z</time>
      </trkpt>
      <trkpt lat="42.567798" lon="2.317892">
        <ele>540.624946</ele>
        <time>2019-08-22T14:25:35.623Z</time>
      </trkpt>
      <trkpt lat="42.567847" lon="2.318060">
        <ele>540.376114</ele>
        <time>2019-08-22T14:25:36.990Z</time>
      </trkpt>
      <trkpt lat="42.567880" lon="2.318181">
        <ele>540.198430</ele>
        <time>2019-08-22T14:25:38.030Z</time>
      </trkpt>
      <trkpt lat="42.568009" lon="2.318559">
        <ele>539.624725</ele>
        <time>2019-08-22T14:25:41.746Z</time>
      </trkpt>
      <trkpt lat="42.568204" lon="2.319077">
        <ele>538.823616</ele>
        <time>2019-08-22T14:25:46.260Z</time>
      </trkpt>
      <trkpt lat="42.568208" lon="2.319099">
        <ele>538.792411</ele>
        <time>2019-08-22T14:25:47.560Z</time>
      </trkpt>
      <trkpt lat="42.568212" lon="2.319167">
        <ele>538.698472</ele>
        <time>2019-08-22T14:25:48.091Z</time>
      </trkpt>
      <trkpt lat="42.568201" lon="2.319302">
        <ele>538.511433</ele>
        <time>2019-08-22T14:25:49.026Z</time>
      </trkpt>
      <trkpt lat="42.568131" lon="2.319742">
        <ele>537.909007</ele>
        <time>2019-08-22T14:25:52.692Z</time>
      </trkpt>
      <trkpt lat="42.568137" lon="2.320486">
        <ele>536.915110</ele>
        <time>2019-08-22T14:25:59.088Z</time>
      </trkpt>
      <trkpt lat="42.568118" lon="2.320637">
        <ele>536.710480</ele>
        <time>2019-08-22T14:26:00.547Z</time>
      </trkpt>
      <trkpt lat="42.568099" lon="2.320809">
        <ele>536.478152</ele>
        <time>2019-08-22T14:26:01.841Z</time>
      </trkpt>
      <trkpt lat="42.568057" lon="2.321123">
        <ele>536.051848</ele>
        <time>2019-08-22T14:26:04.378Z</time>
      </trkpt>
      <trkpt lat="42.568086" lon="2.321579">
        <ele>535.440454</ele>
        <time>2019-08-22T14:26:07.967Z</time>
      </trkpt>
      <trkpt lat="42.568202" lon="2.321839">
        <ele>534.976702</ele>
        <time>2019-08-22T14:26:11.581Z</time>
      </trkpt>
      <trkpt lat="42.568245" lon="2.321935">
        <ele>534.777821</ele>
        <time>2019-08-22T14:26:12.632Z</time>
      </trkpt>
      <trkpt lat="42.568296" lon="2.322060">
        <ele>534.524885</ele>
        <time>2019-08-22T14:26:13.829Z</time>
      </trkpt>
      <trkpt lat="42.568340" lon="2.322178">
        <ele>534.290778</ele>
        <time>2019-08-22T14:26:15.396Z</time>
      </trkpt>
      <trkpt lat="42.568363" lon="2.322315">
        <ele>534.042065</ele>
        <time>2019-08-22T14:26:16.521Z</time>
      </trkpt>
      <trkpt lat="42.568433" lon="2.322793">
        <ele>533.179434</ele>
        <time>2019-08-22T14:26:20.127Z</time>
      </trkpt>
      <trkpt lat="42.568487" lon="2.322895">
        <ele>532.957086</ele>
        <time>2019-08-22T14:26:21.101Z</time>
      </trkpt>
      <trkpt lat="42.568552" lon="2.322968">
        <ele>532.754355</ele>
        <time>2019-08-22T14:26:22.095Z</time>
      </trkpt>
      <trkpt lat="42.568597" lon="2.322999">
        <ele>532.633080</ele>
        <time>2019-08-22T14:26:22.711Z</time>
      </trkpt>
      <trkpt lat="42.568874" lon="2.323158">
        <ele>531.910303</ele>
        <time>2019-08-22T14:26:25.852Z</time>
      </trkpt>
      <trkpt lat="42.568954" lon="2.323216">
        <ele>531.692343</ele>
        <time>2019-08-22T14:26:26.907Z</time>
      </trkpt>
      <trkpt lat="42.569019" lon="2.323286">
        <ele>531.492954</ele>
        <time>2019-08-22T14:26:27.704Z</time>
      </trkpt>
      <trkpt lat="42.569088" lon="2.323389">
        <ele>531.246505</ele>
        <time>2019-08-22T14:26:28.763Z</time>
      </trkpt>
      <trkpt lat="42.569107" lon="2.323474">
        <ele>531.089278</ele>
        <time>2019-08-22T14:26:29.489Z</time>
      </trkpt>
      <trkpt lat="42.569090" lon="2.323609">
        <ele>530.824409</ele>
        <time>2019-08-22T14:26:30.551Z</time>
      </trkpt>
      <trkpt lat="42.569047" lon="2.323675">
        <ele>530.585390</ele>
        <time>2019-08-22T14:26:31.151Z</time>
      </trkpt>
      <trkpt lat="42.568910" lon="2.323784">
        <ele>530.000569</ele>
        <time>2019-08-22T14:26:32.721Z</time>
      </trkpt>
      <trkpt lat="42.568716" lon="2.323895">
        <ele>529.225209</ele>
        <time>2019-08-22T14:26:34.822Z</time>
      </trkpt>
      <trkpt lat="42.568619" lon="2.324078">
        <ele>528.613632</ele>
        <time>2019-08-22T14:26:36.523Z</time>
      </trkpt>
      <trkpt lat="42.568615" lon="2.324237">
        <ele>528.182099</ele>
        <time>2019-08-22T14:26:37.701Z</time>
      </trkpt>
      <trkpt lat="42.568896" lon="2.325007">
        <ele>525.851149</ele>
        <time>2019-08-22T14:26:43.965Z</time>
      </trkpt>
      <trkpt lat="42.568947" lon="2.325189">
        <ele>525.322955</ele>
        <time>2019-08-22T14:26:45.266Z</time>
      </trkpt>
      <trkpt lat="42.568974" lon="2.325431">
        <ele>524.659053</ele>
        <time>2019-08-22T14:26:46.989Z</time>
      </trkpt>
      <trkpt lat="42.569110" lon="2.327661">
        <ele>519.234686</ele>
        <time>2019-08-22T14:27:03.776Z</time>
      </trkpt>
      <trkpt lat="42.568941" lon="2.328297">
        <ele>517.756023</ele>
        <time>2019-08-22T14:27:08.971Z</time>
      </trkpt>
      <trkpt lat="42.568934" lon="2.328486">
        <ele>517.386298</ele>
        <time>2019-08-22T14:27:10.373Z</time>
      </trkpt>
      <trkpt lat="42.568930" lon="2.328683">
        <ele>517.001263</ele>
        <time>2019-08-22T14:27:11.838Z</time>
      </trkpt>
      <trkpt lat="42.568849" lon="2.329983">
        <ele>514.452316</ele>
        <time>2019-08-22T14:27:21.870Z</time>
      </trkpt>
      <trkpt lat="42.568946" lon="2.330463">
        <ele>513.564575</ele>
        <time>2019-08-22T14:27:25.724Z</time>
      </trkpt>
      <trkpt lat="42.569104" lon="2.330757">
        <ele>513.279038</ele>
        <time>2019-08-22T14:27:28.685Z</time>
      </trkpt>
      <trkpt lat="42.569223" lon="2.330949">
        <ele>513.082161</ele>
        <time>2019-08-22T14:27:31.242Z</time>
      </trkpt>
      <trkpt lat="42.569306" lon="2.331165">
        <ele>512.891021</ele>
        <time>2019-08-22T14:27:33.352Z</time>
      </trkpt>
      <trkpt lat="42.569593" lon="2.331914">
        <ele>512.228623</ele>
        <time>2019-08-22T14:27:41.714Z</time>
      </trkpt>
      <trkpt lat="42.569770" lon="2.332282">
        <ele>511.883796</ele>
        <time>2019-08-22T14:27:45.995Z</time>
      </trkpt>
      <trkpt lat="42.569932" lon="2.332571">
        <ele>511.539659</ele>
        <time>2019-08-22T14:27:49.357Z</time>
      </trkpt>
      <trkpt lat="42.570476" lon="2.333376">
        <ele>510.206053</ele>
        <time>2019-08-22T14:27:59.139Z</time>
      </trkpt>
      <trkpt lat="42.570563" lon="2.333668">
        <ele>509.821566</ele>
        <time>2019-08-22T14:28:01.867Z</time>
      </trkpt>
      <trkpt lat="42.570526" lon="2.334103">
        <ele>509.287064</ele>
        <time>2019-08-22T14:28:05.449Z</time>
      </trkpt>
      <trkpt lat="42.570557" lon="2.334311">
        <ele>509.028027</ele>
        <time>2019-08-22T14:28:07.102Z</time>
      </trkpt>
      <trkpt lat="42.570841" lon="2.335067">
        <ele>506.940467</ele>
        <time>2019-08-22T14:28:13.391Z</time>
      </trkpt>
      <trkpt lat="42.571207" lon="2.335547">
        <ele>504.885570</ele>
        <time>2019-08-22T14:28:18.382Z</time>
      </trkpt>
      <trkpt lat="42.571390" lon="2.335918">
        <ele>503.557561</ele>
        <time>2019-08-22T14:28:21.552Z</time>
      </trkpt>
      <trkpt lat="42.571677" lon="2.336545">
        <ele>501.351429</ele>
        <time>2019-08-22T14:28:26.732Z</time>
      </trkpt>
      <trkpt lat="42.571891" lon="2.336876">
        <ele>499.901118</ele>
        <time>2019-08-22T14:28:29.776Z</time>
      </trkpt>
      <trkpt lat="42.572081" lon="2.337019">
        <ele>498.929827</ele>
        <time>2019-08-22T14:28:31.846Z</time>
      </trkpt>
      <trkpt lat="42.572586" lon="2.337356">
        <ele>496.413945</ele>
        <time>2019-08-22T14:28:37.161Z</time>
      </trkpt>
      <trkpt lat="42.572723" lon="2.337495">
        <ele>495.649290</ele>
        <time>2019-08-22T14:28:38.812Z</time>
      </trkpt>
      <trkpt lat="42.572945" lon="2.337824">
        <ele>494.180011</ele>
        <time>2019-08-22T14:28:42.061Z</time>
      </trkpt>
      <trkpt lat="42.573018" lon="2.337969">
        <ele>493.601668</ele>
        <time>2019-08-22T14:28:43.306Z</time>
      </trkpt>
      <trkpt lat="42.573265" lon="2.338518">
        <ele>492.118129</ele>
        <time>2019-08-22T14:28:48.085Z</time>
      </trkpt>
      <trkpt lat="42.573416" lon="2.338840">
        <ele>491.273526</ele>
        <time>2019-08-22T14:28:50.871Z</time>
      </trkpt>
      <trkpt lat="42.574003" lon="2.340026">
        <ele>488.111948</ele>
        <time>2019-08-22T14:29:01.839Z</time>
      </trkpt>
      <trkpt lat="42.574815" lon="2.341327">
        <ele>485.725444</ele>
        <time>2019-08-22T14:29:15.771Z</time>
      </trkpt>
      <trkpt lat="42.576575" lon="2.343543">
        <ele>481.558897</ele>
        <time>2019-08-22T14:29:43.361Z</time>
      </trkpt>
      <trkpt lat="42.578628" lon="2.346282">
        <ele>473.278434</ele>
        <time>2019-08-22T14:30:12.989Z</time>
      </trkpt>
      <trkpt lat="42.579032" lon="2.347090">
        <ele>471.093879</ele>
        <time>2019-08-22T14:30:20.173Z</time>
      </trkpt>
      <trkpt lat="42.579430" lon="2.348352">
        <ele>468.716509</ele>
        <time>2019-08-22T14:30:30.758Z</time>
      </trkpt>
      <trkpt lat="42.579617" lon="2.348887">
        <ele>467.690992</ele>
        <time>2019-08-22T14:30:35.529Z</time>
      </trkpt>
      <trkpt lat="42.579795" lon="2.349338">
        <ele>466.862029</ele>
        <time>2019-08-22T14:30:39.887Z</time>
      </trkpt>
      <trkpt lat="42.580591" lon="2.351268">
        <ele>464.848246</ele>
        <time>2019-08-22T14:30:59.447Z</time>
      </trkpt>
      <trkpt lat="42.580810" lon="2.351697">
        <ele>464.348082</ele>
        <time>2019-08-22T14:31:04.001Z</time>
      </trkpt>
      <trkpt lat="42.580873" lon="2.351817">
        <ele>464.203730</ele>
        <time>2019-08-22T14:31:05.274Z</time>
      </trkpt>
      <trkpt lat="42.580943" lon="2.351947">
        <ele>464.045986</ele>
        <time>2019-08-22T14:31:06.654Z</time>
      </trkpt>
      <trkpt lat="42.581082" lon="2.352175">
        <ele>463.756058</ele>
        <time>2019-08-22T14:31:09.208Z</time>
      </trkpt>
      <trkpt lat="42.581129" lon="2.352245">
        <ele>463.663271</ele>
        <time>2019-08-22T14:31:10.062Z</time>
      </trkpt>
      <trkpt lat="42.581239" lon="2.352392">
        <ele>463.457989</ele>
        <time>2019-08-22T14:31:11.807Z</time>
      </trkpt>
      <trkpt lat="42.581733" lon="2.353008">
        <ele>462.565896</ele>
        <time>2019-08-22T14:31:19.666Z</time>
      </trkpt>
      <trkpt lat="42.582427" lon="2.353691">
        <ele>461.693029</ele>
        <time>2019-08-22T14:31:29.937Z</time>
      </trkpt>
      <trkpt lat="42.582907" lon="2.354105">
        <ele>461.165464</ele>
        <time>2019-08-22T14:31:37.296Z</time>
      </trkpt>
      <trkpt lat="42.583230" lon="2.354419">
        <ele>460.796923</ele>
        <time>2019-08-22T14:31:42.316Z</time>
      </trkpt>
      <trkpt lat="42.583406" lon="2.354695">
        <ele>460.489725</ele>
        <time>2019-08-22T14:31:45.642Z</time>
      </trkpt>
      <trkpt lat="42.583855" lon="2.355675">
        <ele>459.210402</ele>
        <time>2019-08-22T14:31:55.810Z</time>
      </trkpt>
      <trkpt lat="42.584050" lon="2.356783">
        <ele>457.947743</ele>
        <time>2019-08-22T14:32:05.364Z</time>
      </trkpt>
      <trkpt lat="42.584175" lon="2.358849">
        <ele>455.531961</ele>
        <time>2019-08-22T14:32:21.016Z</time>
      </trkpt>
      <trkpt lat="42.584237" lon="2.359138">
        <ele>455.181050</ele>
        <time>2019-08-22T14:32:23.997Z</time>
      </trkpt>
      <trkpt lat="42.584295" lon="2.359325">
        <ele>455.831343</ele>
        <time>2019-08-22T14:32:27.298Z</time>
      </trkpt>
      <trkpt lat="42.584361" lon="2.359693">
        <ele>458.177645</ele>
        <time>2019-08-22T14:32:36.506Z</time>
      </trkpt>
      <trkpt lat="42.584358" lon="2.359909">
        <ele>459.515935</ele>
        <time>2019-08-22T14:32:42.681Z</time>
      </trkpt>
      <trkpt lat="42.584337" lon="2.360016">
        <ele>460.201911</ele>
        <time>2019-08-22T14:32:46.777Z</time>
      </trkpt>
      <trkpt lat="42.584271" lon="2.360415">
        <ele>462.735201</ele>
        <time>2019-08-22T14:33:03.747Z</time>
      </trkpt>
      <trkpt lat="42.584193" lon="2.360814">
        <ele>465.292523</ele>
        <time>2019-08-22T14:33:21.920Z</time>
      </trkpt>
      <trkpt lat="42.584155" lon="2.361017">
        <ele>466.590053</ele>
        <time>2019-08-22T14:33:29.780Z</time>
      </trkpt>
      <trkpt lat="42.584080" lon="2.361520">
        <ele>469.769244</ele>
        <time>2019-08-22T14:33:53.611Z</time>
      </trkpt>
      <trkpt lat="42.584074" lon="2.361599">
        <ele>470.262137</ele>
        <time>2019-08-22T14:33:58.250Z</time>
      </trkpt>
      <trkpt lat="42.584085" lon="2.361929">
        <ele>472.351535</ele>
        <time>2019-08-22T14:34:14.460Z</time>
      </trkpt>
      <trkpt lat="42.584115" lon="2.362028">
        <ele>473.028672</ele>
        <time>2019-08-22T14:34:18.863Z</time>
      </trkpt>
      <trkpt lat="42.584165" lon="2.362191">
        <ele>474.145547</ele>
        <time>2019-08-22T14:34:29.573Z</time>
      </trkpt>
      <trkpt lat="42.584425" lon="2.362624">
        <ele>477.679560</ele>
        <time>2019-08-22T14:34:53.427Z</time>
      </trkpt>
      <trkpt lat="42.585049" lon="2.363327">
        <ele>484.644136</ele>
        <time>2019-08-22T14:35:29.485Z</time>
      </trkpt>
      <trkpt lat="42.585318" lon="2.363526">
        <ele>485.484910</ele>
        <time>2019-08-22T14:35:36.994Z</time>
      </trkpt>
      <trkpt lat="42.585514" lon="2.363690">
        <ele>485.258333</ele>
        <time>2019-08-22T14:35:40.555Z</time>
      </trkpt>
      <trkpt lat="42.585630" lon="2.363817">
        <ele>485.111689</ele>
        <time>2019-08-22T14:35:42.088Z</time>
      </trkpt>
      <trkpt lat="42.585749" lon="2.363975">
        <ele>484.947901</ele>
        <time>2019-08-22T14:35:44.467Z</time>
      </trkpt>
      <trkpt lat="42.585858" lon="2.364155">
        <ele>484.779014</ele>
        <time>2019-08-22T14:35:46.100Z</time>
      </trkpt>
      <trkpt lat="42.585934" lon="2.364330">
        <ele>484.631783</ele>
        <time>2019-08-22T14:35:48.001Z</time>
      </trkpt>
      <trkpt lat="42.586002" lon="2.364565">
        <ele>484.448812</ele>
        <time>2019-08-22T14:35:49.796Z</time>
      </trkpt>
      <trkpt lat="42.586011" lon="2.364647">
        <ele>484.388734</ele>
        <time>2019-08-22T14:35:50.714Z</time>
      </trkpt>
      <trkpt lat="42.586038" lon="2.364924">
        <ele>484.186256</ele>
        <time>2019-08-22T14:35:52.949Z</time>
      </trkpt>
      <trkpt lat="42.586068" lon="2.365191">
        <ele>483.990536</ele>
        <time>2019-08-22T14:35:54.921Z</time>
      </trkpt>
      <trkpt lat="42.586106" lon="2.365393">
        <ele>483.494968</ele>
        <time>2019-08-22T14:35:56.749Z</time>
      </trkpt>
      <trkpt lat="42.586131" lon="2.365545">
        <ele>482.725965</ele>
        <time>2019-08-22T14:35:57.810Z</time>
      </trkpt>
      <trkpt lat="42.586189" lon="2.365801">
        <ele>481.403466</ele>
        <time>2019-08-22T14:36:01.936Z</time>
      </trkpt>
      <trkpt lat="42.586281" lon="2.366248">
        <ele>479.111782</ele>
        <time>2019-08-22T14:36:05.118Z</time>
      </trkpt>
      <trkpt lat="42.586320" lon="2.366442">
        <ele>478.118840</ele>
        <time>2019-08-22T14:36:06.496Z</time>
      </trkpt>
      <trkpt lat="42.586372" lon="2.366677">
        <ele>476.907255</ele>
        <time>2019-08-22T14:36:08.095Z</time>
      </trkpt>
      <trkpt lat="42.586383" lon="2.366757">
        <ele>476.505425</ele>
        <time>2019-08-22T14:36:08.832Z</time>
      </trkpt>
      <trkpt lat="42.586396" lon="2.366898">
        <ele>475.803799</ele>
        <time>2019-08-22T14:36:09.757Z</time>
      </trkpt>
      <trkpt lat="42.586412" lon="2.367218">
        <ele>474.220158</ele>
        <time>2019-08-22T14:36:11.781Z</time>
      </trkpt>
      <trkpt lat="42.586455" lon="2.367823">
        <ele>471.202379</ele>
        <time>2019-08-22T14:36:15.571Z</time>
      </trkpt>
      <trkpt lat="42.586468" lon="2.368136">
        <ele>469.612615</ele>
        <time>2019-08-22T14:36:17.534Z</time>
      </trkpt>
      <trkpt lat="42.586529" lon="2.369095">
        <ele>464.731361</ele>
        <time>2019-08-22T14:36:23.886Z</time>
      </trkpt>
      <trkpt lat="42.586558" lon="2.369562">
        <ele>462.354773</ele>
        <time>2019-08-22T14:36:27.007Z</time>
      </trkpt>
      <trkpt lat="42.586564" lon="2.369630">
        <ele>462.007475</ele>
        <time>2019-08-22T14:36:27.501Z</time>
      </trkpt>
      <trkpt lat="42.586563" lon="2.369841">
        <ele>460.937462</ele>
        <time>2019-08-22T14:36:29.056Z</time>
      </trkpt>
      <trkpt lat="42.586559" lon="2.369905">
        <ele>460.611747</ele>
        <time>2019-08-22T14:36:29.494Z</time>
      </trkpt>
      <trkpt lat="42.586550" lon="2.369956">
        <ele>460.345799</ele>
        <time>2019-08-22T14:36:29.825Z</time>
      </trkpt>
      <trkpt lat="42.586516" lon="2.370012">
        <ele>459.977718</ele>
        <time>2019-08-22T14:36:30.283Z</time>
      </trkpt>
      <trkpt lat="42.586498" lon="2.370080">
        <ele>459.611277</ele>
        <time>2019-08-22T14:36:30.840Z</time>
      </trkpt>
      <trkpt lat="42.586503" lon="2.370164">
        <ele>459.441723</ele>
        <time>2019-08-22T14:36:32.350Z</time>
      </trkpt>
      <trkpt lat="42.586532" lon="2.370238">
        <ele>459.431223</ele>
        <time>2019-08-22T14:36:33.280Z</time>
      </trkpt>
      <trkpt lat="42.586572" lon="2.370282">
        <ele>459.422467</ele>
        <time>2019-08-22T14:36:33.899Z</time>
      </trkpt>
      <trkpt lat="42.586673" lon="2.370302">
        <ele>459.405104</ele>
        <time>2019-08-22T14:36:34.992Z</time>
      </trkpt>
      <trkpt lat="42.586758" lon="2.370227">
        <ele>459.387861</ele>
        <time>2019-08-22T14:36:37.009Z</time>
      </trkpt>
      <trkpt lat="42.586782" lon="2.370165">
        <ele>459.379088</ele>
        <time>2019-08-22T14:36:38.538Z</time>
      </trkpt>
      <trkpt lat="42.586905" lon="2.370085">
        <ele>459.355888</ele>
        <time>2019-08-22T14:36:41.128Z</time>
      </trkpt>
      <trkpt lat="42.586963" lon="2.370071">
        <ele>459.345867</ele>
        <time>2019-08-22T14:36:41.742Z</time>
      </trkpt>
      <trkpt lat="42.587269" lon="2.370116">
        <ele>459.293508</ele>
        <time>2019-08-22T14:36:48.276Z</time>
      </trkpt>
      <trkpt lat="42.587703" lon="2.370280">
        <ele>459.216875</ele>
        <time>2019-08-22T14:36:59.273Z</time>
      </trkpt>
      <trkpt lat="42.587790" lon="2.370334">
        <ele>459.200603</ele>
        <time>2019-08-22T14:37:02.462Z</time>
      </trkpt>
      <trkpt lat="42.587913" lon="2.370409">
        <ele>459.177667</ele>
        <time>2019-08-22T14:37:04.475Z</time>
      </trkpt>
      <trkpt lat="42.587977" lon="2.370440">
        <ele>459.166108</ele>
        <time>2019-08-22T14:37:05.169Z</time>
      </trkpt>
      <trkpt lat="42.588040" lon="2.370473">
        <ele>459.154621</ele>
        <time>2019-08-22T14:37:05.930Z</time>
      </trkpt>
      <trkpt lat="42.588235" lon="2.370634">
        <ele>458.644192</ele>
        <time>2019-08-22T14:37:08.490Z</time>
      </trkpt>
      <trkpt lat="42.588434" lon="2.370776">
        <ele>457.924787</ele>
        <time>2019-08-22T14:37:10.963Z</time>
      </trkpt>
      <trkpt lat="42.588866" lon="2.371012">
        <ele>456.434609</ele>
        <time>2019-08-22T14:37:15.496Z</time>
      </trkpt>
      <trkpt lat="42.589435" lon="2.371191">
        <ele>454.565416</ele>
        <time>2019-08-22T14:37:21.015Z</time>
      </trkpt>
      <trkpt lat="42.590199" lon="2.371214">
        <ele>454.276612</ele>
        <time>2019-08-22T14:37:28.527Z</time>
      </trkpt>
      <trkpt lat="42.590654" lon="2.371257">
        <ele>455.303241</ele>
        <time>2019-08-22T14:37:38.431Z</time>
      </trkpt>
      <trkpt lat="42.590886" lon="2.371314">
        <ele>455.833920</ele>
        <time>2019-08-22T14:37:46.091Z</time>
      </trkpt>
      <trkpt lat="42.591168" lon="2.371398">
        <ele>456.483752</ele>
        <time>2019-08-22T14:37:56.011Z</time>
      </trkpt>
      <trkpt lat="42.591435" lon="2.371520">
        <ele>457.117831</ele>
        <time>2019-08-22T14:38:06.504Z</time>
      </trkpt>
      <trkpt lat="42.591728" lon="2.371757">
        <ele>458.247699</ele>
        <time>2019-08-22T14:38:20.351Z</time>
      </trkpt>
      <trkpt lat="42.592424" lon="2.372391">
        <ele>461.649645</ele>
        <time>2019-08-22T14:38:57.836Z</time>
      </trkpt>
      <trkpt lat="42.593787" lon="2.373412">
        <ele>461.511327</ele>
        <time>2019-08-22T14:39:21.987Z</time>
      </trkpt>
      <trkpt lat="42.594859" lon="2.374302">
        <ele>455.126927</ele>
        <time>2019-08-22T14:39:33.215Z</time>
      </trkpt>
      <trkpt lat="42.595196" lon="2.374724">
        <ele>450.931701</ele>
        <time>2019-08-22T14:39:37.226Z</time>
      </trkpt>
      <trkpt lat="42.595408" lon="2.375079">
        <ele>447.851601</ele>
        <time>2019-08-22T14:39:40.123Z</time>
      </trkpt>
      <trkpt lat="42.595533" lon="2.375431">
        <ele>445.218276</ele>
        <time>2019-08-22T14:39:42.586Z</time>
      </trkpt>
      <trkpt lat="42.595613" lon="2.375870">
        <ele>442.171004</ele>
        <time>2019-08-22T14:39:45.473Z</time>
      </trkpt>
      <trkpt lat="42.595667" lon="2.376139">
        <ele>440.272732</ele>
        <time>2019-08-22T14:39:47.447Z</time>
      </trkpt>
      <trkpt lat="42.595740" lon="2.376295">
        <ele>438.992176</ele>
        <time>2019-08-22T14:39:48.567Z</time>
      </trkpt>
      <trkpt lat="42.595890" lon="2.376463">
        <ele>437.162688</ele>
        <time>2019-08-22T14:39:50.339Z</time>
      </trkpt>
      <trkpt lat="42.595993" lon="2.376496">
        <ele>436.166812</ele>
        <time>2019-08-22T14:39:51.227Z</time>
      </trkpt>
      <trkpt lat="42.596475" lon="2.376484">
        <ele>431.630186</ele>
        <time>2019-08-22T14:39:55.350Z</time>
      </trkpt>
      <trkpt lat="42.596578" lon="2.376577">
        <ele>430.466327</ele>
        <time>2019-08-22T14:39:56.545Z</time>
      </trkpt>
      <trkpt lat="42.596862" lon="2.377068">
        <ele>426.140597</ele>
        <time>2019-08-22T14:40:00.523Z</time>
      </trkpt>
      <trkpt lat="42.596986" lon="2.377256">
        <ele>424.391947</ele>
        <time>2019-08-22T14:40:02.072Z</time>
      </trkpt>
      <trkpt lat="42.597452" lon="2.377837">
        <ele>421.276733</ele>
        <time>2019-08-22T14:40:07.755Z</time>
      </trkpt>
      <trkpt lat="42.597956" lon="2.378438">
        <ele>418.150475</ele>
        <time>2019-08-22T14:40:14.148Z</time>
      </trkpt>
      <trkpt lat="42.598069" lon="2.378573">
        <ele>417.448979</ele>
        <time>2019-08-22T14:40:15.557Z</time>
      </trkpt>
      <trkpt lat="42.598222" lon="2.378756">
        <ele>416.498685</ele>
        <time>2019-08-22T14:40:18.728Z</time>
      </trkpt>
      <trkpt lat="42.598796" lon="2.379488">
        <ele>416.295600</ele>
        <time>2019-08-22T14:40:33.217Z</time>
      </trkpt>
      <trkpt lat="42.599944" lon="2.380964">
        <ele>416.799099</ele>
        <time>2019-08-22T14:41:07.127Z</time>
      </trkpt>
      <trkpt lat="42.600274" lon="2.381399">
        <ele>415.981606</ele>
        <time>2019-08-22T14:41:12.471Z</time>
      </trkpt>
      <trkpt lat="42.600415" lon="2.381583">
        <ele>415.634008</ele>
        <time>2019-08-22T14:41:14.523Z</time>
      </trkpt>
      <trkpt lat="42.600680" lon="2.382014">
        <ele>414.899085</ele>
        <time>2019-08-22T14:41:18.745Z</time>
      </trkpt>
      <trkpt lat="42.600802" lon="2.382212">
        <ele>414.561168</ele>
        <time>2019-08-22T14:41:20.623Z</time>
      </trkpt>
      <trkpt lat="42.600996" lon="2.382512">
        <ele>413.777360</ele>
        <time>2019-08-22T14:41:23.458Z</time>
      </trkpt>
      <trkpt lat="42.601194" lon="2.382897">
        <ele>412.548708</ele>
        <time>2019-08-22T14:41:26.734Z</time>
      </trkpt>
      <trkpt lat="42.601356" lon="2.383264">
        <ele>411.429223</ele>
        <time>2019-08-22T14:41:29.691Z</time>
      </trkpt>
      <trkpt lat="42.601540" lon="2.383691">
        <ele>410.134843</ele>
        <time>2019-08-22T14:41:33.245Z</time>
      </trkpt>
      <trkpt lat="42.601971" lon="2.384970">
        <ele>407.700466</ele>
        <time>2019-08-22T14:41:44.460Z</time>
      </trkpt>
      <trkpt lat="42.602695" lon="2.387040">
        <ele>406.914023</ele>
        <time>2019-08-22T14:42:10.661Z</time>
      </trkpt>
      <trkpt lat="42.603339" lon="2.388895">
        <ele>406.494132</ele>
        <time>2019-08-22T14:42:31.291Z</time>
      </trkpt>
      <trkpt lat="42.603363" lon="2.389011">
        <ele>406.425122</ele>
        <time>2019-08-22T14:42:32.385Z</time>
      </trkpt>
      <trkpt lat="42.603590" lon="2.389681">
        <ele>406.002701</ele>
        <time>2019-08-22T14:42:39.304Z</time>
      </trkpt>
      <trkpt lat="42.603793" lon="2.390377">
        <ele>405.573935</ele>
        <time>2019-08-22T14:42:46.485Z</time>
      </trkpt>
      <trkpt lat="42.604313" lon="2.392020">
        <ele>404.288490</ele>
        <time>2019-08-22T14:43:02.365Z</time>
      </trkpt>
      <trkpt lat="42.604430" lon="2.392340">
        <ele>403.986898</ele>
        <time>2019-08-22T14:43:05.866Z</time>
      </trkpt>
      <trkpt lat="42.604556" lon="2.392667">
        <ele>403.675353</ele>
        <time>2019-08-22T14:43:09.338Z</time>
      </trkpt>
      <trkpt lat="42.604711" lon="2.393030">
        <ele>403.321130</ele>
        <time>2019-08-22T14:43:13.094Z</time>
      </trkpt>
      <trkpt lat="42.605005" lon="2.393717">
        <ele>402.384923</ele>
        <time>2019-08-22T14:43:19.752Z</time>
      </trkpt>
      <trkpt lat="42.605296" lon="2.394407">
        <ele>401.254337</ele>
        <time>2019-08-22T14:43:25.770Z</time>
      </trkpt>
      <trkpt lat="42.605489" lon="2.394869">
        <ele>400.499102</ele>
        <time>2019-08-22T14:43:29.934Z</time>
      </trkpt>
      <trkpt lat="42.605699" lon="2.395479">
        <ele>399.547967</ele>
        <time>2019-08-22T14:43:35.942Z</time>
      </trkpt>
      <trkpt lat="42.605730" lon="2.395569">
        <ele>399.446213</ele>
        <time>2019-08-22T14:43:36.791Z</time>
      </trkpt>
      <trkpt lat="42.605792" lon="2.395804">
        <ele>399.190575</ele>
        <time>2019-08-22T14:43:39.465Z</time>
      </trkpt>
      <trkpt lat="42.605859" lon="2.396083">
        <ele>398.890051</ele>
        <time>2019-08-22T14:43:41.990Z</time>
      </trkpt>
      <trkpt lat="42.605918" lon="2.396402">
        <ele>398.553233</ele>
        <time>2019-08-22T14:43:45.072Z</time>
      </trkpt>
      <trkpt lat="42.605922" lon="2.396519">
        <ele>398.433294</ele>
        <time>2019-08-22T14:43:46.001Z</time>
      </trkpt>
      <trkpt lat="42.605917" lon="2.396767">
        <ele>398.179242</ele>
        <time>2019-08-22T14:43:48.247Z</time>
      </trkpt>
      <trkpt lat="42.605833" lon="2.397153">
        <ele>397.767055</ele>
        <time>2019-08-22T14:43:51.424Z</time>
      </trkpt>
      <trkpt lat="42.605744" lon="2.397357">
        <ele>397.524215</ele>
        <time>2019-08-22T14:43:53.582Z</time>
      </trkpt>
      <trkpt lat="42.605739" lon="2.397460">
        <ele>397.418511</ele>
        <time>2019-08-22T14:43:54.346Z</time>
      </trkpt>
      <trkpt lat="42.605754" lon="2.397580">
        <ele>397.293869</ele>
        <time>2019-08-22T14:43:55.327Z</time>
      </trkpt>
      <trkpt lat="42.605774" lon="2.397674">
        <ele>397.193670</ele>
        <time>2019-08-22T14:43:56.600Z</time>
      </trkpt>
      <trkpt lat="42.605849" lon="2.397909">
        <ele>396.832349</ele>
        <time>2019-08-22T14:43:58.634Z</time>
      </trkpt>
      <trkpt lat="42.605884" lon="2.398016">
        <ele>396.621320</ele>
        <time>2019-08-22T14:43:59.619Z</time>
      </trkpt>
      <trkpt lat="42.606011" lon="2.398398">
        <ele>395.865879</ele>
        <time>2019-08-22T14:44:03.421Z</time>
      </trkpt>
      <trkpt lat="42.606021" lon="2.398426">
        <ele>395.809789</ele>
        <time>2019-08-22T14:44:03.662Z</time>
      </trkpt>
      <trkpt lat="42.606095" lon="2.398650">
        <ele>395.367282</ele>
        <time>2019-08-22T14:44:05.826Z</time>
      </trkpt>
      <trkpt lat="42.606136" lon="2.398775">
        <ele>395.120642</ele>
        <time>2019-08-22T14:44:06.847Z</time>
      </trkpt>
      <trkpt lat="42.606628" lon="2.400302">
        <ele>392.685687</ele>
        <time>2019-08-22T14:44:19.261Z</time>
      </trkpt>
      <trkpt lat="42.606656" lon="2.400390">
        <ele>392.694707</ele>
        <time>2019-08-22T14:44:19.919Z</time>
      </trkpt>
      <trkpt lat="42.606796" lon="2.400824">
        <ele>392.739288</ele>
        <time>2019-08-22T14:44:23.999Z</time>
      </trkpt>
      <trkpt lat="42.606959" lon="2.401304">
        <ele>392.789023</ele>
        <time>2019-08-22T14:44:29.507Z</time>
      </trkpt>
      <trkpt lat="42.606995" lon="2.401563">
        <ele>392.813821</ele>
        <time>2019-08-22T14:44:34.213Z</time>
      </trkpt>
      <trkpt lat="42.607155" lon="2.401904">
        <ele>392.851868</ele>
        <time>2019-08-22T14:44:40.712Z</time>
      </trkpt>
      <trkpt lat="42.607267" lon="2.402062">
        <ele>392.872506</ele>
        <time>2019-08-22T14:44:45.384Z</time>
      </trkpt>
      <trkpt lat="42.607377" lon="2.402256">
        <ele>392.950535</ele>
        <time>2019-08-22T14:44:50.285Z</time>
      </trkpt>
      <trkpt lat="42.607439" lon="2.402389">
        <ele>393.064854</ele>
        <time>2019-08-22T14:44:53.901Z</time>
      </trkpt>
      <trkpt lat="42.607630" lon="2.402803">
        <ele>393.419658</ele>
        <time>2019-08-22T14:45:04.568Z</time>
      </trkpt>
      <trkpt lat="42.607784" lon="2.403130">
        <ele>393.701557</ele>
        <time>2019-08-22T14:45:10.898Z</time>
      </trkpt>
      <trkpt lat="42.607877" lon="2.403341">
        <ele>393.880146</ele>
        <time>2019-08-22T14:45:13.762Z</time>
      </trkpt>
      <trkpt lat="42.607937" lon="2.403470">
        <ele>393.990955</ele>
        <time>2019-08-22T14:45:15.149Z</time>
      </trkpt>
      <trkpt lat="42.608058" lon="2.403861">
        <ele>394.298953</ele>
        <time>2019-08-22T14:45:19.040Z</time>
      </trkpt>
      <trkpt lat="42.608203" lon="2.404107">
        <ele>394.527807</ele>
        <time>2019-08-22T14:45:21.864Z</time>
      </trkpt>
      <trkpt lat="42.608270" lon="2.404252">
        <ele>394.652128</ele>
        <time>2019-08-22T14:45:23.346Z</time>
      </trkpt>
      <trkpt lat="42.608309" lon="2.404429">
        <ele>394.512637</ele>
        <time>2019-08-22T14:45:25.261Z</time>
      </trkpt>
      <trkpt lat="42.608527" lon="2.404814">
        <ele>394.089338</ele>
        <time>2019-08-22T14:45:30.381Z</time>
      </trkpt>
      <trkpt lat="42.608686" lon="2.405250">
        <ele>393.665316</ele>
        <time>2019-08-22T14:45:35.286Z</time>
      </trkpt>
      <trkpt lat="42.608777" lon="2.405536">
        <ele>393.393797</ele>
        <time>2019-08-22T14:45:37.828Z</time>
      </trkpt>
      <trkpt lat="42.608827" lon="2.405783">
        <ele>393.170564</ele>
        <time>2019-08-22T14:45:39.853Z</time>
      </trkpt>
      <trkpt lat="42.608873" lon="2.406008">
        <ele>392.967071</ele>
        <time>2019-08-22T14:45:41.585Z</time>
      </trkpt>
      <trkpt lat="42.608986" lon="2.406579">
        <ele>392.489965</ele>
        <time>2019-08-22T14:45:46.537Z</time>
      </trkpt>
      <trkpt lat="42.609172" lon="2.407001">
        <ele>392.264481</ele>
        <time>2019-08-22T14:45:50.876Z</time>
      </trkpt>
      <trkpt lat="42.609457" lon="2.407408">
        <ele>392.006957</ele>
        <time>2019-08-22T14:45:58.773Z</time>
      </trkpt>
      <trkpt lat="42.610006" lon="2.407663">
        <ele>391.645588</ele>
        <time>2019-08-22T14:46:09.617Z</time>
      </trkpt>
      <trkpt lat="42.610223" lon="2.407946">
        <ele>391.458247</ele>
        <time>2019-08-22T14:46:13.331Z</time>
      </trkpt>
      <trkpt lat="42.610307" lon="2.408096">
        <ele>391.151025</ele>
        <time>2019-08-22T14:46:14.621Z</time>
      </trkpt>
      <trkpt lat="42.610506" lon="2.408434">
        <ele>389.862315</ele>
        <time>2019-08-22T14:46:17.897Z</time>
      </trkpt>
      <trkpt lat="42.610581" lon="2.408590">
        <ele>389.307539</ele>
        <time>2019-08-22T14:46:19.283Z</time>
      </trkpt>
      <trkpt lat="42.610673" lon="2.408741">
        <ele>388.723905</ele>
        <time>2019-08-22T14:46:20.771Z</time>
      </trkpt>
      <trkpt lat="42.610758" lon="2.408842">
        <ele>388.267109</ele>
        <time>2019-08-22T14:46:21.774Z</time>
      </trkpt>
      <trkpt lat="42.610727" lon="2.408907">
        <ele>388.036505</ele>
        <time>2019-08-22T14:46:22.412Z</time>
      </trkpt>
      <trkpt lat="42.610752" lon="2.409060">
        <ele>387.569888</ele>
        <time>2019-08-22T14:46:23.580Z</time>
      </trkpt>
      <trkpt lat="42.610760" lon="2.409131">
        <ele>387.356038</ele>
        <time>2019-08-22T14:46:24.131Z</time>
      </trkpt>
      <trkpt lat="42.610817" lon="2.409635">
        <ele>385.837873</ele>
        <time>2019-08-22T14:46:27.695Z</time>
      </trkpt>
      <trkpt lat="42.610830" lon="2.409757">
        <ele>385.470857</ele>
        <time>2019-08-22T14:46:28.494Z</time>
      </trkpt>
      <trkpt lat="42.610862" lon="2.410073">
        <ele>384.521172</ele>
        <time>2019-08-22T14:46:30.782Z</time>
      </trkpt>
      <trkpt lat="42.610887" lon="2.410616">
        <ele>382.604718</ele>
        <time>2019-08-22T14:46:34.490Z</time>
      </trkpt>
      <trkpt lat="42.610890" lon="2.410731">
        <ele>382.179792</ele>
        <time>2019-08-22T14:46:35.249Z</time>
      </trkpt>
      <trkpt lat="42.610890" lon="2.410827">
        <ele>381.825294</ele>
        <time>2019-08-22T14:46:35.978Z</time>
      </trkpt>
      <trkpt lat="42.610891" lon="2.411410">
        <ele>379.672450</ele>
        <time>2019-08-22T14:46:39.982Z</time>
      </trkpt>
      <trkpt lat="42.610879" lon="2.411714">
        <ele>378.548259</ele>
        <time>2019-08-22T14:46:42.046Z</time>
      </trkpt>
      <trkpt lat="42.610891" lon="2.411802">
        <ele>378.217771</ele>
        <time>2019-08-22T14:46:42.695Z</time>
      </trkpt>
      <trkpt lat="42.610903" lon="2.411867">
        <ele>377.970310</ele>
        <time>2019-08-22T14:46:43.165Z</time>
      </trkpt>
      <trkpt lat="42.610961" lon="2.411999">
        <ele>377.402612</ele>
        <time>2019-08-22T14:46:44.265Z</time>
      </trkpt>
      <trkpt lat="42.610997" lon="2.412078">
        <ele>377.059496</ele>
        <time>2019-08-22T14:46:44.861Z</time>
      </trkpt>
      <trkpt lat="42.611277" lon="2.412912">
        <ele>374.644370</ele>
        <time>2019-08-22T14:46:51.501Z</time>
      </trkpt>
      <trkpt lat="42.611214" lon="2.413542">
        <ele>373.881504</ele>
        <time>2019-08-22T14:46:56.282Z</time>
      </trkpt>
      <trkpt lat="42.611278" lon="2.413913">
        <ele>373.424287</ele>
        <time>2019-08-22T14:46:59.262Z</time>
      </trkpt>
      <trkpt lat="42.611226" lon="2.414105">
        <ele>373.178807</ele>
        <time>2019-08-22T14:47:01.009Z</time>
      </trkpt>
      <trkpt lat="42.611119" lon="2.414226">
        <ele>372.951849</ele>
        <time>2019-08-22T14:47:02.742Z</time>
      </trkpt>
      <trkpt lat="42.610953" lon="2.414244">
        <ele>372.680352</ele>
        <time>2019-08-22T14:47:05.693Z</time>
      </trkpt>
      <trkpt lat="42.610849" lon="2.414213">
        <ele>372.506764</ele>
        <time>2019-08-22T14:47:07.306Z</time>
      </trkpt>
      <trkpt lat="42.610592" lon="2.414066">
        <ele>372.512937</ele>
        <time>2019-08-22T14:47:13.683Z</time>
      </trkpt>
      <trkpt lat="42.610465" lon="2.414074">
        <ele>373.059792</ele>
        <time>2019-08-22T14:47:15.807Z</time>
      </trkpt>
      <trkpt lat="42.610423" lon="2.414116">
        <ele>373.284100</ele>
        <time>2019-08-22T14:47:17.153Z</time>
      </trkpt>
      <trkpt lat="42.610385" lon="2.414153">
        <ele>373.485186</ele>
        <time>2019-08-22T14:47:18.294Z</time>
      </trkpt>
      <trkpt lat="42.610261" lon="2.414378">
        <ele>374.375024</ele>
        <time>2019-08-22T14:47:23.577Z</time>
      </trkpt>
      <trkpt lat="42.610246" lon="2.414547">
        <ele>374.913899</ele>
        <time>2019-08-22T14:47:27.207Z</time>
      </trkpt>
      <trkpt lat="42.610278" lon="2.414671">
        <ele>375.329874</ele>
        <time>2019-08-22T14:47:30.215Z</time>
      </trkpt>
      <trkpt lat="42.610577" lon="2.414876">
        <ele>376.770427</ele>
        <time>2019-08-22T14:47:40.752Z</time>
      </trkpt>
      <trkpt lat="42.610592" lon="2.414959">
        <ele>377.040982</ele>
        <time>2019-08-22T14:47:43.480Z</time>
      </trkpt>
      <trkpt lat="42.610596" lon="2.415043">
        <ele>377.307452</ele>
        <time>2019-08-22T14:47:45.369Z</time>
      </trkpt>
      <trkpt lat="42.610617" lon="2.415215">
        <ele>377.859386</ele>
        <time>2019-08-22T14:47:50.275Z</time>
      </trkpt>
      <trkpt lat="42.610658" lon="2.415461">
        <ele>378.657855</ele>
        <time>2019-08-22T14:47:58.365Z</time>
      </trkpt>
      <trkpt lat="42.610691" lon="2.416016">
        <ele>380.419960</ele>
        <time>2019-08-22T14:48:16.071Z</time>
      </trkpt>
      <trkpt lat="42.610677" lon="2.416206">
        <ele>381.023777</ele>
        <time>2019-08-22T14:48:21.850Z</time>
      </trkpt>
      <trkpt lat="42.610429" lon="2.416196">
        <ele>382.089804</ele>
        <time>2019-08-22T14:48:33.462Z</time>
      </trkpt>
      <trkpt lat="42.610382" lon="2.416203">
        <ele>382.292954</ele>
        <time>2019-08-22T14:48:35.790Z</time>
      </trkpt>
      <trkpt lat="42.610337" lon="2.416216">
        <ele>382.490623</ele>
        <time>2019-08-22T14:48:37.840Z</time>
      </trkpt>
      <trkpt lat="42.610291" lon="2.416345">
        <ele>382.943905</ele>
        <time>2019-08-22T14:48:41.942Z</time>
      </trkpt>
      <trkpt lat="42.610289" lon="2.416386">
        <ele>383.073839</ele>
        <time>2019-08-22T14:48:43.648Z</time>
      </trkpt>
      <trkpt lat="42.610276" lon="2.416399">
        <ele>383.143192</ele>
        <time>2019-08-22T14:48:44.485Z</time>
      </trkpt>
      <trkpt lat="42.610235" lon="2.416421">
        <ele>383.332592</ele>
        <time>2019-08-22T14:48:46.530Z</time>
      </trkpt>
      <trkpt lat="42.610157" lon="2.416463">
        <ele>383.693084</ele>
        <time>2019-08-22T14:48:50.007Z</time>
      </trkpt>
      <trkpt lat="42.610425" lon="2.417274">
        <ele>386.504275</ele>
        <time>2019-08-22T14:49:12.565Z</time>
      </trkpt>
      <trkpt lat="42.610554" lon="2.417407">
        <ele>387.200038</ele>
        <time>2019-08-22T14:49:16.642Z</time>
      </trkpt>
      <trkpt lat="42.610630" lon="2.417484">
        <ele>387.607366</ele>
        <time>2019-08-22T14:49:17.968Z</time>
      </trkpt>
      <trkpt lat="42.610801" lon="2.417667">
        <ele>387.139545</ele>
        <time>2019-08-22T14:49:21.834Z</time>
      </trkpt>
      <trkpt lat="42.611088" lon="2.417985">
        <ele>386.247961</ele>
        <time>2019-08-22T14:49:26.335Z</time>
      </trkpt>
      <trkpt lat="42.611146" lon="2.418057">
        <ele>386.058820</ele>
        <time>2019-08-22T14:49:27.157Z</time>
      </trkpt>
      <trkpt lat="42.611222" lon="2.418111">
        <ele>385.852339</ele>
        <time>2019-08-22T14:49:28.037Z</time>
      </trkpt>
      <trkpt lat="42.611439" lon="2.418249">
        <ele>385.275509</ele>
        <time>2019-08-22T14:49:30.536Z</time>
      </trkpt>
      <trkpt lat="42.611649" lon="2.418412">
        <ele>384.693245</ele>
        <time>2019-08-22T14:49:32.922Z</time>
      </trkpt>
      <trkpt lat="42.611903" lon="2.418602">
        <ele>383.995183</ele>
        <time>2019-08-22T14:49:35.670Z</time>
      </trkpt>
      <trkpt lat="42.612341" lon="2.418938">
        <ele>382.435715</ele>
        <time>2019-08-22T14:49:40.470Z</time>
      </trkpt>
      <trkpt lat="42.612568" lon="2.419099">
        <ele>381.412965</ele>
        <time>2019-08-22T14:49:42.893Z</time>
      </trkpt>
      <trkpt lat="42.612603" lon="2.419163">
        <ele>381.178585</ele>
        <time>2019-08-22T14:49:43.463Z</time>
      </trkpt>
      <trkpt lat="42.612611" lon="2.419209">
        <ele>381.039645</ele>
        <time>2019-08-22T14:49:43.790Z</time>
      </trkpt>
      <trkpt lat="42.612610" lon="2.419263">
        <ele>380.880864</ele>
        <time>2019-08-22T14:49:44.167Z</time>
      </trkpt>
      <trkpt lat="42.612569" lon="2.419370">
        <ele>380.526262</ele>
        <time>2019-08-22T14:49:45.028Z</time>
      </trkpt>
      <trkpt lat="42.612549" lon="2.419479">
        <ele>380.196051</ele>
        <time>2019-08-22T14:49:45.825Z</time>
      </trkpt>
      <trkpt lat="42.612545" lon="2.419608">
        <ele>379.816523</ele>
        <time>2019-08-22T14:49:46.755Z</time>
      </trkpt>
      <trkpt lat="42.612592" lon="2.419710">
        <ele>379.462777</ele>
        <time>2019-08-22T14:49:47.595Z</time>
      </trkpt>
      <trkpt lat="42.612695" lon="2.419896">
        <ele>378.778546</ele>
        <time>2019-08-22T14:49:49.264Z</time>
      </trkpt>
      <trkpt lat="42.612984" lon="2.420433">
        <ele>376.823028</ele>
        <time>2019-08-22T14:49:54.155Z</time>
      </trkpt>
      <trkpt lat="42.613135" lon="2.420731">
        <ele>375.843905</ele>
        <time>2019-08-22T14:49:56.903Z</time>
      </trkpt>
      <trkpt lat="42.613372" lon="2.421218">
        <ele>374.519610</ele>
        <time>2019-08-22T14:50:01.457Z</time>
      </trkpt>
      <trkpt lat="42.613659" lon="2.421846">
        <ele>372.842867</ele>
        <time>2019-08-22T14:50:07.084Z</time>
      </trkpt>
      <trkpt lat="42.613795" lon="2.422142">
        <ele>372.051374</ele>
        <time>2019-08-22T14:50:09.713Z</time>
      </trkpt>
      <trkpt lat="42.613877" lon="2.422325">
        <ele>371.565406</ele>
        <time>2019-08-22T14:50:11.267Z</time>
      </trkpt>
      <trkpt lat="42.614020" lon="2.422632">
        <ele>370.741310</ele>
        <time>2019-08-22T14:50:13.923Z</time>
      </trkpt>
      <trkpt lat="42.614085" lon="2.422781">
        <ele>370.401838</ele>
        <time>2019-08-22T14:50:15.184Z</time>
      </trkpt>
      <trkpt lat="42.614235" lon="2.423108">
        <ele>369.724735</ele>
        <time>2019-08-22T14:50:18.024Z</time>
      </trkpt>
      <trkpt lat="42.614450" lon="2.423596">
        <ele>368.725282</ele>
        <time>2019-08-22T14:50:22.395Z</time>
      </trkpt>
      <trkpt lat="42.614551" lon="2.423826">
        <ele>368.254635</ele>
        <time>2019-08-22T14:50:24.626Z</time>
      </trkpt>
      <trkpt lat="42.614581" lon="2.423900">
        <ele>368.106175</ele>
        <time>2019-08-22T14:50:25.279Z</time>
      </trkpt>
      <trkpt lat="42.614628" lon="2.424023">
        <ele>367.862638</ele>
        <time>2019-08-22T14:50:26.415Z</time>
      </trkpt>
      <trkpt lat="42.614652" lon="2.424084">
        <ele>367.741090</ele>
        <time>2019-08-22T14:50:27.041Z</time>
      </trkpt>
      <trkpt lat="42.614732" lon="2.424350">
        <ele>367.236143</ele>
        <time>2019-08-22T14:50:29.408Z</time>
      </trkpt>
      <trkpt lat="42.614832" lon="2.424722">
        <ele>366.540212</ele>
        <time>2019-08-22T14:50:32.727Z</time>
      </trkpt>
      <trkpt lat="42.614934" lon="2.425123">
        <ele>365.936288</ele>
        <time>2019-08-22T14:50:36.270Z</time>
      </trkpt>
      <trkpt lat="42.615006" lon="2.425378">
        <ele>365.593365</ele>
        <time>2019-08-22T14:50:38.400Z</time>
      </trkpt>
      <trkpt lat="42.615023" lon="2.425441">
        <ele>365.509116</ele>
        <time>2019-08-22T14:50:38.967Z</time>
      </trkpt>
      <trkpt lat="42.615069" lon="2.425640">
        <ele>365.247225</ele>
        <time>2019-08-22T14:50:40.807Z</time>
      </trkpt>
      <trkpt lat="42.615100" lon="2.425893">
        <ele>364.925198</ele>
        <time>2019-08-22T14:50:42.811Z</time>
      </trkpt>
      <trkpt lat="42.615119" lon="2.425973">
        <ele>364.819653</ele>
        <time>2019-08-22T14:50:43.656Z</time>
      </trkpt>
      <trkpt lat="42.615231" lon="2.425902">
        <ele>364.608799</ele>
        <time>2019-08-22T14:50:45.021Z</time>
      </trkpt>
      <trkpt lat="42.615345" lon="2.425803">
        <ele>364.377977</ele>
        <time>2019-08-22T14:50:46.541Z</time>
      </trkpt>
      <trkpt lat="42.615389" lon="2.425769">
        <ele>364.291620</ele>
        <time>2019-08-22T14:50:47.113Z</time>
      </trkpt>
      <trkpt lat="42.615451" lon="2.425790">
        <ele>364.182605</ele>
        <time>2019-08-22T14:50:48.018Z</time>
      </trkpt>
      <trkpt lat="42.615531" lon="2.425866">
        <ele>364.016070</ele>
        <time>2019-08-22T14:50:49.136Z</time>
      </trkpt>
      <trkpt lat="42.615571" lon="2.425925">
        <ele>363.915349</ele>
        <time>2019-08-22T14:50:49.804Z</time>
      </trkpt>
      <trkpt lat="42.615746" lon="2.426165">
        <ele>363.491154</ele>
        <time>2019-08-22T14:50:52.813Z</time>
      </trkpt>
      <trkpt lat="42.615858" lon="2.426313">
        <ele>363.224617</ele>
        <time>2019-08-22T14:50:54.527Z</time>
      </trkpt>
      <trkpt lat="42.616130" lon="2.426699">
        <ele>362.537545</ele>
        <time>2019-08-22T14:50:58.873Z</time>
      </trkpt>
      <trkpt lat="42.616218" lon="2.426834">
        <ele>362.305667</ele>
        <time>2019-08-22T14:51:00.391Z</time>
      </trkpt>
      <trkpt lat="42.616320" lon="2.426958">
        <ele>362.066550</ele>
        <time>2019-08-22T14:51:01.850Z</time>
      </trkpt>
      <trkpt lat="42.616612" lon="2.427389">
        <ele>361.313318</ele>
        <time>2019-08-22T14:51:06.621Z</time>
      </trkpt>
      <trkpt lat="42.617109" lon="2.428106">
        <ele>360.048605</ele>
        <time>2019-08-22T14:51:14.886Z</time>
      </trkpt>
      <trkpt lat="42.617295" lon="2.428398">
        <ele>359.578161</ele>
        <time>2019-08-22T14:51:18.134Z</time>
      </trkpt>
      <trkpt lat="42.617573" lon="2.428780">
        <ele>358.923718</ele>
        <time>2019-08-22T14:51:22.739Z</time>
      </trkpt>
      <trkpt lat="42.617809" lon="2.429118">
        <ele>358.356150</ele>
        <time>2019-08-22T14:51:26.763Z</time>
      </trkpt>
      <trkpt lat="42.618053" lon="2.429387">
        <ele>357.836048</ele>
        <time>2019-08-22T14:51:30.353Z</time>
      </trkpt>
      <trkpt lat="42.618118" lon="2.429419">
        <ele>357.721608</ele>
        <time>2019-08-22T14:51:31.080Z</time>
      </trkpt>
      <trkpt lat="42.618337" lon="2.429249">
        <ele>357.304116</ele>
        <time>2019-08-22T14:51:33.971Z</time>
      </trkpt>
      <trkpt lat="42.618370" lon="2.429223">
        <ele>357.240973</ele>
        <time>2019-08-22T14:51:34.386Z</time>
      </trkpt>
      <trkpt lat="42.618537" lon="2.429444">
        <ele>356.694989</ele>
        <time>2019-08-22T14:51:36.873Z</time>
      </trkpt>
      <trkpt lat="42.618859" lon="2.429895">
        <ele>355.433567</ele>
        <time>2019-08-22T14:51:41.817Z</time>
      </trkpt>
      <trkpt lat="42.618989" lon="2.430075">
        <ele>354.927288</ele>
        <time>2019-08-22T14:51:43.698Z</time>
      </trkpt>
      <trkpt lat="42.619216" lon="2.430403">
        <ele>354.023426</ele>
        <time>2019-08-22T14:51:47.130Z</time>
      </trkpt>
      <trkpt lat="42.619545" lon="2.430860">
        <ele>352.740060</ele>
        <time>2019-08-22T14:51:51.950Z</time>
      </trkpt>
      <trkpt lat="42.619826" lon="2.431264">
        <ele>351.676435</ele>
        <time>2019-08-22T14:51:56.142Z</time>
      </trkpt>
      <trkpt lat="42.619967" lon="2.431512">
        <ele>351.104881</ele>
        <time>2019-08-22T14:51:58.455Z</time>
      </trkpt>
      <trkpt lat="42.620082" lon="2.431813">
        <ele>350.486361</ele>
        <time>2019-08-22T14:52:01.003Z</time>
      </trkpt>
      <trkpt lat="42.620268" lon="2.432356">
        <ele>349.394049</ele>
        <time>2019-08-22T14:52:05.674Z</time>
      </trkpt>
      <trkpt lat="42.620310" lon="2.432474">
        <ele>349.154999</ele>
        <time>2019-08-22T14:52:06.750Z</time>
      </trkpt>
      <trkpt lat="42.620340" lon="2.432566">
        <ele>348.971481</ele>
        <time>2019-08-22T14:52:07.544Z</time>
      </trkpt>
      <trkpt lat="42.620478" lon="2.432988">
        <ele>348.129303</ele>
        <time>2019-08-22T14:52:11.341Z</time>
      </trkpt>
      <trkpt lat="42.620561" lon="2.433246">
        <ele>347.671789</ele>
        <time>2019-08-22T14:52:13.669Z</time>
      </trkpt>
      <trkpt lat="42.620687" lon="2.433616">
        <ele>347.268828</ele>
        <time>2019-08-22T14:52:17.042Z</time>
      </trkpt>
      <trkpt lat="42.620710" lon="2.433689">
        <ele>347.190341</ele>
        <time>2019-08-22T14:52:17.707Z</time>
      </trkpt>
      <trkpt lat="42.621015" lon="2.434593">
        <ele>346.207412</ele>
        <time>2019-08-22T14:52:26.089Z</time>
      </trkpt>
      <trkpt lat="42.621077" lon="2.434771">
        <ele>346.012768</ele>
        <time>2019-08-22T14:52:27.843Z</time>
      </trkpt>
      <trkpt lat="42.621162" lon="2.435018">
        <ele>345.743263</ele>
        <time>2019-08-22T14:52:30.293Z</time>
      </trkpt>
      <trkpt lat="42.621391" lon="2.435778">
        <ele>345.051466</ele>
        <time>2019-08-22T14:52:38.187Z</time>
      </trkpt>
      <trkpt lat="42.621469" lon="2.436001">
        <ele>344.882337</ele>
        <time>2019-08-22T14:52:40.574Z</time>
      </trkpt>
      <trkpt lat="42.621512" lon="2.436126">
        <ele>344.787820</ele>
        <time>2019-08-22T14:52:41.814Z</time>
      </trkpt>
      <trkpt lat="42.621582" lon="2.436327">
        <ele>344.635499</ele>
        <time>2019-08-22T14:52:43.856Z</time>
      </trkpt>
      <trkpt lat="42.621730" lon="2.436678">
        <ele>344.358397</ele>
        <time>2019-08-22T14:52:47.395Z</time>
      </trkpt>
      <trkpt lat="42.621910" lon="2.437200">
        <ele>343.963527</ele>
        <time>2019-08-22T14:52:52.464Z</time>
      </trkpt>
      <trkpt lat="42.622119" lon="2.437805">
        <ele>343.479692</ele>
        <time>2019-08-22T14:52:58.640Z</time>
      </trkpt>
      <trkpt lat="42.622203" lon="2.438066">
        <ele>343.248826</ele>
        <time>2019-08-22T14:53:01.329Z</time>
      </trkpt>
      <trkpt lat="42.622361" lon="2.438524">
        <ele>342.838890</ele>
        <time>2019-08-22T14:53:05.997Z</time>
      </trkpt>
      <trkpt lat="42.622386" lon="2.438597">
        <ele>342.773636</ele>
        <time>2019-08-22T14:53:06.779Z</time>
      </trkpt>
      <trkpt lat="42.622407" lon="2.438663">
        <ele>342.715363</ele>
        <time>2019-08-22T14:53:07.373Z</time>
      </trkpt>
      <trkpt lat="42.622439" lon="2.438786">
        <ele>342.609635</ele>
        <time>2019-08-22T14:53:08.562Z</time>
      </trkpt>
      <trkpt lat="42.622446" lon="2.438827">
        <ele>342.575525</ele>
        <time>2019-08-22T14:53:08.943Z</time>
      </trkpt>
      <trkpt lat="42.622461" lon="2.438880">
        <ele>342.529506</ele>
        <time>2019-08-22T14:53:09.434Z</time>
      </trkpt>
      <trkpt lat="42.622454" lon="2.438979">
        <ele>342.448906</ele>
        <time>2019-08-22T14:53:10.313Z</time>
      </trkpt>
      <trkpt lat="42.622472" lon="2.439058">
        <ele>342.381884</ele>
        <time>2019-08-22T14:53:11.079Z</time>
      </trkpt>
      <trkpt lat="42.622510" lon="2.439124">
        <ele>342.313969</ele>
        <time>2019-08-22T14:53:11.757Z</time>
      </trkpt>
      <trkpt lat="42.622531" lon="2.439147">
        <ele>342.284265</ele>
        <time>2019-08-22T14:53:12.085Z</time>
      </trkpt>
      <trkpt lat="42.622602" lon="2.439231">
        <ele>342.180589</ele>
        <time>2019-08-22T14:53:13.200Z</time>
      </trkpt>
      <trkpt lat="42.622660" lon="2.439378">
        <ele>342.045413</ele>
        <time>2019-08-22T14:53:14.621Z</time>
      </trkpt>
      <trkpt lat="42.622710" lon="2.439541">
        <ele>341.902297</ele>
        <time>2019-08-22T14:53:16.139Z</time>
      </trkpt>
      <trkpt lat="42.622813" lon="2.439858">
        <ele>341.611186</ele>
        <time>2019-08-22T14:53:19.124Z</time>
      </trkpt>
      <trkpt lat="42.623242" lon="2.441108">
        <ele>340.240551</ele>
        <time>2019-08-22T14:53:31.188Z</time>
      </trkpt>
      <trkpt lat="42.623758" lon="2.442595">
        <ele>338.442841</ele>
        <time>2019-08-22T14:53:45.204Z</time>
      </trkpt>
      <trkpt lat="42.624302" lon="2.444220">
        <ele>336.207815</ele>
        <time>2019-08-22T14:53:59.990Z</time>
      </trkpt>
      <trkpt lat="42.624448" lon="2.444637">
        <ele>335.475492</ele>
        <time>2019-08-22T14:54:03.706Z</time>
      </trkpt>
      <trkpt lat="42.624648" lon="2.445368">
        <ele>334.224378</ele>
        <time>2019-08-22T14:54:09.878Z</time>
      </trkpt>
      <trkpt lat="42.624796" lon="2.445790">
        <ele>333.474442</ele>
        <time>2019-08-22T14:54:13.604Z</time>
      </trkpt>
      <trkpt lat="42.624975" lon="2.446303">
        <ele>332.563647</ele>
        <time>2019-08-22T14:54:18.142Z</time>
      </trkpt>
      <trkpt lat="42.625168" lon="2.446811">
        <ele>331.643927</ele>
        <time>2019-08-22T14:54:22.652Z</time>
      </trkpt>
      <trkpt lat="42.625285" lon="2.447165">
        <ele>331.018761</ele>
        <time>2019-08-22T14:54:25.715Z</time>
      </trkpt>
      <trkpt lat="42.625329" lon="2.447298">
        <ele>330.783844</ele>
        <time>2019-08-22T14:54:26.906Z</time>
      </trkpt>
      <trkpt lat="42.625505" lon="2.447837">
        <ele>329.833883</ele>
        <time>2019-08-22T14:54:31.706Z</time>
      </trkpt>
      <trkpt lat="42.625734" lon="2.448417">
        <ele>328.773517</ele>
        <time>2019-08-22T14:54:37.110Z</time>
      </trkpt>
      <trkpt lat="42.626124" lon="2.449026">
        <ele>327.398636</ele>
        <time>2019-08-22T14:54:43.337Z</time>
      </trkpt>
      <trkpt lat="42.626908" lon="2.449759">
        <ele>325.132153</ele>
        <time>2019-08-22T14:54:53.135Z</time>
      </trkpt>
      <trkpt lat="42.626996" lon="2.449842">
        <ele>324.877031</ele>
        <time>2019-08-22T14:54:54.234Z</time>
      </trkpt>
      <trkpt lat="42.627250" lon="2.450186">
        <ele>324.031677</ele>
        <time>2019-08-22T14:54:58.250Z</time>
      </trkpt>
      <trkpt lat="42.627418" lon="2.450456">
        <ele>323.887001</ele>
        <time>2019-08-22T14:55:01.469Z</time>
      </trkpt>
      <trkpt lat="42.627641" lon="2.450839">
        <ele>323.687168</ele>
        <time>2019-08-22T14:55:05.964Z</time>
      </trkpt>
      <trkpt lat="42.628325" lon="2.452021">
        <ele>323.071906</ele>
        <time>2019-08-22T14:55:21.113Z</time>
      </trkpt>
      <trkpt lat="42.628372" lon="2.452101">
        <ele>323.029309</ele>
        <time>2019-08-22T14:55:22.619Z</time>
      </trkpt>
      <trkpt lat="42.628650" lon="2.452545">
        <ele>322.749633</ele>
        <time>2019-08-22T14:55:30.133Z</time>
      </trkpt>
      <trkpt lat="42.628994" lon="2.453090">
        <ele>322.405169</ele>
        <time>2019-08-22T14:55:38.168Z</time>
      </trkpt>
      <trkpt lat="42.629830" lon="2.454586">
        <ele>320.949924</ele>
        <time>2019-08-22T14:55:53.970Z</time>
      </trkpt>
      <trkpt lat="42.630399" lon="2.455648">
        <ele>319.342805</ele>
        <time>2019-08-22T14:56:04.679Z</time>
      </trkpt>
      <trkpt lat="42.630540" lon="2.455910">
        <ele>318.945710</ele>
        <time>2019-08-22T14:56:07.409Z</time>
      </trkpt>
      <trkpt lat="42.630855" lon="2.456571">
        <ele>318.339075</ele>
        <time>2019-08-22T14:56:14.309Z</time>
      </trkpt>
      <trkpt lat="42.630927" lon="2.456662">
        <ele>318.241238</ele>
        <time>2019-08-22T14:56:15.476Z</time>
      </trkpt>
      <trkpt lat="42.631127" lon="2.457073">
        <ele>317.880474</ele>
        <time>2019-08-22T14:56:20.099Z</time>
      </trkpt>
      <trkpt lat="42.631135" lon="2.457175">
        <ele>317.805374</ele>
        <time>2019-08-22T14:56:21.077Z</time>
      </trkpt>
      <trkpt lat="42.631169" lon="2.457363">
        <ele>317.663638</ele>
        <time>2019-08-22T14:56:22.903Z</time>
      </trkpt>
      <trkpt lat="42.631361" lon="2.457838">
        <ele>317.266853</ele>
        <time>2019-08-22T14:56:27.882Z</time>
      </trkpt>
      <trkpt lat="42.631390" lon="2.457911">
        <ele>317.206115</ele>
        <time>2019-08-22T14:56:28.633Z</time>
      </trkpt>
      <trkpt lat="42.631413" lon="2.457884">
        <ele>317.175873</ele>
        <time>2019-08-22T14:56:28.964Z</time>
      </trkpt>
      <trkpt lat="42.631773" lon="2.458784">
        <ele>316.334301</ele>
        <time>2019-08-22T14:56:38.697Z</time>
      </trkpt>
      <trkpt lat="42.632121" lon="2.459619">
        <ele>315.533509</ele>
        <time>2019-08-22T14:56:47.195Z</time>
      </trkpt>
      <trkpt lat="42.632240" lon="2.459942">
        <ele>315.232077</ele>
        <time>2019-08-22T14:56:50.266Z</time>
      </trkpt>
      <trkpt lat="42.632868" lon="2.461665">
        <ele>312.820880</ele>
        <time>2019-08-22T14:57:06.152Z</time>
      </trkpt>
      <trkpt lat="42.633062" lon="2.462190">
        <ele>312.050861</ele>
        <time>2019-08-22T14:57:10.939Z</time>
      </trkpt>
      <trkpt lat="42.633235" lon="2.462665">
        <ele>311.323394</ele>
        <time>2019-08-22T14:57:15.292Z</time>
      </trkpt>
      <trkpt lat="42.634198" lon="2.465261">
        <ele>306.633559</ele>
        <time>2019-08-22T14:57:39.004Z</time>
      </trkpt>
      <trkpt lat="42.634377" lon="2.465741">
        <ele>305.478175</ele>
        <time>2019-08-22T14:57:43.081Z</time>
      </trkpt>
      <trkpt lat="42.634529" lon="2.466058">
        <ele>304.665790</ele>
        <time>2019-08-22T14:57:45.879Z</time>
      </trkpt>
      <trkpt lat="42.634727" lon="2.466389">
        <ele>303.749875</ele>
        <time>2019-08-22T14:57:48.987Z</time>
      </trkpt>
      <trkpt lat="42.635058" lon="2.466937">
        <ele>301.881439</ele>
        <time>2019-08-22T14:57:54.130Z</time>
      </trkpt>
      <trkpt lat="42.635623" lon="2.467855">
        <ele>298.362645</ele>
        <time>2019-08-22T14:58:02.730Z</time>
      </trkpt>
      <trkpt lat="42.636042" lon="2.468531">
        <ele>295.752564</ele>
        <time>2019-08-22T14:58:09.081Z</time>
      </trkpt>
      <trkpt lat="42.636506" lon="2.469314">
        <ele>292.639250</ele>
        <time>2019-08-22T14:58:16.260Z</time>
      </trkpt>
      <trkpt lat="42.636712" lon="2.469746">
        <ele>291.045138</ele>
        <time>2019-08-22T14:58:19.950Z</time>
      </trkpt>
      <trkpt lat="42.636855" lon="2.470106">
        <ele>289.778292</ele>
        <time>2019-08-22T14:58:22.855Z</time>
      </trkpt>
      <trkpt lat="42.637132" lon="2.470798">
        <ele>287.432423</ele>
        <time>2019-08-22T14:58:28.468Z</time>
      </trkpt>
      <trkpt lat="42.637622" lon="2.471985">
        <ele>283.587157</ele>
        <time>2019-08-22T14:58:38.176Z</time>
      </trkpt>
      <trkpt lat="42.638277" lon="2.473600">
        <ele>279.376957</ele>
        <time>2019-08-22T14:58:52.070Z</time>
      </trkpt>
      <trkpt lat="42.638494" lon="2.474124">
        <ele>278.222187</ele>
        <time>2019-08-22T14:58:56.804Z</time>
      </trkpt>
      <trkpt lat="42.638678" lon="2.474592">
        <ele>277.203147</ele>
        <time>2019-08-22T14:59:00.966Z</time>
      </trkpt>
      <trkpt lat="42.638956" lon="2.475273">
        <ele>276.203155</ele>
        <time>2019-08-22T14:59:07.292Z</time>
      </trkpt>
      <trkpt lat="42.639403" lon="2.476351">
        <ele>274.901169</ele>
        <time>2019-08-22T14:59:17.876Z</time>
      </trkpt>
      <trkpt lat="42.639535" lon="2.476670">
        <ele>274.516082</ele>
        <time>2019-08-22T14:59:21.213Z</time>
      </trkpt>
      <trkpt lat="42.639808" lon="2.477463">
        <ele>274.151714</ele>
        <time>2019-08-22T14:59:29.285Z</time>
      </trkpt>
      <trkpt lat="42.640073" lon="2.478115">
        <ele>274.053722</ele>
        <time>2019-08-22T14:59:36.882Z</time>
      </trkpt>
      <trkpt lat="42.640122" lon="2.478238">
        <ele>274.035321</ele>
        <time>2019-08-22T14:59:38.576Z</time>
      </trkpt>
      <trkpt lat="42.640364" lon="2.478787">
        <ele>273.951127</ele>
        <time>2019-08-22T14:59:46.584Z</time>
      </trkpt>
      <trkpt lat="42.640626" lon="2.479375">
        <ele>274.003174</ele>
        <time>2019-08-22T14:59:54.470Z</time>
      </trkpt>
      <trkpt lat="42.640953" lon="2.480186">
        <ele>274.235691</ele>
        <time>2019-08-22T15:00:05.051Z</time>
      </trkpt>
      <trkpt lat="42.641060" lon="2.480480">
        <ele>274.318158</ele>
        <time>2019-08-22T15:00:09.022Z</time>
      </trkpt>
      <trkpt lat="42.641137" lon="2.480737">
        <ele>274.387925</ele>
        <time>2019-08-22T15:00:12.083Z</time>
      </trkpt>
      <trkpt lat="42.641324" lon="2.481647">
        <ele>274.729906</ele>
        <time>2019-08-22T15:00:23.964Z</time>
      </trkpt>
      <trkpt lat="42.641589" lon="2.482344">
        <ele>275.130917</ele>
        <time>2019-08-22T15:00:35.407Z</time>
      </trkpt>
      <trkpt lat="42.641821" lon="2.483176">
        <ele>275.585683</ele>
        <time>2019-08-22T15:00:47.497Z</time>
      </trkpt>
      <trkpt lat="42.641886" lon="2.483426">
        <ele>275.721206</ele>
        <time>2019-08-22T15:00:51.109Z</time>
      </trkpt>
      <trkpt lat="42.641975" lon="2.483753">
        <ele>275.513355</ele>
        <time>2019-08-22T15:00:55.029Z</time>
      </trkpt>
      <trkpt lat="42.642071" lon="2.484098">
        <ele>275.121173</ele>
        <time>2019-08-22T15:00:58.391Z</time>
      </trkpt>
      <trkpt lat="42.642090" lon="2.484218">
        <ele>274.990663</ele>
        <time>2019-08-22T15:00:59.465Z</time>
      </trkpt>
      <trkpt lat="42.642243" lon="2.484768">
        <ele>274.365468</ele>
        <time>2019-08-22T15:01:04.397Z</time>
      </trkpt>
      <trkpt lat="42.642277" lon="2.484913">
        <ele>274.203657</ele>
        <time>2019-08-22T15:01:05.594Z</time>
      </trkpt>
      <trkpt lat="42.642308" lon="2.485033">
        <ele>274.068430</ele>
        <time>2019-08-22T15:01:06.575Z</time>
      </trkpt>
      <trkpt lat="42.642379" lon="2.485304">
        <ele>273.762566</ele>
        <time>2019-08-22T15:01:08.953Z</time>
      </trkpt>
      <trkpt lat="42.642444" lon="2.485528">
        <ele>273.506542</ele>
        <time>2019-08-22T15:01:10.814Z</time>
      </trkpt>
      <trkpt lat="42.642515" lon="2.485796">
        <ele>273.203681</ele>
        <time>2019-08-22T15:01:13.092Z</time>
      </trkpt>
      <trkpt lat="42.642589" lon="2.486075">
        <ele>272.861518</ele>
        <time>2019-08-22T15:01:15.371Z</time>
      </trkpt>
      <trkpt lat="42.642690" lon="2.486471">
        <ele>272.374084</ele>
        <time>2019-08-22T15:01:18.650Z</time>
      </trkpt>
      <trkpt lat="42.642730" lon="2.486619">
        <ele>272.190714</ele>
        <time>2019-08-22T15:01:19.948Z</time>
      </trkpt>
      <trkpt lat="42.642807" lon="2.486926">
        <ele>271.813499</ele>
        <time>2019-08-22T15:01:22.517Z</time>
      </trkpt>
      <trkpt lat="42.642991" lon="2.487607">
        <ele>270.969784</ele>
        <time>2019-08-22T15:01:28.483Z</time>
      </trkpt>
      <trkpt lat="42.643029" lon="2.487747">
        <ele>270.796238</ele>
        <time>2019-08-22T15:01:29.901Z</time>
      </trkpt>
      <trkpt lat="42.643103" lon="2.488029">
        <ele>270.448039</ele>
        <time>2019-08-22T15:01:32.718Z</time>
      </trkpt>
      <trkpt lat="42.643342" lon="2.488900">
        <ele>270.498160</ele>
        <time>2019-08-22T15:01:44.259Z</time>
      </trkpt>
      <trkpt lat="42.643485" lon="2.489447">
        <ele>270.615479</ele>
        <time>2019-08-22T15:01:52.468Z</time>
      </trkpt>
      <trkpt lat="42.643685" lon="2.490231">
        <ele>270.783178</ele>
        <time>2019-08-22T15:02:03.021Z</time>
      </trkpt>
      <trkpt lat="42.643829" lon="2.490806">
        <ele>270.285334</ele>
        <time>2019-08-22T15:02:08.969Z</time>
      </trkpt>
      <trkpt lat="42.643924" lon="2.491350">
        <ele>269.533584</ele>
        <time>2019-08-22T15:02:13.925Z</time>
      </trkpt>
      <trkpt lat="42.643932" lon="2.491554">
        <ele>269.258912</ele>
        <time>2019-08-22T15:02:15.729Z</time>
      </trkpt>
      <trkpt lat="42.644032" lon="2.494146">
        <ele>264.470408</ele>
        <time>2019-08-22T15:02:35.426Z</time>
      </trkpt>
      <trkpt lat="42.644069" lon="2.495304">
        <ele>261.776912</ele>
        <time>2019-08-22T15:02:43.903Z</time>
      </trkpt>
      <trkpt lat="42.644157" lon="2.497412">
        <ele>257.557393</ele>
        <time>2019-08-22T15:03:00.013Z</time>
      </trkpt>
      <trkpt lat="42.644194" lon="2.498687">
        <ele>256.158346</ele>
        <time>2019-08-22T15:03:10.768Z</time>
      </trkpt>
      <trkpt lat="42.644225" lon="2.499620">
        <ele>255.398859</ele>
        <time>2019-08-22T15:03:19.173Z</time>
      </trkpt>
      <trkpt lat="42.644228" lon="2.499707">
        <ele>255.328033</ele>
        <time>2019-08-22T15:03:19.997Z</time>
      </trkpt>
      <trkpt lat="42.644237" lon="2.499971">
        <ele>255.113119</ele>
        <time>2019-08-22T15:03:22.499Z</time>
      </trkpt>
      <trkpt lat="42.644246" lon="2.500225">
        <ele>255.011884</ele>
        <time>2019-08-22T15:03:25.009Z</time>
      </trkpt>
      <trkpt lat="42.644241" lon="2.500756">
        <ele>255.436251</ele>
        <time>2019-08-22T15:03:30.763Z</time>
      </trkpt>
      <trkpt lat="42.644251" lon="2.502053">
        <ele>256.472764</ele>
        <time>2019-08-22T15:03:49.645Z</time>
      </trkpt>
      <trkpt lat="42.644221" lon="2.502314">
        <ele>256.683865</ele>
        <time>2019-08-22T15:03:54.300Z</time>
      </trkpt>
      <trkpt lat="42.644190" lon="2.502434">
        <ele>256.785501</ele>
        <time>2019-08-22T15:03:56.457Z</time>
      </trkpt>
      <trkpt lat="42.644097" lon="2.502561">
        <ele>256.947346</ele>
        <time>2019-08-22T15:03:59.681Z</time>
      </trkpt>
      <trkpt lat="42.643848" lon="2.502744">
        <ele>257.634027</ele>
        <time>2019-08-22T15:04:06.519Z</time>
      </trkpt>
      <trkpt lat="42.643485" lon="2.502928">
        <ele>258.573869</ele>
        <time>2019-08-22T15:04:16.379Z</time>
      </trkpt>
      <trkpt lat="42.642823" lon="2.503257">
        <ele>260.283797</ele>
        <time>2019-08-22T15:04:34.766Z</time>
      </trkpt>
      <trkpt lat="42.642396" lon="2.503433">
        <ele>261.329398</ele>
        <time>2019-08-22T15:04:45.747Z</time>
      </trkpt>
      <trkpt lat="42.642221" lon="2.503570">
        <ele>261.617019</ele>
        <time>2019-08-22T15:04:50.013Z</time>
      </trkpt>
      <trkpt lat="42.642036" lon="2.503721">
        <ele>261.924352</ele>
        <time>2019-08-22T15:04:54.940Z</time>
      </trkpt>
      <trkpt lat="42.641912" lon="2.503785">
        <ele>262.113261</ele>
        <time>2019-08-22T15:04:57.161Z</time>
      </trkpt>
      <trkpt lat="42.641489" lon="2.503900">
        <ele>262.727655</ele>
        <time>2019-08-22T15:05:05.394Z</time>
      </trkpt>
      <trkpt lat="42.641133" lon="2.504091">
        <ele>263.272753</ele>
        <time>2019-08-22T15:05:12.921Z</time>
      </trkpt>
      <trkpt lat="42.640663" lon="2.504472">
        <ele>264.037458</ele>
        <time>2019-08-22T15:05:24.360Z</time>
      </trkpt>
      <trkpt lat="42.640460" lon="2.504533">
        <ele>264.313191</ele>
        <time>2019-08-22T15:05:27.959Z</time>
      </trkpt>
      <trkpt lat="42.640335" lon="2.504539">
        <ele>264.479078</ele>
        <time>2019-08-22T15:05:30.421Z</time>
      </trkpt>
      <trkpt lat="42.640259" lon="2.504516">
        <ele>264.582342</ele>
        <time>2019-08-22T15:05:31.930Z</time>
      </trkpt>
      <trkpt lat="42.639946" lon="2.504349">
        <ele>265.028295</ele>
        <time>2019-08-22T15:05:38.518Z</time>
      </trkpt>
      <trkpt lat="42.639898" lon="2.504321">
        <ele>265.097570</ele>
        <time>2019-08-22T15:05:39.510Z</time>
      </trkpt>
      <trkpt lat="42.639612" lon="2.504154">
        <ele>265.510397</ele>
        <time>2019-08-22T15:05:45.983Z</time>
      </trkpt>
      <trkpt lat="42.638657" lon="2.503840">
        <ele>266.627564</ele>
        <time>2019-08-22T15:06:06.383Z</time>
      </trkpt>
      <trkpt lat="42.638252" lon="2.503700">
        <ele>267.006909</ele>
        <time>2019-08-22T15:06:14.783Z</time>
      </trkpt>
      <trkpt lat="42.638207" lon="2.503682">
        <ele>267.049490</ele>
        <time>2019-08-22T15:06:15.633Z</time>
      </trkpt>
      <trkpt lat="42.637738" lon="2.503459">
        <ele>267.500524</ele>
        <time>2019-08-22T15:06:24.155Z</time>
      </trkpt>
      <trkpt lat="42.636973" lon="2.503223">
        <ele>267.858731</ele>
        <time>2019-08-22T15:06:36.792Z</time>
      </trkpt>
      <trkpt lat="42.636452" lon="2.502767">
        <ele>267.861496</ele>
        <time>2019-08-22T15:06:45.826Z</time>
      </trkpt>
      <trkpt lat="42.636224" lon="2.502505">
        <ele>267.862828</ele>
        <time>2019-08-22T15:06:50.194Z</time>
      </trkpt>
      <trkpt lat="42.636105" lon="2.502269">
        <ele>267.863767</ele>
        <time>2019-08-22T15:06:52.889Z</time>
      </trkpt>
      <trkpt lat="42.635870" lon="2.502072">
        <ele>267.864999</ele>
        <time>2019-08-22T15:06:56.799Z</time>
      </trkpt>
      <trkpt lat="42.635291" lon="2.502028">
        <ele>268.018388</ele>
        <time>2019-08-22T15:07:05.492Z</time>
      </trkpt>
      <trkpt lat="42.634925" lon="2.502145">
        <ele>268.118190</ele>
        <time>2019-08-22T15:07:11.285Z</time>
      </trkpt>
      <trkpt lat="42.634765" lon="2.502112">
        <ele>268.161147</ele>
        <time>2019-08-22T15:07:13.581Z</time>
      </trkpt>
      <trkpt lat="42.634698" lon="2.502085">
        <ele>268.179697</ele>
        <time>2019-08-22T15:07:14.730Z</time>
      </trkpt>
      <trkpt lat="42.634222" lon="2.501912">
        <ele>268.310486</ele>
        <time>2019-08-22T15:07:23.306Z</time>
      </trkpt>
      <trkpt lat="42.633766" lon="2.501478">
        <ele>268.769549</ele>
        <time>2019-08-22T15:07:33.102Z</time>
      </trkpt>
      <trkpt lat="42.632621" lon="2.500626">
        <ele>270.047452</ele>
        <time>2019-08-22T15:07:58.797Z</time>
      </trkpt>
      <trkpt lat="42.632452" lon="2.500422">
        <ele>270.212389</ele>
        <time>2019-08-22T15:08:02.659Z</time>
      </trkpt>
      <trkpt lat="42.632267" lon="2.500216">
        <ele>270.366797</ele>
        <time>2019-08-22T15:08:07.283Z</time>
      </trkpt>
      <trkpt lat="42.632147" lon="2.500162">
        <ele>270.448411</ele>
        <time>2019-08-22T15:08:09.117Z</time>
      </trkpt>
      <trkpt lat="42.631041" lon="2.500207">
        <ele>271.162814</ele>
        <time>2019-08-22T15:08:27.700Z</time>
      </trkpt>
      <trkpt lat="42.628727" lon="2.499428">
        <ele>273.481663</ele>
        <time>2019-08-22T15:09:10.833Z</time>
      </trkpt>
      <trkpt lat="42.627352" lon="2.499175">
        <ele>275.913901</ele>
        <time>2019-08-22T15:09:42.594Z</time>
      </trkpt>
      <trkpt lat="42.627037" lon="2.499213">
        <ele>276.631233</ele>
        <time>2019-08-22T15:09:50.436Z</time>
      </trkpt>
      <trkpt lat="42.626691" lon="2.499457">
        <ele>277.515436</ele>
        <time>2019-08-22T15:10:00.058Z</time>
      </trkpt>
      <trkpt lat="42.626271" lon="2.499899">
        <ele>278.720355</ele>
        <time>2019-08-22T15:10:12.549Z</time>
      </trkpt>
      <trkpt lat="42.626121" lon="2.500055">
        <ele>279.148793</ele>
        <time>2019-08-22T15:10:17.216Z</time>
      </trkpt>
      <trkpt lat="42.625221" lon="2.500793">
        <ele>281.683795</ele>
        <time>2019-08-22T15:10:41.764Z</time>
      </trkpt>
      <trkpt lat="42.624790" lon="2.501004">
        <ele>282.822247</ele>
        <time>2019-08-22T15:10:51.813Z</time>
      </trkpt>
      <trkpt lat="42.624623" lon="2.501023">
        <ele>283.238712</ele>
        <time>2019-08-22T15:10:55.791Z</time>
      </trkpt>
      <trkpt lat="42.624434" lon="2.501050">
        <ele>283.710985</ele>
        <time>2019-08-22T15:11:01.154Z</time>
      </trkpt>
      <trkpt lat="42.624363" lon="2.501111">
        <ele>283.919728</ele>
        <time>2019-08-22T15:11:03.490Z</time>
      </trkpt>
      <trkpt lat="42.624328" lon="2.501196">
        <ele>284.097838</ele>
        <time>2019-08-22T15:11:05.307Z</time>
      </trkpt>
      <trkpt lat="42.624292" lon="2.501636">
        <ele>285.260688</ele>
        <time>2019-08-22T15:11:14.859Z</time>
      </trkpt>
      <trkpt lat="42.624269" lon="2.501773">
        <ele>285.706236</ele>
        <time>2019-08-22T15:11:17.773Z</time>
      </trkpt>
      <trkpt lat="42.623946" lon="2.502299">
        <ele>287.878503</ele>
        <time>2019-08-22T15:11:34.290Z</time>
      </trkpt>
      <trkpt lat="42.623772" lon="2.502521">
        <ele>288.906925</ele>
        <time>2019-08-22T15:11:41.658Z</time>
      </trkpt>
      <trkpt lat="42.623671" lon="2.502631">
        <ele>289.464656</ele>
        <time>2019-08-22T15:11:46.789Z</time>
      </trkpt>
      <trkpt lat="42.623509" lon="2.502699">
        <ele>290.195271</ele>
        <time>2019-08-22T15:11:51.794Z</time>
      </trkpt>
      <trkpt lat="42.623020" lon="2.502677">
        <ele>292.266362</ele>
        <time>2019-08-22T15:12:08.872Z</time>
      </trkpt>
      <trkpt lat="42.622461" lon="2.502903">
        <ele>294.043160</ele>
        <time>2019-08-22T15:12:28.242Z</time>
      </trkpt>
      <trkpt lat="42.622272" lon="2.503044">
        <ele>294.700018</ele>
        <time>2019-08-22T15:12:36.044Z</time>
      </trkpt>
      <trkpt lat="42.622175" lon="2.503277">
        <ele>295.300154</ele>
        <time>2019-08-22T15:12:41.651Z</time>
      </trkpt>
      <trkpt lat="42.621688" lon="2.505203">
        <ele>298.050770</ele>
        <time>2019-08-22T15:13:10.186Z</time>
      </trkpt>
      <trkpt lat="42.621235" lon="2.506282">
        <ele>298.548060</ele>
        <time>2019-08-22T15:13:24.340Z</time>
      </trkpt>
      <trkpt lat="42.621148" lon="2.506400">
        <ele>298.614928</ele>
        <time>2019-08-22T15:13:25.795Z</time>
      </trkpt>
      <trkpt lat="42.620632" lon="2.506861">
        <ele>299.240131</ele>
        <time>2019-08-22T15:13:36.448Z</time>
      </trkpt>
      <trkpt lat="42.619203" lon="2.507953">
        <ele>301.059098</ele>
        <time>2019-08-22T15:14:10.152Z</time>
      </trkpt>
      <trkpt lat="42.618351" lon="2.508432">
        <ele>302.262283</ele>
        <time>2019-08-22T15:14:28.677Z</time>
      </trkpt>
      <trkpt lat="42.617782" lon="2.508627">
        <ele>303.254832</ele>
        <time>2019-08-22T15:14:39.558Z</time>
      </trkpt>
      <trkpt lat="42.617550" lon="2.508798">
        <ele>304.052329</ele>
        <time>2019-08-22T15:14:44.787Z</time>
      </trkpt>
      <trkpt lat="42.617344" lon="2.508976">
        <ele>304.789966</ele>
        <time>2019-08-22T15:14:49.885Z</time>
      </trkpt>
      <trkpt lat="42.617012" lon="2.509261">
        <ele>305.976548</ele>
        <time>2019-08-22T15:14:59.900Z</time>
      </trkpt>
      <trkpt lat="42.616735" lon="2.509429">
        <ele>306.893121</ele>
        <time>2019-08-22T15:15:09.207Z</time>
      </trkpt>
      <trkpt lat="42.616632" lon="2.509525">
        <ele>307.270521</ele>
        <time>2019-08-22T15:15:13.070Z</time>
      </trkpt>
      <trkpt lat="42.616517" lon="2.509674">
        <ele>307.750646</ele>
        <time>2019-08-22T15:15:18.320Z</time>
      </trkpt>
      <trkpt lat="42.616425" lon="2.509801">
        <ele>308.146914</ele>
        <time>2019-08-22T15:15:23.047Z</time>
      </trkpt>
      <trkpt lat="42.616317" lon="2.510054">
        <ele>309.604856</ele>
        <time>2019-08-22T15:15:30.449Z</time>
      </trkpt>
      <trkpt lat="42.616242" lon="2.510297">
        <ele>311.124425</ele>
        <time>2019-08-22T15:15:37.891Z</time>
      </trkpt>
      <trkpt lat="42.616186" lon="2.510615">
        <ele>313.010018</ele>
        <time>2019-08-22T15:15:47.191Z</time>
      </trkpt>
      <trkpt lat="42.616127" lon="2.510916">
        <ele>314.806322</ele>
        <time>2019-08-22T15:15:58.391Z</time>
      </trkpt>
      <trkpt lat="42.616104" lon="2.510998">
        <ele>315.312377</ele>
        <time>2019-08-22T15:16:00.869Z</time>
      </trkpt>
      <trkpt lat="42.616067" lon="2.511028">
        <ele>315.650009</ele>
        <time>2019-08-22T15:16:02.650Z</time>
      </trkpt>
      <trkpt lat="42.615874" lon="2.511024">
        <ele>317.162577</ele>
        <time>2019-08-22T15:16:12.880Z</time>
      </trkpt>
      <trkpt lat="42.615342" lon="2.511031">
        <ele>321.331647</ele>
        <time>2019-08-22T15:16:40.262Z</time>
      </trkpt>
      <trkpt lat="42.615563" lon="2.511171">
        <ele>323.639496</ele>
        <time>2019-08-22T15:16:56.648Z</time>
      </trkpt>
      <trkpt lat="42.615547" lon="2.511449">
        <ele>325.992360</ele>
        <time>2019-08-22T15:17:07.022Z</time>
      </trkpt>
      <trkpt lat="42.615576" lon="2.511515">
        <ele>326.640966</ele>
        <time>2019-08-22T15:17:12.023Z</time>
      </trkpt>
      <trkpt lat="42.615673" lon="2.511450">
        <ele>327.881020</ele>
        <time>2019-08-22T15:17:19.577Z</time>
      </trkpt>
      <trkpt lat="42.615785" lon="2.511589">
        <ele>329.620168</ele>
        <time>2019-08-22T15:17:25.664Z</time>
      </trkpt>
      <trkpt lat="42.615781" lon="2.511871">
        <ele>332.000053</ele>
        <time>2019-08-22T15:17:39.894Z</time>
      </trkpt>
      <trkpt lat="42.615823" lon="2.511922">
        <ele>332.645870</ele>
        <time>2019-08-22T15:17:42.338Z</time>
      </trkpt>
      <trkpt lat="42.616015" lon="2.512021">
        <ele>335.000445</ele>
        <time>2019-08-22T15:17:55.008Z</time>
      </trkpt>
      <trkpt lat="42.616033" lon="2.512029">
        <ele>335.217586</ele>
        <time>2019-08-22T15:17:56.513Z</time>
      </trkpt>
      <trkpt lat="42.616126" lon="2.512056">
        <ele>336.307963</ele>
        <time>2019-08-22T15:18:03.724Z</time>
      </trkpt>
      <trkpt lat="42.616286" lon="2.512056">
        <ele>338.142477</ele>
        <time>2019-08-22T15:18:11.595Z</time>
      </trkpt>
      <trkpt lat="42.616170" lon="2.512197">
        <ele>339.926960</ele>
        <time>2019-08-22T15:18:25.504Z</time>
      </trkpt>
      <trkpt lat="42.616097" lon="2.512397">
        <ele>341.810667</ele>
        <time>2019-08-22T15:18:34.941Z</time>
      </trkpt>
      <trkpt lat="42.616084" lon="2.512706">
        <ele>344.561625</ele>
        <time>2019-08-22T15:18:53.582Z</time>
      </trkpt>
      <trkpt lat="42.615875" lon="2.513261">
        <ele>350.340718</ele>
        <time>2019-08-22T15:19:32.230Z</time>
      </trkpt>
      <trkpt lat="42.615737" lon="2.513420">
        <ele>352.619729</ele>
        <time>2019-08-22T15:19:47.672Z</time>
      </trkpt>
      <trkpt lat="42.615631" lon="2.513554">
        <ele>354.443364</ele>
        <time>2019-08-22T15:19:57.078Z</time>
      </trkpt>
      <trkpt lat="42.615187" lon="2.514146">
        <ele>362.278719</ele>
        <time>2019-08-22T15:20:37.830Z</time>
      </trkpt>
      <trkpt lat="42.614546" lon="2.515236">
        <ele>375.130180</ele>
        <time>2019-08-22T15:21:46.010Z</time>
      </trkpt>
      <trkpt lat="42.614409" lon="2.515278">
        <ele>376.883969</ele>
        <time>2019-08-22T15:21:54.692Z</time>
      </trkpt>
      <trkpt lat="42.614073" lon="2.515154">
        <ele>381.231765</ele>
        <time>2019-08-22T15:22:16.433Z</time>
      </trkpt>
      <trkpt lat="42.613344" lon="2.515582">
        <ele>388.124361</ele>
        <time>2019-08-22T15:23:08.514Z</time>
      </trkpt>
      <trkpt lat="42.612971" lon="2.515934">
        <ele>388.124361</ele>
        <time>2019-08-22T15:23:37.428Z</time>
      </trkpt>
      <trkpt lat="42.612886" lon="2.516053">
        <ele>388.124361</ele>
        <time>2019-08-22T15:23:45.841Z</time>
      </trkpt>
      <trkpt lat="42.612832" lon="2.516434">
        <ele>388.124361</ele>
        <time>2019-08-22T15:24:01.621Z</time>
      </trkpt>
      <trkpt lat="42.612949" lon="2.516895">
        <ele>388.124361</ele>
        <time>2019-08-22T15:24:20.533Z</time>
      </trkpt>
      <trkpt lat="42.612980" lon="2.517037">
        <ele>388.124361</ele>
        <time>2019-08-22T15:24:27.202Z</time>
      </trkpt>
      <trkpt lat="42.612838" lon="2.516769">
        <ele>388.124361</ele>
        <time>2019-08-22T15:24:36.943Z</time>
      </trkpt>
      <trkpt lat="42.612725" lon="2.516367">
        <ele>388.124361</ele>
        <time>2019-08-22T15:24:49.998Z</time>
      </trkpt>
      <trkpt lat="42.612660" lon="2.516181">
        <ele>388.124361</ele>
        <time>2019-08-22T15:24:56.907Z</time>
      </trkpt>
      <trkpt lat="42.61107" lon="2.5131">
        <ele>400.2</ele>
      </trkpt>
      <trkpt lat="42.61102" lon="2.513">
        <ele>398.2</ele>
      </trkpt>
      <trkpt lat="42.61097" lon="2.51291">
        <ele>396.4</ele>
      </trkpt>
      <trkpt lat="42.61092" lon="2.51284">
        <ele>395.1</ele>
      </trkpt>
      <trkpt lat="42.61085" lon="2.51278">
        <ele>394.6</ele>
      </trkpt>
      <trkpt lat="42.61076" lon="2.51272">
        <ele>395.1</ele>
      </trkpt>
      <trkpt lat="42.61067" lon="2.51268">
        <ele>396.4</ele>
      </trkpt>
      <trkpt lat="42.61058" lon="2.51266">
        <ele>398.6</ele>
      </trkpt>
      <trkpt lat="42.61021" lon="2.51258">
        <ele>407.3</ele>
      </trkpt>
      <trkpt lat="42.61012" lon="2.51256">
        <ele>409.3</ele>
      </trkpt>
      <trkpt lat="42.61001" lon="2.51253">
        <ele>411.3</ele>
      </trkpt>
      <trkpt lat="42.60992" lon="2.5125">
        <ele>412.4</ele>
      </trkpt>
      <trkpt lat="42.60984" lon="2.51246">
        <ele>412.7</ele>
      </trkpt>
      <trkpt lat="42.60974" lon="2.51241">
        <ele>413.2</ele>
      </trkpt>
      <trkpt lat="42.60966" lon="2.51233">
        <ele>411.6</ele>
      </trkpt>
      <trkpt lat="42.60947" lon="2.5122">
        <ele>411.2</ele>
      </trkpt>
      <trkpt lat="42.60922" lon="2.51204">
        <ele>411.7</ele>
      </trkpt>
      <trkpt lat="42.60913" lon="2.51197">
        <ele>411.2</ele>
      </trkpt>
      <trkpt lat="42.60905" lon="2.51188">
        <ele>409.3</ele>
      </trkpt>
      <trkpt lat="42.60897" lon="2.51179">
        <ele>407.7</ele>
      </trkpt>
      <trkpt lat="42.60888" lon="2.51167">
        <ele>405.4</ele>
      </trkpt>
      <trkpt lat="42.60876" lon="2.51154">
        <ele>405.4</ele>
      </trkpt>
      <trkpt lat="42.60861" lon="2.51138">
        <ele>405.7</ele>
      </trkpt>
      <trkpt lat="42.60847" lon="2.51116">
        <ele>403.9</ele>
      </trkpt>
      <trkpt lat="42.60837" lon="2.51098">
        <ele>402</ele>
      </trkpt>
      <trkpt lat="42.60832" lon="2.51087">
        <ele>399.8</ele>
      </trkpt>
      <trkpt lat="42.60826" lon="2.51076">
        <ele>396.2</ele>
      </trkpt>
      <trkpt lat="42.60821" lon="2.51065">
        <ele>393.1</ele>
      </trkpt>
      <trkpt lat="42.60816" lon="2.51059">
        <ele>391.2</ele>
      </trkpt>
      <trkpt lat="42.60812" lon="2.51055">
        <ele>389.9</ele>
      </trkpt>
      <trkpt lat="42.60806" lon="2.51054">
        <ele>389.1</ele>
      </trkpt>
      <trkpt lat="42.60802" lon="2.51054">
        <ele>388.7</ele>
      </trkpt>
      <trkpt lat="42.60797" lon="2.51055">
        <ele>388.3</ele>
      </trkpt>
      <trkpt lat="42.60791" lon="2.51058">
        <ele>388.2</ele>
      </trkpt>
      <trkpt lat="42.60787" lon="2.51061">
        <ele>388.2</ele>
      </trkpt>
      <trkpt lat="42.60784" lon="2.51068">
        <ele>388.9</ele>
      </trkpt>
      <trkpt lat="42.60784" lon="2.51078">
        <ele>390.5</ele>
      </trkpt>
      <trkpt lat="42.60784" lon="2.51084">
        <ele>391.4</ele>
      </trkpt>
      <trkpt lat="42.60785" lon="2.51095">
        <ele>393.3</ele>
      </trkpt>
      <trkpt lat="42.60787" lon="2.51106">
        <ele>395.4</ele>
      </trkpt>
      <trkpt lat="42.60787" lon="2.51114">
        <ele>396.7</ele>
      </trkpt>
      <trkpt lat="42.60788" lon="2.51125">
        <ele>398.8</ele>
      </trkpt>
      <trkpt lat="42.60789" lon="2.51136">
        <ele>400.9</ele>
      </trkpt>
      <trkpt lat="42.60789" lon="2.51148">
        <ele>402.9</ele>
      </trkpt>
      <trkpt lat="42.60788" lon="2.51159">
        <ele>404.3</ele>
      </trkpt>
      <trkpt lat="42.60785" lon="2.5117">
        <ele>405.4</ele>
      </trkpt>
      <trkpt lat="42.60782" lon="2.5118">
        <ele>407.3</ele>
      </trkpt>
      <trkpt lat="42.60774" lon="2.51196">
        <ele>409</ele>
      </trkpt>
      <trkpt lat="42.60767" lon="2.51213">
        <ele>411.4</ele>
      </trkpt>
      <trkpt lat="42.60761" lon="2.51227">
        <ele>413.3</ele>
      </trkpt>
      <trkpt lat="42.60754" lon="2.51241">
        <ele>414.8</ele>
      </trkpt>
      <trkpt lat="42.60747" lon="2.5125">
        <ele>414.7</ele>
      </trkpt>
      <trkpt lat="42.60731" lon="2.51272">
        <ele>416.8</ele>
      </trkpt>
      <trkpt lat="42.60721" lon="2.51284">
        <ele>417</ele>
      </trkpt>
      <trkpt lat="42.60713" lon="2.51295">
        <ele>417.5</ele>
      </trkpt>
      <trkpt lat="42.60706" lon="2.51304">
        <ele>417.6</ele>
      </trkpt>
      <trkpt lat="42.60698" lon="2.51312">
        <ele>416.6</ele>
      </trkpt>
      <trkpt lat="42.60688" lon="2.51321">
        <ele>414.8</ele>
      </trkpt>
      <trkpt lat="42.60679" lon="2.51327">
        <ele>412.3</ele>
      </trkpt>
      <trkpt lat="42.60672" lon="2.51334">
        <ele>411.2</ele>
      </trkpt>
      <trkpt lat="42.60665" lon="2.51342">
        <ele>412.8</ele>
      </trkpt>
      <trkpt lat="42.60659" lon="2.51347">
        <ele>414.9</ele>
      </trkpt>
      <trkpt lat="42.60652" lon="2.51354">
        <ele>417.6</ele>
      </trkpt>
      <trkpt lat="42.60645" lon="2.51358">
        <ele>418.5</ele>
      </trkpt>
      <trkpt lat="42.60636" lon="2.51362">
        <ele>418.8</ele>
      </trkpt>
      <trkpt lat="42.60627" lon="2.51364">
        <ele>417.9</ele>
      </trkpt>
      <trkpt lat="42.60617" lon="2.51367">
        <ele>417.1</ele>
      </trkpt>
      <trkpt lat="42.60609" lon="2.51369">
        <ele>416.1</ele>
      </trkpt>
      <trkpt lat="42.60601" lon="2.51373">
        <ele>415.6</ele>
      </trkpt>
      <trkpt lat="42.60594" lon="2.51378">
        <ele>415.4</ele>
      </trkpt>
      <trkpt lat="42.60589" lon="2.51384">
        <ele>415.7</ele>
      </trkpt>
      <trkpt lat="42.60585" lon="2.51391">
        <ele>416.4</ele>
      </trkpt>
      <trkpt lat="42.60583" lon="2.51397">
        <ele>417.4</ele>
      </trkpt>
      <trkpt lat="42.60581" lon="2.51404">
        <ele>420</ele>
      </trkpt>
      <trkpt lat="42.60579" lon="2.5141">
        <ele>422.3</ele>
      </trkpt>
      <trkpt lat="42.60577" lon="2.51415">
        <ele>424.3</ele>
      </trkpt>
      <trkpt lat="42.60573" lon="2.51417">
        <ele>426.6</ele>
      </trkpt>
      <trkpt lat="42.6057" lon="2.51418">
        <ele>428.2</ele>
      </trkpt>
      <trkpt lat="42.60565" lon="2.51418">
        <ele>430.4</ele>
      </trkpt>
      <trkpt lat="42.6056" lon="2.51416">
        <ele>431.9</ele>
      </trkpt>
      <trkpt lat="42.60556" lon="2.51414">
        <ele>433.2</ele>
      </trkpt>
      <trkpt lat="42.60552" lon="2.51409">
        <ele>433.9</ele>
      </trkpt>
      <trkpt lat="42.60546" lon="2.51383">
        <ele>431.1</ele>
      </trkpt>
      <trkpt lat="42.60541" lon="2.51369">
        <ele>430.6</ele>
      </trkpt>
      <trkpt lat="42.60536" lon="2.51355">
        <ele>430.2</ele>
      </trkpt>
      <trkpt lat="42.60535" lon="2.51346">
        <ele>428.9</ele>
      </trkpt>
      <trkpt lat="42.60534" lon="2.51338">
        <ele>427.8</ele>
      </trkpt>
      <trkpt lat="42.60534" lon="2.51326">
        <ele>425.4</ele>
      </trkpt>
      <trkpt lat="42.60533" lon="2.51315">
        <ele>423.7</ele>
      </trkpt>
      <trkpt lat="42.6053" lon="2.51305">
        <ele>423.3</ele>
      </trkpt>
      <trkpt lat="42.60525" lon="2.51294">
        <ele>423.8</ele>
      </trkpt>
      <trkpt lat="42.6052" lon="2.51282">
        <ele>424.1</ele>
      </trkpt>
      <trkpt lat="42.60517" lon="2.51272">
        <ele>423.8</ele>
      </trkpt>
      <trkpt lat="42.60512" lon="2.51258">
        <ele>423.9</ele>
      </trkpt>
      <trkpt lat="42.60508" lon="2.51245">
        <ele>423.6</ele>
      </trkpt>
      <trkpt lat="42.60503" lon="2.51232">
        <ele>423.6</ele>
      </trkpt>
      <trkpt lat="42.60499" lon="2.5122">
        <ele>422.8</ele>
      </trkpt>
      <trkpt lat="42.60495" lon="2.51209">
        <ele>421.7</ele>
      </trkpt>
      <trkpt lat="42.60492" lon="2.51197">
        <ele>419.8</ele>
      </trkpt>
      <trkpt lat="42.6049" lon="2.51187">
        <ele>418.1</ele>
      </trkpt>
      <trkpt lat="42.60489" lon="2.51178">
        <ele>416.2</ele>
      </trkpt>
      <trkpt lat="42.60486" lon="2.51167">
        <ele>414.3</ele>
      </trkpt>
      <trkpt lat="42.60484" lon="2.5116">
        <ele>413</ele>
      </trkpt>
      <trkpt lat="42.60482" lon="2.51152">
        <ele>411.4</ele>
      </trkpt>
      <trkpt lat="42.60478" lon="2.51146">
        <ele>410.6</ele>
      </trkpt>
      <trkpt lat="42.60472" lon="2.51141">
        <ele>410.3</ele>
      </trkpt>
      <trkpt lat="42.60466" lon="2.51138">
        <ele>410.4</ele>
      </trkpt>
      <trkpt lat="42.60458" lon="2.51136">
        <ele>411</ele>
      </trkpt>
      <trkpt lat="42.6045" lon="2.51134">
        <ele>411.5</ele>
      </trkpt>
      <trkpt lat="42.60444" lon="2.51134">
        <ele>412.4</ele>
      </trkpt>
      <trkpt lat="42.60434" lon="2.51135">
        <ele>414.2</ele>
      </trkpt>
      <trkpt lat="42.60425" lon="2.51138">
        <ele>416.7</ele>
      </trkpt>
      <trkpt lat="42.60416" lon="2.51141">
        <ele>419.1</ele>
      </trkpt>
      <trkpt lat="42.60405" lon="2.51146">
        <ele>419.5</ele>
      </trkpt>
      <trkpt lat="42.60396" lon="2.5115">
        <ele>419.4</ele>
      </trkpt>
      <trkpt lat="42.60385" lon="2.51155">
        <ele>418.8</ele>
      </trkpt>
      <trkpt lat="42.60376" lon="2.51161">
        <ele>418.4</ele>
      </trkpt>
      <trkpt lat="42.60367" lon="2.51168">
        <ele>417.9</ele>
      </trkpt>
      <trkpt lat="42.6036" lon="2.51174">
        <ele>418.2</ele>
      </trkpt>
      <trkpt lat="42.60351" lon="2.51182">
        <ele>418.6</ele>
      </trkpt>
      <trkpt lat="42.60343" lon="2.51191">
        <ele>419.5</ele>
      </trkpt>
      <trkpt lat="42.60337" lon="2.51199">
        <ele>420.5</ele>
      </trkpt>
      <trkpt lat="42.60329" lon="2.51209">
        <ele>421.9</ele>
      </trkpt>
      <trkpt lat="42.60324" lon="2.51217">
        <ele>423.1</ele>
      </trkpt>
      <trkpt lat="42.6032" lon="2.51227">
        <ele>424.9</ele>
      </trkpt>
      <trkpt lat="42.60316" lon="2.51238">
        <ele>426.5</ele>
      </trkpt>
      <trkpt lat="42.60311" lon="2.5125">
        <ele>427.7</ele>
      </trkpt>
      <trkpt lat="42.60307" lon="2.51261">
        <ele>430</ele>
      </trkpt>
      <trkpt lat="42.60302" lon="2.51272">
        <ele>431.8</ele>
      </trkpt>
      <trkpt lat="42.60296" lon="2.51287">
        <ele>434.5</ele>
      </trkpt>
      <trkpt lat="42.6029" lon="2.51301">
        <ele>436.6</ele>
      </trkpt>
      <trkpt lat="42.60286" lon="2.51309">
        <ele>437.5</ele>
      </trkpt>
      <trkpt lat="42.60281" lon="2.51317">
        <ele>437.9</ele>
      </trkpt>
      <trkpt lat="42.60275" lon="2.51324">
        <ele>437.5</ele>
      </trkpt>
      <trkpt lat="42.60269" lon="2.51329">
        <ele>436.3</ele>
      </trkpt>
      <trkpt lat="42.60261" lon="2.51335">
        <ele>435</ele>
      </trkpt>
      <trkpt lat="42.60254" lon="2.51341">
        <ele>435.3</ele>
      </trkpt>
      <trkpt lat="42.60246" lon="2.51349">
        <ele>437.5</ele>
      </trkpt>
      <trkpt lat="42.60238" lon="2.51357">
        <ele>440.8</ele>
      </trkpt>
      <trkpt lat="42.60231" lon="2.51364">
        <ele>443.5</ele>
      </trkpt>
      <trkpt lat="42.60224" lon="2.51371">
        <ele>446.1</ele>
      </trkpt>
      <trkpt lat="42.60216" lon="2.51378">
        <ele>448.4</ele>
      </trkpt>
      <trkpt lat="42.60207" lon="2.51386">
        <ele>451</ele>
      </trkpt>
      <trkpt lat="42.60201" lon="2.51391">
        <ele>452.4</ele>
      </trkpt>
      <trkpt lat="42.6019" lon="2.51399">
        <ele>454.3</ele>
      </trkpt>
      <trkpt lat="42.60183" lon="2.51402">
        <ele>454.3</ele>
      </trkpt>
      <trkpt lat="42.60183" lon="2.51403">
        <ele>454.8</ele>
      </trkpt>
      <trkpt lat="42.60177" lon="2.51404">
        <ele>454</ele>
      </trkpt>
      <trkpt lat="42.6017" lon="2.51406">
        <ele>453.4</ele>
      </trkpt>
      <trkpt lat="42.60163" lon="2.51406">
        <ele>453.7</ele>
      </trkpt>
      <trkpt lat="42.60157" lon="2.51405">
        <ele>454.9</ele>
      </trkpt>
      <trkpt lat="42.6015" lon="2.51402">
        <ele>455.4</ele>
      </trkpt>
      <trkpt lat="42.60144" lon="2.51396">
        <ele>454.1</ele>
      </trkpt>
      <trkpt lat="42.60141" lon="2.51391">
        <ele>452.5</ele>
      </trkpt>
      <trkpt lat="42.60136" lon="2.51385">
        <ele>451.1</ele>
      </trkpt>
      <trkpt lat="42.6013" lon="2.51378">
        <ele>449.5</ele>
      </trkpt>
      <trkpt lat="42.60122" lon="2.51375">
        <ele>450.4</ele>
      </trkpt>
      <trkpt lat="42.60115" lon="2.51371">
        <ele>450.6</ele>
      </trkpt>
      <trkpt lat="42.60108" lon="2.51367">
        <ele>450.8</ele>
      </trkpt>
      <trkpt lat="42.60101" lon="2.51363">
        <ele>451.1</ele>
      </trkpt>
      <trkpt lat="42.60095" lon="2.51359">
        <ele>451.1</ele>
      </trkpt>
      <trkpt lat="42.6009" lon="2.51354">
        <ele>450.3</ele>
      </trkpt>
      <trkpt lat="42.60084" lon="2.51351">
        <ele>450.8</ele>
      </trkpt>
      <trkpt lat="42.60078" lon="2.51348">
        <ele>450.9</ele>
      </trkpt>
      <trkpt lat="42.60073" lon="2.51345">
        <ele>450.6</ele>
      </trkpt>
      <trkpt lat="42.60069" lon="2.5134">
        <ele>449.2</ele>
      </trkpt>
      <trkpt lat="42.60065" lon="2.51335">
        <ele>447.7</ele>
      </trkpt>
      <trkpt lat="42.60062" lon="2.51328">
        <ele>445.4</ele>
      </trkpt>
      <trkpt lat="42.60058" lon="2.51313">
        <ele>440.1</ele>
      </trkpt>
      <trkpt lat="42.60057" lon="2.51305">
        <ele>437</ele>
      </trkpt>
      <trkpt lat="42.60055" lon="2.51292">
        <ele>431.9</ele>
      </trkpt>
      <trkpt lat="42.60054" lon="2.51284">
        <ele>428.7</ele>
      </trkpt>
      <trkpt lat="42.60054" lon="2.51279">
        <ele>426.6</ele>
      </trkpt>
      <trkpt lat="42.60053" lon="2.51274">
        <ele>424.7</ele>
      </trkpt>
      <trkpt lat="42.6005" lon="2.51271">
        <ele>423.9</ele>
      </trkpt>
      <trkpt lat="42.60046" lon="2.51269">
        <ele>423.6</ele>
      </trkpt>
      <trkpt lat="42.60045" lon="2.51269">
        <ele>423.7</ele>
      </trkpt>
      <trkpt lat="42.60041" lon="2.51269">
        <ele>424.3</ele>
      </trkpt>
      <trkpt lat="42.60037" lon="2.51273">
        <ele>426.6</ele>
      </trkpt>
      <trkpt lat="42.60033" lon="2.51279">
        <ele>429.9</ele>
      </trkpt>
      <trkpt lat="42.60026" lon="2.51293">
        <ele>437.2</ele>
      </trkpt>
      <trkpt lat="42.60021" lon="2.51301">
        <ele>441.7</ele>
      </trkpt>
      <trkpt lat="42.60018" lon="2.51308">
        <ele>445.5</ele>
      </trkpt>
      <trkpt lat="42.60013" lon="2.51315">
        <ele>449.7</ele>
      </trkpt>
      <trkpt lat="42.60008" lon="2.51321">
        <ele>453.5</ele>
      </trkpt>
      <trkpt lat="42.60003" lon="2.51327">
        <ele>457.3</ele>
      </trkpt>
      <trkpt lat="42.59998" lon="2.5133">
        <ele>459.3</ele>
      </trkpt>
      <trkpt lat="42.5999" lon="2.51333">
        <ele>460.4</ele>
      </trkpt>
      <trkpt lat="42.59983" lon="2.51335">
        <ele>461</ele>
      </trkpt>
      <trkpt lat="42.59977" lon="2.51337">
        <ele>461.7</ele>
      </trkpt>
      <trkpt lat="42.5997" lon="2.51339">
        <ele>462.4</ele>
      </trkpt>
      <trkpt lat="42.59966" lon="2.51342">
        <ele>463.7</ele>
      </trkpt>
      <trkpt lat="42.59962" lon="2.51346">
        <ele>465.6</ele>
      </trkpt>
      <trkpt lat="42.59953" lon="2.51356">
        <ele>470.2</ele>
      </trkpt>
      <trkpt lat="42.59949" lon="2.5136">
        <ele>472</ele>
      </trkpt>
      <trkpt lat="42.59945" lon="2.51362">
        <ele>472.8</ele>
      </trkpt>
      <trkpt lat="42.59942" lon="2.51363">
        <ele>473.2</ele>
      </trkpt>
      <trkpt lat="42.59939" lon="2.51363">
        <ele>473</ele>
      </trkpt>
      <trkpt lat="42.59935" lon="2.51361">
        <ele>471.8</ele>
      </trkpt>
      <trkpt lat="42.5993" lon="2.51356">
        <ele>469.1</ele>
      </trkpt>
      <trkpt lat="42.59925" lon="2.51351">
        <ele>466.3</ele>
      </trkpt>
      <trkpt lat="42.59922" lon="2.51344">
        <ele>462.6</ele>
      </trkpt>
      <trkpt lat="42.59918" lon="2.51339">
        <ele>459.9</ele>
      </trkpt>
      <trkpt lat="42.59913" lon="2.51334">
        <ele>457.6</ele>
      </trkpt>
      <trkpt lat="42.59908" lon="2.51331">
        <ele>456.7</ele>
      </trkpt>
      <trkpt lat="42.59898" lon="2.51327">
        <ele>455.8</ele>
      </trkpt>
      <trkpt lat="42.59892" lon="2.51325">
        <ele>455.5</ele>
      </trkpt>
      <trkpt lat="42.59886" lon="2.51323">
        <ele>455.1</ele>
      </trkpt>
      <trkpt lat="42.5988" lon="2.51321">
        <ele>454.8</ele>
      </trkpt>
      <trkpt lat="42.59875" lon="2.5132">
        <ele>454.8</ele>
      </trkpt>
      <trkpt lat="42.59869" lon="2.51318">
        <ele>454.5</ele>
      </trkpt>
      <trkpt lat="42.59863" lon="2.51317">
        <ele>454.6</ele>
      </trkpt>
      <trkpt lat="42.59857" lon="2.51317">
        <ele>455.2</ele>
      </trkpt>
      <trkpt lat="42.59853" lon="2.51319">
        <ele>456.4</ele>
      </trkpt>
      <trkpt lat="42.5985" lon="2.51321">
        <ele>457.5</ele>
      </trkpt>
      <trkpt lat="42.59847" lon="2.51323">
        <ele>458.6</ele>
      </trkpt>
      <trkpt lat="42.59846" lon="2.51325">
        <ele>459.5</ele>
      </trkpt>
      <trkpt lat="42.59837" lon="2.51344">
        <ele>468.7</ele>
      </trkpt>
      <trkpt lat="42.59835" lon="2.51347">
        <ele>470.3</ele>
      </trkpt>
      <trkpt lat="42.59832" lon="2.5135">
        <ele>472</ele>
      </trkpt>
      <trkpt lat="42.5983" lon="2.51352">
        <ele>473.3</ele>
      </trkpt>
      <trkpt lat="42.59827" lon="2.51353">
        <ele>474.2</ele>
      </trkpt>
      <trkpt lat="42.59823" lon="2.51352">
        <ele>474.4</ele>
      </trkpt>
      <trkpt lat="42.59817" lon="2.51348">
        <ele>473.5</ele>
      </trkpt>
      <trkpt lat="42.59814" lon="2.51344">
        <ele>472.1</ele>
      </trkpt>
      <trkpt lat="42.5981" lon="2.51336">
        <ele>469.1</ele>
      </trkpt>
      <trkpt lat="42.598" lon="2.5132">
        <ele>464.3</ele>
      </trkpt>
      <trkpt lat="42.59796" lon="2.51315">
        <ele>463</ele>
      </trkpt>
      <trkpt lat="42.59793" lon="2.51311">
        <ele>461.9</ele>
      </trkpt>
      <trkpt lat="42.59792" lon="2.5131">
        <ele>461.7</ele>
      </trkpt>
      <trkpt lat="42.59786" lon="2.51308">
        <ele>462</ele>
      </trkpt>
      <trkpt lat="42.5978" lon="2.51308">
        <ele>463</ele>
      </trkpt>
      <trkpt lat="42.59774" lon="2.51309">
        <ele>464.5</ele>
      </trkpt>
      <trkpt lat="42.59766" lon="2.51309">
        <ele>465.9</ele>
      </trkpt>
      <trkpt lat="42.5976" lon="2.51308">
        <ele>466.5</ele>
      </trkpt>
      <trkpt lat="42.59752" lon="2.51307">
        <ele>467.5</ele>
      </trkpt>
      <trkpt lat="42.59745" lon="2.51301">
        <ele>466.5</ele>
      </trkpt>
      <trkpt lat="42.59741" lon="2.51298">
        <ele>466.2</ele>
      </trkpt>
      <trkpt lat="42.59737" lon="2.51296">
        <ele>466.2</ele>
      </trkpt>
      <trkpt lat="42.59734" lon="2.51295">
        <ele>466.4</ele>
      </trkpt>
      <trkpt lat="42.59731" lon="2.51295">
        <ele>467</ele>
      </trkpt>
      <trkpt lat="42.59728" lon="2.51296">
        <ele>468</ele>
      </trkpt>
      <trkpt lat="42.59726" lon="2.51297">
        <ele>468.7</ele>
      </trkpt>
      <trkpt lat="42.59723" lon="2.513">
        <ele>470.3</ele>
      </trkpt>
      <trkpt lat="42.59722" lon="2.51304">
        <ele>471.8</ele>
      </trkpt>
      <trkpt lat="42.5972" lon="2.51307">
        <ele>473.1</ele>
      </trkpt>
      <trkpt lat="42.59719" lon="2.51313">
        <ele>475.2</ele>
      </trkpt>
      <trkpt lat="42.59719" lon="2.51317">
        <ele>476.5</ele>
      </trkpt>
      <trkpt lat="42.59718" lon="2.51328">
        <ele>480.1</ele>
      </trkpt>
      <trkpt lat="42.59717" lon="2.51338">
        <ele>483.5</ele>
      </trkpt>
      <trkpt lat="42.59715" lon="2.51347">
        <ele>486.6</ele>
      </trkpt>
      <trkpt lat="42.59713" lon="2.51351">
        <ele>488</ele>
      </trkpt>
      <trkpt lat="42.59711" lon="2.51355">
        <ele>489.3</ele>
      </trkpt>
      <trkpt lat="42.59707" lon="2.51361">
        <ele>491.4</ele>
      </trkpt>
      <trkpt lat="42.59704" lon="2.51366">
        <ele>492.9</ele>
      </trkpt>
      <trkpt lat="42.597" lon="2.51369">
        <ele>493.8</ele>
      </trkpt>
      <trkpt lat="42.59699" lon="2.51369">
        <ele>493.9</ele>
      </trkpt>
      <trkpt lat="42.59696" lon="2.51369">
        <ele>493.9</ele>
      </trkpt>
      <trkpt lat="42.59692" lon="2.51369">
        <ele>494</ele>
      </trkpt>
      <trkpt lat="42.5969" lon="2.51367">
        <ele>493.5</ele>
      </trkpt>
      <trkpt lat="42.59687" lon="2.51364">
        <ele>492.9</ele>
      </trkpt>
      <trkpt lat="42.59685" lon="2.51359">
        <ele>491.8</ele>
      </trkpt>
      <trkpt lat="42.59684" lon="2.51354">
        <ele>490.7</ele>
      </trkpt>
      <trkpt lat="42.59685" lon="2.51337">
        <ele>486.7</ele>
      </trkpt>
      <trkpt lat="42.59685" lon="2.51331">
        <ele>485.2</ele>
      </trkpt>
      <trkpt lat="42.59684" lon="2.51325">
        <ele>483.8</ele>
      </trkpt>
      <trkpt lat="42.59674" lon="2.51305">
        <ele>480.6</ele>
      </trkpt>
      <trkpt lat="42.59671" lon="2.51295">
        <ele>478.9</ele>
      </trkpt>
      <trkpt lat="42.59671" lon="2.51293">
        <ele>478.4</ele>
      </trkpt>
      <trkpt lat="42.5967" lon="2.51264">
        <ele>472.2</ele>
      </trkpt>
      <trkpt lat="42.59669" lon="2.51259">
        <ele>471.3</ele>
      </trkpt>
      <trkpt lat="42.59667" lon="2.51253">
        <ele>470.6</ele>
      </trkpt>
      <trkpt lat="42.59665" lon="2.51248">
        <ele>470</ele>
      </trkpt>
      <trkpt lat="42.59659" lon="2.51239">
        <ele>469.2</ele>
      </trkpt>
      <trkpt lat="42.59624" lon="2.51212">
        <ele>471.2</ele>
      </trkpt>
      <trkpt lat="42.59596" lon="2.51193">
        <ele>471.1</ele>
      </trkpt>
      <trkpt lat="42.59592" lon="2.51191">
        <ele>471.3</ele>
      </trkpt>
      <trkpt lat="42.59586" lon="2.51189">
        <ele>472</ele>
      </trkpt>
      <trkpt lat="42.5958" lon="2.51189">
        <ele>472.5</ele>
      </trkpt>
      <trkpt lat="42.59573" lon="2.5119">
        <ele>472.3</ele>
      </trkpt>
      <trkpt lat="42.59568" lon="2.51192">
        <ele>472.8</ele>
      </trkpt>
      <trkpt lat="42.59563" lon="2.51195">
        <ele>473.8</ele>
      </trkpt>
      <trkpt lat="42.59557" lon="2.51199">
        <ele>475.1</ele>
      </trkpt>
      <trkpt lat="42.59554" lon="2.51202">
        <ele>476.2</ele>
      </trkpt>
      <trkpt lat="42.59542" lon="2.51215">
        <ele>481</ele>
      </trkpt>
      <trkpt lat="42.59534" lon="2.51224">
        <ele>484.1</ele>
      </trkpt>
      <trkpt lat="42.59526" lon="2.51232">
        <ele>486.5</ele>
      </trkpt>
      <trkpt lat="42.59517" lon="2.5124">
        <ele>488.6</ele>
      </trkpt>
      <trkpt lat="42.59506" lon="2.51245">
        <ele>488.9</ele>
      </trkpt>
      <trkpt lat="42.59499" lon="2.51247">
        <ele>488.8</ele>
      </trkpt>
      <trkpt lat="42.59474" lon="2.51255">
        <ele>493</ele>
      </trkpt>
      <trkpt lat="42.59463" lon="2.51258">
        <ele>494.8</ele>
      </trkpt>
      <trkpt lat="42.59454" lon="2.51259">
        <ele>495.4</ele>
      </trkpt>
      <trkpt lat="42.59423" lon="2.5126">
        <ele>496.4</ele>
      </trkpt>
      <trkpt lat="42.59414" lon="2.51259">
        <ele>497</ele>
      </trkpt>
      <trkpt lat="42.59407" lon="2.51259">
        <ele>499.5</ele>
      </trkpt>
      <trkpt lat="42.59401" lon="2.5126">
        <ele>502.3</ele>
      </trkpt>
      <trkpt lat="42.59396" lon="2.5126">
        <ele>504.1</ele>
      </trkpt>
      <trkpt lat="42.59389" lon="2.51263">
        <ele>508.2</ele>
      </trkpt>
      <trkpt lat="42.59386" lon="2.51263">
        <ele>509.3</ele>
      </trkpt>
      <trkpt lat="42.59383" lon="2.51263">
        <ele>510.4</ele>
      </trkpt>
      <trkpt lat="42.59382" lon="2.51262">
        <ele>510.3</ele>
      </trkpt>
      <trkpt lat="42.5938" lon="2.5126">
        <ele>510</ele>
      </trkpt>
      <trkpt lat="42.59378" lon="2.51257">
        <ele>509.3</ele>
      </trkpt>
      <trkpt lat="42.59376" lon="2.51253">
        <ele>508.1</ele>
      </trkpt>
      <trkpt lat="42.59375" lon="2.51249">
        <ele>506.5</ele>
      </trkpt>
      <trkpt lat="42.59374" lon="2.51243">
        <ele>503.8</ele>
      </trkpt>
      <trkpt lat="42.59373" lon="2.51234">
        <ele>499.5</ele>
      </trkpt>
      <trkpt lat="42.59372" lon="2.51226">
        <ele>495.7</ele>
      </trkpt>
      <trkpt lat="42.59369" lon="2.51208">
        <ele>487.3</ele>
      </trkpt>
      <trkpt lat="42.59361" lon="2.51186">
        <ele>478.3</ele>
      </trkpt>
      <trkpt lat="42.59355" lon="2.51174">
        <ele>473.7</ele>
      </trkpt>
      <trkpt lat="42.59352" lon="2.51171">
        <ele>473</ele>
      </trkpt>
      <trkpt lat="42.59349" lon="2.5117">
        <ele>473.3</ele>
      </trkpt>
      <trkpt lat="42.59346" lon="2.51169">
        <ele>473.6</ele>
      </trkpt>
      <trkpt lat="42.59343" lon="2.51169">
        <ele>474.5</ele>
      </trkpt>
      <trkpt lat="42.5934" lon="2.5117">
        <ele>475.9</ele>
      </trkpt>
      <trkpt lat="42.59337" lon="2.5117">
        <ele>476.8</ele>
      </trkpt>
      <trkpt lat="42.59329" lon="2.51172">
        <ele>480.2</ele>
      </trkpt>
      <trkpt lat="42.59323" lon="2.51173">
        <ele>482.4</ele>
      </trkpt>
      <trkpt lat="42.59317" lon="2.51173">
        <ele>484</ele>
      </trkpt>
      <trkpt lat="42.59312" lon="2.51173">
        <ele>485.4</ele>
      </trkpt>
      <trkpt lat="42.59307" lon="2.51171">
        <ele>485.7</ele>
      </trkpt>
      <trkpt lat="42.59296" lon="2.51167">
        <ele>486.5</ele>
      </trkpt>
      <trkpt lat="42.59286" lon="2.51162">
        <ele>487.2</ele>
      </trkpt>
      <trkpt lat="42.59277" lon="2.51157">
        <ele>487.6</ele>
      </trkpt>
      <trkpt lat="42.59272" lon="2.51155">
        <ele>488</ele>
      </trkpt>
      <trkpt lat="42.59267" lon="2.51155">
        <ele>489.3</ele>
      </trkpt>
      <trkpt lat="42.59261" lon="2.51155">
        <ele>490.8</ele>
      </trkpt>
      <trkpt lat="42.5925" lon="2.51155">
        <ele>493.7</ele>
      </trkpt>
      <trkpt lat="42.59243" lon="2.51156">
        <ele>493.9</ele>
      </trkpt>
      <trkpt lat="42.5924" lon="2.51157">
        <ele>494.3</ele>
      </trkpt>
      <trkpt lat="42.59237" lon="2.51159">
        <ele>495.1</ele>
      </trkpt>
      <trkpt lat="42.59233" lon="2.51163">
        <ele>496.7</ele>
      </trkpt>
      <trkpt lat="42.5923" lon="2.51166">
        <ele>498</ele>
      </trkpt>
      <trkpt lat="42.59229" lon="2.5117">
        <ele>499.9</ele>
      </trkpt>
      <trkpt lat="42.5922" lon="2.51187">
        <ele>507.7</ele>
      </trkpt>
      <trkpt lat="42.59219" lon="2.51189">
        <ele>508.6</ele>
      </trkpt>
      <trkpt lat="42.59218" lon="2.51193">
        <ele>510.4</ele>
      </trkpt>
      <trkpt lat="42.59215" lon="2.51199">
        <ele>513</ele>
      </trkpt>
      <trkpt lat="42.59212" lon="2.51203">
        <ele>514.6</ele>
      </trkpt>
      <trkpt lat="42.59209" lon="2.51206">
        <ele>515.7</ele>
      </trkpt>
      <trkpt lat="42.59205" lon="2.51208">
        <ele>516.3</ele>
      </trkpt>
      <trkpt lat="42.59201" lon="2.51208">
        <ele>515.9</ele>
      </trkpt>
      <trkpt lat="42.59197" lon="2.51207">
        <ele>515</ele>
      </trkpt>
      <trkpt lat="42.59193" lon="2.51204">
        <ele>513.3</ele>
      </trkpt>
      <trkpt lat="42.59189" lon="2.51202">
        <ele>512.1</ele>
      </trkpt>
      <trkpt lat="42.59186" lon="2.512">
        <ele>510.9</ele>
      </trkpt>
      <trkpt lat="42.59179" lon="2.51199">
        <ele>509.9</ele>
      </trkpt>
      <trkpt lat="42.59174" lon="2.512">
        <ele>509.9</ele>
      </trkpt>
      <trkpt lat="42.59169" lon="2.51202">
        <ele>510.2</ele>
      </trkpt>
      <trkpt lat="42.59163" lon="2.51204">
        <ele>511.3</ele>
      </trkpt>
      <trkpt lat="42.59155" lon="2.51209">
        <ele>514.2</ele>
      </trkpt>
      <trkpt lat="42.5914" lon="2.51219">
        <ele>519.6</ele>
      </trkpt>
      <trkpt lat="42.59131" lon="2.51224">
        <ele>522.2</ele>
      </trkpt>
      <trkpt lat="42.59116" lon="2.51236">
        <ele>527.2</ele>
      </trkpt>
      <trkpt lat="42.59106" lon="2.51245">
        <ele>530.5</ele>
      </trkpt>
      <trkpt lat="42.59101" lon="2.51248">
        <ele>531.6</ele>
      </trkpt>
      <trkpt lat="42.59097" lon="2.5125">
        <ele>532.3</ele>
      </trkpt>
      <trkpt lat="42.59093" lon="2.51252">
        <ele>533.1</ele>
      </trkpt>
      <trkpt lat="42.59088" lon="2.51252">
        <ele>533.3</ele>
      </trkpt>
      <trkpt lat="42.59085" lon="2.5125">
        <ele>532.9</ele>
      </trkpt>
      <trkpt lat="42.59082" lon="2.51247">
        <ele>532.7</ele>
      </trkpt>
      <trkpt lat="42.59079" lon="2.51243">
        <ele>532.8</ele>
      </trkpt>
      <trkpt lat="42.59077" lon="2.51237">
        <ele>532.1</ele>
      </trkpt>
      <trkpt lat="42.59077" lon="2.51233">
        <ele>531.2</ele>
      </trkpt>
      <trkpt lat="42.59077" lon="2.51228">
        <ele>530.1</ele>
      </trkpt>
      <trkpt lat="42.59077" lon="2.51225">
        <ele>529.4</ele>
      </trkpt>
      <trkpt lat="42.59079" lon="2.51211">
        <ele>525.4</ele>
      </trkpt>
      <trkpt lat="42.59081" lon="2.51203">
        <ele>522.7</ele>
      </trkpt>
      <trkpt lat="42.59081" lon="2.51195">
        <ele>520.8</ele>
      </trkpt>
      <trkpt lat="42.59081" lon="2.51186">
        <ele>518.7</ele>
      </trkpt>
      <trkpt lat="42.59079" lon="2.51177">
        <ele>517.4</ele>
      </trkpt>
      <trkpt lat="42.59077" lon="2.51168">
        <ele>516.3</ele>
      </trkpt>
      <trkpt lat="42.59071" lon="2.51151">
        <ele>516.4</ele>
      </trkpt>
      <trkpt lat="42.59062" lon="2.51128">
        <ele>516.9</ele>
      </trkpt>
      <trkpt lat="42.5906" lon="2.5112">
        <ele>516.6</ele>
      </trkpt>
      <trkpt lat="42.59059" lon="2.51112">
        <ele>515.7</ele>
      </trkpt>
      <trkpt lat="42.59059" lon="2.51105">
        <ele>514.6</ele>
      </trkpt>
      <trkpt lat="42.5906" lon="2.51098">
        <ele>513.1</ele>
      </trkpt>
      <trkpt lat="42.59061" lon="2.51092">
        <ele>511.7</ele>
      </trkpt>
      <trkpt lat="42.59061" lon="2.51086">
        <ele>510.8</ele>
      </trkpt>
      <trkpt lat="42.5906" lon="2.51072">
        <ele>507.6</ele>
      </trkpt>
      <trkpt lat="42.59054" lon="2.51044">
        <ele>501.7</ele>
      </trkpt>
      <trkpt lat="42.59051" lon="2.51033">
        <ele>499.5</ele>
      </trkpt>
      <trkpt lat="42.59049" lon="2.51028">
        <ele>498.6</ele>
      </trkpt>
      <trkpt lat="42.59046" lon="2.51024">
        <ele>498.3</ele>
      </trkpt>
      <trkpt lat="42.59043" lon="2.51022">
        <ele>498.6</ele>
      </trkpt>
      <trkpt lat="42.59041" lon="2.51021">
        <ele>498.9</ele>
      </trkpt>
      <trkpt lat="42.59038" lon="2.51021">
        <ele>499.8</ele>
      </trkpt>
      <trkpt lat="42.59036" lon="2.51022">
        <ele>500.7</ele>
      </trkpt>
      <trkpt lat="42.59032" lon="2.51024">
        <ele>502.6</ele>
      </trkpt>
      <trkpt lat="42.59027" lon="2.51027">
        <ele>505.2</ele>
      </trkpt>
      <trkpt lat="42.59022" lon="2.51031">
        <ele>508.2</ele>
      </trkpt>
      <trkpt lat="42.59016" lon="2.51035">
        <ele>511.6</ele>
      </trkpt>
      <trkpt lat="42.59009" lon="2.5104">
        <ele>515.8</ele>
      </trkpt>
      <trkpt lat="42.59002" lon="2.51044">
        <ele>519.7</ele>
      </trkpt>
      <trkpt lat="42.58994" lon="2.51047">
        <ele>521.2</ele>
      </trkpt>
      <trkpt lat="42.58976" lon="2.51051">
        <ele>521.6</ele>
      </trkpt>
      <trkpt lat="42.58972" lon="2.51052">
        <ele>521.8</ele>
      </trkpt>
      <trkpt lat="42.58965" lon="2.51054">
        <ele>522.1</ele>
      </trkpt>
      <trkpt lat="42.58959" lon="2.51056">
        <ele>522.6</ele>
      </trkpt>
      <trkpt lat="42.58952" lon="2.51058">
        <ele>522.9</ele>
      </trkpt>
      <trkpt lat="42.58946" lon="2.51058">
        <ele>522.5</ele>
      </trkpt>
      <trkpt lat="42.58941" lon="2.51057">
        <ele>521.8</ele>
      </trkpt>
      <trkpt lat="42.58933" lon="2.51053">
        <ele>519.7</ele>
      </trkpt>
      <trkpt lat="42.58928" lon="2.51051">
        <ele>518.5</ele>
      </trkpt>
      <trkpt lat="42.58923" lon="2.51049">
        <ele>517.4</ele>
      </trkpt>
      <trkpt lat="42.5892" lon="2.51049">
        <ele>517.2</ele>
      </trkpt>
      <trkpt lat="42.58914" lon="2.51049">
        <ele>516</ele>
      </trkpt>
      <trkpt lat="42.58909" lon="2.51051">
        <ele>514.8</ele>
      </trkpt>
      <trkpt lat="42.58905" lon="2.51055">
        <ele>514.7</ele>
      </trkpt>
      <trkpt lat="42.58901" lon="2.51059">
        <ele>514.4</ele>
      </trkpt>
      <trkpt lat="42.58898" lon="2.51065">
        <ele>515.2</ele>
      </trkpt>
      <trkpt lat="42.58888" lon="2.51085">
        <ele>516.9</ele>
      </trkpt>
      <trkpt lat="42.58876" lon="2.5112">
        <ele>524.7</ele>
      </trkpt>
      <trkpt lat="42.58871" lon="2.51133">
        <ele>527.5</ele>
      </trkpt>
      <trkpt lat="42.58869" lon="2.51143">
        <ele>530.6</ele>
      </trkpt>
      <trkpt lat="42.58864" lon="2.51155">
        <ele>533</ele>
      </trkpt>
      <trkpt lat="42.58859" lon="2.51164">
        <ele>534.2</ele>
      </trkpt>
      <trkpt lat="42.58854" lon="2.51172">
        <ele>535.1</ele>
      </trkpt>
      <trkpt lat="42.58847" lon="2.5118">
        <ele>535.1</ele>
      </trkpt>
      <trkpt lat="42.58836" lon="2.51191">
        <ele>535</ele>
      </trkpt>
      <trkpt lat="42.58825" lon="2.51201">
        <ele>536.7</ele>
      </trkpt>
      <trkpt lat="42.58815" lon="2.51209">
        <ele>538.3</ele>
      </trkpt>
      <trkpt lat="42.58815" lon="2.5121">
        <ele>538.7</ele>
      </trkpt>
      <trkpt lat="42.5881" lon="2.51214">
        <ele>539.5</ele>
      </trkpt>
      <trkpt lat="42.58802" lon="2.51225">
        <ele>542.9</ele>
      </trkpt>
      <trkpt lat="42.58795" lon="2.51237">
        <ele>546.9</ele>
      </trkpt>
      <trkpt lat="42.5879" lon="2.51246">
        <ele>549.9</ele>
      </trkpt>
      <trkpt lat="42.58786" lon="2.51252">
        <ele>551.8</ele>
      </trkpt>
      <trkpt lat="42.58783" lon="2.51255">
        <ele>552.6</ele>
      </trkpt>
      <trkpt lat="42.58779" lon="2.51259">
        <ele>553.8</ele>
      </trkpt>
      <trkpt lat="42.58776" lon="2.5126">
        <ele>553.7</ele>
      </trkpt>
      <trkpt lat="42.58771" lon="2.5126">
        <ele>552.8</ele>
      </trkpt>
      <trkpt lat="42.58767" lon="2.5126">
        <ele>552.1</ele>
      </trkpt>
      <trkpt lat="42.58763" lon="2.51258">
        <ele>550.5</ele>
      </trkpt>
      <trkpt lat="42.58749" lon="2.51247">
        <ele>542.9</ele>
      </trkpt>
      <trkpt lat="42.58745" lon="2.51244">
        <ele>542.6</ele>
      </trkpt>
      <trkpt lat="42.58742" lon="2.51242">
        <ele>542.4</ele>
      </trkpt>
      <trkpt lat="42.58737" lon="2.51242">
        <ele>543.7</ele>
      </trkpt>
      <trkpt lat="42.58734" lon="2.51242">
        <ele>544.4</ele>
      </trkpt>
      <trkpt lat="42.58731" lon="2.51244">
        <ele>546.1</ele>
      </trkpt>
      <trkpt lat="42.58727" lon="2.51246">
        <ele>548</ele>
      </trkpt>
      <trkpt lat="42.58723" lon="2.51248">
        <ele>549.9</ele>
      </trkpt>
      <trkpt lat="42.5872" lon="2.5125">
        <ele>551.6</ele>
      </trkpt>
      <trkpt lat="42.58717" lon="2.51252">
        <ele>553.3</ele>
      </trkpt>
      <trkpt lat="42.58714" lon="2.51253">
        <ele>554.5</ele>
      </trkpt>
      <trkpt lat="42.58713" lon="2.51253">
        <ele>554.8</ele>
      </trkpt>
      <trkpt lat="42.58711" lon="2.51253">
        <ele>555.3</ele>
      </trkpt>
      <trkpt lat="42.58709" lon="2.51252">
        <ele>555.3</ele>
      </trkpt>
      <trkpt lat="42.58708" lon="2.51251">
        <ele>555.1</ele>
      </trkpt>
      <trkpt lat="42.58706" lon="2.51249">
        <ele>554.6</ele>
      </trkpt>
      <trkpt lat="42.58704" lon="2.51248">
        <ele>554.7</ele>
      </trkpt>
      <trkpt lat="42.58703" lon="2.51246">
        <ele>554</ele>
      </trkpt>
      <trkpt lat="42.587" lon="2.51239">
        <ele>551.6</ele>
      </trkpt>
      <trkpt lat="42.58697" lon="2.51232">
        <ele>549.1</ele>
      </trkpt>
      <trkpt lat="42.58694" lon="2.51223">
        <ele>545.7</ele>
      </trkpt>
      <trkpt lat="42.58688" lon="2.51212">
        <ele>542.1</ele>
      </trkpt>
      <trkpt lat="42.58682" lon="2.51202">
        <ele>538.9</ele>
      </trkpt>
      <trkpt lat="42.58676" lon="2.51193">
        <ele>536.1</ele>
      </trkpt>
      <trkpt lat="42.5867" lon="2.51185">
        <ele>533.8</ele>
      </trkpt>
      <trkpt lat="42.58661" lon="2.51177">
        <ele>531.2</ele>
      </trkpt>
      <trkpt lat="42.58654" lon="2.51171">
        <ele>528.7</ele>
      </trkpt>
      <trkpt lat="42.58646" lon="2.51168">
        <ele>527.7</ele>
      </trkpt>
      <trkpt lat="42.58642" lon="2.51168">
        <ele>527.9</ele>
      </trkpt>
      <trkpt lat="42.58641" lon="2.51169">
        <ele>528.4</ele>
      </trkpt>
      <trkpt lat="42.58639" lon="2.51171">
        <ele>529.6</ele>
      </trkpt>
      <trkpt lat="42.58638" lon="2.51172">
        <ele>530.1</ele>
      </trkpt>
      <trkpt lat="42.58634" lon="2.51176">
        <ele>532.4</ele>
      </trkpt>
      <trkpt lat="42.5863" lon="2.5118">
        <ele>534.8</ele>
      </trkpt>
      <trkpt lat="42.58626" lon="2.51182">
        <ele>536.1</ele>
      </trkpt>
      <trkpt lat="42.58621" lon="2.51184">
        <ele>537.6</ele>
      </trkpt>
      <trkpt lat="42.58617" lon="2.51184">
        <ele>537.9</ele>
      </trkpt>
      <trkpt lat="42.58612" lon="2.51183">
        <ele>537.7</ele>
      </trkpt>
      <trkpt lat="42.58605" lon="2.51182">
        <ele>537.6</ele>
      </trkpt>
      <trkpt lat="42.58597" lon="2.51181">
        <ele>537.6</ele>
      </trkpt>
      <trkpt lat="42.58593" lon="2.51182">
        <ele>538.5</ele>
      </trkpt>
      <trkpt lat="42.58588" lon="2.51184">
        <ele>540.1</ele>
      </trkpt>
      <trkpt lat="42.58584" lon="2.51188">
        <ele>542.8</ele>
      </trkpt>
      <trkpt lat="42.58581" lon="2.51192">
        <ele>545.2</ele>
      </trkpt>
      <trkpt lat="42.58577" lon="2.51197">
        <ele>548.1</ele>
      </trkpt>
      <trkpt lat="42.58573" lon="2.51201">
        <ele>550.3</ele>
      </trkpt>
      <trkpt lat="42.58568" lon="2.51204">
        <ele>551.9</ele>
      </trkpt>
      <trkpt lat="42.58564" lon="2.51207">
        <ele>553.4</ele>
      </trkpt>
      <trkpt lat="42.58559" lon="2.51209">
        <ele>554.4</ele>
      </trkpt>
      <trkpt lat="42.58553" lon="2.51212">
        <ele>555.7</ele>
      </trkpt>
      <trkpt lat="42.58543" lon="2.51215">
        <ele>556.8</ele>
      </trkpt>
      <trkpt lat="42.58532" lon="2.51218">
        <ele>557.7</ele>
      </trkpt>
      <trkpt lat="42.58521" lon="2.51219">
        <ele>557.5</ele>
      </trkpt>
      <trkpt lat="42.58517" lon="2.51219">
        <ele>557.3</ele>
      </trkpt>
      <trkpt lat="42.58508" lon="2.5122">
        <ele>557.2</ele>
      </trkpt>
      <trkpt lat="42.58503" lon="2.51222">
        <ele>557.8</ele>
      </trkpt>
      <trkpt lat="42.58498" lon="2.51225">
        <ele>559.5</ele>
      </trkpt>
      <trkpt lat="42.58494" lon="2.51228">
        <ele>562.1</ele>
      </trkpt>
      <trkpt lat="42.58491" lon="2.51232">
        <ele>564.7</ele>
      </trkpt>
      <trkpt lat="42.58487" lon="2.51235">
        <ele>567.1</ele>
      </trkpt>
      <trkpt lat="42.5848" lon="2.51242">
        <ele>571.9</ele>
      </trkpt>
      <trkpt lat="42.58473" lon="2.51245">
        <ele>574.9</ele>
      </trkpt>
      <trkpt lat="42.58468" lon="2.51246">
        <ele>576.6</ele>
      </trkpt>
      <trkpt lat="42.58466" lon="2.51245">
        <ele>576.8</ele>
      </trkpt>
      <trkpt lat="42.58464" lon="2.51244">
        <ele>576.9</ele>
      </trkpt>
      <trkpt lat="42.5846" lon="2.5124">
        <ele>576.6</ele>
      </trkpt>
      <trkpt lat="42.58456" lon="2.51233">
        <ele>575.4</ele>
      </trkpt>
      <trkpt lat="42.58454" lon="2.51228">
        <ele>574.3</ele>
      </trkpt>
      <trkpt lat="42.58453" lon="2.51224">
        <ele>573.3</ele>
      </trkpt>
      <trkpt lat="42.58451" lon="2.51215">
        <ele>571</ele>
      </trkpt>
      <trkpt lat="42.5845" lon="2.5121">
        <ele>569.7</ele>
      </trkpt>
      <trkpt lat="42.58448" lon="2.51197">
        <ele>566.3</ele>
      </trkpt>
      <trkpt lat="42.58446" lon="2.51186">
        <ele>563.7</ele>
      </trkpt>
      <trkpt lat="42.58443" lon="2.51175">
        <ele>561.5</ele>
      </trkpt>
      <trkpt lat="42.5844" lon="2.51165">
        <ele>559.8</ele>
      </trkpt>
      <trkpt lat="42.58436" lon="2.51152">
        <ele>557.3</ele>
      </trkpt>
      <trkpt lat="42.58432" lon="2.51143">
        <ele>556.1</ele>
      </trkpt>
      <trkpt lat="42.58425" lon="2.51133">
        <ele>555.9</ele>
      </trkpt>
      <trkpt lat="42.5842" lon="2.51128">
        <ele>556.5</ele>
      </trkpt>
      <trkpt lat="42.58411" lon="2.51119">
        <ele>555.3</ele>
      </trkpt>
      <trkpt lat="42.58402" lon="2.51112">
        <ele>553.3</ele>
      </trkpt>
      <trkpt lat="42.5839" lon="2.51106">
        <ele>551.6</ele>
      </trkpt>
      <trkpt lat="42.58383" lon="2.51101">
        <ele>549.9</ele>
      </trkpt>
      <trkpt lat="42.58374" lon="2.51099">
        <ele>549.3</ele>
      </trkpt>
      <trkpt lat="42.58367" lon="2.51099">
        <ele>549.5</ele>
      </trkpt>
      <trkpt lat="42.5836" lon="2.511">
        <ele>550.1</ele>
      </trkpt>
      <trkpt lat="42.5835" lon="2.51103">
        <ele>551.7</ele>
      </trkpt>
      <trkpt lat="42.58326" lon="2.51109">
        <ele>554.1</ele>
      </trkpt>
      <trkpt lat="42.58315" lon="2.51113">
        <ele>554.4</ele>
      </trkpt>
      <trkpt lat="42.58307" lon="2.51116">
        <ele>554.7</ele>
      </trkpt>
      <trkpt lat="42.583" lon="2.51121">
        <ele>555.9</ele>
      </trkpt>
      <trkpt lat="42.58293" lon="2.51128">
        <ele>558</ele>
      </trkpt>
      <trkpt lat="42.58286" lon="2.51134">
        <ele>559.5</ele>
      </trkpt>
      <trkpt lat="42.58256" lon="2.51148">
        <ele>560.6</ele>
      </trkpt>
      <trkpt lat="42.58252" lon="2.51152">
        <ele>561.5</ele>
      </trkpt>
      <trkpt lat="42.5825" lon="2.51157">
        <ele>563.2</ele>
      </trkpt>
      <trkpt lat="42.58247" lon="2.51162">
        <ele>563.5</ele>
      </trkpt>
      <trkpt lat="42.58245" lon="2.51167">
        <ele>564.3</ele>
      </trkpt>
      <trkpt lat="42.58244" lon="2.51172">
        <ele>564.8</ele>
      </trkpt>
      <trkpt lat="42.58242" lon="2.51177">
        <ele>564.7</ele>
      </trkpt>
      <trkpt lat="42.5824" lon="2.51192">
        <ele>566.7</ele>
      </trkpt>
      <trkpt lat="42.5824" lon="2.51201">
        <ele>568.6</ele>
      </trkpt>
      <trkpt lat="42.58239" lon="2.51219">
        <ele>571.9</ele>
      </trkpt>
      <trkpt lat="42.58234" lon="2.51261">
        <ele>576.8</ele>
      </trkpt>
      <trkpt lat="42.58229" lon="2.51297">
        <ele>578.5</ele>
      </trkpt>
      <trkpt lat="42.58214" lon="2.51395">
        <ele>587</ele>
      </trkpt>
      <trkpt lat="42.58211" lon="2.51418">
        <ele>589.9</ele>
      </trkpt>
      <trkpt lat="42.58209" lon="2.51438">
        <ele>592.2</ele>
      </trkpt>
      <trkpt lat="42.58207" lon="2.51456">
        <ele>594.3</ele>
      </trkpt>
      <trkpt lat="42.58206" lon="2.51474">
        <ele>596.9</ele>
      </trkpt>
      <trkpt lat="42.58205" lon="2.51487">
        <ele>598.6</ele>
      </trkpt>
      <trkpt lat="42.58202" lon="2.51496">
        <ele>598.9</ele>
      </trkpt>
      <trkpt lat="42.58197" lon="2.51502">
        <ele>598.2</ele>
      </trkpt>
      <trkpt lat="42.58192" lon="2.51504">
        <ele>596.8</ele>
      </trkpt>
      <trkpt lat="42.58186" lon="2.51505">
        <ele>594.7</ele>
      </trkpt>
      <trkpt lat="42.58182" lon="2.51504">
        <ele>592.9</ele>
      </trkpt>
      <trkpt lat="42.58175" lon="2.51501">
        <ele>589.5</ele>
      </trkpt>
      <trkpt lat="42.58162" lon="2.51495">
        <ele>585.8</ele>
      </trkpt>
      <trkpt lat="42.58157" lon="2.51491">
        <ele>585.9</ele>
      </trkpt>
      <trkpt lat="42.58145" lon="2.51479">
        <ele>585.3</ele>
      </trkpt>
      <trkpt lat="42.58134" lon="2.5146">
        <ele>582.5</ele>
      </trkpt>
      <trkpt lat="42.58131" lon="2.51454">
        <ele>581.5</ele>
      </trkpt>
      <trkpt lat="42.58129" lon="2.51447">
        <ele>580</ele>
      </trkpt>
      <trkpt lat="42.58128" lon="2.51435">
        <ele>577.2</ele>
      </trkpt>
      <trkpt lat="42.58128" lon="2.51423">
        <ele>574.3</ele>
      </trkpt>
      <trkpt lat="42.58127" lon="2.51413">
        <ele>571.7</ele>
      </trkpt>
      <trkpt lat="42.58125" lon="2.51406">
        <ele>569.6</ele>
      </trkpt>
      <trkpt lat="42.58123" lon="2.514">
        <ele>567.8</ele>
      </trkpt>
      <trkpt lat="42.58119" lon="2.51394">
        <ele>565.9</ele>
      </trkpt>
      <trkpt lat="42.58116" lon="2.51392">
        <ele>565.3</ele>
      </trkpt>
      <trkpt lat="42.58111" lon="2.51389">
        <ele>564.4</ele>
      </trkpt>
      <trkpt lat="42.58104" lon="2.51389">
        <ele>564.5</ele>
      </trkpt>
      <trkpt lat="42.58095" lon="2.51389">
        <ele>564.6</ele>
      </trkpt>
      <trkpt lat="42.58091" lon="2.5139">
        <ele>565</ele>
      </trkpt>
      <trkpt lat="42.58086" lon="2.51393">
        <ele>566.3</ele>
      </trkpt>
      <trkpt lat="42.58075" lon="2.51405">
        <ele>569.6</ele>
      </trkpt>
      <trkpt lat="42.58066" lon="2.51418">
        <ele>573.1</ele>
      </trkpt>
      <trkpt lat="42.58058" lon="2.51436">
        <ele>577.5</ele>
      </trkpt>
      <trkpt lat="42.58051" lon="2.5145">
        <ele>581</ele>
      </trkpt>
      <trkpt lat="42.58048" lon="2.51457">
        <ele>583</ele>
      </trkpt>
      <trkpt lat="42.58042" lon="2.51464">
        <ele>584.5</ele>
      </trkpt>
      <trkpt lat="42.58032" lon="2.51471">
        <ele>585.7</ele>
      </trkpt>
      <trkpt lat="42.58021" lon="2.51476">
        <ele>586.1</ele>
      </trkpt>
      <trkpt lat="42.58009" lon="2.51478">
        <ele>585.4</ele>
      </trkpt>
      <trkpt lat="42.57999" lon="2.51478">
        <ele>584.2</ele>
      </trkpt>
      <trkpt lat="42.57982" lon="2.51476">
        <ele>582.5</ele>
      </trkpt>
      <trkpt lat="42.57975" lon="2.51475">
        <ele>581.6</ele>
      </trkpt>
      <trkpt lat="42.57966" lon="2.51476">
        <ele>581.5</ele>
      </trkpt>
      <trkpt lat="42.57948" lon="2.51479">
        <ele>581.7</ele>
      </trkpt>
      <trkpt lat="42.57939" lon="2.51479">
        <ele>581.2</ele>
      </trkpt>
      <trkpt lat="42.57928" lon="2.51475">
        <ele>578.9</ele>
      </trkpt>
      <trkpt lat="42.57915" lon="2.51469">
        <ele>575.2</ele>
      </trkpt>
      <trkpt lat="42.57912" lon="2.51468">
        <ele>574</ele>
      </trkpt>
      <trkpt lat="42.57909" lon="2.51469">
        <ele>573.6</ele>
      </trkpt>
      <trkpt lat="42.579" lon="2.51471">
        <ele>572.1</ele>
      </trkpt>
      <trkpt lat="42.57891" lon="2.51477">
        <ele>572.4</ele>
      </trkpt>
      <trkpt lat="42.57864" lon="2.51499">
        <ele>575.3</ele>
      </trkpt>
      <trkpt lat="42.57863" lon="2.515">
        <ele>575.5</ele>
      </trkpt>
      <trkpt lat="42.57857" lon="2.51504">
        <ele>575.7</ele>
      </trkpt>
      <trkpt lat="42.57852" lon="2.51508">
        <ele>576.1</ele>
      </trkpt>
      <trkpt lat="42.57846" lon="2.51512">
        <ele>576.4</ele>
      </trkpt>
      <trkpt lat="42.57841" lon="2.51515">
        <ele>576.5</ele>
      </trkpt>
      <trkpt lat="42.57837" lon="2.51518">
        <ele>576.9</ele>
      </trkpt>
      <trkpt lat="42.5783" lon="2.51524">
        <ele>577.3</ele>
      </trkpt>
      <trkpt lat="42.57824" lon="2.51529">
        <ele>577.1</ele>
      </trkpt>
      <trkpt lat="42.57813" lon="2.51544">
        <ele>579.2</ele>
      </trkpt>
      <trkpt lat="42.57806" lon="2.51553">
        <ele>580.3</ele>
      </trkpt>
      <trkpt lat="42.57798" lon="2.51564">
        <ele>581.8</ele>
      </trkpt>
      <trkpt lat="42.5779" lon="2.51573">
        <ele>582.3</ele>
      </trkpt>
      <trkpt lat="42.57784" lon="2.51579">
        <ele>582.4</ele>
      </trkpt>
      <trkpt lat="42.57776" lon="2.51585">
        <ele>581.6</ele>
      </trkpt>
      <trkpt lat="42.5776" lon="2.51596">
        <ele>579.2</ele>
      </trkpt>
      <trkpt lat="42.57742" lon="2.51608">
        <ele>577</ele>
      </trkpt>
      <trkpt lat="42.57739" lon="2.5161">
        <ele>576.8</ele>
      </trkpt>
      <trkpt lat="42.57736" lon="2.51612">
        <ele>576.5</ele>
      </trkpt>
      <trkpt lat="42.57732" lon="2.51614">
        <ele>575.9</ele>
      </trkpt>
      <trkpt lat="42.57729" lon="2.51617">
        <ele>576</ele>
      </trkpt>
      <trkpt lat="42.57726" lon="2.51619">
        <ele>575.7</ele>
      </trkpt>
      <trkpt lat="42.57723" lon="2.51621">
        <ele>575.4</ele>
      </trkpt>
      <trkpt lat="42.5772" lon="2.51624">
        <ele>575.5</ele>
      </trkpt>
      <trkpt lat="42.57718" lon="2.51627">
        <ele>575.9</ele>
      </trkpt>
      <trkpt lat="42.57715" lon="2.5163">
        <ele>576</ele>
      </trkpt>
      <trkpt lat="42.57713" lon="2.51632">
        <ele>576</ele>
      </trkpt>
      <trkpt lat="42.5771" lon="2.51636">
        <ele>576.4</ele>
      </trkpt>
      <trkpt lat="42.57705" lon="2.51644">
        <ele>577.5</ele>
      </trkpt>
      <trkpt lat="42.57701" lon="2.5165">
        <ele>578.2</ele>
      </trkpt>
      <trkpt lat="42.57698" lon="2.51657">
        <ele>579.6</ele>
      </trkpt>
      <trkpt lat="42.57696" lon="2.51665">
        <ele>581.7</ele>
      </trkpt>
      <trkpt lat="42.57694" lon="2.51672">
        <ele>582.6</ele>
      </trkpt>
      <trkpt lat="42.57693" lon="2.51679">
        <ele>583.6</ele>
      </trkpt>
      <trkpt lat="42.57691" lon="2.51693">
        <ele>585.6</ele>
      </trkpt>
      <trkpt lat="42.57689" lon="2.51712">
        <ele>588.6</ele>
      </trkpt>
      <trkpt lat="42.57689" lon="2.51714">
        <ele>589</ele>
      </trkpt>
      <trkpt lat="42.57688" lon="2.51717">
        <ele>589.2</ele>
      </trkpt>
      <trkpt lat="42.57688" lon="2.51719">
        <ele>589.6</ele>
      </trkpt>
      <trkpt lat="42.57686" lon="2.51722">
        <ele>589.4</ele>
      </trkpt>
      <trkpt lat="42.57685" lon="2.51724">
        <ele>589.4</ele>
      </trkpt>
      <trkpt lat="42.57684" lon="2.51725">
        <ele>589.2</ele>
      </trkpt>
      <trkpt lat="42.57681" lon="2.51726">
        <ele>588.1</ele>
      </trkpt>
      <trkpt lat="42.57679" lon="2.51727">
        <ele>587.5</ele>
      </trkpt>
      <trkpt lat="42.57677" lon="2.51727">
        <ele>586.7</ele>
      </trkpt>
      <trkpt lat="42.57675" lon="2.51727">
        <ele>585.9</ele>
      </trkpt>
      <trkpt lat="42.57641" lon="2.51729">
        <ele>576</ele>
      </trkpt>
      <trkpt lat="42.57636" lon="2.5173">
        <ele>574.9</ele>
      </trkpt>
      <trkpt lat="42.57633" lon="2.51731">
        <ele>574.2</ele>
      </trkpt>
      <trkpt lat="42.5763" lon="2.51733">
        <ele>573.7</ele>
      </trkpt>
      <trkpt lat="42.57627" lon="2.51735">
        <ele>573.2</ele>
      </trkpt>
      <trkpt lat="42.57625" lon="2.51736">
        <ele>572.8</ele>
      </trkpt>
      <trkpt lat="42.57623" lon="2.51738">
        <ele>572.6</ele>
      </trkpt>
      <trkpt lat="42.5762" lon="2.51739">
        <ele>571.9</ele>
      </trkpt>
      <trkpt lat="42.57617" lon="2.51741">
        <ele>571.4</ele>
      </trkpt>
      <trkpt lat="42.57615" lon="2.51743">
        <ele>571.1</ele>
      </trkpt>
      <trkpt lat="42.57612" lon="2.51746">
        <ele>570.7</ele>
      </trkpt>
      <trkpt lat="42.57608" lon="2.51748">
        <ele>569.8</ele>
      </trkpt>
      <trkpt lat="42.57605" lon="2.51752">
        <ele>569.4</ele>
      </trkpt>
      <trkpt lat="42.57604" lon="2.51753">
        <ele>569.2</ele>
      </trkpt>
      <trkpt lat="42.576" lon="2.51759">
        <ele>568.5</ele>
      </trkpt>
      <trkpt lat="42.57598" lon="2.51762">
        <ele>568.1</ele>
      </trkpt>
      <trkpt lat="42.57597" lon="2.51764">
        <ele>567.9</ele>
      </trkpt>
      <trkpt lat="42.57595" lon="2.51768">
        <ele>567.6</ele>
      </trkpt>
      <trkpt lat="42.57594" lon="2.51772">
        <ele>567.6</ele>
      </trkpt>
      <trkpt lat="42.57593" lon="2.51775">
        <ele>567.5</ele>
      </trkpt>
      <trkpt lat="42.57592" lon="2.51779">
        <ele>567.5</ele>
      </trkpt>
      <trkpt lat="42.57591" lon="2.51783">
        <ele>567.4</ele>
      </trkpt>
      <trkpt lat="42.57591" lon="2.51786">
        <ele>567.6</ele>
      </trkpt>
      <trkpt lat="42.57591" lon="2.5179">
        <ele>567.9</ele>
      </trkpt>
      <trkpt lat="42.57593" lon="2.51795">
        <ele>568.9</ele>
      </trkpt>
      <trkpt lat="42.57595" lon="2.51799">
        <ele>569.8</ele>
      </trkpt>
      <trkpt lat="42.57598" lon="2.51803">
        <ele>571.1</ele>
      </trkpt>
      <trkpt lat="42.57605" lon="2.51807">
        <ele>573.7</ele>
      </trkpt>
      <trkpt lat="42.57608" lon="2.51808">
        <ele>574.8</ele>
      </trkpt>
      <trkpt lat="42.57611" lon="2.51808">
        <ele>575.8</ele>
      </trkpt>
      <trkpt lat="42.57614" lon="2.51809">
        <ele>576.9</ele>
      </trkpt>
      <trkpt lat="42.57617" lon="2.51809">
        <ele>578</ele>
      </trkpt>
      <trkpt lat="42.57619" lon="2.5181">
        <ele>578.7</ele>
      </trkpt>
      <trkpt lat="42.57622" lon="2.51812">
        <ele>579.9</ele>
      </trkpt>
      <trkpt lat="42.57623" lon="2.51815">
        <ele>580.6</ele>
      </trkpt>
      <trkpt lat="42.57625" lon="2.51817">
        <ele>581.4</ele>
      </trkpt>
      <trkpt lat="42.57626" lon="2.5182">
        <ele>582.1</ele>
      </trkpt>
      <trkpt lat="42.57626" lon="2.51823">
        <ele>582.4</ele>
      </trkpt>
      <trkpt lat="42.57626" lon="2.51825">
        <ele>582.6</ele>
      </trkpt>
      <trkpt lat="42.57626" lon="2.51828">
        <ele>582.8</ele>
      </trkpt>
      <trkpt lat="42.57626" lon="2.51832">
        <ele>583.2</ele>
      </trkpt>
      <trkpt lat="42.57625" lon="2.51835">
        <ele>583.4</ele>
      </trkpt>
      <trkpt lat="42.57624" lon="2.51838">
        <ele>583.7</ele>
      </trkpt>
      <trkpt lat="42.57622" lon="2.51841">
        <ele>583.6</ele>
      </trkpt>
      <trkpt lat="42.57617" lon="2.51848">
        <ele>583.4</ele>
      </trkpt>
      <trkpt lat="42.57609" lon="2.51859">
        <ele>583.3</ele>
      </trkpt>
      <trkpt lat="42.57605" lon="2.51866">
        <ele>583.6</ele>
      </trkpt>
      <trkpt lat="42.57605" lon="2.51867">
        <ele>583.9</ele>
      </trkpt>
      <trkpt lat="42.57603" lon="2.51869">
        <ele>583.7</ele>
      </trkpt>
      <trkpt lat="42.57601" lon="2.51872">
        <ele>583.8</ele>
      </trkpt>
      <trkpt lat="42.57599" lon="2.51876">
        <ele>584.1</ele>
      </trkpt>
      <trkpt lat="42.57598" lon="2.51879">
        <ele>584.6</ele>
      </trkpt>
      <trkpt lat="42.57596" lon="2.51883">
        <ele>585</ele>
      </trkpt>
      <trkpt lat="42.57595" lon="2.51887">
        <ele>585.7</ele>
      </trkpt>
      <trkpt lat="42.57594" lon="2.5189">
        <ele>586.1</ele>
      </trkpt>
      <trkpt lat="42.57593" lon="2.51895">
        <ele>587.1</ele>
      </trkpt>
      <trkpt lat="42.57593" lon="2.51898">
        <ele>587.8</ele>
      </trkpt>
      <trkpt lat="42.57592" lon="2.51904">
        <ele>589.1</ele>
      </trkpt>
      <trkpt lat="42.57591" lon="2.51908">
        <ele>589.8</ele>
      </trkpt>
      <trkpt lat="42.5759" lon="2.51912">
        <ele>590.6</ele>
      </trkpt>
      <trkpt lat="42.57589" lon="2.51916">
        <ele>591.3</ele>
      </trkpt>
      <trkpt lat="42.57587" lon="2.51919">
        <ele>591.9</ele>
      </trkpt>
      <trkpt lat="42.57585" lon="2.51921">
        <ele>592.3</ele>
      </trkpt>
      <trkpt lat="42.57583" lon="2.51923">
        <ele>592.7</ele>
      </trkpt>
      <trkpt lat="42.57581" lon="2.51924">
        <ele>593.4</ele>
      </trkpt>
      <trkpt lat="42.57578" lon="2.51925">
        <ele>594.3</ele>
      </trkpt>
      <trkpt lat="42.57575" lon="2.51926">
        <ele>595.1</ele>
      </trkpt>
      <trkpt lat="42.57573" lon="2.51925">
        <ele>595</ele>
      </trkpt>
      <trkpt lat="42.57571" lon="2.51924">
        <ele>594.8</ele>
      </trkpt>
      <trkpt lat="42.5757" lon="2.51922">
        <ele>594.1</ele>
      </trkpt>
      <trkpt lat="42.57568" lon="2.51919">
        <ele>593.1</ele>
      </trkpt>
      <trkpt lat="42.57566" lon="2.51915">
        <ele>591.8</ele>
      </trkpt>
      <trkpt lat="42.57565" lon="2.5191">
        <ele>590.3</ele>
      </trkpt>
      <trkpt lat="42.57563" lon="2.51904">
        <ele>588.7</ele>
      </trkpt>
      <trkpt lat="42.5756" lon="2.519">
        <ele>587.7</ele>
      </trkpt>
      <trkpt lat="42.57559" lon="2.51897">
        <ele>586.8</ele>
      </trkpt>
      <trkpt lat="42.57556" lon="2.51893">
        <ele>585.7</ele>
      </trkpt>
      <trkpt lat="42.57553" lon="2.51889">
        <ele>584.5</ele>
      </trkpt>
      <trkpt lat="42.57549" lon="2.51886">
        <ele>583.7</ele>
      </trkpt>
      <trkpt lat="42.57545" lon="2.51884">
        <ele>583.2</ele>
      </trkpt>
      <trkpt lat="42.57542" lon="2.51882">
        <ele>582.6</ele>
      </trkpt>
      <trkpt lat="42.57538" lon="2.5188">
        <ele>582</ele>
      </trkpt>
      <trkpt lat="42.57531" lon="2.51878">
        <ele>581.5</ele>
      </trkpt>
      <trkpt lat="42.5752" lon="2.51877">
        <ele>581.4</ele>
      </trkpt>
      <trkpt lat="42.57505" lon="2.51878">
        <ele>582.3</ele>
      </trkpt>
      <trkpt lat="42.57477" lon="2.51882">
        <ele>584.5</ele>
      </trkpt>
      <trkpt lat="42.57461" lon="2.51882">
        <ele>584.5</ele>
      </trkpt>
      <trkpt lat="42.57442" lon="2.5188">
        <ele>583.8</ele>
      </trkpt>
      <trkpt lat="42.57407" lon="2.51871">
        <ele>580.3</ele>
      </trkpt>
      <trkpt lat="42.57396" lon="2.51867">
        <ele>578.6</ele>
      </trkpt>
      <trkpt lat="42.57384" lon="2.51858">
        <ele>575</ele>
      </trkpt>
      <trkpt lat="42.5737" lon="2.51848">
        <ele>571</ele>
      </trkpt>
      <trkpt lat="42.57362" lon="2.51841">
        <ele>568.2</ele>
      </trkpt>
      <trkpt lat="42.57359" lon="2.51839">
        <ele>567.4</ele>
      </trkpt>
      <trkpt lat="42.57356" lon="2.51838">
        <ele>567</ele>
      </trkpt>
      <trkpt lat="42.57352" lon="2.51837">
        <ele>566.6</ele>
      </trkpt>
      <trkpt lat="42.5735" lon="2.51838">
        <ele>567</ele>
      </trkpt>
      <trkpt lat="42.57346" lon="2.51839">
        <ele>567.3</ele>
      </trkpt>
      <trkpt lat="42.57342" lon="2.51843">
        <ele>568.7</ele>
      </trkpt>
      <trkpt lat="42.57339" lon="2.51846">
        <ele>569.8</ele>
      </trkpt>
      <trkpt lat="42.57333" lon="2.51857">
        <ele>573.7</ele>
      </trkpt>
      <trkpt lat="42.57326" lon="2.51871">
        <ele>576.9</ele>
      </trkpt>
      <trkpt lat="42.5732" lon="2.51885">
        <ele>579.9</ele>
      </trkpt>
      <trkpt lat="42.57316" lon="2.51892">
        <ele>580.9</ele>
      </trkpt>
      <trkpt lat="42.57312" lon="2.51897">
        <ele>581.1</ele>
      </trkpt>
      <trkpt lat="42.57307" lon="2.51905">
        <ele>581.7</ele>
      </trkpt>
      <trkpt lat="42.57303" lon="2.51912">
        <ele>582.3</ele>
      </trkpt>
      <trkpt lat="42.57296" lon="2.51919">
        <ele>581.5</ele>
      </trkpt>
      <trkpt lat="42.57287" lon="2.5193">
        <ele>581</ele>
      </trkpt>
      <trkpt lat="42.57282" lon="2.51936">
        <ele>580.4</ele>
      </trkpt>
      <trkpt lat="42.57278" lon="2.51943">
        <ele>580.4</ele>
      </trkpt>
      <trkpt lat="42.57275" lon="2.51949">
        <ele>580.5</ele>
      </trkpt>
      <trkpt lat="42.57274" lon="2.51956">
        <ele>581.7</ele>
      </trkpt>
      <trkpt lat="42.57272" lon="2.51965">
        <ele>582.9</ele>
      </trkpt>
      <trkpt lat="42.5727" lon="2.51975">
        <ele>584.2</ele>
      </trkpt>
      <trkpt lat="42.57269" lon="2.51982">
        <ele>585.3</ele>
      </trkpt>
      <trkpt lat="42.57265" lon="2.5199">
        <ele>584.7</ele>
      </trkpt>
      <trkpt lat="42.5726" lon="2.52002">
        <ele>584.4</ele>
      </trkpt>
      <trkpt lat="42.57254" lon="2.52012">
        <ele>584.5</ele>
      </trkpt>
      <trkpt lat="42.5725" lon="2.5202">
        <ele>585.2</ele>
      </trkpt>
      <trkpt lat="42.57246" lon="2.52028">
        <ele>587</ele>
      </trkpt>
      <trkpt lat="42.57243" lon="2.52034">
        <ele>588.2</ele>
      </trkpt>
      <trkpt lat="42.57243" lon="2.52036">
        <ele>589</ele>
      </trkpt>
      <trkpt lat="42.57238" lon="2.52048">
        <ele>591.5</ele>
      </trkpt>
      <trkpt lat="42.57234" lon="2.52059">
        <ele>593.7</ele>
      </trkpt>
      <trkpt lat="42.5723" lon="2.5207">
        <ele>595.7</ele>
      </trkpt>
      <trkpt lat="42.57228" lon="2.52081">
        <ele>598.3</ele>
      </trkpt>
      <trkpt lat="42.57225" lon="2.52087">
        <ele>598.9</ele>
      </trkpt>
      <trkpt lat="42.57222" lon="2.52091">
        <ele>598.7</ele>
      </trkpt>
      <trkpt lat="42.57216" lon="2.52097">
        <ele>597.7</ele>
      </trkpt>
      <trkpt lat="42.57208" lon="2.52105">
        <ele>596.4</ele>
      </trkpt>
      <trkpt lat="42.57199" lon="2.52114">
        <ele>595</ele>
      </trkpt>
      <trkpt lat="42.57197" lon="2.52115">
        <ele>594.3</ele>
      </trkpt>
      <trkpt lat="42.57188" lon="2.52124">
        <ele>592.9</ele>
      </trkpt>
      <trkpt lat="42.57172" lon="2.52136">
        <ele>589</ele>
      </trkpt>
      <trkpt lat="42.5716" lon="2.52147">
        <ele>588.2</ele>
      </trkpt>
      <trkpt lat="42.57144" lon="2.52161">
        <ele>587.4</ele>
      </trkpt>
      <trkpt lat="42.57131" lon="2.52173">
        <ele>586.5</ele>
      </trkpt>
      <trkpt lat="42.57119" lon="2.52186">
        <ele>586.2</ele>
      </trkpt>
      <trkpt lat="42.57109" lon="2.52197">
        <ele>585.7</ele>
      </trkpt>
      <trkpt lat="42.57102" lon="2.52205">
        <ele>585.4</ele>
      </trkpt>
      <trkpt lat="42.57098" lon="2.5221">
        <ele>585.3</ele>
      </trkpt>
      <trkpt lat="42.57094" lon="2.52218">
        <ele>586.1</ele>
      </trkpt>
      <trkpt lat="42.57091" lon="2.52226">
        <ele>587.2</ele>
      </trkpt>
      <trkpt lat="42.57089" lon="2.52233">
        <ele>588.5</ele>
      </trkpt>
      <trkpt lat="42.57088" lon="2.52239">
        <ele>589.8</ele>
      </trkpt>
      <trkpt lat="42.57088" lon="2.52253">
        <ele>594</ele>
      </trkpt>
      <trkpt lat="42.57088" lon="2.52265">
        <ele>597.4</ele>
      </trkpt>
      <trkpt lat="42.57087" lon="2.52274">
        <ele>599.5</ele>
      </trkpt>
      <trkpt lat="42.57086" lon="2.52278">
        <ele>600.2</ele>
      </trkpt>
      <trkpt lat="42.57085" lon="2.52281">
        <ele>600.6</ele>
      </trkpt>
      <trkpt lat="42.57082" lon="2.52284">
        <ele>600.7</ele>
      </trkpt>
      <trkpt lat="42.57079" lon="2.52285">
        <ele>600.9</ele>
      </trkpt>
      <trkpt lat="42.57077" lon="2.52285">
        <ele>600.8</ele>
      </trkpt>
      <trkpt lat="42.57075" lon="2.52285">
        <ele>600.7</ele>
      </trkpt>
      <trkpt lat="42.57073" lon="2.52285">
        <ele>600.6</ele>
      </trkpt>
      <trkpt lat="42.57072" lon="2.52283">
        <ele>599.9</ele>
      </trkpt>
      <trkpt lat="42.5707" lon="2.5228">
        <ele>598.9</ele>
      </trkpt>
      <trkpt lat="42.57068" lon="2.52275">
        <ele>597.3</ele>
      </trkpt>
      <trkpt lat="42.57062" lon="2.52266">
        <ele>594.2</ele>
      </trkpt>
      <trkpt lat="42.57059" lon="2.52262">
        <ele>592.7</ele>
      </trkpt>
      <trkpt lat="42.57052" lon="2.52257">
        <ele>590.6</ele>
      </trkpt>
      <trkpt lat="42.5705" lon="2.52257">
        <ele>590.5</ele>
      </trkpt>
      <trkpt lat="42.57047" lon="2.52257">
        <ele>590.2</ele>
      </trkpt>
      <trkpt lat="42.57042" lon="2.52257">
        <ele>589.8</ele>
      </trkpt>
      <trkpt lat="42.57037" lon="2.52259">
        <ele>590.1</ele>
      </trkpt>
      <trkpt lat="42.57031" lon="2.52261">
        <ele>590.4</ele>
      </trkpt>
      <trkpt lat="42.57021" lon="2.52266">
        <ele>591.4</ele>
      </trkpt>
      <trkpt lat="42.57014" lon="2.52267">
        <ele>591.3</ele>
      </trkpt>
      <trkpt lat="42.57009" lon="2.52269">
        <ele>591.7</ele>
      </trkpt>
      <trkpt lat="42.57002" lon="2.5227">
        <ele>591.6</ele>
      </trkpt>
      <trkpt lat="42.56972" lon="2.52272">
        <ele>586.9</ele>
      </trkpt>
      <trkpt lat="42.56958" lon="2.5227">
        <ele>583.5</ele>
      </trkpt>
      <trkpt lat="42.56953" lon="2.5227">
        <ele>582.6</ele>
      </trkpt>
      <trkpt lat="42.56948" lon="2.52272">
        <ele>582.3</ele>
      </trkpt>
      <trkpt lat="42.56945" lon="2.52275">
        <ele>582.7</ele>
      </trkpt>
      <trkpt lat="42.56942" lon="2.52279">
        <ele>583.4</ele>
      </trkpt>
      <trkpt lat="42.56937" lon="2.52287">
        <ele>584.8</ele>
      </trkpt>
      <trkpt lat="42.56937" lon="2.52288">
        <ele>585.1</ele>
      </trkpt>
      <trkpt lat="42.56933" lon="2.52297">
        <ele>587.1</ele>
      </trkpt>
      <trkpt lat="42.56931" lon="2.52303">
        <ele>588.4</ele>
      </trkpt>
      <trkpt lat="42.56928" lon="2.52311">
        <ele>590.2</ele>
      </trkpt>
      <trkpt lat="42.5692" lon="2.52323">
        <ele>591.8</ele>
      </trkpt>
      <trkpt lat="42.56909" lon="2.52338">
        <ele>593.4</ele>
      </trkpt>
      <trkpt lat="42.56898" lon="2.52353">
        <ele>595</ele>
      </trkpt>
      <trkpt lat="42.56894" lon="2.52357">
        <ele>595.3</ele>
      </trkpt>
      <trkpt lat="42.5689" lon="2.52361">
        <ele>595.6</ele>
      </trkpt>
      <trkpt lat="42.56885" lon="2.52364">
        <ele>595.3</ele>
      </trkpt>
      <trkpt lat="42.5688" lon="2.52366">
        <ele>594.8</ele>
      </trkpt>
      <trkpt lat="42.56871" lon="2.52369">
        <ele>593.7</ele>
      </trkpt>
      <trkpt lat="42.5687" lon="2.5237">
        <ele>593.8</ele>
      </trkpt>
      <trkpt lat="42.56856" lon="2.52379">
        <ele>593.7</ele>
      </trkpt>
      <trkpt lat="42.56837" lon="2.52389">
        <ele>593.1</ele>
      </trkpt>
      <trkpt lat="42.56812" lon="2.52396">
        <ele>590.5</ele>
      </trkpt>
      <trkpt lat="42.56803" lon="2.524">
        <ele>589.7</ele>
      </trkpt>
      <trkpt lat="42.56794" lon="2.52406">
        <ele>589.3</ele>
      </trkpt>
      <trkpt lat="42.56789" lon="2.52411">
        <ele>589.4</ele>
      </trkpt>
      <trkpt lat="42.56784" lon="2.52419">
        <ele>590.3</ele>
      </trkpt>
      <trkpt lat="42.56772" lon="2.52443">
        <ele>594.5</ele>
      </trkpt>
      <trkpt lat="42.5677" lon="2.52448">
        <ele>595.5</ele>
      </trkpt>
      <trkpt lat="42.56767" lon="2.52452">
        <ele>596</ele>
      </trkpt>
      <trkpt lat="42.56764" lon="2.52456">
        <ele>596.4</ele>
      </trkpt>
      <trkpt lat="42.5676" lon="2.52458">
        <ele>596</ele>
      </trkpt>
      <trkpt lat="42.56758" lon="2.52461">
        <ele>596.4</ele>
      </trkpt>
      <trkpt lat="42.56754" lon="2.52463">
        <ele>595.9</ele>
      </trkpt>
      <trkpt lat="42.56747" lon="2.52465">
        <ele>594.9</ele>
      </trkpt>
      <trkpt lat="42.56743" lon="2.52466">
        <ele>594.4</ele>
      </trkpt>
      <trkpt lat="42.56737" lon="2.52468">
        <ele>593.7</ele>
      </trkpt>
      <trkpt lat="42.56732" lon="2.52471">
        <ele>593.5</ele>
      </trkpt>
      <trkpt lat="42.56726" lon="2.52476">
        <ele>593.4</ele>
      </trkpt>
      <trkpt lat="42.56718" lon="2.52492">
        <ele>595.1</ele>
      </trkpt>
      <trkpt lat="42.56711" lon="2.52503">
        <ele>595.5</ele>
      </trkpt>
      <trkpt lat="42.56706" lon="2.5251">
        <ele>595.7</ele>
      </trkpt>
      <trkpt lat="42.56696" lon="2.52524">
        <ele>596</ele>
      </trkpt>
      <trkpt lat="42.56683" lon="2.52544">
        <ele>596.3</ele>
      </trkpt>
      <trkpt lat="42.56675" lon="2.52561">
        <ele>597.3</ele>
      </trkpt>
      <trkpt lat="42.56665" lon="2.5258">
        <ele>598</ele>
      </trkpt>
      <trkpt lat="42.56655" lon="2.52596">
        <ele>600.3</ele>
      </trkpt>
      <trkpt lat="42.56643" lon="2.52619">
        <ele>604.1</ele>
      </trkpt>
      <trkpt lat="42.56637" lon="2.52628">
        <ele>605</ele>
      </trkpt>
      <trkpt lat="42.56633" lon="2.52634">
        <ele>605.5</ele>
      </trkpt>
      <trkpt lat="42.5663" lon="2.52637">
        <ele>605.5</ele>
      </trkpt>
      <trkpt lat="42.56625" lon="2.5264">
        <ele>604.8</ele>
      </trkpt>
      <trkpt lat="42.56619" lon="2.52644">
        <ele>604</ele>
      </trkpt>
      <trkpt lat="42.56616" lon="2.52645">
        <ele>603.4</ele>
      </trkpt>
      <trkpt lat="42.56613" lon="2.52646">
        <ele>602.7</ele>
      </trkpt>
      <trkpt lat="42.56572" lon="2.52647">
        <ele>593.1</ele>
      </trkpt>
      <trkpt lat="42.56568" lon="2.52646">
        <ele>592.7</ele>
      </trkpt>
      <trkpt lat="42.56552" lon="2.52644">
        <ele>591.5</ele>
      </trkpt>
      <trkpt lat="42.56532" lon="2.52638">
        <ele>589.8</ele>
      </trkpt>
      <trkpt lat="42.56519" lon="2.52629">
        <ele>588.6</ele>
      </trkpt>
      <trkpt lat="42.56514" lon="2.52625">
        <ele>588.2</ele>
      </trkpt>
      <trkpt lat="42.56511" lon="2.52624">
        <ele>588.1</ele>
      </trkpt>
      <trkpt lat="42.56506" lon="2.52622">
        <ele>587.9</ele>
      </trkpt>
      <trkpt lat="42.56501" lon="2.5262">
        <ele>587.8</ele>
      </trkpt>
      <trkpt lat="42.56496" lon="2.52618">
        <ele>587.8</ele>
      </trkpt>
      <trkpt lat="42.56492" lon="2.52617">
        <ele>587.9</ele>
      </trkpt>
      <trkpt lat="42.56488" lon="2.52616">
        <ele>588</ele>
      </trkpt>
      <trkpt lat="42.56483" lon="2.52616">
        <ele>588.2</ele>
      </trkpt>
      <trkpt lat="42.56474" lon="2.52616">
        <ele>588.6</ele>
      </trkpt>
      <trkpt lat="42.56469" lon="2.52616">
        <ele>588.8</ele>
      </trkpt>
      <trkpt lat="42.56463" lon="2.52616">
        <ele>589</ele>
      </trkpt>
      <trkpt lat="42.56458" lon="2.52617">
        <ele>589.2</ele>
      </trkpt>
      <trkpt lat="42.56454" lon="2.52618">
        <ele>589.4</ele>
      </trkpt>
      <trkpt lat="42.5645" lon="2.52619">
        <ele>589.5</ele>
      </trkpt>
      <trkpt lat="42.56445" lon="2.52622">
        <ele>589.7</ele>
      </trkpt>
      <trkpt lat="42.56444" lon="2.52624">
        <ele>589.7</ele>
      </trkpt>
      <trkpt lat="42.56442" lon="2.52627">
        <ele>589.7</ele>
      </trkpt>
      <trkpt lat="42.56417" lon="2.52668">
        <ele>589.4</ele>
      </trkpt>
      <trkpt lat="42.56416" lon="2.52671">
        <ele>590.4</ele>
      </trkpt>
      <trkpt lat="42.56412" lon="2.52675">
        <ele>591.6</ele>
      </trkpt>
      <trkpt lat="42.56408" lon="2.5268">
        <ele>592.9</ele>
      </trkpt>
      <trkpt lat="42.56403" lon="2.52684">
        <ele>593.9</ele>
      </trkpt>
      <trkpt lat="42.56398" lon="2.52685">
        <ele>593.9</ele>
      </trkpt>
      <trkpt lat="42.56393" lon="2.52685">
        <ele>593.7</ele>
      </trkpt>
      <trkpt lat="42.56388" lon="2.52684">
        <ele>593.2</ele>
      </trkpt>
      <trkpt lat="42.5638" lon="2.52682">
        <ele>592.6</ele>
      </trkpt>
      <trkpt lat="42.56366" lon="2.52677">
        <ele>591.5</ele>
      </trkpt>
      <trkpt lat="42.56362" lon="2.52676">
        <ele>591.3</ele>
      </trkpt>
      <trkpt lat="42.56354" lon="2.52674">
        <ele>591.1</ele>
      </trkpt>
      <trkpt lat="42.56342" lon="2.52669">
        <ele>590.9</ele>
      </trkpt>
      <trkpt lat="42.56334" lon="2.52667">
        <ele>591</ele>
      </trkpt>
      <trkpt lat="42.56327" lon="2.52667">
        <ele>592.4</ele>
      </trkpt>
      <trkpt lat="42.56323" lon="2.52668">
        <ele>593.3</ele>
      </trkpt>
      <trkpt lat="42.56319" lon="2.5267">
        <ele>594.2</ele>
      </trkpt>
      <trkpt lat="42.56315" lon="2.52673">
        <ele>595</ele>
      </trkpt>
      <trkpt lat="42.56309" lon="2.52678">
        <ele>596.2</ele>
      </trkpt>
      <trkpt lat="42.56291" lon="2.527">
        <ele>599</ele>
      </trkpt>
      <trkpt lat="42.56277" lon="2.52718">
        <ele>600.5</ele>
      </trkpt>
      <trkpt lat="42.56254" lon="2.52748">
        <ele>601.7</ele>
      </trkpt>
      <trkpt lat="42.56243" lon="2.52761">
        <ele>602.5</ele>
      </trkpt>
      <trkpt lat="42.56234" lon="2.52775">
        <ele>603.2</ele>
      </trkpt>
      <trkpt lat="42.5623" lon="2.52784">
        <ele>603.3</ele>
      </trkpt>
      <trkpt lat="42.56222" lon="2.528">
        <ele>603.7</ele>
      </trkpt>
      <trkpt lat="42.56214" lon="2.52819">
        <ele>603.9</ele>
      </trkpt>
      <trkpt lat="42.56208" lon="2.52831">
        <ele>604.2</ele>
      </trkpt>
      <trkpt lat="42.56203" lon="2.52843">
        <ele>604.8</ele>
      </trkpt>
      <trkpt lat="42.56199" lon="2.52854">
        <ele>605.2</ele>
      </trkpt>
      <trkpt lat="42.56194" lon="2.52863">
        <ele>605.7</ele>
      </trkpt>
      <trkpt lat="42.56188" lon="2.52872">
        <ele>606.2</ele>
      </trkpt>
      <trkpt lat="42.56187" lon="2.52874">
        <ele>606.2</ele>
      </trkpt>
      <trkpt lat="42.56183" lon="2.52879">
        <ele>606.5</ele>
      </trkpt>
      <trkpt lat="42.56175" lon="2.5289">
        <ele>606.8</ele>
      </trkpt>
      <trkpt lat="42.56158" lon="2.52911">
        <ele>607.9</ele>
      </trkpt>
      <trkpt lat="42.5614" lon="2.52933">
        <ele>609.4</ele>
      </trkpt>
      <trkpt lat="42.5613" lon="2.52946">
        <ele>610.1</ele>
      </trkpt>
      <trkpt lat="42.56122" lon="2.52957">
        <ele>610.7</ele>
      </trkpt>
      <trkpt lat="42.56115" lon="2.52967">
        <ele>611.2</ele>
      </trkpt>
      <trkpt lat="42.56109" lon="2.52978">
        <ele>611.5</ele>
      </trkpt>
      <trkpt lat="42.56104" lon="2.52989">
        <ele>611.6</ele>
      </trkpt>
      <trkpt lat="42.56097" lon="2.53003">
        <ele>612.1</ele>
      </trkpt>
      <trkpt lat="42.56086" lon="2.5303">
        <ele>613.1</ele>
      </trkpt>
      <trkpt lat="42.5608" lon="2.53045">
        <ele>613.9</ele>
      </trkpt>
      <trkpt lat="42.56076" lon="2.53058">
        <ele>614.3</ele>
      </trkpt>
      <trkpt lat="42.56072" lon="2.53066">
        <ele>614.9</ele>
      </trkpt>
      <trkpt lat="42.56068" lon="2.53072">
        <ele>615.6</ele>
      </trkpt>
      <trkpt lat="42.56065" lon="2.53077">
        <ele>615.9</ele>
      </trkpt>
      <trkpt lat="42.56063" lon="2.53079">
        <ele>616.3</ele>
      </trkpt>
      <trkpt lat="42.5606" lon="2.53083">
        <ele>616.6</ele>
      </trkpt>
      <trkpt lat="42.56055" lon="2.53086">
        <ele>617.7</ele>
      </trkpt>
      <trkpt lat="42.5605" lon="2.5309">
        <ele>618.7</ele>
      </trkpt>
      <trkpt lat="42.56044" lon="2.53093">
        <ele>620</ele>
      </trkpt>
      <trkpt lat="42.56038" lon="2.53094">
        <ele>621.3</ele>
      </trkpt>
      <trkpt lat="42.56034" lon="2.53095">
        <ele>622.2</ele>
      </trkpt>
      <trkpt lat="42.5603" lon="2.53098">
        <ele>623</ele>
      </trkpt>
      <trkpt lat="42.56026" lon="2.53101">
        <ele>623.7</ele>
      </trkpt>
      <trkpt lat="42.56024" lon="2.53105">
        <ele>624</ele>
      </trkpt>
      <trkpt lat="42.56021" lon="2.53111">
        <ele>624.3</ele>
      </trkpt>
      <trkpt lat="42.5602" lon="2.53117">
        <ele>624.2</ele>
      </trkpt>
      <trkpt lat="42.56019" lon="2.53121">
        <ele>624.1</ele>
      </trkpt>
      <trkpt lat="42.56018" lon="2.53126">
        <ele>624</ele>
      </trkpt>
      <trkpt lat="42.56016" lon="2.53136">
        <ele>623.9</ele>
      </trkpt>
      <trkpt lat="42.56014" lon="2.53142">
        <ele>623.9</ele>
      </trkpt>
      <trkpt lat="42.56011" lon="2.53152">
        <ele>623.8</ele>
      </trkpt>
      <trkpt lat="42.56007" lon="2.53161">
        <ele>624</ele>
      </trkpt>
      <trkpt lat="42.56004" lon="2.53168">
        <ele>624.1</ele>
      </trkpt>
      <trkpt lat="42.55999" lon="2.53175">
        <ele>624.6</ele>
      </trkpt>
      <trkpt lat="42.55994" lon="2.53183">
        <ele>625.6</ele>
      </trkpt>
      <trkpt lat="42.55984" lon="2.53201">
        <ele>627.5</ele>
      </trkpt>
      <trkpt lat="42.55976" lon="2.53221">
        <ele>628.4</ele>
      </trkpt>
      <trkpt lat="42.55945" lon="2.53285">
        <ele>630.3</ele>
      </trkpt>
      <trkpt lat="42.55938" lon="2.53295">
        <ele>630.1</ele>
      </trkpt>
      <trkpt lat="42.55935" lon="2.53298">
        <ele>630.1</ele>
      </trkpt>
      <trkpt lat="42.55932" lon="2.53301">
        <ele>630.2</ele>
      </trkpt>
      <trkpt lat="42.55928" lon="2.53305">
        <ele>630.1</ele>
      </trkpt>
      <trkpt lat="42.55925" lon="2.53306">
        <ele>630.5</ele>
      </trkpt>
      <trkpt lat="42.55921" lon="2.53307">
        <ele>631.1</ele>
      </trkpt>
      <trkpt lat="42.55916" lon="2.53308">
        <ele>631.8</ele>
      </trkpt>
      <trkpt lat="42.55912" lon="2.53308">
        <ele>632.7</ele>
      </trkpt>
      <trkpt lat="42.55907" lon="2.53307">
        <ele>634</ele>
      </trkpt>
      <trkpt lat="42.55889" lon="2.53304">
        <ele>638.9</ele>
      </trkpt>
      <trkpt lat="42.55881" lon="2.53303">
        <ele>641</ele>
      </trkpt>
      <trkpt lat="42.55876" lon="2.53302">
        <ele>642.5</ele>
      </trkpt>
      <trkpt lat="42.55873" lon="2.53302">
        <ele>643.2</ele>
      </trkpt>
      <trkpt lat="42.5587" lon="2.53302">
        <ele>643.8</ele>
      </trkpt>
      <trkpt lat="42.55864" lon="2.53303">
        <ele>644.8</ele>
      </trkpt>
      <trkpt lat="42.55859" lon="2.53305">
        <ele>645.2</ele>
      </trkpt>
      <trkpt lat="42.55853" lon="2.53307">
        <ele>645.8</ele>
      </trkpt>
      <trkpt lat="42.55846" lon="2.53311">
        <ele>645.7</ele>
      </trkpt>
      <trkpt lat="42.55839" lon="2.53314">
        <ele>646</ele>
      </trkpt>
      <trkpt lat="42.5583" lon="2.53319">
        <ele>645.5</ele>
      </trkpt>
      <trkpt lat="42.55813" lon="2.53325">
        <ele>645.5</ele>
      </trkpt>
      <trkpt lat="42.55802" lon="2.53331">
        <ele>644.5</ele>
      </trkpt>
      <trkpt lat="42.5576" lon="2.53355">
        <ele>646.5</ele>
      </trkpt>
      <trkpt lat="42.55755" lon="2.53356">
        <ele>646.8</ele>
      </trkpt>
      <trkpt lat="42.55751" lon="2.53357">
        <ele>646.9</ele>
      </trkpt>
      <trkpt lat="42.55747" lon="2.53356">
        <ele>647.3</ele>
      </trkpt>
      <trkpt lat="42.55742" lon="2.53355">
        <ele>647.5</ele>
      </trkpt>
      <trkpt lat="42.55737" lon="2.53352">
        <ele>647.9</ele>
      </trkpt>
      <trkpt lat="42.55732" lon="2.53348">
        <ele>648.2</ele>
      </trkpt>
      <trkpt lat="42.55727" lon="2.53343">
        <ele>648.5</ele>
      </trkpt>
      <trkpt lat="42.55724" lon="2.53337">
        <ele>648.6</ele>
      </trkpt>
      <trkpt lat="42.55719" lon="2.53329">
        <ele>650</ele>
      </trkpt>
      <trkpt lat="42.55716" lon="2.53323">
        <ele>652</ele>
      </trkpt>
      <trkpt lat="42.55707" lon="2.53296">
        <ele>660.5</ele>
      </trkpt>
      <trkpt lat="42.55702" lon="2.53281">
        <ele>664.8</ele>
      </trkpt>
      <trkpt lat="42.55697" lon="2.53271">
        <ele>667.1</ele>
      </trkpt>
      <trkpt lat="42.55691" lon="2.53261">
        <ele>668.9</ele>
      </trkpt>
      <trkpt lat="42.55673" lon="2.53244">
        <ele>669.8</ele>
      </trkpt>
      <trkpt lat="42.55662" lon="2.53236">
        <ele>671.2</ele>
      </trkpt>
      <trkpt lat="42.55646" lon="2.53226">
        <ele>675.1</ele>
      </trkpt>
      <trkpt lat="42.55632" lon="2.53219">
        <ele>678</ele>
      </trkpt>
      <trkpt lat="42.5562" lon="2.53215">
        <ele>679.9</ele>
      </trkpt>
      <trkpt lat="42.55615" lon="2.53215">
        <ele>680</ele>
      </trkpt>
      <trkpt lat="42.55609" lon="2.53215">
        <ele>680.1</ele>
      </trkpt>
      <trkpt lat="42.55604" lon="2.53216">
        <ele>679.7</ele>
      </trkpt>
      <trkpt lat="42.55599" lon="2.53217">
        <ele>679.4</ele>
      </trkpt>
      <trkpt lat="42.55592" lon="2.5322">
        <ele>678.2</ele>
      </trkpt>
      <trkpt lat="42.55572" lon="2.53235">
        <ele>676.6</ele>
      </trkpt>
      <trkpt lat="42.5556" lon="2.53245">
        <ele>677.5</ele>
      </trkpt>
      <trkpt lat="42.55552" lon="2.53252">
        <ele>678.5</ele>
      </trkpt>
      <trkpt lat="42.55538" lon="2.53271">
        <ele>680.5</ele>
      </trkpt>
      <trkpt lat="42.55526" lon="2.53292">
        <ele>680.4</ele>
      </trkpt>
      <trkpt lat="42.55516" lon="2.53311">
        <ele>679.5</ele>
      </trkpt>
      <trkpt lat="42.55511" lon="2.53317">
        <ele>679.7</ele>
      </trkpt>
      <trkpt lat="42.55508" lon="2.53321">
        <ele>679.7</ele>
      </trkpt>
      <trkpt lat="42.55503" lon="2.53327">
        <ele>679.7</ele>
      </trkpt>
      <trkpt lat="42.55499" lon="2.53333">
        <ele>679.6</ele>
      </trkpt>
      <trkpt lat="42.55495" lon="2.5334">
        <ele>680.6</ele>
      </trkpt>
      <trkpt lat="42.55491" lon="2.53347">
        <ele>681.6</ele>
      </trkpt>
      <trkpt lat="42.55488" lon="2.53363">
        <ele>680.4</ele>
      </trkpt>
      <trkpt lat="42.55485" lon="2.53374">
        <ele>680.1</ele>
      </trkpt>
      <trkpt lat="42.55483" lon="2.53382">
        <ele>679.8</ele>
      </trkpt>
      <trkpt lat="42.5548" lon="2.53387">
        <ele>680.6</ele>
      </trkpt>
      <trkpt lat="42.55476" lon="2.53393">
        <ele>681.8</ele>
      </trkpt>
      <trkpt lat="42.55457" lon="2.53428">
        <ele>686.5</ele>
      </trkpt>
      <trkpt lat="42.55442" lon="2.53466">
        <ele>688.5</ele>
      </trkpt>
      <trkpt lat="42.55437" lon="2.53482">
        <ele>688.3</ele>
      </trkpt>
      <trkpt lat="42.55435" lon="2.53494">
        <ele>687.2</ele>
      </trkpt>
      <trkpt lat="42.55434" lon="2.53501">
        <ele>686.6</ele>
      </trkpt>
      <trkpt lat="42.55435" lon="2.53509">
        <ele>685.6</ele>
      </trkpt>
      <trkpt lat="42.55439" lon="2.53522">
        <ele>683.1</ele>
      </trkpt>
      <trkpt lat="42.55441" lon="2.5353">
        <ele>681.8</ele>
      </trkpt>
      <trkpt lat="42.55441" lon="2.53537">
        <ele>681.4</ele>
      </trkpt>
      <trkpt lat="42.5544" lon="2.53544">
        <ele>681.5</ele>
      </trkpt>
      <trkpt lat="42.55436" lon="2.53554">
        <ele>682.5</ele>
      </trkpt>
      <trkpt lat="42.5543" lon="2.53563">
        <ele>684.1</ele>
      </trkpt>
      <trkpt lat="42.55424" lon="2.53573">
        <ele>685.5</ele>
      </trkpt>
      <trkpt lat="42.55413" lon="2.53587">
        <ele>688.2</ele>
      </trkpt>
      <trkpt lat="42.55408" lon="2.53593">
        <ele>689.8</ele>
      </trkpt>
      <trkpt lat="42.55402" lon="2.53597">
        <ele>691.9</ele>
      </trkpt>
      <trkpt lat="42.55397" lon="2.53602">
        <ele>693.5</ele>
      </trkpt>
      <trkpt lat="42.55393" lon="2.53604">
        <ele>695</ele>
      </trkpt>
      <trkpt lat="42.5539" lon="2.53606">
        <ele>696</ele>
      </trkpt>
      <trkpt lat="42.55379" lon="2.5361">
        <ele>700.1</ele>
      </trkpt>
      <trkpt lat="42.55371" lon="2.53615">
        <ele>702.8</ele>
      </trkpt>
      <trkpt lat="42.55366" lon="2.5362">
        <ele>704.3</ele>
      </trkpt>
      <trkpt lat="42.55365" lon="2.53623">
        <ele>704.3</ele>
      </trkpt>
      <trkpt lat="42.55364" lon="2.53624">
        <ele>704.6</ele>
      </trkpt>
      <trkpt lat="42.55363" lon="2.53628">
        <ele>704.5</ele>
      </trkpt>
      <trkpt lat="42.55362" lon="2.53634">
        <ele>704.2</ele>
      </trkpt>
      <trkpt lat="42.55362" lon="2.53639">
        <ele>703.5</ele>
      </trkpt>
      <trkpt lat="42.55364" lon="2.53643">
        <ele>702.2</ele>
      </trkpt>
      <trkpt lat="42.55366" lon="2.53647">
        <ele>700.9</ele>
      </trkpt>
      <trkpt lat="42.55368" lon="2.53649">
        <ele>699.9</ele>
      </trkpt>
      <trkpt lat="42.55373" lon="2.53651">
        <ele>697.7</ele>
      </trkpt>
      <trkpt lat="42.55379" lon="2.53652">
        <ele>695.2</ele>
      </trkpt>
      <trkpt lat="42.55384" lon="2.53652">
        <ele>693.2</ele>
      </trkpt>
      <trkpt lat="42.55389" lon="2.53654">
        <ele>691</ele>
      </trkpt>
      <trkpt lat="42.55393" lon="2.53658">
        <ele>689</ele>
      </trkpt>
      <trkpt lat="42.55395" lon="2.53662">
        <ele>687.8</ele>
      </trkpt>
      <trkpt lat="42.55396" lon="2.53666">
        <ele>687</ele>
      </trkpt>
      <trkpt lat="42.55397" lon="2.53672">
        <ele>686.6</ele>
      </trkpt>
      <trkpt lat="42.55397" lon="2.53678">
        <ele>686.7</ele>
      </trkpt>
      <trkpt lat="42.55396" lon="2.53688">
        <ele>687.2</ele>
      </trkpt>
      <trkpt lat="42.55396" lon="2.53689">
        <ele>687.3</ele>
      </trkpt>
      <trkpt lat="42.55395" lon="2.53698">
        <ele>687.9</ele>
      </trkpt>
      <trkpt lat="42.55395" lon="2.53707">
        <ele>688</ele>
      </trkpt>
      <trkpt lat="42.55396" lon="2.53716">
        <ele>687.6</ele>
      </trkpt>
      <trkpt lat="42.55398" lon="2.53727">
        <ele>686.7</ele>
      </trkpt>
      <trkpt lat="42.55399" lon="2.5374">
        <ele>686.2</ele>
      </trkpt>
      <trkpt lat="42.55401" lon="2.53749">
        <ele>685</ele>
      </trkpt>
      <trkpt lat="42.55401" lon="2.53757">
        <ele>684.5</ele>
      </trkpt>
      <trkpt lat="42.55401" lon="2.53763">
        <ele>684.1</ele>
      </trkpt>
      <trkpt lat="42.554" lon="2.53773">
        <ele>684</ele>
      </trkpt>
      <trkpt lat="42.55397" lon="2.53786">
        <ele>685.1</ele>
      </trkpt>
      <trkpt lat="42.55391" lon="2.53813">
        <ele>687.2</ele>
      </trkpt>
      <trkpt lat="42.55389" lon="2.5382">
        <ele>688.1</ele>
      </trkpt>
      <trkpt lat="42.55388" lon="2.53821">
        <ele>688.7</ele>
      </trkpt>
      <trkpt lat="42.55378" lon="2.53836">
        <ele>694</ele>
      </trkpt>
      <trkpt lat="42.55375" lon="2.53841">
        <ele>695</ele>
      </trkpt>
      <trkpt lat="42.55373" lon="2.53844">
        <ele>695.7</ele>
      </trkpt>
      <trkpt lat="42.55369" lon="2.53854">
        <ele>695.9</ele>
      </trkpt>
      <trkpt lat="42.55368" lon="2.53861">
        <ele>694.9</ele>
      </trkpt>
      <trkpt lat="42.55366" lon="2.53875">
        <ele>692.7</ele>
      </trkpt>
      <trkpt lat="42.55364" lon="2.53885">
        <ele>691.2</ele>
      </trkpt>
      <trkpt lat="42.55363" lon="2.5389">
        <ele>690.4</ele>
      </trkpt>
      <trkpt lat="42.55361" lon="2.53895">
        <ele>689.9</ele>
      </trkpt>
      <trkpt lat="42.55357" lon="2.53899">
        <ele>690.3</ele>
      </trkpt>
      <trkpt lat="42.55353" lon="2.53903">
        <ele>690.6</ele>
      </trkpt>
      <trkpt lat="42.5535" lon="2.53906">
        <ele>690.7</ele>
      </trkpt>
      <trkpt lat="42.55345" lon="2.53909">
        <ele>691.3</ele>
      </trkpt>
      <trkpt lat="42.55339" lon="2.53911">
        <ele>692.5</ele>
      </trkpt>
      <trkpt lat="42.55335" lon="2.53912">
        <ele>693.3</ele>
      </trkpt>
      <trkpt lat="42.55332" lon="2.53911">
        <ele>694.5</ele>
      </trkpt>
      <trkpt lat="42.55327" lon="2.53909">
        <ele>696.7</ele>
      </trkpt>
      <trkpt lat="42.55322" lon="2.53908">
        <ele>698.4</ele>
      </trkpt>
      <trkpt lat="42.55293" lon="2.53896">
        <ele>711.7</ele>
      </trkpt>
      <trkpt lat="42.55278" lon="2.5389">
        <ele>718.8</ele>
      </trkpt>
      <trkpt lat="42.55271" lon="2.53889">
        <ele>721.3</ele>
      </trkpt>
      <trkpt lat="42.55268" lon="2.53888">
        <ele>722.7</ele>
      </trkpt>
      <trkpt lat="42.55263" lon="2.53887">
        <ele>724.7</ele>
      </trkpt>
      <trkpt lat="42.55257" lon="2.53887">
        <ele>726.5</ele>
      </trkpt>
      <trkpt lat="42.55251" lon="2.53888">
        <ele>727.8</ele>
      </trkpt>
      <trkpt lat="42.55243" lon="2.53891">
        <ele>728.2</ele>
      </trkpt>
      <trkpt lat="42.55237" lon="2.53892">
        <ele>729.1</ele>
      </trkpt>
      <trkpt lat="42.5523" lon="2.53895">
        <ele>729.2</ele>
      </trkpt>
      <trkpt lat="42.55225" lon="2.53897">
        <ele>729.4</ele>
      </trkpt>
      <trkpt lat="42.55217" lon="2.53903">
        <ele>728.1</ele>
      </trkpt>
      <trkpt lat="42.55209" lon="2.53914">
        <ele>724.2</ele>
      </trkpt>
      <trkpt lat="42.55206" lon="2.53919">
        <ele>722.7</ele>
      </trkpt>
      <trkpt lat="42.55205" lon="2.53921">
        <ele>722.3</ele>
      </trkpt>
      <trkpt lat="42.552" lon="2.53927">
        <ele>721.3</ele>
      </trkpt>
      <trkpt lat="42.55195" lon="2.53933">
        <ele>720.2</ele>
      </trkpt>
      <trkpt lat="42.55188" lon="2.53939">
        <ele>719.4</ele>
      </trkpt>
      <trkpt lat="42.55182" lon="2.53944">
        <ele>718.7</ele>
      </trkpt>
      <trkpt lat="42.55177" lon="2.53948">
        <ele>718.2</ele>
      </trkpt>
      <trkpt lat="42.55171" lon="2.53952">
        <ele>717.7</ele>
      </trkpt>
      <trkpt lat="42.55163" lon="2.53957">
        <ele>718.5</ele>
      </trkpt>
      <trkpt lat="42.55156" lon="2.53962">
        <ele>720.3</ele>
      </trkpt>
      <trkpt lat="42.5515" lon="2.53967">
        <ele>721.7</ele>
      </trkpt>
      <trkpt lat="42.55142" lon="2.53974">
        <ele>723.6</ele>
      </trkpt>
      <trkpt lat="42.55137" lon="2.5398">
        <ele>724.3</ele>
      </trkpt>
      <trkpt lat="42.55132" lon="2.53985">
        <ele>725.5</ele>
      </trkpt>
      <trkpt lat="42.55126" lon="2.53993">
        <ele>726.2</ele>
      </trkpt>
      <trkpt lat="42.55121" lon="2.53999">
        <ele>727.2</ele>
      </trkpt>
      <trkpt lat="42.55116" lon="2.54006">
        <ele>729.3</ele>
      </trkpt>
      <trkpt lat="42.55113" lon="2.54012">
        <ele>730.5</ele>
      </trkpt>
      <trkpt lat="42.55111" lon="2.54018">
        <ele>731.1</ele>
      </trkpt>
      <trkpt lat="42.55108" lon="2.54026">
        <ele>732.1</ele>
      </trkpt>
      <trkpt lat="42.55106" lon="2.54035">
        <ele>732.5</ele>
      </trkpt>
      <trkpt lat="42.55104" lon="2.54044">
        <ele>732.7</ele>
      </trkpt>
      <trkpt lat="42.55103" lon="2.54054">
        <ele>732.4</ele>
      </trkpt>
      <trkpt lat="42.55101" lon="2.54064">
        <ele>732.5</ele>
      </trkpt>
      <trkpt lat="42.551" lon="2.54071">
        <ele>732.4</ele>
      </trkpt>
      <trkpt lat="42.551" lon="2.5408">
        <ele>731.5</ele>
      </trkpt>
      <trkpt lat="42.551" lon="2.54092">
        <ele>729.6</ele>
      </trkpt>
      <trkpt lat="42.551" lon="2.54104">
        <ele>727.4</ele>
      </trkpt>
      <trkpt lat="42.551" lon="2.5411">
        <ele>726.3</ele>
      </trkpt>
      <trkpt lat="42.55098" lon="2.54116">
        <ele>725.9</ele>
      </trkpt>
      <trkpt lat="42.55096" lon="2.5412">
        <ele>725.9</ele>
      </trkpt>
      <trkpt lat="42.55092" lon="2.54124">
        <ele>726.6</ele>
      </trkpt>
      <trkpt lat="42.55088" lon="2.54126">
        <ele>727.6</ele>
      </trkpt>
      <trkpt lat="42.55082" lon="2.54127">
        <ele>729.5</ele>
      </trkpt>
      <trkpt lat="42.55078" lon="2.54128">
        <ele>730.9</ele>
      </trkpt>
      <trkpt lat="42.55075" lon="2.54128">
        <ele>732.1</ele>
      </trkpt>
      <trkpt lat="42.55062" lon="2.54131">
        <ele>736.5</ele>
      </trkpt>
      <trkpt lat="42.55053" lon="2.54133">
        <ele>739.4</ele>
      </trkpt>
      <trkpt lat="42.55047" lon="2.54134">
        <ele>741.5</ele>
      </trkpt>
      <trkpt lat="42.55039" lon="2.54135">
        <ele>744.3</ele>
      </trkpt>
      <trkpt lat="42.55029" lon="2.54137">
        <ele>747.5</ele>
      </trkpt>
      <trkpt lat="42.55017" lon="2.54146">
        <ele>748.9</ele>
      </trkpt>
      <trkpt lat="42.55005" lon="2.54155">
        <ele>749.8</ele>
      </trkpt>
      <trkpt lat="42.54995" lon="2.54163">
        <ele>749.7</ele>
      </trkpt>
      <trkpt lat="42.54988" lon="2.5417">
        <ele>749.1</ele>
      </trkpt>
      <trkpt lat="42.54984" lon="2.54176">
        <ele>748.5</ele>
      </trkpt>
      <trkpt lat="42.54982" lon="2.54182">
        <ele>747.4</ele>
      </trkpt>
      <trkpt lat="42.5498" lon="2.54188">
        <ele>746.3</ele>
      </trkpt>
      <trkpt lat="42.5498" lon="2.54194">
        <ele>744.7</ele>
      </trkpt>
      <trkpt lat="42.54981" lon="2.54202">
        <ele>742.3</ele>
      </trkpt>
      <trkpt lat="42.54982" lon="2.5421">
        <ele>739.9</ele>
      </trkpt>
      <trkpt lat="42.54981" lon="2.54218">
        <ele>738</ele>
      </trkpt>
      <trkpt lat="42.54978" lon="2.54223">
        <ele>737.5</ele>
      </trkpt>
      <trkpt lat="42.54974" lon="2.54225">
        <ele>738.1</ele>
      </trkpt>
      <trkpt lat="42.5497" lon="2.54225">
        <ele>739.2</ele>
      </trkpt>
      <trkpt lat="42.54966" lon="2.54224">
        <ele>740.6</ele>
      </trkpt>
      <trkpt lat="42.54963" lon="2.54222">
        <ele>741.9</ele>
      </trkpt>
      <trkpt lat="42.54961" lon="2.54218">
        <ele>743.5</ele>
      </trkpt>
      <trkpt lat="42.54958" lon="2.54213">
        <ele>745.6</ele>
      </trkpt>
      <trkpt lat="42.54954" lon="2.54206">
        <ele>748.5</ele>
      </trkpt>
      <trkpt lat="42.54949" lon="2.54201">
        <ele>751.1</ele>
      </trkpt>
      <trkpt lat="42.54946" lon="2.54198">
        <ele>752.7</ele>
      </trkpt>
      <trkpt lat="42.54942" lon="2.54196">
        <ele>754.2</ele>
      </trkpt>
      <trkpt lat="42.54937" lon="2.54196">
        <ele>755.6</ele>
      </trkpt>
      <trkpt lat="42.54932" lon="2.54196">
        <ele>756.9</ele>
      </trkpt>
      <trkpt lat="42.54929" lon="2.54198">
        <ele>757.2</ele>
      </trkpt>
      <trkpt lat="42.54926" lon="2.54202">
        <ele>757</ele>
      </trkpt>
      <trkpt lat="42.54923" lon="2.54208">
        <ele>756.4</ele>
      </trkpt>
      <trkpt lat="42.54913" lon="2.54233">
        <ele>752.9</ele>
      </trkpt>
      <trkpt lat="42.54906" lon="2.54254">
        <ele>749.3</ele>
      </trkpt>
      <trkpt lat="42.54902" lon="2.54263">
        <ele>748</ele>
      </trkpt>
      <trkpt lat="42.549" lon="2.54268">
        <ele>747.2</ele>
      </trkpt>
      <trkpt lat="42.54896" lon="2.54272">
        <ele>746.9</ele>
      </trkpt>
      <trkpt lat="42.54893" lon="2.54275">
        <ele>746.6</ele>
      </trkpt>
      <trkpt lat="42.54889" lon="2.54277">
        <ele>746.7</ele>
      </trkpt>
      <trkpt lat="42.54887" lon="2.54277">
        <ele>747</ele>
      </trkpt>
      <trkpt lat="42.54882" lon="2.54278">
        <ele>747.5</ele>
      </trkpt>
      <trkpt lat="42.54875" lon="2.54279">
        <ele>748.3</ele>
      </trkpt>
      <trkpt lat="42.54863" lon="2.54279">
        <ele>750.1</ele>
      </trkpt>
      <trkpt lat="42.54848" lon="2.54279">
        <ele>752.4</ele>
      </trkpt>
      <trkpt lat="42.54838" lon="2.54278">
        <ele>754.2</ele>
      </trkpt>
      <trkpt lat="42.54826" lon="2.5428">
        <ele>757</ele>
      </trkpt>
      <trkpt lat="42.54818" lon="2.54279">
        <ele>760.3</ele>
      </trkpt>
      <trkpt lat="42.54811" lon="2.54278">
        <ele>763.3</ele>
      </trkpt>
      <trkpt lat="42.54805" lon="2.54277">
        <ele>765.9</ele>
      </trkpt>
      <trkpt lat="42.548" lon="2.54277">
        <ele>767.8</ele>
      </trkpt>
      <trkpt lat="42.54794" lon="2.54278">
        <ele>769.7</ele>
      </trkpt>
      <trkpt lat="42.54789" lon="2.5428">
        <ele>771</ele>
      </trkpt>
      <trkpt lat="42.54785" lon="2.54282">
        <ele>771.9</ele>
      </trkpt>
      <trkpt lat="42.54783" lon="2.54285">
        <ele>771.7</ele>
      </trkpt>
      <trkpt lat="42.54779" lon="2.5429">
        <ele>771.7</ele>
      </trkpt>
      <trkpt lat="42.54776" lon="2.54296">
        <ele>771</ele>
      </trkpt>
      <trkpt lat="42.54772" lon="2.54302">
        <ele>770.8</ele>
      </trkpt>
      <trkpt lat="42.54768" lon="2.54308">
        <ele>770.7</ele>
      </trkpt>
      <trkpt lat="42.54765" lon="2.54316">
        <ele>769.6</ele>
      </trkpt>
      <trkpt lat="42.54763" lon="2.54322">
        <ele>768.7</ele>
      </trkpt>
      <trkpt lat="42.54762" lon="2.54331">
        <ele>766.5</ele>
      </trkpt>
      <trkpt lat="42.5476" lon="2.54342">
        <ele>764.1</ele>
      </trkpt>
      <trkpt lat="42.54759" lon="2.54351">
        <ele>761.9</ele>
      </trkpt>
      <trkpt lat="42.54758" lon="2.54358">
        <ele>760.2</ele>
      </trkpt>
      <trkpt lat="42.54755" lon="2.54364">
        <ele>759.5</ele>
      </trkpt>
      <trkpt lat="42.54753" lon="2.5437">
        <ele>758.4</ele>
      </trkpt>
      <trkpt lat="42.54749" lon="2.54374">
        <ele>758.8</ele>
      </trkpt>
      <trkpt lat="42.54742" lon="2.54382">
        <ele>760</ele>
      </trkpt>
      <trkpt lat="42.54736" lon="2.54389">
        <ele>760.8</ele>
      </trkpt>
      <trkpt lat="42.54729" lon="2.54398">
        <ele>761.4</ele>
      </trkpt>
      <trkpt lat="42.54722" lon="2.54406">
        <ele>762.1</ele>
      </trkpt>
      <trkpt lat="42.54714" lon="2.54412">
        <ele>763.9</ele>
      </trkpt>
      <trkpt lat="42.54706" lon="2.5442">
        <ele>764.9</ele>
      </trkpt>
      <trkpt lat="42.54698" lon="2.54427">
        <ele>765.9</ele>
      </trkpt>
      <trkpt lat="42.54693" lon="2.54431">
        <ele>766.4</ele>
      </trkpt>
      <trkpt lat="42.5469" lon="2.54431">
        <ele>767.6</ele>
      </trkpt>
      <trkpt lat="42.54686" lon="2.54432">
        <ele>768.8</ele>
      </trkpt>
      <trkpt lat="42.54684" lon="2.54432">
        <ele>769.7</ele>
      </trkpt>
      <trkpt lat="42.5468" lon="2.54431">
        <ele>771.8</ele>
      </trkpt>
      <trkpt lat="42.54674" lon="2.54429">
        <ele>775.2</ele>
      </trkpt>
      <trkpt lat="42.54669" lon="2.54427">
        <ele>778.4</ele>
      </trkpt>
      <trkpt lat="42.54666" lon="2.54426">
        <ele>780.2</ele>
      </trkpt>
      <trkpt lat="42.54662" lon="2.54426">
        <ele>781.9</ele>
      </trkpt>
      <trkpt lat="42.54658" lon="2.54426">
        <ele>783.6</ele>
      </trkpt>
      <trkpt lat="42.54655" lon="2.54427">
        <ele>784.4</ele>
      </trkpt>
      <trkpt lat="42.5465" lon="2.5443">
        <ele>784.9</ele>
      </trkpt>
      <trkpt lat="42.54646" lon="2.54435">
        <ele>783.8</ele>
      </trkpt>
      <trkpt lat="42.54641" lon="2.54444">
        <ele>780.9</ele>
      </trkpt>
      <trkpt lat="42.54638" lon="2.54449">
        <ele>779.4</ele>
      </trkpt>
      <trkpt lat="42.54635" lon="2.54451">
        <ele>779.5</ele>
      </trkpt>
      <trkpt lat="42.54632" lon="2.54453">
        <ele>779.6</ele>
      </trkpt>
      <trkpt lat="42.54629" lon="2.54453">
        <ele>780.9</ele>
      </trkpt>
      <trkpt lat="42.54624" lon="2.54452">
        <ele>783.5</ele>
      </trkpt>
      <trkpt lat="42.54618" lon="2.54453">
        <ele>785.4</ele>
      </trkpt>
      <trkpt lat="42.54612" lon="2.54456">
        <ele>786.1</ele>
      </trkpt>
      <trkpt lat="42.54608" lon="2.5446">
        <ele>785.5</ele>
      </trkpt>
      <trkpt lat="42.54607" lon="2.54462">
        <ele>784.7</ele>
      </trkpt>
      <trkpt lat="42.54604" lon="2.54466">
        <ele>783.6</ele>
      </trkpt>
      <trkpt lat="42.54601" lon="2.54469">
        <ele>783.1</ele>
      </trkpt>
      <trkpt lat="42.54598" lon="2.54472">
        <ele>782.6</ele>
      </trkpt>
      <trkpt lat="42.54593" lon="2.54476">
        <ele>782.3</ele>
      </trkpt>
      <trkpt lat="42.54585" lon="2.54479">
        <ele>783.7</ele>
      </trkpt>
      <trkpt lat="42.54582" lon="2.54482">
        <ele>783.3</ele>
      </trkpt>
      <trkpt lat="42.54575" lon="2.54488">
        <ele>783.8</ele>
      </trkpt>
      <trkpt lat="42.54572" lon="2.54493">
        <ele>782.7</ele>
      </trkpt>
      <trkpt lat="42.5457" lon="2.54501">
        <ele>779.7</ele>
      </trkpt>
      <trkpt lat="42.5457" lon="2.54507">
        <ele>778.1</ele>
      </trkpt>
      <trkpt lat="42.54569" lon="2.54516">
        <ele>776.2</ele>
      </trkpt>
      <trkpt lat="42.54569" lon="2.54523">
        <ele>774.2</ele>
      </trkpt>
      <trkpt lat="42.54567" lon="2.54534">
        <ele>772.3</ele>
      </trkpt>
      <trkpt lat="42.54561" lon="2.54566">
        <ele>766.2</ele>
      </trkpt>
      <trkpt lat="42.54556" lon="2.54586">
        <ele>763</ele>
      </trkpt>
      <trkpt lat="42.54553" lon="2.54594">
        <ele>763</ele>
      </trkpt>
      <trkpt lat="42.54551" lon="2.54599">
        <ele>763</ele>
      </trkpt>
      <trkpt lat="42.54548" lon="2.54601">
        <ele>763.8</ele>
      </trkpt>
      <trkpt lat="42.54525" lon="2.54601">
        <ele>772.5</ele>
      </trkpt>
      <trkpt lat="42.54507" lon="2.54602">
        <ele>779</ele>
      </trkpt>
      <trkpt lat="42.54491" lon="2.54606">
        <ele>779.6</ele>
      </trkpt>
      <trkpt lat="42.5448" lon="2.5461">
        <ele>777.6</ele>
      </trkpt>
      <trkpt lat="42.54464" lon="2.54616">
        <ele>775</ele>
      </trkpt>
      <trkpt lat="42.54452" lon="2.54618">
        <ele>774</ele>
      </trkpt>
      <trkpt lat="42.54444" lon="2.54616">
        <ele>774.4</ele>
      </trkpt>
      <trkpt lat="42.54435" lon="2.54612">
        <ele>775.2</ele>
      </trkpt>
      <trkpt lat="42.54424" lon="2.54602">
        <ele>777.2</ele>
      </trkpt>
      <trkpt lat="42.54416" lon="2.54594">
        <ele>778.5</ele>
      </trkpt>
      <trkpt lat="42.5441" lon="2.54584">
        <ele>779.9</ele>
      </trkpt>
      <trkpt lat="42.54406" lon="2.54572">
        <ele>782.4</ele>
      </trkpt>
      <trkpt lat="42.54407" lon="2.54562">
        <ele>785.1</ele>
      </trkpt>
      <trkpt lat="42.54411" lon="2.54539">
        <ele>792.2</ele>
      </trkpt>
      <trkpt lat="42.54413" lon="2.54515">
        <ele>799.4</ele>
      </trkpt>
      <trkpt lat="42.54411" lon="2.54487">
        <ele>807.1</ele>
      </trkpt>
      <trkpt lat="42.54405" lon="2.54464">
        <ele>812.1</ele>
      </trkpt>
      <trkpt lat="42.54396" lon="2.54449">
        <ele>812.9</ele>
      </trkpt>
      <trkpt lat="42.54375" lon="2.54427">
        <ele>810</ele>
      </trkpt>
      <trkpt lat="42.54363" lon="2.54416">
        <ele>807.6</ele>
      </trkpt>
      <trkpt lat="42.54351" lon="2.54408">
        <ele>806</ele>
      </trkpt>
      <trkpt lat="42.54328" lon="2.54401">
        <ele>800.5</ele>
      </trkpt>
      <trkpt lat="42.543" lon="2.54387">
        <ele>800.9</ele>
      </trkpt>
      <trkpt lat="42.5426" lon="2.5436">
        <ele>800</ele>
      </trkpt>
      <trkpt lat="42.54243" lon="2.54347">
        <ele>799.8</ele>
      </trkpt>
      <trkpt lat="42.54234" lon="2.54333">
        <ele>802</ele>
      </trkpt>
      <trkpt lat="42.54222" lon="2.5431">
        <ele>806.3</ele>
      </trkpt>
      <trkpt lat="42.54214" lon="2.54279">
        <ele>812.6</ele>
      </trkpt>
      <trkpt lat="42.54202" lon="2.54237">
        <ele>817.7</ele>
      </trkpt>
      <trkpt lat="42.54194" lon="2.54207">
        <ele>819.2</ele>
      </trkpt>
      <trkpt lat="42.54189" lon="2.54193">
        <ele>819.1</ele>
      </trkpt>
      <trkpt lat="42.54181" lon="2.54178">
        <ele>817.5</ele>
      </trkpt>
      <trkpt lat="42.54165" lon="2.54158">
        <ele>814.9</ele>
      </trkpt>
      <trkpt lat="42.54148" lon="2.54138">
        <ele>818.9</ele>
      </trkpt>
      <trkpt lat="42.54134" lon="2.54116">
        <ele>822.4</ele>
      </trkpt>
      <trkpt lat="42.54124" lon="2.54088">
        <ele>827</ele>
      </trkpt>
      <trkpt lat="42.54106" lon="2.54042">
        <ele>828.2</ele>
      </trkpt>
      <trkpt lat="42.54098" lon="2.54014">
        <ele>828.7</ele>
      </trkpt>
      <trkpt lat="42.54097" lon="2.53998">
        <ele>830.1</ele>
      </trkpt>
      <trkpt lat="42.54099" lon="2.53984">
        <ele>831.1</ele>
      </trkpt>
      <trkpt lat="42.54107" lon="2.53963">
        <ele>835.1</ele>
      </trkpt>
      <trkpt lat="42.54121" lon="2.53945">
        <ele>842.2</ele>
      </trkpt>
      <trkpt lat="42.54126" lon="2.53934">
        <ele>845</ele>
      </trkpt>
      <trkpt lat="42.54129" lon="2.53921">
        <ele>846.9</ele>
      </trkpt>
      <trkpt lat="42.54136" lon="2.53894">
        <ele>851.4</ele>
      </trkpt>
      <trkpt lat="42.54137" lon="2.53887">
        <ele>852.1</ele>
      </trkpt>
      <trkpt lat="42.54138" lon="2.53881">
        <ele>852.7</ele>
      </trkpt>
      <trkpt lat="42.54138" lon="2.53877">
        <ele>852.9</ele>
      </trkpt>
      <trkpt lat="42.54138" lon="2.53873">
        <ele>853</ele>
      </trkpt>
      <trkpt lat="42.54138" lon="2.53869">
        <ele>853.1</ele>
      </trkpt>
      <trkpt lat="42.54137" lon="2.53864">
        <ele>852.9</ele>
      </trkpt>
      <trkpt lat="42.54136" lon="2.53858">
        <ele>852.7</ele>
      </trkpt>
      <trkpt lat="42.54132" lon="2.53849">
        <ele>851.4</ele>
      </trkpt>
      <trkpt lat="42.54127" lon="2.53839">
        <ele>850</ele>
      </trkpt>
      <trkpt lat="42.54125" lon="2.53836">
        <ele>849.4</ele>
      </trkpt>
      <trkpt lat="42.54123" lon="2.53831">
        <ele>849.1</ele>
      </trkpt>
      <trkpt lat="42.54117" lon="2.53822">
        <ele>848.2</ele>
      </trkpt>
      <trkpt lat="42.54109" lon="2.53814">
        <ele>846.4</ele>
      </trkpt>
      <trkpt lat="42.54101" lon="2.53807">
        <ele>844.7</ele>
      </trkpt>
      <trkpt lat="42.54093" lon="2.53799">
        <ele>843.1</ele>
      </trkpt>
      <trkpt lat="42.54072" lon="2.53773">
        <ele>843.1</ele>
      </trkpt>
      <trkpt lat="42.5405" lon="2.53741">
        <ele>844.7</ele>
      </trkpt>
      <trkpt lat="42.54024" lon="2.53704">
        <ele>846.3</ele>
      </trkpt>
      <trkpt lat="42.54003" lon="2.53673">
        <ele>845.1</ele>
      </trkpt>
      <trkpt lat="42.53999" lon="2.53665">
        <ele>845.3</ele>
      </trkpt>
      <trkpt lat="42.53995" lon="2.53656">
        <ele>846.8</ele>
      </trkpt>
      <trkpt lat="42.53993" lon="2.53648">
        <ele>848.2</ele>
      </trkpt>
      <trkpt lat="42.5399" lon="2.53633">
        <ele>850.7</ele>
      </trkpt>
      <trkpt lat="42.53987" lon="2.53621">
        <ele>852.5</ele>
      </trkpt>
      <trkpt lat="42.53983" lon="2.5361">
        <ele>853.9</ele>
      </trkpt>
      <trkpt lat="42.53978" lon="2.53601">
        <ele>854.8</ele>
      </trkpt>
      <trkpt lat="42.53971" lon="2.53592">
        <ele>855.2</ele>
      </trkpt>
      <trkpt lat="42.53964" lon="2.53586">
        <ele>855</ele>
      </trkpt>
      <trkpt lat="42.53939" lon="2.53574">
        <ele>853.7</ele>
      </trkpt>
      <trkpt lat="42.53912" lon="2.53563">
        <ele>852.2</ele>
      </trkpt>
      <trkpt lat="42.53891" lon="2.53555">
        <ele>854.7</ele>
      </trkpt>
      <trkpt lat="42.53886" lon="2.53554">
        <ele>855.1</ele>
      </trkpt>
      <trkpt lat="42.5388" lon="2.53551">
        <ele>855.7</ele>
      </trkpt>
      <trkpt lat="42.53872" lon="2.53546">
        <ele>856.4</ele>
      </trkpt>
      <trkpt lat="42.53865" lon="2.5354">
        <ele>857</ele>
      </trkpt>
      <trkpt lat="42.53861" lon="2.53535">
        <ele>857.4</ele>
      </trkpt>
      <trkpt lat="42.53859" lon="2.53532">
        <ele>857.5</ele>
      </trkpt>
      <trkpt lat="42.53857" lon="2.53528">
        <ele>857.7</ele>
      </trkpt>
      <trkpt lat="42.53856" lon="2.53525">
        <ele>857.8</ele>
      </trkpt>
      <trkpt lat="42.53856" lon="2.53522">
        <ele>857.9</ele>
      </trkpt>
      <trkpt lat="42.53856" lon="2.53517">
        <ele>858.2</ele>
      </trkpt>
      <trkpt lat="42.53856" lon="2.53514">
        <ele>858.3</ele>
      </trkpt>
      <trkpt lat="42.53857" lon="2.5351">
        <ele>858.5</ele>
      </trkpt>
      <trkpt lat="42.53859" lon="2.53506">
        <ele>858.9</ele>
      </trkpt>
      <trkpt lat="42.5386" lon="2.53504">
        <ele>859</ele>
      </trkpt>
      <trkpt lat="42.53861" lon="2.53502">
        <ele>859.2</ele>
      </trkpt>
      <trkpt lat="42.53863" lon="2.53501">
        <ele>859.4</ele>
      </trkpt>
      <trkpt lat="42.53865" lon="2.535">
        <ele>859.7</ele>
      </trkpt>
      <trkpt lat="42.53867" lon="2.53499">
        <ele>860.1</ele>
      </trkpt>
      <trkpt lat="42.53868" lon="2.53499">
        <ele>860.2</ele>
      </trkpt>
      <trkpt lat="42.5387" lon="2.53499">
        <ele>860.3</ele>
      </trkpt>
      <trkpt lat="42.53872" lon="2.53499">
        <ele>860.5</ele>
      </trkpt>
      <trkpt lat="42.53874" lon="2.535">
        <ele>860.4</ele>
      </trkpt>
      <trkpt lat="42.53876" lon="2.53501">
        <ele>860.5</ele>
      </trkpt>
      <trkpt lat="42.53881" lon="2.53504">
        <ele>860.6</ele>
      </trkpt>
      <trkpt lat="42.53886" lon="2.53508">
        <ele>860.5</ele>
      </trkpt>
      <trkpt lat="42.53889" lon="2.5351">
        <ele>860.4</ele>
      </trkpt>
      <trkpt lat="42.53891" lon="2.53511">
        <ele>860.4</ele>
      </trkpt>
      <trkpt lat="42.53894" lon="2.53511">
        <ele>860.6</ele>
      </trkpt>
      <trkpt lat="42.53897" lon="2.5351">
        <ele>860.9</ele>
      </trkpt>
      <trkpt lat="42.53899" lon="2.53507">
        <ele>861.5</ele>
      </trkpt>
      <trkpt lat="42.53901" lon="2.53505">
        <ele>861.9</ele>
      </trkpt>
      <trkpt lat="42.53903" lon="2.53502">
        <ele>862.5</ele>
      </trkpt>
      <trkpt lat="42.53904" lon="2.53499">
        <ele>863.2</ele>
      </trkpt>
      <trkpt lat="42.53904" lon="2.53496">
        <ele>864.1</ele>
      </trkpt>
      <trkpt lat="42.53905" lon="2.53493">
        <ele>865</ele>
      </trkpt>
      <trkpt lat="42.53904" lon="2.53491">
        <ele>865.5</ele>
      </trkpt>
      <trkpt lat="42.53904" lon="2.53488">
        <ele>866.3</ele>
      </trkpt>
      <trkpt lat="42.53903" lon="2.53486">
        <ele>866.8</ele>
      </trkpt>
      <trkpt lat="42.53901" lon="2.53484">
        <ele>867.2</ele>
      </trkpt>
      <trkpt lat="42.53899" lon="2.53482">
        <ele>867.6</ele>
      </trkpt>
      <trkpt lat="42.53897" lon="2.53481">
        <ele>867.7</ele>
      </trkpt>
      <trkpt lat="42.53885" lon="2.53476">
        <ele>867.9</ele>
      </trkpt>
      <trkpt lat="42.53864" lon="2.53469">
        <ele>867.8</ele>
      </trkpt>
      <trkpt lat="42.53854" lon="2.53466">
        <ele>867.6</ele>
      </trkpt>
      <trkpt lat="42.53847" lon="2.53465">
        <ele>867.2</ele>
      </trkpt>
      <trkpt lat="42.53839" lon="2.53463">
        <ele>866.9</ele>
      </trkpt>
      <trkpt lat="42.53831" lon="2.5346">
        <ele>867.1</ele>
      </trkpt>
      <trkpt lat="42.53821" lon="2.53455">
        <ele>868.6</ele>
      </trkpt>
      <trkpt lat="42.53812" lon="2.53449">
        <ele>870</ele>
      </trkpt>
      <trkpt lat="42.53804" lon="2.53444">
        <ele>871.1</ele>
      </trkpt>
      <trkpt lat="42.53796" lon="2.53439">
        <ele>872</ele>
      </trkpt>
      <trkpt lat="42.53789" lon="2.53434">
        <ele>872.8</ele>
      </trkpt>
      <trkpt lat="42.53784" lon="2.53429">
        <ele>873.6</ele>
      </trkpt>
      <trkpt lat="42.53777" lon="2.53422">
        <ele>874.5</ele>
      </trkpt>
      <trkpt lat="42.53764" lon="2.53405">
        <ele>876.6</ele>
      </trkpt>
      <trkpt lat="42.53763" lon="2.53403">
        <ele>876.9</ele>
      </trkpt>
      <trkpt lat="42.53757" lon="2.53391">
        <ele>878.3</ele>
      </trkpt>
      <trkpt lat="42.53734" lon="2.53331">
        <ele>885.7</ele>
      </trkpt>
      <trkpt lat="42.5373" lon="2.53319">
        <ele>888</ele>
      </trkpt>
      <trkpt lat="42.53728" lon="2.53307">
        <ele>890.4</ele>
      </trkpt>
      <trkpt lat="42.53727" lon="2.53297">
        <ele>892.4</ele>
      </trkpt>
      <trkpt lat="42.53728" lon="2.53289">
        <ele>894.1</ele>
      </trkpt>
      <trkpt lat="42.5373" lon="2.53278">
        <ele>896.5</ele>
      </trkpt>
      <trkpt lat="42.53733" lon="2.53264">
        <ele>899.5</ele>
      </trkpt>
      <trkpt lat="42.53733" lon="2.53264">
        <ele>899.5</ele>
      </trkpt>
      <trkpt lat="42.53724" lon="2.53254">
        <ele>901.2</ele>
      </trkpt>
      <trkpt lat="42.53719" lon="2.5325">
        <ele>901.9</ele>
      </trkpt>
      <trkpt lat="42.53713" lon="2.53247">
        <ele>901.8</ele>
      </trkpt>
      <trkpt lat="42.53708" lon="2.53245">
        <ele>901.6</ele>
      </trkpt>
      <trkpt lat="42.53706" lon="2.53246">
        <ele>901.5</ele>
      </trkpt>
      <trkpt lat="42.53703" lon="2.53246">
        <ele>901.4</ele>
      </trkpt>
      <trkpt lat="42.53699" lon="2.53248">
        <ele>901.2</ele>
      </trkpt>
      <trkpt lat="42.53698" lon="2.53249">
        <ele>901.2</ele>
      </trkpt>
      <trkpt lat="42.53693" lon="2.53253">
        <ele>900.3</ele>
      </trkpt>
      <trkpt lat="42.5369" lon="2.53258">
        <ele>899.1</ele>
      </trkpt>
      <trkpt lat="42.53686" lon="2.53268">
        <ele>896.9</ele>
      </trkpt>
      <trkpt lat="42.53681" lon="2.53283">
        <ele>893.5</ele>
      </trkpt>
      <trkpt lat="42.53678" lon="2.53291">
        <ele>891.6</ele>
      </trkpt>
      <trkpt lat="42.53675" lon="2.53295">
        <ele>890.6</ele>
      </trkpt>
      <trkpt lat="42.53673" lon="2.53298">
        <ele>889.9</ele>
      </trkpt>
      <trkpt lat="42.53669" lon="2.53302">
        <ele>888.9</ele>
      </trkpt>
      <trkpt lat="42.53661" lon="2.53309">
        <ele>888.4</ele>
      </trkpt>
      <trkpt lat="42.53654" lon="2.53315">
        <ele>888.6</ele>
      </trkpt>
      <trkpt lat="42.53647" lon="2.53323">
        <ele>888.5</ele>
      </trkpt>
      <trkpt lat="42.53644" lon="2.53327">
        <ele>888.4</ele>
      </trkpt>
      <trkpt lat="42.53642" lon="2.53334">
        <ele>887.7</ele>
      </trkpt>
      <trkpt lat="42.5364" lon="2.53342">
        <ele>888.7</ele>
      </trkpt>
      <trkpt lat="42.53642" lon="2.53348">
        <ele>888.6</ele>
      </trkpt>
      <trkpt lat="42.53645" lon="2.53353">
        <ele>888.1</ele>
      </trkpt>
      <trkpt lat="42.53648" lon="2.53359">
        <ele>887.6</ele>
      </trkpt>
      <trkpt lat="42.5365" lon="2.53365">
        <ele>887.2</ele>
      </trkpt>
      <trkpt lat="42.53653" lon="2.5337">
        <ele>886.5</ele>
      </trkpt>
      <trkpt lat="42.53656" lon="2.5338">
        <ele>885.8</ele>
      </trkpt>
      <trkpt lat="42.53657" lon="2.53389">
        <ele>885.7</ele>
      </trkpt>
      <trkpt lat="42.53657" lon="2.53398">
        <ele>885.9</ele>
      </trkpt>
      <trkpt lat="42.53655" lon="2.53406">
        <ele>887</ele>
      </trkpt>
      <trkpt lat="42.53653" lon="2.53413">
        <ele>888.1</ele>
      </trkpt>
      <trkpt lat="42.53651" lon="2.53421">
        <ele>889.6</ele>
      </trkpt>
      <trkpt lat="42.53649" lon="2.53428">
        <ele>891.3</ele>
      </trkpt>
      <trkpt lat="42.53648" lon="2.53435">
        <ele>892.5</ele>
      </trkpt>
      <trkpt lat="42.53648" lon="2.53442">
        <ele>893.2</ele>
      </trkpt>
      <trkpt lat="42.53649" lon="2.5345">
        <ele>893.6</ele>
      </trkpt>
      <trkpt lat="42.53651" lon="2.53458">
        <ele>893.5</ele>
      </trkpt>
      <trkpt lat="42.53654" lon="2.53466">
        <ele>892.7</ele>
      </trkpt>
      <trkpt lat="42.53656" lon="2.53475">
        <ele>892.6</ele>
      </trkpt>
      <trkpt lat="42.53658" lon="2.53482">
        <ele>892.2</ele>
      </trkpt>
      <trkpt lat="42.5366" lon="2.5349">
        <ele>891.8</ele>
      </trkpt>
      <trkpt lat="42.53662" lon="2.53497">
        <ele>891.4</ele>
      </trkpt>
      <trkpt lat="42.53665" lon="2.5352">
        <ele>895.9</ele>
      </trkpt>
      <trkpt lat="42.53667" lon="2.53527">
        <ele>897</ele>
      </trkpt>
      <trkpt lat="42.53669" lon="2.53533">
        <ele>898.1</ele>
      </trkpt>
      <trkpt lat="42.53672" lon="2.53539">
        <ele>898.8</ele>
      </trkpt>
      <trkpt lat="42.53676" lon="2.53545">
        <ele>899.1</ele>
      </trkpt>
      <trkpt lat="42.53682" lon="2.53551">
        <ele>898.5</ele>
      </trkpt>
      <trkpt lat="42.53687" lon="2.53557">
        <ele>898.2</ele>
      </trkpt>
      <trkpt lat="42.53717" lon="2.53588">
        <ele>894.3</ele>
      </trkpt>
      <trkpt lat="42.53746" lon="2.53612">
        <ele>892.8</ele>
      </trkpt>
      <trkpt lat="42.53771" lon="2.53633">
        <ele>892</ele>
      </trkpt>
      <trkpt lat="42.53788" lon="2.53646">
        <ele>889.2</ele>
      </trkpt>
      <trkpt lat="42.53793" lon="2.53651">
        <ele>888.5</ele>
      </trkpt>
      <trkpt lat="42.53799" lon="2.53656">
        <ele>887.1</ele>
      </trkpt>
      <trkpt lat="42.53804" lon="2.5366">
        <ele>885.7</ele>
      </trkpt>
      <trkpt lat="42.53808" lon="2.53665">
        <ele>884.9</ele>
      </trkpt>
      <trkpt lat="42.53812" lon="2.53671">
        <ele>885.3</ele>
      </trkpt>
      <trkpt lat="42.53816" lon="2.53678">
        <ele>886.4</ele>
      </trkpt>
      <trkpt lat="42.53819" lon="2.53685">
        <ele>888.1</ele>
      </trkpt>
      <trkpt lat="42.53822" lon="2.53693">
        <ele>890.2</ele>
      </trkpt>
      <trkpt lat="42.53824" lon="2.53702">
        <ele>893.2</ele>
      </trkpt>
      <trkpt lat="42.53827" lon="2.5371">
        <ele>895.3</ele>
      </trkpt>
      <trkpt lat="42.5383" lon="2.53719">
        <ele>897.7</ele>
      </trkpt>
      <trkpt lat="42.53834" lon="2.53728">
        <ele>899.6</ele>
      </trkpt>
      <trkpt lat="42.53839" lon="2.53738">
        <ele>901.3</ele>
      </trkpt>
      <trkpt lat="42.53843" lon="2.53747">
        <ele>902.8</ele>
      </trkpt>
      <trkpt lat="42.53848" lon="2.53757">
        <ele>903.1</ele>
      </trkpt>
      <trkpt lat="42.53853" lon="2.53766">
        <ele>902.6</ele>
      </trkpt>
      <trkpt lat="42.53857" lon="2.53775">
        <ele>902.8</ele>
      </trkpt>
      <trkpt lat="42.5386" lon="2.53782">
        <ele>903</ele>
      </trkpt>
      <trkpt lat="42.53863" lon="2.5379">
        <ele>903.5</ele>
      </trkpt>
      <trkpt lat="42.53866" lon="2.538">
        <ele>904.6</ele>
      </trkpt>
      <trkpt lat="42.5387" lon="2.53813">
        <ele>906</ele>
      </trkpt>
      <trkpt lat="42.53878" lon="2.53836">
        <ele>907.7</ele>
      </trkpt>
      <trkpt lat="42.5388" lon="2.53839">
        <ele>907.1</ele>
      </trkpt>
      <trkpt lat="42.53883" lon="2.53848">
        <ele>907</ele>
      </trkpt>
      <trkpt lat="42.53888" lon="2.53862">
        <ele>906.8</ele>
      </trkpt>
      <trkpt lat="42.53892" lon="2.53873">
        <ele>906.7</ele>
      </trkpt>
      <trkpt lat="42.53896" lon="2.53881">
        <ele>906</ele>
      </trkpt>
      <trkpt lat="42.53899" lon="2.53888">
        <ele>905.7</ele>
      </trkpt>
      <trkpt lat="42.53902" lon="2.53896">
        <ele>905.7</ele>
      </trkpt>
      <trkpt lat="42.53904" lon="2.53904">
        <ele>906.2</ele>
      </trkpt>
      <trkpt lat="42.53906" lon="2.53914">
        <ele>907.2</ele>
      </trkpt>
      <trkpt lat="42.53906" lon="2.53923">
        <ele>907.7</ele>
      </trkpt>
      <trkpt lat="42.53906" lon="2.53934">
        <ele>907.6</ele>
      </trkpt>
      <trkpt lat="42.53904" lon="2.53945">
        <ele>908.7</ele>
      </trkpt>
      <trkpt lat="42.53902" lon="2.53956">
        <ele>909.9</ele>
      </trkpt>
      <trkpt lat="42.53901" lon="2.53965">
        <ele>910.5</ele>
      </trkpt>
      <trkpt lat="42.539" lon="2.53975">
        <ele>911.1</ele>
      </trkpt>
      <trkpt lat="42.53899" lon="2.53985">
        <ele>911.8</ele>
      </trkpt>
      <trkpt lat="42.53899" lon="2.53995">
        <ele>911.8</ele>
      </trkpt>
      <trkpt lat="42.53899" lon="2.54005">
        <ele>911.8</ele>
      </trkpt>
      <trkpt lat="42.539" lon="2.54016">
        <ele>911</ele>
      </trkpt>
      <trkpt lat="42.53902" lon="2.54026">
        <ele>909.5</ele>
      </trkpt>
      <trkpt lat="42.53905" lon="2.54036">
        <ele>907.3</ele>
      </trkpt>
      <trkpt lat="42.53908" lon="2.54046">
        <ele>905.2</ele>
      </trkpt>
      <trkpt lat="42.53911" lon="2.54054">
        <ele>903.1</ele>
      </trkpt>
      <trkpt lat="42.53912" lon="2.54063">
        <ele>902.3</ele>
      </trkpt>
      <trkpt lat="42.53916" lon="2.54079">
        <ele>899.5</ele>
      </trkpt>
      <trkpt lat="42.53918" lon="2.54097">
        <ele>897.2</ele>
      </trkpt>
      <trkpt lat="42.53919" lon="2.54109">
        <ele>895.7</ele>
      </trkpt>
      <trkpt lat="42.53918" lon="2.54119">
        <ele>895.9</ele>
      </trkpt>
      <trkpt lat="42.53916" lon="2.54128">
        <ele>896.7</ele>
      </trkpt>
      <trkpt lat="42.53914" lon="2.54138">
        <ele>897.2</ele>
      </trkpt>
      <trkpt lat="42.53911" lon="2.54146">
        <ele>898.3</ele>
      </trkpt>
      <trkpt lat="42.53905" lon="2.54156">
        <ele>900.6</ele>
      </trkpt>
      <trkpt lat="42.53896" lon="2.54169">
        <ele>904.3</ele>
      </trkpt>
      <trkpt lat="42.53891" lon="2.54181">
        <ele>907.5</ele>
      </trkpt>
      <trkpt lat="42.53889" lon="2.54188">
        <ele>909</ele>
      </trkpt>
      <trkpt lat="42.53888" lon="2.54194">
        <ele>909.8</ele>
      </trkpt>
      <trkpt lat="42.53889" lon="2.54205">
        <ele>910.1</ele>
      </trkpt>
      <trkpt lat="42.53894" lon="2.54218">
        <ele>908.5</ele>
      </trkpt>
      <trkpt lat="42.53916" lon="2.54245">
        <ele>899.9</ele>
      </trkpt>
      <trkpt lat="42.53932" lon="2.54262">
        <ele>893.2</ele>
      </trkpt>
      <trkpt lat="42.53939" lon="2.54271">
        <ele>890.9</ele>
      </trkpt>
      <trkpt lat="42.53946" lon="2.5428">
        <ele>888.7</ele>
      </trkpt>
      <trkpt lat="42.53954" lon="2.54291">
        <ele>886.3</ele>
      </trkpt>
      <trkpt lat="42.53961" lon="2.54302">
        <ele>884.7</ele>
      </trkpt>
      <trkpt lat="42.53966" lon="2.54312">
        <ele>884.1</ele>
      </trkpt>
      <trkpt lat="42.53972" lon="2.54325">
        <ele>883.6</ele>
      </trkpt>
      <trkpt lat="42.53981" lon="2.54348">
        <ele>882.2</ele>
      </trkpt>
      <trkpt lat="42.53991" lon="2.54369">
        <ele>879.6</ele>
      </trkpt>
      <trkpt lat="42.54001" lon="2.54386">
        <ele>876.9</ele>
      </trkpt>
      <trkpt lat="42.54013" lon="2.54403">
        <ele>871.7</ele>
      </trkpt>
      <trkpt lat="42.54028" lon="2.54419">
        <ele>864.1</ele>
      </trkpt>
      <trkpt lat="42.54033" lon="2.54424">
        <ele>860.8</ele>
      </trkpt>
      <trkpt lat="42.54036" lon="2.5443">
        <ele>858.9</ele>
      </trkpt>
      <trkpt lat="42.54037" lon="2.54437">
        <ele>858.2</ele>
      </trkpt>
      <trkpt lat="42.54037" lon="2.54444">
        <ele>858.1</ele>
      </trkpt>
      <trkpt lat="42.54034" lon="2.54453">
        <ele>859.6</ele>
      </trkpt>
      <trkpt lat="42.54021" lon="2.54481">
        <ele>865.8</ele>
      </trkpt>
      <trkpt lat="42.54009" lon="2.54503">
        <ele>869.3</ele>
      </trkpt>
      <trkpt lat="42.54005" lon="2.54507">
        <ele>869.4</ele>
      </trkpt>
      <trkpt lat="42.54001" lon="2.54509">
        <ele>870.3</ele>
      </trkpt>
      <trkpt lat="42.53996" lon="2.5451">
        <ele>870.6</ele>
      </trkpt>
      <trkpt lat="42.53991" lon="2.54509">
        <ele>871.3</ele>
      </trkpt>
      <trkpt lat="42.53984" lon="2.54508">
        <ele>872.3</ele>
      </trkpt>
      <trkpt lat="42.53976" lon="2.54507">
        <ele>873.3</ele>
      </trkpt>
      <trkpt lat="42.53969" lon="2.54508">
        <ele>873.2</ele>
      </trkpt>
      <trkpt lat="42.53962" lon="2.54509">
        <ele>873.1</ele>
      </trkpt>
      <trkpt lat="42.53955" lon="2.54511">
        <ele>872.5</ele>
      </trkpt>
      <trkpt lat="42.53948" lon="2.54513">
        <ele>871.9</ele>
      </trkpt>
      <trkpt lat="42.5394" lon="2.54514">
        <ele>871.8</ele>
      </trkpt>
      <trkpt lat="42.53934" lon="2.54513">
        <ele>872.7</ele>
      </trkpt>
      <trkpt lat="42.53928" lon="2.54511">
        <ele>874.1</ele>
      </trkpt>
      <trkpt lat="42.53922" lon="2.54506">
        <ele>877.3</ele>
      </trkpt>
      <trkpt lat="42.53913" lon="2.54499">
        <ele>880.5</ele>
      </trkpt>
      <trkpt lat="42.53906" lon="2.54497">
        <ele>879.7</ele>
      </trkpt>
      <trkpt lat="42.53893" lon="2.54493">
        <ele>878.5</ele>
      </trkpt>
      <trkpt lat="42.5388" lon="2.54488">
        <ele>878.2</ele>
      </trkpt>
      <trkpt lat="42.53859" lon="2.5448">
        <ele>878.2</ele>
      </trkpt>
      <trkpt lat="42.53844" lon="2.54477">
        <ele>877</ele>
      </trkpt>
      <trkpt lat="42.53823" lon="2.54474">
        <ele>877.1</ele>
      </trkpt>
      <trkpt lat="42.53802" lon="2.54474">
        <ele>877.5</ele>
      </trkpt>
      <trkpt lat="42.53787" lon="2.54476">
        <ele>876.7</ele>
      </trkpt>
      <trkpt lat="42.5376" lon="2.54488">
        <ele>870.9</ele>
      </trkpt>
      <trkpt lat="42.53734" lon="2.54501">
        <ele>868.4</ele>
      </trkpt>
      <trkpt lat="42.53722" lon="2.54512">
        <ele>867.9</ele>
      </trkpt>
      <trkpt lat="42.53717" lon="2.5452">
        <ele>866.7</ele>
      </trkpt>
      <trkpt lat="42.53713" lon="2.54527">
        <ele>865.4</ele>
      </trkpt>
      <trkpt lat="42.53705" lon="2.54547">
        <ele>861</ele>
      </trkpt>
      <trkpt lat="42.53697" lon="2.54571">
        <ele>855.1</ele>
      </trkpt>
      <trkpt lat="42.5369" lon="2.54583">
        <ele>852.5</ele>
      </trkpt>
      <trkpt lat="42.5368" lon="2.54593">
        <ele>854.5</ele>
      </trkpt>
      <trkpt lat="42.53669" lon="2.54598">
        <ele>856.2</ele>
      </trkpt>
      <trkpt lat="42.53661" lon="2.54599">
        <ele>857.5</ele>
      </trkpt>
      <trkpt lat="42.53651" lon="2.54599">
        <ele>859.2</ele>
      </trkpt>
      <trkpt lat="42.53645" lon="2.54597">
        <ele>860</ele>
      </trkpt>
      <trkpt lat="42.53639" lon="2.54594">
        <ele>860.7</ele>
      </trkpt>
      <trkpt lat="42.5363" lon="2.5459">
        <ele>861.6</ele>
      </trkpt>
      <trkpt lat="42.53625" lon="2.54588">
        <ele>862.1</ele>
      </trkpt>
      <trkpt lat="42.53618" lon="2.54588">
        <ele>863.1</ele>
      </trkpt>
      <trkpt lat="42.53612" lon="2.5459">
        <ele>864.3</ele>
      </trkpt>
      <trkpt lat="42.53609" lon="2.54594">
        <ele>865.4</ele>
      </trkpt>
      <trkpt lat="42.53607" lon="2.54598">
        <ele>866.4</ele>
      </trkpt>
      <trkpt lat="42.53606" lon="2.54602">
        <ele>867.3</ele>
      </trkpt>
      <trkpt lat="42.53605" lon="2.54606">
        <ele>868.2</ele>
      </trkpt>
      <trkpt lat="42.53605" lon="2.54611">
        <ele>869.1</ele>
      </trkpt>
      <trkpt lat="42.53608" lon="2.54618">
        <ele>869.7</ele>
      </trkpt>
      <trkpt lat="42.53613" lon="2.54626">
        <ele>869.9</ele>
      </trkpt>
      <trkpt lat="42.53622" lon="2.54635">
        <ele>869.1</ele>
      </trkpt>
      <trkpt lat="42.53646" lon="2.54656">
        <ele>864.8</ele>
      </trkpt>
      <trkpt lat="42.53663" lon="2.5467">
        <ele>862.3</ele>
      </trkpt>
      <trkpt lat="42.53669" lon="2.54675">
        <ele>864.3</ele>
      </trkpt>
      <trkpt lat="42.53674" lon="2.54678">
        <ele>866.1</ele>
      </trkpt>
      <trkpt lat="42.53681" lon="2.5468">
        <ele>867.1</ele>
      </trkpt>
      <trkpt lat="42.53686" lon="2.5468">
        <ele>866.9</ele>
      </trkpt>
      <trkpt lat="42.53692" lon="2.54678">
        <ele>865.5</ele>
      </trkpt>
      <trkpt lat="42.5371" lon="2.54671">
        <ele>860.6</ele>
      </trkpt>
      <trkpt lat="42.53736" lon="2.54664">
        <ele>856.9</ele>
      </trkpt>
      <trkpt lat="42.53775" lon="2.54652">
        <ele>852.6</ele>
      </trkpt>
      <trkpt lat="42.53782" lon="2.54651">
        <ele>851.9</ele>
      </trkpt>
      <trkpt lat="42.53791" lon="2.54653">
        <ele>851.6</ele>
      </trkpt>
      <trkpt lat="42.53802" lon="2.54658">
        <ele>851.7</ele>
      </trkpt>
      <trkpt lat="42.53809" lon="2.54665">
        <ele>852.4</ele>
      </trkpt>
      <trkpt lat="42.53818" lon="2.54677">
        <ele>856.2</ele>
      </trkpt>
      <trkpt lat="42.53836" lon="2.54703">
        <ele>863.7</ele>
      </trkpt>
      <trkpt lat="42.53851" lon="2.5472">
        <ele>867.8</ele>
      </trkpt>
      <trkpt lat="42.53857" lon="2.54725">
        <ele>868.8</ele>
      </trkpt>
      <trkpt lat="42.53869" lon="2.5473">
        <ele>869.1</ele>
      </trkpt>
      <trkpt lat="42.53886" lon="2.54735">
        <ele>868.8</ele>
      </trkpt>
      <trkpt lat="42.53895" lon="2.54738">
        <ele>868.9</ele>
      </trkpt>
      <trkpt lat="42.53924" lon="2.54749">
        <ele>869.7</ele>
      </trkpt>
      <trkpt lat="42.53932" lon="2.54752">
        <ele>870.1</ele>
      </trkpt>
      <trkpt lat="42.53943" lon="2.54754">
        <ele>869.9</ele>
      </trkpt>
      <trkpt lat="42.53955" lon="2.54755">
        <ele>869</ele>
      </trkpt>
      <trkpt lat="42.53968" lon="2.54755">
        <ele>867.6</ele>
      </trkpt>
      <trkpt lat="42.53979" lon="2.54757">
        <ele>867.4</ele>
      </trkpt>
      <trkpt lat="42.53993" lon="2.54763">
        <ele>869.4</ele>
      </trkpt>
      <trkpt lat="42.54013" lon="2.54769">
        <ele>872</ele>
      </trkpt>
      <trkpt lat="42.54077" lon="2.54785">
        <ele>879</ele>
      </trkpt>
      <trkpt lat="42.54085" lon="2.54786">
        <ele>879.4</ele>
      </trkpt>
      <trkpt lat="42.54097" lon="2.54787">
        <ele>880.9</ele>
      </trkpt>
      <trkpt lat="42.54112" lon="2.54786">
        <ele>881.7</ele>
      </trkpt>
      <trkpt lat="42.54127" lon="2.54785">
        <ele>882.6</ele>
      </trkpt>
      <trkpt lat="42.54142" lon="2.54783">
        <ele>882.9</ele>
      </trkpt>
      <trkpt lat="42.54157" lon="2.5478">
        <ele>882.8</ele>
      </trkpt>
      <trkpt lat="42.54178" lon="2.54777">
        <ele>880.9</ele>
      </trkpt>
      <trkpt lat="42.54192" lon="2.54777">
        <ele>879.1</ele>
      </trkpt>
      <trkpt lat="42.54215" lon="2.5478">
        <ele>877.4</ele>
      </trkpt>
      <trkpt lat="42.54232" lon="2.54786">
        <ele>877.4</ele>
      </trkpt>
      <trkpt lat="42.54243" lon="2.54793">
        <ele>878.5</ele>
      </trkpt>
      <trkpt lat="42.5425" lon="2.54801">
        <ele>880.4</ele>
      </trkpt>
      <trkpt lat="42.54256" lon="2.54815">
        <ele>882.3</ele>
      </trkpt>
      <trkpt lat="42.54258" lon="2.54824">
        <ele>884.6</ele>
      </trkpt>
      <trkpt lat="42.54259" lon="2.54837">
        <ele>887.3</ele>
      </trkpt>
      <trkpt lat="42.54259" lon="2.54848">
        <ele>887</ele>
      </trkpt>
      <trkpt lat="42.54255" lon="2.54863">
        <ele>888.7</ele>
      </trkpt>
      <trkpt lat="42.5425" lon="2.54877">
        <ele>890.9</ele>
      </trkpt>
      <trkpt lat="42.54245" lon="2.54886">
        <ele>892.3</ele>
      </trkpt>
      <trkpt lat="42.5424" lon="2.54895">
        <ele>893.9</ele>
      </trkpt>
      <trkpt lat="42.5422" lon="2.54936">
        <ele>897.7</ele>
      </trkpt>
      <trkpt lat="42.5421" lon="2.54959">
        <ele>897.2</ele>
      </trkpt>
      <trkpt lat="42.54205" lon="2.54967">
        <ele>897.7</ele>
      </trkpt>
      <trkpt lat="42.54199" lon="2.54975">
        <ele>898.7</ele>
      </trkpt>
      <trkpt lat="42.54192" lon="2.54982">
        <ele>900.3</ele>
      </trkpt>
      <trkpt lat="42.54185" lon="2.54987">
        <ele>902.4</ele>
      </trkpt>
      <trkpt lat="42.54165" lon="2.55003">
        <ele>907.8</ele>
      </trkpt>
      <trkpt lat="42.54135" lon="2.55022">
        <ele>912.8</ele>
      </trkpt>
      <trkpt lat="42.54104" lon="2.55041">
        <ele>916.5</ele>
      </trkpt>
      <trkpt lat="42.54073" lon="2.55057">
        <ele>919.7</ele>
      </trkpt>
      <trkpt lat="42.54042" lon="2.55068">
        <ele>925</ele>
      </trkpt>
      <trkpt lat="42.5402" lon="2.55078">
        <ele>928.4</ele>
      </trkpt>
      <trkpt lat="42.54005" lon="2.55089">
        <ele>929.6</ele>
      </trkpt>
      <trkpt lat="42.53971" lon="2.55123">
        <ele>930.5</ele>
      </trkpt>
      <trkpt lat="42.53927" lon="2.55164">
        <ele>937.2</ele>
      </trkpt>
      <trkpt lat="42.53917" lon="2.55177">
        <ele>939.5</ele>
      </trkpt>
      <trkpt lat="42.53912" lon="2.55188">
        <ele>939.9</ele>
      </trkpt>
      <trkpt lat="42.53906" lon="2.55202">
        <ele>940.2</ele>
      </trkpt>
      <trkpt lat="42.53901" lon="2.55229">
        <ele>938.3</ele>
      </trkpt>
      <trkpt lat="42.53891" lon="2.55282">
        <ele>933.7</ele>
      </trkpt>
      <trkpt lat="42.53886" lon="2.55299">
        <ele>932.6</ele>
      </trkpt>
      <trkpt lat="42.53883" lon="2.55309">
        <ele>931.9</ele>
      </trkpt>
      <trkpt lat="42.53881" lon="2.55316">
        <ele>931.4</ele>
      </trkpt>
      <trkpt lat="42.53877" lon="2.55322">
        <ele>931.7</ele>
      </trkpt>
      <trkpt lat="42.53872" lon="2.55329">
        <ele>932.2</ele>
      </trkpt>
      <trkpt lat="42.53864" lon="2.55336">
        <ele>933.5</ele>
      </trkpt>
      <trkpt lat="42.53852" lon="2.55342">
        <ele>936</ele>
      </trkpt>
      <trkpt lat="42.53819" lon="2.55359">
        <ele>942.5</ele>
      </trkpt>
      <trkpt lat="42.53777" lon="2.55382">
        <ele>949.3</ele>
      </trkpt>
      <trkpt lat="42.53754" lon="2.55393">
        <ele>953.1</ele>
      </trkpt>
      <trkpt lat="42.53736" lon="2.55401">
        <ele>956.1</ele>
      </trkpt>
      <trkpt lat="42.53727" lon="2.55403">
        <ele>958.1</ele>
      </trkpt>
      <trkpt lat="42.53717" lon="2.55404">
        <ele>960.7</ele>
      </trkpt>
      <trkpt lat="42.53708" lon="2.55403">
        <ele>963.5</ele>
      </trkpt>
      <trkpt lat="42.53698" lon="2.554">
        <ele>967.1</ele>
      </trkpt>
      <trkpt lat="42.5369" lon="2.55399">
        <ele>969.6</ele>
      </trkpt>
      <trkpt lat="42.53686" lon="2.55399">
        <ele>970.8</ele>
      </trkpt>
      <trkpt lat="42.53682" lon="2.554">
        <ele>971.7</ele>
      </trkpt>
      <trkpt lat="42.53679" lon="2.55403">
        <ele>971.8</ele>
      </trkpt>
      <trkpt lat="42.53675" lon="2.55407">
        <ele>971.9</ele>
      </trkpt>
      <trkpt lat="42.53673" lon="2.55413">
        <ele>971.1</ele>
      </trkpt>
      <trkpt lat="42.53673" lon="2.55417">
        <ele>970.2</ele>
      </trkpt>
      <trkpt lat="42.53673" lon="2.55421">
        <ele>970.7</ele>
      </trkpt>
      <trkpt lat="42.53675" lon="2.55427">
        <ele>970.8</ele>
      </trkpt>
      <trkpt lat="42.53677" lon="2.55431">
        <ele>970.7</ele>
      </trkpt>
      <trkpt lat="42.53683" lon="2.55437">
        <ele>969.4</ele>
      </trkpt>
      <trkpt lat="42.53697" lon="2.5545">
        <ele>965.9</ele>
      </trkpt>
      <trkpt lat="42.53707" lon="2.55461">
        <ele>963.1</ele>
      </trkpt>
      <trkpt lat="42.53717" lon="2.55475">
        <ele>960.1</ele>
      </trkpt>
      <trkpt lat="42.53729" lon="2.55493">
        <ele>955.9</ele>
      </trkpt>
      <trkpt lat="42.53737" lon="2.55505">
        <ele>952.8</ele>
      </trkpt>
      <trkpt lat="42.5374" lon="2.55512">
        <ele>951.8</ele>
      </trkpt>
      <trkpt lat="42.53741" lon="2.55517">
        <ele>951.5</ele>
      </trkpt>
      <trkpt lat="42.53742" lon="2.55524">
        <ele>951.4</ele>
      </trkpt>
      <trkpt lat="42.53742" lon="2.55531">
        <ele>951.6</ele>
      </trkpt>
      <trkpt lat="42.53742" lon="2.55536">
        <ele>951.8</ele>
      </trkpt>
      <trkpt lat="42.53739" lon="2.55545">
        <ele>953.5</ele>
      </trkpt>
      <trkpt lat="42.53736" lon="2.55553">
        <ele>955.2</ele>
      </trkpt>
      <trkpt lat="42.53732" lon="2.55563">
        <ele>957.4</ele>
      </trkpt>
      <trkpt lat="42.53729" lon="2.55572">
        <ele>959.1</ele>
      </trkpt>
      <trkpt lat="42.53726" lon="2.55581">
        <ele>960.8</ele>
      </trkpt>
      <trkpt lat="42.53722" lon="2.5559">
        <ele>961.7</ele>
      </trkpt>
      <trkpt lat="42.53719" lon="2.556">
        <ele>961.5</ele>
      </trkpt>
      <trkpt lat="42.53715" lon="2.55609">
        <ele>961.8</ele>
      </trkpt>
      <trkpt lat="42.53711" lon="2.55618">
        <ele>962</ele>
      </trkpt>
      <trkpt lat="42.53706" lon="2.55627">
        <ele>962.6</ele>
      </trkpt>
      <trkpt lat="42.53702" lon="2.55636">
        <ele>962.7</ele>
      </trkpt>
      <trkpt lat="42.53684" lon="2.55658">
        <ele>966</ele>
      </trkpt>
      <trkpt lat="42.5366" lon="2.55684">
        <ele>970.7</ele>
      </trkpt>
      <trkpt lat="42.53642" lon="2.55703">
        <ele>977.5</ele>
      </trkpt>
      <trkpt lat="42.53634" lon="2.55719">
        <ele>979.1</ele>
      </trkpt>
      <trkpt lat="42.53621" lon="2.55755">
        <ele>980.4</ele>
      </trkpt>
      <trkpt lat="42.53617" lon="2.55771">
        <ele>980.4</ele>
      </trkpt>
      <trkpt lat="42.53608" lon="2.55797">
        <ele>982.2</ele>
      </trkpt>
      <trkpt lat="42.53603" lon="2.55811">
        <ele>983.3</ele>
      </trkpt>
      <trkpt lat="42.53598" lon="2.55827">
        <ele>984</ele>
      </trkpt>
      <trkpt lat="42.53583" lon="2.55861">
        <ele>984.2</ele>
      </trkpt>
      <trkpt lat="42.53573" lon="2.5588">
        <ele>983.4</ele>
      </trkpt>
      <trkpt lat="42.53557" lon="2.559">
        <ele>985.2</ele>
      </trkpt>
      <trkpt lat="42.53546" lon="2.5591">
        <ele>987.5</ele>
      </trkpt>
      <trkpt lat="42.53535" lon="2.55915">
        <ele>991.5</ele>
      </trkpt>
      <trkpt lat="42.53523" lon="2.55918">
        <ele>996.6</ele>
      </trkpt>
      <trkpt lat="42.53509" lon="2.55921">
        <ele>1002.5</ele>
      </trkpt>
      <trkpt lat="42.53501" lon="2.55926">
        <ele>1004.3</ele>
      </trkpt>
      <trkpt lat="42.53495" lon="2.55932">
        <ele>1004.4</ele>
      </trkpt>
      <trkpt lat="42.53491" lon="2.55946">
        <ele>1000</ele>
      </trkpt>
      <trkpt lat="42.53485" lon="2.55964">
        <ele>994.7</ele>
      </trkpt>
      <trkpt lat="42.5348" lon="2.55976">
        <ele>991.7</ele>
      </trkpt>
      <trkpt lat="42.53468" lon="2.55993">
        <ele>989.7</ele>
      </trkpt>
      <trkpt lat="42.53454" lon="2.56006">
        <ele>991.1</ele>
      </trkpt>
      <trkpt lat="42.53441" lon="2.56015">
        <ele>994.2</ele>
      </trkpt>
      <trkpt lat="42.53428" lon="2.5602">
        <ele>998.3</ele>
      </trkpt>
      <trkpt lat="42.53414" lon="2.56022">
        <ele>1003.4</ele>
      </trkpt>
      <trkpt lat="42.53407" lon="2.56022">
        <ele>1005.5</ele>
      </trkpt>
      <trkpt lat="42.53397" lon="2.56022">
        <ele>1008.4</ele>
      </trkpt>
      <trkpt lat="42.53382" lon="2.56018">
        <ele>1013.9</ele>
      </trkpt>
      <trkpt lat="42.53369" lon="2.56016">
        <ele>1018.2</ele>
      </trkpt>
      <trkpt lat="42.53359" lon="2.56016">
        <ele>1021</ele>
      </trkpt>
      <trkpt lat="42.53353" lon="2.5602">
        <ele>1021.9</ele>
      </trkpt>
      <trkpt lat="42.53349" lon="2.56026">
        <ele>1021.9</ele>
      </trkpt>
      <trkpt lat="42.53347" lon="2.56034">
        <ele>1020.9</ele>
      </trkpt>
      <trkpt lat="42.53348" lon="2.5604">
        <ele>1019.4</ele>
      </trkpt>
      <trkpt lat="42.53349" lon="2.56049">
        <ele>1017.3</ele>
      </trkpt>
      <trkpt lat="42.53362" lon="2.5609">
        <ele>1005.3</ele>
      </trkpt>
      <trkpt lat="42.53375" lon="2.56129">
        <ele>1001.1</ele>
      </trkpt>
      <trkpt lat="42.53382" lon="2.56153">
        <ele>998.4</ele>
      </trkpt>
      <trkpt lat="42.53389" lon="2.56187">
        <ele>995.1</ele>
      </trkpt>
      <trkpt lat="42.53391" lon="2.56213">
        <ele>994.2</ele>
      </trkpt>
      <trkpt lat="42.5339" lon="2.5623">
        <ele>994.9</ele>
      </trkpt>
      <trkpt lat="42.53388" lon="2.56245">
        <ele>996.1</ele>
      </trkpt>
      <trkpt lat="42.53382" lon="2.56266">
        <ele>996.5</ele>
      </trkpt>
      <trkpt lat="42.53379" lon="2.56274">
        <ele>996.5</ele>
      </trkpt>
      <trkpt lat="42.53371" lon="2.56285">
        <ele>998.1</ele>
      </trkpt>
      <trkpt lat="42.53366" lon="2.5629">
        <ele>999.3</ele>
      </trkpt>
      <trkpt lat="42.53361" lon="2.56294">
        <ele>1000.7</ele>
      </trkpt>
      <trkpt lat="42.53355" lon="2.56296">
        <ele>1002.9</ele>
      </trkpt>
      <trkpt lat="42.53348" lon="2.56297">
        <ele>1005.7</ele>
      </trkpt>
      <trkpt lat="42.5334" lon="2.56298">
        <ele>1008.9</ele>
      </trkpt>
      <trkpt lat="42.53333" lon="2.56299">
        <ele>1011.6</ele>
      </trkpt>
      <trkpt lat="42.53319" lon="2.56304">
        <ele>1014.9</ele>
      </trkpt>
      <trkpt lat="42.53312" lon="2.56309">
        <ele>1015.7</ele>
      </trkpt>
      <trkpt lat="42.53303" lon="2.56317">
        <ele>1016.2</ele>
      </trkpt>
      <trkpt lat="42.5329" lon="2.56327">
        <ele>1017.1</ele>
      </trkpt>
      <trkpt lat="42.53278" lon="2.56336">
        <ele>1018.1</ele>
      </trkpt>
      <trkpt lat="42.53269" lon="2.56345">
        <ele>1019</ele>
      </trkpt>
      <trkpt lat="42.53261" lon="2.56353">
        <ele>1019.5</ele>
      </trkpt>
      <trkpt lat="42.53253" lon="2.56361">
        <ele>1019.9</ele>
      </trkpt>
      <trkpt lat="42.53246" lon="2.56368">
        <ele>1020.1</ele>
      </trkpt>
      <trkpt lat="42.53239" lon="2.56373">
        <ele>1020.6</ele>
      </trkpt>
      <trkpt lat="42.53235" lon="2.56375">
        <ele>1021.1</ele>
      </trkpt>
      <trkpt lat="42.53227" lon="2.56378">
        <ele>1022.3</ele>
      </trkpt>
      <trkpt lat="42.53222" lon="2.56379">
        <ele>1023.2</ele>
      </trkpt>
      <trkpt lat="42.53213" lon="2.56381">
        <ele>1024.8</ele>
      </trkpt>
      <trkpt lat="42.53207" lon="2.56383">
        <ele>1025.6</ele>
      </trkpt>
      <trkpt lat="42.532" lon="2.56386">
        <ele>1026.4</ele>
      </trkpt>
      <trkpt lat="42.53198" lon="2.56387">
        <ele>1026.5</ele>
      </trkpt>
      <trkpt lat="42.53193" lon="2.56389">
        <ele>1027.1</ele>
      </trkpt>
      <trkpt lat="42.53186" lon="2.56392">
        <ele>1027.7</ele>
      </trkpt>
      <trkpt lat="42.53178" lon="2.56394">
        <ele>1028.9</ele>
      </trkpt>
      <trkpt lat="42.53171" lon="2.56396">
        <ele>1029.8</ele>
      </trkpt>
      <trkpt lat="42.53165" lon="2.56397">
        <ele>1030.6</ele>
      </trkpt>
      <trkpt lat="42.53156" lon="2.56398">
        <ele>1031.5</ele>
      </trkpt>
      <trkpt lat="42.53149" lon="2.56398">
        <ele>1032.4</ele>
      </trkpt>
      <trkpt lat="42.53142" lon="2.56397">
        <ele>1033.7</ele>
      </trkpt>
      <trkpt lat="42.53135" lon="2.56396">
        <ele>1034.9</ele>
      </trkpt>
      <trkpt lat="42.53127" lon="2.56393">
        <ele>1036.7</ele>
      </trkpt>
      <trkpt lat="42.53121" lon="2.56389">
        <ele>1038.4</ele>
      </trkpt>
      <trkpt lat="42.53116" lon="2.56384">
        <ele>1040.2</ele>
      </trkpt>
      <trkpt lat="42.5311" lon="2.5638">
        <ele>1041.8</ele>
      </trkpt>
      <trkpt lat="42.53105" lon="2.56377">
        <ele>1043</ele>
      </trkpt>
      <trkpt lat="42.53101" lon="2.56376">
        <ele>1043.6</ele>
      </trkpt>
      <trkpt lat="42.53096" lon="2.56376">
        <ele>1044.1</ele>
      </trkpt>
      <trkpt lat="42.53091" lon="2.56379">
        <ele>1044</ele>
      </trkpt>
      <trkpt lat="42.53088" lon="2.56383">
        <ele>1043.5</ele>
      </trkpt>
      <trkpt lat="42.53086" lon="2.56389">
        <ele>1042.7</ele>
      </trkpt>
      <trkpt lat="42.53085" lon="2.56392">
        <ele>1042.2</ele>
      </trkpt>
      <trkpt lat="42.53085" lon="2.56396">
        <ele>1041.5</ele>
      </trkpt>
      <trkpt lat="42.53084" lon="2.56399">
        <ele>1041.1</ele>
      </trkpt>
      <trkpt lat="42.53084" lon="2.56406">
        <ele>1039.8</ele>
      </trkpt>
      <trkpt lat="42.53088" lon="2.56414">
        <ele>1037.7</ele>
      </trkpt>
      <trkpt lat="42.53093" lon="2.56425">
        <ele>1038.3</ele>
      </trkpt>
      <trkpt lat="42.53109" lon="2.56449">
        <ele>1040.3</ele>
      </trkpt>
      <trkpt lat="42.53122" lon="2.56466">
        <ele>1040.6</ele>
      </trkpt>
      <trkpt lat="42.5314" lon="2.5648">
        <ele>1038.5</ele>
      </trkpt>
      <trkpt lat="42.53174" lon="2.56493">
        <ele>1032.4</ele>
      </trkpt>
      <trkpt lat="42.53214" lon="2.56504">
        <ele>1031.4</ele>
      </trkpt>
      <trkpt lat="42.53242" lon="2.5651">
        <ele>1031.2</ele>
      </trkpt>
      <trkpt lat="42.53259" lon="2.56514">
        <ele>1031.7</ele>
      </trkpt>
      <trkpt lat="42.5328" lon="2.56516">
        <ele>1031.9</ele>
      </trkpt>
      <trkpt lat="42.533" lon="2.56514">
        <ele>1030.3</ele>
      </trkpt>
      <trkpt lat="42.53326" lon="2.56508">
        <ele>1027.2</ele>
      </trkpt>
      <trkpt lat="42.53338" lon="2.56509">
        <ele>1027</ele>
      </trkpt>
      <trkpt lat="42.53355" lon="2.56513">
        <ele>1027.3</ele>
      </trkpt>
      <trkpt lat="42.53408" lon="2.56531">
        <ele>1028.7</ele>
      </trkpt>
      <trkpt lat="42.53468" lon="2.56545">
        <ele>1028.1</ele>
      </trkpt>
      <trkpt lat="42.53526" lon="2.56563">
        <ele>1031.3</ele>
      </trkpt>
      <trkpt lat="42.53532" lon="2.56564">
        <ele>1032</ele>
      </trkpt>
      <trkpt lat="42.53537" lon="2.56566">
        <ele>1032.6</ele>
      </trkpt>
      <trkpt lat="42.53553" lon="2.5657">
        <ele>1034.1</ele>
      </trkpt>
      <trkpt lat="42.5358" lon="2.56577">
        <ele>1035.9</ele>
      </trkpt>
      <trkpt lat="42.53599" lon="2.56585">
        <ele>1038.6</ele>
      </trkpt>
      <trkpt lat="42.53624" lon="2.56601">
        <ele>1039.5</ele>
      </trkpt>
      <trkpt lat="42.53654" lon="2.56621">
        <ele>1039.2</ele>
      </trkpt>
      <trkpt lat="42.53663" lon="2.56628">
        <ele>1038.6</ele>
      </trkpt>
      <trkpt lat="42.53672" lon="2.56636">
        <ele>1038.2</ele>
      </trkpt>
      <trkpt lat="42.5368" lon="2.56646">
        <ele>1037.6</ele>
      </trkpt>
      <trkpt lat="42.53685" lon="2.56659">
        <ele>1035.4</ele>
      </trkpt>
      <trkpt lat="42.53689" lon="2.56673">
        <ele>1033</ele>
      </trkpt>
      <trkpt lat="42.5369" lon="2.56681">
        <ele>1031.5</ele>
      </trkpt>
      <trkpt lat="42.53692" lon="2.56689">
        <ele>1030.3</ele>
      </trkpt>
      <trkpt lat="42.53694" lon="2.567">
        <ele>1028.4</ele>
      </trkpt>
      <trkpt lat="42.53696" lon="2.56709">
        <ele>1027</ele>
      </trkpt>
      <trkpt lat="42.53698" lon="2.56717">
        <ele>1025.8</ele>
      </trkpt>
      <trkpt lat="42.53701" lon="2.56726">
        <ele>1024.7</ele>
      </trkpt>
      <trkpt lat="42.53706" lon="2.56732">
        <ele>1024.8</ele>
      </trkpt>
      <trkpt lat="42.53713" lon="2.56739">
        <ele>1025.3</ele>
      </trkpt>
      <trkpt lat="42.5372" lon="2.56746">
        <ele>1025.9</ele>
      </trkpt>
      <trkpt lat="42.53728" lon="2.56753">
        <ele>1026.8</ele>
      </trkpt>
      <trkpt lat="42.53741" lon="2.56766">
        <ele>1028.1</ele>
      </trkpt>
      <trkpt lat="42.5375" lon="2.56776">
        <ele>1028.7</ele>
      </trkpt>
      <trkpt lat="42.53757" lon="2.56784">
        <ele>1028.2</ele>
      </trkpt>
      <trkpt lat="42.53763" lon="2.56792">
        <ele>1027.6</ele>
      </trkpt>
      <trkpt lat="42.53768" lon="2.56799">
        <ele>1027</ele>
      </trkpt>
      <trkpt lat="42.53774" lon="2.56806">
        <ele>1026.6</ele>
      </trkpt>
      <trkpt lat="42.5378" lon="2.56811">
        <ele>1026.6</ele>
      </trkpt>
      <trkpt lat="42.53786" lon="2.56815">
        <ele>1026.8</ele>
      </trkpt>
      <trkpt lat="42.53793" lon="2.56818">
        <ele>1027.4</ele>
      </trkpt>
      <trkpt lat="42.53799" lon="2.56821">
        <ele>1027.7</ele>
      </trkpt>
      <trkpt lat="42.53805" lon="2.56825">
        <ele>1027.9</ele>
      </trkpt>
      <trkpt lat="42.53812" lon="2.56831">
        <ele>1027.9</ele>
      </trkpt>
      <trkpt lat="42.53819" lon="2.56838">
        <ele>1027.5</ele>
      </trkpt>
      <trkpt lat="42.53825" lon="2.56845">
        <ele>1026.8</ele>
      </trkpt>
      <trkpt lat="42.53831" lon="2.56854">
        <ele>1025.6</ele>
      </trkpt>
      <trkpt lat="42.53837" lon="2.56863">
        <ele>1024.4</ele>
      </trkpt>
      <trkpt lat="42.53842" lon="2.56872">
        <ele>1023.1</ele>
      </trkpt>
      <trkpt lat="42.53848" lon="2.56882">
        <ele>1021.6</ele>
      </trkpt>
      <trkpt lat="42.53853" lon="2.56889">
        <ele>1020.8</ele>
      </trkpt>
      <trkpt lat="42.53858" lon="2.56893">
        <ele>1020.7</ele>
      </trkpt>
      <trkpt lat="42.53864" lon="2.56897">
        <ele>1020.7</ele>
      </trkpt>
      <trkpt lat="42.53871" lon="2.56899">
        <ele>1021.4</ele>
      </trkpt>
      <trkpt lat="42.53879" lon="2.569">
        <ele>1022.5</ele>
      </trkpt>
      <trkpt lat="42.53885" lon="2.569">
        <ele>1023.4</ele>
      </trkpt>
      <trkpt lat="42.53912" lon="2.569">
        <ele>1027.8</ele>
      </trkpt>
      <trkpt lat="42.53917" lon="2.569">
        <ele>1028.7</ele>
      </trkpt>
      <trkpt lat="42.53922" lon="2.569">
        <ele>1029.6</ele>
      </trkpt>
      <trkpt lat="42.53929" lon="2.56906">
        <ele>1029.7</ele>
      </trkpt>
      <trkpt lat="42.53932" lon="2.56912">
        <ele>1029</ele>
      </trkpt>
      <trkpt lat="42.53937" lon="2.56926">
        <ele>1026.9</ele>
      </trkpt>
      <trkpt lat="42.53939" lon="2.56934">
        <ele>1025.5</ele>
      </trkpt>
      <trkpt lat="42.5394" lon="2.56945">
        <ele>1023.4</ele>
      </trkpt>
      <trkpt lat="42.53942" lon="2.56955">
        <ele>1021.6</ele>
      </trkpt>
      <trkpt lat="42.53947" lon="2.56973">
        <ele>1018.7</ele>
      </trkpt>
      <trkpt lat="42.5395" lon="2.5698">
        <ele>1017.7</ele>
      </trkpt>
      <trkpt lat="42.53953" lon="2.56985">
        <ele>1017.2</ele>
      </trkpt>
      <trkpt lat="42.53957" lon="2.56991">
        <ele>1016.7</ele>
      </trkpt>
      <trkpt lat="42.53961" lon="2.56996">
        <ele>1016.4</ele>
      </trkpt>
      <trkpt lat="42.53966" lon="2.57">
        <ele>1016.5</ele>
      </trkpt>
      <trkpt lat="42.53971" lon="2.57005">
        <ele>1016.1</ele>
      </trkpt>
      <trkpt lat="42.53976" lon="2.57008">
        <ele>1016.2</ele>
      </trkpt>
      <trkpt lat="42.53981" lon="2.57012">
        <ele>1016.1</ele>
      </trkpt>
      <trkpt lat="42.53988" lon="2.57016">
        <ele>1016.3</ele>
      </trkpt>
      <trkpt lat="42.53997" lon="2.57022">
        <ele>1016.4</ele>
      </trkpt>
      <trkpt lat="42.54005" lon="2.57027">
        <ele>1016.9</ele>
      </trkpt>
      <trkpt lat="42.54014" lon="2.57033">
        <ele>1017.8</ele>
      </trkpt>
      <trkpt lat="42.5402" lon="2.57037">
        <ele>1018.4</ele>
      </trkpt>
      <trkpt lat="42.54027" lon="2.57046">
        <ele>1018</ele>
      </trkpt>
      <trkpt lat="42.54029" lon="2.57054">
        <ele>1016.5</ele>
      </trkpt>
      <trkpt lat="42.54032" lon="2.57063">
        <ele>1015.1</ele>
      </trkpt>
      <trkpt lat="42.54035" lon="2.57076">
        <ele>1012.8</ele>
      </trkpt>
      <trkpt lat="42.54038" lon="2.57088">
        <ele>1010.8</ele>
      </trkpt>
      <trkpt lat="42.54042" lon="2.57098">
        <ele>1009.9</ele>
      </trkpt>
      <trkpt lat="42.54046" lon="2.57108">
        <ele>1009</ele>
      </trkpt>
      <trkpt lat="42.54051" lon="2.57118">
        <ele>1008.4</ele>
      </trkpt>
      <trkpt lat="42.54056" lon="2.57127">
        <ele>1008</ele>
      </trkpt>
      <trkpt lat="42.5406" lon="2.57137">
        <ele>1007.1</ele>
      </trkpt>
      <trkpt lat="42.54066" lon="2.57147">
        <ele>1006.8</ele>
      </trkpt>
      <trkpt lat="42.54071" lon="2.57157">
        <ele>1006.2</ele>
      </trkpt>
      <trkpt lat="42.54076" lon="2.57167">
        <ele>1005.7</ele>
      </trkpt>
      <trkpt lat="42.54083" lon="2.57184">
        <ele>1005.4</ele>
      </trkpt>
      <trkpt lat="42.54088" lon="2.57193">
        <ele>1005.9</ele>
      </trkpt>
      <trkpt lat="42.54091" lon="2.57202">
        <ele>1005.7</ele>
      </trkpt>
      <trkpt lat="42.54094" lon="2.57211">
        <ele>1005.5</ele>
      </trkpt>
      <trkpt lat="42.54095" lon="2.57221">
        <ele>1004.5</ele>
      </trkpt>
      <trkpt lat="42.54095" lon="2.57231">
        <ele>1003</ele>
      </trkpt>
      <trkpt lat="42.54095" lon="2.57241">
        <ele>1001.6</ele>
      </trkpt>
      <trkpt lat="42.54096" lon="2.57253">
        <ele>1000.5</ele>
      </trkpt>
      <trkpt lat="42.54096" lon="2.57265">
        <ele>999.4</ele>
      </trkpt>
      <trkpt lat="42.54095" lon="2.57277">
        <ele>998</ele>
      </trkpt>
      <trkpt lat="42.54095" lon="2.57289">
        <ele>996.9</ele>
      </trkpt>
      <trkpt lat="42.54095" lon="2.573">
        <ele>996</ele>
      </trkpt>
      <trkpt lat="42.54094" lon="2.57313">
        <ele>994.5</ele>
      </trkpt>
      <trkpt lat="42.54092" lon="2.57362">
        <ele>990.4</ele>
      </trkpt>
      <trkpt lat="42.54093" lon="2.57373">
        <ele>990.2</ele>
      </trkpt>
      <trkpt lat="42.54094" lon="2.57385">
        <ele>989.9</ele>
      </trkpt>
      <trkpt lat="42.54096" lon="2.57397">
        <ele>990.1</ele>
      </trkpt>
      <trkpt lat="42.54098" lon="2.5741">
        <ele>990.2</ele>
      </trkpt>
      <trkpt lat="42.54098" lon="2.57426">
        <ele>989.5</ele>
      </trkpt>
      <trkpt lat="42.54099" lon="2.5744">
        <ele>989.4</ele>
      </trkpt>
      <trkpt lat="42.54099" lon="2.57474">
        <ele>988.2</ele>
      </trkpt>
      <trkpt lat="42.54098" lon="2.57485">
        <ele>987.4</ele>
      </trkpt>
      <trkpt lat="42.54097" lon="2.57493">
        <ele>986.8</ele>
      </trkpt>
      <trkpt lat="42.54096" lon="2.57504">
        <ele>986.4</ele>
      </trkpt>
      <trkpt lat="42.54095" lon="2.5751">
        <ele>986.4</ele>
      </trkpt>
      <trkpt lat="42.54092" lon="2.57519">
        <ele>986</ele>
      </trkpt>
      <trkpt lat="42.5409" lon="2.57526">
        <ele>985.8</ele>
      </trkpt>
      <trkpt lat="42.54086" lon="2.57535">
        <ele>985.2</ele>
      </trkpt>
      <trkpt lat="42.54081" lon="2.57544">
        <ele>984.1</ele>
      </trkpt>
      <trkpt lat="42.54075" lon="2.57554">
        <ele>982</ele>
      </trkpt>
      <trkpt lat="42.54069" lon="2.57562">
        <ele>979.9</ele>
      </trkpt>
      <trkpt lat="42.54059" lon="2.57575">
        <ele>976.5</ele>
      </trkpt>
      <trkpt lat="42.54054" lon="2.57584">
        <ele>975</ele>
      </trkpt>
      <trkpt lat="42.54051" lon="2.57592">
        <ele>974.2</ele>
      </trkpt>
      <trkpt lat="42.5405" lon="2.57598">
        <ele>974.1</ele>
      </trkpt>
      <trkpt lat="42.54047" lon="2.57607">
        <ele>973.4</ele>
      </trkpt>
      <trkpt lat="42.54044" lon="2.57618">
        <ele>973.1</ele>
      </trkpt>
      <trkpt lat="42.54038" lon="2.57642">
        <ele>972.9</ele>
      </trkpt>
      <trkpt lat="42.54035" lon="2.57652">
        <ele>972.9</ele>
      </trkpt>
      <trkpt lat="42.54035" lon="2.57659">
        <ele>973.5</ele>
      </trkpt>
      <trkpt lat="42.54036" lon="2.57667">
        <ele>974.5</ele>
      </trkpt>
      <trkpt lat="42.54038" lon="2.57674">
        <ele>974.3</ele>
      </trkpt>
      <trkpt lat="42.54041" lon="2.5768">
        <ele>974.4</ele>
      </trkpt>
      <trkpt lat="42.54046" lon="2.57688">
        <ele>974.7</ele>
      </trkpt>
      <trkpt lat="42.54051" lon="2.57695">
        <ele>975</ele>
      </trkpt>
      <trkpt lat="42.54056" lon="2.57701">
        <ele>975.4</ele>
      </trkpt>
      <trkpt lat="42.54068" lon="2.57715">
        <ele>975.9</ele>
      </trkpt>
      <trkpt lat="42.54074" lon="2.57722">
        <ele>976</ele>
      </trkpt>
      <trkpt lat="42.54078" lon="2.5773">
        <ele>975.4</ele>
      </trkpt>
      <trkpt lat="42.5408" lon="2.57738">
        <ele>974.5</ele>
      </trkpt>
      <trkpt lat="42.54083" lon="2.57747">
        <ele>973.5</ele>
      </trkpt>
      <trkpt lat="42.54085" lon="2.57755">
        <ele>972.2</ele>
      </trkpt>
      <trkpt lat="42.54088" lon="2.57763">
        <ele>971</ele>
      </trkpt>
      <trkpt lat="42.54091" lon="2.57771">
        <ele>969.7</ele>
      </trkpt>
      <trkpt lat="42.54094" lon="2.57777">
        <ele>968.8</ele>
      </trkpt>
      <trkpt lat="42.541" lon="2.57783">
        <ele>968.1</ele>
      </trkpt>
      <trkpt lat="42.54109" lon="2.5779">
        <ele>967.3</ele>
      </trkpt>
      <trkpt lat="42.54132" lon="2.57805">
        <ele>966.1</ele>
      </trkpt>
      <trkpt lat="42.54152" lon="2.57819">
        <ele>965.1</ele>
      </trkpt>
      <trkpt lat="42.54168" lon="2.57833">
        <ele>963.9</ele>
      </trkpt>
      <trkpt lat="42.54175" lon="2.57839">
        <ele>962.2</ele>
      </trkpt>
      <trkpt lat="42.54181" lon="2.57843">
        <ele>960.9</ele>
      </trkpt>
      <trkpt lat="42.54186" lon="2.57845">
        <ele>960.1</ele>
      </trkpt>
      <trkpt lat="42.54191" lon="2.57845">
        <ele>959.7</ele>
      </trkpt>
      <trkpt lat="42.54195" lon="2.57845">
        <ele>959.4</ele>
      </trkpt>
      <trkpt lat="42.54199" lon="2.57844">
        <ele>959.2</ele>
      </trkpt>
      <trkpt lat="42.54203" lon="2.57841">
        <ele>959.3</ele>
      </trkpt>
      <trkpt lat="42.54208" lon="2.57837">
        <ele>959.5</ele>
      </trkpt>
      <trkpt lat="42.54212" lon="2.57834">
        <ele>959.5</ele>
      </trkpt>
      <trkpt lat="42.54215" lon="2.57832">
        <ele>959.5</ele>
      </trkpt>
      <trkpt lat="42.54219" lon="2.57832">
        <ele>959.1</ele>
      </trkpt>
      <trkpt lat="42.54222" lon="2.57832">
        <ele>958.8</ele>
      </trkpt>
      <trkpt lat="42.54226" lon="2.57834">
        <ele>958.2</ele>
      </trkpt>
      <trkpt lat="42.5423" lon="2.57837">
        <ele>957.4</ele>
      </trkpt>
      <trkpt lat="42.54232" lon="2.57842">
        <ele>956.6</ele>
      </trkpt>
      <trkpt lat="42.54233" lon="2.57846">
        <ele>956</ele>
      </trkpt>
      <trkpt lat="42.54234" lon="2.5785">
        <ele>955.5</ele>
      </trkpt>
      <trkpt lat="42.54233" lon="2.57855">
        <ele>954.9</ele>
      </trkpt>
      <trkpt lat="42.54232" lon="2.5786">
        <ele>954.4</ele>
      </trkpt>
      <trkpt lat="42.5423" lon="2.57864">
        <ele>954</ele>
      </trkpt>
      <trkpt lat="42.54225" lon="2.57869">
        <ele>953.6</ele>
      </trkpt>
      <trkpt lat="42.54219" lon="2.57873">
        <ele>953.5</ele>
      </trkpt>
      <trkpt lat="42.54211" lon="2.57876">
        <ele>953.5</ele>
      </trkpt>
      <trkpt lat="42.54203" lon="2.57876">
        <ele>953.9</ele>
      </trkpt>
      <trkpt lat="42.54194" lon="2.57874">
        <ele>954.7</ele>
      </trkpt>
      <trkpt lat="42.54182" lon="2.57871">
        <ele>955.9</ele>
      </trkpt>
      <trkpt lat="42.54173" lon="2.57867">
        <ele>957.1</ele>
      </trkpt>
      <trkpt lat="42.54165" lon="2.57861">
        <ele>958.5</ele>
      </trkpt>
      <trkpt lat="42.54156" lon="2.57856">
        <ele>958.8</ele>
      </trkpt>
      <trkpt lat="42.54147" lon="2.57853">
        <ele>958.7</ele>
      </trkpt>
      <trkpt lat="42.54138" lon="2.57852">
        <ele>958.2</ele>
      </trkpt>
      <trkpt lat="42.54129" lon="2.57851">
        <ele>957.8</ele>
      </trkpt>
      <trkpt lat="42.54119" lon="2.5785">
        <ele>957.3</ele>
      </trkpt>
      <trkpt lat="42.5411" lon="2.57848">
        <ele>957.1</ele>
      </trkpt>
      <trkpt lat="42.54101" lon="2.57845">
        <ele>957.2</ele>
      </trkpt>
      <trkpt lat="42.54091" lon="2.5784">
        <ele>957.7</ele>
      </trkpt>
      <trkpt lat="42.54082" lon="2.57835">
        <ele>958.4</ele>
      </trkpt>
      <trkpt lat="42.54072" lon="2.57829">
        <ele>958</ele>
      </trkpt>
      <trkpt lat="42.5406" lon="2.57823">
        <ele>957.1</ele>
      </trkpt>
      <trkpt lat="42.5405" lon="2.57819">
        <ele>956.3</ele>
      </trkpt>
      <trkpt lat="42.54042" lon="2.57818">
        <ele>955.2</ele>
      </trkpt>
      <trkpt lat="42.54033" lon="2.57819">
        <ele>953.7</ele>
      </trkpt>
      <trkpt lat="42.54024" lon="2.5782">
        <ele>952.1</ele>
      </trkpt>
      <trkpt lat="42.54015" lon="2.57823">
        <ele>950.2</ele>
      </trkpt>
      <trkpt lat="42.54008" lon="2.57823">
        <ele>949.1</ele>
      </trkpt>
      <trkpt lat="42.53999" lon="2.57822">
        <ele>947.8</ele>
      </trkpt>
      <trkpt lat="42.5399" lon="2.57819">
        <ele>946.4</ele>
      </trkpt>
      <trkpt lat="42.53982" lon="2.57815">
        <ele>945.3</ele>
      </trkpt>
      <trkpt lat="42.53975" lon="2.5781">
        <ele>944.5</ele>
      </trkpt>
      <trkpt lat="42.53968" lon="2.57805">
        <ele>943.8</ele>
      </trkpt>
      <trkpt lat="42.53958" lon="2.57794">
        <ele>943.3</ele>
      </trkpt>
      <trkpt lat="42.53947" lon="2.57779">
        <ele>943.1</ele>
      </trkpt>
      <trkpt lat="42.53942" lon="2.57773">
        <ele>942.8</ele>
      </trkpt>
      <trkpt lat="42.53938" lon="2.57768">
        <ele>942.6</ele>
      </trkpt>
      <trkpt lat="42.53934" lon="2.57763">
        <ele>942.4</ele>
      </trkpt>
      <trkpt lat="42.53932" lon="2.57757">
        <ele>942.8</ele>
      </trkpt>
      <trkpt lat="42.53929" lon="2.5775">
        <ele>943.1</ele>
      </trkpt>
      <trkpt lat="42.53927" lon="2.57741">
        <ele>942</ele>
      </trkpt>
      <trkpt lat="42.53921" lon="2.57723">
        <ele>939</ele>
      </trkpt>
      <trkpt lat="42.53919" lon="2.5772">
        <ele>938.2</ele>
      </trkpt>
      <trkpt lat="42.53914" lon="2.5772">
        <ele>936.5</ele>
      </trkpt>
      <trkpt lat="42.5391" lon="2.5772">
        <ele>935</ele>
      </trkpt>
      <trkpt lat="42.53906" lon="2.57722">
        <ele>933.7</ele>
      </trkpt>
      <trkpt lat="42.53903" lon="2.57725">
        <ele>932.9</ele>
      </trkpt>
      <trkpt lat="42.53899" lon="2.5773">
        <ele>932</ele>
      </trkpt>
      <trkpt lat="42.53899" lon="2.57737">
        <ele>932.8</ele>
      </trkpt>
      <trkpt lat="42.53899" lon="2.57742">
        <ele>933.4</ele>
      </trkpt>
      <trkpt lat="42.53901" lon="2.57749">
        <ele>934.8</ele>
      </trkpt>
      <trkpt lat="42.53905" lon="2.57755">
        <ele>935.6</ele>
      </trkpt>
      <trkpt lat="42.53911" lon="2.57762">
        <ele>936.6</ele>
      </trkpt>
      <trkpt lat="42.53916" lon="2.57768">
        <ele>937.2</ele>
      </trkpt>
      <trkpt lat="42.53922" lon="2.57775">
        <ele>937.7</ele>
      </trkpt>
      <trkpt lat="42.53928" lon="2.57783">
        <ele>937.9</ele>
      </trkpt>
      <trkpt lat="42.53932" lon="2.57792">
        <ele>937.5</ele>
      </trkpt>
      <trkpt lat="42.53936" lon="2.57801">
        <ele>937.1</ele>
      </trkpt>
      <trkpt lat="42.5394" lon="2.57811">
        <ele>936.5</ele>
      </trkpt>
      <trkpt lat="42.53949" lon="2.57836">
        <ele>934.5</ele>
      </trkpt>
      <trkpt lat="42.53955" lon="2.57848">
        <ele>933.5</ele>
      </trkpt>
      <trkpt lat="42.53961" lon="2.57858">
        <ele>932.8</ele>
      </trkpt>
      <trkpt lat="42.5397" lon="2.57867">
        <ele>932.8</ele>
      </trkpt>
      <trkpt lat="42.53979" lon="2.57874">
        <ele>933.2</ele>
      </trkpt>
      <trkpt lat="42.53989" lon="2.57879">
        <ele>934</ele>
      </trkpt>
      <trkpt lat="42.53999" lon="2.57883">
        <ele>935.1</ele>
      </trkpt>
      <trkpt lat="42.54031" lon="2.57896">
        <ele>936.2</ele>
      </trkpt>
      <trkpt lat="42.54051" lon="2.57906">
        <ele>936.1</ele>
      </trkpt>
      <trkpt lat="42.54059" lon="2.57912">
        <ele>935.5</ele>
      </trkpt>
      <trkpt lat="42.54064" lon="2.57917">
        <ele>934.8</ele>
      </trkpt>
      <trkpt lat="42.5407" lon="2.57921">
        <ele>934.6</ele>
      </trkpt>
      <trkpt lat="42.54073" lon="2.57925">
        <ele>934</ele>
      </trkpt>
      <trkpt lat="42.54076" lon="2.5793">
        <ele>933.2</ele>
      </trkpt>
      <trkpt lat="42.54079" lon="2.57935">
        <ele>932.4</ele>
      </trkpt>
      <trkpt lat="42.54081" lon="2.57942">
        <ele>931</ele>
      </trkpt>
      <trkpt lat="42.54083" lon="2.57948">
        <ele>929.8</ele>
      </trkpt>
      <trkpt lat="42.54088" lon="2.57982">
        <ele>922.6</ele>
      </trkpt>
      <trkpt lat="42.54091" lon="2.57998">
        <ele>919.3</ele>
      </trkpt>
      <trkpt lat="42.54092" lon="2.58003">
        <ele>918.3</ele>
      </trkpt>
      <trkpt lat="42.54094" lon="2.58008">
        <ele>917.3</ele>
      </trkpt>
      <trkpt lat="42.54097" lon="2.58014">
        <ele>916.3</ele>
      </trkpt>
      <trkpt lat="42.541" lon="2.58018">
        <ele>915.7</ele>
      </trkpt>
      <trkpt lat="42.54103" lon="2.58021">
        <ele>915.3</ele>
      </trkpt>
      <trkpt lat="42.54107" lon="2.58025">
        <ele>914.9</ele>
      </trkpt>
      <trkpt lat="42.54137" lon="2.58046">
        <ele>913.3</ele>
      </trkpt>
      <trkpt lat="42.54166" lon="2.58067">
        <ele>911.7</ele>
      </trkpt>
      <trkpt lat="42.54171" lon="2.5807">
        <ele>911.3</ele>
      </trkpt>
      <trkpt lat="42.54181" lon="2.58077">
        <ele>910.3</ele>
      </trkpt>
      <trkpt lat="42.54237" lon="2.58119">
        <ele>904.4</ele>
      </trkpt>
      <trkpt lat="42.54248" lon="2.58127">
        <ele>903.4</ele>
      </trkpt>
      <trkpt lat="42.5426" lon="2.58134">
        <ele>902.4</ele>
      </trkpt>
      <trkpt lat="42.54273" lon="2.58141">
        <ele>901.5</ele>
      </trkpt>
      <trkpt lat="42.54289" lon="2.5815">
        <ele>900.5</ele>
      </trkpt>
      <trkpt lat="42.54308" lon="2.58159">
        <ele>899.8</ele>
      </trkpt>
      <trkpt lat="42.5433" lon="2.58164">
        <ele>900.2</ele>
      </trkpt>
      <trkpt lat="42.54347" lon="2.58165">
        <ele>898.9</ele>
      </trkpt>
      <trkpt lat="42.5435" lon="2.58164">
        <ele>898.8</ele>
      </trkpt>
      <trkpt lat="42.54361" lon="2.58162">
        <ele>898.1</ele>
      </trkpt>
      <trkpt lat="42.54374" lon="2.58156">
        <ele>897.7</ele>
      </trkpt>
      <trkpt lat="42.54414" lon="2.58138">
        <ele>896.4</ele>
      </trkpt>
      <trkpt lat="42.54474" lon="2.58113">
        <ele>890.3</ele>
      </trkpt>
      <trkpt lat="42.54515" lon="2.58099">
        <ele>886.4</ele>
      </trkpt>
      <trkpt lat="42.54547" lon="2.58086">
        <ele>884.6</ele>
      </trkpt>
      <trkpt lat="42.54603" lon="2.58083">
        <ele>879.1</ele>
      </trkpt>
      <trkpt lat="42.54657" lon="2.58086">
        <ele>873.6</ele>
      </trkpt>
      <trkpt lat="42.54659" lon="2.58086">
        <ele>873.4</ele>
      </trkpt>
      <trkpt lat="42.54665" lon="2.58084">
        <ele>873.1</ele>
      </trkpt>
      <trkpt lat="42.54671" lon="2.58082">
        <ele>872.1</ele>
      </trkpt>
      <trkpt lat="42.54675" lon="2.58078">
        <ele>871.5</ele>
      </trkpt>
      <trkpt lat="42.54679" lon="2.58073">
        <ele>871.1</ele>
      </trkpt>
      <trkpt lat="42.54682" lon="2.58069">
        <ele>870.7</ele>
      </trkpt>
      <trkpt lat="42.5469" lon="2.58057">
        <ele>869.9</ele>
      </trkpt>
      <trkpt lat="42.54692" lon="2.58051">
        <ele>869.9</ele>
      </trkpt>
      <trkpt lat="42.54695" lon="2.58045">
        <ele>869.8</ele>
      </trkpt>
      <trkpt lat="42.54696" lon="2.58038">
        <ele>870.1</ele>
      </trkpt>
      <trkpt lat="42.54698" lon="2.58033">
        <ele>870.1</ele>
      </trkpt>
      <trkpt lat="42.54704" lon="2.57983">
        <ele>871.4</ele>
      </trkpt>
      <trkpt lat="42.54705" lon="2.57975">
        <ele>871.1</ele>
      </trkpt>
      <trkpt lat="42.54704" lon="2.57964">
        <ele>871.3</ele>
      </trkpt>
      <trkpt lat="42.54704" lon="2.57962">
        <ele>871.3</ele>
      </trkpt>
      <trkpt lat="42.54703" lon="2.57953">
        <ele>871.5</ele>
      </trkpt>
      <trkpt lat="42.54702" lon="2.57951">
        <ele>871.7</ele>
      </trkpt>
      <trkpt lat="42.54698" lon="2.5794">
        <ele>872.6</ele>
      </trkpt>
      <trkpt lat="42.54698" lon="2.57933">
        <ele>872.6</ele>
      </trkpt>
      <trkpt lat="42.54696" lon="2.57922">
        <ele>873</ele>
      </trkpt>
      <trkpt lat="42.54696" lon="2.57905">
        <ele>872.8</ele>
      </trkpt>
      <trkpt lat="42.54695" lon="2.57901">
        <ele>872.9</ele>
      </trkpt>
      <trkpt lat="42.54694" lon="2.57884">
        <ele>872.9</ele>
      </trkpt>
      <trkpt lat="42.54694" lon="2.57881">
        <ele>872.9</ele>
      </trkpt>
      <trkpt lat="42.54701" lon="2.57861">
        <ele>870.7</ele>
      </trkpt>
      <trkpt lat="42.54703" lon="2.57853">
        <ele>869.9</ele>
      </trkpt>
      <trkpt lat="42.54706" lon="2.57846">
        <ele>869</ele>
      </trkpt>
      <trkpt lat="42.54709" lon="2.57831">
        <ele>867.8</ele>
      </trkpt>
      <trkpt lat="42.5471" lon="2.5782">
        <ele>867.7</ele>
      </trkpt>
      <trkpt lat="42.54709" lon="2.5781">
        <ele>868.2</ele>
      </trkpt>
      <trkpt lat="42.54709" lon="2.5779">
        <ele>868.6</ele>
      </trkpt>
      <trkpt lat="42.54707" lon="2.57774">
        <ele>869.5</ele>
      </trkpt>
      <trkpt lat="42.54707" lon="2.57761">
        <ele>869.7</ele>
      </trkpt>
      <trkpt lat="42.54706" lon="2.57756">
        <ele>870.1</ele>
      </trkpt>
      <trkpt lat="42.54704" lon="2.57735">
        <ele>871.4</ele>
      </trkpt>
      <trkpt lat="42.54704" lon="2.57717">
        <ele>871.9</ele>
      </trkpt>
      <trkpt lat="42.54704" lon="2.57707">
        <ele>872.2</ele>
      </trkpt>
      <trkpt lat="42.54706" lon="2.57698">
        <ele>872</ele>
      </trkpt>
      <trkpt lat="42.54708" lon="2.5769">
        <ele>871.7</ele>
      </trkpt>
      <trkpt lat="42.54712" lon="2.5768">
        <ele>871.1</ele>
      </trkpt>
      <trkpt lat="42.54723" lon="2.57662">
        <ele>869.9</ele>
      </trkpt>
      <trkpt lat="42.54733" lon="2.57656">
        <ele>868.5</ele>
      </trkpt>
      <trkpt lat="42.5474" lon="2.57655">
        <ele>867.1</ele>
      </trkpt>
      <trkpt lat="42.54749" lon="2.57657">
        <ele>864.7</ele>
      </trkpt>
      <trkpt lat="42.54752" lon="2.57661">
        <ele>863.6</ele>
      </trkpt>
      <trkpt lat="42.54754" lon="2.57671">
        <ele>862.1</ele>
      </trkpt>
      <trkpt lat="42.54753" lon="2.57679">
        <ele>861.5</ele>
      </trkpt>
      <trkpt lat="42.54751" lon="2.57686">
        <ele>861.2</ele>
      </trkpt>
      <trkpt lat="42.54746" lon="2.57691">
        <ele>862</ele>
      </trkpt>
      <trkpt lat="42.54729" lon="2.577">
        <ele>865.8</ele>
      </trkpt>
      <trkpt lat="42.54723" lon="2.57706">
        <ele>867.1</ele>
      </trkpt>
      <trkpt lat="42.5472" lon="2.57713">
        <ele>867.5</ele>
      </trkpt>
      <trkpt lat="42.54718" lon="2.5772">
        <ele>867.8</ele>
      </trkpt>
      <trkpt lat="42.54719" lon="2.57732">
        <ele>866.9</ele>
      </trkpt>
      <trkpt lat="42.54719" lon="2.57733">
        <ele>866.9</ele>
      </trkpt>
      <trkpt lat="42.54719" lon="2.57739">
        <ele>866.6</ele>
      </trkpt>
      <trkpt lat="42.54724" lon="2.57764">
        <ele>864.3</ele>
      </trkpt>
      <trkpt lat="42.54735" lon="2.57794">
        <ele>860.6</ele>
      </trkpt>
      <trkpt lat="42.54754" lon="2.57831">
        <ele>854.7</ele>
      </trkpt>
      <trkpt lat="42.54778" lon="2.57868">
        <ele>848.3</ele>
      </trkpt>
      <trkpt lat="42.54792" lon="2.57907">
        <ele>845.4</ele>
      </trkpt>
      <trkpt lat="42.5481" lon="2.57932">
        <ele>840.2</ele>
      </trkpt>
      <trkpt lat="42.54816" lon="2.57946">
        <ele>838.5</ele>
      </trkpt>
      <trkpt lat="42.54825" lon="2.57975">
        <ele>836.1</ele>
      </trkpt>
      <trkpt lat="42.54832" lon="2.58008">
        <ele>834.2</ele>
      </trkpt>
      <trkpt lat="42.54833" lon="2.58016">
        <ele>833.7</ele>
      </trkpt>
      <trkpt lat="42.54834" lon="2.58022">
        <ele>833.3</ele>
      </trkpt>
      <trkpt lat="42.54834" lon="2.58026">
        <ele>833.2</ele>
      </trkpt>
      <trkpt lat="42.54834" lon="2.5803">
        <ele>833.1</ele>
      </trkpt>
      <trkpt lat="42.54834" lon="2.58037">
        <ele>832.9</ele>
      </trkpt>
      <trkpt lat="42.54834" lon="2.58041">
        <ele>832.8</ele>
      </trkpt>
      <trkpt lat="42.5483" lon="2.5806">
        <ele>833.5</ele>
      </trkpt>
      <trkpt lat="42.54827" lon="2.58074">
        <ele>833.9</ele>
      </trkpt>
      <trkpt lat="42.54826" lon="2.58081">
        <ele>834</ele>
      </trkpt>
      <trkpt lat="42.54825" lon="2.58088">
        <ele>833.7</ele>
      </trkpt>
      <trkpt lat="42.54825" lon="2.58095">
        <ele>833</ele>
      </trkpt>
      <trkpt lat="42.54826" lon="2.58101">
        <ele>832.2</ele>
      </trkpt>
      <trkpt lat="42.54829" lon="2.58108">
        <ele>830.7</ele>
      </trkpt>
      <trkpt lat="42.54831" lon="2.58114">
        <ele>829.6</ele>
      </trkpt>
      <trkpt lat="42.54837" lon="2.58126">
        <ele>826.8</ele>
      </trkpt>
      <trkpt lat="42.5484" lon="2.58132">
        <ele>825.4</ele>
      </trkpt>
      <trkpt lat="42.54842" lon="2.58137">
        <ele>824.4</ele>
      </trkpt>
      <trkpt lat="42.54844" lon="2.58144">
        <ele>823.3</ele>
      </trkpt>
      <trkpt lat="42.54845" lon="2.5815">
        <ele>822.5</ele>
      </trkpt>
      <trkpt lat="42.54845" lon="2.58157">
        <ele>821.9</ele>
      </trkpt>
      <trkpt lat="42.54845" lon="2.58164">
        <ele>821.3</ele>
      </trkpt>
      <trkpt lat="42.54843" lon="2.58171">
        <ele>821.2</ele>
      </trkpt>
      <trkpt lat="42.54841" lon="2.58178">
        <ele>821.2</ele>
      </trkpt>
      <trkpt lat="42.5483" lon="2.58207">
        <ele>821.9</ele>
      </trkpt>
      <trkpt lat="42.54828" lon="2.58214">
        <ele>821.9</ele>
      </trkpt>
      <trkpt lat="42.54826" lon="2.58222">
        <ele>821.8</ele>
      </trkpt>
      <trkpt lat="42.54824" lon="2.5823">
        <ele>821.8</ele>
      </trkpt>
      <trkpt lat="42.54822" lon="2.58238">
        <ele>821.7</ele>
      </trkpt>
      <trkpt lat="42.5482" lon="2.58246">
        <ele>821.6</ele>
      </trkpt>
      <trkpt lat="42.54817" lon="2.58262">
        <ele>821.2</ele>
      </trkpt>
      <trkpt lat="42.54815" lon="2.58276">
        <ele>820.7</ele>
      </trkpt>
      <trkpt lat="42.54815" lon="2.58279">
        <ele>820.5</ele>
      </trkpt>
      <trkpt lat="42.54814" lon="2.58287">
        <ele>820.1</ele>
      </trkpt>
      <trkpt lat="42.54813" lon="2.58296">
        <ele>819.7</ele>
      </trkpt>
      <trkpt lat="42.54813" lon="2.58304">
        <ele>819.1</ele>
      </trkpt>
      <trkpt lat="42.54814" lon="2.58324">
        <ele>817.3</ele>
      </trkpt>
      <trkpt lat="42.5482" lon="2.58382">
        <ele>814.1</ele>
      </trkpt>
      <trkpt lat="42.54821" lon="2.58391">
        <ele>813.8</ele>
      </trkpt>
      <trkpt lat="42.54823" lon="2.58405">
        <ele>813.1</ele>
      </trkpt>
      <trkpt lat="42.54823" lon="2.58413">
        <ele>812.9</ele>
      </trkpt>
      <trkpt lat="42.54823" lon="2.5842">
        <ele>812.5</ele>
      </trkpt>
      <trkpt lat="42.54822" lon="2.5843">
        <ele>811.6</ele>
      </trkpt>
      <trkpt lat="42.5482" lon="2.58438">
        <ele>811</ele>
      </trkpt>
      <trkpt lat="42.54817" lon="2.58447">
        <ele>810.5</ele>
      </trkpt>
      <trkpt lat="42.54809" lon="2.5847">
        <ele>809.2</ele>
      </trkpt>
      <trkpt lat="42.548" lon="2.58494">
        <ele>807.9</ele>
      </trkpt>
      <trkpt lat="42.54798" lon="2.58503">
        <ele>807.2</ele>
      </trkpt>
      <trkpt lat="42.54796" lon="2.58512">
        <ele>806.7</ele>
      </trkpt>
      <trkpt lat="42.54795" lon="2.58521">
        <ele>806.1</ele>
      </trkpt>
      <trkpt lat="42.54793" lon="2.58538">
        <ele>804.9</ele>
      </trkpt>
      <trkpt lat="42.5479" lon="2.58564">
        <ele>803</ele>
      </trkpt>
      <trkpt lat="42.54788" lon="2.58572">
        <ele>802.6</ele>
      </trkpt>
      <trkpt lat="42.54786" lon="2.5858">
        <ele>802.1</ele>
      </trkpt>
      <trkpt lat="42.54783" lon="2.58587">
        <ele>802</ele>
      </trkpt>
      <trkpt lat="42.54779" lon="2.586">
        <ele>801.7</ele>
      </trkpt>
      <trkpt lat="42.54768" lon="2.58629">
        <ele>800.9</ele>
      </trkpt>
      <trkpt lat="42.54762" lon="2.58645">
        <ele>800.1</ele>
      </trkpt>
      <trkpt lat="42.547615" lon="2.586469">
        <ele>800</ele>
      </trkpt>
      <trkpt lat="42.54762" lon="2.58647">
        <ele>799.9</ele>
      </trkpt>
      <trkpt lat="42.54759" lon="2.58656">
        <ele>799.4</ele>
      </trkpt>
      <trkpt lat="42.54759" lon="2.58657">
        <ele>799.3</ele>
      </trkpt>
      <trkpt lat="42.54754" lon="2.58677">
        <ele>797.9</ele>
      </trkpt>
      <trkpt lat="42.54748" lon="2.58698">
        <ele>796.4</ele>
      </trkpt>
      <trkpt lat="42.54747" lon="2.58704">
        <ele>795.9</ele>
      </trkpt>
      <trkpt lat="42.54745" lon="2.58713">
        <ele>795.1</ele>
      </trkpt>
      <trkpt lat="42.612660" lon="2.516181">
        <ele>404.726264</ele>
        <time>2019-08-22T14:44:46.156Z</time>
      </trkpt>
      <trkpt lat="42.612660" lon="2.516181">
        <ele>404.726264</ele>
        <time>2019-08-22T14:44:46.186Z</time>
      </trkpt>
      <trkpt lat="42.612725" lon="2.516367">
        <ele>404.726264</ele>
        <time>2019-08-22T14:44:47.568Z</time>
      </trkpt>
      <trkpt lat="42.612838" lon="2.516769">
        <ele>404.726264</ele>
        <time>2019-08-22T14:44:50.461Z</time>
      </trkpt>
      <trkpt lat="42.612980" lon="2.517037">
        <ele>404.726264</ele>
        <time>2019-08-22T14:44:52.655Z</time>
      </trkpt>
      <trkpt lat="42.613332" lon="2.517605">
        <ele>401.345058</ele>
        <time>2019-08-22T14:44:57.402Z</time>
      </trkpt>
      <trkpt lat="42.613481" lon="2.517676">
        <ele>399.855530</ele>
        <time>2019-08-22T14:44:58.775Z</time>
      </trkpt>
      <trkpt lat="42.613710" lon="2.517640">
        <ele>397.680829</ele>
        <time>2019-08-22T14:45:00.734Z</time>
      </trkpt>
      <trkpt lat="42.615037" lon="2.517315">
        <ele>385.553137</ele>
        <time>2019-08-22T14:45:12.366Z</time>
      </trkpt>
      <trkpt lat="42.615492" lon="2.517210">
        <ele>382.121212</ele>
        <time>2019-08-22T14:45:16.432Z</time>
      </trkpt>
      <trkpt lat="42.615978" lon="2.517214">
        <ele>378.507142</ele>
        <time>2019-08-22T14:45:20.805Z</time>
      </trkpt>
      <trkpt lat="42.616270" lon="2.517324">
        <ele>376.253870</ele>
        <time>2019-08-22T14:45:23.581Z</time>
      </trkpt>
      <trkpt lat="42.616517" lon="2.517454">
        <ele>374.307812</ele>
        <time>2019-08-22T14:45:25.998Z</time>
      </trkpt>
      <trkpt lat="42.616712" lon="2.517580">
        <ele>373.084385</ele>
        <time>2019-08-22T14:45:28.014Z</time>
      </trkpt>
      <trkpt lat="42.616815" lon="2.517687">
        <ele>372.349783</ele>
        <time>2019-08-22T14:45:29.209Z</time>
      </trkpt>
      <trkpt lat="42.617414" lon="2.518367">
        <ele>367.927334</ele>
        <time>2019-08-22T14:45:36.484Z</time>
      </trkpt>
      <trkpt lat="42.617437" lon="2.518394">
        <ele>367.755122</ele>
        <time>2019-08-22T14:45:36.778Z</time>
      </trkpt>
      <trkpt lat="42.617952" lon="2.518966">
        <ele>363.977453</ele>
        <time>2019-08-22T14:45:42.921Z</time>
      </trkpt>
      <trkpt lat="42.618084" lon="2.519010">
        <ele>363.173752</ele>
        <time>2019-08-22T14:45:44.180Z</time>
      </trkpt>
      <trkpt lat="42.618872" lon="2.518873">
        <ele>358.476058</ele>
        <time>2019-08-22T14:45:51.449Z</time>
      </trkpt>
      <trkpt lat="42.619777" lon="2.518856">
        <ele>353.191752</ele>
        <time>2019-08-22T14:45:59.761Z</time>
      </trkpt>
      <trkpt lat="42.620292" lon="2.518842">
        <ele>350.623285</ele>
        <time>2019-08-22T14:46:04.507Z</time>
      </trkpt>
      <trkpt lat="42.620591" lon="2.518834">
        <ele>349.132087</ele>
        <time>2019-08-22T14:46:07.316Z</time>
      </trkpt>
      <trkpt lat="42.621252" lon="2.518812">
        <ele>345.835144</ele>
        <time>2019-08-22T14:46:13.569Z</time>
      </trkpt>
      <trkpt lat="42.621383" lon="2.518787">
        <ele>345.175527</ele>
        <time>2019-08-22T14:46:14.815Z</time>
      </trkpt>
      <trkpt lat="42.621828" lon="2.518633">
        <ele>343.734746</ele>
        <time>2019-08-22T14:46:19.361Z</time>
      </trkpt>
      <trkpt lat="42.622536" lon="2.518387">
        <ele>341.908496</ele>
        <time>2019-08-22T14:46:27.046Z</time>
      </trkpt>
      <trkpt lat="42.622533" lon="2.519918">
        <ele>339.614401</ele>
        <time>2019-08-22T14:46:39.939Z</time>
      </trkpt>
      <trkpt lat="42.622527" lon="2.520509">
        <ele>339.094256</ele>
        <time>2019-08-22T14:46:45.329Z</time>
      </trkpt>
      <trkpt lat="42.622539" lon="2.520707">
        <ele>338.919420</ele>
        <time>2019-08-22T14:46:47.145Z</time>
      </trkpt>
      <trkpt lat="42.622551" lon="2.520832">
        <ele>338.808485</ele>
        <time>2019-08-22T14:46:48.318Z</time>
      </trkpt>
      <trkpt lat="42.622556" lon="2.520880">
        <ele>338.765822</ele>
        <time>2019-08-22T14:46:48.771Z</time>
      </trkpt>
      <trkpt lat="42.622577" lon="2.521190">
        <ele>338.491860</ele>
        <time>2019-08-22T14:46:51.582Z</time>
      </trkpt>
      <trkpt lat="42.622510" lon="2.521894">
        <ele>337.825953</ele>
        <time>2019-08-22T14:46:57.941Z</time>
      </trkpt>
      <trkpt lat="42.622559" lon="2.522241">
        <ele>337.343084</ele>
        <time>2019-08-22T14:47:01.009Z</time>
      </trkpt>
      <trkpt lat="42.622686" lon="2.522570">
        <ele>336.835354</ele>
        <time>2019-08-22T14:47:04.137Z</time>
      </trkpt>
      <trkpt lat="42.622904" lon="2.523080">
        <ele>336.029317</ele>
        <time>2019-08-22T14:47:08.973Z</time>
      </trkpt>
      <trkpt lat="42.622910" lon="2.523145">
        <ele>335.939791</ele>
        <time>2019-08-22T14:47:09.503Z</time>
      </trkpt>
      <trkpt lat="42.622903" lon="2.523259">
        <ele>335.783456</ele>
        <time>2019-08-22T14:47:10.441Z</time>
      </trkpt>
      <trkpt lat="42.622884" lon="2.523280">
        <ele>335.737971</ele>
        <time>2019-08-22T14:47:10.723Z</time>
      </trkpt>
      <trkpt lat="42.622869" lon="2.523307">
        <ele>335.691737</ele>
        <time>2019-08-22T14:47:11.002Z</time>
      </trkpt>
      <trkpt lat="42.622858" lon="2.523348">
        <ele>335.632098</ele>
        <time>2019-08-22T14:47:11.358Z</time>
      </trkpt>
      <trkpt lat="42.622856" lon="2.523391">
        <ele>335.573216</ele>
        <time>2019-08-22T14:47:11.709Z</time>
      </trkpt>
      <trkpt lat="42.622865" lon="2.523434">
        <ele>335.512121</ele>
        <time>2019-08-22T14:47:12.059Z</time>
      </trkpt>
      <trkpt lat="42.622879" lon="2.523465">
        <ele>335.462414</ele>
        <time>2019-08-22T14:47:12.352Z</time>
      </trkpt>
      <trkpt lat="42.622899" lon="2.523490">
        <ele>335.411946</ele>
        <time>2019-08-22T14:47:12.643Z</time>
      </trkpt>
      <trkpt lat="42.622923" lon="2.523508">
        <ele>335.361035</ele>
        <time>2019-08-22T14:47:12.932Z</time>
      </trkpt>
      <trkpt lat="42.622950" lon="2.523516">
        <ele>335.309711</ele>
        <time>2019-08-22T14:47:13.224Z</time>
      </trkpt>
      <trkpt lat="42.623005" lon="2.523501">
        <ele>335.205526</ele>
        <time>2019-08-22T14:47:13.824Z</time>
      </trkpt>
      <trkpt lat="42.623028" lon="2.523480">
        <ele>335.154064</ele>
        <time>2019-08-22T14:47:14.114Z</time>
      </trkpt>
      <trkpt lat="42.623045" lon="2.523451">
        <ele>335.103393</ele>
        <time>2019-08-22T14:47:14.414Z</time>
      </trkpt>
      <trkpt lat="42.623057" lon="2.523417">
        <ele>335.051860</ele>
        <time>2019-08-22T14:47:14.721Z</time>
      </trkpt>
      <trkpt lat="42.623148" lon="2.523371">
        <ele>334.871538</ele>
        <time>2019-08-22T14:47:15.751Z</time>
      </trkpt>
      <trkpt lat="42.623290" lon="2.523298">
        <ele>334.582309</ele>
        <time>2019-08-22T14:47:17.361Z</time>
      </trkpt>
      <trkpt lat="42.623762" lon="2.523192">
        <ele>333.137307</ele>
        <time>2019-08-22T14:47:22.395Z</time>
      </trkpt>
      <trkpt lat="42.624150" lon="2.523123">
        <ele>331.955369</ele>
        <time>2019-08-22T14:47:26.441Z</time>
      </trkpt>
      <trkpt lat="42.624564" lon="2.523096">
        <ele>330.703451</ele>
        <time>2019-08-22T14:47:30.587Z</time>
      </trkpt>
      <trkpt lat="42.624635" lon="2.523091">
        <ele>330.488709</ele>
        <time>2019-08-22T14:47:31.304Z</time>
      </trkpt>
      <trkpt lat="42.624791" lon="2.523096">
        <ele>330.017383</ele>
        <time>2019-08-22T14:47:32.873Z</time>
      </trkpt>
      <trkpt lat="42.625043" lon="2.523112">
        <ele>329.255391</ele>
        <time>2019-08-22T14:47:35.389Z</time>
      </trkpt>
      <trkpt lat="42.625465" lon="2.523202">
        <ele>327.724328</ele>
        <time>2019-08-22T14:47:39.665Z</time>
      </trkpt>
      <trkpt lat="42.625666" lon="2.523244">
        <ele>326.987139</ele>
        <time>2019-08-22T14:47:41.676Z</time>
      </trkpt>
      <trkpt lat="42.625767" lon="2.523273">
        <ele>326.612932</ele>
        <time>2019-08-22T14:47:42.710Z</time>
      </trkpt>
      <trkpt lat="42.626002" lon="2.523341">
        <ele>325.741961</ele>
        <time>2019-08-22T14:47:45.068Z</time>
      </trkpt>
      <trkpt lat="42.626549" lon="2.523498">
        <ele>323.715346</ele>
        <time>2019-08-22T14:47:50.613Z</time>
      </trkpt>
      <trkpt lat="42.626931" lon="2.523602">
        <ele>322.312488</ele>
        <time>2019-08-22T14:47:54.443Z</time>
      </trkpt>
      <trkpt lat="42.627246" lon="2.523688">
        <ele>321.179529</ele>
        <time>2019-08-22T14:47:57.609Z</time>
      </trkpt>
      <trkpt lat="42.627713" lon="2.523815">
        <ele>319.500126</ele>
        <time>2019-08-22T14:48:02.376Z</time>
      </trkpt>
      <trkpt lat="42.627749" lon="2.523824">
        <ele>319.371052</ele>
        <time>2019-08-22T14:48:02.736Z</time>
      </trkpt>
      <trkpt lat="42.629007" lon="2.524111">
        <ele>314.902447</ele>
        <time>2019-08-22T14:48:15.510Z</time>
      </trkpt>
      <trkpt lat="42.629379" lon="2.524247">
        <ele>313.572004</ele>
        <time>2019-08-22T14:48:19.379Z</time>
      </trkpt>
      <trkpt lat="42.629805" lon="2.524430">
        <ele>312.028991</ele>
        <time>2019-08-22T14:48:23.813Z</time>
      </trkpt>
      <trkpt lat="42.630117" lon="2.524555">
        <ele>310.905599</ele>
        <time>2019-08-22T14:48:27.078Z</time>
      </trkpt>
      <trkpt lat="42.630313" lon="2.524606">
        <ele>310.216381</ele>
        <time>2019-08-22T14:48:29.070Z</time>
      </trkpt>
      <trkpt lat="42.630455" lon="2.524623">
        <ele>309.752565</ele>
        <time>2019-08-22T14:48:30.501Z</time>
      </trkpt>
      <trkpt lat="42.630628" lon="2.524609">
        <ele>309.200160</ele>
        <time>2019-08-22T14:48:32.228Z</time>
      </trkpt>
      <trkpt lat="42.630696" lon="2.524605">
        <ele>308.983210</ele>
        <time>2019-08-22T14:48:32.933Z</time>
      </trkpt>
      <trkpt lat="42.630893" lon="2.524608">
        <ele>308.355243</ele>
        <time>2019-08-22T14:48:34.895Z</time>
      </trkpt>
      <trkpt lat="42.632470" lon="2.525038">
        <ele>303.383607</ele>
        <time>2019-08-22T14:48:51.271Z</time>
      </trkpt>
      <trkpt lat="42.632751" lon="2.524964">
        <ele>302.596265</ele>
        <time>2019-08-22T14:48:54.274Z</time>
      </trkpt>
      <trkpt lat="42.632958" lon="2.524891">
        <ele>302.008002</ele>
        <time>2019-08-22T14:48:56.515Z</time>
      </trkpt>
      <trkpt lat="42.633118" lon="2.524870">
        <ele>301.565830</ele>
        <time>2019-08-22T14:48:58.223Z</time>
      </trkpt>
      <trkpt lat="42.633518" lon="2.524970">
        <ele>300.447064</ele>
        <time>2019-08-22T14:49:02.477Z</time>
      </trkpt>
      <trkpt lat="42.634472" lon="2.525275">
        <ele>297.595325</ele>
        <time>2019-08-22T14:49:12.620Z</time>
      </trkpt>
      <trkpt lat="42.635113" lon="2.525486">
        <ele>295.610937</ele>
        <time>2019-08-22T14:49:19.387Z</time>
      </trkpt>
      <trkpt lat="42.635401" lon="2.525505">
        <ele>294.743382</ele>
        <time>2019-08-22T14:49:22.291Z</time>
      </trkpt>
      <trkpt lat="42.635725" lon="2.525520">
        <ele>293.755404</ele>
        <time>2019-08-22T14:49:25.544Z</time>
      </trkpt>
      <trkpt lat="42.636125" lon="2.525573">
        <ele>292.481094</ele>
        <time>2019-08-22T14:49:29.618Z</time>
      </trkpt>
      <trkpt lat="42.636620" lon="2.525665">
        <ele>290.896972</ele>
        <time>2019-08-22T14:49:34.759Z</time>
      </trkpt>
      <trkpt lat="42.637058" lon="2.525742">
        <ele>289.496618</ele>
        <time>2019-08-22T14:49:39.187Z</time>
      </trkpt>
      <trkpt lat="42.637237" lon="2.525783">
        <ele>288.921054</ele>
        <time>2019-08-22T14:49:41.018Z</time>
      </trkpt>
      <trkpt lat="42.637358" lon="2.525840">
        <ele>288.515008</ele>
        <time>2019-08-22T14:49:42.373Z</time>
      </trkpt>
      <trkpt lat="42.637458" lon="2.525947">
        <ele>288.119400</ele>
        <time>2019-08-22T14:49:43.609Z</time>
      </trkpt>
      <trkpt lat="42.637584" lon="2.526191">
        <ele>287.453479</ele>
        <time>2019-08-22T14:49:45.891Z</time>
      </trkpt>
      <trkpt lat="42.637696" lon="2.526358">
        <ele>286.948686</ele>
        <time>2019-08-22T14:49:47.514Z</time>
      </trkpt>
      <trkpt lat="42.637854" lon="2.526538">
        <ele>286.322716</ele>
        <time>2019-08-22T14:49:49.705Z</time>
      </trkpt>
      <trkpt lat="42.637978" lon="2.526637">
        <ele>285.886055</ele>
        <time>2019-08-22T14:49:51.108Z</time>
      </trkpt>
      <trkpt lat="42.638489" lon="2.526886">
        <ele>284.237746</ele>
        <time>2019-08-22T14:49:56.813Z</time>
      </trkpt>
      <trkpt lat="42.639025" lon="2.527126">
        <ele>282.532422</ele>
        <time>2019-08-22T14:50:02.538Z</time>
      </trkpt>
      <trkpt lat="42.639218" lon="2.527210">
        <ele>281.933296</ele>
        <time>2019-08-22T14:50:04.656Z</time>
      </trkpt>
      <trkpt lat="42.639588" lon="2.527346">
        <ele>280.800128</ele>
        <time>2019-08-22T14:50:08.513Z</time>
      </trkpt>
      <trkpt lat="42.639937" lon="2.527469">
        <ele>279.734216</ele>
        <time>2019-08-22T14:50:12.200Z</time>
      </trkpt>
      <trkpt lat="42.640198" lon="2.527543">
        <ele>278.945980</ele>
        <time>2019-08-22T14:50:14.926Z</time>
      </trkpt>
      <trkpt lat="42.640503" lon="2.527600">
        <ele>278.035783</ele>
        <time>2019-08-22T14:50:18.109Z</time>
      </trkpt>
      <trkpt lat="42.640656" lon="2.527626">
        <ele>277.579926</ele>
        <time>2019-08-22T14:50:19.740Z</time>
      </trkpt>
      <trkpt lat="42.640736" lon="2.527654">
        <ele>277.379446</ele>
        <time>2019-08-22T14:50:20.587Z</time>
      </trkpt>
      <trkpt lat="42.640877" lon="2.527717">
        <ele>277.045253</ele>
        <time>2019-08-22T14:50:22.164Z</time>
      </trkpt>
      <trkpt lat="42.640888" lon="2.527740">
        <ele>276.999813</ele>
        <time>2019-08-22T14:50:22.375Z</time>
      </trkpt>
      <trkpt lat="42.640902" lon="2.527759">
        <ele>276.955270</ele>
        <time>2019-08-22T14:50:22.585Z</time>
      </trkpt>
      <trkpt lat="42.640926" lon="2.527777">
        <ele>276.893551</ele>
        <time>2019-08-22T14:50:22.872Z</time>
      </trkpt>
      <trkpt lat="42.640953" lon="2.527783">
        <ele>276.831949</ele>
        <time>2019-08-22T14:50:23.164Z</time>
      </trkpt>
      <trkpt lat="42.640981" lon="2.527777">
        <ele>276.768124</ele>
        <time>2019-08-22T14:50:23.449Z</time>
      </trkpt>
      <trkpt lat="42.641001" lon="2.527763">
        <ele>276.717472</ele>
        <time>2019-08-22T14:50:23.684Z</time>
      </trkpt>
      <trkpt lat="42.641018" lon="2.527743">
        <ele>276.666849</ele>
        <time>2019-08-22T14:50:23.919Z</time>
      </trkpt>
      <trkpt lat="42.641073" lon="2.527727">
        <ele>276.540204</ele>
        <time>2019-08-22T14:50:24.499Z</time>
      </trkpt>
      <trkpt lat="42.641149" lon="2.527694">
        <ele>276.360561</ele>
        <time>2019-08-22T14:50:25.376Z</time>
      </trkpt>
      <trkpt lat="42.641260" lon="2.527650">
        <ele>276.100218</ele>
        <time>2019-08-22T14:50:26.598Z</time>
      </trkpt>
      <trkpt lat="42.641498" lon="2.527565">
        <ele>275.546138</ele>
        <time>2019-08-22T14:50:29.227Z</time>
      </trkpt>
      <trkpt lat="42.641840" lon="2.527412">
        <ele>274.735445</ele>
        <time>2019-08-22T14:50:33.112Z</time>
      </trkpt>
      <trkpt lat="42.642058" lon="2.527376">
        <ele>274.240975</ele>
        <time>2019-08-22T14:50:35.496Z</time>
      </trkpt>
      <trkpt lat="42.642252" lon="2.527377">
        <ele>273.804150</ele>
        <time>2019-08-22T14:50:37.637Z</time>
      </trkpt>
      <trkpt lat="42.642432" lon="2.527385">
        <ele>273.416293</ele>
        <time>2019-08-22T14:50:39.627Z</time>
      </trkpt>
      <trkpt lat="42.643146" lon="2.527433">
        <ele>272.208946</ele>
        <time>2019-08-22T14:50:47.841Z</time>
      </trkpt>
      <trkpt lat="42.643653" lon="2.527564">
        <ele>271.337345</ele>
        <time>2019-08-22T14:50:53.837Z</time>
      </trkpt>
      <trkpt lat="42.643848" lon="2.527602">
        <ele>271.004644</ele>
        <time>2019-08-22T14:50:55.997Z</time>
      </trkpt>
      <trkpt lat="42.643874" lon="2.527611">
        <ele>270.959331</ele>
        <time>2019-08-22T14:50:56.296Z</time>
      </trkpt>
      <trkpt lat="42.643977" lon="2.527638">
        <ele>270.782170</ele>
        <time>2019-08-22T14:50:57.509Z</time>
      </trkpt>
      <trkpt lat="42.644127" lon="2.527688">
        <ele>270.521332</ele>
        <time>2019-08-22T14:50:59.177Z</time>
      </trkpt>
      <trkpt lat="42.644286" lon="2.527731">
        <ele>270.186323</ele>
        <time>2019-08-22T14:51:01.001Z</time>
      </trkpt>
      <trkpt lat="42.644460" lon="2.527778">
        <ele>269.787050</ele>
        <time>2019-08-22T14:51:02.919Z</time>
      </trkpt>
      <trkpt lat="42.644597" lon="2.527821">
        <ele>269.470595</ele>
        <time>2019-08-22T14:51:04.436Z</time>
      </trkpt>
      <trkpt lat="42.644589" lon="2.527991">
        <ele>269.188579</ele>
        <time>2019-08-22T14:51:05.870Z</time>
      </trkpt>
      <trkpt lat="42.644583" lon="2.528103">
        <ele>269.002669</ele>
        <time>2019-08-22T14:51:06.742Z</time>
      </trkpt>
      <trkpt lat="42.644581" lon="2.528152">
        <ele>268.921423</ele>
        <time>2019-08-22T14:51:07.089Z</time>
      </trkpt>
      <trkpt lat="42.644587" lon="2.528432">
        <ele>268.457677</ele>
        <time>2019-08-22T14:51:09.442Z</time>
      </trkpt>
      <trkpt lat="42.644681" lon="2.528838">
        <ele>267.753021</ele>
        <time>2019-08-22T14:51:12.776Z</time>
      </trkpt>
      <trkpt lat="42.644705" lon="2.528979">
        <ele>267.513423</ele>
        <time>2019-08-22T14:51:13.942Z</time>
      </trkpt>
      <trkpt lat="42.644785" lon="2.528991">
        <ele>267.332276</ele>
        <time>2019-08-22T14:51:14.749Z</time>
      </trkpt>
      <trkpt lat="42.645100" lon="2.529042">
        <ele>266.618302</ele>
        <time>2019-08-22T14:51:18.173Z</time>
      </trkpt>
      <trkpt lat="42.645174" lon="2.529055">
        <ele>266.450367</ele>
        <time>2019-08-22T14:51:18.905Z</time>
      </trkpt>
      <trkpt lat="42.645716" lon="2.529193">
        <ele>265.024811</ele>
        <time>2019-08-22T14:51:24.734Z</time>
      </trkpt>
      <trkpt lat="42.645782" lon="2.529220">
        <ele>264.845313</ele>
        <time>2019-08-22T14:51:25.427Z</time>
      </trkpt>
      <trkpt lat="42.645914" lon="2.529329">
        <ele>264.443100</ele>
        <time>2019-08-22T14:51:27.019Z</time>
      </trkpt>
      <trkpt lat="42.646134" lon="2.529547">
        <ele>263.734112</ele>
        <time>2019-08-22T14:51:29.875Z</time>
      </trkpt>
      <trkpt lat="42.646246" lon="2.529648">
        <ele>263.384095</ele>
        <time>2019-08-22T14:51:31.295Z</time>
      </trkpt>
      <trkpt lat="42.646581" lon="2.529949">
        <ele>262.338331</ele>
        <time>2019-08-22T14:51:35.523Z</time>
      </trkpt>
      <trkpt lat="42.646989" lon="2.530337">
        <ele>260.939750</ele>
        <time>2019-08-22T14:51:40.809Z</time>
      </trkpt>
      <trkpt lat="42.647246" lon="2.530580">
        <ele>259.998179</ele>
        <time>2019-08-22T14:51:44.037Z</time>
      </trkpt>
      <trkpt lat="42.647291" lon="2.530620">
        <ele>259.836465</ele>
        <time>2019-08-22T14:51:44.616Z</time>
      </trkpt>
      <trkpt lat="42.647455" lon="2.530741">
        <ele>259.275229</ele>
        <time>2019-08-22T14:51:46.563Z</time>
      </trkpt>
      <trkpt lat="42.647571" lon="2.530853">
        <ele>258.847291</ele>
        <time>2019-08-22T14:51:48.029Z</time>
      </trkpt>
      <trkpt lat="42.647595" lon="2.530917">
        <ele>258.688361</ele>
        <time>2019-08-22T14:51:48.594Z</time>
      </trkpt>
      <trkpt lat="42.647643" lon="2.530959">
        <ele>258.516670</ele>
        <time>2019-08-22T14:51:49.205Z</time>
      </trkpt>
      <trkpt lat="42.647674" lon="2.530966">
        <ele>258.422150</ele>
        <time>2019-08-22T14:51:49.545Z</time>
      </trkpt>
      <trkpt lat="42.647712" lon="2.530956">
        <ele>258.305732</ele>
        <time>2019-08-22T14:51:49.948Z</time>
      </trkpt>
      <trkpt lat="42.647745" lon="2.530929">
        <ele>258.189887</ele>
        <time>2019-08-22T14:51:50.332Z</time>
      </trkpt>
      <trkpt lat="42.647769" lon="2.530887">
        <ele>258.072223</ele>
        <time>2019-08-22T14:51:50.704Z</time>
      </trkpt>
      <trkpt lat="42.647777" lon="2.530859">
        <ele>258.005768</ele>
        <time>2019-08-22T14:51:50.921Z</time>
      </trkpt>
      <trkpt lat="42.647780" lon="2.530829">
        <ele>257.938788</ele>
        <time>2019-08-22T14:51:51.138Z</time>
      </trkpt>
      <trkpt lat="42.647806" lon="2.530668">
        <ele>257.574117</ele>
        <time>2019-08-22T14:51:52.380Z</time>
      </trkpt>
      <trkpt lat="42.647891" lon="2.530476">
        <ele>257.078343</ele>
        <time>2019-08-22T14:51:54.031Z</time>
      </trkpt>
      <trkpt lat="42.648066" lon="2.530175">
        <ele>256.224855</ele>
        <time>2019-08-22T14:51:56.822Z</time>
      </trkpt>
      <trkpt lat="42.648159" lon="2.530005">
        <ele>255.719485</ele>
        <time>2019-08-22T14:51:58.339Z</time>
      </trkpt>
      <trkpt lat="42.648357" lon="2.529770">
        <ele>254.867115</ele>
        <time>2019-08-22T14:52:00.998Z</time>
      </trkpt>
      <trkpt lat="42.648669" lon="2.529618">
        <ele>253.792294</ele>
        <time>2019-08-22T14:52:04.322Z</time>
      </trkpt>
      <trkpt lat="42.648802" lon="2.529581">
        <ele>253.352036</ele>
        <time>2019-08-22T14:52:05.654Z</time>
      </trkpt>
      <trkpt lat="42.649083" lon="2.529518">
        <ele>252.428440</ele>
        <time>2019-08-22T14:52:08.568Z</time>
      </trkpt>
      <trkpt lat="42.649152" lon="2.529522">
        <ele>252.204468</ele>
        <time>2019-08-22T14:52:09.238Z</time>
      </trkpt>
      <trkpt lat="42.649185" lon="2.529524">
        <ele>252.097342</ele>
        <time>2019-08-22T14:52:09.581Z</time>
      </trkpt>
      <trkpt lat="42.649296" lon="2.529610">
        <ele>251.683020</ele>
        <time>2019-08-22T14:52:10.883Z</time>
      </trkpt>
      <trkpt lat="42.649444" lon="2.529907">
        <ele>250.827310</ele>
        <time>2019-08-22T14:52:13.574Z</time>
      </trkpt>
      <trkpt lat="42.649658" lon="2.530416">
        <ele>250.009967</ele>
        <time>2019-08-22T14:52:18.090Z</time>
      </trkpt>
      <trkpt lat="42.649907" lon="2.531241">
        <ele>249.086119</ele>
        <time>2019-08-22T14:52:25.169Z</time>
      </trkpt>
      <trkpt lat="42.650866" lon="2.535214">
        <ele>248.419592</ele>
        <time>2019-08-22T14:53:09.624Z</time>
      </trkpt>
      <trkpt lat="42.650938" lon="2.535655">
        <ele>248.837395</ele>
        <time>2019-08-22T14:53:17.063Z</time>
      </trkpt>
      <trkpt lat="42.650999" lon="2.536388">
        <ele>249.519663</ele>
        <time>2019-08-22T14:53:30.311Z</time>
      </trkpt>
      <trkpt lat="42.650943" lon="2.539075">
        <ele>250.989567</ele>
        <time>2019-08-22T14:54:09.423Z</time>
      </trkpt>
      <trkpt lat="42.650981" lon="2.539772">
        <ele>250.934440</ele>
        <time>2019-08-22T14:54:15.065Z</time>
      </trkpt>
      <trkpt lat="42.651068" lon="2.540367">
        <ele>250.474035</ele>
        <time>2019-08-22T14:54:20.275Z</time>
      </trkpt>
      <trkpt lat="42.651140" lon="2.540693">
        <ele>250.215707</ele>
        <time>2019-08-22T14:54:22.916Z</time>
      </trkpt>
      <trkpt lat="42.651262" lon="2.541118">
        <ele>249.869463</ele>
        <time>2019-08-22T14:54:26.725Z</time>
      </trkpt>
      <trkpt lat="42.652231" lon="2.543767">
        <ele>248.934986</ele>
        <time>2019-08-22T14:54:59.875Z</time>
      </trkpt>
      <trkpt lat="42.652301" lon="2.544012">
        <ele>248.810664</ele>
        <time>2019-08-22T14:55:03.078Z</time>
      </trkpt>
      <trkpt lat="42.652359" lon="2.544219">
        <ele>248.218036</ele>
        <time>2019-08-22T14:55:04.776Z</time>
      </trkpt>
      <trkpt lat="42.652473" lon="2.544828">
        <ele>246.536797</ele>
        <time>2019-08-22T14:55:09.849Z</time>
      </trkpt>
      <trkpt lat="42.652515" lon="2.545713">
        <ele>244.164182</ele>
        <time>2019-08-22T14:55:16.201Z</time>
      </trkpt>
      <trkpt lat="42.652194" lon="2.548417">
        <ele>233.844352</ele>
        <time>2019-08-22T14:55:34.785Z</time>
      </trkpt>
      <trkpt lat="42.652231" lon="2.549936">
        <ele>228.902942</ele>
        <time>2019-08-22T14:55:45.486Z</time>
      </trkpt>
      <trkpt lat="42.652271" lon="2.550642">
        <ele>226.809643</ele>
        <time>2019-08-22T14:55:50.706Z</time>
      </trkpt>
      <trkpt lat="42.652306" lon="2.551580">
        <ele>224.188470</ele>
        <time>2019-08-22T14:55:57.695Z</time>
      </trkpt>
      <trkpt lat="42.652301" lon="2.551790">
        <ele>223.663811</ele>
        <time>2019-08-22T14:55:59.240Z</time>
      </trkpt>
      <trkpt lat="42.652265" lon="2.552175">
        <ele>222.694701</ele>
        <time>2019-08-22T14:56:02.193Z</time>
      </trkpt>
      <trkpt lat="42.652239" lon="2.552349">
        <ele>222.251335</ele>
        <time>2019-08-22T14:56:03.486Z</time>
      </trkpt>
      <trkpt lat="42.652138" lon="2.552807">
        <ele>221.057374</ele>
        <time>2019-08-22T14:56:07.047Z</time>
      </trkpt>
      <trkpt lat="42.652116" lon="2.552869">
        <ele>220.885479</ele>
        <time>2019-08-22T14:56:07.564Z</time>
      </trkpt>
      <trkpt lat="42.652047" lon="2.553063">
        <ele>220.347375</ele>
        <time>2019-08-22T14:56:09.188Z</time>
      </trkpt>
      <trkpt lat="42.651949" lon="2.553322">
        <ele>219.620063</ele>
        <time>2019-08-22T14:56:11.280Z</time>
      </trkpt>
      <trkpt lat="42.651657" lon="2.553867">
        <ele>218.062955</ele>
        <time>2019-08-22T14:56:16.220Z</time>
      </trkpt>
      <trkpt lat="42.651411" lon="2.554238">
        <ele>216.975106</ele>
        <time>2019-08-22T14:56:19.838Z</time>
      </trkpt>
      <trkpt lat="42.651089" lon="2.554601">
        <ele>215.736533</ele>
        <time>2019-08-22T14:56:23.998Z</time>
      </trkpt>
      <trkpt lat="42.650869" lon="2.554819">
        <ele>214.930449</ele>
        <time>2019-08-22T14:56:26.778Z</time>
      </trkpt>
      <trkpt lat="42.650332" lon="2.555303">
        <ele>213.871263</ele>
        <time>2019-08-22T14:56:33.937Z</time>
      </trkpt>
      <trkpt lat="42.649923" lon="2.555687">
        <ele>214.560054</ele>
        <time>2019-08-22T14:56:40.960Z</time>
      </trkpt>
      <trkpt lat="42.649424" lon="2.556133">
        <ele>215.387599</ele>
        <time>2019-08-22T14:56:54.088Z</time>
      </trkpt>
      <trkpt lat="42.648252" lon="2.557195">
        <ele>220.101677</ele>
        <time>2019-08-22T14:57:38.141Z</time>
      </trkpt>
      <trkpt lat="42.647962" lon="2.557472">
        <ele>221.681523</ele>
        <time>2019-08-22T14:57:50.751Z</time>
      </trkpt>
      <trkpt lat="42.647522" lon="2.557883">
        <ele>224.061181</ele>
        <time>2019-08-22T14:58:09.492Z</time>
      </trkpt>
      <trkpt lat="42.647172" lon="2.558249">
        <ele>225.997471</ele>
        <time>2019-08-22T14:58:23.814Z</time>
      </trkpt>
      <trkpt lat="42.646768" lon="2.558811">
        <ele>228.531040</ele>
        <time>2019-08-22T14:58:42.270Z</time>
      </trkpt>
      <trkpt lat="42.646660" lon="2.558855">
        <ele>229.025231</ele>
        <time>2019-08-22T14:58:45.756Z</time>
      </trkpt>
      <trkpt lat="42.646437" lon="2.559133">
        <ele>230.351428</ele>
        <time>2019-08-22T14:58:55.770Z</time>
      </trkpt>
      <trkpt lat="42.646024" lon="2.559678">
        <ele>232.521482</ele>
        <time>2019-08-22T14:59:13.966Z</time>
      </trkpt>
      <trkpt lat="42.645858" lon="2.559891">
        <ele>233.120642</ele>
        <time>2019-08-22T14:59:20.851Z</time>
      </trkpt>
      <trkpt lat="42.645763" lon="2.560056">
        <ele>233.525208</ele>
        <time>2019-08-22T14:59:25.962Z</time>
      </trkpt>
      <trkpt lat="42.645643" lon="2.560234">
        <ele>233.991397</ele>
        <time>2019-08-22T14:59:30.827Z</time>
      </trkpt>
      <trkpt lat="42.645536" lon="2.560445">
        <ele>234.486224</ele>
        <time>2019-08-22T14:59:36.227Z</time>
      </trkpt>
      <trkpt lat="42.645376" lon="2.561043">
        <ele>235.714840</ele>
        <time>2019-08-22T14:59:46.549Z</time>
      </trkpt>
      <trkpt lat="42.645396" lon="2.561681">
        <ele>236.596015</ele>
        <time>2019-08-22T14:59:55.632Z</time>
      </trkpt>
      <trkpt lat="42.645451" lon="2.561916">
        <ele>236.349190</ele>
        <time>2019-08-22T14:59:59.177Z</time>
      </trkpt>
      <trkpt lat="42.645559" lon="2.562231">
        <ele>236.001348</ele>
        <time>2019-08-22T15:00:02.847Z</time>
      </trkpt>
      <trkpt lat="42.645751" lon="2.562721">
        <ele>235.445675</ele>
        <time>2019-08-22T15:00:07.775Z</time>
      </trkpt>
      <trkpt lat="42.646445" lon="2.564196">
        <ele>232.902377</ele>
        <time>2019-08-22T15:00:21.106Z</time>
      </trkpt>
      <trkpt lat="42.646524" lon="2.564360">
        <ele>232.436546</ele>
        <time>2019-08-22T15:00:22.526Z</time>
      </trkpt>
      <trkpt lat="42.646662" lon="2.564620">
        <ele>231.674676</ele>
        <time>2019-08-22T15:00:24.921Z</time>
      </trkpt>
      <trkpt lat="42.646816" lon="2.565055">
        <ele>230.527532</ele>
        <time>2019-08-22T15:00:28.501Z</time>
      </trkpt>
      <trkpt lat="42.646882" lon="2.565415">
        <ele>229.645928</ele>
        <time>2019-08-22T15:00:31.244Z</time>
      </trkpt>
      <trkpt lat="42.646863" lon="2.566693">
        <ele>226.730777</ele>
        <time>2019-08-22T15:00:40.733Z</time>
      </trkpt>
      <trkpt lat="42.646958" lon="2.567347">
        <ele>225.251430</ele>
        <time>2019-08-22T15:00:45.818Z</time>
      </trkpt>
      <trkpt lat="42.647142" lon="2.567786">
        <ele>224.130165</ele>
        <time>2019-08-22T15:00:49.603Z</time>
      </trkpt>
      <trkpt lat="42.647293" lon="2.568001">
        <ele>223.470484</ele>
        <time>2019-08-22T15:00:51.858Z</time>
      </trkpt>
      <trkpt lat="42.647493" lon="2.568203">
        <ele>222.840163</ele>
        <time>2019-08-22T15:00:54.468Z</time>
      </trkpt>
      <trkpt lat="42.647777" lon="2.568375">
        <ele>222.266108</ele>
        <time>2019-08-22T15:00:57.788Z</time>
      </trkpt>
      <trkpt lat="42.647960" lon="2.568461">
        <ele>221.908600</ele>
        <time>2019-08-22T15:00:59.874Z</time>
      </trkpt>
      <trkpt lat="42.648363" lon="2.568651">
        <ele>221.121027</ele>
        <time>2019-08-22T15:01:04.634Z</time>
      </trkpt>
      <trkpt lat="42.648464" lon="2.568715">
        <ele>220.915280</ele>
        <time>2019-08-22T15:01:05.957Z</time>
      </trkpt>
      <trkpt lat="42.648784" lon="2.568986">
        <ele>220.219180</ele>
        <time>2019-08-22T15:01:10.375Z</time>
      </trkpt>
      <trkpt lat="42.649178" lon="2.569756">
        <ele>219.077510</ele>
        <time>2019-08-22T15:01:18.404Z</time>
      </trkpt>
      <trkpt lat="42.649437" lon="2.570440">
        <ele>218.213215</ele>
        <time>2019-08-22T15:01:25.346Z</time>
      </trkpt>
      <trkpt lat="42.649536" lon="2.570742">
        <ele>217.841761</ele>
        <time>2019-08-22T15:01:28.237Z</time>
      </trkpt>
      <trkpt lat="42.650078" lon="2.572171">
        <ele>214.974598</ele>
        <time>2019-08-22T15:01:41.171Z</time>
      </trkpt>
      <trkpt lat="42.651185" lon="2.574082">
        <ele>208.828566</ele>
        <time>2019-08-22T15:01:58.722Z</time>
      </trkpt>
      <trkpt lat="42.651515" lon="2.574830">
        <ele>206.418709</ele>
        <time>2019-08-22T15:02:05.004Z</time>
      </trkpt>
      <trkpt lat="42.651820" lon="2.575522">
        <ele>204.255170</ele>
        <time>2019-08-22T15:02:10.904Z</time>
      </trkpt>
      <trkpt lat="42.651799" lon="2.575836">
        <ele>203.827880</ele>
        <time>2019-08-22T15:02:13.345Z</time>
      </trkpt>
      <trkpt lat="42.651697" lon="2.576418">
        <ele>203.017067</ele>
        <time>2019-08-22T15:02:17.818Z</time>
      </trkpt>
      <trkpt lat="42.651290" lon="2.577872">
        <ele>201.111948</ele>
        <time>2019-08-22T15:02:31.210Z</time>
      </trkpt>
      <trkpt lat="42.650971" lon="2.578668">
        <ele>202.506761</ele>
        <time>2019-08-22T15:02:44.189Z</time>
      </trkpt>
      <trkpt lat="42.650917" lon="2.578807">
        <ele>202.748642</ele>
        <time>2019-08-22T15:02:47.009Z</time>
      </trkpt>
      <trkpt lat="42.650884" lon="2.578903">
        <ele>202.911693</ele>
        <time>2019-08-22T15:02:48.998Z</time>
      </trkpt>
      <trkpt lat="42.650856" lon="2.578965">
        <ele>203.023641</ele>
        <time>2019-08-22T15:02:50.430Z</time>
      </trkpt>
      <trkpt lat="42.650330" lon="2.580464">
        <ele>205.857540</ele>
        <time>2019-08-22T15:03:25.217Z</time>
      </trkpt>
      <trkpt lat="42.650242" lon="2.580867">
        <ele>206.725986</ele>
        <time>2019-08-22T15:03:36.170Z</time>
      </trkpt>
      <trkpt lat="42.649866" lon="2.582185">
        <ele>209.646397</ele>
        <time>2019-08-22T15:04:03.600Z</time>
      </trkpt>
      <trkpt lat="42.649739" lon="2.582615">
        <ele>208.999957</ele>
        <time>2019-08-22T15:04:08.675Z</time>
      </trkpt>
      <trkpt lat="42.649676" lon="2.582830">
        <ele>208.501337</ele>
        <time>2019-08-22T15:04:10.672Z</time>
      </trkpt>
      <trkpt lat="42.649567" lon="2.583255">
        <ele>207.531612</ele>
        <time>2019-08-22T15:04:14.150Z</time>
      </trkpt>
      <trkpt lat="42.649317" lon="2.584362">
        <ele>205.036700</ele>
        <time>2019-08-22T15:04:22.428Z</time>
      </trkpt>
      <trkpt lat="42.649215" lon="2.584721">
        <ele>203.738638</ele>
        <time>2019-08-22T15:04:25.070Z</time>
      </trkpt>
      <trkpt lat="42.649191" lon="2.584815">
        <ele>203.230742</ele>
        <time>2019-08-22T15:04:25.733Z</time>
      </trkpt>
      <trkpt lat="42.649129" lon="2.585406">
        <ele>200.183530</ele>
        <time>2019-08-22T15:04:29.698Z</time>
      </trkpt>
      <trkpt lat="42.649123" lon="2.585872">
        <ele>197.804529</ele>
        <time>2019-08-22T15:04:32.730Z</time>
      </trkpt>
      <trkpt lat="42.649125" lon="2.585938">
        <ele>197.467355</ele>
        <time>2019-08-22T15:04:33.180Z</time>
      </trkpt>
      <trkpt lat="42.649126" lon="2.585958">
        <ele>197.365032</ele>
        <time>2019-08-22T15:04:33.322Z</time>
      </trkpt>
      <trkpt lat="42.649128" lon="2.586000">
        <ele>197.150200</ele>
        <time>2019-08-22T15:04:33.610Z</time>
      </trkpt>
      <trkpt lat="42.649129" lon="2.586031">
        <ele>196.991812</ele>
        <time>2019-08-22T15:04:33.797Z</time>
      </trkpt>
      <trkpt lat="42.649224" lon="2.587139">
        <ele>191.527330</ele>
        <time>2019-08-22T15:04:41.155Z</time>
      </trkpt>
      <trkpt lat="42.649207" lon="2.587176">
        <ele>191.371021</ele>
        <time>2019-08-22T15:04:41.421Z</time>
      </trkpt>
      <trkpt lat="42.649197" lon="2.587197">
        <ele>191.281386</ele>
        <time>2019-08-22T15:04:41.594Z</time>
      </trkpt>
      <trkpt lat="42.649158" lon="2.587240">
        <ele>191.036784</ele>
        <time>2019-08-22T15:04:42.077Z</time>
      </trkpt>
      <trkpt lat="42.649139" lon="2.587303">
        <ele>190.792819</ele>
        <time>2019-08-22T15:04:42.553Z</time>
      </trkpt>
      <trkpt lat="42.649071" lon="2.587552">
        <ele>189.841152</ele>
        <time>2019-08-22T15:04:44.356Z</time>
      </trkpt>
      <trkpt lat="42.649107" lon="2.587638">
        <ele>189.486608</ele>
        <time>2019-08-22T15:04:44.986Z</time>
      </trkpt>
      <trkpt lat="42.649164" lon="2.587768">
        <ele>188.944341</ele>
        <time>2019-08-22T15:04:46.077Z</time>
      </trkpt>
      <trkpt lat="42.649102" lon="2.588263">
        <ele>187.145245</ele>
        <time>2019-08-22T15:04:49.503Z</time>
      </trkpt>
      <trkpt lat="42.648993" lon="2.589097">
        <ele>184.110246</ele>
        <time>2019-08-22T15:04:55.595Z</time>
      </trkpt>
      <trkpt lat="42.648939" lon="2.589559">
        <ele>183.283139</ele>
        <time>2019-08-22T15:04:59.383Z</time>
      </trkpt>
      <trkpt lat="42.648984" lon="2.589971">
        <ele>183.244212</ele>
        <time>2019-08-22T15:05:03.260Z</time>
      </trkpt>
      <trkpt lat="42.649061" lon="2.590667">
        <ele>183.178435</ele>
        <time>2019-08-22T15:05:11.509Z</time>
      </trkpt>
      <trkpt lat="42.649161" lon="2.591079">
        <ele>183.137888</ele>
        <time>2019-08-22T15:05:17.528Z</time>
      </trkpt>
      <trkpt lat="42.649912" lon="2.593316">
        <ele>183.550645</ele>
        <time>2019-08-22T15:05:50.680Z</time>
      </trkpt>
      <trkpt lat="42.650172" lon="2.594287">
        <ele>183.533675</ele>
        <time>2019-08-22T15:06:00.289Z</time>
      </trkpt>
      <trkpt lat="42.650662" lon="2.595482">
        <ele>182.907043</ele>
        <time>2019-08-22T15:06:12.383Z</time>
      </trkpt>
      <trkpt lat="42.650786" lon="2.595951">
        <ele>182.678780</ele>
        <time>2019-08-22T15:06:17.392Z</time>
      </trkpt>
      <trkpt lat="42.650931" lon="2.597114">
        <ele>183.770686</ele>
        <time>2019-08-22T15:06:32.022Z</time>
      </trkpt>
      <trkpt lat="42.650990" lon="2.597662">
        <ele>184.421282</ele>
        <time>2019-08-22T15:06:41.729Z</time>
      </trkpt>
      <trkpt lat="42.650994" lon="2.599043">
        <ele>186.192193</ele>
        <time>2019-08-22T15:07:07.782Z</time>
      </trkpt>
      <trkpt lat="42.650965" lon="2.599544">
        <ele>186.935285</ele>
        <time>2019-08-22T15:07:17.525Z</time>
      </trkpt>
      <trkpt lat="42.650963" lon="2.600296">
        <ele>188.047233</ele>
        <time>2019-08-22T15:07:30.377Z</time>
      </trkpt>
      <trkpt lat="42.651116" lon="2.602156">
        <ele>189.650167</ele>
        <time>2019-08-22T15:07:56.211Z</time>
      </trkpt>
      <trkpt lat="42.651455" lon="2.604086">
        <ele>190.493165</ele>
        <time>2019-08-22T15:08:19.599Z</time>
      </trkpt>
      <trkpt lat="42.652678" lon="2.607143">
        <ele>190.469020</ele>
        <time>2019-08-22T15:09:02.785Z</time>
      </trkpt>
      <trkpt lat="42.652977" lon="2.607624">
        <ele>190.259485</ele>
        <time>2019-08-22T15:09:07.959Z</time>
      </trkpt>
      <trkpt lat="42.653516" lon="2.607990">
        <ele>187.375146</ele>
        <time>2019-08-22T15:09:14.014Z</time>
      </trkpt>
      <trkpt lat="42.653722" lon="2.608226">
        <ele>185.971616</ele>
        <time>2019-08-22T15:09:16.580Z</time>
      </trkpt>
      <trkpt lat="42.655129" lon="2.610062">
        <ele>174.576023</ele>
        <time>2019-08-22T15:09:34.162Z</time>
      </trkpt>
      <trkpt lat="42.655466" lon="2.610393">
        <ele>171.880595</ele>
        <time>2019-08-22T15:09:37.915Z</time>
      </trkpt>
      <trkpt lat="42.656411" lon="2.611041">
        <ele>166.663419</ele>
        <time>2019-08-22T15:09:47.729Z</time>
      </trkpt>
      <trkpt lat="42.656639" lon="2.611253">
        <ele>165.576724</ele>
        <time>2019-08-22T15:09:50.429Z</time>
      </trkpt>
      <trkpt lat="42.656828" lon="2.611709">
        <ele>164.062231</ele>
        <time>2019-08-22T15:09:54.313Z</time>
      </trkpt>
      <trkpt lat="42.656830" lon="2.612021">
        <ele>163.159462</ele>
        <time>2019-08-22T15:09:56.663Z</time>
      </trkpt>
      <trkpt lat="42.656749" lon="2.612467">
        <ele>162.081534</ele>
        <time>2019-08-22T15:10:00.315Z</time>
      </trkpt>
      <trkpt lat="42.656481" lon="2.613618">
        <ele>161.561184</ele>
        <time>2019-08-22T15:10:11.056Z</time>
      </trkpt>
      <trkpt lat="42.656434" lon="2.613954">
        <ele>161.413771</ele>
        <time>2019-08-22T15:10:14.311Z</time>
      </trkpt>
      <trkpt lat="42.656390" lon="2.614756">
        <ele>161.081423</ele>
        <time>2019-08-22T15:10:24.591Z</time>
      </trkpt>
      <trkpt lat="42.656337" lon="2.615511">
        <ele>161.847389</ele>
        <time>2019-08-22T15:10:35.825Z</time>
      </trkpt>
      <trkpt lat="42.656226" lon="2.615940">
        <ele>162.306684</ele>
        <time>2019-08-22T15:10:42.720Z</time>
      </trkpt>
      <trkpt lat="42.656109" lon="2.616175">
        <ele>162.593291</ele>
        <time>2019-08-22T15:10:47.045Z</time>
      </trkpt>
      <trkpt lat="42.656001" lon="2.616390">
        <ele>162.856245</ele>
        <time>2019-08-22T15:10:51.473Z</time>
      </trkpt>
      <trkpt lat="42.655661" lon="2.617104">
        <ele>163.671420</ele>
        <time>2019-08-22T15:11:04.925Z</time>
      </trkpt>
      <trkpt lat="42.655591" lon="2.617447">
        <ele>163.940192</ele>
        <time>2019-08-22T15:11:10.363Z</time>
      </trkpt>
      <trkpt lat="42.655602" lon="2.619043">
        <ele>165.145320</ele>
        <time>2019-08-22T15:11:33.038Z</time>
      </trkpt>
      <trkpt lat="42.655687" lon="2.620063">
        <ele>165.291139</ele>
        <time>2019-08-22T15:11:44.410Z</time>
      </trkpt>
      <trkpt lat="42.655737" lon="2.620641">
        <ele>165.211153</ele>
        <time>2019-08-22T15:11:50.388Z</time>
      </trkpt>
      <trkpt lat="42.655785" lon="2.621267">
        <ele>165.124651</ele>
        <time>2019-08-22T15:11:56.605Z</time>
      </trkpt>
      <trkpt lat="42.655852" lon="2.621572">
        <ele>165.080903</ele>
        <time>2019-08-22T15:11:59.865Z</time>
      </trkpt>
      <trkpt lat="42.655868" lon="2.621765">
        <ele>165.054209</ele>
        <time>2019-08-22T15:12:01.753Z</time>
      </trkpt>
      <trkpt lat="42.655848" lon="2.621824">
        <ele>165.045730</ele>
        <time>2019-08-22T15:12:02.408Z</time>
      </trkpt>
      <trkpt lat="42.655863" lon="2.621890">
        <ele>165.036878</ele>
        <time>2019-08-22T15:12:03.068Z</time>
      </trkpt>
      <trkpt lat="42.655834" lon="2.622235">
        <ele>164.992382</ele>
        <time>2019-08-22T15:12:06.451Z</time>
      </trkpt>
      <trkpt lat="42.655681" lon="2.622930">
        <ele>164.899421</ele>
        <time>2019-08-22T15:12:13.428Z</time>
      </trkpt>
      <trkpt lat="42.655617" lon="2.623181">
        <ele>164.865380</ele>
        <time>2019-08-22T15:12:16.153Z</time>
      </trkpt>
      <trkpt lat="42.655570" lon="2.623395">
        <ele>164.836761</ele>
        <time>2019-08-22T15:12:18.448Z</time>
      </trkpt>
      <trkpt lat="42.655557" lon="2.623483">
        <ele>164.825260</ele>
        <time>2019-08-22T15:12:19.454Z</time>
      </trkpt>
      <trkpt lat="42.655524" lon="2.623716">
        <ele>164.794855</ele>
        <time>2019-08-22T15:12:21.992Z</time>
      </trkpt>
      <trkpt lat="42.655496" lon="2.623899">
        <ele>164.770903</ele>
        <time>2019-08-22T15:12:24.026Z</time>
      </trkpt>
      <trkpt lat="42.655486" lon="2.623974">
        <ele>164.761136</ele>
        <time>2019-08-22T15:12:25.045Z</time>
      </trkpt>
      <trkpt lat="42.655427" lon="2.624378">
        <ele>164.846486</ele>
        <time>2019-08-22T15:12:30.307Z</time>
      </trkpt>
      <trkpt lat="42.655281" lon="2.625200">
        <ele>165.234205</ele>
        <time>2019-08-22T15:12:41.357Z</time>
      </trkpt>
      <trkpt lat="42.655219" lon="2.625763">
        <ele>165.495216</ele>
        <time>2019-08-22T15:12:48.549Z</time>
      </trkpt>
      <trkpt lat="42.655182" lon="2.626288">
        <ele>165.737030</ele>
        <time>2019-08-22T15:12:55.325Z</time>
      </trkpt>
      <trkpt lat="42.655180" lon="2.626319">
        <ele>165.751298</ele>
        <time>2019-08-22T15:12:55.740Z</time>
      </trkpt>
      <trkpt lat="42.655151" lon="2.626862">
        <ele>165.922735</ele>
        <time>2019-08-22T15:13:03.206Z</time>
      </trkpt>
      <trkpt lat="42.655149" lon="2.627656">
        <ele>166.085014</ele>
        <time>2019-08-22T15:13:13.185Z</time>
      </trkpt>
      <trkpt lat="42.655307" lon="2.629022">
        <ele>166.354418</ele>
        <time>2019-08-22T15:13:28.377Z</time>
      </trkpt>
      <trkpt lat="42.655468" lon="2.629822">
        <ele>166.241572</ele>
        <time>2019-08-22T15:13:36.837Z</time>
      </trkpt>
      <trkpt lat="42.655566" lon="2.630387">
        <ele>166.162592</ele>
        <time>2019-08-22T15:13:42.798Z</time>
      </trkpt>
      <trkpt lat="42.656082" lon="2.632920">
        <ele>165.987141</ele>
        <time>2019-08-22T15:14:10.675Z</time>
      </trkpt>
      <trkpt lat="42.656388" lon="2.633933">
        <ele>165.978159</ele>
        <time>2019-08-22T15:14:22.937Z</time>
      </trkpt>
      <trkpt lat="42.656437" lon="2.634126">
        <ele>165.986073</ele>
        <time>2019-08-22T15:14:25.360Z</time>
      </trkpt>
      <trkpt lat="42.656731" lon="2.637061">
        <ele>165.800508</ele>
        <time>2019-08-22T15:14:57.966Z</time>
      </trkpt>
      <trkpt lat="42.656881" lon="2.637828">
        <ele>165.593211</ele>
        <time>2019-08-22T15:15:05.799Z</time>
      </trkpt>
      <trkpt lat="42.657230" lon="2.639092">
        <ele>164.812069</ele>
        <time>2019-08-22T15:15:18.370Z</time>
      </trkpt>
      <trkpt lat="42.657521" lon="2.640947">
        <ele>163.167238</ele>
        <time>2019-08-22T15:15:34.648Z</time>
      </trkpt>
      <trkpt lat="42.657712" lon="2.641773">
        <ele>162.482134</ele>
        <time>2019-08-22T15:15:42.129Z</time>
      </trkpt>
      <trkpt lat="42.657713" lon="2.641812">
        <ele>162.451257</ele>
        <time>2019-08-22T15:15:42.448Z</time>
      </trkpt>
      <trkpt lat="42.657773" lon="2.641955">
        <ele>162.320991</ele>
        <time>2019-08-22T15:15:43.922Z</time>
      </trkpt>
      <trkpt lat="42.657840" lon="2.642045">
        <ele>162.219663</ele>
        <time>2019-08-22T15:15:45.026Z</time>
      </trkpt>
      <trkpt lat="42.657839" lon="2.642080">
        <ele>162.191949</ele>
        <time>2019-08-22T15:15:45.341Z</time>
      </trkpt>
      <trkpt lat="42.657844" lon="2.642114">
        <ele>162.164515</ele>
        <time>2019-08-22T15:15:45.656Z</time>
      </trkpt>
      <trkpt lat="42.657859" lon="2.642157">
        <ele>162.126858</ele>
        <time>2019-08-22T15:15:46.067Z</time>
      </trkpt>
      <trkpt lat="42.657916" lon="2.642211">
        <ele>162.052116</ele>
        <time>2019-08-22T15:15:46.891Z</time>
      </trkpt>
      <trkpt lat="42.657951" lon="2.642217">
        <ele>162.014161</ele>
        <time>2019-08-22T15:15:47.318Z</time>
      </trkpt>
      <trkpt lat="42.657975" lon="2.642393">
        <ele>161.872531</ele>
        <time>2019-08-22T15:15:48.969Z</time>
      </trkpt>
      <trkpt lat="42.658061" lon="2.643436">
        <ele>161.345044</ele>
        <time>2019-08-22T15:15:58.878Z</time>
      </trkpt>
      <trkpt lat="42.658143" lon="2.644083">
        <ele>161.334735</ele>
        <time>2019-08-22T15:16:05.688Z</time>
      </trkpt>
      <trkpt lat="42.658228" lon="2.644652">
        <ele>161.325618</ele>
        <time>2019-08-22T15:16:12.622Z</time>
      </trkpt>
      <trkpt lat="42.658350" lon="2.645548">
        <ele>161.282983</ele>
        <time>2019-08-22T15:16:23.697Z</time>
      </trkpt>
      <trkpt lat="42.658374" lon="2.646085">
        <ele>161.111080</ele>
        <time>2019-08-22T15:16:29.854Z</time>
      </trkpt>
      <trkpt lat="42.658374" lon="2.646112">
        <ele>161.102453</ele>
        <time>2019-08-22T15:16:30.232Z</time>
      </trkpt>
      <trkpt lat="42.658374" lon="2.646313">
        <ele>161.038229</ele>
        <time>2019-08-22T15:16:32.484Z</time>
      </trkpt>
      <trkpt lat="42.658357" lon="2.647530">
        <ele>160.649295</ele>
        <time>2019-08-22T15:16:44.207Z</time>
      </trkpt>
      <trkpt lat="42.658343" lon="2.647743">
        <ele>160.580965</ele>
        <time>2019-08-22T15:16:46.255Z</time>
      </trkpt>
      <trkpt lat="42.658356" lon="2.648142">
        <ele>160.217935</ele>
        <time>2019-08-22T15:16:49.783Z</time>
      </trkpt>
      <trkpt lat="42.658513" lon="2.650756">
        <ele>156.780914</ele>
        <time>2019-08-22T15:17:11.115Z</time>
      </trkpt>
      <trkpt lat="42.658552" lon="2.651379">
        <ele>155.877180</ele>
        <time>2019-08-22T15:17:16.180Z</time>
      </trkpt>
      <trkpt lat="42.658582" lon="2.652277">
        <ele>154.577882</ele>
        <time>2019-08-22T15:17:23.454Z</time>
      </trkpt>
      <trkpt lat="42.658712" lon="2.653269">
        <ele>153.385030</ele>
        <time>2019-08-22T15:17:31.621Z</time>
      </trkpt>
      <trkpt lat="42.658800" lon="2.654183">
        <ele>152.532005</ele>
        <time>2019-08-22T15:17:39.474Z</time>
      </trkpt>
      <trkpt lat="42.658810" lon="2.654287">
        <ele>152.434946</ele>
        <time>2019-08-22T15:17:40.376Z</time>
      </trkpt>
      <trkpt lat="42.658963" lon="2.655417">
        <ele>151.692913</ele>
        <time>2019-08-22T15:17:51.310Z</time>
      </trkpt>
      <trkpt lat="42.659049" lon="2.656048">
        <ele>151.969857</ele>
        <time>2019-08-22T15:17:58.035Z</time>
      </trkpt>
      <trkpt lat="42.659062" lon="2.656148">
        <ele>152.013681</ele>
        <time>2019-08-22T15:17:59.071Z</time>
      </trkpt>
      <trkpt lat="42.659087" lon="2.656333">
        <ele>152.094854</ele>
        <time>2019-08-22T15:18:01.393Z</time>
      </trkpt>
      <trkpt lat="42.659202" lon="2.657387">
        <ele>152.554685</ele>
        <time>2019-08-22T15:18:16.087Z</time>
      </trkpt>
      <trkpt lat="42.659290" lon="2.658550">
        <ele>154.088668</ele>
        <time>2019-08-22T15:18:36.218Z</time>
      </trkpt>
      <trkpt lat="42.659327" lon="2.658928">
        <ele>154.663433</ele>
        <time>2019-08-22T15:18:42.902Z</time>
      </trkpt>
      <trkpt lat="42.659410" lon="2.659795">
        <ele>155.981242</ele>
        <time>2019-08-22T15:18:58.498Z</time>
      </trkpt>
      <trkpt lat="42.659512" lon="2.661218">
        <ele>157.273930</ele>
        <time>2019-08-22T15:19:21.511Z</time>
      </trkpt>
      <trkpt lat="42.659549" lon="2.661970">
        <ele>157.866787</ele>
        <time>2019-08-22T15:19:31.172Z</time>
      </trkpt>
      <trkpt lat="42.659509" lon="2.663448">
        <ele>158.256250</ele>
        <time>2019-08-22T15:19:47.197Z</time>
      </trkpt>
      <trkpt lat="42.659274" lon="2.666734">
        <ele>158.299318</ele>
        <time>2019-08-22T15:20:23.059Z</time>
      </trkpt>
      <trkpt lat="42.659218" lon="2.667667">
        <ele>158.302879</ele>
        <time>2019-08-22T15:20:33.931Z</time>
      </trkpt>
      <trkpt lat="42.659173" lon="2.668110">
        <ele>158.288185</ele>
        <time>2019-08-22T15:20:39.044Z</time>
      </trkpt>
      <trkpt lat="42.659133" lon="2.668746">
        <ele>158.267212</ele>
        <time>2019-08-22T15:20:46.080Z</time>
      </trkpt>
      <trkpt lat="42.659107" lon="2.668777">
        <ele>158.265667</ele>
        <time>2019-08-22T15:20:46.605Z</time>
      </trkpt>
      <trkpt lat="42.659087" lon="2.668815">
        <ele>158.264132</ele>
        <time>2019-08-22T15:20:47.127Z</time>
      </trkpt>
      <trkpt lat="42.659072" lon="2.668861">
        <ele>158.262479</ele>
        <time>2019-08-22T15:20:47.675Z</time>
      </trkpt>
      <trkpt lat="42.659067" lon="2.668911">
        <ele>158.260821</ele>
        <time>2019-08-22T15:20:48.196Z</time>
      </trkpt>
      <trkpt lat="42.659071" lon="2.668961">
        <ele>158.259168</ele>
        <time>2019-08-22T15:20:48.742Z</time>
      </trkpt>
      <trkpt lat="42.659082" lon="2.669005">
        <ele>158.257641</ele>
        <time>2019-08-22T15:20:49.223Z</time>
      </trkpt>
      <trkpt lat="42.659101" lon="2.669044">
        <ele>158.256104</ele>
        <time>2019-08-22T15:20:49.702Z</time>
      </trkpt>
      <trkpt lat="42.659058" lon="2.669277">
        <ele>158.248211</ele>
        <time>2019-08-22T15:20:53.158Z</time>
      </trkpt>
      <trkpt lat="42.659020" lon="2.669612">
        <ele>158.237074</ele>
        <time>2019-08-22T15:20:57.910Z</time>
      </trkpt>
      <trkpt lat="42.658876" lon="2.670988">
        <ele>157.901044</ele>
        <time>2019-08-22T15:21:17.135Z</time>
      </trkpt>
      <trkpt lat="42.658789" lon="2.671652">
        <ele>157.725435</ele>
        <time>2019-08-22T15:21:26.424Z</time>
      </trkpt>
      <trkpt lat="42.658709" lon="2.672138">
        <ele>157.596382</ele>
        <time>2019-08-22T15:21:33.371Z</time>
      </trkpt>
      <trkpt lat="42.658679" lon="2.672300">
        <ele>157.588175</ele>
        <time>2019-08-22T15:21:35.751Z</time>
      </trkpt>
      <trkpt lat="42.658560" lon="2.672935">
        <ele>157.555985</ele>
        <time>2019-08-22T15:21:45.621Z</time>
      </trkpt>
      <trkpt lat="42.658552" lon="2.672979">
        <ele>157.553758</ele>
        <time>2019-08-22T15:21:46.366Z</time>
      </trkpt>
      <trkpt lat="42.658500" lon="2.673259">
        <ele>157.539572</ele>
        <time>2019-08-22T15:21:50.903Z</time>
      </trkpt>
      <trkpt lat="42.658253" lon="2.674641">
        <ele>157.329266</ele>
        <time>2019-08-22T15:22:12.132Z</time>
      </trkpt>
      <trkpt lat="42.658244" lon="2.675332">
        <ele>156.580787</ele>
        <time>2019-08-22T15:22:21.598Z</time>
      </trkpt>
      <trkpt lat="42.658244" lon="2.675448">
        <ele>156.455158</ele>
        <time>2019-08-22T15:22:22.645Z</time>
      </trkpt>
      <trkpt lat="42.658275" lon="2.675700">
        <ele>156.178447</ele>
        <time>2019-08-22T15:22:25.675Z</time>
      </trkpt>
      <trkpt lat="42.658604" lon="2.677199">
        <ele>154.322919</ele>
        <time>2019-08-22T15:22:43.572Z</time>
      </trkpt>
      <trkpt lat="42.658630" lon="2.677328">
        <ele>154.109983</ele>
        <time>2019-08-22T15:22:45.057Z</time>
      </trkpt>
      <trkpt lat="42.658722" lon="2.677748">
        <ele>153.412333</ele>
        <time>2019-08-22T15:22:49.844Z</time>
      </trkpt>
      <trkpt lat="42.658772" lon="2.678020">
        <ele>152.965999</ele>
        <time>2019-08-22T15:22:52.995Z</time>
      </trkpt>
      <trkpt lat="42.658765" lon="2.678122">
        <ele>152.802915</ele>
        <time>2019-08-22T15:22:54.183Z</time>
      </trkpt>
      <trkpt lat="42.658812" lon="2.678546">
        <ele>152.120303</ele>
        <time>2019-08-22T15:22:59.061Z</time>
      </trkpt>
      <trkpt lat="42.658831" lon="2.678628">
        <ele>151.983437</ele>
        <time>2019-08-22T15:23:00.076Z</time>
      </trkpt>
      <trkpt lat="42.658817" lon="2.679129">
        <ele>151.185294</ele>
        <time>2019-08-22T15:23:05.908Z</time>
      </trkpt>
      <trkpt lat="42.658834" lon="2.679368">
        <ele>150.877985</ele>
        <time>2019-08-22T15:23:08.714Z</time>
      </trkpt>
      <trkpt lat="42.659083" lon="2.680578">
        <ele>150.022496</ele>
        <time>2019-08-22T15:23:24.843Z</time>
      </trkpt>
      <trkpt lat="42.659172" lon="2.681606">
        <ele>149.317740</ele>
        <time>2019-08-22T15:23:38.464Z</time>
      </trkpt>
      <trkpt lat="42.659169" lon="2.682452">
        <ele>149.331922</ele>
        <time>2019-08-22T15:23:50.896Z</time>
      </trkpt>
      <trkpt lat="42.659115" lon="2.682785">
        <ele>149.359757</ele>
        <time>2019-08-22T15:23:56.515Z</time>
      </trkpt>
      <trkpt lat="42.659063" lon="2.682877">
        <ele>149.369228</ele>
        <time>2019-08-22T15:23:57.791Z</time>
      </trkpt>
      <trkpt lat="42.658964" lon="2.682917">
        <ele>149.380692</ele>
        <time>2019-08-22T15:23:59.692Z</time>
      </trkpt>
      <trkpt lat="42.658475" lon="2.683096">
        <ele>149.436902</ele>
        <time>2019-08-22T15:24:07.826Z</time>
      </trkpt>
      <trkpt lat="42.658342" lon="2.683223">
        <ele>149.454941</ele>
        <time>2019-08-22T15:24:10.181Z</time>
      </trkpt>
      <trkpt lat="42.658201" lon="2.683361">
        <ele>149.425448</ele>
        <time>2019-08-22T15:24:13.127Z</time>
      </trkpt>
      <trkpt lat="42.658061" lon="2.683520">
        <ele>149.276599</ele>
        <time>2019-08-22T15:24:15.705Z</time>
      </trkpt>
      <trkpt lat="42.657817" lon="2.683984">
        <ele>148.934282</ele>
        <time>2019-08-22T15:24:22.332Z</time>
      </trkpt>
      <trkpt lat="42.656818" lon="2.687940">
        <ele>145.052863</ele>
        <time>2019-08-22T15:24:58.273Z</time>
      </trkpt>
      <trkpt lat="42.656581" lon="2.688432">
        <ele>144.148474</ele>
        <time>2019-08-22T15:25:02.849Z</time>
      </trkpt>
      <trkpt lat="42.656302" lon="2.688896">
        <ele>143.226858</ele>
        <time>2019-08-22T15:25:07.529Z</time>
      </trkpt>
      <trkpt lat="42.655650" lon="2.689793">
        <ele>141.462995</ele>
        <time>2019-08-22T15:25:17.528Z</time>
      </trkpt>
      <trkpt lat="42.655098" lon="2.690716">
        <ele>140.766793</ele>
        <time>2019-08-22T15:25:27.900Z</time>
      </trkpt>
      <trkpt lat="42.654583" lon="2.691335">
        <ele>140.219836</ele>
        <time>2019-08-22T15:25:37.792Z</time>
      </trkpt>
      <trkpt lat="42.654333" lon="2.691750">
        <ele>140.426758</ele>
        <time>2019-08-22T15:25:44.516Z</time>
      </trkpt>
      <trkpt lat="42.653737" lon="2.693271">
        <ele>141.666332</ele>
        <time>2019-08-22T15:26:09.174Z</time>
      </trkpt>
      <trkpt lat="42.653400" lon="2.693914">
        <ele>142.201331</ele>
        <time>2019-08-22T15:26:20.929Z</time>
      </trkpt>
      <trkpt lat="42.652078" lon="2.695860">
        <ele>143.533312</ele>
        <time>2019-08-22T15:26:56.085Z</time>
      </trkpt>
      <trkpt lat="42.651832" lon="2.696333">
        <ele>143.574924</ele>
        <time>2019-08-22T15:27:02.374Z</time>
      </trkpt>
      <trkpt lat="42.651565" lon="2.696997">
        <ele>143.629281</ele>
        <time>2019-08-22T15:27:10.125Z</time>
      </trkpt>
      <trkpt lat="42.651034" lon="2.698239">
        <ele>143.530337</ele>
        <time>2019-08-22T15:27:24.500Z</time>
      </trkpt>
      <trkpt lat="42.650881" lon="2.698956">
        <ele>143.432656</ele>
        <time>2019-08-22T15:27:32.206Z</time>
      </trkpt>
      <trkpt lat="42.650519" lon="2.701168">
        <ele>143.229633</ele>
        <time>2019-08-22T15:27:57.726Z</time>
      </trkpt>
      <trkpt lat="42.650486" lon="2.701269">
        <ele>143.221776</ele>
        <time>2019-08-22T15:27:59.037Z</time>
      </trkpt>
      <trkpt lat="42.650281" lon="2.701887">
        <ele>143.173579</ele>
        <time>2019-08-22T15:28:06.083Z</time>
      </trkpt>
      <trkpt lat="42.650224" lon="2.701998">
        <ele>143.142692</ele>
        <time>2019-08-22T15:28:07.384Z</time>
      </trkpt>
      <trkpt lat="42.650189" lon="2.702066">
        <ele>143.095651</ele>
        <time>2019-08-22T15:28:08.156Z</time>
      </trkpt>
      <trkpt lat="42.649604" lon="2.703028">
        <ele>142.388172</ele>
        <time>2019-08-22T15:28:19.344Z</time>
      </trkpt>
      <trkpt lat="42.649308" lon="2.703533">
        <ele>142.022169</ele>
        <time>2019-08-22T15:28:25.136Z</time>
      </trkpt>
      <trkpt lat="42.649150" lon="2.703831">
        <ele>141.813954</ele>
        <time>2019-08-22T15:28:28.614Z</time>
      </trkpt>
      <trkpt lat="42.648917" lon="2.704326">
        <ele>141.851246</ele>
        <time>2019-08-22T15:28:34.732Z</time>
      </trkpt>
      <trkpt lat="42.648871" lon="2.704338">
        <ele>141.859701</ele>
        <time>2019-08-22T15:28:35.452Z</time>
      </trkpt>
      <trkpt lat="42.648818" lon="2.704388">
        <ele>141.871345</ele>
        <time>2019-08-22T15:28:36.500Z</time>
      </trkpt>
      <trkpt lat="42.648797" lon="2.704461">
        <ele>141.881753</ele>
        <time>2019-08-22T15:28:37.331Z</time>
      </trkpt>
      <trkpt lat="42.648788" lon="2.704564">
        <ele>141.895524</ele>
        <time>2019-08-22T15:28:38.404Z</time>
      </trkpt>
      <trkpt lat="42.648799" lon="2.704771">
        <ele>141.923079</ele>
        <time>2019-08-22T15:28:40.766Z</time>
      </trkpt>
      <trkpt lat="42.648778" lon="2.704960">
        <ele>141.948457</ele>
        <time>2019-08-22T15:28:42.951Z</time>
      </trkpt>
      <trkpt lat="42.648742" lon="2.705080">
        <ele>141.965664</ele>
        <time>2019-08-22T15:28:44.367Z</time>
      </trkpt>
      <trkpt lat="42.648643" lon="2.705424">
        <ele>142.014708</ele>
        <time>2019-08-22T15:28:48.794Z</time>
      </trkpt>
      <trkpt lat="42.648562" lon="2.705686">
        <ele>142.052442</ele>
        <time>2019-08-22T15:28:52.316Z</time>
      </trkpt>
      <trkpt lat="42.648516" lon="2.705815">
        <ele>142.071476</ele>
        <time>2019-08-22T15:28:54.188Z</time>
      </trkpt>
      <trkpt lat="42.648277" lon="2.706165">
        <ele>142.158859</ele>
        <time>2019-08-22T15:29:00.511Z</time>
      </trkpt>
      <trkpt lat="42.648206" lon="2.706161">
        <ele>142.182197</ele>
        <time>2019-08-22T15:29:01.767Z</time>
      </trkpt>
      <trkpt lat="42.648134" lon="2.706219">
        <ele>142.209682</ele>
        <time>2019-08-22T15:29:03.333Z</time>
      </trkpt>
      <trkpt lat="42.648101" lon="2.706303">
        <ele>142.232686</ele>
        <time>2019-08-22T15:29:04.718Z</time>
      </trkpt>
      <trkpt lat="42.648101" lon="2.706386">
        <ele>142.252736</ele>
        <time>2019-08-22T15:29:05.905Z</time>
      </trkpt>
      <trkpt lat="42.647782" lon="2.706922">
        <ele>142.419290</ele>
        <time>2019-08-22T15:29:15.465Z</time>
      </trkpt>
      <trkpt lat="42.647623" lon="2.707103">
        <ele>142.487396</ele>
        <time>2019-08-22T15:29:18.853Z</time>
      </trkpt>
      <trkpt lat="42.646212" lon="2.708931">
        <ele>141.720623</ele>
        <time>2019-08-22T15:29:44.850Z</time>
      </trkpt>
      <trkpt lat="42.646099" lon="2.709224">
        <ele>141.539771</ele>
        <time>2019-08-22T15:29:47.768Z</time>
      </trkpt>
      <trkpt lat="42.646020" lon="2.709768">
        <ele>141.059376</ele>
        <time>2019-08-22T15:29:52.565Z</time>
      </trkpt>
      <trkpt lat="42.645808" lon="2.712411">
        <ele>137.350098</ele>
        <time>2019-08-22T15:30:14.190Z</time>
      </trkpt>
      <trkpt lat="42.645743" lon="2.713122">
        <ele>136.131723</ele>
        <time>2019-08-22T15:30:19.863Z</time>
      </trkpt>
      <trkpt lat="42.645714" lon="2.713448">
        <ele>135.573313</ele>
        <time>2019-08-22T15:30:22.415Z</time>
      </trkpt>
      <trkpt lat="42.645429" lon="2.715427">
        <ele>132.323542</ele>
        <time>2019-08-22T15:30:38.212Z</time>
      </trkpt>
      <trkpt lat="42.645418" lon="2.715500">
        <ele>132.209508</ele>
        <time>2019-08-22T15:30:38.800Z</time>
      </trkpt>
      <trkpt lat="42.645332" lon="2.716094">
        <ele>131.283054</ele>
        <time>2019-08-22T15:30:43.722Z</time>
      </trkpt>
      <trkpt lat="42.645183" lon="2.716830">
        <ele>130.135630</ele>
        <time>2019-08-22T15:30:50.055Z</time>
      </trkpt>
      <trkpt lat="42.644748" lon="2.718611">
        <ele>128.007552</ele>
        <time>2019-08-22T15:31:05.959Z</time>
      </trkpt>
      <trkpt lat="42.644202" lon="2.720812">
        <ele>125.414192</ele>
        <time>2019-08-22T15:31:25.719Z</time>
      </trkpt>
      <trkpt lat="42.644015" lon="2.721368">
        <ele>124.734673</ele>
        <time>2019-08-22T15:31:30.854Z</time>
      </trkpt>
      <trkpt lat="42.643733" lon="2.722009">
        <ele>124.111323</ele>
        <time>2019-08-22T15:31:37.174Z</time>
      </trkpt>
      <trkpt lat="42.643116" lon="2.723241">
        <ele>122.883059</ele>
        <time>2019-08-22T15:31:50.464Z</time>
      </trkpt>
      <trkpt lat="42.641879" lon="2.725779">
        <ele>121.260212</ele>
        <time>2019-08-22T15:32:19.990Z</time>
      </trkpt>
      <trkpt lat="42.641450" lon="2.726985">
        <ele>120.086865</ele>
        <time>2019-08-22T15:32:31.955Z</time>
      </trkpt>
      <trkpt lat="42.640887" lon="2.728969">
        <ele>117.713329</ele>
        <time>2019-08-22T15:32:49.570Z</time>
      </trkpt>
      <trkpt lat="42.640070" lon="2.732191">
        <ele>113.689508</ele>
        <time>2019-08-22T15:33:17.930Z</time>
      </trkpt>
      <trkpt lat="42.640047" lon="2.732278">
        <ele>113.583029</ele>
        <time>2019-08-22T15:33:18.672Z</time>
      </trkpt>
      <trkpt lat="42.639952" lon="2.732633">
        <ele>113.432088</ele>
        <time>2019-08-22T15:33:22.243Z</time>
      </trkpt>
      <trkpt lat="42.639406" lon="2.733830">
        <ele>112.881840</ele>
        <time>2019-08-22T15:33:35.953Z</time>
      </trkpt>
      <trkpt lat="42.638329" lon="2.737029">
        <ele>112.403372</ele>
        <time>2019-08-22T15:34:14.497Z</time>
      </trkpt>
      <trkpt lat="42.637667" lon="2.738535">
        <ele>111.825237</ele>
        <time>2019-08-22T15:34:31.211Z</time>
      </trkpt>
      <trkpt lat="42.637524" lon="2.738906">
        <ele>111.744522</ele>
        <time>2019-08-22T15:34:35.229Z</time>
      </trkpt>
      <trkpt lat="42.637424" lon="2.739481">
        <ele>111.795064</ele>
        <time>2019-08-22T15:34:41.383Z</time>
      </trkpt>
      <trkpt lat="42.637410" lon="2.739797">
        <ele>111.822144</ele>
        <time>2019-08-22T15:34:44.563Z</time>
      </trkpt>
      <trkpt lat="42.637151" lon="2.739800">
        <ele>111.852262</ele>
        <time>2019-08-22T15:34:48.566Z</time>
      </trkpt>
      <trkpt lat="42.637051" lon="2.739703">
        <ele>111.866547</ele>
        <time>2019-08-22T15:34:50.406Z</time>
      </trkpt>
      <trkpt lat="42.636986" lon="2.739623">
        <ele>111.876743</ele>
        <time>2019-08-22T15:34:52.009Z</time>
      </trkpt>
      <trkpt lat="42.636735" lon="2.740054">
        <ele>111.923765</ele>
        <time>2019-08-22T15:35:00.820Z</time>
      </trkpt>
      <trkpt lat="42.636034" lon="2.741332">
        <ele>112.654395</ele>
        <time>2019-08-22T15:35:28.910Z</time>
      </trkpt>
      <trkpt lat="42.635729" lon="2.742122">
        <ele>113.114179</ele>
        <time>2019-08-22T15:35:44.205Z</time>
      </trkpt>
      <trkpt lat="42.635613" lon="2.743424">
        <ele>112.899125</ele>
        <time>2019-08-22T15:36:04.052Z</time>
      </trkpt>
      <trkpt lat="42.635549" lon="2.743593">
        <ele>112.848717</ele>
        <time>2019-08-22T15:36:06.734Z</time>
      </trkpt>
      <trkpt lat="42.634956" lon="2.744837">
        <ele>112.201833</ele>
        <time>2019-08-22T15:36:26.023Z</time>
      </trkpt>
      <trkpt lat="42.634638" lon="2.745318">
        <ele>111.585518</ele>
        <time>2019-08-22T15:36:33.943Z</time>
      </trkpt>
      <trkpt lat="42.634202" lon="2.747863">
        <ele>109.335268</ele>
        <time>2019-08-22T15:37:05.945Z</time>
      </trkpt>
      <trkpt lat="42.633826" lon="2.748847">
        <ele>108.503434</ele>
        <time>2019-08-22T15:37:20.591Z</time>
      </trkpt>
      <trkpt lat="42.633635" lon="2.749553">
        <ele>108.231923</ele>
        <time>2019-08-22T15:37:30.835Z</time>
      </trkpt>
      <trkpt lat="42.633615" lon="2.749627">
        <ele>108.211248</ele>
        <time>2019-08-22T15:37:31.942Z</time>
      </trkpt>
      <trkpt lat="42.633611" lon="2.749642">
        <ele>108.207064</ele>
        <time>2019-08-22T15:37:32.169Z</time>
      </trkpt>
      <trkpt lat="42.633595" lon="2.749704">
        <ele>108.189833</ele>
        <time>2019-08-22T15:37:33.102Z</time>
      </trkpt>
      <trkpt lat="42.633559" lon="2.749893">
        <ele>108.138633</ele>
        <time>2019-08-22T15:37:35.803Z</time>
      </trkpt>
      <trkpt lat="42.633520" lon="2.750110">
        <ele>108.080051</ele>
        <time>2019-08-22T15:37:38.885Z</time>
      </trkpt>
      <trkpt lat="42.633230" lon="2.751731">
        <ele>107.609394</ele>
        <time>2019-08-22T15:38:02.655Z</time>
      </trkpt>
      <trkpt lat="42.633153" lon="2.752021">
        <ele>107.503149</ele>
        <time>2019-08-22T15:38:07.009Z</time>
      </trkpt>
      <trkpt lat="42.632987" lon="2.752723">
        <ele>107.249046</ele>
        <time>2019-08-22T15:38:17.152Z</time>
      </trkpt>
      <trkpt lat="42.632890" lon="2.753170">
        <ele>107.088445</ele>
        <time>2019-08-22T15:38:23.643Z</time>
      </trkpt>
      <trkpt lat="42.632650" lon="2.753149">
        <ele>106.975796</ele>
        <time>2019-08-22T15:38:26.776Z</time>
      </trkpt>
      <trkpt lat="42.632535" lon="2.753156">
        <ele>106.921876</ele>
        <time>2019-08-22T15:38:28.317Z</time>
      </trkpt>
      <trkpt lat="42.632514" lon="2.753118">
        <ele>106.905270</ele>
        <time>2019-08-22T15:38:28.761Z</time>
      </trkpt>
      <trkpt lat="42.632469" lon="2.753104">
        <ele>106.851088</ele>
        <time>2019-08-22T15:38:29.354Z</time>
      </trkpt>
      <trkpt lat="42.632454" lon="2.753111">
        <ele>106.832474</ele>
        <time>2019-08-22T15:38:29.567Z</time>
      </trkpt>
      <trkpt lat="42.632444" lon="2.753119">
        <ele>106.818855</ele>
        <time>2019-08-22T15:38:29.708Z</time>
      </trkpt>
      <trkpt lat="42.632424" lon="2.753208">
        <ele>106.738498</ele>
        <time>2019-08-22T15:38:30.572Z</time>
      </trkpt>
      <trkpt lat="42.632429" lon="2.753223">
        <ele>106.724278</ele>
        <time>2019-08-22T15:38:30.725Z</time>
      </trkpt>
      <trkpt lat="42.632452" lon="2.753253">
        <ele>106.686864</ele>
        <time>2019-08-22T15:38:31.142Z</time>
      </trkpt>
      <trkpt lat="42.632410" lon="2.753385">
        <ele>106.562678</ele>
        <time>2019-08-22T15:38:33.102Z</time>
      </trkpt>
      <trkpt lat="42.632379" lon="2.753475">
        <ele>106.476867</ele>
        <time>2019-08-22T15:38:34.444Z</time>
      </trkpt>
      <trkpt lat="42.632360" lon="2.753532">
        <ele>106.422831</ele>
        <time>2019-08-22T15:38:35.203Z</time>
      </trkpt>
      <trkpt lat="42.632338" lon="2.753603">
        <ele>106.356306</ele>
        <time>2019-08-22T15:38:36.193Z</time>
      </trkpt>
      <trkpt lat="42.632321" lon="2.753664">
        <ele>106.299979</ele>
        <time>2019-08-22T15:38:37.030Z</time>
      </trkpt>
      <trkpt lat="42.632274" lon="2.753858">
        <ele>106.123610</ele>
        <time>2019-08-22T15:38:39.682Z</time>
      </trkpt>
      <trkpt lat="42.632196" lon="2.754179">
        <ele>105.831697</ele>
        <time>2019-08-22T15:38:43.900Z</time>
      </trkpt>
      <trkpt lat="42.632164" lon="2.754258">
        <ele>105.753824</ele>
        <time>2019-08-22T15:38:45.038Z</time>
      </trkpt>
      <trkpt lat="42.632137" lon="2.754323">
        <ele>105.689367</ele>
        <time>2019-08-22T15:38:45.978Z</time>
      </trkpt>
      <trkpt lat="42.632009" lon="2.754628">
        <ele>105.386161</ele>
        <time>2019-08-22T15:38:50.235Z</time>
      </trkpt>
      <trkpt lat="42.631759" lon="2.755234">
        <ele>104.784602</ele>
        <time>2019-08-22T15:38:58.593Z</time>
      </trkpt>
      <trkpt lat="42.631742" lon="2.755285">
        <ele>104.726909</ele>
        <time>2019-08-22T15:38:59.231Z</time>
      </trkpt>
      <trkpt lat="42.631684" lon="2.755479">
        <ele>104.511132</ele>
        <time>2019-08-22T15:39:01.749Z</time>
      </trkpt>
      <trkpt lat="42.631645" lon="2.755645">
        <ele>104.331572</ele>
        <time>2019-08-22T15:39:03.872Z</time>
      </trkpt>
      <trkpt lat="42.631608" lon="2.755798">
        <ele>104.165619</ele>
        <time>2019-08-22T15:39:05.765Z</time>
      </trkpt>
      <trkpt lat="42.631415" lon="2.756610">
        <ele>103.286332</ele>
        <time>2019-08-22T15:39:16.004Z</time>
      </trkpt>
      <trkpt lat="42.631283" lon="2.756847">
        <ele>102.980036</ele>
        <time>2019-08-22T15:39:19.625Z</time>
      </trkpt>
      <trkpt lat="42.631198" lon="2.757001">
        <ele>102.781658</ele>
        <time>2019-08-22T15:39:22.029Z</time>
      </trkpt>
      <trkpt lat="42.631176" lon="2.756999">
        <ele>102.750777</ele>
        <time>2019-08-22T15:39:22.368Z</time>
      </trkpt>
      <trkpt lat="42.631119" lon="2.757054">
        <ele>102.652873</ele>
        <time>2019-08-22T15:39:23.526Z</time>
      </trkpt>
      <trkpt lat="42.631125" lon="2.757147">
        <ele>102.556675</ele>
        <time>2019-08-22T15:39:24.738Z</time>
      </trkpt>
      <trkpt lat="42.631139" lon="2.757168">
        <ele>102.527474</ele>
        <time>2019-08-22T15:39:25.095Z</time>
      </trkpt>
      <trkpt lat="42.631088" lon="2.757221">
        <ele>102.437560</ele>
        <time>2019-08-22T15:39:26.230Z</time>
      </trkpt>
      <trkpt lat="42.631016" lon="2.757308">
        <ele>102.302632</ele>
        <time>2019-08-22T15:39:27.927Z</time>
      </trkpt>
      <trkpt lat="42.630940" lon="2.757407">
        <ele>102.220417</ele>
        <time>2019-08-22T15:39:29.782Z</time>
      </trkpt>
      <trkpt lat="42.630919" lon="2.757437">
        <ele>102.200885</ele>
        <time>2019-08-22T15:39:30.301Z</time>
      </trkpt>
      <trkpt lat="42.630821" lon="2.757585">
        <ele>102.106964</ele>
        <time>2019-08-22T15:39:33.008Z</time>
      </trkpt>
      <trkpt lat="42.630699" lon="2.757767">
        <ele>101.990826</ele>
        <time>2019-08-22T15:39:36.305Z</time>
      </trkpt>
      <trkpt lat="42.630674" lon="2.757802">
        <ele>101.967816</ele>
        <time>2019-08-22T15:39:36.959Z</time>
      </trkpt>
      <trkpt lat="42.630619" lon="2.757883">
        <ele>101.915824</ele>
        <time>2019-08-22T15:39:38.499Z</time>
      </trkpt>
      <trkpt lat="42.630489" lon="2.758072">
        <ele>101.793781</ele>
        <time>2019-08-22T15:39:42.016Z</time>
      </trkpt>
      <trkpt lat="42.630401" lon="2.758196">
        <ele>101.712514</ele>
        <time>2019-08-22T15:39:44.435Z</time>
      </trkpt>
      <trkpt lat="42.630280" lon="2.758387">
        <ele>101.593624</ele>
        <time>2019-08-22T15:39:47.811Z</time>
      </trkpt>
      <trkpt lat="42.629999" lon="2.758842">
        <ele>101.313410</ele>
        <time>2019-08-22T15:39:55.775Z</time>
      </trkpt>
      <trkpt lat="42.629929" lon="2.758944">
        <ele>101.247615</ele>
        <time>2019-08-22T15:39:57.649Z</time>
      </trkpt>
      <trkpt lat="42.629857" lon="2.759051">
        <ele>101.179217</ele>
        <time>2019-08-22T15:39:59.757Z</time>
      </trkpt>
      <trkpt lat="42.629426" lon="2.759847">
        <ele>100.648625</ele>
        <time>2019-08-22T15:40:13.138Z</time>
      </trkpt>
      <trkpt lat="42.629405" lon="2.759904">
        <ele>100.613824</ele>
        <time>2019-08-22T15:40:13.940Z</time>
      </trkpt>
      <trkpt lat="42.629404" lon="2.759984">
        <ele>100.570144</ele>
        <time>2019-08-22T15:40:14.913Z</time>
      </trkpt>
      <trkpt lat="42.629522" lon="2.760351">
        <ele>100.351495</ele>
        <time>2019-08-22T15:40:20.338Z</time>
      </trkpt>
      <trkpt lat="42.629567" lon="2.760477">
        <ele>100.275034</ele>
        <time>2019-08-22T15:40:22.060Z</time>
      </trkpt>
      <trkpt lat="42.629469" lon="2.760548">
        <ele>100.192633</ele>
        <time>2019-08-22T15:40:23.449Z</time>
      </trkpt>
      <trkpt lat="42.628731" lon="2.761209">
        <ele>99.610236</ele>
        <time>2019-08-22T15:40:34.529Z</time>
      </trkpt>
      <trkpt lat="42.628624" lon="2.761290">
        <ele>99.545944</ele>
        <time>2019-08-22T15:40:35.986Z</time>
      </trkpt>
      <trkpt lat="42.628598" lon="2.761279">
        <ele>99.531650</ele>
        <time>2019-08-22T15:40:36.344Z</time>
      </trkpt>
      <trkpt lat="42.628559" lon="2.761276">
        <ele>99.511145</ele>
        <time>2019-08-22T15:40:36.867Z</time>
      </trkpt>
      <trkpt lat="42.628507" lon="2.761297">
        <ele>99.482670</ele>
        <time>2019-08-22T15:40:37.632Z</time>
      </trkpt>
      <trkpt lat="42.628468" lon="2.761326">
        <ele>99.459334</ele>
        <time>2019-08-22T15:40:38.268Z</time>
      </trkpt>
      <trkpt lat="42.628447" lon="2.761394">
        <ele>99.430851</ele>
        <time>2019-08-22T15:40:39.034Z</time>
      </trkpt>
      <trkpt lat="42.628439" lon="2.761462">
        <ele>99.404255</ele>
        <time>2019-08-22T15:40:39.670Z</time>
      </trkpt>
      <trkpt lat="42.628451" lon="2.761529">
        <ele>99.377622</ele>
        <time>2019-08-22T15:40:40.299Z</time>
      </trkpt>
      <trkpt lat="42.628482" lon="2.761587">
        <ele>99.349935</ele>
        <time>2019-08-22T15:40:40.968Z</time>
      </trkpt>
      <trkpt lat="42.628528" lon="2.761624">
        <ele>99.321877</ele>
        <time>2019-08-22T15:40:41.668Z</time>
      </trkpt>
      <trkpt lat="42.628546" lon="2.761631">
        <ele>99.312049</ele>
        <time>2019-08-22T15:40:41.927Z</time>
      </trkpt>
      <trkpt lat="42.628540" lon="2.761746">
        <ele>99.267522</ele>
        <time>2019-08-22T15:40:43.620Z</time>
      </trkpt>
      <trkpt lat="42.628334" lon="2.762004">
        <ele>99.120477</ele>
        <time>2019-08-22T15:40:48.963Z</time>
      </trkpt>
      <trkpt lat="42.627345" lon="2.763835">
        <ele>98.653838</ele>
        <time>2019-08-22T15:41:20.797Z</time>
      </trkpt>
      <trkpt lat="42.627258" lon="2.764210">
        <ele>98.605842</ele>
        <time>2019-08-22T15:41:26.532Z</time>
      </trkpt>
      <trkpt lat="42.627197" lon="2.764324">
        <ele>98.588636</ele>
        <time>2019-08-22T15:41:28.543Z</time>
      </trkpt>
      <trkpt lat="42.627169" lon="2.764369">
        <ele>98.581443</ele>
        <time>2019-08-22T15:41:29.419Z</time>
      </trkpt>
      <trkpt lat="42.627125" lon="2.764437">
        <ele>98.570389</ele>
        <time>2019-08-22T15:41:30.779Z</time>
      </trkpt>
      <trkpt lat="42.626897" lon="2.764697">
        <ele>98.621670</ele>
        <time>2019-08-22T15:41:37.169Z</time>
      </trkpt>
      <trkpt lat="42.626488" lon="2.765458">
        <ele>98.985512</ele>
        <time>2019-08-22T15:41:52.321Z</time>
      </trkpt>
      <trkpt lat="42.626156" lon="2.766060">
        <ele>99.275974</ele>
        <time>2019-08-22T15:42:04.934Z</time>
      </trkpt>
      <trkpt lat="42.626045" lon="2.766274">
        <ele>99.377062</ele>
        <time>2019-08-22T15:42:09.477Z</time>
      </trkpt>
      <trkpt lat="42.625863" lon="2.766677">
        <ele>99.608983</ele>
        <time>2019-08-22T15:42:17.615Z</time>
      </trkpt>
      <trkpt lat="42.625635" lon="2.767134">
        <ele>99.971105</ele>
        <time>2019-08-22T15:42:27.244Z</time>
      </trkpt>
      <trkpt lat="42.625597" lon="2.767198">
        <ele>100.025040</ele>
        <time>2019-08-22T15:42:28.727Z</time>
      </trkpt>
      <trkpt lat="42.625269" lon="2.767785">
        <ele>100.508448</ele>
        <time>2019-08-22T15:42:41.797Z</time>
      </trkpt>
      <trkpt lat="42.624853" lon="2.768548">
        <ele>101.148857</ele>
        <time>2019-08-22T15:42:58.488Z</time>
      </trkpt>
      <trkpt lat="42.624830" lon="2.768604">
        <ele>101.209849</ele>
        <time>2019-08-22T15:42:59.573Z</time>
      </trkpt>
      <trkpt lat="42.624792" lon="2.768558">
        <ele>101.275622</ele>
        <time>2019-08-22T15:43:00.850Z</time>
      </trkpt>
      <trkpt lat="42.624800" lon="2.768534">
        <ele>101.300680</ele>
        <time>2019-08-22T15:43:01.221Z</time>
      </trkpt>
      <trkpt lat="42.624803" lon="2.768509">
        <ele>101.324769</ele>
        <time>2019-08-22T15:43:01.575Z</time>
      </trkpt>
      <trkpt lat="42.624801" lon="2.768485">
        <ele>101.347740</ele>
        <time>2019-08-22T15:43:01.918Z</time>
      </trkpt>
      <trkpt lat="42.624758" lon="2.768415">
        <ele>101.434461</ele>
        <time>2019-08-22T15:43:03.131Z</time>
      </trkpt>
      <trkpt lat="42.624741" lon="2.768408">
        <ele>101.457420</ele>
        <time>2019-08-22T15:43:03.470Z</time>
      </trkpt>
      <trkpt lat="42.624725" lon="2.768407">
        <ele>101.478122</ele>
        <time>2019-08-22T15:43:03.771Z</time>
      </trkpt>
      <trkpt lat="42.624709" lon="2.768411">
        <ele>101.499149</ele>
        <time>2019-08-22T15:43:04.071Z</time>
      </trkpt>
      <trkpt lat="42.624601" lon="2.768382">
        <ele>101.641436</ele>
        <time>2019-08-22T15:43:06.615Z</time>
      </trkpt>
      <trkpt lat="42.624556" lon="2.768383">
        <ele>101.699606</ele>
        <time>2019-08-22T15:43:07.689Z</time>
      </trkpt>
      <trkpt lat="42.624500" lon="2.768365">
        <ele>101.773983</ele>
        <time>2019-08-22T15:43:09.119Z</time>
      </trkpt>
      <trkpt lat="42.624434" lon="2.768356">
        <ele>101.859716</ele>
        <time>2019-08-22T15:43:10.686Z</time>
      </trkpt>
      <trkpt lat="42.624338" lon="2.768351">
        <ele>101.983886</ele>
        <time>2019-08-22T15:43:13.032Z</time>
      </trkpt>
      <trkpt lat="42.623619" lon="2.768311">
        <ele>102.913968</ele>
        <time>2019-08-22T15:43:31.342Z</time>
      </trkpt>
      <trkpt lat="42.623003" lon="2.768271">
        <ele>103.823987</ele>
        <time>2019-08-22T15:43:48.100Z</time>
      </trkpt>
      <trkpt lat="42.622889" lon="2.768265">
        <ele>104.028057</ele>
        <time>2019-08-22T15:43:51.287Z</time>
      </trkpt>
      <trkpt lat="42.622798" lon="2.768230">
        <ele>104.197226</ele>
        <time>2019-08-22T15:43:53.897Z</time>
      </trkpt>
      <trkpt lat="42.622671" lon="2.768115">
        <ele>104.470206</ele>
        <time>2019-08-22T15:43:58.099Z</time>
      </trkpt>
      <trkpt lat="42.622001" lon="2.767509">
        <ele>105.909833</ele>
        <time>2019-08-22T15:44:20.370Z</time>
      </trkpt>
      <trkpt lat="42.621973" lon="2.767558">
        <ele>105.991491</ele>
        <time>2019-08-22T15:44:21.665Z</time>
      </trkpt>
      <trkpt lat="42.621802" lon="2.767711">
        <ele>106.357709</ele>
        <time>2019-08-22T15:44:27.213Z</time>
      </trkpt>
      <trkpt lat="42.621633" lon="2.767827">
        <ele>106.693842</ele>
        <time>2019-08-22T15:44:32.462Z</time>
      </trkpt>
      <trkpt lat="42.621406" lon="2.767986">
        <ele>107.132006</ele>
        <time>2019-08-22T15:44:39.411Z</time>
      </trkpt>
      <trkpt lat="42.621092" lon="2.768235">
        <ele>107.755766</ele>
        <time>2019-08-22T15:44:49.162Z</time>
      </trkpt>
      <trkpt lat="42.621007" lon="2.768378">
        <ele>107.987853</ele>
        <time>2019-08-22T15:44:52.606Z</time>
      </trkpt>
      <trkpt lat="42.620951" lon="2.768537">
        <ele>108.210405</ele>
        <time>2019-08-22T15:44:56.065Z</time>
      </trkpt>
      <trkpt lat="42.620934" lon="2.768526">
        <ele>108.242710</ele>
        <time>2019-08-22T15:44:56.500Z</time>
      </trkpt>
      <trkpt lat="42.620884" lon="2.768536">
        <ele>108.329422</ele>
        <time>2019-08-22T15:44:57.620Z</time>
      </trkpt>
      <trkpt lat="42.620859" lon="2.768572">
        <ele>108.391918</ele>
        <time>2019-08-22T15:44:58.376Z</time>
      </trkpt>
      <trkpt lat="42.620648" lon="2.768436">
        <ele>108.792597</ele>
        <time>2019-08-22T15:45:03.449Z</time>
      </trkpt>
      <trkpt lat="42.620560" lon="2.768380">
        <ele>108.959317</ele>
        <time>2019-08-22T15:45:05.622Z</time>
      </trkpt>
      <trkpt lat="42.620309" lon="2.768298">
        <ele>109.402240</ele>
        <time>2019-08-22T15:45:11.244Z</time>
      </trkpt>
      <trkpt lat="42.619960" lon="2.768294">
        <ele>110.046057</ele>
        <time>2019-08-22T15:45:18.798Z</time>
      </trkpt>
      <trkpt lat="42.619943" lon="2.768294">
        <ele>110.079899</ele>
        <time>2019-08-22T15:45:19.313Z</time>
      </trkpt>
      <trkpt lat="42.619605" lon="2.768339">
        <ele>110.755978</ele>
        <time>2019-08-22T15:45:26.533Z</time>
      </trkpt>
      <trkpt lat="42.619393" lon="2.768395">
        <ele>111.185906</ele>
        <time>2019-08-22T15:45:31.282Z</time>
      </trkpt>
      <trkpt lat="42.619269" lon="2.768420">
        <ele>111.435455</ele>
        <time>2019-08-22T15:45:34.077Z</time>
      </trkpt>
      <trkpt lat="42.618719" lon="2.768604">
        <ele>112.563032</ele>
        <time>2019-08-22T15:45:47.214Z</time>
      </trkpt>
      <trkpt lat="42.618709" lon="2.768572">
        <ele>112.613961</ele>
        <time>2019-08-22T15:45:47.751Z</time>
      </trkpt>
      <trkpt lat="42.618669" lon="2.768533">
        <ele>112.711965</ele>
        <time>2019-08-22T15:45:48.944Z</time>
      </trkpt>
      <trkpt lat="42.618641" lon="2.768533">
        <ele>112.767704</ele>
        <time>2019-08-22T15:45:49.581Z</time>
      </trkpt>
      <trkpt lat="42.618619" lon="2.768546">
        <ele>112.815461</ele>
        <time>2019-08-22T15:45:50.235Z</time>
      </trkpt>
      <trkpt lat="42.618591" lon="2.768599">
        <ele>112.911038</ele>
        <time>2019-08-22T15:45:51.346Z</time>
      </trkpt>
      <trkpt lat="42.618592" lon="2.768643">
        <ele>112.975525</ele>
        <time>2019-08-22T15:45:52.294Z</time>
      </trkpt>
      <trkpt lat="42.618097" lon="2.768796">
        <ele>114.078310</ele>
        <time>2019-08-22T15:46:04.396Z</time>
      </trkpt>
      <trkpt lat="42.618028" lon="2.768815">
        <ele>114.237321</ele>
        <time>2019-08-22T15:46:06.043Z</time>
      </trkpt>
      <trkpt lat="42.617917" lon="2.768846">
        <ele>114.493265</ele>
        <time>2019-08-22T15:46:09.118Z</time>
      </trkpt>
      <trkpt lat="42.617540" lon="2.768954">
        <ele>115.363472</ele>
        <time>2019-08-22T15:46:18.099Z</time>
      </trkpt>
      <trkpt lat="42.617211" lon="2.769049">
        <ele>116.123142</ele>
        <time>2019-08-22T15:46:25.847Z</time>
      </trkpt>
      <trkpt lat="42.616935" lon="2.769098">
        <ele>116.751813</ele>
        <time>2019-08-22T15:46:32.106Z</time>
      </trkpt>
      <trkpt lat="42.616884" lon="2.769099">
        <ele>116.867013</ele>
        <time>2019-08-22T15:46:33.548Z</time>
      </trkpt>
      <trkpt lat="42.616878" lon="2.769058">
        <ele>116.936494</ele>
        <time>2019-08-22T15:46:34.266Z</time>
      </trkpt>
      <trkpt lat="42.616799" lon="2.768990">
        <ele>117.147707</ele>
        <time>2019-08-22T15:46:36.443Z</time>
      </trkpt>
      <trkpt lat="42.616781" lon="2.768994">
        <ele>117.188902</ele>
        <time>2019-08-22T15:46:36.922Z</time>
      </trkpt>
      <trkpt lat="42.616764" lon="2.769003">
        <ele>117.230109</ele>
        <time>2019-08-22T15:46:37.389Z</time>
      </trkpt>
      <trkpt lat="42.616725" lon="2.769063">
        <ele>117.363167</ele>
        <time>2019-08-22T15:46:38.831Z</time>
      </trkpt>
      <trkpt lat="42.616721" lon="2.769090">
        <ele>117.423242</ele>
        <time>2019-08-22T15:46:39.346Z</time>
      </trkpt>
      <trkpt lat="42.615740" lon="2.769050">
        <ele>120.333390</ele>
        <time>2019-08-22T15:47:04.275Z</time>
      </trkpt>
      <trkpt lat="42.615556" lon="2.769048">
        <ele>120.879000</ele>
        <time>2019-08-22T15:47:09.212Z</time>
      </trkpt>
      <trkpt lat="42.615447" lon="2.769047">
        <ele>121.202212</ele>
        <time>2019-08-22T15:47:12.344Z</time>
      </trkpt>
      <trkpt lat="42.615283" lon="2.769050">
        <ele>121.688545</ele>
        <time>2019-08-22T15:47:16.892Z</time>
      </trkpt>
      <trkpt lat="42.614781" lon="2.769146">
        <ele>123.394110</ele>
        <time>2019-08-22T15:47:30.805Z</time>
      </trkpt>
      <trkpt lat="42.614636" lon="2.769226">
        <ele>124.047793</ele>
        <time>2019-08-22T15:47:36.204Z</time>
      </trkpt>
      <trkpt lat="42.614410" lon="2.769365">
        <ele>125.083989</ele>
        <time>2019-08-22T15:47:44.254Z</time>
      </trkpt>
      <trkpt lat="42.613483" lon="2.769973">
        <ele>129.383523</ele>
        <time>2019-08-22T15:48:18.185Z</time>
      </trkpt>
      <trkpt lat="42.613310" lon="2.770058">
        <ele>130.151931</ele>
        <time>2019-08-22T15:48:24.572Z</time>
      </trkpt>
      <trkpt lat="42.613109" lon="2.770025">
        <ele>130.718304</ele>
        <time>2019-08-22T15:48:30.752Z</time>
      </trkpt>
      <trkpt lat="42.612809" lon="2.769799">
        <ele>131.643350</ele>
        <time>2019-08-22T15:48:40.152Z</time>
      </trkpt>
      <trkpt lat="42.612615" lon="2.769640">
        <ele>132.254323</ele>
        <time>2019-08-22T15:48:46.556Z</time>
      </trkpt>
      <trkpt lat="42.612344" lon="2.769424">
        <ele>133.101598</ele>
        <time>2019-08-22T15:48:54.667Z</time>
      </trkpt>
      <trkpt lat="42.612121" lon="2.769354">
        <ele>133.718814</ele>
        <time>2019-08-22T15:49:00.093Z</time>
      </trkpt>
      <trkpt lat="42.611696" lon="2.769418">
        <ele>134.871954</ele>
        <time>2019-08-22T15:49:09.810Z</time>
      </trkpt>
      <trkpt lat="42.610557" lon="2.770063">
        <ele>135.729924</ele>
        <time>2019-08-22T15:49:31.286Z</time>
      </trkpt>
      <trkpt lat="42.610496" lon="2.770097">
        <ele>135.767865</ele>
        <time>2019-08-22T15:49:32.368Z</time>
      </trkpt>
      <trkpt lat="42.610133" lon="2.770300">
        <ele>135.993755</ele>
        <time>2019-08-22T15:49:38.662Z</time>
      </trkpt>
      <trkpt lat="42.609877" lon="2.770448">
        <ele>135.958906</ele>
        <time>2019-08-22T15:49:43.013Z</time>
      </trkpt>
      <trkpt lat="42.609723" lon="2.770521">
        <ele>135.741922</ele>
        <time>2019-08-22T15:49:45.294Z</time>
      </trkpt>
      <trkpt lat="42.609173" lon="2.770830">
        <ele>134.950143</ele>
        <time>2019-08-22T15:49:52.801Z</time>
      </trkpt>
      <trkpt lat="42.608954" lon="2.770943">
        <ele>134.638494</ele>
        <time>2019-08-22T15:49:55.574Z</time>
      </trkpt>
      <trkpt lat="42.608585" lon="2.771146">
        <ele>134.108880</ele>
        <time>2019-08-22T15:50:00.190Z</time>
      </trkpt>
      <trkpt lat="42.608433" lon="2.771230">
        <ele>133.890579</ele>
        <time>2019-08-22T15:50:01.990Z</time>
      </trkpt>
      <trkpt lat="42.608230" lon="2.771362">
        <ele>133.272042</ele>
        <time>2019-08-22T15:50:04.374Z</time>
      </trkpt>
      <trkpt lat="42.608111" lon="2.771455">
        <ele>132.564180</ele>
        <time>2019-08-22T15:50:05.711Z</time>
      </trkpt>
      <trkpt lat="42.608161" lon="2.771692">
        <ele>131.628536</ele>
        <time>2019-08-22T15:50:07.480Z</time>
      </trkpt>
      <trkpt lat="42.608240" lon="2.772129">
        <ele>129.920813</ele>
        <time>2019-08-22T15:50:10.555Z</time>
      </trkpt>
      <trkpt lat="42.608271" lon="2.772310">
        <ele>129.215559</ele>
        <time>2019-08-22T15:50:11.830Z</time>
      </trkpt>
      <trkpt lat="42.608262" lon="2.772429">
        <ele>128.761573</ele>
        <time>2019-08-22T15:50:12.631Z</time>
      </trkpt>
      <trkpt lat="42.608202" lon="2.772757">
        <ele>127.478933</ele>
        <time>2019-08-22T15:50:14.934Z</time>
      </trkpt>
      <trkpt lat="42.608101" lon="2.772916">
        <ele>126.681862</ele>
        <time>2019-08-22T15:50:16.333Z</time>
      </trkpt>
      <trkpt lat="42.608035" lon="2.772950">
        <ele>126.317906</ele>
        <time>2019-08-22T15:50:16.972Z</time>
      </trkpt>
      <trkpt lat="42.607441" lon="2.773150">
        <ele>123.103780</ele>
        <time>2019-08-22T15:50:22.580Z</time>
      </trkpt>
      <trkpt lat="42.607329" lon="2.773252">
        <ele>122.376321</ele>
        <time>2019-08-22T15:50:23.810Z</time>
      </trkpt>
      <trkpt lat="42.607253" lon="2.773388">
        <ele>121.698245</ele>
        <time>2019-08-22T15:50:24.989Z</time>
      </trkpt>
      <trkpt lat="42.607040" lon="2.774541">
        <ele>116.977692</ele>
        <time>2019-08-22T15:50:33.016Z</time>
      </trkpt>
      <trkpt lat="42.606927" lon="2.774777">
        <ele>115.859683</ele>
        <time>2019-08-22T15:50:34.953Z</time>
      </trkpt>
      <trkpt lat="42.606625" lon="2.775053">
        <ele>114.552785</ele>
        <time>2019-08-22T15:50:38.551Z</time>
      </trkpt>
      <trkpt lat="42.606137" lon="2.775094">
        <ele>114.008100</ele>
        <time>2019-08-22T15:50:43.895Z</time>
      </trkpt>
      <trkpt lat="42.605671" lon="2.775093">
        <ele>113.488962</ele>
        <time>2019-08-22T15:50:49.318Z</time>
      </trkpt>
      <trkpt lat="42.605394" lon="2.775108">
        <ele>113.180131</ele>
        <time>2019-08-22T15:50:52.819Z</time>
      </trkpt>
      <trkpt lat="42.604872" lon="2.775118">
        <ele>113.083877</ele>
        <time>2019-08-22T15:51:03.081Z</time>
      </trkpt>
      <trkpt lat="42.603971" lon="2.775470">
        <ele>116.214876</ele>
        <time>2019-08-22T15:51:28.570Z</time>
      </trkpt>
      <trkpt lat="42.603798" lon="2.775493">
        <ele>116.795403</ele>
        <time>2019-08-22T15:51:34.273Z</time>
      </trkpt>
      <trkpt lat="42.603559" lon="2.775340">
        <ele>117.677761</ele>
        <time>2019-08-22T15:51:43.199Z</time>
      </trkpt>
      <trkpt lat="42.602662" lon="2.774588">
        <ele>121.211939</ele>
        <time>2019-08-22T15:52:17.813Z</time>
      </trkpt>
      <trkpt lat="42.601927" lon="2.773237">
        <ele>124.829213</ele>
        <time>2019-08-22T15:52:50.383Z</time>
      </trkpt>
      <trkpt lat="42.601715" lon="2.773169">
        <ele>124.904351</ele>
        <time>2019-08-22T15:52:54.277Z</time>
      </trkpt>
      <trkpt lat="42.601158" lon="2.773174">
        <ele>125.096487</ele>
        <time>2019-08-22T15:53:03.109Z</time>
      </trkpt>
      <trkpt lat="42.600874" lon="2.773163">
        <ele>125.194491</ele>
        <time>2019-08-22T15:53:07.035Z</time>
      </trkpt>
      <trkpt lat="42.600244" lon="2.773169">
        <ele>125.384413</ele>
        <time>2019-08-22T15:53:15.079Z</time>
      </trkpt>
      <trkpt lat="42.599804" lon="2.773233">
        <ele>125.359209</ele>
        <time>2019-08-22T15:53:20.676Z</time>
      </trkpt>
      <trkpt lat="42.599298" lon="2.773430">
        <ele>125.329228</ele>
        <time>2019-08-22T15:53:27.321Z</time>
      </trkpt>
      <trkpt lat="42.597923" lon="2.774758">
        <ele>126.761407</ele>
        <time>2019-08-22T15:53:58.021Z</time>
      </trkpt>
      <trkpt lat="42.597180" lon="2.775193">
        <ele>128.051346</ele>
        <time>2019-08-22T15:54:17.211Z</time>
      </trkpt>
      <trkpt lat="42.596118" lon="2.775854">
        <ele>130.742008</ele>
        <time>2019-08-22T15:54:46.994Z</time>
      </trkpt>
      <trkpt lat="42.595898" lon="2.775991">
        <ele>131.309406</ele>
        <time>2019-08-22T15:54:53.363Z</time>
      </trkpt>
      <trkpt lat="42.594135" lon="2.776960">
        <ele>133.875818</ele>
        <time>2019-08-22T15:55:33.976Z</time>
      </trkpt>
      <trkpt lat="42.593876" lon="2.777113">
        <ele>134.169186</ele>
        <time>2019-08-22T15:55:37.818Z</time>
      </trkpt>
      <trkpt lat="42.593807" lon="2.777144">
        <ele>134.226189</ele>
        <time>2019-08-22T15:55:38.878Z</time>
      </trkpt>
      <trkpt lat="42.593741" lon="2.777173">
        <ele>134.075432</ele>
        <time>2019-08-22T15:55:39.600Z</time>
      </trkpt>
      <trkpt lat="42.593426" lon="2.777278">
        <ele>133.370527</ele>
        <time>2019-08-22T15:55:43.784Z</time>
      </trkpt>
      <trkpt lat="42.591919" lon="2.777286">
        <ele>130.033506</ele>
        <time>2019-08-22T15:55:59.404Z</time>
      </trkpt>
      <trkpt lat="42.591747" lon="2.777316">
        <ele>129.557233</ele>
        <time>2019-08-22T15:56:01.162Z</time>
      </trkpt>
      <trkpt lat="42.591719" lon="2.777321">
        <ele>129.479670</ele>
        <time>2019-08-22T15:56:01.413Z</time>
      </trkpt>
      <trkpt lat="42.589154" lon="2.779356">
        <ele>121.991836</ele>
        <time>2019-08-22T15:56:32.579Z</time>
      </trkpt>
      <trkpt lat="42.588957" lon="2.779667">
        <ele>121.298987</ele>
        <time>2019-08-22T15:56:36.016Z</time>
      </trkpt>
      <trkpt lat="42.588579" lon="2.780693">
        <ele>120.603868</ele>
        <time>2019-08-22T15:56:46.300Z</time>
      </trkpt>
      <trkpt lat="42.588478" lon="2.780812">
        <ele>120.497455</ele>
        <time>2019-08-22T15:56:48.392Z</time>
      </trkpt>
      <trkpt lat="42.588271" lon="2.780934">
        <ele>120.317865</ele>
        <time>2019-08-22T15:56:51.197Z</time>
      </trkpt>
      <trkpt lat="42.588150" lon="2.781006">
        <ele>120.212727</ele>
        <time>2019-08-22T15:56:53.330Z</time>
      </trkpt>
      <trkpt lat="42.587204" lon="2.781438">
        <ele>119.979399</ele>
        <time>2019-08-22T15:57:06.604Z</time>
      </trkpt>
      <trkpt lat="42.586738" lon="2.781658">
        <ele>120.118727</ele>
        <time>2019-08-22T15:57:14.364Z</time>
      </trkpt>
      <trkpt lat="42.586478" lon="2.781797">
        <ele>120.197638</ele>
        <time>2019-08-22T15:57:19.179Z</time>
      </trkpt>
      <trkpt lat="42.586257" lon="2.781917">
        <ele>120.264854</ele>
        <time>2019-08-22T15:57:23.281Z</time>
      </trkpt>
      <trkpt lat="42.586175" lon="2.781961">
        <ele>120.289754</ele>
        <time>2019-08-22T15:57:25.000Z</time>
      </trkpt>
      <trkpt lat="42.586021" lon="2.782012">
        <ele>120.334520</ele>
        <time>2019-08-22T15:57:27.893Z</time>
      </trkpt>
      <trkpt lat="42.585579" lon="2.782098">
        <ele>120.752098</ele>
        <time>2019-08-22T15:57:36.928Z</time>
      </trkpt>
      <trkpt lat="42.584268" lon="2.782192">
        <ele>122.022010</ele>
        <time>2019-08-22T15:58:01.448Z</time>
      </trkpt>
      <trkpt lat="42.584185" lon="2.782185">
        <ele>122.080437</ele>
        <time>2019-08-22T15:58:03.486Z</time>
      </trkpt>
      <trkpt lat="42.584114" lon="2.782417">
        <ele>122.081690</ele>
        <time>2019-08-22T15:58:06.365Z</time>
      </trkpt>
      <trkpt lat="42.583991" lon="2.782700">
        <ele>122.083328</ele>
        <time>2019-08-22T15:58:10.685Z</time>
      </trkpt>
      <trkpt lat="42.583911" lon="2.782933">
        <ele>122.084610</ele>
        <time>2019-08-22T15:58:13.432Z</time>
      </trkpt>
      <trkpt lat="42.583848" lon="2.783080">
        <ele>122.085458</ele>
        <time>2019-08-22T15:58:15.766Z</time>
      </trkpt>
      <trkpt lat="42.583911" lon="2.784503">
        <ele>122.092843</ele>
        <time>2019-08-22T15:58:29.743Z</time>
      </trkpt>
      <trkpt lat="42.583885" lon="2.784727">
        <ele>122.096992</ele>
        <time>2019-08-22T15:58:31.739Z</time>
      </trkpt>
      <trkpt lat="42.583868" lon="2.784870">
        <ele>122.099642</ele>
        <time>2019-08-22T15:58:33.382Z</time>
      </trkpt>
      <trkpt lat="42.583796" lon="2.785072">
        <ele>122.103747</ele>
        <time>2019-08-22T15:58:35.416Z</time>
      </trkpt>
      <trkpt lat="42.583424" lon="2.785587">
        <ele>122.116946</ele>
        <time>2019-08-22T15:58:43.574Z</time>
      </trkpt>
      <trkpt lat="42.583216" lon="2.786314">
        <ele>122.131215</ele>
        <time>2019-08-22T15:58:52.687Z</time>
      </trkpt>
      <trkpt lat="42.583067" lon="2.786555">
        <ele>122.136973</ele>
        <time>2019-08-22T15:58:56.818Z</time>
      </trkpt>
      <trkpt lat="42.582883" lon="2.786670">
        <ele>122.044719</ele>
        <time>2019-08-22T15:59:00.277Z</time>
      </trkpt>
      <trkpt lat="42.582391" lon="2.786705">
        <ele>121.811573</ele>
        <time>2019-08-22T15:59:08.316Z</time>
      </trkpt>
      <trkpt lat="42.582254" lon="2.786839">
        <ele>121.731678</ele>
        <time>2019-08-22T15:59:10.890Z</time>
      </trkpt>
      <trkpt lat="42.582214" lon="2.787116">
        <ele>121.633322</ele>
        <time>2019-08-22T15:59:13.678Z</time>
      </trkpt>
      <trkpt lat="42.582253" lon="2.787667">
        <ele>121.440447</ele>
        <time>2019-08-22T15:59:18.559Z</time>
      </trkpt>
      <trkpt lat="42.582632" lon="2.788630">
        <ele>120.383881</ele>
        <time>2019-08-22T15:59:27.674Z</time>
      </trkpt>
      <trkpt lat="42.582683" lon="2.788760">
        <ele>120.179022</ele>
        <time>2019-08-22T15:59:28.907Z</time>
      </trkpt>
      <trkpt lat="42.582730" lon="2.788961">
        <ele>119.885724</ele>
        <time>2019-08-22T15:59:30.734Z</time>
      </trkpt>
      <trkpt lat="42.582740" lon="2.789003">
        <ele>119.824334</ele>
        <time>2019-08-22T15:59:31.025Z</time>
      </trkpt>
      <trkpt lat="42.582915" lon="2.790729">
        <ele>117.493701</ele>
        <time>2019-08-22T15:59:45.063Z</time>
      </trkpt>
      <trkpt lat="42.582862" lon="2.792317">
        <ele>115.702261</ele>
        <time>2019-08-22T15:59:58.663Z</time>
      </trkpt>
      <trkpt lat="42.582887" lon="2.792540">
        <ele>115.448054</ele>
        <time>2019-08-22T16:00:00.636Z</time>
      </trkpt>
      <trkpt lat="42.583126" lon="2.793178">
        <ele>114.705110</ele>
        <time>2019-08-22T16:00:06.920Z</time>
      </trkpt>
      <trkpt lat="42.583556" lon="2.794653">
        <ele>113.147887</ele>
        <time>2019-08-22T16:00:20.703Z</time>
      </trkpt>
      <trkpt lat="42.583862" lon="2.797999">
        <ele>109.675888</ele>
        <time>2019-08-22T16:00:49.437Z</time>
      </trkpt>
      <trkpt lat="42.584105" lon="2.799267">
        <ele>108.451450</ele>
        <time>2019-08-22T16:01:00.892Z</time>
      </trkpt>
      <trkpt lat="42.584132" lon="2.799734">
        <ele>108.013692</ele>
        <time>2019-08-22T16:01:05.057Z</time>
      </trkpt>
      <trkpt lat="42.584036" lon="2.801123">
        <ele>106.887293</ele>
        <time>2019-08-22T16:01:17.594Z</time>
      </trkpt>
      <trkpt lat="42.584185" lon="2.801690">
        <ele>106.410649</ele>
        <time>2019-08-22T16:01:23.038Z</time>
      </trkpt>
      <trkpt lat="42.584858" lon="2.803195">
        <ele>104.911009</ele>
        <time>2019-08-22T16:01:38.565Z</time>
      </trkpt>
      <trkpt lat="42.584951" lon="2.803758">
        <ele>104.401782</ele>
        <time>2019-08-22T16:01:43.596Z</time>
      </trkpt>
      <trkpt lat="42.584983" lon="2.804076">
        <ele>104.118522</ele>
        <time>2019-08-22T16:01:46.351Z</time>
      </trkpt>
      <trkpt lat="42.585592" lon="2.806390">
        <ele>102.493057</ele>
        <time>2019-08-22T16:02:08.111Z</time>
      </trkpt>
      <trkpt lat="42.585821" lon="2.809013">
        <ele>103.302774</ele>
        <time>2019-08-22T16:02:39.851Z</time>
      </trkpt>
      <trkpt lat="42.585879" lon="2.809588">
        <ele>104.370967</ele>
        <time>2019-08-22T16:02:49.898Z</time>
      </trkpt>
      <trkpt lat="42.585679" lon="2.809634">
        <ele>105.035944</ele>
        <time>2019-08-22T16:02:56.307Z</time>
      </trkpt>
      <trkpt lat="42.583905" lon="2.810288">
        <ele>111.249308</ele>
        <time>2019-08-22T16:04:02.342Z</time>
      </trkpt>
      <trkpt lat="42.583746" lon="2.810296">
        <ele>111.825652</ele>
        <time>2019-08-22T16:04:08.168Z</time>
      </trkpt>
      <trkpt lat="42.583181" lon="2.809958">
        <ele>114.062001</ele>
        <time>2019-08-22T16:04:30.103Z</time>
      </trkpt>
      <trkpt lat="42.582889" lon="2.809909">
        <ele>115.127760</ele>
        <time>2019-08-22T16:04:40.026Z</time>
      </trkpt>
      <trkpt lat="42.581960" lon="2.810345">
        <ele>117.474157</ele>
        <time>2019-08-22T16:05:10.632Z</time>
      </trkpt>
      <trkpt lat="42.581375" lon="2.810947">
        <ele>119.018363</ele>
        <time>2019-08-22T16:05:30.643Z</time>
      </trkpt>
      <trkpt lat="42.581314" lon="2.811001">
        <ele>119.171559</ele>
        <time>2019-08-22T16:05:32.259Z</time>
      </trkpt>
      <trkpt lat="42.581046" lon="2.811251">
        <ele>119.682649</ele>
        <time>2019-08-22T16:05:40.700Z</time>
      </trkpt>
      <trkpt lat="42.580039" lon="2.812297">
        <ele>120.698688</ele>
        <time>2019-08-22T16:06:09.726Z</time>
      </trkpt>
      <trkpt lat="42.579940" lon="2.812433">
        <ele>120.811543</ele>
        <time>2019-08-22T16:06:12.852Z</time>
      </trkpt>
      <trkpt lat="42.578999" lon="2.812437">
        <ele>121.104788</ele>
        <time>2019-08-22T16:06:29.333Z</time>
      </trkpt>
      <trkpt lat="42.578853" lon="2.812430">
        <ele>121.123391</ele>
        <time>2019-08-22T16:06:31.498Z</time>
      </trkpt>
      <trkpt lat="42.578374" lon="2.812418">
        <ele>121.184396</ele>
        <time>2019-08-22T16:06:39.054Z</time>
      </trkpt>
      <trkpt lat="42.578292" lon="2.812372">
        <ele>121.195694</ele>
        <time>2019-08-22T16:06:40.456Z</time>
      </trkpt>
      <trkpt lat="42.578270" lon="2.812378">
        <ele>121.198551</ele>
        <time>2019-08-22T16:06:41.221Z</time>
      </trkpt>
      <trkpt lat="42.578140" lon="2.812215">
        <ele>121.221082</ele>
        <time>2019-08-22T16:06:43.379Z</time>
      </trkpt>
      <trkpt lat="42.578010" lon="2.811958">
        <ele>121.178479</ele>
        <time>2019-08-22T16:06:46.927Z</time>
      </trkpt>
      <trkpt lat="42.577899" lon="2.811670">
        <ele>120.593984</ele>
        <time>2019-08-22T16:06:49.684Z</time>
      </trkpt>
      <trkpt lat="42.577867" lon="2.811644">
        <ele>120.502927</ele>
        <time>2019-08-22T16:06:50.255Z</time>
      </trkpt>
      <trkpt lat="42.577785" lon="2.811541">
        <ele>120.230174</ele>
        <time>2019-08-22T16:06:51.412Z</time>
      </trkpt>
      <trkpt lat="42.577568" lon="2.811295">
        <ele>119.539931</ele>
        <time>2019-08-22T16:06:54.822Z</time>
      </trkpt>
      <trkpt lat="42.577199" lon="2.811196">
        <ele>118.621465</ele>
        <time>2019-08-22T16:06:58.899Z</time>
      </trkpt>
      <trkpt lat="42.576815" lon="2.811216">
        <ele>117.683098</ele>
        <time>2019-08-22T16:07:02.857Z</time>
      </trkpt>
      <trkpt lat="42.576772" lon="2.811243">
        <ele>117.567417</ele>
        <time>2019-08-22T16:07:03.282Z</time>
      </trkpt>
      <trkpt lat="42.576738" lon="2.811248">
        <ele>117.483908</ele>
        <time>2019-08-22T16:07:03.639Z</time>
      </trkpt>
      <trkpt lat="42.576717" lon="2.811248">
        <ele>117.432628</ele>
        <time>2019-08-22T16:07:03.866Z</time>
      </trkpt>
      <trkpt lat="42.576337" lon="2.811421">
        <ele>116.231010</ele>
        <time>2019-08-22T16:07:07.644Z</time>
      </trkpt>
      <trkpt lat="42.576157" lon="2.811542">
        <ele>115.467713</ele>
        <time>2019-08-22T16:07:09.566Z</time>
      </trkpt>
      <trkpt lat="42.576076" lon="2.811674">
        <ele>114.986857</ele>
        <time>2019-08-22T16:07:10.739Z</time>
      </trkpt>
      <trkpt lat="42.575696" lon="2.812505">
        <ele>112.249345</ele>
        <time>2019-08-22T16:07:17.651Z</time>
      </trkpt>
      <trkpt lat="42.575522" lon="2.812855">
        <ele>111.067527</ele>
        <time>2019-08-22T16:07:20.771Z</time>
      </trkpt>
      <trkpt lat="42.575358" lon="2.813190">
        <ele>110.022219</ele>
        <time>2019-08-22T16:07:23.985Z</time>
      </trkpt>
      <trkpt lat="42.575193" lon="2.813545">
        <ele>110.069098</ele>
        <time>2019-08-22T16:07:27.526Z</time>
      </trkpt>
      <trkpt lat="42.575128" lon="2.813848">
        <ele>110.104341</ele>
        <time>2019-08-22T16:07:30.439Z</time>
      </trkpt>
      <trkpt lat="42.575088" lon="2.814033">
        <ele>110.125872</ele>
        <time>2019-08-22T16:07:32.562Z</time>
      </trkpt>
      <trkpt lat="42.574872" lon="2.814416">
        <ele>110.179745</ele>
        <time>2019-08-22T16:07:38.014Z</time>
      </trkpt>
      <trkpt lat="42.574275" lon="2.815009">
        <ele>110.292082</ele>
        <time>2019-08-22T16:07:53.957Z</time>
      </trkpt>
      <trkpt lat="42.574138" lon="2.815315">
        <ele>110.624105</ele>
        <time>2019-08-22T16:08:00.287Z</time>
      </trkpt>
      <trkpt lat="42.573877" lon="2.815932">
        <ele>111.283816</ele>
        <time>2019-08-22T16:08:11.827Z</time>
      </trkpt>
      <trkpt lat="42.573448" lon="2.816948">
        <ele>112.369662</ele>
        <time>2019-08-22T16:08:28.760Z</time>
      </trkpt>
      <trkpt lat="42.572747" lon="2.818591">
        <ele>112.476040</ele>
        <time>2019-08-22T16:08:48.774Z</time>
      </trkpt>
      <trkpt lat="42.572448" lon="2.819087">
        <ele>112.445691</ele>
        <time>2019-08-22T16:08:55.103Z</time>
      </trkpt>
      <trkpt lat="42.571872" lon="2.819871">
        <ele>112.890870</ele>
        <time>2019-08-22T16:09:06.996Z</time>
      </trkpt>
      <trkpt lat="42.571738" lon="2.820270">
        <ele>113.087583</ele>
        <time>2019-08-22T16:09:12.358Z</time>
      </trkpt>
      <trkpt lat="42.571441" lon="2.820871">
        <ele>113.412248</ele>
        <time>2019-08-22T16:09:22.508Z</time>
      </trkpt>
      <trkpt lat="42.571175" lon="2.821326">
        <ele>114.194763</ele>
        <time>2019-08-22T16:09:31.770Z</time>
      </trkpt>
      <trkpt lat="42.570904" lon="2.821669">
        <ele>115.283287</ele>
        <time>2019-08-22T16:09:40.615Z</time>
      </trkpt>
      <trkpt lat="42.568754" lon="2.823644">
        <ele>124.140767</ele>
        <time>2019-08-22T16:10:55.810Z</time>
      </trkpt>
      <trkpt lat="42.567101" lon="2.825547">
        <ele>134.046621</ele>
        <time>2019-08-22T16:12:08.703Z</time>
      </trkpt>
      <trkpt lat="42.565931" lon="2.826476">
        <ele>140.876376</ele>
        <time>2019-08-22T16:12:57.383Z</time>
      </trkpt>
      <trkpt lat="42.565412" lon="2.826602">
        <ele>143.425849</ele>
        <time>2019-08-22T16:13:15.605Z</time>
      </trkpt>
      <trkpt lat="42.564993" lon="2.826848">
        <ele>144.609299</ele>
        <time>2019-08-22T16:13:30.515Z</time>
      </trkpt>
      <trkpt lat="42.564835" lon="2.827073">
        <ele>145.202887</ele>
        <time>2019-08-22T16:13:37.489Z</time>
      </trkpt>
      <trkpt lat="42.564200" lon="2.828566">
        <ele>147.612537</ele>
        <time>2019-08-22T16:14:04.734Z</time>
      </trkpt>
      <trkpt lat="42.564117" lon="2.828732">
        <ele>147.350697</ele>
        <time>2019-08-22T16:14:06.439Z</time>
      </trkpt>
      <trkpt lat="42.564096" lon="2.828789">
        <ele>147.267522</ele>
        <time>2019-08-22T16:14:07.010Z</time>
      </trkpt>
      <trkpt lat="42.564009" lon="2.828920">
        <ele>147.037324</ele>
        <time>2019-08-22T16:14:08.848Z</time>
      </trkpt>
      <trkpt lat="42.563921" lon="2.828962">
        <ele>146.872043</ele>
        <time>2019-08-22T16:14:09.993Z</time>
      </trkpt>
      <trkpt lat="42.563137" lon="2.829100">
        <ele>145.471250</ele>
        <time>2019-08-22T16:14:18.303Z</time>
      </trkpt>
      <trkpt lat="42.563122" lon="2.829136">
        <ele>145.417271</ele>
        <time>2019-08-22T16:14:18.576Z</time>
      </trkpt>
      <trkpt lat="42.563106" lon="2.829156">
        <ele>145.378735</ele>
        <time>2019-08-22T16:14:18.812Z</time>
      </trkpt>
      <trkpt lat="42.563072" lon="2.829258">
        <ele>145.232621</ele>
        <time>2019-08-22T16:14:19.684Z</time>
      </trkpt>
      <trkpt lat="42.563002" lon="2.829408">
        <ele>145.000875</ele>
        <time>2019-08-22T16:14:21.021Z</time>
      </trkpt>
      <trkpt lat="42.562999" lon="2.829493">
        <ele>144.889818</ele>
        <time>2019-08-22T16:14:21.660Z</time>
      </trkpt>
      <trkpt lat="42.562997" lon="2.829547">
        <ele>144.819255</ele>
        <time>2019-08-22T16:14:22.024Z</time>
      </trkpt>
      <trkpt lat="42.563027" lon="2.829700">
        <ele>144.425384</ele>
        <time>2019-08-22T16:14:23.190Z</time>
      </trkpt>
      <trkpt lat="42.563002" lon="2.829796">
        <ele>144.147065</ele>
        <time>2019-08-22T16:14:23.959Z</time>
      </trkpt>
      <trkpt lat="42.562748" lon="2.830058">
        <ele>142.963271</ele>
        <time>2019-08-22T16:14:27.112Z</time>
      </trkpt>
      <trkpt lat="42.562717" lon="2.830215">
        <ele>142.518983</ele>
        <time>2019-08-22T16:14:28.272Z</time>
      </trkpt>
      <trkpt lat="42.562510" lon="2.830388">
        <ele>141.616915</ele>
        <time>2019-08-22T16:14:31.702Z</time>
      </trkpt>
      <trkpt lat="42.561577" lon="2.831160">
        <ele>137.684079</ele>
        <time>2019-08-22T16:14:47.158Z</time>
      </trkpt>
      <trkpt lat="42.561512" lon="2.831230">
        <ele>137.444867</ele>
        <time>2019-08-22T16:14:48.268Z</time>
      </trkpt>
      <trkpt lat="42.561393" lon="2.831361">
        <ele>137.003142</ele>
        <time>2019-08-22T16:14:50.554Z</time>
      </trkpt>
      <trkpt lat="42.561367" lon="2.831390">
        <ele>136.906123</ele>
        <time>2019-08-22T16:14:51.060Z</time>
      </trkpt>
      <trkpt lat="42.561291" lon="2.831473">
        <ele>136.624899</ele>
        <time>2019-08-22T16:14:52.482Z</time>
      </trkpt>
      <trkpt lat="42.560872" lon="2.831958">
        <ele>135.037333</ele>
        <time>2019-08-22T16:15:00.807Z</time>
      </trkpt>
      <trkpt lat="42.560479" lon="2.832507">
        <ele>133.411500</ele>
        <time>2019-08-22T16:15:09.333Z</time>
      </trkpt>
      <trkpt lat="42.560217" lon="2.832892">
        <ele>132.314277</ele>
        <time>2019-08-22T16:15:15.269Z</time>
      </trkpt>
      <trkpt lat="42.559740" lon="2.833797">
        <ele>130.011307</ele>
        <time>2019-08-22T16:15:27.684Z</time>
      </trkpt>
      <trkpt lat="42.559403" lon="2.834450">
        <ele>128.361254</ele>
        <time>2019-08-22T16:15:36.381Z</time>
      </trkpt>
      <trkpt lat="42.559183" lon="2.834930">
        <ele>126.912316</ele>
        <time>2019-08-22T16:15:40.560Z</time>
      </trkpt>
      <trkpt lat="42.558863" lon="2.835464">
        <ele>124.901564</ele>
        <time>2019-08-22T16:15:45.559Z</time>
      </trkpt>
      <trkpt lat="42.557820" lon="2.836923">
        <ele>119.192992</ele>
        <time>2019-08-22T16:16:00.050Z</time>
      </trkpt>
      <trkpt lat="42.557504" lon="2.837738">
        <ele>116.851733</ele>
        <time>2019-08-22T16:16:06.724Z</time>
      </trkpt>
      <trkpt lat="42.556094" lon="2.840686">
        <ele>110.494356</ele>
        <time>2019-08-22T16:16:34.117Z</time>
      </trkpt>
      <trkpt lat="42.555812" lon="2.841099">
        <ele>110.728993</ele>
        <time>2019-08-22T16:16:39.928Z</time>
      </trkpt>
      <trkpt lat="42.555483" lon="2.842216">
        <ele>111.230227</ele>
        <time>2019-08-22T16:16:56.797Z</time>
      </trkpt>
      <trkpt lat="42.555537" lon="2.843101">
        <ele>111.655843</ele>
        <time>2019-08-22T16:17:12.609Z</time>
      </trkpt>
      <trkpt lat="42.555603" lon="2.843341">
        <ele>111.800869</ele>
        <time>2019-08-22T16:17:17.365Z</time>
      </trkpt>
      <trkpt lat="42.555544" lon="2.843875">
        <ele>112.106554</ele>
        <time>2019-08-22T16:17:25.642Z</time>
      </trkpt>
      <trkpt lat="42.555456" lon="2.844044">
        <ele>112.223717</ele>
        <time>2019-08-22T16:17:28.273Z</time>
      </trkpt>
      <trkpt lat="42.555341" lon="2.844037">
        <ele>112.312187</ele>
        <time>2019-08-22T16:17:30.601Z</time>
      </trkpt>
      <trkpt lat="42.555146" lon="2.843910">
        <ele>112.478403</ele>
        <time>2019-08-22T16:17:34.011Z</time>
      </trkpt>
      <trkpt lat="42.554952" lon="2.843884">
        <ele>112.628221</ele>
        <time>2019-08-22T16:17:37.347Z</time>
      </trkpt>
      <trkpt lat="42.554564" lon="2.844090">
        <ele>112.395273</ele>
        <time>2019-08-22T16:17:42.640Z</time>
      </trkpt>
      <trkpt lat="42.553362" lon="2.845206">
        <ele>108.394220</ele>
        <time>2019-08-22T16:17:57.521Z</time>
      </trkpt>
      <trkpt lat="42.552256" lon="2.846450">
        <ele>103.141291</ele>
        <time>2019-08-22T16:18:11.529Z</time>
      </trkpt>
      <trkpt lat="42.551510" lon="2.847882">
        <ele>98.991094</ele>
        <time>2019-08-22T16:18:24.511Z</time>
      </trkpt>
      <trkpt lat="42.551246" lon="2.848274">
        <ele>97.901015</ele>
        <time>2019-08-22T16:18:28.606Z</time>
      </trkpt>
      <trkpt lat="42.551135" lon="2.848492">
        <ele>97.357117</ele>
        <time>2019-08-22T16:18:30.684Z</time>
      </trkpt>
      <trkpt lat="42.550968" lon="2.849083">
        <ele>96.057968</ele>
        <time>2019-08-22T16:18:35.685Z</time>
      </trkpt>
      <trkpt lat="42.550720" lon="2.850143">
        <ele>94.793057</ele>
        <time>2019-08-22T16:18:44.927Z</time>
      </trkpt>
      <trkpt lat="42.550495" lon="2.850352">
        <ele>94.372652</ele>
        <time>2019-08-22T16:18:48.073Z</time>
      </trkpt>
      <trkpt lat="42.549976" lon="2.850372">
        <ele>93.572033</ele>
        <time>2019-08-22T16:18:54.245Z</time>
      </trkpt>
      <trkpt lat="42.549589" lon="2.850410">
        <ele>92.927018</ele>
        <time>2019-08-22T16:18:59.006Z</time>
      </trkpt>
      <trkpt lat="42.549392" lon="2.850486">
        <ele>92.563221</ele>
        <time>2019-08-22T16:19:01.582Z</time>
      </trkpt>
      <trkpt lat="42.548869" lon="2.850802">
        <ele>91.546321</ele>
        <time>2019-08-22T16:19:08.003Z</time>
      </trkpt>
      <trkpt lat="42.547957" lon="2.851673">
        <ele>89.447905</ele>
        <time>2019-08-22T16:19:20.085Z</time>
      </trkpt>
      <trkpt lat="42.547782" lon="2.851774">
        <ele>89.033804</ele>
        <time>2019-08-22T16:19:22.028Z</time>
      </trkpt>
      <trkpt lat="42.547690" lon="2.851780">
        <ele>88.833231</ele>
        <time>2019-08-22T16:19:23.453Z</time>
      </trkpt>
      <trkpt lat="42.547621" lon="2.851738">
        <ele>88.668559</ele>
        <time>2019-08-22T16:19:24.727Z</time>
      </trkpt>
      <trkpt lat="42.546236" lon="2.849723">
        <ele>84.436012</ele>
        <time>2019-08-22T16:19:56.453Z</time>
      </trkpt>
      <trkpt lat="42.546038" lon="2.849565">
        <ele>83.984933</ele>
        <time>2019-08-22T16:20:00.193Z</time>
      </trkpt>
      <trkpt lat="42.545815" lon="2.849537">
        <ele>83.545107</ele>
        <time>2019-08-22T16:20:03.835Z</time>
      </trkpt>
      <trkpt lat="42.545560" lon="2.849667">
        <ele>83.010147</ele>
        <time>2019-08-22T16:20:08.167Z</time>
      </trkpt>
      <trkpt lat="42.545238" lon="2.849999">
        <ele>82.298601</ele>
        <time>2019-08-22T16:20:14.470Z</time>
      </trkpt>
      <trkpt lat="42.545025" lon="2.850202">
        <ele>81.887781</ele>
        <time>2019-08-22T16:20:18.571Z</time>
      </trkpt>
      <trkpt lat="42.544890" lon="2.850307">
        <ele>81.642179</ele>
        <time>2019-08-22T16:20:20.937Z</time>
      </trkpt>
      <trkpt lat="42.544742" lon="2.850393">
        <ele>81.388056</ele>
        <time>2019-08-22T16:20:23.509Z</time>
      </trkpt>
      <trkpt lat="42.544598" lon="2.850336">
        <ele>81.151286</ele>
        <time>2019-08-22T16:20:25.201Z</time>
      </trkpt>
      <trkpt lat="42.544531" lon="2.850348">
        <ele>81.044611</ele>
        <time>2019-08-22T16:20:25.915Z</time>
      </trkpt>
      <trkpt lat="42.544452" lon="2.850396">
        <ele>80.907987</ele>
        <time>2019-08-22T16:20:26.955Z</time>
      </trkpt>
      <trkpt lat="42.544380" lon="2.850491">
        <ele>80.749486</ele>
        <time>2019-08-22T16:20:28.110Z</time>
      </trkpt>
      <trkpt lat="42.544349" lon="2.850568">
        <ele>80.647441</ele>
        <time>2019-08-22T16:20:28.892Z</time>
      </trkpt>
      <trkpt lat="42.544288" lon="2.850646">
        <ele>80.515155</ele>
        <time>2019-08-22T16:20:29.801Z</time>
      </trkpt>
      <trkpt lat="42.543945" lon="2.850739">
        <ele>79.963039</ele>
        <time>2019-08-22T16:20:33.991Z</time>
      </trkpt>
      <trkpt lat="42.543707" lon="2.850631">
        <ele>79.781068</ele>
        <time>2019-08-22T16:20:37.311Z</time>
      </trkpt>
      <trkpt lat="42.543451" lon="2.850422">
        <ele>79.747000</ele>
        <time>2019-08-22T16:20:41.182Z</time>
      </trkpt>
      <trkpt lat="42.543255" lon="2.850220">
        <ele>79.718934</ele>
        <time>2019-08-22T16:20:44.463Z</time>
      </trkpt>
      <trkpt lat="42.542877" lon="2.849713">
        <ele>79.658330</ele>
        <time>2019-08-22T16:20:52.348Z</time>
      </trkpt>
      <trkpt lat="42.542478" lon="2.849279">
        <ele>79.600019</ele>
        <time>2019-08-22T16:21:00.912Z</time>
      </trkpt>
      <trkpt lat="42.541597" lon="2.848673">
        <ele>79.942453</ele>
        <time>2019-08-22T16:21:17.714Z</time>
      </trkpt>
      <trkpt lat="42.541184" lon="2.848307">
        <ele>80.129424</ele>
        <time>2019-08-22T16:21:25.617Z</time>
      </trkpt>
      <trkpt lat="42.538674" lon="2.845929">
        <ele>80.862157</ele>
        <time>2019-08-22T16:22:13.480Z</time>
      </trkpt>
      <trkpt lat="42.538566" lon="2.845825">
        <ele>80.897469</ele>
        <time>2019-08-22T16:22:15.511Z</time>
      </trkpt>
      <trkpt lat="42.538464" lon="2.845729">
        <ele>80.930570</ele>
        <time>2019-08-22T16:22:17.450Z</time>
      </trkpt>
      <trkpt lat="42.537418" lon="2.844755">
        <ele>81.351721</ele>
        <time>2019-08-22T16:22:37.850Z</time>
      </trkpt>
      <trkpt lat="42.535595" lon="2.842992">
        <ele>82.247383</ele>
        <time>2019-08-22T16:23:15.175Z</time>
      </trkpt>
      <trkpt lat="42.533835" lon="2.841345">
        <ele>82.848813</ele>
        <time>2019-08-22T16:23:49.681Z</time>
      </trkpt>
      <trkpt lat="42.533718" lon="2.841192">
        <ele>82.884364</ele>
        <time>2019-08-22T16:23:52.273Z</time>
      </trkpt>
      <trkpt lat="42.532989" lon="2.840425">
        <ele>82.579392</ele>
        <time>2019-08-22T16:24:05.354Z</time>
      </trkpt>
      <trkpt lat="42.532822" lon="2.840346">
        <ele>82.484641</ele>
        <time>2019-08-22T16:24:07.970Z</time>
      </trkpt>
      <trkpt lat="42.532818" lon="2.840246">
        <ele>82.445104</ele>
        <time>2019-08-22T16:24:08.959Z</time>
      </trkpt>
      <trkpt lat="42.532789" lon="2.840153">
        <ele>82.405237</ele>
        <time>2019-08-22T16:24:09.918Z</time>
      </trkpt>
      <trkpt lat="42.532740" lon="2.840078">
        <ele>82.365665</ele>
        <time>2019-08-22T16:24:10.897Z</time>
      </trkpt>
      <trkpt lat="42.532700" lon="2.840043">
        <ele>82.340167</ele>
        <time>2019-08-22T16:24:11.520Z</time>
      </trkpt>
      <trkpt lat="42.532655" lon="2.840021">
        <ele>82.314541</ele>
        <time>2019-08-22T16:24:12.213Z</time>
      </trkpt>
      <trkpt lat="42.532608" lon="2.840012">
        <ele>82.289111</ele>
        <time>2019-08-22T16:24:12.836Z</time>
      </trkpt>
      <trkpt lat="42.532460" lon="2.839928">
        <ele>82.203165</ele>
        <time>2019-08-22T16:24:14.817Z</time>
      </trkpt>
      <trkpt lat="42.531563" lon="2.839158">
        <ele>81.106577</ele>
        <time>2019-08-22T16:24:27.306Z</time>
      </trkpt>
      <trkpt lat="42.531442" lon="2.839101">
        <ele>80.931744</ele>
        <time>2019-08-22T16:24:28.718Z</time>
      </trkpt>
      <trkpt lat="42.528862" lon="2.836654">
        <ele>78.064426</ele>
        <time>2019-08-22T16:25:05.569Z</time>
      </trkpt>
      <trkpt lat="42.528704" lon="2.836507">
        <ele>78.445341</ele>
        <time>2019-08-22T16:25:09.686Z</time>
      </trkpt>
      <trkpt lat="42.528118" lon="2.835972">
        <ele>79.849704</ele>
        <time>2019-08-22T16:25:27.403Z</time>
      </trkpt>
      <trkpt lat="42.527236" lon="2.835152">
        <ele>82.414434</ele>
        <time>2019-08-22T16:25:59.321Z</time>
      </trkpt>
      <trkpt lat="42.526965" lon="2.834883">
        <ele>83.386798</ele>
        <time>2019-08-22T16:26:08.977Z</time>
      </trkpt>
      <trkpt lat="42.526558" lon="2.834480">
        <ele>84.845886</ele>
        <time>2019-08-22T16:26:22.009Z</time>
      </trkpt>
      <trkpt lat="42.526301" lon="2.834244">
        <ele>85.744552</ele>
        <time>2019-08-22T16:26:29.455Z</time>
      </trkpt>
      <trkpt lat="42.526044" lon="2.834008">
        <ele>86.319311</ele>
        <time>2019-08-22T16:26:36.541Z</time>
      </trkpt>
      <trkpt lat="42.525625" lon="2.833637">
        <ele>86.651690</ele>
        <time>2019-08-22T16:26:46.336Z</time>
      </trkpt>
      <trkpt lat="42.525541" lon="2.833550">
        <ele>86.721893</ele>
        <time>2019-08-22T16:26:48.182Z</time>
      </trkpt>
      <trkpt lat="42.525505" lon="2.833506">
        <ele>86.754081</ele>
        <time>2019-08-22T16:26:49.094Z</time>
      </trkpt>
      <trkpt lat="42.525473" lon="2.833464">
        <ele>86.783658</ele>
        <time>2019-08-22T16:26:49.937Z</time>
      </trkpt>
      <trkpt lat="42.525416" lon="2.833368">
        <ele>86.844016</ele>
        <time>2019-08-22T16:26:51.412Z</time>
      </trkpt>
      <trkpt lat="42.525368" lon="2.833266">
        <ele>86.903268</ele>
        <time>2019-08-22T16:26:52.943Z</time>
      </trkpt>
      <trkpt lat="42.525214" lon="2.832649">
        <ele>87.222206</ele>
        <time>2019-08-22T16:27:00.344Z</time>
      </trkpt>
      <trkpt lat="42.525204" lon="2.832607">
        <ele>87.243816</ele>
        <time>2019-08-22T16:27:00.978Z</time>
      </trkpt>
      <trkpt lat="42.525090" lon="2.831972">
        <ele>87.146998</ele>
        <time>2019-08-22T16:27:07.596Z</time>
      </trkpt>
      <trkpt lat="42.524981" lon="2.831336">
        <ele>86.554112</ele>
        <time>2019-08-22T16:27:13.727Z</time>
      </trkpt>
      <trkpt lat="42.524497" lon="2.831498">
        <ele>85.939936</ele>
        <time>2019-08-22T16:27:19.562Z</time>
      </trkpt>
      <trkpt lat="42.524369" lon="2.831543">
        <ele>85.777029</ele>
        <time>2019-08-22T16:27:21.019Z</time>
      </trkpt>
      <trkpt lat="42.524279" lon="2.831567">
        <ele>85.664025</ele>
        <time>2019-08-22T16:27:22.042Z</time>
      </trkpt>
      <trkpt lat="42.524222" lon="2.831593">
        <ele>85.589938</ele>
        <time>2019-08-22T16:27:22.711Z</time>
      </trkpt>
      <trkpt lat="42.524171" lon="2.831619">
        <ele>85.522816</ele>
        <time>2019-08-22T16:27:23.310Z</time>
      </trkpt>
      <trkpt lat="42.524121" lon="2.831644">
        <ele>85.457165</ele>
        <time>2019-08-22T16:27:23.911Z</time>
      </trkpt>
      <trkpt lat="42.523626" lon="2.831825">
        <ele>84.418412</ele>
        <time>2019-08-22T16:27:29.486Z</time>
      </trkpt>
      <trkpt lat="42.523416" lon="2.831908">
        <ele>83.857333</ele>
        <time>2019-08-22T16:27:31.816Z</time>
      </trkpt>
      <trkpt lat="42.523037" lon="2.832046">
        <ele>82.850727</ele>
        <time>2019-08-22T16:27:35.969Z</time>
      </trkpt>
      <trkpt lat="42.522462" lon="2.832251">
        <ele>81.325672</ele>
        <time>2019-08-22T16:27:42.064Z</time>
      </trkpt>
      <trkpt lat="42.522189" lon="2.832332">
        <ele>80.608826</ele>
        <time>2019-08-22T16:27:44.950Z</time>
      </trkpt>
      <trkpt lat="42.522131" lon="2.832300">
        <ele>80.431143</ele>
        <time>2019-08-22T16:27:45.581Z</time>
      </trkpt>
      <trkpt lat="42.522009" lon="2.832238">
        <ele>80.056129</ele>
        <time>2019-08-22T16:27:46.974Z</time>
      </trkpt>
      <trkpt lat="42.521650" lon="2.832078">
        <ele>78.968388</ele>
        <time>2019-08-22T16:27:50.888Z</time>
      </trkpt>
      <trkpt lat="42.521469" lon="2.832007">
        <ele>78.426024</ele>
        <time>2019-08-22T16:27:52.754Z</time>
      </trkpt>
      <trkpt lat="42.520286" lon="2.831547">
        <ele>75.292010</ele>
        <time>2019-08-22T16:28:05.387Z</time>
      </trkpt>
      <trkpt lat="42.520150" lon="2.831503">
        <ele>75.201588</ele>
        <time>2019-08-22T16:28:06.918Z</time>
      </trkpt>
      <trkpt lat="42.519967" lon="2.831473">
        <ele>75.082374</ele>
        <time>2019-08-22T16:28:09.051Z</time>
      </trkpt>
      <trkpt lat="42.519932" lon="2.831481">
        <ele>75.059420</ele>
        <time>2019-08-22T16:28:09.396Z</time>
      </trkpt>
      <trkpt lat="42.519691" lon="2.831513">
        <ele>74.902812</ele>
        <time>2019-08-22T16:28:12.473Z</time>
      </trkpt>
      <trkpt lat="42.519583" lon="2.831535">
        <ele>74.832181</ele>
        <time>2019-08-22T16:28:13.684Z</time>
      </trkpt>
      <trkpt lat="42.518488" lon="2.831871">
        <ele>75.042355</ele>
        <time>2019-08-22T16:28:31.441Z</time>
      </trkpt>
      <trkpt lat="42.518031" lon="2.832027">
        <ele>76.761201</ele>
        <time>2019-08-22T16:28:44.750Z</time>
      </trkpt>
      <trkpt lat="42.517914" lon="2.832034">
        <ele>77.188370</ele>
        <time>2019-08-22T16:28:48.327Z</time>
      </trkpt>
      <trkpt lat="42.517859" lon="2.832040">
        <ele>77.389629</ele>
        <time>2019-08-22T16:28:49.936Z</time>
      </trkpt>
      <trkpt lat="42.517811" lon="2.832028">
        <ele>77.567655</ele>
        <time>2019-08-22T16:28:51.860Z</time>
      </trkpt>
      <trkpt lat="42.517304" lon="2.831967">
        <ele>79.424182</ele>
        <time>2019-08-22T16:29:09.275Z</time>
      </trkpt>
      <trkpt lat="42.517186" lon="2.831900">
        <ele>79.890756</ele>
        <time>2019-08-22T16:29:13.552Z</time>
      </trkpt>
      <trkpt lat="42.517119" lon="2.831868">
        <ele>80.149838</ele>
        <time>2019-08-22T16:29:16.147Z</time>
      </trkpt>
      <trkpt lat="42.516798" lon="2.831693">
        <ele>81.495477</ele>
        <time>2019-08-22T16:29:28.265Z</time>
      </trkpt>
      <trkpt lat="42.516760" lon="2.831677">
        <ele>81.660738</ele>
        <time>2019-08-22T16:29:29.846Z</time>
      </trkpt>
      <trkpt lat="42.516619" lon="2.831619">
        <ele>82.272715</ele>
        <time>2019-08-22T16:29:35.108Z</time>
      </trkpt>
      <trkpt lat="42.516435" lon="2.831523">
        <ele>83.091532</ele>
        <time>2019-08-22T16:29:41.813Z</time>
      </trkpt>
      <trkpt lat="42.516077" lon="2.831310">
        <ele>84.715206</ele>
        <time>2019-08-22T16:29:54.568Z</time>
      </trkpt>
      <trkpt lat="42.515916" lon="2.831207">
        <ele>85.454547</ele>
        <time>2019-08-22T16:30:00.652Z</time>
      </trkpt>
      <trkpt lat="42.515735" lon="2.831085">
        <ele>86.294011</ele>
        <time>2019-08-22T16:30:06.928Z</time>
      </trkpt>
      <trkpt lat="42.515649" lon="2.831034">
        <ele>86.683850</ele>
        <time>2019-08-22T16:30:10.312Z</time>
      </trkpt>
      <trkpt lat="42.514508" lon="2.830421">
        <ele>90.163710</ele>
        <time>2019-08-22T16:30:40.539Z</time>
      </trkpt>
      <trkpt lat="42.514116" lon="2.830210">
        <ele>91.106533</ele>
        <time>2019-08-22T16:30:50.056Z</time>
      </trkpt>
      <trkpt lat="42.514121" lon="2.830155">
        <ele>91.197854</ele>
        <time>2019-08-22T16:30:51.001Z</time>
      </trkpt>
      <trkpt lat="42.514070" lon="2.830007">
        <ele>91.467079</ele>
        <time>2019-08-22T16:30:53.600Z</time>
      </trkpt>
      <trkpt lat="42.514035" lon="2.829977">
        <ele>91.559635</ele>
        <time>2019-08-22T16:30:54.334Z</time>
      </trkpt>
      <trkpt lat="42.513983" lon="2.829962">
        <ele>91.678487</ele>
        <time>2019-08-22T16:30:55.546Z</time>
      </trkpt>
      <trkpt lat="42.513930" lon="2.829973">
        <ele>91.798354</ele>
        <time>2019-08-22T16:30:56.716Z</time>
      </trkpt>
      <trkpt lat="42.513885" lon="2.830010">
        <ele>91.915991</ele>
        <time>2019-08-22T16:30:58.013Z</time>
      </trkpt>
      <trkpt lat="42.513815" lon="2.829981">
        <ele>92.079619</ele>
        <time>2019-08-22T16:30:59.746Z</time>
      </trkpt>
      <trkpt lat="42.513323" lon="2.829790">
        <ele>93.044351</ele>
        <time>2019-08-22T16:31:10.878Z</time>
      </trkpt>
      <trkpt lat="42.513232" lon="2.829755">
        <ele>93.214777</ele>
        <time>2019-08-22T16:31:13.123Z</time>
      </trkpt>
      <trkpt lat="42.513065" lon="2.829648">
        <ele>93.547550</ele>
        <time>2019-08-22T16:31:17.447Z</time>
      </trkpt>
      <trkpt lat="42.511635" lon="2.828914">
        <ele>95.978277</ele>
        <time>2019-08-22T16:31:50.946Z</time>
      </trkpt>
      <trkpt lat="42.511108" lon="2.828464">
        <ele>96.623107</ele>
        <time>2019-08-22T16:32:01.542Z</time>
      </trkpt>
      <trkpt lat="42.510259" lon="2.827667">
        <ele>98.002641</ele>
        <time>2019-08-22T16:32:20.122Z</time>
      </trkpt>
      <trkpt lat="42.509900" lon="2.827339">
        <ele>98.931529</ele>
        <time>2019-08-22T16:32:29.815Z</time>
      </trkpt>
      <trkpt lat="42.509845" lon="2.827302">
        <ele>99.063281</ele>
        <time>2019-08-22T16:32:30.882Z</time>
      </trkpt>
      <trkpt lat="42.509546" lon="2.827036">
        <ele>99.830636</ele>
        <time>2019-08-22T16:32:40.238Z</time>
      </trkpt>
      <trkpt lat="42.509490" lon="2.826984">
        <ele>99.976275</ele>
        <time>2019-08-22T16:32:41.981Z</time>
      </trkpt>
      <trkpt lat="42.509435" lon="2.826928">
        <ele>100.123858</ele>
        <time>2019-08-22T16:32:43.762Z</time>
      </trkpt>
      <trkpt lat="42.509358" lon="2.826848">
        <ele>100.332004</ele>
        <time>2019-08-22T16:32:47.511Z</time>
      </trkpt>
      <trkpt lat="42.509288" lon="2.826757">
        <ele>100.540074</ele>
        <time>2019-08-22T16:32:49.203Z</time>
      </trkpt>
      <trkpt lat="42.508640" lon="2.825694">
        <ele>102.309001</ele>
        <time>2019-08-22T16:33:15.219Z</time>
      </trkpt>
      <trkpt lat="42.508472" lon="2.825487">
        <ele>102.658141</ele>
        <time>2019-08-22T16:33:20.211Z</time>
      </trkpt>
      <trkpt lat="42.508311" lon="2.825358">
        <ele>102.945794</ele>
        <time>2019-08-22T16:33:25.647Z</time>
      </trkpt>
      <trkpt lat="42.508124" lon="2.825267">
        <ele>103.251417</ele>
        <time>2019-08-22T16:33:29.255Z</time>
      </trkpt>
      <trkpt lat="42.507677" lon="2.824992">
        <ele>104.006476</ele>
        <time>2019-08-22T16:33:36.759Z</time>
      </trkpt>
      <trkpt lat="42.507180" lon="2.824179">
        <ele>103.707492</ele>
        <time>2019-08-22T16:33:45.932Z</time>
      </trkpt>
      <trkpt lat="42.506977" lon="2.823978">
        <ele>103.601387</ele>
        <time>2019-08-22T16:33:48.878Z</time>
      </trkpt>
      <trkpt lat="42.506437" lon="2.823683">
        <ele>103.355616</ele>
        <time>2019-08-22T16:33:56.654Z</time>
      </trkpt>
      <trkpt lat="42.505820" lon="2.823520">
        <ele>104.225178</ele>
        <time>2019-08-22T16:34:08.397Z</time>
      </trkpt>
      <trkpt lat="42.505494" lon="2.823549">
        <ele>104.955892</ele>
        <time>2019-08-22T16:34:15.949Z</time>
      </trkpt>
      <trkpt lat="42.505064" lon="2.823765">
        <ele>105.981481</ele>
        <time>2019-08-22T16:34:27.743Z</time>
      </trkpt>
      <trkpt lat="42.504391" lon="2.824247">
        <ele>107.690861</ele>
        <time>2019-08-22T16:34:49.389Z</time>
      </trkpt>
      <trkpt lat="42.504191" lon="2.824297">
        <ele>108.154093</ele>
        <time>2019-08-22T16:34:55.068Z</time>
      </trkpt>
      <trkpt lat="42.503863" lon="2.824278">
        <ele>108.901892</ele>
        <time>2019-08-22T16:35:03.938Z</time>
      </trkpt>
      <trkpt lat="42.503391" lon="2.824116">
        <ele>110.010895</ele>
        <time>2019-08-22T16:35:15.866Z</time>
      </trkpt>
      <trkpt lat="42.502335" lon="2.823307">
        <ele>111.927034</ele>
        <time>2019-08-22T16:35:38.962Z</time>
      </trkpt>
      <trkpt lat="42.502129" lon="2.823078">
        <ele>112.162461</ele>
        <time>2019-08-22T16:35:43.263Z</time>
      </trkpt>
      <trkpt lat="42.502040" lon="2.822952">
        <ele>112.276175</ele>
        <time>2019-08-22T16:35:45.008Z</time>
      </trkpt>
      <trkpt lat="42.501688" lon="2.822304">
        <ele>112.800704</ele>
        <time>2019-08-22T16:35:56.045Z</time>
      </trkpt>
      <trkpt lat="42.501487" lon="2.821868">
        <ele>113.152660</ele>
        <time>2019-08-22T16:36:03.614Z</time>
      </trkpt>
      <trkpt lat="42.501204" lon="2.821402">
        <ele>113.588701</ele>
        <time>2019-08-22T16:36:12.544Z</time>
      </trkpt>
      <trkpt lat="42.501092" lon="2.821284">
        <ele>113.727630</ele>
        <time>2019-08-22T16:36:15.793Z</time>
      </trkpt>
      <trkpt lat="42.501005" lon="2.821179">
        <ele>113.841711</ele>
        <time>2019-08-22T16:36:18.432Z</time>
      </trkpt>
      <trkpt lat="42.500955" lon="2.821136">
        <ele>113.899708</ele>
        <time>2019-08-22T16:36:19.757Z</time>
      </trkpt>
      <trkpt lat="42.500868" lon="2.821060">
        <ele>114.001082</ele>
        <time>2019-08-22T16:36:21.544Z</time>
      </trkpt>
      <trkpt lat="42.500778" lon="2.820982">
        <ele>114.105709</ele>
        <time>2019-08-22T16:36:23.451Z</time>
      </trkpt>
      <trkpt lat="42.500451" lon="2.820768">
        <ele>114.461383</ele>
        <time>2019-08-22T16:36:29.802Z</time>
      </trkpt>
      <trkpt lat="42.499855" lon="2.820585">
        <ele>114.475571</ele>
        <time>2019-08-22T16:36:39.715Z</time>
      </trkpt>
      <trkpt lat="42.499557" lon="2.820563">
        <ele>114.230356</ele>
        <time>2019-08-22T16:36:44.435Z</time>
      </trkpt>
      <trkpt lat="42.499378" lon="2.820566">
        <ele>114.083270</ele>
        <time>2019-08-22T16:36:46.651Z</time>
      </trkpt>
      <trkpt lat="42.498718" lon="2.820655">
        <ele>113.538306</ele>
        <time>2019-08-22T16:36:54.247Z</time>
      </trkpt>
      <trkpt lat="42.498088" lon="2.820963">
        <ele>113.007102</ele>
        <time>2019-08-22T16:37:01.689Z</time>
      </trkpt>
      <trkpt lat="42.497187" lon="2.821685">
        <ele>112.206497</ele>
        <time>2019-08-22T16:37:14.539Z</time>
      </trkpt>
      <trkpt lat="42.496936" lon="2.821940">
        <ele>111.966578</ele>
        <time>2019-08-22T16:37:19.232Z</time>
      </trkpt>
      <trkpt lat="42.496392" lon="2.822712">
        <ele>112.900177</ele>
        <time>2019-08-22T16:37:33.234Z</time>
      </trkpt>
      <trkpt lat="42.495772" lon="2.823744">
        <ele>114.350007</ele>
        <time>2019-08-22T16:37:54.964Z</time>
      </trkpt>
      <trkpt lat="42.495072" lon="2.826226">
        <ele>119.739628</ele>
        <time>2019-08-22T16:38:46.742Z</time>
      </trkpt>
      <trkpt lat="42.494893" lon="2.826730">
        <ele>121.081190</ele>
        <time>2019-08-22T16:38:58.510Z</time>
      </trkpt>
      <trkpt lat="42.494590" lon="2.827256">
        <ele>122.681927</ele>
        <time>2019-08-22T16:39:12.714Z</time>
      </trkpt>
      <trkpt lat="42.493018" lon="2.829181">
        <ele>128.953244</ele>
        <time>2019-08-22T16:40:10.607Z</time>
      </trkpt>
      <trkpt lat="42.492641" lon="2.829734">
        <ele>130.475663</ele>
        <time>2019-08-22T16:40:23.349Z</time>
      </trkpt>
      <trkpt lat="42.492254" lon="2.830218">
        <ele>131.358051</ele>
        <time>2019-08-22T16:40:35.759Z</time>
      </trkpt>
      <trkpt lat="42.492083" lon="2.830287">
        <ele>131.657090</ele>
        <time>2019-08-22T16:40:39.307Z</time>
      </trkpt>
      <trkpt lat="42.491955" lon="2.830479">
        <ele>131.977000</ele>
        <time>2019-08-22T16:40:44.089Z</time>
      </trkpt>
      <trkpt lat="42.491830" lon="2.830714">
        <ele>132.335132</ele>
        <time>2019-08-22T16:40:48.398Z</time>
      </trkpt>
      <trkpt lat="42.491713" lon="2.831093">
        <ele>132.842951</ele>
        <time>2019-08-22T16:40:54.918Z</time>
      </trkpt>
      <trkpt lat="42.491491" lon="2.831448">
        <ele>133.418256</ele>
        <time>2019-08-22T16:41:01.446Z</time>
      </trkpt>
      <trkpt lat="42.491483" lon="2.831535">
        <ele>133.485329</ele>
        <time>2019-08-22T16:41:02.447Z</time>
      </trkpt>
      <trkpt lat="42.491508" lon="2.831567">
        <ele>133.497018</ele>
        <time>2019-08-22T16:41:03.528Z</time>
      </trkpt>
      <trkpt lat="42.491461" lon="2.831645">
        <ele>133.522273</ele>
        <time>2019-08-22T16:41:05.151Z</time>
      </trkpt>
      <trkpt lat="42.491198" lon="2.832093">
        <ele>133.665844</ele>
        <time>2019-08-22T16:41:12.645Z</time>
      </trkpt>
      <trkpt lat="42.490939" lon="2.832580">
        <ele>133.816389</ele>
        <time>2019-08-22T16:41:19.868Z</time>
      </trkpt>
      <trkpt lat="42.490421" lon="2.833480">
        <ele>134.126850</ele>
        <time>2019-08-22T16:41:31.631Z</time>
      </trkpt>
      <trkpt lat="42.489875" lon="2.834459">
        <ele>134.893089</ele>
        <time>2019-08-22T16:41:45.058Z</time>
      </trkpt>
      <trkpt lat="42.489829" lon="2.834542">
        <ele>134.957904</ele>
        <time>2019-08-22T16:41:46.375Z</time>
      </trkpt>
      <trkpt lat="42.489039" lon="2.835977">
        <ele>137.070638</ele>
        <time>2019-08-22T16:42:16.155Z</time>
      </trkpt>
      <trkpt lat="42.488502" lon="2.836679">
        <ele>139.047796</ele>
        <time>2019-08-22T16:42:36.983Z</time>
      </trkpt>
      <trkpt lat="42.488134" lon="2.836965">
        <ele>140.172114</ele>
        <time>2019-08-22T16:42:47.064Z</time>
      </trkpt>
      <trkpt lat="42.487787" lon="2.837145">
        <ele>141.334207</ele>
        <time>2019-08-22T16:42:56.647Z</time>
      </trkpt>
      <trkpt lat="42.487478" lon="2.837270">
        <ele>142.383197</ele>
        <time>2019-08-22T16:43:05.977Z</time>
      </trkpt>
      <trkpt lat="42.487171" lon="2.837292">
        <ele>143.383300</ele>
        <time>2019-08-22T16:43:15.634Z</time>
      </trkpt>
      <trkpt lat="42.487044" lon="2.837271">
        <ele>143.799507</ele>
        <time>2019-08-22T16:43:19.071Z</time>
      </trkpt>
      <trkpt lat="42.486814" lon="2.837205">
        <ele>144.564295</ele>
        <time>2019-08-22T16:43:26.659Z</time>
      </trkpt>
      <trkpt lat="42.486761" lon="2.837324">
        <ele>144.897798</ele>
        <time>2019-08-22T16:43:29.176Z</time>
      </trkpt>
      <trkpt lat="42.486744" lon="2.837603">
        <ele>145.569390</ele>
        <time>2019-08-22T16:43:35.234Z</time>
      </trkpt>
      <trkpt lat="42.486730" lon="2.837806">
        <ele>146.058505</ele>
        <time>2019-08-22T16:43:38.725Z</time>
      </trkpt>
      <trkpt lat="42.486692" lon="2.837947">
        <ele>146.378234</ele>
        <time>2019-08-22T16:43:41.978Z</time>
      </trkpt>
      <trkpt lat="42.486663" lon="2.837966">
        <ele>146.460801</ele>
        <time>2019-08-22T16:43:42.855Z</time>
      </trkpt>
      <trkpt lat="42.486589" lon="2.838003">
        <ele>146.662992</ele>
        <time>2019-08-22T16:43:44.687Z</time>
      </trkpt>
      <trkpt lat="42.486405" lon="2.838011">
        <ele>147.134936</ele>
        <time>2019-08-22T16:43:48.794Z</time>
      </trkpt>
      <trkpt lat="42.486334" lon="2.837995">
        <ele>147.319448</ele>
        <time>2019-08-22T16:43:50.960Z</time>
      </trkpt>
      <trkpt lat="42.486297" lon="2.837987">
        <ele>147.415499</ele>
        <time>2019-08-22T16:43:51.944Z</time>
      </trkpt>
      <trkpt lat="42.486126" lon="2.837940">
        <ele>147.862789</ele>
        <time>2019-08-22T16:43:55.681Z</time>
      </trkpt>
      <trkpt lat="42.486005" lon="2.837858">
        <ele>148.209564</ele>
        <time>2019-08-22T16:43:59.430Z</time>
      </trkpt>
      <trkpt lat="42.485896" lon="2.837730">
        <ele>148.579211</ele>
        <time>2019-08-22T16:44:02.942Z</time>
      </trkpt>
      <trkpt lat="42.485775" lon="2.837484">
        <ele>149.138235</ele>
        <time>2019-08-22T16:44:09.435Z</time>
      </trkpt>
      <trkpt lat="42.485701" lon="2.837207">
        <ele>149.695210</ele>
        <time>2019-08-22T16:44:14.571Z</time>
      </trkpt>
      <trkpt lat="42.485681" lon="2.836901">
        <ele>150.275976</ele>
        <time>2019-08-22T16:44:20.643Z</time>
      </trkpt>
      <trkpt lat="42.485594" lon="2.836717">
        <ele>150.689191</ele>
        <time>2019-08-22T16:44:24.395Z</time>
      </trkpt>
      <trkpt lat="42.484871" lon="2.836404">
        <ele>152.847828</ele>
        <time>2019-08-22T16:44:40.823Z</time>
      </trkpt>
      <trkpt lat="42.484712" lon="2.836398">
        <ele>153.303960</ele>
        <time>2019-08-22T16:44:44.415Z</time>
      </trkpt>
      <trkpt lat="42.484610" lon="2.836468">
        <ele>153.631786</ele>
        <time>2019-08-22T16:44:46.923Z</time>
      </trkpt>
      <trkpt lat="42.484610" lon="2.836630">
        <ele>153.974379</ele>
        <time>2019-08-22T16:44:50.038Z</time>
      </trkpt>
      <trkpt lat="42.485010" lon="2.837121">
        <ele>155.521605</ele>
        <time>2019-08-22T16:45:05.892Z</time>
      </trkpt>
      <trkpt lat="42.485408" lon="2.837791">
        <ele>158.868154</ele>
        <time>2019-08-22T16:45:27.222Z</time>
      </trkpt>
      <trkpt lat="42.485422" lon="2.837974">
        <ele>159.699288</ele>
        <time>2019-08-22T16:45:31.789Z</time>
      </trkpt>
      <trkpt lat="42.485077" lon="2.838625">
        <ele>163.320788</ele>
        <time>2019-08-22T16:45:53.643Z</time>
      </trkpt>
      <trkpt lat="42.484813" lon="2.838891">
        <ele>165.335573</ele>
        <time>2019-08-22T16:46:08.744Z</time>
      </trkpt>
      <trkpt lat="42.484245" lon="2.839066">
        <ele>169.824483</ele>
        <time>2019-08-22T16:46:37.202Z</time>
      </trkpt>
      <trkpt lat="42.484248" lon="2.839300">
        <ele>171.397186</ele>
        <time>2019-08-22T16:46:46.916Z</time>
      </trkpt>
      <trkpt lat="42.484312" lon="2.839551">
        <ele>173.181862</ele>
        <time>2019-08-22T16:46:55.926Z</time>
      </trkpt>
      <trkpt lat="42.484330" lon="2.839742">
        <ele>174.475806</ele>
        <time>2019-08-22T16:47:03.666Z</time>
      </trkpt>
      <trkpt lat="42.484342" lon="2.839868">
        <ele>175.329548</ele>
        <time>2019-08-22T16:47:08.741Z</time>
      </trkpt>
      <trkpt lat="42.484342" lon="2.840022">
        <ele>176.364417</ele>
        <time>2019-08-22T16:47:13.102Z</time>
      </trkpt>
      <trkpt lat="42.484341" lon="2.840113">
        <ele>176.975998</ele>
        <time>2019-08-22T16:47:17.172Z</time>
      </trkpt>
      <trkpt lat="42.484338" lon="2.840523">
        <ele>179.731304</ele>
        <time>2019-08-22T16:47:32.557Z</time>
      </trkpt>
      <trkpt lat="42.484244" lon="2.841152">
        <ele>184.141781</ele>
        <time>2019-08-22T16:47:56.534Z</time>
      </trkpt>
      <trkpt lat="42.484134" lon="2.841393">
        <ele>186.337486</ele>
        <time>2019-08-22T16:48:10.678Z</time>
      </trkpt>
      <trkpt lat="42.484044" lon="2.841459">
        <ele>187.412338</ele>
        <time>2019-08-22T16:48:16.465Z</time>
      </trkpt>
      <trkpt lat="42.483753" lon="2.841362">
        <ele>190.560297</ele>
        <time>2019-08-22T16:48:35.959Z</time>
      </trkpt>
      <trkpt lat="42.483546" lon="2.841382">
        <ele>192.740342</ele>
        <time>2019-08-22T16:48:45.087Z</time>
      </trkpt>
      <trkpt lat="42.483399" lon="2.841459">
        <ele>194.395788</ele>
        <time>2019-08-22T16:48:57.378Z</time>
      </trkpt>
      <trkpt lat="42.483282" lon="2.841546">
        <ele>195.797545</ele>
        <time>2019-08-22T16:49:02.146Z</time>
      </trkpt>
      <trkpt lat="42.483203" lon="2.841541">
        <ele>196.628342</ele>
        <time>2019-08-22T16:49:06.083Z</time>
      </trkpt>
      <trkpt lat="42.483035" lon="2.841403">
        <ele>198.691749</ele>
        <time>2019-08-22T16:49:18.156Z</time>
      </trkpt>
      <trkpt lat="42.482924" lon="2.841404">
        <ele>199.857828</ele>
        <time>2019-08-22T16:49:22.395Z</time>
      </trkpt>
      <trkpt lat="42.482903" lon="2.841455">
        <ele>200.310350</ele>
        <time>2019-08-22T16:49:24.050Z</time>
      </trkpt>
      <trkpt lat="42.482905" lon="2.841510">
        <ele>200.736964</ele>
        <time>2019-08-22T16:49:28.492Z</time>
      </trkpt>
      <trkpt lat="42.483040" lon="2.841950">
        <ele>204.135401</ele>
        <time>2019-08-22T16:49:47.404Z</time>
      </trkpt>
      <trkpt lat="42.482803" lon="2.843075">
        <ele>211.950103</ele>
        <time>2019-08-22T16:50:38.120Z</time>
      </trkpt>
      <trkpt lat="42.482127" lon="2.843495">
        <ele>218.608123</ele>
        <time>2019-08-22T16:51:12.886Z</time>
      </trkpt>
      <trkpt lat="42.481827" lon="2.843723">
        <ele>219.219808</ele>
        <time>2019-08-22T16:51:23.240Z</time>
      </trkpt>
      <trkpt lat="42.481678" lon="2.843843">
        <ele>219.528045</ele>
        <time>2019-08-22T16:51:27.919Z</time>
      </trkpt>
      <trkpt lat="42.481535" lon="2.843950">
        <ele>219.818544</ele>
        <time>2019-08-22T16:51:31.129Z</time>
      </trkpt>
      <trkpt lat="42.481482" lon="2.843968">
        <ele>219.915723</ele>
        <time>2019-08-22T16:51:33.177Z</time>
      </trkpt>
      <trkpt lat="42.481135" lon="2.844083">
        <ele>220.551073</ele>
        <time>2019-08-22T16:51:39.843Z</time>
      </trkpt>
      <trkpt lat="42.480750" lon="2.844124">
        <ele>221.237952</ele>
        <time>2019-08-22T16:51:45.304Z</time>
      </trkpt>
      <trkpt lat="42.480313" lon="2.844053">
        <ele>222.016231</ele>
        <time>2019-08-22T16:51:50.558Z</time>
      </trkpt>
      <trkpt lat="42.480177" lon="2.844083">
        <ele>222.256513</ele>
        <time>2019-08-22T16:51:51.990Z</time>
      </trkpt>
      <trkpt lat="42.479479" lon="2.844692">
        <ele>223.703954</ele>
        <time>2019-08-22T16:52:02.270Z</time>
      </trkpt>
      <trkpt lat="42.479449" lon="2.844809">
        <ele>223.863266</ele>
        <time>2019-08-22T16:52:04.364Z</time>
      </trkpt>
      <trkpt lat="42.479667" lon="2.845289">
        <ele>224.588271</ele>
        <time>2019-08-22T16:52:17.723Z</time>
      </trkpt>
      <trkpt lat="42.479602" lon="2.845766">
        <ele>226.649514</ele>
        <time>2019-08-22T16:52:33.276Z</time>
      </trkpt>
      <trkpt lat="42.479605" lon="2.846251">
        <ele>230.397198</ele>
        <time>2019-08-22T16:52:51.751Z</time>
      </trkpt>
      <trkpt lat="42.479193" lon="2.847032">
        <ele>237.816775</ele>
        <time>2019-08-22T16:53:34.616Z</time>
      </trkpt>
      <trkpt lat="42.479089" lon="2.847149">
        <ele>239.232594</ele>
        <time>2019-08-22T16:53:43.418Z</time>
      </trkpt>
      <trkpt lat="42.478905" lon="2.847229">
        <ele>241.257032</ele>
        <time>2019-08-22T16:53:56.092Z</time>
      </trkpt>
      <trkpt lat="42.478581" lon="2.847623">
        <ele>245.707674</ele>
        <time>2019-08-22T16:54:25.369Z</time>
      </trkpt>
      <trkpt lat="42.478444" lon="2.847986">
        <ele>248.690585</ele>
        <time>2019-08-22T16:54:45.330Z</time>
      </trkpt>
      <trkpt lat="42.477696" lon="2.849313">
        <ele>260.908442</ele>
        <time>2019-08-22T16:55:50.287Z</time>
      </trkpt>
      <trkpt lat="42.477554" lon="2.849474">
        <ele>262.129443</ele>
        <time>2019-08-22T16:55:57.925Z</time>
      </trkpt>
      <trkpt lat="42.476892" lon="2.849874">
        <ele>265.423510</ele>
        <time>2019-08-22T16:56:23.498Z</time>
      </trkpt>
      <trkpt lat="42.476684" lon="2.850131">
        <ele>266.702542</ele>
        <time>2019-08-22T16:56:31.898Z</time>
      </trkpt>
      <trkpt lat="42.476363" lon="2.850851">
        <ele>269.522820</ele>
        <time>2019-08-22T16:56:48.199Z</time>
      </trkpt>
      <trkpt lat="42.476310" lon="2.851076">
        <ele>270.047389</ele>
        <time>2019-08-22T16:56:52.628Z</time>
      </trkpt>
      <trkpt lat="42.476325" lon="2.851373">
        <ele>270.542602</ele>
        <time>2019-08-22T16:56:58.091Z</time>
      </trkpt>
      <trkpt lat="42.476434" lon="2.851506">
        <ele>270.873337</ele>
        <time>2019-08-22T16:57:01.945Z</time>
      </trkpt>
      <trkpt lat="42.476503" lon="2.851736">
        <ele>271.286377</ele>
        <time>2019-08-22T16:57:06.596Z</time>
      </trkpt>
      <trkpt lat="42.476487" lon="2.851900">
        <ele>271.561564</ele>
        <time>2019-08-22T16:57:09.680Z</time>
      </trkpt>
      <trkpt lat="42.476223" lon="2.852664">
        <ele>272.965034</ele>
        <time>2019-08-22T16:57:24.600Z</time>
      </trkpt>
      <trkpt lat="42.476144" lon="2.852796">
        <ele>273.247810</ele>
        <time>2019-08-22T16:57:27.448Z</time>
      </trkpt>
      <trkpt lat="42.475653" lon="2.853178">
        <ele>274.012894</ele>
        <time>2019-08-22T16:57:39.261Z</time>
      </trkpt>
      <trkpt lat="42.475468" lon="2.853399">
        <ele>274.152833</ele>
        <time>2019-08-22T16:57:44.048Z</time>
      </trkpt>
      <trkpt lat="42.475329" lon="2.853644">
        <ele>274.282223</ele>
        <time>2019-08-22T16:57:48.260Z</time>
      </trkpt>
      <trkpt lat="42.475242" lon="2.853921">
        <ele>274.408252</ele>
        <time>2019-08-22T16:57:52.161Z</time>
      </trkpt>
      <trkpt lat="42.475197" lon="2.855138">
        <ele>274.714945</ele>
        <time>2019-08-22T16:58:05.526Z</time>
      </trkpt>
      <trkpt lat="42.475300" lon="2.855758">
        <ele>274.026337</ele>
        <time>2019-08-22T16:58:11.044Z</time>
      </trkpt>
      <trkpt lat="42.475244" lon="2.856275">
        <ele>273.460153</ele>
        <time>2019-08-22T16:58:15.499Z</time>
      </trkpt>
      <trkpt lat="42.475126" lon="2.856492">
        <ele>273.168038</ele>
        <time>2019-08-22T16:58:17.819Z</time>
      </trkpt>
      <trkpt lat="42.474905" lon="2.856770">
        <ele>272.725168</ele>
        <time>2019-08-22T16:58:21.206Z</time>
      </trkpt>
      <trkpt lat="42.474662" lon="2.856904">
        <ele>272.339797</ele>
        <time>2019-08-22T16:58:24.036Z</time>
      </trkpt>
      <trkpt lat="42.474521" lon="2.857052">
        <ele>271.949014</ele>
        <time>2019-08-22T16:58:25.973Z</time>
      </trkpt>
      <trkpt lat="42.474291" lon="2.857649">
        <ele>270.555022</ele>
        <time>2019-08-22T16:58:31.227Z</time>
      </trkpt>
      <trkpt lat="42.474177" lon="2.857740">
        <ele>270.183808</ele>
        <time>2019-08-22T16:58:32.598Z</time>
      </trkpt>
      <trkpt lat="42.473963" lon="2.857693">
        <ele>269.575489</ele>
        <time>2019-08-22T16:58:34.793Z</time>
      </trkpt>
      <trkpt lat="42.473590" lon="2.857378">
        <ele>268.342397</ele>
        <time>2019-08-22T16:58:39.264Z</time>
      </trkpt>
      <trkpt lat="42.473494" lon="2.857392">
        <ele>268.071464</ele>
        <time>2019-08-22T16:58:40.258Z</time>
      </trkpt>
      <trkpt lat="42.473413" lon="2.857494">
        <ele>267.761259</ele>
        <time>2019-08-22T16:58:41.392Z</time>
      </trkpt>
      <trkpt lat="42.473277" lon="2.857924">
        <ele>266.816731</ele>
        <time>2019-08-22T16:58:44.931Z</time>
      </trkpt>
      <trkpt lat="42.473155" lon="2.858127">
        <ele>266.308785</ele>
        <time>2019-08-22T16:58:46.888Z</time>
      </trkpt>
      <trkpt lat="42.473027" lon="2.858181">
        <ele>265.956234</ele>
        <time>2019-08-22T16:58:48.276Z</time>
      </trkpt>
      <trkpt lat="42.472872" lon="2.858105">
        <ele>265.522756</ele>
        <time>2019-08-22T16:58:49.939Z</time>
      </trkpt>
      <trkpt lat="42.472707" lon="2.857823">
        <ele>264.824513</ele>
        <time>2019-08-22T16:58:52.714Z</time>
      </trkpt>
      <trkpt lat="42.472560" lon="2.857765">
        <ele>264.421876</ele>
        <time>2019-08-22T16:58:54.294Z</time>
      </trkpt>
      <trkpt lat="42.472317" lon="2.858155">
        <ele>263.431544</ele>
        <time>2019-08-22T16:58:58.509Z</time>
      </trkpt>
      <trkpt lat="42.472026" lon="2.859125">
        <ele>260.338567</ele>
        <time>2019-08-22T16:59:06.817Z</time>
      </trkpt>
      <trkpt lat="42.471895" lon="2.859190">
        <ele>259.597855</ele>
        <time>2019-08-22T16:59:08.755Z</time>
      </trkpt>
      <trkpt lat="42.471834" lon="2.859136">
        <ele>259.211019</ele>
        <time>2019-08-22T16:59:09.404Z</time>
      </trkpt>
      <trkpt lat="42.471725" lon="2.858800">
        <ele>257.773393</ele>
        <time>2019-08-22T16:59:12.020Z</time>
      </trkpt>
      <trkpt lat="42.471586" lon="2.858619">
        <ele>256.750022</ele>
        <time>2019-08-22T16:59:13.705Z</time>
      </trkpt>
      <trkpt lat="42.471514" lon="2.858655">
        <ele>256.342541</ele>
        <time>2019-08-22T16:59:14.479Z</time>
      </trkpt>
      <trkpt lat="42.471282" lon="2.859097">
        <ele>254.217830</ele>
        <time>2019-08-22T16:59:18.000Z</time>
      </trkpt>
      <trkpt lat="42.471202" lon="2.859138">
        <ele>253.763704</ele>
        <time>2019-08-22T16:59:18.754Z</time>
      </trkpt>
      <trkpt lat="42.471285" lon="2.858981">
        <ele>253.007169</ele>
        <time>2019-08-22T16:59:19.969Z</time>
      </trkpt>
      <trkpt lat="42.471448" lon="2.858507">
        <ele>252.114716</ele>
        <time>2019-08-22T16:59:23.494Z</time>
      </trkpt>
      <trkpt lat="42.471386" lon="2.857960">
        <ele>251.243493</ele>
        <time>2019-08-22T16:59:27.390Z</time>
      </trkpt>
      <trkpt lat="42.471441" lon="2.857757">
        <ele>250.903043</ele>
        <time>2019-08-22T16:59:28.982Z</time>
      </trkpt>
      <trkpt lat="42.471256" lon="2.857654">
        <ele>250.476209</ele>
        <time>2019-08-22T16:59:31.270Z</time>
      </trkpt>
      <trkpt lat="42.471188" lon="2.857628">
        <ele>250.325419</ele>
        <time>2019-08-22T16:59:32.067Z</time>
      </trkpt>
      <trkpt lat="42.471124" lon="2.857620">
        <ele>250.188247</ele>
        <time>2019-08-22T16:59:32.763Z</time>
      </trkpt>
      <trkpt lat="42.470224" lon="2.857643">
        <ele>252.251774</ele>
        <time>2019-08-22T16:59:56.327Z</time>
      </trkpt>
      <trkpt lat="42.469869" lon="2.857661">
        <ele>255.338682</ele>
        <time>2019-08-22T17:00:14.175Z</time>
      </trkpt>
      <trkpt lat="42.469278" lon="2.857938">
        <ele>260.772394</ele>
        <time>2019-08-22T17:00:53.588Z</time>
      </trkpt>
      <trkpt lat="42.469034" lon="2.858180">
        <ele>263.399444</ele>
        <time>2019-08-22T17:01:11.759Z</time>
      </trkpt>
      <trkpt lat="42.468859" lon="2.858440">
        <ele>265.358245</ele>
        <time>2019-08-22T17:01:27.797Z</time>
      </trkpt>
      <trkpt lat="42.468724" lon="2.858734">
        <ele>266.900242</ele>
        <time>2019-08-22T17:01:41.603Z</time>
      </trkpt>
      <trkpt lat="42.468596" lon="2.859243">
        <ele>269.294731</ele>
        <time>2019-08-22T17:01:58.213Z</time>
      </trkpt>
      <trkpt lat="42.468553" lon="2.860108">
        <ele>273.155026</ele>
        <time>2019-08-22T17:02:20.410Z</time>
      </trkpt>
      <trkpt lat="42.468414" lon="2.860741">
        <ele>275.805979</ele>
        <time>2019-08-22T17:02:32.044Z</time>
      </trkpt>
      <trkpt lat="42.468257" lon="2.861047">
        <ele>276.601530</ele>
        <time>2019-08-22T17:02:37.723Z</time>
      </trkpt>
      <trkpt lat="42.467606" lon="2.861724">
        <ele>278.975525</ele>
        <time>2019-08-22T17:02:58.318Z</time>
      </trkpt>
      <trkpt lat="42.467404" lon="2.862011">
        <ele>279.822185</ele>
        <time>2019-08-22T17:03:06.571Z</time>
      </trkpt>
      <trkpt lat="42.467244" lon="2.862214">
        <ele>280.456256</ele>
        <time>2019-08-22T17:03:13.561Z</time>
      </trkpt>
      <trkpt lat="42.467046" lon="2.862357">
        <ele>281.017059</ele>
        <time>2019-08-22T17:03:19.861Z</time>
      </trkpt>
      <trkpt lat="42.466707" lon="2.862516">
        <ele>281.801748</ele>
        <time>2019-08-22T17:03:30.601Z</time>
      </trkpt>
      <trkpt lat="42.466465" lon="2.862644">
        <ele>282.369988</ele>
        <time>2019-08-22T17:03:38.002Z</time>
      </trkpt>
      <trkpt lat="42.466286" lon="2.862790">
        <ele>282.826961</ele>
        <time>2019-08-22T17:03:43.722Z</time>
      </trkpt>
      <trkpt lat="42.466116" lon="2.862952">
        <ele>283.281522</ele>
        <time>2019-08-22T17:03:48.727Z</time>
      </trkpt>
      <trkpt lat="42.465941" lon="2.863065">
        <ele>283.705542</ele>
        <time>2019-08-22T17:03:53.119Z</time>
      </trkpt>
      <trkpt lat="42.465856" lon="2.863109">
        <ele>283.904574</ele>
        <time>2019-08-22T17:03:54.900Z</time>
      </trkpt>
      <trkpt lat="42.465524" lon="2.863191">
        <ele>284.642776</ele>
        <time>2019-08-22T17:04:00.285Z</time>
      </trkpt>
      <trkpt lat="42.465495" lon="2.863193">
        <ele>284.636548</ele>
        <time>2019-08-22T17:04:00.931Z</time>
      </trkpt>
      <trkpt lat="42.465376" lon="2.863187">
        <ele>284.257623</ele>
        <time>2019-08-22T17:04:02.578Z</time>
      </trkpt>
      <trkpt lat="42.465235" lon="2.863188">
        <ele>283.808949</ele>
        <time>2019-08-22T17:04:04.290Z</time>
      </trkpt>
      <trkpt lat="42.465145" lon="2.863185">
        <ele>283.522478</ele>
        <time>2019-08-22T17:04:05.404Z</time>
      </trkpt>
      <trkpt lat="42.465000" lon="2.863181">
        <ele>283.060987</ele>
        <time>2019-08-22T17:04:07.087Z</time>
      </trkpt>
      <trkpt lat="42.464675" lon="2.863144">
        <ele>282.023182</ele>
        <time>2019-08-22T17:04:10.450Z</time>
      </trkpt>
      <trkpt lat="42.464577" lon="2.863133">
        <ele>281.710275</ele>
        <time>2019-08-22T17:04:11.410Z</time>
      </trkpt>
      <trkpt lat="42.464550" lon="2.863130">
        <ele>281.624072</ele>
        <time>2019-08-22T17:04:11.681Z</time>
      </trkpt>
      <trkpt lat="42.464401" lon="2.863078">
        <ele>281.134487</ele>
        <time>2019-08-22T17:04:13.226Z</time>
      </trkpt>
      <trkpt lat="42.464274" lon="2.863093">
        <ele>280.728836</ele>
        <time>2019-08-22T17:04:14.481Z</time>
      </trkpt>
      <trkpt lat="42.463939" lon="2.863192">
        <ele>279.637814</ele>
        <time>2019-08-22T17:04:17.681Z</time>
      </trkpt>
      <trkpt lat="42.463578" lon="2.863302">
        <ele>277.954543</ele>
        <time>2019-08-22T17:04:21.071Z</time>
      </trkpt>
      <trkpt lat="42.463548" lon="2.863311">
        <ele>277.756666</ele>
        <time>2019-08-22T17:04:21.344Z</time>
      </trkpt>
      <trkpt lat="42.463283" lon="2.863396">
        <ele>276.002916</ele>
        <time>2019-08-22T17:04:23.821Z</time>
      </trkpt>
      <trkpt lat="42.462714" lon="2.863559">
        <ele>272.257572</ele>
        <time>2019-08-22T17:04:29.123Z</time>
      </trkpt>
      <trkpt lat="42.462659" lon="2.863575">
        <ele>271.895302</ele>
        <time>2019-08-22T17:04:29.604Z</time>
      </trkpt>
      <trkpt lat="42.462366" lon="2.863658">
        <ele>269.967593</ele>
        <time>2019-08-22T17:04:32.388Z</time>
      </trkpt>
      <trkpt lat="42.462277" lon="2.863683">
        <ele>269.382248</ele>
        <time>2019-08-22T17:04:33.169Z</time>
      </trkpt>
      <trkpt lat="42.461749" lon="2.863836">
        <ele>266.088094</ele>
        <time>2019-08-22T17:04:38.010Z</time>
      </trkpt>
      <trkpt lat="42.461529" lon="2.863899">
        <ele>264.820802</ele>
        <time>2019-08-22T17:04:40.029Z</time>
      </trkpt>
      <trkpt lat="42.460941" lon="2.864078">
        <ele>261.424274</ele>
        <time>2019-08-22T17:04:45.560Z</time>
      </trkpt>
      <trkpt lat="42.460840" lon="2.864094">
        <ele>260.851162</ele>
        <time>2019-08-22T17:04:46.480Z</time>
      </trkpt>
      <trkpt lat="42.460735" lon="2.864056">
        <ele>260.238650</ele>
        <time>2019-08-22T17:04:47.483Z</time>
      </trkpt>
      <trkpt lat="42.459316" lon="2.863986">
        <ele>253.844169</ele>
        <time>2019-08-22T17:05:01.334Z</time>
      </trkpt>
      <trkpt lat="42.459242" lon="2.863989">
        <ele>253.561185</ele>
        <time>2019-08-22T17:05:02.047Z</time>
      </trkpt>
      <trkpt lat="42.459031" lon="2.864028">
        <ele>252.747193</ele>
        <time>2019-08-22T17:05:04.321Z</time>
      </trkpt>
      <trkpt lat="42.458871" lon="2.864060">
        <ele>252.128987</ele>
        <time>2019-08-22T17:05:05.949Z</time>
      </trkpt>
      <trkpt lat="42.458758" lon="2.864098">
        <ele>251.683960</ele>
        <time>2019-08-22T17:05:07.171Z</time>
      </trkpt>
      <trkpt lat="42.458536" lon="2.864228">
        <ele>250.759581</ele>
        <time>2019-08-22T17:05:09.589Z</time>
      </trkpt>
      <trkpt lat="42.458458" lon="2.864293">
        <ele>250.409593</ele>
        <time>2019-08-22T17:05:10.530Z</time>
      </trkpt>
      <trkpt lat="42.458225" lon="2.864555">
        <ele>248.549998</ele>
        <time>2019-08-22T17:05:13.465Z</time>
      </trkpt>
      <trkpt lat="42.458069" lon="2.864611">
        <ele>247.541525</ele>
        <time>2019-08-22T17:05:15.011Z</time>
      </trkpt>
      <trkpt lat="42.456926" lon="2.864897">
        <ele>240.278090</ele>
        <time>2019-08-22T17:05:25.441Z</time>
      </trkpt>
      <trkpt lat="42.456565" lon="2.864980">
        <ele>237.913248</ele>
        <time>2019-08-22T17:05:28.679Z</time>
      </trkpt>
      <trkpt lat="42.456379" lon="2.865000">
        <ele>236.668057</ele>
        <time>2019-08-22T17:05:30.284Z</time>
      </trkpt>
      <trkpt lat="42.453737" lon="2.865046">
        <ele>220.355790</ele>
        <time>2019-08-22T17:05:54.400Z</time>
      </trkpt>
      <trkpt lat="42.453344" lon="2.865099">
        <ele>218.150950</ele>
        <time>2019-08-22T17:05:58.216Z</time>
      </trkpt>
      <trkpt lat="42.453107" lon="2.865191">
        <ele>216.839988</ele>
        <time>2019-08-22T17:06:00.580Z</time>
      </trkpt>
      <trkpt lat="42.452723" lon="2.865459">
        <ele>214.954886</ele>
        <time>2019-08-22T17:06:04.707Z</time>
      </trkpt>
      <trkpt lat="42.452215" lon="2.866074">
        <ele>211.982022</ele>
        <time>2019-08-22T17:06:11.228Z</time>
      </trkpt>
      <trkpt lat="42.451993" lon="2.866268">
        <ele>210.829168</ele>
        <time>2019-08-22T17:06:13.767Z</time>
      </trkpt>
      <trkpt lat="42.451506" lon="2.866493">
        <ele>208.745256</ele>
        <time>2019-08-22T17:06:18.768Z</time>
      </trkpt>
      <trkpt lat="42.451102" lon="2.866542">
        <ele>207.421904</ele>
        <time>2019-08-22T17:06:22.806Z</time>
      </trkpt>
      <trkpt lat="42.450787" lon="2.866511">
        <ele>206.391484</ele>
        <time>2019-08-22T17:06:26.044Z</time>
      </trkpt>
      <trkpt lat="42.450157" lon="2.866212">
        <ele>204.213667</ele>
        <time>2019-08-22T17:06:32.821Z</time>
      </trkpt>
      <trkpt lat="42.449907" lon="2.866094">
        <ele>203.350448</ele>
        <time>2019-08-22T17:06:35.543Z</time>
      </trkpt>
      <trkpt lat="42.449838" lon="2.866067">
        <ele>203.135473</ele>
        <time>2019-08-22T17:06:36.346Z</time>
      </trkpt>
      <trkpt lat="42.449411" lon="2.865934">
        <ele>201.824008</ele>
        <time>2019-08-22T17:06:40.988Z</time>
      </trkpt>
      <trkpt lat="42.449276" lon="2.865899">
        <ele>201.412584</ele>
        <time>2019-08-22T17:06:42.370Z</time>
      </trkpt>
      <trkpt lat="42.448417" lon="2.865815">
        <ele>198.834648</ele>
        <time>2019-08-22T17:06:51.285Z</time>
      </trkpt>
      <trkpt lat="42.447762" lon="2.865905">
        <ele>196.770204</ele>
        <time>2019-08-22T17:06:57.795Z</time>
      </trkpt>
      <trkpt lat="42.447150" lon="2.866109">
        <ele>194.724017</ele>
        <time>2019-08-22T17:07:04.041Z</time>
      </trkpt>
      <trkpt lat="42.445626" lon="2.866842">
        <ele>189.788415</ele>
        <time>2019-08-22T17:07:20.716Z</time>
      </trkpt>
      <trkpt lat="42.445183" lon="2.866931">
        <ele>188.506542</ele>
        <time>2019-08-22T17:07:25.462Z</time>
      </trkpt>
      <trkpt lat="42.444799" lon="2.866930">
        <ele>187.407402</ele>
        <time>2019-08-22T17:07:29.425Z</time>
      </trkpt>
      <trkpt lat="42.444643" lon="2.866907">
        <ele>186.949632</ele>
        <time>2019-08-22T17:07:30.996Z</time>
      </trkpt>
      <trkpt lat="42.444535" lon="2.866855">
        <ele>186.511635</ele>
        <time>2019-08-22T17:07:32.154Z</time>
      </trkpt>
      <trkpt lat="42.444026" lon="2.866718">
        <ele>184.528504</ele>
        <time>2019-08-22T17:07:37.358Z</time>
      </trkpt>
      <trkpt lat="42.443398" lon="2.866548">
        <ele>182.081198</ele>
        <time>2019-08-22T17:07:43.634Z</time>
      </trkpt>
      <trkpt lat="42.443261" lon="2.866519">
        <ele>181.551306</ele>
        <time>2019-08-22T17:07:44.931Z</time>
      </trkpt>
      <trkpt lat="42.442968" lon="2.866457">
        <ele>180.418042</ele>
        <time>2019-08-22T17:07:47.778Z</time>
      </trkpt>
      <trkpt lat="42.442328" lon="2.866303">
        <ele>178.248899</ele>
        <time>2019-08-22T17:07:54.099Z</time>
      </trkpt>
      <trkpt lat="42.442291" lon="2.866274">
        <ele>178.109187</ele>
        <time>2019-08-22T17:07:54.485Z</time>
      </trkpt>
      <trkpt lat="42.441785" lon="2.866154">
        <ele>176.430126</ele>
        <time>2019-08-22T17:07:59.641Z</time>
      </trkpt>
      <trkpt lat="42.441244" lon="2.866034">
        <ele>174.638266</ele>
        <time>2019-08-22T17:08:05.471Z</time>
      </trkpt>
      <trkpt lat="42.440740" lon="2.865943">
        <ele>173.618954</ele>
        <time>2019-08-22T17:08:10.963Z</time>
      </trkpt>
      <trkpt lat="42.440527" lon="2.865931">
        <ele>173.278935</ele>
        <time>2019-08-22T17:08:13.445Z</time>
      </trkpt>
      <trkpt lat="42.440142" lon="2.865841">
        <ele>172.655806</ele>
        <time>2019-08-22T17:08:18.024Z</time>
      </trkpt>
      <trkpt lat="42.439330" lon="2.865649">
        <ele>171.341095</ele>
        <time>2019-08-22T17:08:27.774Z</time>
      </trkpt>
      <trkpt lat="42.439151" lon="2.865608">
        <ele>171.051065</ele>
        <time>2019-08-22T17:08:29.881Z</time>
      </trkpt>
      <trkpt lat="42.438092" lon="2.865350">
        <ele>169.332062</ele>
        <time>2019-08-22T17:08:42.081Z</time>
      </trkpt>
      <trkpt lat="42.437853" lon="2.865294">
        <ele>168.944566</ele>
        <time>2019-08-22T17:08:44.893Z</time>
      </trkpt>
      <trkpt lat="42.437788" lon="2.865279">
        <ele>168.839226</ele>
        <time>2019-08-22T17:08:45.612Z</time>
      </trkpt>
      <trkpt lat="42.437444" lon="2.865178">
        <ele>168.088420</ele>
        <time>2019-08-22T17:08:49.668Z</time>
      </trkpt>
      <trkpt lat="42.437389" lon="2.865170">
        <ele>167.921545</ele>
        <time>2019-08-22T17:08:50.282Z</time>
      </trkpt>
      <trkpt lat="42.437018" lon="2.865115">
        <ele>166.795654</ele>
        <time>2019-08-22T17:08:54.362Z</time>
      </trkpt>
      <trkpt lat="42.436854" lon="2.865102">
        <ele>166.300061</ele>
        <time>2019-08-22T17:08:56.069Z</time>
      </trkpt>
      <trkpt lat="42.436763" lon="2.865102">
        <ele>166.025537</ele>
        <time>2019-08-22T17:08:56.990Z</time>
      </trkpt>
      <trkpt lat="42.436420" lon="2.865108">
        <ele>164.990707</ele>
        <time>2019-08-22T17:09:00.453Z</time>
      </trkpt>
      <trkpt lat="42.435951" lon="2.865133">
        <ele>163.574758</ele>
        <time>2019-08-22T17:09:05.165Z</time>
      </trkpt>
      <trkpt lat="42.435671" lon="2.865150">
        <ele>162.464183</ele>
        <time>2019-08-22T17:09:07.832Z</time>
      </trkpt>
      <trkpt lat="42.435267" lon="2.865182">
        <ele>160.273969</ele>
        <time>2019-08-22T17:09:11.647Z</time>
      </trkpt>
      <trkpt lat="42.434772" lon="2.865241">
        <ele>157.584643</ele>
        <time>2019-08-22T17:09:16.297Z</time>
      </trkpt>
      <trkpt lat="42.434394" lon="2.865372">
        <ele>155.473016</ele>
        <time>2019-08-22T17:09:19.887Z</time>
      </trkpt>
      <trkpt lat="42.434325" lon="2.865407">
        <ele>155.074271</ele>
        <time>2019-08-22T17:09:20.530Z</time>
      </trkpt>
      <trkpt lat="42.434167" lon="2.865489">
        <ele>154.158577</ele>
        <time>2019-08-22T17:09:22.056Z</time>
      </trkpt>
      <trkpt lat="42.434079" lon="2.865521">
        <ele>153.665460</ele>
        <time>2019-08-22T17:09:22.911Z</time>
      </trkpt>
      <trkpt lat="42.433856" lon="2.865692">
        <ele>152.278079</ele>
        <time>2019-08-22T17:09:25.230Z</time>
      </trkpt>
      <trkpt lat="42.433672" lon="2.865693">
        <ele>151.281672</ele>
        <time>2019-08-22T17:09:26.961Z</time>
      </trkpt>
      <trkpt lat="42.433582" lon="2.865727">
        <ele>150.775713</ele>
        <time>2019-08-22T17:09:27.819Z</time>
      </trkpt>
      <trkpt lat="42.433523" lon="2.865707">
        <ele>150.446369</ele>
        <time>2019-08-22T17:09:28.369Z</time>
      </trkpt>
      <trkpt lat="42.433381" lon="2.865738">
        <ele>149.667491</ele>
        <time>2019-08-22T17:09:29.742Z</time>
      </trkpt>
      <trkpt lat="42.433292" lon="2.865833">
        <ele>149.053940</ele>
        <time>2019-08-22T17:09:30.767Z</time>
      </trkpt>
      <trkpt lat="42.433258" lon="2.865911">
        <ele>148.691882</ele>
        <time>2019-08-22T17:09:31.383Z</time>
      </trkpt>
      <trkpt lat="42.433111" lon="2.866007">
        <ele>147.808201</ele>
        <time>2019-08-22T17:09:32.900Z</time>
      </trkpt>
      <trkpt lat="42.432946" lon="2.866082">
        <ele>146.865750</ele>
        <time>2019-08-22T17:09:34.501Z</time>
      </trkpt>
      <trkpt lat="42.432879" lon="2.866098">
        <ele>146.497339</ele>
        <time>2019-08-22T17:09:35.110Z</time>
      </trkpt>
      <trkpt lat="42.432854" lon="2.866104">
        <ele>146.359851</ele>
        <time>2019-08-22T17:09:35.339Z</time>
      </trkpt>
      <trkpt lat="42.432697" lon="2.866128">
        <ele>145.504269</ele>
        <time>2019-08-22T17:09:36.913Z</time>
      </trkpt>
      <trkpt lat="42.432550" lon="2.866166">
        <ele>144.693874</ele>
        <time>2019-08-22T17:09:38.307Z</time>
      </trkpt>
      <trkpt lat="42.430944" lon="2.866868">
        <ele>137.641612</ele>
        <time>2019-08-22T17:09:54.646Z</time>
      </trkpt>
      <trkpt lat="42.430773" lon="2.866912">
        <ele>136.943818</ele>
        <time>2019-08-22T17:09:56.407Z</time>
      </trkpt>
      <trkpt lat="42.430269" lon="2.866892">
        <ele>135.416426</ele>
        <time>2019-08-22T17:10:01.490Z</time>
      </trkpt>
      <trkpt lat="42.430077" lon="2.866964">
        <ele>134.888851</ele>
        <time>2019-08-22T17:10:03.609Z</time>
      </trkpt>
      <trkpt lat="42.429963" lon="2.867017">
        <ele>134.569674</ele>
        <time>2019-08-22T17:10:04.825Z</time>
      </trkpt>
      <trkpt lat="42.429874" lon="2.867059">
        <ele>134.320095</ele>
        <time>2019-08-22T17:10:05.801Z</time>
      </trkpt>
      <trkpt lat="42.429767" lon="2.867108">
        <ele>134.020986</ele>
        <time>2019-08-22T17:10:07.059Z</time>
      </trkpt>
      <trkpt lat="42.429452" lon="2.867255">
        <ele>133.138699</ele>
        <time>2019-08-22T17:10:10.658Z</time>
      </trkpt>
      <trkpt lat="42.429305" lon="2.867367">
        <ele>132.692076</ele>
        <time>2019-08-22T17:10:12.506Z</time>
      </trkpt>
      <trkpt lat="42.429021" lon="2.867734">
        <ele>131.652720</ele>
        <time>2019-08-22T17:10:16.737Z</time>
      </trkpt>
      <trkpt lat="42.429004" lon="2.867749">
        <ele>131.598432</ele>
        <time>2019-08-22T17:10:16.934Z</time>
      </trkpt>
      <trkpt lat="42.428957" lon="2.867789">
        <ele>131.446160</ele>
        <time>2019-08-22T17:10:17.494Z</time>
      </trkpt>
      <trkpt lat="42.428902" lon="2.867814">
        <ele>131.287005</ele>
        <time>2019-08-22T17:10:18.141Z</time>
      </trkpt>
      <trkpt lat="42.427991" lon="2.868220">
        <ele>128.655983</ele>
        <time>2019-08-22T17:10:28.197Z</time>
      </trkpt>
      <trkpt lat="42.427901" lon="2.868260">
        <ele>128.396127</ele>
        <time>2019-08-22T17:10:29.142Z</time>
      </trkpt>
      <trkpt lat="42.427752" lon="2.868325">
        <ele>127.966685</ele>
        <time>2019-08-22T17:10:30.821Z</time>
      </trkpt>
      <trkpt lat="42.427574" lon="2.868383">
        <ele>127.464428</ele>
        <time>2019-08-22T17:10:32.642Z</time>
      </trkpt>
      <trkpt lat="42.427387" lon="2.868413">
        <ele>126.947820</ele>
        <time>2019-08-22T17:10:34.611Z</time>
      </trkpt>
      <trkpt lat="42.427140" lon="2.868411">
        <ele>126.237740</ele>
        <time>2019-08-22T17:10:37.129Z</time>
      </trkpt>
      <trkpt lat="42.427072" lon="2.868410">
        <ele>126.036414</ele>
        <time>2019-08-22T17:10:37.834Z</time>
      </trkpt>
      <trkpt lat="42.426856" lon="2.868404">
        <ele>125.396810</ele>
        <time>2019-08-22T17:10:40.027Z</time>
      </trkpt>
      <trkpt lat="42.426395" lon="2.868378">
        <ele>124.030835</ele>
        <time>2019-08-22T17:10:44.643Z</time>
      </trkpt>
      <trkpt lat="42.426242" lon="2.868369">
        <ele>123.577450</ele>
        <time>2019-08-22T17:10:46.207Z</time>
      </trkpt>
      <trkpt lat="42.426170" lon="2.868340">
        <ele>123.355072</ele>
        <time>2019-08-22T17:10:46.980Z</time>
      </trkpt>
      <trkpt lat="42.426033" lon="2.868260">
        <ele>122.913410</ele>
        <time>2019-08-22T17:10:48.473Z</time>
      </trkpt>
      <trkpt lat="42.425986" lon="2.868209">
        <ele>122.735134</ele>
        <time>2019-08-22T17:10:49.102Z</time>
      </trkpt>
      <trkpt lat="42.425811" lon="2.868184">
        <ele>122.214173</ele>
        <time>2019-08-22T17:10:50.974Z</time>
      </trkpt>
      <trkpt lat="42.425757" lon="2.868220">
        <ele>122.035997</ele>
        <time>2019-08-22T17:10:51.574Z</time>
      </trkpt>
      <trkpt lat="42.425712" lon="2.868278">
        <ele>121.852113</ele>
        <time>2019-08-22T17:10:52.194Z</time>
      </trkpt>
      <trkpt lat="42.425681" lon="2.868351">
        <ele>121.668070</ele>
        <time>2019-08-22T17:10:52.840Z</time>
      </trkpt>
      <trkpt lat="42.425503" lon="2.868472">
        <ele>121.186571</ele>
        <time>2019-08-22T17:10:55.057Z</time>
      </trkpt>
      <trkpt lat="42.425391" lon="2.868525">
        <ele>120.972509</ele>
        <time>2019-08-22T17:10:56.280Z</time>
      </trkpt>
      <trkpt lat="42.424846" lon="2.868820">
        <ele>119.913547</ele>
        <time>2019-08-22T17:11:02.781Z</time>
      </trkpt>
      <trkpt lat="42.424551" lon="2.869006">
        <ele>119.326435</ele>
        <time>2019-08-22T17:11:06.448Z</time>
      </trkpt>
      <trkpt lat="42.424469" lon="2.869057">
        <ele>119.163630</ele>
        <time>2019-08-22T17:11:07.461Z</time>
      </trkpt>
      <trkpt lat="42.423999" lon="2.869356">
        <ele>118.226731</ele>
        <time>2019-08-22T17:11:13.466Z</time>
      </trkpt>
      <trkpt lat="42.423922" lon="2.869408">
        <ele>118.087809</ele>
        <time>2019-08-22T17:11:14.466Z</time>
      </trkpt>
      <trkpt lat="42.423717" lon="2.869538">
        <ele>117.853041</ele>
        <time>2019-08-22T17:11:17.223Z</time>
      </trkpt>
      <trkpt lat="42.423527" lon="2.869652">
        <ele>117.637509</ele>
        <time>2019-08-22T17:11:19.708Z</time>
      </trkpt>
      <trkpt lat="42.422766" lon="2.870109">
        <ele>116.774124</ele>
        <time>2019-08-22T17:11:29.708Z</time>
      </trkpt>
      <trkpt lat="42.422711" lon="2.870140">
        <ele>116.712337</ele>
        <time>2019-08-22T17:11:30.434Z</time>
      </trkpt>
      <trkpt lat="42.422650" lon="2.870177">
        <ele>116.643015</ele>
        <time>2019-08-22T17:11:31.190Z</time>
      </trkpt>
      <trkpt lat="42.422061" lon="2.870416">
        <ele>116.061108</ele>
        <time>2019-08-22T17:11:39.301Z</time>
      </trkpt>
      <trkpt lat="42.421943" lon="2.870450">
        <ele>115.965200</ele>
        <time>2019-08-22T17:11:40.763Z</time>
      </trkpt>
      <trkpt lat="42.421795" lon="2.870492">
        <ele>115.844987</ele>
        <time>2019-08-22T17:11:42.773Z</time>
      </trkpt>
      <trkpt lat="42.421476" lon="2.870553">
        <ele>115.588870</ele>
        <time>2019-08-22T17:11:46.862Z</time>
      </trkpt>
      <trkpt lat="42.421233" lon="2.870599">
        <ele>115.393809</ele>
        <time>2019-08-22T17:11:49.896Z</time>
      </trkpt>
      <trkpt lat="42.420947" lon="2.870655">
        <ele>115.164078</ele>
        <time>2019-08-22T17:11:53.667Z</time>
      </trkpt>
      <trkpt lat="42.420684" lon="2.870714">
        <ele>114.952147</ele>
        <time>2019-08-22T17:11:56.853Z</time>
      </trkpt>
      <trkpt lat="42.420601" lon="2.870732">
        <ele>114.885322</ele>
        <time>2019-08-22T17:11:57.961Z</time>
      </trkpt>
      <trkpt lat="42.420180" lon="2.870827">
        <ele>114.446819</ele>
        <time>2019-08-22T17:12:03.130Z</time>
      </trkpt>
      <trkpt lat="42.419443" lon="2.870992">
        <ele>113.633473</ele>
        <time>2019-08-22T17:12:12.347Z</time>
      </trkpt>
      <trkpt lat="42.419353" lon="2.871017">
        <ele>113.533440</ele>
        <time>2019-08-22T17:12:13.358Z</time>
      </trkpt>
      <trkpt lat="42.418430" lon="2.871273">
        <ele>112.405882</ele>
        <time>2019-08-22T17:12:24.547Z</time>
      </trkpt>
      <trkpt lat="42.416680" lon="2.871717">
        <ele>109.773689</ele>
        <time>2019-08-22T17:12:45.231Z</time>
      </trkpt>
      <trkpt lat="42.416066" lon="2.871843">
        <ele>108.637502</ele>
        <time>2019-08-22T17:12:52.205Z</time>
      </trkpt>
      <trkpt lat="42.415618" lon="2.871938">
        <ele>107.807862</ele>
        <time>2019-08-22T17:12:57.041Z</time>
      </trkpt>
      <trkpt lat="42.415000" lon="2.872087">
        <ele>106.810208</ele>
        <time>2019-08-22T17:13:04.008Z</time>
      </trkpt>
      <trkpt lat="42.414886" lon="2.872144">
        <ele>106.677136</ele>
        <time>2019-08-22T17:13:05.269Z</time>
      </trkpt>
      <trkpt lat="42.414840" lon="2.872167">
        <ele>106.623440</ele>
        <time>2019-08-22T17:13:05.817Z</time>
      </trkpt>
      <trkpt lat="42.414640" lon="2.872305">
        <ele>106.377646</ele>
        <time>2019-08-22T17:13:08.477Z</time>
      </trkpt>
      <trkpt lat="42.414626" lon="2.872319">
        <ele>106.358590</ele>
        <time>2019-08-22T17:13:08.642Z</time>
      </trkpt>
      <trkpt lat="42.414518" lon="2.872427">
        <ele>106.211583</ele>
        <time>2019-08-22T17:13:10.153Z</time>
      </trkpt>
      <trkpt lat="42.414359" lon="2.872643">
        <ele>105.964981</ele>
        <time>2019-08-22T17:13:12.855Z</time>
      </trkpt>
      <trkpt lat="42.414029" lon="2.873063">
        <ele>105.469107</ele>
        <time>2019-08-22T17:13:18.554Z</time>
      </trkpt>
      <trkpt lat="42.413856" lon="2.873288">
        <ele>105.206465</ele>
        <time>2019-08-22T17:13:22.109Z</time>
      </trkpt>
      <trkpt lat="42.413687" lon="2.873536">
        <ele>105.151727</ele>
        <time>2019-08-22T17:13:25.471Z</time>
      </trkpt>
      <trkpt lat="42.413552" lon="2.873634">
        <ele>105.261596</ele>
        <time>2019-08-22T17:13:27.727Z</time>
      </trkpt>
      <trkpt lat="42.413404" lon="2.873676">
        <ele>105.370065</ele>
        <time>2019-08-22T17:13:30.204Z</time>
      </trkpt>
      <trkpt lat="42.413344" lon="2.873693">
        <ele>105.414036</ele>
        <time>2019-08-22T17:13:31.278Z</time>
      </trkpt>
      <trkpt lat="42.413293" lon="2.873731">
        <ele>105.455789</ele>
        <time>2019-08-22T17:13:32.265Z</time>
      </trkpt>
      <trkpt lat="42.413223" lon="2.873856">
        <ele>105.538878</ele>
        <time>2019-08-22T17:13:34.111Z</time>
      </trkpt>
      <trkpt lat="42.413210" lon="2.873934">
        <ele>105.581226</ele>
        <time>2019-08-22T17:13:35.168Z</time>
      </trkpt>
      <trkpt lat="42.413213" lon="2.874004">
        <ele>105.618360</ele>
        <time>2019-08-22T17:13:36.149Z</time>
      </trkpt>
      <trkpt lat="42.413187" lon="2.874110">
        <ele>105.677515</ele>
        <time>2019-08-22T17:13:37.772Z</time>
      </trkpt>
      <trkpt lat="42.413107" lon="2.874271">
        <ele>105.780293</ele>
        <time>2019-08-22T17:13:40.289Z</time>
      </trkpt>
      <trkpt lat="42.411941" lon="2.875765">
        <ele>108.080640</ele>
        <time>2019-08-22T17:14:12.414Z</time>
      </trkpt>
      <trkpt lat="42.411679" lon="2.876017">
        <ele>108.770926</ele>
        <time>2019-08-22T17:14:21.074Z</time>
      </trkpt>
      <trkpt lat="42.411501" lon="2.876084">
        <ele>109.167784</ele>
        <time>2019-08-22T17:14:25.984Z</time>
      </trkpt>
      <trkpt lat="42.411369" lon="2.876089">
        <ele>109.451449</ele>
        <time>2019-08-22T17:14:29.839Z</time>
      </trkpt>
      <trkpt lat="42.411315" lon="2.876070">
        <ele>109.571298</ele>
        <time>2019-08-22T17:14:31.294Z</time>
      </trkpt>
      <trkpt lat="42.411260" lon="2.876070">
        <ele>109.689446</ele>
        <time>2019-08-22T17:14:32.761Z</time>
      </trkpt>
      <trkpt lat="42.411209" lon="2.876088">
        <ele>109.802659</ele>
        <time>2019-08-22T17:14:33.744Z</time>
      </trkpt>
      <trkpt lat="42.411122" lon="2.876169">
        <ele>110.029443</ele>
        <time>2019-08-22T17:14:36.539Z</time>
      </trkpt>
      <trkpt lat="42.411092" lon="2.876229">
        <ele>110.144372</ele>
        <time>2019-08-22T17:14:37.903Z</time>
      </trkpt>
      <trkpt lat="42.411085" lon="2.876251">
        <ele>110.182367</ele>
        <time>2019-08-22T17:14:38.407Z</time>
      </trkpt>
      <trkpt lat="42.411079" lon="2.876274">
        <ele>110.221069</ele>
        <time>2019-08-22T17:14:38.933Z</time>
      </trkpt>
      <trkpt lat="42.411068" lon="2.876359">
        <ele>110.359014</ele>
        <time>2019-08-22T17:14:40.570Z</time>
      </trkpt>
      <trkpt lat="42.411077" lon="2.876445">
        <ele>110.497859</ele>
        <time>2019-08-22T17:14:42.164Z</time>
      </trkpt>
      <trkpt lat="42.411103" lon="2.876523">
        <ele>110.634661</ele>
        <time>2019-08-22T17:14:43.070Z</time>
      </trkpt>
      <trkpt lat="42.411144" lon="2.876588">
        <ele>110.771319</ele>
        <time>2019-08-22T17:14:45.043Z</time>
      </trkpt>
      <trkpt lat="42.411176" lon="2.876619">
        <ele>110.856499</ele>
        <time>2019-08-22T17:14:46.025Z</time>
      </trkpt>
      <trkpt lat="42.411211" lon="2.876641">
        <ele>110.940038</ele>
        <time>2019-08-22T17:14:46.991Z</time>
      </trkpt>
      <trkpt lat="42.411279" lon="2.876763">
        <ele>111.184387</ele>
        <time>2019-08-22T17:14:50.545Z</time>
      </trkpt>
      <trkpt lat="42.411327" lon="2.876905">
        <ele>111.434034</ele>
        <time>2019-08-22T17:14:53.119Z</time>
      </trkpt>
      <trkpt lat="42.411340" lon="2.876971">
        <ele>111.543225</ele>
        <time>2019-08-22T17:14:55.055Z</time>
      </trkpt>
      <trkpt lat="42.411326" lon="2.877151">
        <ele>111.832547</ele>
        <time>2019-08-22T17:14:59.108Z</time>
      </trkpt>
      <trkpt lat="42.411310" lon="2.877241">
        <ele>111.980524</ele>
        <time>2019-08-22T17:15:01.170Z</time>
      </trkpt>
      <trkpt lat="42.411290" lon="2.877313">
        <ele>112.103493</ele>
        <time>2019-08-22T17:15:02.546Z</time>
      </trkpt>
      <trkpt lat="42.411274" lon="2.877342">
        <ele>112.161363</ele>
        <time>2019-08-22T17:15:03.018Z</time>
      </trkpt>
      <trkpt lat="42.411174" lon="2.877428">
        <ele>112.417825</ele>
        <time>2019-08-22T17:15:06.644Z</time>
      </trkpt>
      <trkpt lat="42.411115" lon="2.877463">
        <ele>112.557277</ele>
        <time>2019-08-22T17:15:08.588Z</time>
      </trkpt>
      <trkpt lat="42.410927" lon="2.877574">
        <ele>113.001300</ele>
        <time>2019-08-22T17:15:13.583Z</time>
      </trkpt>
      <trkpt lat="42.410385" lon="2.878139">
        <ele>114.246190</ele>
        <time>2019-08-22T17:15:34.438Z</time>
      </trkpt>
      <trkpt lat="42.409972" lon="2.878420">
        <ele>114.606461</ele>
        <time>2019-08-22T17:15:46.012Z</time>
      </trkpt>
      <trkpt lat="42.409810" lon="2.878664">
        <ele>114.795319</ele>
        <time>2019-08-22T17:15:51.215Z</time>
      </trkpt>
      <trkpt lat="42.409759" lon="2.878772">
        <ele>114.869102</ele>
        <time>2019-08-22T17:15:52.844Z</time>
      </trkpt>
      <trkpt lat="42.409619" lon="2.879084">
        <ele>115.079230</ele>
        <time>2019-08-22T17:15:58.942Z</time>
      </trkpt>
      <trkpt lat="42.409549" lon="2.879178">
        <ele>115.156069</ele>
        <time>2019-08-22T17:16:00.747Z</time>
      </trkpt>
      <trkpt lat="42.409506" lon="2.879219">
        <ele>115.197060</ele>
        <time>2019-08-22T17:16:02.442Z</time>
      </trkpt>
      <trkpt lat="42.409404" lon="2.879290">
        <ele>115.286455</ele>
        <time>2019-08-22T17:16:04.751Z</time>
      </trkpt>
      <trkpt lat="42.409380" lon="2.879298">
        <ele>115.305721</ele>
        <time>2019-08-22T17:16:05.327Z</time>
      </trkpt>
      <trkpt lat="42.409353" lon="2.879298">
        <ele>115.326768</ele>
        <time>2019-08-22T17:16:05.866Z</time>
      </trkpt>
      <trkpt lat="42.408970" lon="2.879326">
        <ele>115.384268</ele>
        <time>2019-08-22T17:16:13.830Z</time>
      </trkpt>
      <trkpt lat="42.408839" lon="2.879370">
        <ele>115.258995</ele>
        <time>2019-08-22T17:16:16.463Z</time>
      </trkpt>
      <trkpt lat="42.408391" lon="2.879562">
        <ele>114.822855</ele>
        <time>2019-08-22T17:16:26.270Z</time>
      </trkpt>
      <trkpt lat="42.408264" lon="2.879613">
        <ele>114.699905</ele>
        <time>2019-08-22T17:16:28.714Z</time>
      </trkpt>
      <trkpt lat="42.407982" lon="2.879736">
        <ele>114.424923</ele>
        <time>2019-08-22T17:16:34.067Z</time>
      </trkpt>
      <trkpt lat="42.407310" lon="2.880050">
        <ele>113.628909</ele>
        <time>2019-08-22T17:16:45.147Z</time>
      </trkpt>
      <trkpt lat="42.406842" lon="2.880276">
        <ele>112.391896</ele>
        <time>2019-08-22T17:16:52.490Z</time>
      </trkpt>
      <trkpt lat="42.406040" lon="2.880662">
        <ele>110.272850</ele>
        <time>2019-08-22T17:17:04.830Z</time>
      </trkpt>
      <trkpt lat="42.405239" lon="2.881051">
        <ele>109.842810</ele>
        <time>2019-08-22T17:17:19.240Z</time>
      </trkpt>
      <trkpt lat="42.405042" lon="2.881053">
        <ele>110.034648</ele>
        <time>2019-08-22T17:17:22.755Z</time>
      </trkpt>
      <trkpt lat="42.405006" lon="2.881017">
        <ele>110.078224</ele>
        <time>2019-08-22T17:17:23.428Z</time>
      </trkpt>
      <trkpt lat="42.404964" lon="2.880997">
        <ele>110.121577</ele>
        <time>2019-08-22T17:17:24.139Z</time>
      </trkpt>
      <trkpt lat="42.404920" lon="2.880994">
        <ele>110.164477</ele>
        <time>2019-08-22T17:17:24.911Z</time>
      </trkpt>
      <trkpt lat="42.404876" lon="2.881002">
        <ele>110.207707</ele>
        <time>2019-08-22T17:17:25.651Z</time>
      </trkpt>
      <trkpt lat="42.404801" lon="2.881066">
        <ele>110.294028</ele>
        <time>2019-08-22T17:17:26.921Z</time>
      </trkpt>
      <trkpt lat="42.404776" lon="2.881117">
        <ele>110.338043</ele>
        <time>2019-08-22T17:17:27.521Z</time>
      </trkpt>
      <trkpt lat="42.404768" lon="2.881145">
        <ele>110.359631</ele>
        <time>2019-08-22T17:17:27.850Z</time>
      </trkpt>
      <trkpt lat="42.404763" lon="2.881175">
        <ele>110.381744</ele>
        <time>2019-08-22T17:17:28.179Z</time>
      </trkpt>
      <trkpt lat="42.404764" lon="2.881251">
        <ele>110.436399</ele>
        <time>2019-08-22T17:17:29.197Z</time>
      </trkpt>
      <trkpt lat="42.404784" lon="2.881322">
        <ele>110.491039</ele>
        <time>2019-08-22T17:17:30.386Z</time>
      </trkpt>
      <trkpt lat="42.404821" lon="2.881380">
        <ele>110.546150</ele>
        <time>2019-08-22T17:17:32.119Z</time>
      </trkpt>
      <trkpt lat="42.404870" lon="2.881417">
        <ele>110.600780</ele>
        <time>2019-08-22T17:17:33.256Z</time>
      </trkpt>
      <trkpt lat="42.404917" lon="2.881530">
        <ele>110.694034</ele>
        <time>2019-08-22T17:17:35.298Z</time>
      </trkpt>
      <trkpt lat="42.404950" lon="2.881681">
        <ele>110.807262</ele>
        <time>2019-08-22T17:17:38.068Z</time>
      </trkpt>
      <trkpt lat="42.404930" lon="2.881786">
        <ele>110.885231</ele>
        <time>2019-08-22T17:17:40.999Z</time>
      </trkpt>
      <trkpt lat="42.404457" lon="2.882995">
        <ele>115.240042</ele>
        <time>2019-08-22T17:18:15.127Z</time>
      </trkpt>
      <trkpt lat="42.404420" lon="2.883083">
        <ele>115.640353</ele>
        <time>2019-08-22T17:18:18.972Z</time>
      </trkpt>
      <trkpt lat="42.404193" lon="2.883625">
        <ele>118.103566</ele>
        <time>2019-08-22T17:18:37.276Z</time>
      </trkpt>
      <trkpt lat="42.404183" lon="2.884057">
        <ele>119.812134</ele>
        <time>2019-08-22T17:18:49.084Z</time>
      </trkpt>
      <trkpt lat="42.404102" lon="2.884154">
        <ele>120.390989</ele>
        <time>2019-08-22T17:18:53.068Z</time>
      </trkpt>
      <trkpt lat="42.403871" lon="2.884213">
        <ele>121.651522</ele>
        <time>2019-08-22T17:19:02.346Z</time>
      </trkpt>
      <trkpt lat="42.402407" lon="2.886041">
        <ele>131.897160</ele>
        <time>2019-08-22T17:20:14.182Z</time>
      </trkpt>
      <trkpt lat="42.402342" lon="2.886494">
        <ele>133.310823</ele>
        <time>2019-08-22T17:20:25.075Z</time>
      </trkpt>
      <trkpt lat="42.402234" lon="2.886580">
        <ele>133.830577</ele>
        <time>2019-08-22T17:20:28.943Z</time>
      </trkpt>
      <trkpt lat="42.402004" lon="2.886633">
        <ele>134.798448</ele>
        <time>2019-08-22T17:20:36.095Z</time>
      </trkpt>
      <trkpt lat="42.401868" lon="2.886747">
        <ele>135.461982</ele>
        <time>2019-08-22T17:20:40.860Z</time>
      </trkpt>
      <trkpt lat="42.401717" lon="2.887046">
        <ele>136.571659</ele>
        <time>2019-08-22T17:20:48.731Z</time>
      </trkpt>
      <trkpt lat="42.401225" lon="2.887239">
        <ele>138.555102</ele>
        <time>2019-08-22T17:21:03.188Z</time>
      </trkpt>
      <trkpt lat="42.400596" lon="2.887847">
        <ele>141.217767</ele>
        <time>2019-08-22T17:21:24.491Z</time>
      </trkpt>
      <trkpt lat="42.400441" lon="2.888311">
        <ele>142.513504</ele>
        <time>2019-08-22T17:21:35.285Z</time>
      </trkpt>
      <trkpt lat="42.400515" lon="2.888764">
        <ele>143.693943</ele>
        <time>2019-08-22T17:21:45.239Z</time>
      </trkpt>
      <trkpt lat="42.400486" lon="2.888914">
        <ele>144.103308</ele>
        <time>2019-08-22T17:21:48.524Z</time>
      </trkpt>
      <trkpt lat="42.400181" lon="2.889136">
        <ele>145.891325</ele>
        <time>2019-08-22T17:21:59.042Z</time>
      </trkpt>
      <trkpt lat="42.400232" lon="2.889683">
        <ele>147.993680</ele>
        <time>2019-08-22T17:22:12.178Z</time>
      </trkpt>
      <trkpt lat="42.399928" lon="2.890400">
        <ele>151.146319</ele>
        <time>2019-08-22T17:22:36.509Z</time>
      </trkpt>
      <trkpt lat="42.399902" lon="2.890654">
        <ele>152.124125</ele>
        <time>2019-08-22T17:22:42.728Z</time>
      </trkpt>
      <trkpt lat="42.399913" lon="2.891010">
        <ele>153.501444</ele>
        <time>2019-08-22T17:22:53.484Z</time>
      </trkpt>
      <trkpt lat="42.399952" lon="2.891169">
        <ele>154.227572</ele>
        <time>2019-08-22T17:22:57.902Z</time>
      </trkpt>
      <trkpt lat="42.400022" lon="2.891312">
        <ele>154.971138</ele>
        <time>2019-08-22T17:23:04.240Z</time>
      </trkpt>
      <trkpt lat="42.400223" lon="2.891493">
        <ele>156.387825</ele>
        <time>2019-08-22T17:23:12.343Z</time>
      </trkpt>
      <trkpt lat="42.400254" lon="2.891573">
        <ele>156.779381</ele>
        <time>2019-08-22T17:23:15.265Z</time>
      </trkpt>
      <trkpt lat="42.400273" lon="2.891623">
        <ele>157.023089</ele>
        <time>2019-08-22T17:23:18.108Z</time>
      </trkpt>
      <trkpt lat="42.400173" lon="2.891989">
        <ele>158.714427</ele>
        <time>2019-08-22T17:23:28.202Z</time>
      </trkpt>
      <trkpt lat="42.400047" lon="2.892243">
        <ele>160.040587</ele>
        <time>2019-08-22T17:23:37.383Z</time>
      </trkpt>
      <trkpt lat="42.400106" lon="2.892469">
        <ele>161.079479</ele>
        <time>2019-08-22T17:23:44.752Z</time>
      </trkpt>
      <trkpt lat="42.400439" lon="2.892921">
        <ele>163.846638</ele>
        <time>2019-08-22T17:24:02.809Z</time>
      </trkpt>
      <trkpt lat="42.400408" lon="2.893041">
        <ele>164.172274</ele>
        <time>2019-08-22T17:24:05.468Z</time>
      </trkpt>
      <trkpt lat="42.400215" lon="2.893210">
        <ele>164.907098</ele>
        <time>2019-08-22T17:24:14.510Z</time>
      </trkpt>
      <trkpt lat="42.399749" lon="2.893237">
        <ele>166.398354</ele>
        <time>2019-08-22T17:24:27.562Z</time>
      </trkpt>
      <trkpt lat="42.399603" lon="2.893413">
        <ele>167.023305</ele>
        <time>2019-08-22T17:24:32.388Z</time>
      </trkpt>
      <trkpt lat="42.399295" lon="2.894368">
        <ele>169.483722</ele>
        <time>2019-08-22T17:24:50.850Z</time>
      </trkpt>
      <trkpt lat="42.399279" lon="2.894552">
        <ele>169.768551</ele>
        <time>2019-08-22T17:24:54.167Z</time>
      </trkpt>
      <trkpt lat="42.399330" lon="2.894772">
        <ele>170.002885</ele>
        <time>2019-08-22T17:24:57.524Z</time>
      </trkpt>
      <trkpt lat="42.399485" lon="2.895012">
        <ele>170.326903</ele>
        <time>2019-08-22T17:25:02.484Z</time>
      </trkpt>
      <trkpt lat="42.399548" lon="2.895144">
        <ele>170.486627</ele>
        <time>2019-08-22T17:25:04.675Z</time>
      </trkpt>
      <trkpt lat="42.399960" lon="2.897268">
        <ele>172.836823</ele>
        <time>2019-08-22T17:25:36.227Z</time>
      </trkpt>
      <trkpt lat="42.400043" lon="2.897564">
        <ele>173.223203</ele>
        <time>2019-08-22T17:25:41.286Z</time>
      </trkpt>
      <trkpt lat="42.400226" lon="2.897811">
        <ele>173.650179</ele>
        <time>2019-08-22T17:25:46.913Z</time>
      </trkpt>
      <trkpt lat="42.402958" lon="2.900199">
        <ele>179.311978</ele>
        <time>2019-08-22T17:27:00.248Z</time>
      </trkpt>
      <trkpt lat="42.402942" lon="2.900293">
        <ele>179.402293</ele>
        <time>2019-08-22T17:27:06.524Z</time>
      </trkpt>
      <trkpt lat="42.402952" lon="2.900850">
        <ele>179.923935</ele>
        <time>2019-08-22T17:27:41.322Z</time>
      </trkpt>
      <trkpt lat="42.402835" lon="2.901210">
        <ele>180.292185</ele>
        <time>2019-08-22T17:28:05.604Z</time>
      </trkpt>
      <trkpt lat="42.402289" lon="2.901803">
        <ele>180.823048</ele>
        <time>2019-08-22T17:29:02.813Z</time>
      </trkpt>
      <trkpt lat="42.401885" lon="2.902479">
        <ele>180.719798</ele>
        <time>2019-08-22T17:29:53.856Z</time>
      </trkpt>
      <trkpt lat="42.401776" lon="2.902662">
        <ele>180.691884</ele>
        <time>2019-08-22T17:30:07.242Z</time>
      </trkpt>
      <trkpt lat="42.401438" lon="2.903656">
        <ele>180.507355</ele>
        <time>2019-08-22T17:31:10.028Z</time>
      </trkpt>
      <trkpt lat="42.401250" lon="2.904198">
        <ele>180.113464</ele>
        <time>2019-08-22T17:31:44.115Z</time>
      </trkpt>
      <trkpt lat="42.401086" lon="2.904275">
        <ele>179.958846</ele>
        <time>2019-08-22T17:31:57.153Z</time>
      </trkpt>
      <trkpt lat="42.400920" lon="2.904326">
        <ele>179.807219</ele>
        <time>2019-08-22T17:32:09.954Z</time>
      </trkpt>
      <trkpt lat="42.400414" lon="2.904232">
        <ele>179.352266</ele>
        <time>2019-08-22T17:32:48.648Z</time>
      </trkpt>
      <trkpt lat="42.400156" lon="2.904328">
        <ele>179.113928</ele>
        <time>2019-08-22T17:33:08.835Z</time>
      </trkpt>
      <trkpt lat="42.399751" lon="2.904600">
        <ele>178.749746</ele>
        <time>2019-08-22T17:33:43.151Z</time>
      </trkpt>
      <trkpt lat="42.399710" lon="2.904621">
        <ele>178.716470</ele>
        <time>2019-08-22T17:33:46.392Z</time>
      </trkpt>
      <trkpt lat="42.399586" lon="2.904687">
        <ele>178.615329</ele>
        <time>2019-08-22T17:33:56.608Z</time>
      </trkpt>
      <trkpt lat="42.399385" lon="2.904733">
        <ele>178.460583</ele>
        <time>2019-08-22T17:34:12.580Z</time>
      </trkpt>
      <trkpt lat="42.398975" lon="2.904982">
        <ele>178.119478</ele>
        <time>2019-08-22T17:34:46.937Z</time>
      </trkpt>
      <trkpt lat="42.398491" lon="2.905110">
        <ele>177.745124</ele>
        <time>2019-08-22T17:35:24.801Z</time>
      </trkpt>
      <trkpt lat="42.398220" lon="2.905139">
        <ele>177.556298</ele>
        <time>2019-08-22T17:35:45.498Z</time>
      </trkpt>
      <trkpt lat="42.398110" lon="2.905151">
        <ele>177.494238</ele>
        <time>2019-08-22T17:35:54.255Z</time>
      </trkpt>
      <trkpt lat="42.397824" lon="2.905322">
        <ele>177.318424</ele>
        <time>2019-08-22T17:36:18.457Z</time>
      </trkpt>
      <trkpt lat="42.397362" lon="2.905976">
        <ele>176.942567</ele>
        <time>2019-08-22T17:37:10.267Z</time>
      </trkpt>
      <trkpt lat="42.397198" lon="2.906351">
        <ele>176.761571</ele>
        <time>2019-08-22T17:37:35.193Z</time>
      </trkpt>
      <trkpt lat="42.396906" lon="2.906692">
        <ele>176.551565</ele>
        <time>2019-08-22T17:38:04.839Z</time>
      </trkpt>
      <trkpt lat="42.396227" lon="2.907121">
        <ele>176.187553</ele>
        <time>2019-08-22T17:39:02.824Z</time>
      </trkpt>
      <trkpt lat="42.396035" lon="2.907297">
        <ele>176.074912</ele>
        <time>2019-08-22T17:39:20.960Z</time>
      </trkpt>
      <trkpt lat="42.395956" lon="2.907535">
        <ele>175.981294</ele>
        <time>2019-08-22T17:39:36.028Z</time>
      </trkpt>
      <trkpt lat="42.395964" lon="2.907887">
        <ele>175.854944</ele>
        <time>2019-08-22T17:39:56.242Z</time>
      </trkpt>
      <trkpt lat="42.396155" lon="2.908456">
        <ele>175.558543</ele>
        <time>2019-08-22T17:40:32.129Z</time>
      </trkpt>
      <trkpt lat="42.396197" lon="2.908751">
        <ele>175.364740</ele>
        <time>2019-08-22T17:40:49.316Z</time>
      </trkpt>
      <trkpt lat="42.395916" lon="2.909206">
        <ele>174.982121</ele>
        <time>2019-08-22T17:41:23.294Z</time>
      </trkpt>
      <trkpt lat="42.395869" lon="2.909265">
        <ele>174.926138</ele>
        <time>2019-08-22T17:41:28.261Z</time>
      </trkpt>
      <trkpt lat="42.395735" lon="2.909288">
        <ele>174.808152</ele>
        <time>2019-08-22T17:41:29.974Z</time>
      </trkpt>
      <trkpt lat="42.395562" lon="2.909327">
        <ele>174.654957</ele>
        <time>2019-08-22T17:41:31.979Z</time>
      </trkpt>
      <trkpt lat="42.395269" lon="2.909942">
        <ele>174.182836</ele>
        <time>2019-08-22T17:41:38.531Z</time>
      </trkpt>
      <trkpt lat="42.395057" lon="2.910173">
        <ele>173.782770</ele>
        <time>2019-08-22T17:41:41.651Z</time>
      </trkpt>
      <trkpt lat="42.394945" lon="2.910376">
        <ele>173.489747</ele>
        <time>2019-08-22T17:41:43.755Z</time>
      </trkpt>
      <trkpt lat="42.394810" lon="2.910724">
        <ele>173.035180</ele>
        <time>2019-08-22T17:41:47.285Z</time>
      </trkpt>
      <trkpt lat="42.394787" lon="2.910785">
        <ele>172.955978</ele>
        <time>2019-08-22T17:41:47.787Z</time>
      </trkpt>
      <trkpt lat="42.394638" lon="2.910836">
        <ele>172.715330</ele>
        <time>2019-08-22T17:41:49.618Z</time>
      </trkpt>
      <trkpt lat="42.394474" lon="2.910754">
        <ele>172.441585</ele>
        <time>2019-08-22T17:41:51.738Z</time>
      </trkpt>
      <trkpt lat="42.394079" lon="2.911170">
        <ele>171.658022</ele>
        <time>2019-08-22T17:41:57.485Z</time>
      </trkpt>
      <trkpt lat="42.394070" lon="2.911194">
        <ele>171.626895</ele>
        <time>2019-08-22T17:41:57.677Z</time>
      </trkpt>
      <trkpt lat="42.393974" lon="2.911463">
        <ele>171.258073</ele>
        <time>2019-08-22T17:42:00.078Z</time>
      </trkpt>
      <trkpt lat="42.393226" lon="2.912240">
        <ele>169.122267</ele>
        <time>2019-08-22T17:42:10.329Z</time>
      </trkpt>
      <trkpt lat="42.393106" lon="2.912494">
        <ele>168.617774</ele>
        <time>2019-08-22T17:42:12.796Z</time>
      </trkpt>
      <trkpt lat="42.392989" lon="2.912675">
        <ele>168.215320</ele>
        <time>2019-08-22T17:42:14.620Z</time>
      </trkpt>
      <trkpt lat="42.392837" lon="2.912752">
        <ele>167.847656</ele>
        <time>2019-08-22T17:42:16.404Z</time>
      </trkpt>
      <trkpt lat="42.392454" lon="2.913248">
        <ele>166.505515</ele>
        <time>2019-08-22T17:42:21.919Z</time>
      </trkpt>
      <trkpt lat="42.391784" lon="2.913928">
        <ele>164.169898</ele>
        <time>2019-08-22T17:42:30.462Z</time>
      </trkpt>
      <trkpt lat="42.391590" lon="2.914194">
        <ele>163.399756</ele>
        <time>2019-08-22T17:42:33.361Z</time>
      </trkpt>
      <trkpt lat="42.391403" lon="2.914719">
        <ele>162.200750</ele>
        <time>2019-08-22T17:42:37.935Z</time>
      </trkpt>
      <trkpt lat="42.391343" lon="2.915407">
        <ele>160.832319</ele>
        <time>2019-08-22T17:42:43.326Z</time>
      </trkpt>
      <trkpt lat="42.391009" lon="2.916008">
        <ele>159.346631</ele>
        <time>2019-08-22T17:42:49.153Z</time>
      </trkpt>
      <trkpt lat="42.390771" lon="2.916212">
        <ele>158.593272</ele>
        <time>2019-08-22T17:42:52.066Z</time>
      </trkpt>
      <trkpt lat="42.390634" lon="2.916443">
        <ele>158.008073</ele>
        <time>2019-08-22T17:42:54.341Z</time>
      </trkpt>
      <trkpt lat="42.390556" lon="2.916690">
        <ele>157.477447</ele>
        <time>2019-08-22T17:42:56.449Z</time>
      </trkpt>
      <trkpt lat="42.390526" lon="2.916843">
        <ele>157.142754</ele>
        <time>2019-08-22T17:42:57.663Z</time>
      </trkpt>
      <trkpt lat="42.390451" lon="2.916927">
        <ele>156.860941</ele>
        <time>2019-08-22T17:42:58.632Z</time>
      </trkpt>
      <trkpt lat="42.389734" lon="2.917337">
        <ele>154.607454</ele>
        <time>2019-08-22T17:43:06.708Z</time>
      </trkpt>
      <trkpt lat="42.389127" lon="2.917530">
        <ele>152.802189</ele>
        <time>2019-08-22T17:43:13.030Z</time>
      </trkpt>
      <trkpt lat="42.388761" lon="2.917531">
        <ele>151.770660</ele>
        <time>2019-08-22T17:43:16.808Z</time>
      </trkpt>
      <trkpt lat="42.388135" lon="2.917423">
        <ele>150.050474</ele>
        <time>2019-08-22T17:43:23.362Z</time>
      </trkpt>
      <trkpt lat="42.387079" lon="2.917770">
        <ele>147.145155</ele>
        <time>2019-08-22T17:43:34.667Z</time>
      </trkpt>
      <trkpt lat="42.386525" lon="2.917866">
        <ele>145.994549</ele>
        <time>2019-08-22T17:43:40.680Z</time>
      </trkpt>
      <trkpt lat="42.386234" lon="2.917948">
        <ele>145.382212</ele>
        <time>2019-08-22T17:43:43.916Z</time>
      </trkpt>
      <trkpt lat="42.385880" lon="2.918396">
        <ele>144.383941</ele>
        <time>2019-08-22T17:43:49.333Z</time>
      </trkpt>
      <trkpt lat="42.385719" lon="2.918613">
        <ele>143.915926</ele>
        <time>2019-08-22T17:43:51.862Z</time>
      </trkpt>
      <trkpt lat="42.385490" lon="2.918691">
        <ele>143.499921</ele>
        <time>2019-08-22T17:43:54.556Z</time>
      </trkpt>
      <trkpt lat="42.385103" lon="2.918654">
        <ele>143.003559</ele>
        <time>2019-08-22T17:43:58.961Z</time>
      </trkpt>
      <trkpt lat="42.384860" lon="2.918709">
        <ele>142.688350</ele>
        <time>2019-08-22T17:44:01.845Z</time>
      </trkpt>
      <trkpt lat="42.384251" lon="2.919073">
        <ele>141.836641</ele>
        <time>2019-08-22T17:44:09.897Z</time>
      </trkpt>
      <trkpt lat="42.383653" lon="2.919347">
        <ele>140.947338</ele>
        <time>2019-08-22T17:44:17.497Z</time>
      </trkpt>
      <trkpt lat="42.383304" lon="2.919585">
        <ele>140.304383</ele>
        <time>2019-08-22T17:44:22.096Z</time>
      </trkpt>
      <trkpt lat="42.382575" lon="2.919795">
        <ele>139.078086</ele>
        <time>2019-08-22T17:44:30.587Z</time>
      </trkpt>
      <trkpt lat="42.382032" lon="2.920035">
        <ele>137.938525</ele>
        <time>2019-08-22T17:44:36.841Z</time>
      </trkpt>
      <trkpt lat="42.381502" lon="2.920174">
        <ele>136.231115</ele>
        <time>2019-08-22T17:44:42.491Z</time>
      </trkpt>
      <trkpt lat="42.380719" lon="2.920257">
        <ele>133.747121</ele>
        <time>2019-08-22T17:44:50.346Z</time>
      </trkpt>
      <trkpt lat="42.379698" lon="2.920517">
        <ele>129.971244</ele>
        <time>2019-08-22T17:45:00.485Z</time>
      </trkpt>
      <trkpt lat="42.379343" lon="2.920668">
        <ele>128.532760</ele>
        <time>2019-08-22T17:45:04.109Z</time>
      </trkpt>
      <trkpt lat="42.379092" lon="2.920666">
        <ele>127.562444</ele>
        <time>2019-08-22T17:45:06.563Z</time>
      </trkpt>
      <trkpt lat="42.378855" lon="2.920552">
        <ele>126.590147</ele>
        <time>2019-08-22T17:45:09.024Z</time>
      </trkpt>
      <trkpt lat="42.378633" lon="2.920341">
        <ele>125.571438</ele>
        <time>2019-08-22T17:45:11.700Z</time>
      </trkpt>
      <trkpt lat="42.377099" lon="2.919626">
        <ele>120.391966</ele>
        <time>2019-08-22T17:45:28.091Z</time>
      </trkpt>
      <trkpt lat="42.376975" lon="2.919676">
        <ele>119.978906</ele>
        <time>2019-08-22T17:45:29.402Z</time>
      </trkpt>
      <trkpt lat="42.376935" lon="2.919692">
        <ele>119.883762</ele>
        <time>2019-08-22T17:45:29.868Z</time>
      </trkpt>
      <trkpt lat="42.376640" lon="2.919753">
        <ele>119.220261</ele>
        <time>2019-08-22T17:45:33.070Z</time>
      </trkpt>
      <trkpt lat="42.376188" lon="2.919747">
        <ele>118.215252</ele>
        <time>2019-08-22T17:45:39.988Z</time>
      </trkpt>
      <trkpt lat="42.375908" lon="2.919625">
        <ele>117.561255</ele>
        <time>2019-08-22T17:45:44.504Z</time>
      </trkpt>
      <trkpt lat="42.375794" lon="2.919515">
        <ele>117.249988</ele>
        <time>2019-08-22T17:45:46.715Z</time>
      </trkpt>
      <trkpt lat="42.375521" lon="2.919677">
        <ele>116.587249</ele>
        <time>2019-08-22T17:45:51.420Z</time>
      </trkpt>
      <trkpt lat="42.375339" lon="2.919833">
        <ele>116.108294</ele>
        <time>2019-08-22T17:45:54.922Z</time>
      </trkpt>
      <trkpt lat="42.375318" lon="2.919921">
        <ele>115.962297</ele>
        <time>2019-08-22T17:45:56.084Z</time>
      </trkpt>
      <trkpt lat="42.374880" lon="2.920058">
        <ele>115.342254</ele>
        <time>2019-08-22T17:46:03.311Z</time>
      </trkpt>
      <trkpt lat="42.374779" lon="2.920137">
        <ele>115.181361</ele>
        <time>2019-08-22T17:46:05.213Z</time>
      </trkpt>
      <trkpt lat="42.374596" lon="2.920504">
        <ele>114.730194</ele>
        <time>2019-08-22T17:46:10.646Z</time>
      </trkpt>
      <trkpt lat="42.374573" lon="2.920601">
        <ele>114.626390</ele>
        <time>2019-08-22T17:46:11.871Z</time>
      </trkpt>
      <trkpt lat="42.374733" lon="2.920963">
        <ele>114.196553</ele>
        <time>2019-08-22T17:46:17.176Z</time>
      </trkpt>
      <trkpt lat="42.374430" lon="2.921132">
        <ele>113.744544</ele>
        <time>2019-08-22T17:46:22.697Z</time>
      </trkpt>
      <trkpt lat="42.374480" lon="2.921459">
        <ele>113.493672</ele>
        <time>2019-08-22T17:46:26.917Z</time>
      </trkpt>
      <trkpt lat="42.374449" lon="2.921886">
        <ele>113.506632</ele>
        <time>2019-08-22T17:46:32.570Z</time>
      </trkpt>
      <trkpt lat="42.374316" lon="2.922213">
        <ele>113.517908</ele>
        <time>2019-08-22T17:46:37.583Z</time>
      </trkpt>
      <trkpt lat="42.374279" lon="2.922509">
        <ele>113.526976</ele>
        <time>2019-08-22T17:46:41.740Z</time>
      </trkpt>
      <trkpt lat="42.374185" lon="2.922849">
        <ele>113.537942</ele>
        <time>2019-08-22T17:46:46.603Z</time>
      </trkpt>
      <trkpt lat="42.374078" lon="2.923268">
        <ele>113.551333</ele>
        <time>2019-08-22T17:46:54.306Z</time>
      </trkpt>
      <trkpt lat="42.373556" lon="2.924330">
        <ele>115.311163</ele>
        <time>2019-08-22T17:47:19.968Z</time>
      </trkpt>
      <trkpt lat="42.373446" lon="2.924426">
        <ele>115.681722</ele>
        <time>2019-08-22T17:47:23.920Z</time>
      </trkpt>
      <trkpt lat="42.373348" lon="2.924397">
        <ele>115.965739</ele>
        <time>2019-08-22T17:47:26.512Z</time>
      </trkpt>
      <trkpt lat="42.373400" lon="2.924656">
        <ele>116.527126</ele>
        <time>2019-08-22T17:47:32.446Z</time>
      </trkpt>
      <trkpt lat="42.373429" lon="2.924870">
        <ele>116.982208</ele>
        <time>2019-08-22T17:47:36.236Z</time>
      </trkpt>
      <trkpt lat="42.373271" lon="2.926798">
        <ele>121.073320</ele>
        <time>2019-08-22T17:48:21.918Z</time>
      </trkpt>
      <trkpt lat="42.373113" lon="2.927312">
        <ele>122.254241</ele>
        <time>2019-08-22T17:48:32.929Z</time>
      </trkpt>
      <trkpt lat="42.372680" lon="2.928472">
        <ele>123.186777</ele>
        <time>2019-08-22T17:48:51.783Z</time>
      </trkpt>
      <trkpt lat="42.372417" lon="2.929175">
        <ele>122.294953</ele>
        <time>2019-08-22T17:48:58.863Z</time>
      </trkpt>
      <trkpt lat="42.372277" lon="2.929524">
        <ele>121.845497</ele>
        <time>2019-08-22T17:49:02.063Z</time>
      </trkpt>
      <trkpt lat="42.370307" lon="2.932091">
        <ele>111.469356</ele>
        <time>2019-08-22T17:49:28.583Z</time>
      </trkpt>
      <trkpt lat="42.370138" lon="2.932520">
        <ele>109.723161</ele>
        <time>2019-08-22T17:49:31.977Z</time>
      </trkpt>
      <trkpt lat="42.370175" lon="2.932804">
        <ele>108.687379</ele>
        <time>2019-08-22T17:49:33.984Z</time>
      </trkpt>
      <trkpt lat="42.372527" lon="2.936611">
        <ele>91.672513</ele>
        <time>2019-08-22T17:50:08.473Z</time>
      </trkpt>
      <trkpt lat="42.372715" lon="2.936715">
        <ele>90.930023</ele>
        <time>2019-08-22T17:50:10.582Z</time>
      </trkpt>
      <trkpt lat="42.373157" lon="2.936651">
        <ele>89.304901</ele>
        <time>2019-08-22T17:50:15.449Z</time>
      </trkpt>
      <trkpt lat="42.373639" lon="2.936930">
        <ele>89.429618</ele>
        <time>2019-08-22T17:50:22.154Z</time>
      </trkpt>
      <trkpt lat="42.373786" lon="2.937104">
        <ele>89.618233</ele>
        <time>2019-08-22T17:50:25.223Z</time>
      </trkpt>
      <trkpt lat="42.374000" lon="2.938205">
        <ele>90.430600</ele>
        <time>2019-08-22T17:50:42.983Z</time>
      </trkpt>
      <trkpt lat="42.373970" lon="2.938505">
        <ele>90.646620</ele>
        <time>2019-08-22T17:50:48.484Z</time>
      </trkpt>
      <trkpt lat="42.372929" lon="2.941280">
        <ele>97.455199</ele>
        <time>2019-08-22T17:51:51.868Z</time>
      </trkpt>
      <trkpt lat="42.371073" lon="2.948347">
        <ele>113.500612</ele>
        <time>2019-08-22T17:54:22.028Z</time>
      </trkpt>
      <trkpt lat="42.370896" lon="2.948982">
        <ele>114.184161</ele>
        <time>2019-08-22T17:54:32.050Z</time>
      </trkpt>
      <trkpt lat="42.370795" lon="2.949185">
        <ele>114.430654</ele>
        <time>2019-08-22T17:54:35.413Z</time>
      </trkpt>
      <trkpt lat="42.370415" lon="2.949646">
        <ele>115.126306</ele>
        <time>2019-08-22T17:54:43.910Z</time>
      </trkpt>
      <trkpt lat="42.370335" lon="2.949735">
        <ele>115.165646</ele>
        <time>2019-08-22T17:54:45.482Z</time>
      </trkpt>
      <trkpt lat="42.370308" lon="2.949767">
        <ele>115.135417</ele>
        <time>2019-08-22T17:54:46.010Z</time>
      </trkpt>
      <trkpt lat="42.368256" lon="2.952244">
        <ele>111.812187</ele>
        <time>2019-08-22T17:55:19.400Z</time>
      </trkpt>
      <trkpt lat="42.368142" lon="2.952528">
        <ele>111.378186</ele>
        <time>2019-08-22T17:55:21.937Z</time>
      </trkpt>
      <trkpt lat="42.367452" lon="2.954920">
        <ele>106.734372</ele>
        <time>2019-08-22T17:55:41.467Z</time>
      </trkpt>
      <trkpt lat="42.366807" lon="2.957071">
        <ele>103.106558</ele>
        <time>2019-08-22T17:56:00.237Z</time>
      </trkpt>
      <trkpt lat="42.366719" lon="2.957295">
        <ele>102.745960</ele>
        <time>2019-08-22T17:56:02.393Z</time>
      </trkpt>
      <trkpt lat="42.365836" lon="2.958452">
        <ele>100.456550</ele>
        <time>2019-08-22T17:56:16.498Z</time>
      </trkpt>
      <trkpt lat="42.364950" lon="2.959152">
        <ele>98.455765</ele>
        <time>2019-08-22T17:56:27.757Z</time>
      </trkpt>
      <trkpt lat="42.364659" lon="2.959470">
        <ele>97.449171</ele>
        <time>2019-08-22T17:56:31.739Z</time>
      </trkpt>
      <trkpt lat="42.364493" lon="2.959797">
        <ele>96.660234</ele>
        <time>2019-08-22T17:56:34.837Z</time>
      </trkpt>
      <trkpt lat="42.364092" lon="2.960586">
        <ele>94.755934</ele>
        <time>2019-08-22T17:56:42.167Z</time>
      </trkpt>
      <trkpt lat="42.363694" lon="2.961368">
        <ele>92.549225</ele>
        <time>2019-08-22T17:56:49.270Z</time>
      </trkpt>
      <trkpt lat="42.363507" lon="2.961632">
        <ele>91.611874</ele>
        <time>2019-08-22T17:56:51.972Z</time>
      </trkpt>
      <trkpt lat="42.362420" lon="2.962888">
        <ele>86.770546</ele>
        <time>2019-08-22T17:57:06.177Z</time>
      </trkpt>
      <trkpt lat="42.362324" lon="2.963053">
        <ele>86.290548</ele>
        <time>2019-08-22T17:57:07.690Z</time>
      </trkpt>
      <trkpt lat="42.361562" lon="2.966083">
        <ele>79.614818</ele>
        <time>2019-08-22T17:57:32.193Z</time>
      </trkpt>
      <trkpt lat="42.361515" lon="2.968174">
        <ele>76.607066</ele>
        <time>2019-08-22T17:57:49.292Z</time>
      </trkpt>
      <trkpt lat="42.361511" lon="2.968360">
        <ele>76.410905</ele>
        <time>2019-08-22T17:57:50.870Z</time>
      </trkpt>
      <trkpt lat="42.361483" lon="2.970754">
        <ele>74.517401</ele>
        <time>2019-08-22T17:58:12.711Z</time>
      </trkpt>
      <trkpt lat="42.361513" lon="2.971153">
        <ele>74.305244</ele>
        <time>2019-08-22T17:58:16.678Z</time>
      </trkpt>
      <trkpt lat="42.361637" lon="2.971466">
        <ele>74.117373</ele>
        <time>2019-08-22T17:58:20.218Z</time>
      </trkpt>
      <trkpt lat="42.362569" lon="2.973070">
        <ele>73.530002</ele>
        <time>2019-08-22T17:58:40.649Z</time>
      </trkpt>
      <trkpt lat="42.362699" lon="2.973299">
        <ele>73.468145</ele>
        <time>2019-08-22T17:58:43.587Z</time>
      </trkpt>
      <trkpt lat="42.362719" lon="2.973413">
        <ele>73.443048</ele>
        <time>2019-08-22T17:58:44.855Z</time>
      </trkpt>
      <trkpt lat="42.362771" lon="2.973649">
        <ele>73.390297</ele>
        <time>2019-08-22T17:58:47.402Z</time>
      </trkpt>
      <trkpt lat="42.362798" lon="2.973771">
        <ele>73.363018</ele>
        <time>2019-08-22T17:58:48.751Z</time>
      </trkpt>
      <trkpt lat="42.362901" lon="2.973852">
        <ele>73.353518</ele>
        <time>2019-08-22T17:58:50.539Z</time>
      </trkpt>
      <trkpt lat="42.363134" lon="2.974044">
        <ele>73.407067</ele>
        <time>2019-08-22T17:58:54.469Z</time>
      </trkpt>
      <trkpt lat="42.363193" lon="2.974142">
        <ele>73.425402</ele>
        <time>2019-08-22T17:58:55.891Z</time>
      </trkpt>
      <trkpt lat="42.363280" lon="2.974293">
        <ele>73.453175</ele>
        <time>2019-08-22T17:58:57.961Z</time>
      </trkpt>
      <trkpt lat="42.363468" lon="2.974615">
        <ele>73.512699</ele>
        <time>2019-08-22T17:59:02.665Z</time>
      </trkpt>
      <trkpt lat="42.364112" lon="2.975721">
        <ele>73.669758</ele>
        <time>2019-08-22T17:59:20.163Z</time>
      </trkpt>
      <trkpt lat="42.364887" lon="2.977053">
        <ele>73.348544</ele>
        <time>2019-08-22T17:59:37.841Z</time>
      </trkpt>
      <trkpt lat="42.365065" lon="2.977359">
        <ele>73.274759</ele>
        <time>2019-08-22T17:59:41.383Z</time>
      </trkpt>
      <trkpt lat="42.365712" lon="2.978449">
        <ele>73.505574</ele>
        <time>2019-08-22T17:59:54.827Z</time>
      </trkpt>
      <trkpt lat="42.366055" lon="2.979026">
        <ele>73.673818</ele>
        <time>2019-08-22T18:00:04.340Z</time>
      </trkpt>
      <trkpt lat="42.366113" lon="2.979128">
        <ele>73.703058</ele>
        <time>2019-08-22T18:00:06.336Z</time>
      </trkpt>
      <trkpt lat="42.366491" lon="2.979768">
        <ele>74.681509</ele>
        <time>2019-08-22T18:00:19.301Z</time>
      </trkpt>
      <trkpt lat="42.366745" lon="2.980205">
        <ele>75.799903</ele>
        <time>2019-08-22T18:00:29.243Z</time>
      </trkpt>
      <trkpt lat="42.366834" lon="2.980350">
        <ele>76.179075</ele>
        <time>2019-08-22T18:00:33.165Z</time>
      </trkpt>
      <trkpt lat="42.367022" lon="2.980590">
        <ele>76.882633</ele>
        <time>2019-08-22T18:00:39.881Z</time>
      </trkpt>
      <trkpt lat="42.367309" lon="2.980783">
        <ele>77.755091</ele>
        <time>2019-08-22T18:00:49.190Z</time>
      </trkpt>
      <trkpt lat="42.367637" lon="2.980965">
        <ele>78.731653</ele>
        <time>2019-08-22T18:00:59.619Z</time>
      </trkpt>
      <trkpt lat="42.368008" lon="2.981153">
        <ele>80.161977</ele>
        <time>2019-08-22T18:01:10.984Z</time>
      </trkpt>
      <trkpt lat="42.368334" lon="2.981309">
        <ele>81.410421</ele>
        <time>2019-08-22T18:01:20.880Z</time>
      </trkpt>
      <trkpt lat="42.368596" lon="2.981437">
        <ele>82.416127</ele>
        <time>2019-08-22T18:01:27.808Z</time>
      </trkpt>
      <trkpt lat="42.368614" lon="2.981508">
        <ele>82.616365</ele>
        <time>2019-08-22T18:01:29.624Z</time>
      </trkpt>
      <trkpt lat="42.368649" lon="2.981798">
        <ele>83.400215</ele>
        <time>2019-08-22T18:01:35.770Z</time>
      </trkpt>
      <trkpt lat="42.368668" lon="2.981833">
        <ele>83.516073</ele>
        <time>2019-08-22T18:01:36.605Z</time>
      </trkpt>
      <trkpt lat="42.368689" lon="2.982129">
        <ele>84.309307</ele>
        <time>2019-08-22T18:01:44.616Z</time>
      </trkpt>
      <trkpt lat="42.368739" lon="2.982839">
        <ele>86.163712</ele>
        <time>2019-08-22T18:01:59.991Z</time>
      </trkpt>
      <trkpt lat="42.368747" lon="2.982891">
        <ele>86.298795</ele>
        <time>2019-08-22T18:02:01.557Z</time>
      </trkpt>
      <trkpt lat="42.368757" lon="2.982939">
        <ele>86.425629</ele>
        <time>2019-08-22T18:02:02.642Z</time>
      </trkpt>
      <trkpt lat="42.368767" lon="2.982970">
        <ele>86.511655</ele>
        <time>2019-08-22T18:02:03.892Z</time>
      </trkpt>
      <trkpt lat="42.369023" lon="2.983380">
        <ele>87.876853</ele>
        <time>2019-08-22T18:02:16.661Z</time>
      </trkpt>
      <trkpt lat="42.369057" lon="2.983437">
        <ele>88.063162</ele>
        <time>2019-08-22T18:02:18.560Z</time>
      </trkpt>
      <trkpt lat="42.369088" lon="2.983491">
        <ele>88.237078</ele>
        <time>2019-08-22T18:02:19.789Z</time>
      </trkpt>
      <trkpt lat="42.369194" lon="2.983688">
        <ele>88.856869</ele>
        <time>2019-08-22T18:02:24.457Z</time>
      </trkpt>
      <trkpt lat="42.369218" lon="2.983741">
        <ele>89.014961</ele>
        <time>2019-08-22T18:02:26.208Z</time>
      </trkpt>
      <trkpt lat="42.369241" lon="2.983796">
        <ele>89.175687</ele>
        <time>2019-08-22T18:02:28.090Z</time>
      </trkpt>
      <trkpt lat="42.369371" lon="2.984318">
        <ele>90.576614</ele>
        <time>2019-08-22T18:02:38.891Z</time>
      </trkpt>
      <trkpt lat="42.369346" lon="2.984874">
        <ele>91.385840</ele>
        <time>2019-08-22T18:02:48.877Z</time>
      </trkpt>
      <trkpt lat="42.369328" lon="2.984911">
        <ele>91.388631</ele>
        <time>2019-08-22T18:02:50.023Z</time>
      </trkpt>
      <trkpt lat="42.369308" lon="2.984947">
        <ele>91.391469</ele>
        <time>2019-08-22T18:02:50.404Z</time>
      </trkpt>
      <trkpt lat="42.368936" lon="2.985465">
        <ele>91.436980</ele>
        <time>2019-08-22T18:03:00.439Z</time>
      </trkpt>
      <trkpt lat="42.368772" lon="2.985576">
        <ele>91.452616</ele>
        <time>2019-08-22T18:03:03.425Z</time>
      </trkpt>
      <trkpt lat="42.367523" lon="2.986043">
        <ele>90.399245</ele>
        <time>2019-08-22T18:03:18.369Z</time>
      </trkpt>
      <trkpt lat="42.367080" lon="2.986354">
        <ele>89.182307</ele>
        <time>2019-08-22T18:03:23.663Z</time>
      </trkpt>
      <trkpt lat="42.366866" lon="2.986588">
        <ele>88.511439</ele>
        <time>2019-08-22T18:03:26.529Z</time>
      </trkpt>
      <trkpt lat="42.366488" lon="2.987232">
        <ele>86.955467</ele>
        <time>2019-08-22T18:03:32.785Z</time>
      </trkpt>
      <trkpt lat="42.365774" lon="2.988055">
        <ele>83.101857</ele>
        <time>2019-08-22T18:03:42.206Z</time>
      </trkpt>
      <trkpt lat="42.364780" lon="2.989844">
        <ele>75.172837</ele>
        <time>2019-08-22T18:03:57.763Z</time>
      </trkpt>
      <trkpt lat="42.364741" lon="2.989932">
        <ele>74.758685</ele>
        <time>2019-08-22T18:03:58.444Z</time>
      </trkpt>
      <trkpt lat="42.364699" lon="2.990027">
        <ele>74.311876</ele>
        <time>2019-08-22T18:03:59.171Z</time>
      </trkpt>
      <trkpt lat="42.364580" lon="2.990336">
        <ele>72.905537</ele>
        <time>2019-08-22T18:04:01.621Z</time>
      </trkpt>
      <trkpt lat="42.364554" lon="2.990532">
        <ele>72.101845</ele>
        <time>2019-08-22T18:04:02.959Z</time>
      </trkpt>
      <trkpt lat="42.364801" lon="2.991673">
        <ele>67.842521</ele>
        <time>2019-08-22T18:04:11.162Z</time>
      </trkpt>
      <trkpt lat="42.364773" lon="2.991945">
        <ele>66.962351</ele>
        <time>2019-08-22T18:04:13.009Z</time>
      </trkpt>
      <trkpt lat="42.364238" lon="2.992880">
        <ele>63.172189</ele>
        <time>2019-08-22T18:04:21.639Z</time>
      </trkpt>
      <trkpt lat="42.363548" lon="2.994369">
        <ele>59.516632</ele>
        <time>2019-08-22T18:04:35.077Z</time>
      </trkpt>
      <trkpt lat="42.362800" lon="2.995570">
        <ele>57.223403</ele>
        <time>2019-08-22T18:04:48.042Z</time>
      </trkpt>
      <trkpt lat="42.362636" lon="2.995959">
        <ele>56.857076</ele>
        <time>2019-08-22T18:04:51.928Z</time>
      </trkpt>
      <trkpt lat="42.362358" lon="2.996539">
        <ele>56.291598</ele>
        <time>2019-08-22T18:04:58.083Z</time>
      </trkpt>
      <trkpt lat="42.362275" lon="2.996701">
        <ele>56.130353</ele>
        <time>2019-08-22T18:04:59.883Z</time>
      </trkpt>
      <trkpt lat="42.362200" lon="2.996809">
        <ele>56.009124</ele>
        <time>2019-08-22T18:05:01.260Z</time>
      </trkpt>
      <trkpt lat="42.362088" lon="2.996920">
        <ele>55.855454</ele>
        <time>2019-08-22T18:05:03.125Z</time>
      </trkpt>
      <trkpt lat="42.361916" lon="2.997073">
        <ele>55.719246</ele>
        <time>2019-08-22T18:05:05.959Z</time>
      </trkpt>
      <trkpt lat="42.361304" lon="2.997500">
        <ele>55.989812</ele>
        <time>2019-08-22T18:05:16.469Z</time>
      </trkpt>
      <trkpt lat="42.360970" lon="2.997646">
        <ele>56.127735</ele>
        <time>2019-08-22T18:05:22.826Z</time>
      </trkpt>
      <trkpt lat="42.360786" lon="2.998144">
        <ele>56.289404</ele>
        <time>2019-08-22T18:05:33.052Z</time>
      </trkpt>
      <trkpt lat="42.360625" lon="2.998720">
        <ele>56.322334</ele>
        <time>2019-08-22T18:05:43.795Z</time>
      </trkpt>
      <trkpt lat="42.360616" lon="2.998923">
        <ele>56.251248</ele>
        <time>2019-08-22T18:05:46.667Z</time>
      </trkpt>
      <trkpt lat="42.360641" lon="2.999178">
        <ele>56.161332</ele>
        <time>2019-08-22T18:05:50.520Z</time>
      </trkpt>
      <trkpt lat="42.360658" lon="2.999301">
        <ele>56.117592</ele>
        <time>2019-08-22T18:05:52.076Z</time>
      </trkpt>
      <trkpt lat="42.360652" lon="2.999406">
        <ele>56.080779</ele>
        <time>2019-08-22T18:05:53.504Z</time>
      </trkpt>
      <trkpt lat="42.360654" lon="2.999481">
        <ele>56.054546</ele>
        <time>2019-08-22T18:05:54.727Z</time>
      </trkpt>
      <trkpt lat="42.360677" lon="2.999593">
        <ele>56.013913</ele>
        <time>2019-08-22T18:05:56.367Z</time>
      </trkpt>
      <trkpt lat="42.360765" lon="2.999691">
        <ele>55.960002</ele>
        <time>2019-08-22T18:05:58.303Z</time>
      </trkpt>
      <trkpt lat="42.360790" lon="2.999998">
        <ele>55.852041</ele>
        <time>2019-08-22T18:06:02.528Z</time>
      </trkpt>
      <trkpt lat="42.360803" lon="3.000410">
        <ele>55.707896</ele>
        <time>2019-08-22T18:06:07.799Z</time>
      </trkpt>
      <trkpt lat="42.360691" lon="3.000663">
        <ele>55.604803</ele>
        <time>2019-08-22T18:06:10.346Z</time>
      </trkpt>
      <trkpt lat="42.360568" lon="3.001176">
        <ele>55.334443</ele>
        <time>2019-08-22T18:06:15.321Z</time>
      </trkpt>
      <trkpt lat="42.360518" lon="3.001350">
        <ele>55.229590</ele>
        <time>2019-08-22T18:06:17.089Z</time>
      </trkpt>
      <trkpt lat="42.360483" lon="3.001484">
        <ele>55.149768</ele>
        <time>2019-08-22T18:06:18.292Z</time>
      </trkpt>
      <trkpt lat="42.360471" lon="3.001543">
        <ele>55.115400</ele>
        <time>2019-08-22T18:06:18.798Z</time>
      </trkpt>
      <trkpt lat="42.360469" lon="3.001573">
        <ele>55.098483</ele>
        <time>2019-08-22T18:06:19.040Z</time>
      </trkpt>
      <trkpt lat="42.360471" lon="3.001642">
        <ele>55.059700</ele>
        <time>2019-08-22T18:06:19.658Z</time>
      </trkpt>
      <trkpt lat="42.360477" lon="3.001712">
        <ele>55.020123</ele>
        <time>2019-08-22T18:06:20.342Z</time>
      </trkpt>
      <trkpt lat="42.360498" lon="3.001811">
        <ele>54.962276</ele>
        <time>2019-08-22T18:06:21.284Z</time>
      </trkpt>
      <trkpt lat="42.360532" lon="3.002007">
        <ele>54.849203</ele>
        <time>2019-08-22T18:06:22.971Z</time>
      </trkpt>
      <trkpt lat="42.360554" lon="3.002147">
        <ele>54.768817</ele>
        <time>2019-08-22T18:06:24.212Z</time>
      </trkpt>
      <trkpt lat="42.360572" lon="3.002359">
        <ele>54.648968</ele>
        <time>2019-08-22T18:06:26.131Z</time>
      </trkpt>
      <trkpt lat="42.360601" lon="3.002775">
        <ele>54.414293</ele>
        <time>2019-08-22T18:06:29.905Z</time>
      </trkpt>
      <trkpt lat="42.360624" lon="3.003197">
        <ele>54.191624</ele>
        <time>2019-08-22T18:06:34.587Z</time>
      </trkpt>
      <trkpt lat="42.360634" lon="3.003301">
        <ele>54.251472</ele>
        <time>2019-08-22T18:06:35.923Z</time>
      </trkpt>
      <trkpt lat="42.360646" lon="3.003421">
        <ele>54.320575</ele>
        <time>2019-08-22T18:06:37.555Z</time>
      </trkpt>
      <trkpt lat="42.360934" lon="3.004117">
        <ele>54.775785</ele>
        <time>2019-08-22T18:06:48.582Z</time>
      </trkpt>
      <trkpt lat="42.361202" lon="3.005388">
        <ele>55.530032</ele>
        <time>2019-08-22T18:07:06.971Z</time>
      </trkpt>
      <trkpt lat="42.361734" lon="3.006831">
        <ele>56.637086</ele>
        <time>2019-08-22T18:07:29.179Z</time>
      </trkpt>
      <trkpt lat="42.361874" lon="3.007058">
        <ele>56.841749</ele>
        <time>2019-08-22T18:07:33.237Z</time>
      </trkpt>
      <trkpt lat="42.362353" lon="3.007594">
        <ele>57.464880</ele>
        <time>2019-08-22T18:07:44.774Z</time>
      </trkpt>
      <trkpt lat="42.363077" lon="3.008092">
        <ele>58.413215</ele>
        <time>2019-08-22T18:07:59.633Z</time>
      </trkpt>
      <trkpt lat="42.363280" lon="3.008293">
        <ele>58.706922</ele>
        <time>2019-08-22T18:08:04.827Z</time>
      </trkpt>
      <trkpt lat="42.363693" lon="3.009042">
        <ele>59.632667</ele>
        <time>2019-08-22T18:08:19.175Z</time>
      </trkpt>
      <trkpt lat="42.363954" lon="3.009657">
        <ele>60.716011</ele>
        <time>2019-08-22T18:08:30.392Z</time>
      </trkpt>
      <trkpt lat="42.363977" lon="3.009723">
        <ele>60.827476</ele>
        <time>2019-08-22T18:08:31.654Z</time>
      </trkpt>
      <trkpt lat="42.364008" lon="3.009813">
        <ele>60.979155</ele>
        <time>2019-08-22T18:08:33.603Z</time>
      </trkpt>
      <trkpt lat="42.364500" lon="3.012386">
        <ele>65.243127</ele>
        <time>2019-08-22T18:09:21.068Z</time>
      </trkpt>
      <trkpt lat="42.364522" lon="3.012862">
        <ele>66.047464</ele>
        <time>2019-08-22T18:09:29.623Z</time>
      </trkpt>
      <trkpt lat="42.364470" lon="3.013162">
        <ele>66.567146</ele>
        <time>2019-08-22T18:09:35.094Z</time>
      </trkpt>
      <trkpt lat="42.364016" lon="3.014238">
        <ele>68.535274</ele>
        <time>2019-08-22T18:09:56.556Z</time>
      </trkpt>
      <trkpt lat="42.363874" lon="3.014721">
        <ele>69.339697</ele>
        <time>2019-08-22T18:10:05.326Z</time>
      </trkpt>
      <trkpt lat="42.363743" lon="3.015913">
        <ele>71.154497</ele>
        <time>2019-08-22T18:10:25.767Z</time>
      </trkpt>
      <trkpt lat="42.363779" lon="3.016355">
        <ele>71.707743</ele>
        <time>2019-08-22T18:10:33.402Z</time>
      </trkpt>
      <trkpt lat="42.364281" lon="3.017405">
        <ele>73.263719</ele>
        <time>2019-08-22T18:10:53.808Z</time>
      </trkpt>
      <trkpt lat="42.364518" lon="3.018170">
        <ele>74.051357</ele>
        <time>2019-08-22T18:11:06.580Z</time>
      </trkpt>
      <trkpt lat="42.365723" lon="3.020329">
        <ele>74.515194</ele>
        <time>2019-08-22T18:11:37.504Z</time>
      </trkpt>
      <trkpt lat="42.366161" lon="3.021727">
        <ele>74.042721</ele>
        <time>2019-08-22T18:11:51.917Z</time>
      </trkpt>
      <trkpt lat="42.366221" lon="3.022062">
        <ele>73.935469</ele>
        <time>2019-08-22T18:11:55.029Z</time>
      </trkpt>
      <trkpt lat="42.366236" lon="3.022190">
        <ele>73.942911</ele>
        <time>2019-08-22T18:11:56.874Z</time>
      </trkpt>
      <trkpt lat="42.366387" lon="3.022888">
        <ele>74.122839</ele>
        <time>2019-08-22T18:12:04.242Z</time>
      </trkpt>
      <trkpt lat="42.366611" lon="3.023301">
        <ele>74.249584</ele>
        <time>2019-08-22T18:12:10.321Z</time>
      </trkpt>
      <trkpt lat="42.367832" lon="3.024374">
        <ele>74.792151</ele>
        <time>2019-08-22T18:12:37.126Z</time>
      </trkpt>
      <trkpt lat="42.368001" lon="3.024591">
        <ele>74.890332</ele>
        <time>2019-08-22T18:12:41.036Z</time>
      </trkpt>
      <trkpt lat="42.368264" lon="3.025094">
        <ele>75.082217</ele>
        <time>2019-08-22T18:12:48.344Z</time>
      </trkpt>
      <trkpt lat="42.369025" lon="3.025951">
        <ele>75.043179</ele>
        <time>2019-08-22T18:13:02.973Z</time>
      </trkpt>
      <trkpt lat="42.369552" lon="3.026315">
        <ele>74.769160</ele>
        <time>2019-08-22T18:13:11.218Z</time>
      </trkpt>
      <trkpt lat="42.370367" lon="3.026524">
        <ele>74.210467</ele>
        <time>2019-08-22T18:13:21.460Z</time>
      </trkpt>
      <trkpt lat="42.370539" lon="3.026682">
        <ele>73.851887</ele>
        <time>2019-08-22T18:13:23.930Z</time>
      </trkpt>
      <trkpt lat="42.370683" lon="3.026925">
        <ele>73.454884</ele>
        <time>2019-08-22T18:13:26.607Z</time>
      </trkpt>
      <trkpt lat="42.370718" lon="3.027057">
        <ele>73.276152</ele>
        <time>2019-08-22T18:13:27.809Z</time>
      </trkpt>
      <trkpt lat="42.370720" lon="3.027197">
        <ele>73.097697</ele>
        <time>2019-08-22T18:13:28.940Z</time>
      </trkpt>
      <trkpt lat="42.370713" lon="3.027299">
        <ele>72.967144</ele>
        <time>2019-08-22T18:13:29.819Z</time>
      </trkpt>
      <trkpt lat="42.370679" lon="3.027343">
        <ele>72.886000</ele>
        <time>2019-08-22T18:13:30.348Z</time>
      </trkpt>
      <trkpt lat="42.370644" lon="3.027370">
        <ele>72.816507</ele>
        <time>2019-08-22T18:13:30.846Z</time>
      </trkpt>
      <trkpt lat="42.370577" lon="3.027387">
        <ele>72.698918</ele>
        <time>2019-08-22T18:13:31.625Z</time>
      </trkpt>
      <trkpt lat="42.370484" lon="3.027350">
        <ele>72.531705</ele>
        <time>2019-08-22T18:13:32.658Z</time>
      </trkpt>
      <trkpt lat="42.370195" lon="3.027248">
        <ele>72.016506</ele>
        <time>2019-08-22T18:13:36.003Z</time>
      </trkpt>
      <trkpt lat="42.370031" lon="3.027210">
        <ele>71.729488</ele>
        <time>2019-08-22T18:13:37.779Z</time>
      </trkpt>
      <trkpt lat="42.367715" lon="3.026284">
        <ele>66.020600</ele>
        <time>2019-08-22T18:14:03.213Z</time>
      </trkpt>
      <trkpt lat="42.367476" lon="3.026232">
        <ele>65.535432</ele>
        <time>2019-08-22T18:14:05.727Z</time>
      </trkpt>
      <trkpt lat="42.367204" lon="3.026310">
        <ele>64.978171</ele>
        <time>2019-08-22T18:14:08.610Z</time>
      </trkpt>
      <trkpt lat="42.365909" lon="3.026831">
        <ele>63.638759</ele>
        <time>2019-08-22T18:14:24.216Z</time>
      </trkpt>
      <trkpt lat="42.365714" lon="3.027059">
        <ele>63.877899</ele>
        <time>2019-08-22T18:14:28.695Z</time>
      </trkpt>
      <trkpt lat="42.365668" lon="3.027151">
        <ele>63.954068</ele>
        <time>2019-08-22T18:14:29.984Z</time>
      </trkpt>
      <trkpt lat="42.365334" lon="3.027836">
        <ele>64.516811</ele>
        <time>2019-08-22T18:14:43.030Z</time>
      </trkpt>
      <trkpt lat="42.365257" lon="3.027992">
        <ele>64.645449</ele>
        <time>2019-08-22T18:14:46.510Z</time>
      </trkpt>
      <trkpt lat="42.365033" lon="3.028313">
        <ele>65.149410</ele>
        <time>2019-08-22T18:14:54.922Z</time>
      </trkpt>
      <trkpt lat="42.362222" lon="3.030627">
        <ele>76.509338</ele>
        <time>2019-08-22T18:16:31.981Z</time>
      </trkpt>
      <trkpt lat="42.361874" lon="3.031282">
        <ele>77.964697</ele>
        <time>2019-08-22T18:16:47.238Z</time>
      </trkpt>
      <trkpt lat="42.360672" lon="3.033881">
        <ele>80.583686</ele>
        <time>2019-08-22T18:17:34.121Z</time>
      </trkpt>
      <trkpt lat="42.360524" lon="3.034201">
        <ele>80.584318</ele>
        <time>2019-08-22T18:17:37.861Z</time>
      </trkpt>
      <trkpt lat="42.360420" lon="3.034359">
        <ele>80.584672</ele>
        <time>2019-08-22T18:17:39.903Z</time>
      </trkpt>
      <trkpt lat="42.360394" lon="3.034390">
        <ele>80.584750</ele>
        <time>2019-08-22T18:17:40.367Z</time>
      </trkpt>
      <trkpt lat="42.360345" lon="3.034417">
        <ele>80.584870</ele>
        <time>2019-08-22T18:17:40.947Z</time>
      </trkpt>
      <trkpt lat="42.360141" lon="3.034430">
        <ele>80.585333</ele>
        <time>2019-08-22T18:17:43.558Z</time>
      </trkpt>
      <trkpt lat="42.360045" lon="3.034415">
        <ele>80.585551</ele>
        <time>2019-08-22T18:17:44.688Z</time>
      </trkpt>
      <trkpt lat="42.358672" lon="3.034211">
        <ele>77.191439</ele>
        <time>2019-08-22T18:17:59.259Z</time>
      </trkpt>
      <trkpt lat="42.358483" lon="3.034219">
        <ele>76.674331</ele>
        <time>2019-08-22T18:18:01.136Z</time>
      </trkpt>
      <trkpt lat="42.358248" lon="3.034358">
        <ele>75.972977</ele>
        <time>2019-08-22T18:18:03.696Z</time>
      </trkpt>
      <trkpt lat="42.358066" lon="3.034495">
        <ele>75.300081</ele>
        <time>2019-08-22T18:18:05.746Z</time>
      </trkpt>
      <trkpt lat="42.353629" lon="3.037855">
        <ele>56.421929</ele>
        <time>2019-08-22T18:18:55.743Z</time>
      </trkpt>
      <trkpt lat="42.353377" lon="3.038105">
        <ele>55.554876</ele>
        <time>2019-08-22T18:18:59.035Z</time>
      </trkpt>
      <trkpt lat="42.353251" lon="3.038303">
        <ele>55.330386</ele>
        <time>2019-08-22T18:19:01.104Z</time>
      </trkpt>
      <trkpt lat="42.348093" lon="3.046985">
        <ele>46.196372</ele>
        <time>2019-08-22T18:20:41.045Z</time>
      </trkpt>
      <trkpt lat="42.347861" lon="3.047498">
        <ele>45.825797</ele>
        <time>2019-08-22T18:20:47.161Z</time>
      </trkpt>
      <trkpt lat="42.345623" lon="3.054098">
        <ele>45.148636</ele>
        <time>2019-08-22T18:22:04.969Z</time>
      </trkpt>
      <trkpt lat="42.345549" lon="3.054283">
        <ele>45.100080</ele>
        <time>2019-08-22T18:22:07.109Z</time>
      </trkpt>
      <trkpt lat="42.345510" lon="3.054397">
        <ele>45.061506</ele>
        <time>2019-08-22T18:22:08.380Z</time>
      </trkpt>
      <trkpt lat="42.345496" lon="3.054514">
        <ele>45.025110</ele>
        <time>2019-08-22T18:22:09.591Z</time>
      </trkpt>
      <trkpt lat="42.345334" lon="3.055007">
        <ele>44.859435</ele>
        <time>2019-08-22T18:22:15.045Z</time>
      </trkpt>
      <trkpt lat="42.345330" lon="3.055089">
        <ele>44.834200</ele>
        <time>2019-08-22T18:22:15.849Z</time>
      </trkpt>
      <trkpt lat="42.345277" lon="3.055171">
        <ele>44.800749</ele>
        <time>2019-08-22T18:22:16.941Z</time>
      </trkpt>
      <trkpt lat="42.345125" lon="3.055608">
        <ele>44.652440</ele>
        <time>2019-08-22T18:22:21.733Z</time>
      </trkpt>
      <trkpt lat="42.345073" lon="3.055681">
        <ele>44.621307</ele>
        <time>2019-08-22T18:22:22.729Z</time>
      </trkpt>
      <trkpt lat="42.345014" lon="3.055853">
        <ele>44.563079</ele>
        <time>2019-08-22T18:22:24.596Z</time>
      </trkpt>
      <trkpt lat="42.344966" lon="3.056038">
        <ele>44.502871</ele>
        <time>2019-08-22T18:22:26.504Z</time>
      </trkpt>
      <trkpt lat="42.344387" lon="3.057757">
        <ele>43.644836</ele>
        <time>2019-08-22T18:22:44.697Z</time>
      </trkpt>
      <trkpt lat="42.344286" lon="3.058044">
        <ele>43.489728</ele>
        <time>2019-08-22T18:22:47.711Z</time>
      </trkpt>
      <trkpt lat="42.344209" lon="3.058263">
        <ele>43.371389</ele>
        <time>2019-08-22T18:22:49.973Z</time>
      </trkpt>
      <trkpt lat="42.344060" lon="3.058585">
        <ele>43.185342</ele>
        <time>2019-08-22T18:22:53.529Z</time>
      </trkpt>
      <trkpt lat="42.343992" lon="3.058684">
        <ele>43.117300</ele>
        <time>2019-08-22T18:22:54.772Z</time>
      </trkpt>
      <trkpt lat="42.343935" lon="3.058727">
        <ele>43.072847</ele>
        <time>2019-08-22T18:22:55.612Z</time>
      </trkpt>
      <trkpt lat="42.343880" lon="3.058743">
        <ele>43.034527</ele>
        <time>2019-08-22T18:22:56.382Z</time>
      </trkpt>
      <trkpt lat="42.343801" lon="3.058731">
        <ele>42.980378</ele>
        <time>2019-08-22T18:22:57.374Z</time>
      </trkpt>
      <trkpt lat="42.343795" lon="3.058723">
        <ele>42.974640</ele>
        <time>2019-08-22T18:22:57.474Z</time>
      </trkpt>
      <trkpt lat="42.343775" lon="3.058704">
        <ele>42.957994</ele>
        <time>2019-08-22T18:22:57.779Z</time>
      </trkpt>
      <trkpt lat="42.343768" lon="3.058699">
        <ele>42.952602</ele>
        <time>2019-08-22T18:22:57.877Z</time>
      </trkpt>
      <trkpt lat="42.343753" lon="3.058690">
        <ele>42.941425</ele>
        <time>2019-08-22T18:22:58.078Z</time>
      </trkpt>
      <trkpt lat="42.343668" lon="3.058683">
        <ele>42.883420</ele>
        <time>2019-08-22T18:22:59.144Z</time>
      </trkpt>
      <trkpt lat="42.343651" lon="3.058690">
        <ele>42.871316</ele>
        <time>2019-08-22T18:22:59.346Z</time>
      </trkpt>
      <trkpt lat="42.343635" lon="3.058700">
        <ele>42.859311</ele>
        <time>2019-08-22T18:22:59.555Z</time>
      </trkpt>
      <trkpt lat="42.343569" lon="3.058804">
        <ele>42.790299</ele>
        <time>2019-08-22T18:23:00.920Z</time>
      </trkpt>
      <trkpt lat="42.343564" lon="3.058826">
        <ele>42.778712</ele>
        <time>2019-08-22T18:23:01.128Z</time>
      </trkpt>
      <trkpt lat="42.343431" lon="3.059065">
        <ele>42.628094</ele>
        <time>2019-08-22T18:23:03.872Z</time>
      </trkpt>
      <trkpt lat="42.343366" lon="3.059277">
        <ele>42.512543</ele>
        <time>2019-08-22T18:23:06.081Z</time>
      </trkpt>
      <trkpt lat="42.343304" lon="3.059467">
        <ele>42.407978</ele>
        <time>2019-08-22T18:23:07.997Z</time>
      </trkpt>
      <trkpt lat="42.343215" lon="3.059648">
        <ele>42.298530</ele>
        <time>2019-08-22T18:23:10.114Z</time>
      </trkpt>
      <trkpt lat="42.343099" lon="3.059822">
        <ele>42.180558</ele>
        <time>2019-08-22T18:23:12.300Z</time>
      </trkpt>
      <trkpt lat="42.342588" lon="3.060588">
        <ele>41.981565</ele>
        <time>2019-08-22T18:23:22.335Z</time>
      </trkpt>
      <trkpt lat="42.342040" lon="3.061435">
        <ele>41.980765</ele>
        <time>2019-08-22T18:23:34.781Z</time>
      </trkpt>
      <trkpt lat="42.341720" lon="3.061896">
        <ele>41.980315</ele>
        <time>2019-08-22T18:23:42.454Z</time>
      </trkpt>
      <trkpt lat="42.341406" lon="3.062395">
        <ele>42.217084</ele>
        <time>2019-08-22T18:23:50.848Z</time>
      </trkpt>
      <trkpt lat="42.340910" lon="3.063136">
        <ele>42.600461</ele>
        <time>2019-08-22T18:24:04.062Z</time>
      </trkpt>
      <trkpt lat="42.340217" lon="3.064189">
        <ele>42.794689</ele>
        <time>2019-08-22T18:24:21.042Z</time>
      </trkpt>
      <trkpt lat="42.340092" lon="3.064389">
        <ele>42.742277</ele>
        <time>2019-08-22T18:24:24.069Z</time>
      </trkpt>
      <trkpt lat="42.339958" lon="3.064646">
        <ele>42.679340</ele>
        <time>2019-08-22T18:24:27.330Z</time>
      </trkpt>
      <trkpt lat="42.339857" lon="3.064851">
        <ele>42.630039</ele>
        <time>2019-08-22T18:24:29.826Z</time>
      </trkpt>
      <trkpt lat="42.339681" lon="3.065035">
        <ele>42.569822</ele>
        <time>2019-08-22T18:24:32.817Z</time>
      </trkpt>
      <trkpt lat="42.339578" lon="3.065111">
        <ele>42.538059</ele>
        <time>2019-08-22T18:24:34.338Z</time>
      </trkpt>
      <trkpt lat="42.339553" lon="3.065109">
        <ele>42.531279</ele>
        <time>2019-08-22T18:24:34.635Z</time>
      </trkpt>
      <trkpt lat="42.339464" lon="3.065165">
        <ele>42.504705</ele>
        <time>2019-08-22T18:24:35.878Z</time>
      </trkpt>
      <trkpt lat="42.339450" lon="3.065192">
        <ele>42.498105</ele>
        <time>2019-08-22T18:24:36.182Z</time>
      </trkpt>
      <trkpt lat="42.339441" lon="3.065216">
        <ele>42.492720</ele>
        <time>2019-08-22T18:24:36.455Z</time>
      </trkpt>
      <trkpt lat="42.339432" lon="3.065294">
        <ele>42.476922</ele>
        <time>2019-08-22T18:24:37.219Z</time>
      </trkpt>
      <trkpt lat="42.339435" lon="3.065321">
        <ele>42.471458</ele>
        <time>2019-08-22T18:24:37.488Z</time>
      </trkpt>
      <trkpt lat="42.339439" lon="3.065337">
        <ele>42.468078</ele>
        <time>2019-08-22T18:24:37.666Z</time>
      </trkpt>
      <trkpt lat="42.339457" lon="3.065382">
        <ele>42.457839</ele>
        <time>2019-08-22T18:24:38.134Z</time>
      </trkpt>
      <trkpt lat="42.339465" lon="3.065395">
        <ele>42.454454</ele>
        <time>2019-08-22T18:24:38.309Z</time>
      </trkpt>
      <trkpt lat="42.339461" lon="3.065558">
        <ele>42.407087</ele>
        <time>2019-08-22T18:24:39.748Z</time>
      </trkpt>
      <trkpt lat="42.339432" lon="3.065821">
        <ele>42.187962</ele>
        <time>2019-08-22T18:24:42.211Z</time>
      </trkpt>
      <trkpt lat="42.339267" lon="3.066193">
        <ele>41.830457</ele>
        <time>2019-08-22T18:24:46.010Z</time>
      </trkpt>
      <trkpt lat="42.338758" lon="3.067336">
        <ele>40.730828</ele>
        <time>2019-08-22T18:24:57.696Z</time>
      </trkpt>
      <trkpt lat="42.337204" lon="3.070823">
        <ele>37.852076</ele>
        <time>2019-08-22T18:25:34.296Z</time>
      </trkpt>
      <trkpt lat="42.336647" lon="3.072073">
        <ele>37.153198</ele>
        <time>2019-08-22T18:25:49.102Z</time>
      </trkpt>
      <trkpt lat="42.336287" lon="3.072880">
        <ele>36.809860</ele>
        <time>2019-08-22T18:25:58.998Z</time>
      </trkpt>
      <trkpt lat="42.334673" lon="3.076480">
        <ele>35.094661</ele>
        <time>2019-08-22T18:26:38.871Z</time>
      </trkpt>
      <trkpt lat="42.333444" lon="3.079233">
        <ele>35.037623</ele>
        <time>2019-08-22T18:27:14.948Z</time>
      </trkpt>
      <trkpt lat="42.333038" lon="3.080122">
        <ele>35.131536</ele>
        <time>2019-08-22T18:27:27.118Z</time>
      </trkpt>
      <trkpt lat="42.333026" lon="3.080149">
        <ele>35.133858</ele>
        <time>2019-08-22T18:27:27.464Z</time>
      </trkpt>
      <trkpt lat="42.332780" lon="3.080724">
        <ele>35.024132</ele>
        <time>2019-08-22T18:27:34.649Z</time>
      </trkpt>
      <trkpt lat="42.332563" lon="3.081211">
        <ele>34.930216</ele>
        <time>2019-08-22T18:27:40.683Z</time>
      </trkpt>
      <trkpt lat="42.332394" lon="3.081594">
        <ele>34.856546</ele>
        <time>2019-08-22T18:27:45.232Z</time>
      </trkpt>
      <trkpt lat="42.332075" lon="3.082301">
        <ele>34.707569</ele>
        <time>2019-08-22T18:27:53.241Z</time>
      </trkpt>
      <trkpt lat="42.330520" lon="3.085752">
        <ele>33.491823</ele>
        <time>2019-08-22T18:28:33.512Z</time>
      </trkpt>
      <trkpt lat="42.330190" lon="3.086275">
        <ele>33.308119</ele>
        <time>2019-08-22T18:28:40.744Z</time>
      </trkpt>
      <trkpt lat="42.329226" lon="3.087511">
        <ele>32.829034</ele>
        <time>2019-08-22T18:28:59.248Z</time>
      </trkpt>
      <trkpt lat="42.328901" lon="3.087907">
        <ele>32.671274</ele>
        <time>2019-08-22T18:29:05.257Z</time>
      </trkpt>
      <trkpt lat="42.327969" lon="3.089039">
        <ele>31.225673</ele>
        <time>2019-08-22T18:29:20.748Z</time>
      </trkpt>
      <trkpt lat="42.327679" lon="3.089286">
        <ele>30.812148</ele>
        <time>2019-08-22T18:29:24.602Z</time>
      </trkpt>
      <trkpt lat="42.327519" lon="3.089351">
        <ele>30.610562</ele>
        <time>2019-08-22T18:29:26.392Z</time>
      </trkpt>
      <trkpt lat="42.327375" lon="3.089373">
        <ele>30.412968</ele>
        <time>2019-08-22T18:29:28.049Z</time>
      </trkpt>
      <trkpt lat="42.327001" lon="3.089334">
        <ele>29.683410</ele>
        <time>2019-08-22T18:29:32.167Z</time>
      </trkpt>
      <trkpt lat="42.326894" lon="3.089318">
        <ele>29.474036</ele>
        <time>2019-08-22T18:29:33.313Z</time>
      </trkpt>
      <trkpt lat="42.326458" lon="3.089256">
        <ele>28.621378</ele>
        <time>2019-08-22T18:29:38.037Z</time>
      </trkpt>
      <trkpt lat="42.325838" lon="3.089184">
        <ele>27.411092</ele>
        <time>2019-08-22T18:29:44.859Z</time>
      </trkpt>
      <trkpt lat="42.325471" lon="3.089166">
        <ele>26.844356</ele>
        <time>2019-08-22T18:29:48.983Z</time>
      </trkpt>
      <trkpt lat="42.325044" lon="3.089228">
        <ele>26.452648</ele>
        <time>2019-08-22T18:29:53.990Z</time>
      </trkpt>
      <trkpt lat="42.324794" lon="3.089302">
        <ele>26.219224</ele>
        <time>2019-08-22T18:29:57.113Z</time>
      </trkpt>
      <trkpt lat="42.324669" lon="3.089340">
        <ele>26.102366</ele>
        <time>2019-08-22T18:29:58.745Z</time>
      </trkpt>
      <trkpt lat="42.324257" lon="3.089606">
        <ele>25.685959</ele>
        <time>2019-08-22T18:30:04.719Z</time>
      </trkpt>
      <trkpt lat="42.323879" lon="3.089976">
        <ele>25.325035</ele>
        <time>2019-08-22T18:30:11.062Z</time>
      </trkpt>
      <trkpt lat="42.323656" lon="3.090051">
        <ele>25.299328</ele>
        <time>2019-08-22T18:30:14.254Z</time>
      </trkpt>
      <trkpt lat="42.323572" lon="3.090041">
        <ele>25.289895</ele>
        <time>2019-08-22T18:30:15.448Z</time>
      </trkpt>
      <trkpt lat="42.323487" lon="3.090076">
        <ele>25.279955</ele>
        <time>2019-08-22T18:30:16.696Z</time>
      </trkpt>
      <trkpt lat="42.323427" lon="3.090141">
        <ele>25.271355</ele>
        <time>2019-08-22T18:30:17.819Z</time>
      </trkpt>
      <trkpt lat="42.323385" lon="3.090232">
        <ele>25.262482</ele>
        <time>2019-08-22T18:30:18.963Z</time>
      </trkpt>
      <trkpt lat="42.323369" lon="3.090344">
        <ele>25.253047</ele>
        <time>2019-08-22T18:30:20.201Z</time>
      </trkpt>
      <trkpt lat="42.323385" lon="3.090456">
        <ele>25.243612</ele>
        <time>2019-08-22T18:30:21.454Z</time>
      </trkpt>
      <trkpt lat="42.323385" lon="3.090673">
        <ele>25.225663</ele>
        <time>2019-08-22T18:30:23.722Z</time>
      </trkpt>
      <trkpt lat="42.323340" lon="3.090861">
        <ele>25.209319</ele>
        <time>2019-08-22T18:30:25.850Z</time>
      </trkpt>
      <trkpt lat="42.323183" lon="3.091375">
        <ele>25.163319</ele>
        <time>2019-08-22T18:30:31.824Z</time>
      </trkpt>
      <trkpt lat="42.322906" lon="3.092901">
        <ele>25.276432</ele>
        <time>2019-08-22T18:30:49.712Z</time>
      </trkpt>
      <trkpt lat="42.322734" lon="3.093451">
        <ele>25.347698</ele>
        <time>2019-08-22T18:30:56.773Z</time>
      </trkpt>
      <trkpt lat="42.322657" lon="3.093669">
        <ele>25.376530</ele>
        <time>2019-08-22T18:30:59.634Z</time>
      </trkpt>
      <trkpt lat="42.322442" lon="3.094275">
        <ele>25.423459</ele>
        <time>2019-08-22T18:31:07.478Z</time>
      </trkpt>
      <trkpt lat="42.321903" lon="3.095640">
        <ele>25.425023</ele>
        <time>2019-08-22T18:31:24.978Z</time>
      </trkpt>
      <trkpt lat="42.321196" lon="3.097408">
        <ele>24.906811</ele>
        <time>2019-08-22T18:31:45.297Z</time>
      </trkpt>
      <trkpt lat="42.319948" lon="3.100592">
        <ele>23.334059</ele>
        <time>2019-08-22T18:32:19.119Z</time>
      </trkpt>
      <trkpt lat="42.319837" lon="3.100905">
        <ele>23.409287</ele>
        <time>2019-08-22T18:32:22.691Z</time>
      </trkpt>
      <trkpt lat="42.319771" lon="3.101066">
        <ele>23.449180</ele>
        <time>2019-08-22T18:32:24.601Z</time>
      </trkpt>
      <trkpt lat="42.318044" lon="3.105338">
        <ele>25.157647</ele>
        <time>2019-08-22T18:33:27.233Z</time>
      </trkpt>
      <trkpt lat="42.316090" lon="3.110316">
        <ele>26.572618</ele>
        <time>2019-08-22T18:34:34.971Z</time>
      </trkpt>
      <trkpt lat="42.315904" lon="3.110777">
        <ele>26.656949</ele>
        <time>2019-08-22T18:34:40.923Z</time>
      </trkpt>
      <trkpt lat="42.315030" lon="3.112952">
        <ele>26.646181</ele>
        <time>2019-08-22T18:35:07.319Z</time>
      </trkpt>
      <trkpt lat="42.314615" lon="3.113965">
        <ele>26.917513</ele>
        <time>2019-08-22T18:35:20.217Z</time>
      </trkpt>
      <trkpt lat="42.314474" lon="3.114202">
        <ele>27.035449</ele>
        <time>2019-08-22T18:35:24.029Z</time>
      </trkpt>
      <trkpt lat="42.314410" lon="3.114218">
        <ele>27.069574</ele>
        <time>2019-08-22T18:35:25.051Z</time>
      </trkpt>
      <trkpt lat="42.314354" lon="3.114273">
        <ele>27.105862</ele>
        <time>2019-08-22T18:35:26.203Z</time>
      </trkpt>
      <trkpt lat="42.314329" lon="3.114329">
        <ele>27.131224</ele>
        <time>2019-08-22T18:35:26.993Z</time>
      </trkpt>
      <trkpt lat="42.314318" lon="3.114391">
        <ele>27.155945</ele>
        <time>2019-08-22T18:35:27.846Z</time>
      </trkpt>
      <trkpt lat="42.314329" lon="3.114482">
        <ele>27.191695</ele>
        <time>2019-08-22T18:35:29.058Z</time>
      </trkpt>
      <trkpt lat="42.314353" lon="3.114535">
        <ele>27.215791</ele>
        <time>2019-08-22T18:35:29.919Z</time>
      </trkpt>
      <trkpt lat="42.314317" lon="3.114773">
        <ele>27.309978</ele>
        <time>2019-08-22T18:35:32.988Z</time>
      </trkpt>
      <trkpt lat="42.314176" lon="3.115208">
        <ele>27.494125</ele>
        <time>2019-08-22T18:35:39.413Z</time>
      </trkpt>
      <trkpt lat="42.313793" lon="3.116807">
        <ele>28.809027</ele>
        <time>2019-08-22T18:36:04.133Z</time>
      </trkpt>
      <trkpt lat="42.313243" lon="3.119111">
        <ele>30.616673</ele>
        <time>2019-08-22T18:36:38.127Z</time>
      </trkpt>
      <trkpt lat="42.313138" lon="3.119440">
        <ele>30.863479</ele>
        <time>2019-08-22T18:36:42.846Z</time>
      </trkpt>
      <trkpt lat="42.313049" lon="3.119827">
        <ele>31.142622</ele>
        <time>2019-08-22T18:36:48.196Z</time>
      </trkpt>
      <trkpt lat="42.312847" lon="3.120684">
        <ele>31.796369</ele>
        <time>2019-08-22T18:37:00.116Z</time>
      </trkpt>
      <trkpt lat="42.312703" lon="3.121255">
        <ele>32.241409</ele>
        <time>2019-08-22T18:37:08.149Z</time>
      </trkpt>
      <trkpt lat="42.312567" lon="3.121792">
        <ele>32.660135</ele>
        <time>2019-08-22T18:37:16.071Z</time>
      </trkpt>
      <trkpt lat="42.311970" lon="3.124221">
        <ele>35.490918</ele>
        <time>2019-08-22T18:37:55.571Z</time>
      </trkpt>
      <trkpt lat="42.311637" lon="3.125583">
        <ele>37.528215</ele>
        <time>2019-08-22T18:38:20.115Z</time>
      </trkpt>
      <trkpt lat="42.311391" lon="3.126591">
        <ele>39.132925</ele>
        <time>2019-08-22T18:38:38.403Z</time>
      </trkpt>
      <trkpt lat="42.311383" lon="3.126627">
        <ele>39.189754</ele>
        <time>2019-08-22T18:38:39.028Z</time>
      </trkpt>
      <trkpt lat="42.311302" lon="3.126914">
        <ele>39.654160</ele>
        <time>2019-08-22T18:38:44.399Z</time>
      </trkpt>
      <trkpt lat="42.311241" lon="3.127165">
        <ele>40.006470</ele>
        <time>2019-08-22T18:38:48.968Z</time>
      </trkpt>
      <trkpt lat="42.311062" lon="3.127891">
        <ele>41.012013</ele>
        <time>2019-08-22T18:39:01.886Z</time>
      </trkpt>
      <trkpt lat="42.310804" lon="3.128944">
        <ele>42.469559</ele>
        <time>2019-08-22T18:39:19.583Z</time>
      </trkpt>
      <trkpt lat="42.309858" lon="3.132725">
        <ele>46.775562</ele>
        <time>2019-08-22T18:40:19.683Z</time>
      </trkpt>
      <trkpt lat="42.309820" lon="3.132876">
        <ele>46.949121</ele>
        <time>2019-08-22T18:40:22.225Z</time>
      </trkpt>
      <trkpt lat="42.309758" lon="3.133118">
        <ele>47.227801</ele>
        <time>2019-08-22T18:40:25.889Z</time>
      </trkpt>
      <trkpt lat="42.309738" lon="3.133188">
        <ele>47.309456</ele>
        <time>2019-08-22T18:40:26.985Z</time>
      </trkpt>
      <trkpt lat="42.309663" lon="3.133502">
        <ele>47.668506</ele>
        <time>2019-08-22T18:40:32.017Z</time>
      </trkpt>
      <trkpt lat="42.309634" lon="3.133622">
        <ele>47.805876</ele>
        <time>2019-08-22T18:40:33.870Z</time>
      </trkpt>
      <trkpt lat="42.309140" lon="3.135586">
        <ele>50.982178</ele>
        <time>2019-08-22T18:41:08.959Z</time>
      </trkpt>
      <trkpt lat="42.308911" lon="3.136504">
        <ele>52.696994</ele>
        <time>2019-08-22T18:41:27.084Z</time>
      </trkpt>
      <trkpt lat="42.308187" lon="3.139370">
        <ele>58.893813</ele>
        <time>2019-08-22T18:42:26.232Z</time>
      </trkpt>
      <trkpt lat="42.308090" lon="3.139733">
        <ele>59.667056</ele>
        <time>2019-08-22T18:42:33.769Z</time>
      </trkpt>
      <trkpt lat="42.307906" lon="3.140394">
        <ele>61.081994</ele>
        <time>2019-08-22T18:42:47.162Z</time>
      </trkpt>
      <trkpt lat="42.307435" lon="3.141641">
        <ele>63.122241</ele>
        <time>2019-08-22T18:43:12.450Z</time>
      </trkpt>
      <trkpt lat="42.307073" lon="3.142397">
        <ele>64.252733</ele>
        <time>2019-08-22T18:43:25.516Z</time>
      </trkpt>
      <trkpt lat="42.306558" lon="3.143245">
        <ele>65.260424</ele>
        <time>2019-08-22T18:43:41.107Z</time>
      </trkpt>
      <trkpt lat="42.306448" lon="3.143367">
        <ele>65.381007</ele>
        <time>2019-08-22T18:43:43.710Z</time>
      </trkpt>
      <trkpt lat="42.306359" lon="3.143409">
        <ele>65.460903</ele>
        <time>2019-08-22T18:43:45.480Z</time>
      </trkpt>
      <trkpt lat="42.306320" lon="3.143387">
        <ele>65.496719</ele>
        <time>2019-08-22T18:43:46.194Z</time>
      </trkpt>
      <trkpt lat="42.306266" lon="3.143377">
        <ele>65.542915</ele>
        <time>2019-08-22T18:43:47.152Z</time>
      </trkpt>
      <trkpt lat="42.306198" lon="3.143392">
        <ele>65.601312</ele>
        <time>2019-08-22T18:43:48.422Z</time>
      </trkpt>
      <trkpt lat="42.306142" lon="3.143433">
        <ele>65.655287</ele>
        <time>2019-08-22T18:43:49.542Z</time>
      </trkpt>
      <trkpt lat="42.306097" lon="3.143499">
        <ele>65.711556</ele>
        <time>2019-08-22T18:43:50.785Z</time>
      </trkpt>
      <trkpt lat="42.306069" lon="3.143587">
        <ele>65.771605</ele>
        <time>2019-08-22T18:43:52.067Z</time>
      </trkpt>
      <trkpt lat="42.306067" lon="3.143691">
        <ele>65.836818</ele>
        <time>2019-08-22T18:43:53.365Z</time>
      </trkpt>
      <trkpt lat="42.306083" lon="3.143760">
        <ele>65.882145</ele>
        <time>2019-08-22T18:43:54.374Z</time>
      </trkpt>
      <trkpt lat="42.306034" lon="3.143900">
        <ele>65.979232</ele>
        <time>2019-08-22T18:43:56.360Z</time>
      </trkpt>
      <trkpt lat="42.305970" lon="3.144026">
        <ele>66.075046</ele>
        <time>2019-08-22T18:43:58.394Z</time>
      </trkpt>
      <trkpt lat="42.305591" lon="3.144467">
        <ele>66.428231</ele>
        <time>2019-08-22T18:44:06.990Z</time>
      </trkpt>
      <trkpt lat="42.304726" lon="3.145260">
        <ele>66.557381</ele>
        <time>2019-08-22T18:44:24.938Z</time>
      </trkpt>
      <trkpt lat="42.303877" lon="3.145825">
        <ele>66.198745</ele>
        <time>2019-08-22T18:44:37.595Z</time>
      </trkpt>
      <trkpt lat="42.302728" lon="3.146408">
        <ele>64.339392</ele>
        <time>2019-08-22T18:44:51.727Z</time>
      </trkpt>
      <trkpt lat="42.301071" lon="3.147155">
        <ele>59.729363</ele>
        <time>2019-08-22T18:45:09.938Z</time>
      </trkpt>
      <trkpt lat="42.300444" lon="3.147461">
        <ele>57.517547</ele>
        <time>2019-08-22T18:45:16.547Z</time>
      </trkpt>
      <trkpt lat="42.299957" lon="3.147697">
        <ele>55.561655</ele>
        <time>2019-08-22T18:45:21.599Z</time>
      </trkpt>
      <trkpt lat="42.299877" lon="3.147734">
        <ele>55.241992</ele>
        <time>2019-08-22T18:45:22.412Z</time>
      </trkpt>
      <trkpt lat="42.299589" lon="3.147866">
        <ele>54.092289</ele>
        <time>2019-08-22T18:45:25.355Z</time>
      </trkpt>
      <trkpt lat="42.299406" lon="3.147956">
        <ele>53.356070</ele>
        <time>2019-08-22T18:45:27.219Z</time>
      </trkpt>
      <trkpt lat="42.297969" lon="3.148653">
        <ele>49.063022</ele>
        <time>2019-08-22T18:45:42.656Z</time>
      </trkpt>
      <trkpt lat="42.296463" lon="3.149387">
        <ele>46.430551</ele>
        <time>2019-08-22T18:46:01.916Z</time>
      </trkpt>
      <trkpt lat="42.293562" lon="3.150800">
        <ele>43.288872</ele>
        <time>2019-08-22T18:46:39.469Z</time>
      </trkpt>
      <trkpt lat="42.293452" lon="3.150852">
        <ele>43.188136</ele>
        <time>2019-08-22T18:46:40.915Z</time>
      </trkpt>
      <trkpt lat="42.288829" lon="3.153080">
        <ele>38.638753</ele>
        <time>2019-08-22T18:47:42.305Z</time>
      </trkpt>
      <trkpt lat="42.288544" lon="3.153217">
        <ele>37.973501</ele>
        <time>2019-08-22T18:47:45.693Z</time>
      </trkpt>
      <trkpt lat="42.285869" lon="3.154505">
        <ele>31.137361</ele>
        <time>2019-08-22T18:48:15.644Z</time>
      </trkpt>
      <trkpt lat="42.284818" lon="3.155018">
        <ele>28.161730</ele>
        <time>2019-08-22T18:48:27.154Z</time>
      </trkpt>
      <trkpt lat="42.284593" lon="3.155060">
        <ele>27.551322</ele>
        <time>2019-08-22T18:48:29.476Z</time>
      </trkpt>
      <trkpt lat="42.284555" lon="3.155010">
        <ele>27.408805</ele>
        <time>2019-08-22T18:48:30.030Z</time>
      </trkpt>
      <trkpt lat="42.284507" lon="3.154984">
        <ele>27.269837</ele>
        <time>2019-08-22T18:48:30.578Z</time>
      </trkpt>
      <trkpt lat="42.284460" lon="3.154981">
        <ele>27.143387</ele>
        <time>2019-08-22T18:48:31.072Z</time>
      </trkpt>
      <trkpt lat="42.284410" lon="3.155001">
        <ele>27.003256</ele>
        <time>2019-08-22T18:48:31.603Z</time>
      </trkpt>
      <trkpt lat="42.284369" lon="3.155042">
        <ele>26.866197</ele>
        <time>2019-08-22T18:48:32.134Z</time>
      </trkpt>
      <trkpt lat="42.284351" lon="3.155074">
        <ele>26.786273</ele>
        <time>2019-08-22T18:48:32.433Z</time>
      </trkpt>
      <trkpt lat="42.284332" lon="3.155146">
        <ele>26.634289</ele>
        <time>2019-08-22T18:48:33.012Z</time>
      </trkpt>
      <trkpt lat="42.284131" lon="3.155349">
        <ele>25.959988</ele>
        <time>2019-08-22T18:48:35.650Z</time>
      </trkpt>
      <trkpt lat="42.280874" lon="3.156926">
        <ele>19.243991</ele>
        <time>2019-08-22T18:49:13.640Z</time>
      </trkpt>
      <trkpt lat="42.278997" lon="3.157835">
        <ele>17.389454</ele>
        <time>2019-08-22T18:49:38.806Z</time>
      </trkpt>
      <trkpt lat="42.278184" lon="3.158225">
        <ele>16.955745</ele>
        <time>2019-08-22T18:49:50.302Z</time>
      </trkpt>
      <trkpt lat="42.277954" lon="3.158334">
        <ele>16.849489</ele>
        <time>2019-08-22T18:49:53.469Z</time>
      </trkpt>
      <trkpt lat="42.277429" lon="3.158593">
        <ele>16.605839</ele>
        <time>2019-08-22T18:50:00.846Z</time>
      </trkpt>
      <trkpt lat="42.276961" lon="3.158856">
        <ele>16.483825</ele>
        <time>2019-08-22T18:50:08.101Z</time>
      </trkpt>
      <trkpt lat="42.276844" lon="3.158856">
        <ele>16.492721</ele>
        <time>2019-08-22T18:50:09.730Z</time>
      </trkpt>
      <trkpt lat="42.276766" lon="3.158847">
        <ele>16.498673</ele>
        <time>2019-08-22T18:50:10.950Z</time>
      </trkpt>
      <trkpt lat="42.276715" lon="3.158826">
        <ele>16.502727</ele>
        <time>2019-08-22T18:50:11.795Z</time>
      </trkpt>
      <trkpt lat="42.276681" lon="3.158779">
        <ele>16.506424</ele>
        <time>2019-08-22T18:50:12.594Z</time>
      </trkpt>
      <trkpt lat="42.276604" lon="3.158720">
        <ele>16.513154</ele>
        <time>2019-08-22T18:50:13.909Z</time>
      </trkpt>
      <trkpt lat="42.276518" lon="3.158698">
        <ele>16.519809</ele>
        <time>2019-08-22T18:50:15.062Z</time>
      </trkpt>
      <trkpt lat="42.276476" lon="3.158707">
        <ele>16.523042</ele>
        <time>2019-08-22T18:50:15.611Z</time>
      </trkpt>
      <trkpt lat="42.276431" lon="3.158716">
        <ele>16.526501</ele>
        <time>2019-08-22T18:50:16.360Z</time>
      </trkpt>
      <trkpt lat="42.276293" lon="3.158860">
        <ele>16.539756</ele>
        <time>2019-08-22T18:50:18.898Z</time>
      </trkpt>
      <trkpt lat="42.276288" lon="3.158876">
        <ele>16.540733</ele>
        <time>2019-08-22T18:50:19.077Z</time>
      </trkpt>
      <trkpt lat="42.276258" lon="3.158969">
        <ele>16.546441</ele>
        <time>2019-08-22T18:50:20.066Z</time>
      </trkpt>
      <trkpt lat="42.276257" lon="3.158997">
        <ele>16.548018</ele>
        <time>2019-08-22T18:50:20.341Z</time>
      </trkpt>
      <trkpt lat="42.276252" lon="3.159088">
        <ele>16.553151</ele>
        <time>2019-08-22T18:50:21.353Z</time>
      </trkpt>
      <trkpt lat="42.276275" lon="3.159203">
        <ele>16.559853</ele>
        <time>2019-08-22T18:50:22.690Z</time>
      </trkpt>
      <trkpt lat="42.276319" lon="3.159289">
        <ele>16.565735</ele>
        <time>2019-08-22T18:50:23.783Z</time>
      </trkpt>
      <trkpt lat="42.276325" lon="3.159301">
        <ele>16.566550</ele>
        <time>2019-08-22T18:50:24.018Z</time>
      </trkpt>
      <trkpt lat="42.276480" lon="3.159406">
        <ele>16.579732</ele>
        <time>2019-08-22T18:50:26.530Z</time>
      </trkpt>
      <trkpt lat="42.276520" lon="3.159404">
        <ele>16.582775</ele>
        <time>2019-08-22T18:50:27.268Z</time>
      </trkpt>
      <trkpt lat="42.276602" lon="3.159444">
        <ele>16.589403</ele>
        <time>2019-08-22T18:50:28.751Z</time>
      </trkpt>
      <trkpt lat="42.276758" lon="3.159572">
        <ele>16.603279</ele>
        <time>2019-08-22T18:50:31.639Z</time>
      </trkpt>
      <trkpt lat="42.276886" lon="3.159725">
        <ele>16.731122</ele>
        <time>2019-08-22T18:50:34.905Z</time>
      </trkpt>
      <trkpt lat="42.277145" lon="3.160218">
        <ele>17.141234</ele>
        <time>2019-08-22T18:50:43.252Z</time>
      </trkpt>
      <trkpt lat="42.277382" lon="3.160664">
        <ele>17.513680</ele>
        <time>2019-08-22T18:50:50.900Z</time>
      </trkpt>
      <trkpt lat="42.277781" lon="3.161372">
        <ele>18.117334</ele>
        <time>2019-08-22T18:51:03.337Z</time>
      </trkpt>
      <trkpt lat="42.278245" lon="3.162210">
        <ele>19.029720</ele>
        <time>2019-08-22T18:51:18.063Z</time>
      </trkpt>
      <trkpt lat="42.278679" lon="3.162994">
        <ele>19.928690</ele>
        <time>2019-08-22T18:51:32.598Z</time>
      </trkpt>
      <trkpt lat="42.279510" lon="3.164524">
        <ele>22.077798</ele>
        <time>2019-08-22T18:52:01.684Z</time>
      </trkpt>
      <trkpt lat="42.280701" lon="3.166647">
        <ele>25.591853</ele>
        <time>2019-08-22T18:52:45.766Z</time>
      </trkpt>
      <trkpt lat="42.280888" lon="3.166997">
        <ele>26.188990</ele>
        <time>2019-08-22T18:52:52.952Z</time>
      </trkpt>
      <trkpt lat="42.281415" lon="3.167993">
        <ele>27.814092</ele>
        <time>2019-08-22T18:53:13.084Z</time>
      </trkpt>
      <trkpt lat="42.281467" lon="3.168088">
        <ele>27.966722</ele>
        <time>2019-08-22T18:53:15.048Z</time>
      </trkpt>
      <trkpt lat="42.281916" lon="3.168898">
        <ele>29.273954</ele>
        <time>2019-08-22T18:53:31.249Z</time>
      </trkpt>
      <trkpt lat="42.283143" lon="3.171154">
        <ele>32.531171</ele>
        <time>2019-08-22T18:54:15.877Z</time>
      </trkpt>
      <trkpt lat="42.283578" lon="3.171893">
        <ele>33.170596</ele>
        <time>2019-08-22T18:54:28.425Z</time>
      </trkpt>
      <trkpt lat="42.283750" lon="3.172201">
        <ele>33.389641</ele>
        <time>2019-08-22T18:54:33.381Z</time>
      </trkpt>
      <trkpt lat="42.283952" lon="3.172562">
        <ele>33.646565</ele>
        <time>2019-08-22T18:54:39.177Z</time>
      </trkpt>
      <trkpt lat="42.284313" lon="3.173227">
        <ele>34.114754</ele>
        <time>2019-08-22T18:54:49.698Z</time>
      </trkpt>
      <trkpt lat="42.284566" lon="3.173717">
        <ele>34.649340</ele>
        <time>2019-08-22T18:54:57.300Z</time>
      </trkpt>
      <trkpt lat="42.285846" lon="3.175877">
        <ele>37.756554</ele>
        <time>2019-08-22T18:55:39.379Z</time>
      </trkpt>
      <trkpt lat="42.286003" lon="3.176282">
        <ele>38.473573</ele>
        <time>2019-08-22T18:55:47.353Z</time>
      </trkpt>
      <trkpt lat="42.286104" lon="3.176695">
        <ele>39.155694</ele>
        <time>2019-08-22T18:55:55.130Z</time>
      </trkpt>
      <trkpt lat="42.286435" lon="3.178428">
        <ele>43.602687</ele>
        <time>2019-08-22T18:56:30.559Z</time>
      </trkpt>
      <trkpt lat="42.286662" lon="3.178917">
        <ele>45.311888</ele>
        <time>2019-08-22T18:56:44.832Z</time>
      </trkpt>
      <trkpt lat="42.287129" lon="3.179576">
        <ele>48.235288</ele>
        <time>2019-08-22T18:57:08.410Z</time>
      </trkpt>
      <trkpt lat="42.287220" lon="3.179691">
        <ele>48.891646</ele>
        <time>2019-08-22T18:57:13.736Z</time>
      </trkpt>
      <trkpt lat="42.287733" lon="3.180322">
        <ele>52.546052</ele>
        <time>2019-08-22T18:57:38.513Z</time>
      </trkpt>
      <trkpt lat="42.288200" lon="3.181015">
        <ele>56.199851</ele>
        <time>2019-08-22T18:58:04.226Z</time>
      </trkpt>
      <trkpt lat="42.288531" lon="3.181507">
        <ele>58.437897</ele>
        <time>2019-08-22T18:58:21.323Z</time>
      </trkpt>
      <trkpt lat="42.288729" lon="3.181758">
        <ele>59.615118</ele>
        <time>2019-08-22T18:58:29.980Z</time>
      </trkpt>
      <trkpt lat="42.288847" lon="3.181868">
        <ele>60.236759</ele>
        <time>2019-08-22T18:58:34.794Z</time>
      </trkpt>
      <trkpt lat="42.289253" lon="3.182123">
        <ele>62.178316</ele>
        <time>2019-08-22T18:58:48.570Z</time>
      </trkpt>
      <trkpt lat="42.289364" lon="3.182216">
        <ele>62.744677</ele>
        <time>2019-08-22T18:58:52.319Z</time>
      </trkpt>
      <trkpt lat="42.289414" lon="3.182332">
        <ele>63.175400</ele>
        <time>2019-08-22T18:58:55.470Z</time>
      </trkpt>
      <trkpt lat="42.289386" lon="3.182577">
        <ele>63.970744</ele>
        <time>2019-08-22T18:59:00.761Z</time>
      </trkpt>
      <trkpt lat="42.289257" lon="3.182974">
        <ele>65.385340</ele>
        <time>2019-08-22T18:59:10.351Z</time>
      </trkpt>
      <trkpt lat="42.289392" lon="3.183235">
        <ele>66.438173</ele>
        <time>2019-08-22T18:59:17.550Z</time>
      </trkpt>
      <trkpt lat="42.290596" lon="3.183431">
        <ele>71.857587</ele>
        <time>2019-08-22T18:59:57.743Z</time>
      </trkpt>
      <trkpt lat="42.290784" lon="3.183645">
        <ele>73.064403</ele>
        <time>2019-08-22T19:00:06.651Z</time>
      </trkpt>
      <trkpt lat="42.290859" lon="3.183933">
        <ele>74.408446</ele>
        <time>2019-08-22T19:00:14.111Z</time>
      </trkpt>
      <trkpt lat="42.291045" lon="3.184367">
        <ele>76.616382</ele>
        <time>2019-08-22T19:00:27.692Z</time>
      </trkpt>
      <trkpt lat="42.291091" lon="3.184475">
        <ele>77.164971</ele>
        <time>2019-08-22T19:00:31.812Z</time>
      </trkpt>
      <trkpt lat="42.291215" lon="3.184675">
        <ele>78.313703</ele>
        <time>2019-08-22T19:00:38.722Z</time>
      </trkpt>
      <trkpt lat="42.291307" lon="3.184710">
        <ele>78.882439</ele>
        <time>2019-08-22T19:00:42.458Z</time>
      </trkpt>
      <trkpt lat="42.291431" lon="3.184730">
        <ele>79.625566</ele>
        <time>2019-08-22T19:00:47.716Z</time>
      </trkpt>
      <trkpt lat="42.291781" lon="3.184626">
        <ele>81.758051</ele>
        <time>2019-08-22T19:01:02.284Z</time>
      </trkpt>
      <trkpt lat="42.292080" lon="3.184703">
        <ele>83.633510</ele>
        <time>2019-08-22T19:01:15.336Z</time>
      </trkpt>
      <trkpt lat="42.292306" lon="3.185011">
        <ele>86.059765</ele>
        <time>2019-08-22T19:01:29.043Z</time>
      </trkpt>
      <trkpt lat="42.293055" lon="3.185567">
        <ele>92.520138</ele>
        <time>2019-08-22T19:02:05.307Z</time>
      </trkpt>
      <trkpt lat="42.293213" lon="3.185615">
        <ele>93.744488</ele>
        <time>2019-08-22T19:02:13.495Z</time>
      </trkpt>
      <trkpt lat="42.293581" lon="3.185605">
        <ele>96.527312</ele>
        <time>2019-08-22T19:02:31.814Z</time>
      </trkpt>
      <trkpt lat="42.293714" lon="3.185759">
        <ele>97.994309</ele>
        <time>2019-08-22T19:02:40.213Z</time>
      </trkpt>
      <trkpt lat="42.293853" lon="3.186168">
        <ele>100.902625</ele>
        <time>2019-08-22T19:02:57.897Z</time>
      </trkpt>
      <trkpt lat="42.293968" lon="3.186272">
        <ele>102.111213</ele>
        <time>2019-08-22T19:03:04.566Z</time>
      </trkpt>
      <trkpt lat="42.294276" lon="3.186390">
        <ele>104.907600</ele>
        <time>2019-08-22T19:03:20.285Z</time>
      </trkpt>
      <trkpt lat="42.294452" lon="3.186491">
        <ele>106.577769</ele>
        <time>2019-08-22T19:03:31.290Z</time>
      </trkpt>
      <trkpt lat="42.294550" lon="3.186686">
        <ele>108.101035</ele>
        <time>2019-08-22T19:03:38.266Z</time>
      </trkpt>
      <trkpt lat="42.294697" lon="3.187130">
        <ele>111.244142</ele>
        <time>2019-08-22T19:03:57.085Z</time>
      </trkpt>
      <trkpt lat="42.294757" lon="3.187256">
        <ele>112.212389</ele>
        <time>2019-08-22T19:04:03.989Z</time>
      </trkpt>
      <trkpt lat="42.295195" lon="3.187853">
        <ele>116.474738</ele>
        <time>2019-08-22T19:04:32.379Z</time>
      </trkpt>
      <trkpt lat="42.295714" lon="3.188255">
        <ele>120.477100</ele>
        <time>2019-08-22T19:04:55.449Z</time>
      </trkpt>
      <trkpt lat="42.295832" lon="3.188376">
        <ele>121.468097</ele>
        <time>2019-08-22T19:05:02.312Z</time>
      </trkpt>
      <trkpt lat="42.295858" lon="3.188521">
        <ele>122.206545</ele>
        <time>2019-08-22T19:05:05.833Z</time>
      </trkpt>
      <trkpt lat="42.295844" lon="3.188662">
        <ele>122.910669</ele>
        <time>2019-08-22T19:05:08.871Z</time>
      </trkpt>
      <trkpt lat="42.295763" lon="3.188762">
        <ele>123.644646</ele>
        <time>2019-08-22T19:05:13.689Z</time>
      </trkpt>
      <trkpt lat="42.295148" lon="3.189274">
        <ele>129.131036</ele>
        <time>2019-08-22T19:05:40.617Z</time>
      </trkpt>
      <trkpt lat="42.295114" lon="3.189513">
        <ele>130.542816</ele>
        <time>2019-08-22T19:05:47.528Z</time>
      </trkpt>
      <trkpt lat="42.295180" lon="3.190026">
        <ele>133.563262</ele>
        <time>2019-08-22T19:06:05.583Z</time>
      </trkpt>
      <trkpt lat="42.295396" lon="3.190756">
        <ele>138.124010</ele>
        <time>2019-08-22T19:06:35.031Z</time>
      </trkpt>
      <trkpt lat="42.295971" lon="3.191481">
        <ele>146.495088</ele>
        <time>2019-08-22T19:07:24.304Z</time>
      </trkpt>
      <trkpt lat="42.296207" lon="3.191907">
        <ele>150.818505</ele>
        <time>2019-08-22T19:07:50.093Z</time>
      </trkpt>
      <trkpt lat="42.296580" lon="3.192428">
        <ele>156.708370</ele>
        <time>2019-08-22T19:08:23.248Z</time>
      </trkpt>
      <trkpt lat="42.296578" lon="3.192653">
        <ele>158.535469</ele>
        <time>2019-08-22T19:08:32.192Z</time>
      </trkpt>
      <trkpt lat="42.296442" lon="3.192768">
        <ele>158.949595</ele>
        <time>2019-08-22T19:08:40.461Z</time>
      </trkpt>
      <trkpt lat="42.296112" lon="3.192647">
        <ele>159.832321</ele>
        <time>2019-08-22T19:08:55.149Z</time>
      </trkpt>
      <trkpt lat="42.295289" lon="3.192622">
        <ele>161.957565</ele>
        <time>2019-08-22T19:09:13.830Z</time>
      </trkpt>
      <trkpt lat="42.294240" lon="3.192921">
        <ele>162.194606</ele>
        <time>2019-08-22T19:09:24.617Z</time>
      </trkpt>
      <trkpt lat="42.294079" lon="3.193012">
        <ele>161.907924</ele>
        <time>2019-08-22T19:09:26.672Z</time>
      </trkpt>
      <trkpt lat="42.293967" lon="3.193157">
        <ele>161.653163</ele>
        <time>2019-08-22T19:09:28.100Z</time>
      </trkpt>
      <trkpt lat="42.293947" lon="3.193184">
        <ele>161.606729</ele>
        <time>2019-08-22T19:09:28.412Z</time>
      </trkpt>
      <trkpt lat="42.293894" lon="3.193327">
        <ele>161.412362</ele>
        <time>2019-08-22T19:09:29.964Z</time>
      </trkpt>
      <trkpt lat="42.293820" lon="3.193743">
        <ele>160.892423</ele>
        <time>2019-08-22T19:09:33.269Z</time>
      </trkpt>
      <trkpt lat="42.293850" lon="3.194003">
        <ele>160.572648</ele>
        <time>2019-08-22T19:09:35.495Z</time>
      </trkpt>
      <trkpt lat="42.294003" lon="3.194493">
        <ele>161.401660</ele>
        <time>2019-08-22T19:09:41.275Z</time>
      </trkpt>
      <trkpt lat="42.294954" lon="3.195702">
        <ele>169.890708</ele>
        <time>2019-08-22T19:10:36.121Z</time>
      </trkpt>
      <trkpt lat="42.295824" lon="3.196211">
        <ele>178.350922</ele>
        <time>2019-08-22T19:11:34.410Z</time>
      </trkpt>
      <trkpt lat="42.295939" lon="3.196362">
        <ele>179.972174</ele>
        <time>2019-08-22T19:11:44.135Z</time>
      </trkpt>
      <trkpt lat="42.296129" lon="3.196984">
        <ele>185.006147</ele>
        <time>2019-08-22T19:12:13.354Z</time>
      </trkpt>
      <trkpt lat="42.296396" lon="3.197333">
        <ele>188.762021</ele>
        <time>2019-08-22T19:12:33.265Z</time>
      </trkpt>
      <trkpt lat="42.296419" lon="3.197512">
        <ele>190.114909</ele>
        <time>2019-08-22T19:12:39.613Z</time>
      </trkpt>
      <trkpt lat="42.296326" lon="3.197753">
        <ele>191.015707</ele>
        <time>2019-08-22T19:12:48.835Z</time>
      </trkpt>
      <trkpt lat="42.296157" lon="3.197976">
        <ele>192.073721</ele>
        <time>2019-08-22T19:12:58.246Z</time>
      </trkpt>
      <trkpt lat="42.295909" lon="3.198162">
        <ele>193.344329</ele>
        <time>2019-08-22T19:13:07.907Z</time>
      </trkpt>
      <trkpt lat="42.295538" lon="3.198750">
        <ele>195.905523</ele>
        <time>2019-08-22T19:13:23.674Z</time>
      </trkpt>
      <trkpt lat="42.294860" lon="3.199203">
        <ele>199.549302</ele>
        <time>2019-08-22T19:13:41.225Z</time>
      </trkpt>
      <trkpt lat="42.294811" lon="3.199349">
        <ele>200.201222</ele>
        <time>2019-08-22T19:13:44.043Z</time>
      </trkpt>
      <trkpt lat="42.294846" lon="3.199482">
        <ele>200.775236</ele>
        <time>2019-08-22T19:13:46.806Z</time>
      </trkpt>
      <trkpt lat="42.294930" lon="3.199564">
        <ele>201.344799</ele>
        <time>2019-08-22T19:13:50.054Z</time>
      </trkpt>
      <trkpt lat="42.295178" lon="3.199604">
        <ele>202.717771</ele>
        <time>2019-08-22T19:13:57.890Z</time>
      </trkpt>
      <trkpt lat="42.296357" lon="3.200190">
        <ele>210.832502</ele>
        <time>2019-08-22T19:14:52.990Z</time>
      </trkpt>
      <trkpt lat="42.296527" lon="3.200377">
        <ele>212.966934</ele>
        <time>2019-08-22T19:15:05.113Z</time>
      </trkpt>
      <trkpt lat="42.297091" lon="3.201322">
        <ele>221.714088</ele>
        <time>2019-08-22T19:15:56.834Z</time>
      </trkpt>
      <trkpt lat="42.297045" lon="3.201541">
        <ele>223.354062</ele>
        <time>2019-08-22T19:16:06.584Z</time>
      </trkpt>
      <trkpt lat="42.296870" lon="3.201811">
        <ele>225.917484</ele>
        <time>2019-08-22T19:16:21.494Z</time>
      </trkpt>
      <trkpt lat="42.296273" lon="3.202169">
        <ele>231.885898</ele>
        <time>2019-08-22T19:16:56.974Z</time>
      </trkpt>
      <trkpt lat="42.296156" lon="3.202308">
        <ele>233.309305</ele>
        <time>2019-08-22T19:17:05.065Z</time>
      </trkpt>
      <trkpt lat="42.296097" lon="3.202481">
        <ele>234.597045</ele>
        <time>2019-08-22T19:17:12.311Z</time>
      </trkpt>
      <trkpt lat="42.296001" lon="3.203150">
        <ele>239.203593</ele>
        <time>2019-08-22T19:17:37.472Z</time>
      </trkpt>
      <trkpt lat="42.295827" lon="3.203569">
        <ele>242.343170</ele>
        <time>2019-08-22T19:17:54.310Z</time>
      </trkpt>
      <trkpt lat="42.295809" lon="3.203737">
        <ele>243.208534</ele>
        <time>2019-08-22T19:18:00.128Z</time>
      </trkpt>
      <trkpt lat="42.296018" lon="3.204660">
        <ele>248.129305</ele>
        <time>2019-08-22T19:18:31.843Z</time>
      </trkpt>
      <trkpt lat="42.296006" lon="3.205228">
        <ele>251.026012</ele>
        <time>2019-08-22T19:18:47.396Z</time>
      </trkpt>
      <trkpt lat="42.295924" lon="3.205347">
        <ele>251.855095</ele>
        <time>2019-08-22T19:18:52.800Z</time>
      </trkpt>
      <trkpt lat="42.295756" lon="3.205414">
        <ele>253.062253</ele>
        <time>2019-08-22T19:19:01.080Z</time>
      </trkpt>
      <trkpt lat="42.295143" lon="3.205359">
        <ele>257.129779</ele>
        <time>2019-08-22T19:19:24.199Z</time>
      </trkpt>
      <trkpt lat="42.295041" lon="3.205415">
        <ele>257.844801</ele>
        <time>2019-08-22T19:19:29.057Z</time>
      </trkpt>
      <trkpt lat="42.295001" lon="3.205501">
        <ele>258.332853</ele>
        <time>2019-08-22T19:19:29.909Z</time>
      </trkpt>
      <trkpt lat="42.294857" lon="3.205797">
        <ele>260.034888</ele>
        <time>2019-08-22T19:19:42.010Z</time>
      </trkpt>
      <trkpt lat="42.294248" lon="3.206738">
        <ele>266.041757</ele>
        <time>2019-08-22T19:20:20.103Z</time>
      </trkpt>
      <trkpt lat="42.293854" lon="3.207252">
        <ele>269.395710</ele>
        <time>2019-08-22T19:20:45.486Z</time>
      </trkpt>
      <trkpt lat="42.293638" lon="3.207431">
        <ele>270.946406</ele>
        <time>2019-08-22T19:20:55.583Z</time>
      </trkpt>
      <trkpt lat="42.293535" lon="3.207480">
        <ele>271.614732</ele>
        <time>2019-08-22T19:21:01.255Z</time>
      </trkpt>
      <trkpt lat="42.293407" lon="3.207541">
        <ele>272.445435</ele>
        <time>2019-08-22T19:21:06.834Z</time>
      </trkpt>
      <trkpt lat="42.292856" lon="3.207506">
        <ele>275.821660</ele>
        <time>2019-08-22T19:21:27.392Z</time>
      </trkpt>
      <trkpt lat="42.292006" lon="3.207747">
        <ele>277.406803</ele>
        <time>2019-08-22T19:21:52.836Z</time>
      </trkpt>
      <trkpt lat="42.291299" lon="3.208165">
        <ele>277.768932</ele>
        <time>2019-08-22T19:22:02.522Z</time>
      </trkpt>
      <trkpt lat="42.291141" lon="3.208182">
        <ele>277.843314</ele>
        <time>2019-08-22T19:22:04.250Z</time>
      </trkpt>
      <trkpt lat="42.290968" lon="3.208153">
        <ele>277.925122</ele>
        <time>2019-08-22T19:22:06.142Z</time>
      </trkpt>
      <trkpt lat="42.290218" lon="3.207728">
        <ele>274.868644</ele>
        <time>2019-08-22T19:22:14.205Z</time>
      </trkpt>
      <trkpt lat="42.290075" lon="3.207751">
        <ele>274.300803</ele>
        <time>2019-08-22T19:22:15.591Z</time>
      </trkpt>
      <trkpt lat="42.289999" lon="3.207875">
        <ele>273.831091</ele>
        <time>2019-08-22T19:22:16.733Z</time>
      </trkpt>
      <trkpt lat="42.289916" lon="3.208334">
        <ele>272.452810</ele>
        <time>2019-08-22T19:22:20.063Z</time>
      </trkpt>
      <trkpt lat="42.289626" lon="3.208716">
        <ele>270.856196</ele>
        <time>2019-08-22T19:22:23.920Z</time>
      </trkpt>
      <trkpt lat="42.289318" lon="3.209787">
        <ele>267.279335</ele>
        <time>2019-08-22T19:22:32.077Z</time>
      </trkpt>
      <trkpt lat="42.289210" lon="3.209990">
        <ele>266.500881</ele>
        <time>2019-08-22T19:22:33.858Z</time>
      </trkpt>
      <trkpt lat="42.288525" lon="3.210664">
        <ele>263.418310</ele>
        <time>2019-08-22T19:22:42.072Z</time>
      </trkpt>
      <trkpt lat="42.288371" lon="3.210840">
        <ele>263.761101</ele>
        <time>2019-08-22T19:22:44.088Z</time>
      </trkpt>
      <trkpt lat="42.288326" lon="3.210968">
        <ele>263.939310</ele>
        <time>2019-08-22T19:22:45.200Z</time>
      </trkpt>
      <trkpt lat="42.288332" lon="3.211161">
        <ele>264.182217</ele>
        <time>2019-08-22T19:22:46.744Z</time>
      </trkpt>
      <trkpt lat="42.288631" lon="3.211988">
        <ele>265.339703</ele>
        <time>2019-08-22T19:22:58.023Z</time>
      </trkpt>
      <trkpt lat="42.288659" lon="3.212209">
        <ele>265.621651</ele>
        <time>2019-08-22T19:23:03.609Z</time>
      </trkpt>
      <trkpt lat="42.288629" lon="3.212717">
        <ele>266.262479</ele>
        <time>2019-08-22T19:23:20.807Z</time>
      </trkpt>
      <trkpt lat="42.288752" lon="3.213389">
        <ele>271.185174</ele>
        <time>2019-08-22T19:23:46.718Z</time>
      </trkpt>
      <trkpt lat="42.288822" lon="3.213741">
        <ele>273.976051</ele>
        <time>2019-08-22T19:24:03.140Z</time>
      </trkpt>
      <trkpt lat="42.288882" lon="3.214045">
        <ele>276.385134</ele>
        <time>2019-08-22T19:24:15.674Z</time>
      </trkpt>
      <trkpt lat="42.288928" lon="3.214249">
        <ele>278.018069</ele>
        <time>2019-08-22T19:24:26.665Z</time>
      </trkpt>
      <trkpt lat="42.288955" lon="3.214386">
        <ele>279.103635</ele>
        <time>2019-08-22T19:24:32.327Z</time>
      </trkpt>
      <trkpt lat="42.288959" lon="3.214512">
        <ele>280.069277</ele>
        <time>2019-08-22T19:24:37.919Z</time>
      </trkpt>
      <trkpt lat="42.288947" lon="3.214604">
        <ele>280.784566</ele>
        <time>2019-08-22T19:24:44.052Z</time>
      </trkpt>
      <trkpt lat="42.288874" lon="3.215122">
        <ele>284.822106</ele>
        <time>2019-08-22T19:25:08.751Z</time>
      </trkpt>
      <trkpt lat="42.288785" lon="3.215430">
        <ele>286.310120</ele>
        <time>2019-08-22T19:25:22.345Z</time>
      </trkpt>
      <trkpt lat="42.288428" lon="3.216082">
        <ele>289.820534</ele>
        <time>2019-08-22T19:25:54.131Z</time>
      </trkpt>
      <trkpt lat="42.288395" lon="3.216266">
        <ele>290.639883</ele>
        <time>2019-08-22T19:25:59.076Z</time>
      </trkpt>
      <trkpt lat="42.288450" lon="3.216451">
        <ele>291.502725</ele>
        <time>2019-08-22T19:26:04.906Z</time>
      </trkpt>
      <trkpt lat="42.288980" lon="3.216803">
        <ele>294.957215</ele>
        <time>2019-08-22T19:26:17.521Z</time>
      </trkpt>
      <trkpt lat="42.290118" lon="3.216847">
        <ele>292.806223</ele>
        <time>2019-08-22T19:26:30.941Z</time>
      </trkpt>
      <trkpt lat="42.290262" lon="3.216897">
        <ele>292.428260</ele>
        <time>2019-08-22T19:26:32.412Z</time>
      </trkpt>
      <trkpt lat="42.291275" lon="3.217776">
        <ele>287.919425</ele>
        <time>2019-08-22T19:26:43.641Z</time>
      </trkpt>
      <trkpt lat="42.291375" lon="3.217911">
        <ele>287.220990</ele>
        <time>2019-08-22T19:26:44.971Z</time>
      </trkpt>
      <trkpt lat="42.291471" lon="3.218301">
        <ele>285.718370</ele>
        <time>2019-08-22T19:26:47.800Z</time>
      </trkpt>
      <trkpt lat="42.291546" lon="3.218609">
        <ele>284.532953</ele>
        <time>2019-08-22T19:26:50.044Z</time>
      </trkpt>
      <trkpt lat="42.291616" lon="3.219041">
        <ele>282.916214</ele>
        <time>2019-08-22T19:26:53.171Z</time>
      </trkpt>
      <trkpt lat="42.291629" lon="3.219278">
        <ele>282.047417</ele>
        <time>2019-08-22T19:26:54.913Z</time>
      </trkpt>
      <trkpt lat="42.291450" lon="3.219676">
        <ele>281.041519</ele>
        <time>2019-08-22T19:26:58.369Z</time>
      </trkpt>
      <trkpt lat="42.291305" lon="3.219743">
        <ele>280.600404</ele>
        <time>2019-08-22T19:26:59.867Z</time>
      </trkpt>
      <trkpt lat="42.290891" lon="3.219549">
        <ele>279.339071</ele>
        <time>2019-08-22T19:27:04.200Z</time>
      </trkpt>
      <trkpt lat="42.290486" lon="3.219630">
        <ele>278.160525</ele>
        <time>2019-08-22T19:27:08.433Z</time>
      </trkpt>
      <trkpt lat="42.290349" lon="3.219738">
        <ele>277.703990</ele>
        <time>2019-08-22T19:27:10.150Z</time>
      </trkpt>
      <trkpt lat="42.290290" lon="3.219893">
        <ele>277.332788</ele>
        <time>2019-08-22T19:27:12.482Z</time>
      </trkpt>
      <trkpt lat="42.290182" lon="3.220479">
        <ele>276.934405</ele>
        <time>2019-08-22T19:27:17.594Z</time>
      </trkpt>
      <trkpt lat="42.290053" lon="3.220662">
        <ele>277.001427</ele>
        <time>2019-08-22T19:27:19.992Z</time>
      </trkpt>
      <trkpt lat="42.289821" lon="3.220827">
        <ele>277.095385</ele>
        <time>2019-08-22T19:27:23.395Z</time>
      </trkpt>
      <trkpt lat="42.289356" lon="3.221003">
        <ele>277.268458</ele>
        <time>2019-08-22T19:27:31.881Z</time>
      </trkpt>
      <trkpt lat="42.288851" lon="3.221396">
        <ele>277.477309</ele>
        <time>2019-08-22T19:27:42.659Z</time>
      </trkpt>
      <trkpt lat="42.287125" lon="3.221881">
        <ele>282.257292</ele>
        <time>2019-08-22T19:28:32.201Z</time>
      </trkpt>
      <trkpt lat="42.287060" lon="3.222017">
        <ele>282.370592</ele>
        <time>2019-08-22T19:28:35.043Z</time>
      </trkpt>
      <trkpt lat="42.287069" lon="3.222182">
        <ele>282.353272</ele>
        <time>2019-08-22T19:28:37.994Z</time>
      </trkpt>
      <trkpt lat="42.287160" lon="3.222309">
        <ele>282.334762</ele>
        <time>2019-08-22T19:28:41.121Z</time>
      </trkpt>
      <trkpt lat="42.288655" lon="3.222496">
        <ele>282.076125</ele>
        <time>2019-08-22T19:28:59.966Z</time>
      </trkpt>
      <trkpt lat="42.288834" lon="3.222558">
        <ele>281.768117</ele>
        <time>2019-08-22T19:29:01.836Z</time>
      </trkpt>
      <trkpt lat="42.289003" lon="3.222665">
        <ele>281.457050</ele>
        <time>2019-08-22T19:29:04.075Z</time>
      </trkpt>
      <trkpt lat="42.289321" lon="3.222835">
        <ele>280.887042</ele>
        <time>2019-08-22T19:29:07.824Z</time>
      </trkpt>
      <trkpt lat="42.290259" lon="3.223022">
        <ele>279.306612</ele>
        <time>2019-08-22T19:29:18.250Z</time>
      </trkpt>
      <trkpt lat="42.291692" lon="3.223730">
        <ele>277.452014</ele>
        <time>2019-08-22T19:29:37.494Z</time>
      </trkpt>
      <trkpt lat="42.291893" lon="3.223853">
        <ele>277.191318</ele>
        <time>2019-08-22T19:29:40.038Z</time>
      </trkpt>
      <trkpt lat="42.292308" lon="3.224366">
        <ele>275.821080</ele>
        <time>2019-08-22T19:29:46.230Z</time>
      </trkpt>
      <trkpt lat="42.292494" lon="3.225228">
        <ele>273.873518</ele>
        <time>2019-08-22T19:29:53.164Z</time>
      </trkpt>
      <trkpt lat="42.292568" lon="3.225326">
        <ele>273.569775</ele>
        <time>2019-08-22T19:29:54.203Z</time>
      </trkpt>
      <trkpt lat="42.292728" lon="3.225369">
        <ele>273.091453</ele>
        <time>2019-08-22T19:29:55.834Z</time>
      </trkpt>
      <trkpt lat="42.293400" lon="3.225285">
        <ele>270.830073</ele>
        <time>2019-08-22T19:30:02.414Z</time>
      </trkpt>
      <trkpt lat="42.293561" lon="3.225483">
        <ele>269.899483</ele>
        <time>2019-08-22T19:30:04.540Z</time>
      </trkpt>
      <trkpt lat="42.293720" lon="3.225797">
        <ele>268.696001</ele>
        <time>2019-08-22T19:30:07.286Z</time>
      </trkpt>
      <trkpt lat="42.293902" lon="3.226552">
        <ele>266.184585</ele>
        <time>2019-08-22T19:30:13.027Z</time>
      </trkpt>
      <trkpt lat="42.293942" lon="3.226883">
        <ele>265.123863</ele>
        <time>2019-08-22T19:30:15.435Z</time>
      </trkpt>
      <trkpt lat="42.293834" lon="3.228334">
        <ele>260.057523</ele>
        <time>2019-08-22T19:30:25.546Z</time>
      </trkpt>
      <trkpt lat="42.293787" lon="3.228852">
        <ele>258.194485</ele>
        <time>2019-08-22T19:30:29.228Z</time>
      </trkpt>
      <trkpt lat="42.293764" lon="3.228965">
        <ele>257.776100</ele>
        <time>2019-08-22T19:30:29.994Z</time>
      </trkpt>
      <trkpt lat="42.293658" lon="3.229159">
        <ele>256.915100</ele>
        <time>2019-08-22T19:30:31.788Z</time>
      </trkpt>
      <trkpt lat="42.293238" lon="3.229627">
        <ele>254.749299</ele>
        <time>2019-08-22T19:30:36.982Z</time>
      </trkpt>
      <trkpt lat="42.292809" lon="3.230092">
        <ele>253.238299</ele>
        <time>2019-08-22T19:30:42.563Z</time>
      </trkpt>
      <trkpt lat="42.292545" lon="3.230303">
        <ele>252.395543</ele>
        <time>2019-08-22T19:30:45.695Z</time>
      </trkpt>
      <trkpt lat="42.292316" lon="3.230427">
        <ele>251.717662</ele>
        <time>2019-08-22T19:30:48.250Z</time>
      </trkpt>
      <trkpt lat="42.291717" lon="3.230429">
        <ele>250.384302</ele>
        <time>2019-08-22T19:30:55.464Z</time>
      </trkpt>
      <trkpt lat="42.291597" lon="3.230548">
        <ele>250.346398</ele>
        <time>2019-08-22T19:30:57.317Z</time>
      </trkpt>
      <trkpt lat="42.291576" lon="3.230595">
        <ele>250.336053</ele>
        <time>2019-08-22T19:30:58.781Z</time>
      </trkpt>
      <trkpt lat="42.291565" lon="3.230700">
        <ele>250.316074</ele>
        <time>2019-08-22T19:30:59.885Z</time>
      </trkpt>
      <trkpt lat="42.291568" lon="3.230767">
        <ele>250.303428</ele>
        <time>2019-08-22T19:31:00.354Z</time>
      </trkpt>
      <trkpt lat="42.291650" lon="3.230975">
        <ele>250.259024</ele>
        <time>2019-08-22T19:31:02.628Z</time>
      </trkpt>
      <trkpt lat="42.291964" lon="3.231313">
        <ele>250.156797</ele>
        <time>2019-08-22T19:31:08.784Z</time>
      </trkpt>
      <trkpt lat="42.292019" lon="3.231457">
        <ele>250.126265</ele>
        <time>2019-08-22T19:31:10.484Z</time>
      </trkpt>
      <trkpt lat="42.292021" lon="3.231637">
        <ele>250.092350</ele>
        <time>2019-08-22T19:31:12.142Z</time>
      </trkpt>
      <trkpt lat="42.291814" lon="3.232053">
        <ele>249.997895</ele>
        <time>2019-08-22T19:31:17.903Z</time>
      </trkpt>
      <trkpt lat="42.291367" lon="3.232429">
        <ele>250.403342</ele>
        <time>2019-08-22T19:31:26.802Z</time>
      </trkpt>
      <trkpt lat="42.291312" lon="3.232541">
        <ele>250.522859</ele>
        <time>2019-08-22T19:31:28.608Z</time>
      </trkpt>
      <trkpt lat="42.291308" lon="3.232909">
        <ele>250.850063</ele>
        <time>2019-08-22T19:31:33.686Z</time>
      </trkpt>
      <trkpt lat="42.291415" lon="3.233203">
        <ele>251.141365</ele>
        <time>2019-08-22T19:31:38.529Z</time>
      </trkpt>
      <trkpt lat="42.291508" lon="3.233300">
        <ele>251.282538</ele>
        <time>2019-08-22T19:31:40.839Z</time>
      </trkpt>
      <trkpt lat="42.291636" lon="3.233331">
        <ele>251.438824</ele>
        <time>2019-08-22T19:31:43.508Z</time>
      </trkpt>
      <trkpt lat="42.292490" lon="3.233104">
        <ele>252.703430</ele>
        <time>2019-08-22T19:32:02.661Z</time>
      </trkpt>
      <trkpt lat="42.292693" lon="3.233097">
        <ele>253.093631</ele>
        <time>2019-08-22T19:32:07.925Z</time>
      </trkpt>
      <trkpt lat="42.293254" lon="3.233207">
        <ele>254.182898</ele>
        <time>2019-08-22T19:32:21.681Z</time>
      </trkpt>
      <trkpt lat="42.293366" lon="3.233273">
        <ele>254.417669</ele>
        <time>2019-08-22T19:32:24.866Z</time>
      </trkpt>
      <trkpt lat="42.293505" lon="3.233532">
        <ele>254.872493</ele>
        <time>2019-08-22T19:32:30.024Z</time>
      </trkpt>
      <trkpt lat="42.293577" lon="3.233712">
        <ele>255.163353</ele>
        <time>2019-08-22T19:32:33.651Z</time>
      </trkpt>
      <trkpt lat="42.293655" lon="3.233907">
        <ele>255.478451</ele>
        <time>2019-08-22T19:32:36.958Z</time>
      </trkpt>
      <trkpt lat="42.293739" lon="3.234127">
        <ele>255.522413</ele>
        <time>2019-08-22T19:32:40.627Z</time>
      </trkpt>
      <trkpt lat="42.293839" lon="3.234212">
        <ele>255.474568</ele>
        <time>2019-08-22T19:32:42.766Z</time>
      </trkpt>
      <trkpt lat="42.294583" lon="3.234688">
        <ele>255.141178</ele>
        <time>2019-08-22T19:32:55.252Z</time>
      </trkpt>
      <trkpt lat="42.294673" lon="3.234718">
        <ele>255.103633</ele>
        <time>2019-08-22T19:32:56.640Z</time>
      </trkpt>
      <trkpt lat="42.295259" lon="3.234590">
        <ele>254.863203</ele>
        <time>2019-08-22T19:33:03.338Z</time>
      </trkpt>
      <trkpt lat="42.295454" lon="3.234600">
        <ele>254.386938</ele>
        <time>2019-08-22T19:33:05.396Z</time>
      </trkpt>
      <trkpt lat="42.296691" lon="3.235049">
        <ele>250.614808</ele>
        <time>2019-08-22T19:33:18.640Z</time>
      </trkpt>
      <trkpt lat="42.296807" lon="3.235130">
        <ele>250.230297</ele>
        <time>2019-08-22T19:33:19.914Z</time>
      </trkpt>
      <trkpt lat="42.296910" lon="3.235348">
        <ele>249.666788</ele>
        <time>2019-08-22T19:33:21.786Z</time>
      </trkpt>
      <trkpt lat="42.296920" lon="3.235497">
        <ele>249.238008</ele>
        <time>2019-08-22T19:33:22.866Z</time>
      </trkpt>
      <trkpt lat="42.296805" lon="3.235907">
        <ele>247.813609</ele>
        <time>2019-08-22T19:33:26.046Z</time>
      </trkpt>
      <trkpt lat="42.296777" lon="3.235975">
        <ele>247.560794</ele>
        <time>2019-08-22T19:33:26.595Z</time>
      </trkpt>
      <trkpt lat="42.296669" lon="3.236244">
        <ele>246.566539</ele>
        <time>2019-08-22T19:33:28.809Z</time>
      </trkpt>
      <trkpt lat="42.296638" lon="3.236287">
        <ele>246.371484</ele>
        <time>2019-08-22T19:33:29.239Z</time>
      </trkpt>
      <trkpt lat="42.296623" lon="3.236343">
        <ele>246.178011</ele>
        <time>2019-08-22T19:33:29.674Z</time>
      </trkpt>
      <trkpt lat="42.296624" lon="3.236403">
        <ele>245.983055</ele>
        <time>2019-08-22T19:33:30.095Z</time>
      </trkpt>
      <trkpt lat="42.296557" lon="3.236663">
        <ele>245.088672</ele>
        <time>2019-08-22T19:33:32.082Z</time>
      </trkpt>
      <trkpt lat="42.296422" lon="3.237094">
        <ele>243.568233</ele>
        <time>2019-08-22T19:33:35.427Z</time>
      </trkpt>
      <trkpt lat="42.296329" lon="3.237372">
        <ele>242.577097</ele>
        <time>2019-08-22T19:33:37.578Z</time>
      </trkpt>
      <trkpt lat="42.296266" lon="3.237653">
        <ele>241.614461</ele>
        <time>2019-08-22T19:33:39.644Z</time>
      </trkpt>
      <trkpt lat="42.296612" lon="3.238706">
        <ele>236.687592</ele>
        <time>2019-08-22T19:33:47.507Z</time>
      </trkpt>
      <trkpt lat="42.296623" lon="3.239340">
        <ele>233.975894</ele>
        <time>2019-08-22T19:33:51.833Z</time>
      </trkpt>
      <trkpt lat="42.296460" lon="3.239901">
        <ele>231.398649</ele>
        <time>2019-08-22T19:33:55.954Z</time>
      </trkpt>
      <trkpt lat="42.296412" lon="3.240689">
        <ele>227.879381</ele>
        <time>2019-08-22T19:34:01.300Z</time>
      </trkpt>
      <trkpt lat="42.295793" lon="3.242511">
        <ele>218.936465</ele>
        <time>2019-08-22T19:34:14.930Z</time>
      </trkpt>
      <trkpt lat="42.295700" lon="3.242974">
        <ele>216.793063</ele>
        <time>2019-08-22T19:34:18.230Z</time>
      </trkpt>
      <trkpt lat="42.295761" lon="3.243154">
        <ele>215.908516</ele>
        <time>2019-08-22T19:34:19.596Z</time>
      </trkpt>
      <trkpt lat="42.296269" lon="3.243720">
        <ele>211.932559</ele>
        <time>2019-08-22T19:34:25.673Z</time>
      </trkpt>
      <trkpt lat="42.296316" lon="3.243968">
        <ele>210.788820</ele>
        <time>2019-08-22T19:34:27.401Z</time>
      </trkpt>
      <trkpt lat="42.296178" lon="3.244141">
        <ele>209.652123</ele>
        <time>2019-08-22T19:34:29.111Z</time>
      </trkpt>
      <trkpt lat="42.295686" lon="3.244082">
        <ele>206.159774</ele>
        <time>2019-08-22T19:34:33.541Z</time>
      </trkpt>
      <trkpt lat="42.295378" lon="3.244281">
        <ele>203.733325</ele>
        <time>2019-08-22T19:34:36.586Z</time>
      </trkpt>
      <trkpt lat="42.294858" lon="3.245329">
        <ele>197.098333</ele>
        <time>2019-08-22T19:34:44.912Z</time>
      </trkpt>
      <trkpt lat="42.294881" lon="3.245628">
        <ele>195.676427</ele>
        <time>2019-08-22T19:34:46.922Z</time>
      </trkpt>
      <trkpt lat="42.295180" lon="3.246247">
        <ele>192.284837</ele>
        <time>2019-08-22T19:34:51.886Z</time>
      </trkpt>
      <trkpt lat="42.295217" lon="3.246698">
        <ele>190.203148</ele>
        <time>2019-08-22T19:34:54.976Z</time>
      </trkpt>
      <trkpt lat="42.295105" lon="3.247165">
        <ele>187.950948</ele>
        <time>2019-08-22T19:34:58.344Z</time>
      </trkpt>
      <trkpt lat="42.295129" lon="3.247593">
        <ele>185.981825</ele>
        <time>2019-08-22T19:35:01.301Z</time>
      </trkpt>
      <trkpt lat="42.295020" lon="3.247748">
        <ele>184.984654</ele>
        <time>2019-08-22T19:35:02.778Z</time>
      </trkpt>
      <trkpt lat="42.294602" lon="3.248077">
        <ele>181.905553</ele>
        <time>2019-08-22T19:35:07.235Z</time>
      </trkpt>
      <trkpt lat="42.294550" lon="3.248300">
        <ele>180.804532</ele>
        <time>2019-08-22T19:35:08.837Z</time>
      </trkpt>
      <trkpt lat="42.294598" lon="3.248720">
        <ele>178.803337</ele>
        <time>2019-08-22T19:35:11.737Z</time>
      </trkpt>
      <trkpt lat="42.294561" lon="3.248853">
        <ele>178.134228</ele>
        <time>2019-08-22T19:35:12.708Z</time>
      </trkpt>
      <trkpt lat="42.294174" lon="3.249021">
        <ele>175.546698</ele>
        <time>2019-08-22T19:35:16.373Z</time>
      </trkpt>
      <trkpt lat="42.294079" lon="3.249119">
        <ele>174.785974</ele>
        <time>2019-08-22T19:35:17.434Z</time>
      </trkpt>
      <trkpt lat="42.293375" lon="3.250252">
        <ele>166.237111</ele>
        <time>2019-08-22T19:35:27.078Z</time>
      </trkpt>
      <trkpt lat="42.293469" lon="3.251532">
        <ele>158.927297</ele>
        <time>2019-08-22T19:35:35.502Z</time>
      </trkpt>
      <trkpt lat="42.293077" lon="3.252557">
        <ele>153.621182</ele>
        <time>2019-08-22T19:35:43.166Z</time>
      </trkpt>
      <trkpt lat="42.292990" lon="3.252976">
        <ele>151.619950</ele>
        <time>2019-08-22T19:35:46.161Z</time>
      </trkpt>
      <trkpt lat="42.292968" lon="3.253338">
        <ele>149.949690</ele>
        <time>2019-08-22T19:35:48.728Z</time>
      </trkpt>
      <trkpt lat="42.293047" lon="3.254321">
        <ele>146.826333</ele>
        <time>2019-08-22T19:35:55.901Z</time>
      </trkpt>
      <trkpt lat="42.293060" lon="3.254589">
        <ele>146.129488</ele>
        <time>2019-08-22T19:35:57.943Z</time>
      </trkpt>
      <trkpt lat="42.293115" lon="3.254726">
        <ele>145.725053</ele>
        <time>2019-08-22T19:35:59.059Z</time>
      </trkpt>
      <trkpt lat="42.293352" lon="3.254917">
        <ele>144.757255</ele>
        <time>2019-08-22T19:36:01.870Z</time>
      </trkpt>
      <trkpt lat="42.293817" lon="3.254895">
        <ele>143.125237</ele>
        <time>2019-08-22T19:36:06.488Z</time>
      </trkpt>
      <trkpt lat="42.293946" lon="3.255036">
        <ele>142.543371</ele>
        <time>2019-08-22T19:36:08.228Z</time>
      </trkpt>
      <trkpt lat="42.293979" lon="3.255163">
        <ele>142.202088</ele>
        <time>2019-08-22T19:36:09.382Z</time>
      </trkpt>
      <trkpt lat="42.293988" lon="3.255329">
        <ele>141.790892</ele>
        <time>2019-08-22T19:36:10.541Z</time>
      </trkpt>
      <trkpt lat="42.294022" lon="3.255729">
        <ele>140.796205</ele>
        <time>2019-08-22T19:36:13.917Z</time>
      </trkpt>
      <trkpt lat="42.294128" lon="3.255910">
        <ele>140.225875</ele>
        <time>2019-08-22T19:36:15.674Z</time>
      </trkpt>
      <trkpt lat="42.294225" lon="3.255956">
        <ele>139.882560</ele>
        <time>2019-08-22T19:36:16.909Z</time>
      </trkpt>
      <trkpt lat="42.295175" lon="3.255856">
        <ele>136.700140</ele>
        <time>2019-08-22T19:36:26.208Z</time>
      </trkpt>
      <trkpt lat="42.295476" lon="3.255804">
        <ele>135.542841</ele>
        <time>2019-08-22T19:36:29.261Z</time>
      </trkpt>
      <trkpt lat="42.295565" lon="3.255811">
        <ele>135.180871</ele>
        <time>2019-08-22T19:36:30.105Z</time>
      </trkpt>
      <trkpt lat="42.295716" lon="3.255923">
        <ele>134.481567</ele>
        <time>2019-08-22T19:36:31.829Z</time>
      </trkpt>
      <trkpt lat="42.295971" lon="3.256296">
        <ele>132.956167</ele>
        <time>2019-08-22T19:36:35.525Z</time>
      </trkpt>
      <trkpt lat="42.296032" lon="3.256404">
        <ele>132.548067</ele>
        <time>2019-08-22T19:36:36.524Z</time>
      </trkpt>
      <trkpt lat="42.296056" lon="3.256603">
        <ele>131.942528</ele>
        <time>2019-08-22T19:36:37.970Z</time>
      </trkpt>
      <trkpt lat="42.295984" lon="3.256759">
        <ele>131.390297</ele>
        <time>2019-08-22T19:36:39.330Z</time>
      </trkpt>
      <trkpt lat="42.295451" lon="3.257218">
        <ele>128.779934</ele>
        <time>2019-08-22T19:36:45.416Z</time>
      </trkpt>
      <trkpt lat="42.294833" lon="3.258200">
        <ele>124.145648</ele>
        <time>2019-08-22T19:36:54.468Z</time>
      </trkpt>
      <trkpt lat="42.294817" lon="3.258430">
        <ele>123.315297</ele>
        <time>2019-08-22T19:36:56.089Z</time>
      </trkpt>
      <trkpt lat="42.294909" lon="3.258894">
        <ele>121.588635</ele>
        <time>2019-08-22T19:36:59.469Z</time>
      </trkpt>
      <trkpt lat="42.295112" lon="3.259398">
        <ele>119.353816</ele>
        <time>2019-08-22T19:37:03.480Z</time>
      </trkpt>
      <trkpt lat="42.295081" lon="3.259597">
        <ele>118.462515</ele>
        <time>2019-08-22T19:37:04.877Z</time>
      </trkpt>
      <trkpt lat="42.294955" lon="3.259712">
        <ele>117.561737</ele>
        <time>2019-08-22T19:37:06.275Z</time>
      </trkpt>
      <trkpt lat="42.294147" lon="3.259559">
        <ele>112.727485</ele>
        <time>2019-08-22T19:37:13.706Z</time>
      </trkpt>
      <trkpt lat="42.293855" lon="3.259669">
        <ele>110.931426</ele>
        <time>2019-08-22T19:37:16.474Z</time>
      </trkpt>
      <trkpt lat="42.293557" lon="3.260010">
        <ele>108.655854</ele>
        <time>2019-08-22T19:37:20.054Z</time>
      </trkpt>
      <trkpt lat="42.293303" lon="3.260707">
        <ele>105.374510</ele>
        <time>2019-08-22T19:37:25.354Z</time>
      </trkpt>
      <trkpt lat="42.293301" lon="3.260885">
        <ele>104.622704</ele>
        <time>2019-08-22T19:37:26.569Z</time>
      </trkpt>
      <trkpt lat="42.293417" lon="3.261155">
        <ele>103.304084</ele>
        <time>2019-08-22T19:37:28.702Z</time>
      </trkpt>
      <trkpt lat="42.294078" lon="3.261760">
        <ele>98.690172</ele>
        <time>2019-08-22T19:37:36.166Z</time>
      </trkpt>
      <trkpt lat="42.294146" lon="3.261842">
        <ele>98.123796</ele>
        <time>2019-08-22T19:37:37.024Z</time>
      </trkpt>
      <trkpt lat="42.294181" lon="3.262016">
        <ele>97.294744</ele>
        <time>2019-08-22T19:37:38.277Z</time>
      </trkpt>
      <trkpt lat="42.294072" lon="3.262219">
        <ele>96.141434</ele>
        <time>2019-08-22T19:37:40.019Z</time>
      </trkpt>
      <trkpt lat="42.293314" lon="3.262611">
        <ele>91.097021</ele>
        <time>2019-08-22T19:37:47.408Z</time>
      </trkpt>
      <trkpt lat="42.293080" lon="3.262786">
        <ele>89.434840</ele>
        <time>2019-08-22T19:37:49.807Z</time>
      </trkpt>
      <trkpt lat="42.292899" lon="3.263018">
        <ele>87.834292</ele>
        <time>2019-08-22T19:37:52.039Z</time>
      </trkpt>
      <trkpt lat="42.292842" lon="3.263204">
        <ele>86.763486</ele>
        <time>2019-08-22T19:37:53.377Z</time>
      </trkpt>
      <trkpt lat="42.292822" lon="3.263824">
        <ele>83.462779</ele>
        <time>2019-08-22T19:37:57.503Z</time>
      </trkpt>
      <trkpt lat="42.293039" lon="3.264402">
        <ele>80.015312</ele>
        <time>2019-08-22T19:38:01.800Z</time>
      </trkpt>
      <trkpt lat="42.293035" lon="3.264586">
        <ele>79.036258</ele>
        <time>2019-08-22T19:38:03.021Z</time>
      </trkpt>
      <trkpt lat="42.292868" lon="3.265042">
        <ele>76.329982</ele>
        <time>2019-08-22T19:38:06.365Z</time>
      </trkpt>
      <trkpt lat="42.292541" lon="3.265486">
        <ele>73.708723</ele>
        <time>2019-08-22T19:38:10.524Z</time>
      </trkpt>
      <trkpt lat="42.292372" lon="3.266171">
        <ele>71.068759</ele>
        <time>2019-08-22T19:38:15.479Z</time>
      </trkpt>
      <trkpt lat="42.292429" lon="3.266443">
        <ele>70.035198</ele>
        <time>2019-08-22T19:38:17.465Z</time>
      </trkpt>
      <trkpt lat="42.292629" lon="3.266964">
        <ele>67.889224</ele>
        <time>2019-08-22T19:38:21.670Z</time>
      </trkpt>
      <trkpt lat="42.292669" lon="3.268741">
        <ele>63.839422</ele>
        <time>2019-08-22T19:38:35.710Z</time>
      </trkpt>
      <trkpt lat="42.292718" lon="3.269006">
        <ele>63.330757</ele>
        <time>2019-08-22T19:38:37.929Z</time>
      </trkpt>
      <trkpt lat="42.292874" lon="3.269420">
        <ele>62.465548</ele>
        <time>2019-08-22T19:38:41.540Z</time>
      </trkpt>
      <trkpt lat="42.292882" lon="3.269458">
        <ele>62.391975</ele>
        <time>2019-08-22T19:38:43.311Z</time>
      </trkpt>
      <trkpt lat="42.292891" lon="3.269496">
        <ele>62.317673</ele>
        <time>2019-08-22T19:38:43.563Z</time>
      </trkpt>
      <trkpt lat="42.292821" lon="3.269712">
        <ele>61.878532</ele>
        <time>2019-08-22T19:38:45.407Z</time>
      </trkpt>
      <trkpt lat="42.292488" lon="3.269839">
        <ele>59.841501</ele>
        <time>2019-08-22T19:38:49.010Z</time>
      </trkpt>
      <trkpt lat="42.292084" lon="3.270154">
        <ele>57.051615</ele>
        <time>2019-08-22T19:38:53.645Z</time>
      </trkpt>
      <trkpt lat="42.292047" lon="3.270159">
        <ele>56.829178</ele>
        <time>2019-08-22T19:38:53.964Z</time>
      </trkpt>
      <trkpt lat="42.291781" lon="3.270193">
        <ele>55.230871</ele>
        <time>2019-08-22T19:38:56.366Z</time>
      </trkpt>
      <trkpt lat="42.291530" lon="3.270223">
        <ele>53.723533</ele>
        <time>2019-08-22T19:38:58.638Z</time>
      </trkpt>
      <trkpt lat="42.291421" lon="3.270244">
        <ele>53.064907</ele>
        <time>2019-08-22T19:38:59.590Z</time>
      </trkpt>
      <trkpt lat="42.291216" lon="3.270303">
        <ele>51.811114</ele>
        <time>2019-08-22T19:39:01.429Z</time>
      </trkpt>
      <trkpt lat="42.291072" lon="3.270298">
        <ele>50.844686</ele>
        <time>2019-08-22T19:39:02.653Z</time>
      </trkpt>
      <trkpt lat="42.290992" lon="3.270276">
        <ele>50.005639</ele>
        <time>2019-08-22T19:39:03.374Z</time>
      </trkpt>
      <trkpt lat="42.290975" lon="3.270271">
        <ele>49.826832</ele>
        <time>2019-08-22T19:39:03.516Z</time>
      </trkpt>
      <trkpt lat="42.290939" lon="3.270250">
        <ele>49.423861</ele>
        <time>2019-08-22T19:39:03.873Z</time>
      </trkpt>
      <trkpt lat="42.290870" lon="3.270208">
        <ele>48.646133</ele>
        <time>2019-08-22T19:39:04.527Z</time>
      </trkpt>
      <trkpt lat="42.290596" lon="3.270007">
        <ele>45.442160</ele>
        <time>2019-08-22T19:39:07.201Z</time>
      </trkpt>
      <trkpt lat="42.290535" lon="3.269982">
        <ele>44.787048</ele>
        <time>2019-08-22T19:39:07.746Z</time>
      </trkpt>
      <trkpt lat="42.290425" lon="3.269938">
        <ele>43.608059</ele>
        <time>2019-08-22T19:39:08.706Z</time>
      </trkpt>
      <trkpt lat="42.289137" lon="3.269856">
        <ele>30.936557</ele>
        <time>2019-08-22T19:39:19.743Z</time>
      </trkpt>
      <trkpt lat="42.288978" lon="3.270026">
        <ele>29.389911</ele>
        <time>2019-08-22T19:39:21.458Z</time>
      </trkpt>
      <trkpt lat="42.288916" lon="3.270395">
        <ele>27.254263</ele>
        <time>2019-08-22T19:39:23.941Z</time>
      </trkpt>
      <trkpt lat="42.289129" lon="3.271329">
        <ele>21.738051</ele>
        <time>2019-08-22T19:39:30.477Z</time>
      </trkpt>
      <trkpt lat="42.289291" lon="3.271595">
        <ele>19.793463</ele>
        <time>2019-08-22T19:39:32.827Z</time>
      </trkpt>
      <trkpt lat="42.290234" lon="3.272349">
        <ele>15.139966</ele>
        <time>2019-08-22T19:39:43.335Z</time>
      </trkpt>
      <trkpt lat="42.290693" lon="3.272339">
        <ele>13.378989</ele>
        <time>2019-08-22T19:39:47.995Z</time>
      </trkpt>
      <trkpt lat="42.290847" lon="3.272493">
        <ele>12.644169</ele>
        <time>2019-08-22T19:39:49.949Z</time>
      </trkpt>
      <trkpt lat="42.290849" lon="3.272777">
        <ele>11.927190</ele>
        <time>2019-08-22T19:39:52.213Z</time>
      </trkpt>
      <trkpt lat="42.290435" lon="3.273487">
        <ele>10.892386</ele>
        <time>2019-08-22T19:39:59.575Z</time>
      </trkpt>
      <trkpt lat="42.290292" lon="3.273745">
        <ele>10.523373</ele>
        <time>2019-08-22T19:40:02.194Z</time>
      </trkpt>
      <trkpt lat="42.290243" lon="3.273748">
        <ele>10.447475</ele>
        <time>2019-08-22T19:40:02.856Z</time>
      </trkpt>
      <trkpt lat="42.289905" lon="3.274049">
        <ele>9.821191</ele>
        <time>2019-08-22T19:40:07.681Z</time>
      </trkpt>
      <trkpt lat="42.289878" lon="3.274161">
        <ele>9.686355</ele>
        <time>2019-08-22T19:40:08.714Z</time>
      </trkpt>
      <trkpt lat="42.289890" lon="3.274201">
        <ele>9.636948</ele>
        <time>2019-08-22T19:40:09.150Z</time>
      </trkpt>
      <trkpt lat="42.289916" lon="3.274234">
        <ele>9.581764</ele>
        <time>2019-08-22T19:40:09.572Z</time>
      </trkpt>
      <trkpt lat="42.289954" lon="3.274254">
        <ele>9.518666</ele>
        <time>2019-08-22T19:40:10.039Z</time>
      </trkpt>
      <trkpt lat="42.289977" lon="3.274400">
        <ele>9.347801</ele>
        <time>2019-08-22T19:40:11.453Z</time>
      </trkpt>
      <trkpt lat="42.290008" lon="3.274691">
        <ele>9.388131</ele>
        <time>2019-08-22T19:40:14.269Z</time>
      </trkpt>
      <trkpt lat="42.290028" lon="3.274796">
        <ele>9.506416</ele>
        <time>2019-08-22T19:40:15.220Z</time>
      </trkpt>
      <trkpt lat="42.290052" lon="3.274923">
        <ele>9.649414</ele>
        <time>2019-08-22T19:40:16.658Z</time>
      </trkpt>
      <trkpt lat="42.290083" lon="3.275243">
        <ele>10.001493</ele>
        <time>2019-08-22T19:40:19.724Z</time>
      </trkpt>
      <trkpt lat="42.290014" lon="3.275661">
        <ele>10.468719</ele>
        <time>2019-08-22T19:40:26.310Z</time>
      </trkpt>
      <trkpt lat="42.289985" lon="3.275826">
        <ele>10.653734</ele>
        <time>2019-08-22T19:40:28.402Z</time>
      </trkpt>
      <trkpt lat="42.289970" lon="3.275934">
        <ele>10.773613</ele>
        <time>2019-08-22T19:40:30.293Z</time>
      </trkpt>
      <trkpt lat="42.290046" lon="3.275940">
        <ele>10.885884</ele>
        <time>2019-08-22T19:40:32.989Z</time>
      </trkpt>
      <trkpt lat="42.290120" lon="3.276073">
        <ele>11.067438</ele>
        <time>2019-08-22T19:40:35.958Z</time>
      </trkpt>
      <trkpt lat="42.290185" lon="3.276327">
        <ele>11.360646</ele>
        <time>2019-08-22T19:40:41.685Z</time>
      </trkpt>
      <trkpt lat="42.290198" lon="3.276403">
        <ele>11.445745</ele>
        <time>2019-08-22T19:40:43.606Z</time>
      </trkpt>
      <trkpt lat="42.290187" lon="3.276925">
        <ele>12.548915</ele>
        <time>2019-08-22T19:40:56.997Z</time>
      </trkpt>
      <trkpt lat="42.290229" lon="3.277099">
        <ele>13.419842</ele>
        <time>2019-08-22T19:41:01.098Z</time>
      </trkpt>
      <trkpt lat="42.290255" lon="3.277170">
        <ele>13.796819</ele>
        <time>2019-08-22T19:41:03.636Z</time>
      </trkpt>
      <trkpt lat="42.290285" lon="3.277329">
        <ele>14.577628</ele>
        <time>2019-08-22T19:41:10.107Z</time>
      </trkpt>
      <trkpt lat="42.290487" lon="3.277848">
        <ele>17.368205</ele>
        <time>2019-08-22T19:41:29.242Z</time>
      </trkpt>
      <trkpt lat="42.290650" lon="3.278172">
        <ele>19.232673</ele>
        <time>2019-08-22T19:41:44.341Z</time>
      </trkpt>
      <trkpt lat="42.290801" lon="3.278358">
        <ele>20.546737</ele>
        <time>2019-08-22T19:41:53.176Z</time>
      </trkpt>
      <trkpt lat="42.290842" lon="3.278449">
        <ele>21.053741</ele>
        <time>2019-08-22T19:41:58.650Z</time>
      </trkpt>
      <trkpt lat="42.290866" lon="3.278554">
        <ele>21.576677</ele>
        <time>2019-08-22T19:42:03.143Z</time>
      </trkpt>
      <trkpt lat="42.290868" lon="3.278719">
        <ele>22.361912</ele>
        <time>2019-08-22T19:42:08.456Z</time>
      </trkpt>
      <trkpt lat="42.290947" lon="3.278815">
        <ele>23.045215</ele>
        <time>2019-08-22T19:42:14.054Z</time>
      </trkpt>
      <trkpt lat="42.291163" lon="3.279047">
        <ele>24.966496</ele>
        <time>2019-08-22T19:42:29.204Z</time>
      </trkpt>
      <trkpt lat="42.291246" lon="3.279293">
        <ele>26.388512</ele>
        <time>2019-08-22T19:42:40.282Z</time>
      </trkpt>
      <trkpt lat="42.291268" lon="3.279475">
        <ele>27.358404</ele>
        <time>2019-08-22T19:42:46.659Z</time>
      </trkpt>
      <trkpt lat="42.291267" lon="3.279515">
        <ele>27.568897</ele>
        <time>2019-08-22T19:42:48.057Z</time>
      </trkpt>
      <trkpt lat="42.291247" lon="3.279602">
        <ele>28.048043</ele>
        <time>2019-08-22T19:42:51.793Z</time>
      </trkpt>
      <trkpt lat="42.291193" lon="3.279700">
        <ele>28.690733</ele>
        <time>2019-08-22T19:42:57.053Z</time>
      </trkpt>
      <trkpt lat="42.291099" lon="3.279892">
        <ele>29.901652</ele>
        <time>2019-08-22T19:43:05.113Z</time>
      </trkpt>
      <trkpt lat="42.291022" lon="3.280073">
        <ele>30.999783</ele>
        <time>2019-08-22T19:43:13.850Z</time>
      </trkpt>
      <trkpt lat="42.290972" lon="3.280223">
        <ele>31.865078</ele>
        <time>2019-08-22T19:43:19.835Z</time>
      </trkpt>
      <trkpt lat="42.290981" lon="3.280370">
        <ele>32.640845</ele>
        <time>2019-08-22T19:43:24.799Z</time>
      </trkpt>
      <trkpt lat="42.291012" lon="3.280529">
        <ele>33.505638</ele>
        <time>2019-08-22T19:43:30.356Z</time>
      </trkpt>
      <trkpt lat="42.291122" lon="3.280577">
        <ele>34.327445</ele>
        <time>2019-08-22T19:43:35.367Z</time>
      </trkpt>
      <trkpt lat="42.291324" lon="3.280653">
        <ele>35.818198</ele>
        <time>2019-08-22T19:43:44.040Z</time>
      </trkpt>
      <trkpt lat="42.291526" lon="3.280784">
        <ele>36.911015</ele>
        <time>2019-08-22T19:43:53.832Z</time>
      </trkpt>
      <trkpt lat="42.291638" lon="3.280984">
        <ele>37.678991</ele>
        <time>2019-08-22T19:44:00.738Z</time>
      </trkpt>
      <trkpt lat="42.291719" lon="3.281209">
        <ele>38.445079</ele>
        <time>2019-08-22T19:44:08.245Z</time>
      </trkpt>
      <trkpt lat="42.291874" lon="3.281112">
        <ele>39.151984</ele>
        <time>2019-08-22T19:44:14.212Z</time>
      </trkpt>
      <trkpt lat="42.292481" lon="3.280624">
        <ele>42.074869</ele>
        <time>2019-08-22T19:44:39.977Z</time>
      </trkpt>
      <trkpt lat="42.292572" lon="3.280519">
        <ele>42.570025</ele>
        <time>2019-08-22T19:44:44.383Z</time>
      </trkpt>
      <trkpt lat="42.292670" lon="3.280569">
        <ele>43.003544</ele>
        <time>2019-08-22T19:44:47.940Z</time>
      </trkpt>
      <trkpt lat="42.292817" lon="3.280630">
        <ele>43.639953</ele>
        <time>2019-08-22T19:44:52.835Z</time>
      </trkpt>
      <trkpt lat="42.292919" lon="3.280771">
        <ele>43.570227</ele>
        <time>2019-08-22T19:44:57.657Z</time>
      </trkpt>
      <trkpt lat="42.292990" lon="3.280856">
        <ele>43.511022</ele>
        <time>2019-08-22T19:45:00.438Z</time>
      </trkpt>
      <trkpt lat="42.293052" lon="3.280930">
        <ele>43.459391</ele>
        <time>2019-08-22T19:45:03.040Z</time>
      </trkpt>
      <trkpt lat="42.293347" lon="3.281079">
        <ele>43.262797</ele>
        <time>2019-08-22T19:45:11.146Z</time>
      </trkpt>
      <trkpt lat="42.293509" lon="3.281097">
        <ele>43.161324</ele>
        <time>2019-08-22T19:45:14.450Z</time>
      </trkpt>
      <trkpt lat="42.293909" lon="3.281013">
        <ele>42.908621</ele>
        <time>2019-08-22T19:45:22.159Z</time>
      </trkpt>
      <trkpt lat="42.294048" lon="3.280985">
        <ele>42.820889</ele>
        <time>2019-08-22T19:45:24.311Z</time>
      </trkpt>
      <trkpt lat="42.294134" lon="3.280986">
        <ele>42.767200</ele>
        <time>2019-08-22T19:45:25.542Z</time>
      </trkpt>
      <trkpt lat="42.294205" lon="3.280987">
        <ele>42.722874</ele>
        <time>2019-08-22T19:45:26.501Z</time>
      </trkpt>
      <trkpt lat="42.294443" lon="3.281077">
        <ele>42.568595</ele>
        <time>2019-08-22T19:45:29.956Z</time>
      </trkpt>
      <trkpt lat="42.294626" lon="3.281232">
        <ele>41.723388</ele>
        <time>2019-08-22T19:45:32.901Z</time>
      </trkpt>
      <trkpt lat="42.294755" lon="3.281608">
        <ele>40.197395</ele>
        <time>2019-08-22T19:45:36.942Z</time>
      </trkpt>
      <trkpt lat="42.294852" lon="3.281844">
        <ele>39.203378</ele>
        <time>2019-08-22T19:45:39.614Z</time>
      </trkpt>
      <trkpt lat="42.295023" lon="3.282055">
        <ele>38.051026</ele>
        <time>2019-08-22T19:45:42.707Z</time>
      </trkpt>
      <trkpt lat="42.295181" lon="3.282262">
        <ele>36.955906</ele>
        <time>2019-08-22T19:45:45.521Z</time>
      </trkpt>
      <trkpt lat="42.295266" lon="3.282681">
        <ele>35.356305</ele>
        <time>2019-08-22T19:45:49.735Z</time>
      </trkpt>
      <trkpt lat="42.295525" lon="3.282862">
        <ele>33.905111</ele>
        <time>2019-08-22T19:45:53.766Z</time>
      </trkpt>
      <trkpt lat="42.296174" lon="3.283064">
        <ele>32.350010</ele>
        <time>2019-08-22T19:46:03.857Z</time>
      </trkpt>
      <trkpt lat="42.296516" lon="3.283051">
        <ele>31.648365</ele>
        <time>2019-08-22T19:46:09.904Z</time>
      </trkpt>
      <trkpt lat="42.296729" lon="3.282974">
        <ele>31.196202</ele>
        <time>2019-08-22T19:46:13.500Z</time>
      </trkpt>
      <trkpt lat="42.296754" lon="3.282959">
        <ele>31.140110</ele>
        <time>2019-08-22T19:46:14.897Z</time>
      </trkpt>
      <trkpt lat="42.297150" lon="3.282712">
        <ele>30.245738</ele>
        <time>2019-08-22T19:46:23.325Z</time>
      </trkpt>
      <trkpt lat="42.297466" lon="3.282538">
        <ele>29.315120</ele>
        <time>2019-08-22T19:46:28.303Z</time>
      </trkpt>
      <trkpt lat="42.297826" lon="3.282472">
        <ele>28.076469</ele>
        <time>2019-08-22T19:46:33.442Z</time>
      </trkpt>
      <trkpt lat="42.297850" lon="3.282479">
        <ele>27.992759</ele>
        <time>2019-08-22T19:46:34.197Z</time>
      </trkpt>
      <trkpt lat="42.297962" lon="3.282508">
        <ele>27.603956</ele>
        <time>2019-08-22T19:46:35.671Z</time>
      </trkpt>
      <trkpt lat="42.298133" lon="3.282623">
        <ele>26.952786</ele>
        <time>2019-08-22T19:46:38.427Z</time>
      </trkpt>
      <trkpt lat="42.298318" lon="3.282853">
        <ele>26.095885</ele>
        <time>2019-08-22T19:46:41.978Z</time>
      </trkpt>
      <trkpt lat="42.298399" lon="3.282961">
        <ele>25.708009</ele>
        <time>2019-08-22T19:46:43.510Z</time>
      </trkpt>
      <trkpt lat="42.298490" lon="3.283077">
        <ele>25.281584</ele>
        <time>2019-08-22T19:46:45.290Z</time>
      </trkpt>
      <trkpt lat="42.298584" lon="3.283291">
        <ele>24.653922</ele>
        <time>2019-08-22T19:46:47.937Z</time>
      </trkpt>
      <trkpt lat="42.298734" lon="3.283965">
        <ele>23.735065</ele>
        <time>2019-08-22T19:46:55.469Z</time>
      </trkpt>
      <trkpt lat="42.298791" lon="3.284216">
        <ele>23.714843</ele>
        <time>2019-08-22T19:46:58.365Z</time>
      </trkpt>
      <trkpt lat="42.298794" lon="3.284237">
        <ele>23.713196</ele>
        <time>2019-08-22T19:46:58.596Z</time>
      </trkpt>
      <trkpt lat="42.298864" lon="3.284630">
        <ele>23.682064</ele>
        <time>2019-08-22T19:47:03.312Z</time>
      </trkpt>
      <trkpt lat="42.298942" lon="3.285066">
        <ele>23.647517</ele>
        <time>2019-08-22T19:47:08.593Z</time>
      </trkpt>
      <trkpt lat="42.298964" lon="3.285168">
        <ele>23.639334</ele>
        <time>2019-08-22T19:47:10.710Z</time>
      </trkpt>
      <trkpt lat="42.299105" lon="3.285806">
        <ele>23.588052</ele>
        <time>2019-08-22T19:47:26.004Z</time>
      </trkpt>
      <trkpt lat="42.299183" lon="3.286010">
        <ele>23.789363</ele>
        <time>2019-08-22T19:47:32.836Z</time>
      </trkpt>
      <trkpt lat="42.299330" lon="3.286138">
        <ele>24.680423</ele>
        <time>2019-08-22T19:47:39.908Z</time>
      </trkpt>
      <trkpt lat="42.299391" lon="3.286155">
        <ele>24.997825</ele>
        <time>2019-08-22T19:47:42.352Z</time>
      </trkpt>
      <trkpt lat="42.299475" lon="3.286179">
        <ele>25.435357</ele>
        <time>2019-08-22T19:47:46.040Z</time>
      </trkpt>
      <trkpt lat="42.299745" lon="3.286038">
        <ele>26.910398</ele>
        <time>2019-08-22T19:47:59.156Z</time>
      </trkpt>
      <trkpt lat="42.299864" lon="3.285937">
        <ele>27.626433</ele>
        <time>2019-08-22T19:48:05.962Z</time>
      </trkpt>
      <trkpt lat="42.300386" lon="3.285491">
        <ele>30.773297</ele>
        <time>2019-08-22T19:48:32.167Z</time>
      </trkpt>
      <trkpt lat="42.300737" lon="3.285168">
        <ele>32.788378</ele>
        <time>2019-08-22T19:48:49.516Z</time>
      </trkpt>
      <trkpt lat="42.301046" lon="3.284942">
        <ele>33.221421</ele>
        <time>2019-08-22T19:49:02.193Z</time>
      </trkpt>
      <trkpt lat="42.301187" lon="3.284910">
        <ele>33.397655</ele>
        <time>2019-08-22T19:49:06.684Z</time>
      </trkpt>
      <trkpt lat="42.301277" lon="3.284917">
        <ele>33.508776</ele>
        <time>2019-08-22T19:49:09.803Z</time>
      </trkpt>
      <trkpt lat="42.301592" lon="3.284938">
        <ele>33.897529</ele>
        <time>2019-08-22T19:49:18.699Z</time>
      </trkpt>
      <trkpt lat="42.301957" lon="3.284898">
        <ele>34.348918</ele>
        <time>2019-08-22T19:49:26.693Z</time>
      </trkpt>
      <trkpt lat="42.302079" lon="3.284886">
        <ele>34.499697</ele>
        <time>2019-08-22T19:49:29.413Z</time>
      </trkpt>
      <trkpt lat="42.302294" lon="3.284841">
        <ele>34.767871</ele>
        <time>2019-08-22T19:49:32.876Z</time>
      </trkpt>
      <trkpt lat="42.302625" lon="3.284866">
        <ele>34.124231</ele>
        <time>2019-08-22T19:49:37.932Z</time>
      </trkpt>
      <trkpt lat="42.302841" lon="3.284803">
        <ele>33.084819</ele>
        <time>2019-08-22T19:49:41.098Z</time>
      </trkpt>
      <trkpt lat="42.303598" lon="3.284567">
        <ele>29.430544</ele>
        <time>2019-08-22T19:49:51.441Z</time>
      </trkpt>
      <trkpt lat="42.303988" lon="3.284324">
        <ele>27.410612</ele>
        <time>2019-08-22T19:49:57.031Z</time>
      </trkpt>
      <trkpt lat="42.304065" lon="3.284333">
        <ele>27.047062</ele>
        <time>2019-08-22T19:49:58.041Z</time>
      </trkpt>
      <trkpt lat="42.304195" lon="3.284584">
        <ele>26.172394</ele>
        <time>2019-08-22T19:50:01.030Z</time>
      </trkpt>
      <trkpt lat="42.304300" lon="3.284645">
        <ele>25.834050</ele>
        <time>2019-08-22T19:50:02.572Z</time>
      </trkpt>
      <trkpt lat="42.305160" lon="3.284952">
        <ele>23.200678</ele>
        <time>2019-08-22T19:50:15.078Z</time>
      </trkpt>
      <trkpt lat="42.305323" lon="3.284986">
        <ele>22.712388</ele>
        <time>2019-08-22T19:50:17.690Z</time>
      </trkpt>
      <trkpt lat="42.305534" lon="3.284875">
        <ele>22.042084</ele>
        <time>2019-08-22T19:50:21.379Z</time>
      </trkpt>
      <trkpt lat="42.305754" lon="3.284665">
        <ele>21.244799</ele>
        <time>2019-08-22T19:50:26.294Z</time>
      </trkpt>
      <trkpt lat="42.305842" lon="3.284581">
        <ele>21.406656</ele>
        <time>2019-08-22T19:50:28.927Z</time>
      </trkpt>
      <trkpt lat="42.305924" lon="3.284543">
        <ele>21.650730</ele>
        <time>2019-08-22T19:50:30.760Z</time>
      </trkpt>
      <trkpt lat="42.305982" lon="3.284572">
        <ele>21.824849</ele>
        <time>2019-08-22T19:50:32.168Z</time>
      </trkpt>
      <trkpt lat="42.306092" lon="3.284684">
        <ele>22.212571</ele>
        <time>2019-08-22T19:50:35.347Z</time>
      </trkpt>
      <trkpt lat="42.306119" lon="3.284740">
        <ele>22.351778</ele>
        <time>2019-08-22T19:50:37.083Z</time>
      </trkpt>
      <trkpt lat="42.305854" lon="3.285519">
        <ele>24.137349</ele>
        <time>2019-08-22T19:50:55.115Z</time>
      </trkpt>
      <trkpt lat="42.305907" lon="3.285742">
        <ele>24.625115</ele>
        <time>2019-08-22T19:51:01.015Z</time>
      </trkpt>
      <trkpt lat="42.306043" lon="3.285983">
        <ele>25.256386</ele>
        <time>2019-08-22T19:51:09.003Z</time>
      </trkpt>
      <trkpt lat="42.306290" lon="3.286431">
        <ele>26.672154</ele>
        <time>2019-08-22T19:51:27.422Z</time>
      </trkpt>
      <trkpt lat="42.306412" lon="3.286478">
        <ele>27.520879</ele>
        <time>2019-08-22T19:51:33.191Z</time>
      </trkpt>
      <trkpt lat="42.306732" lon="3.286474">
        <ele>29.661935</ele>
        <time>2019-08-22T19:51:48.120Z</time>
      </trkpt>
      <trkpt lat="42.307013" lon="3.286471">
        <ele>31.542028</ele>
        <time>2019-08-22T19:52:01.728Z</time>
      </trkpt>
      <trkpt lat="42.307321" lon="3.286467">
        <ele>33.602801</ele>
        <time>2019-08-22T19:52:16.828Z</time>
      </trkpt>
      <trkpt lat="42.307390" lon="3.286423">
        <ele>34.113206</ele>
        <time>2019-08-22T19:52:20.852Z</time>
      </trkpt>
      <trkpt lat="42.307490" lon="3.286359">
        <ele>34.853414</ele>
        <time>2019-08-22T19:52:26.091Z</time>
      </trkpt>
      <trkpt lat="42.307790" lon="3.285986">
        <ele>37.580097</ele>
        <time>2019-08-22T19:52:45.528Z</time>
      </trkpt>
      <trkpt lat="42.308063" lon="3.285199">
        <ele>41.475861</ele>
        <time>2019-08-22T19:53:16.110Z</time>
      </trkpt>
      <trkpt lat="42.308166" lon="3.285048">
        <ele>42.378171</ele>
        <time>2019-08-22T19:53:23.012Z</time>
      </trkpt>
      <trkpt lat="42.308313" lon="3.285027">
        <ele>43.256129</ele>
        <time>2019-08-22T19:53:30.268Z</time>
      </trkpt>
      <trkpt lat="42.308428" lon="3.285195">
        <ele>44.261650</ele>
        <time>2019-08-22T19:53:37.950Z</time>
      </trkpt>
      <trkpt lat="42.308665" lon="3.285841">
        <ele>47.429114</ele>
        <time>2019-08-22T19:54:00.059Z</time>
      </trkpt>
      <trkpt lat="42.308633" lon="3.286035">
        <ele>48.302178</ele>
        <time>2019-08-22T19:54:05.706Z</time>
      </trkpt>
      <trkpt lat="42.308428" lon="3.286484">
        <ele>50.305089</ele>
        <time>2019-08-22T19:54:20.624Z</time>
      </trkpt>
      <trkpt lat="42.308407" lon="3.286644">
        <ele>50.883992</ele>
        <time>2019-08-22T19:54:25.222Z</time>
      </trkpt>
      <trkpt lat="42.308461" lon="3.287114">
        <ele>52.578443</ele>
        <time>2019-08-22T19:54:38.679Z</time>
      </trkpt>
      <trkpt lat="42.308568" lon="3.287260">
        <ele>53.310703</ele>
        <time>2019-08-22T19:54:44.604Z</time>
      </trkpt>
      <trkpt lat="42.309198" lon="3.287765">
        <ele>56.838703</ele>
        <time>2019-08-22T19:55:13.609Z</time>
      </trkpt>
      <trkpt lat="42.309336" lon="3.287761">
        <ele>57.503630</ele>
        <time>2019-08-22T19:55:19.193Z</time>
      </trkpt>
      <trkpt lat="42.309707" lon="3.287297">
        <ele>61.016020</ele>
        <time>2019-08-22T19:55:39.977Z</time>
      </trkpt>
      <trkpt lat="42.309914" lon="3.287114">
        <ele>62.760936</ele>
        <time>2019-08-22T19:55:50.944Z</time>
      </trkpt>
      <trkpt lat="42.310086" lon="3.287101">
        <ele>63.976376</ele>
        <time>2019-08-22T19:55:59.505Z</time>
      </trkpt>
      <trkpt lat="42.310467" lon="3.287287">
        <ele>66.834339</ele>
        <time>2019-08-22T19:56:20.547Z</time>
      </trkpt>
      <trkpt lat="42.310827" lon="3.287823">
        <ele>70.661985</ele>
        <time>2019-08-22T19:56:49.997Z</time>
      </trkpt>
      <trkpt lat="42.311010" lon="3.288003">
        <ele>72.519854</ele>
        <time>2019-08-22T19:57:02.224Z</time>
      </trkpt>
      <trkpt lat="42.311393" lon="3.288212">
        <ele>75.910701</ele>
        <time>2019-08-22T19:57:25.721Z</time>
      </trkpt>
      <trkpt lat="42.311801" lon="3.288485">
        <ele>79.648060</ele>
        <time>2019-08-22T19:57:51.396Z</time>
      </trkpt>
      <trkpt lat="42.311953" lon="3.288528">
        <ele>80.923011</ele>
        <time>2019-08-22T19:58:00.131Z</time>
      </trkpt>
      <trkpt lat="42.313419" lon="3.287945">
        <ele>85.075381</ele>
        <time>2019-08-22T19:59:11.846Z</time>
      </trkpt>
      <trkpt lat="42.314723" lon="3.288217">
        <ele>85.075381</ele>
        <time>2019-08-22T19:59:49.305Z</time>
      </trkpt>
      <trkpt lat="42.31498" lon="3.28828">
        <ele>92.7</ele>
      </trkpt>
      <trkpt lat="42.31555" lon="3.2884">
        <ele>90.6</ele>
      </trkpt>
      <trkpt lat="42.31601" lon="3.28851">
        <ele>89</ele>
      </trkpt>
      <trkpt lat="42.31637" lon="3.28859">
        <ele>86.5</ele>
      </trkpt>
      <trkpt lat="42.31645" lon="3.28863">
        <ele>86</ele>
      </trkpt>
      <trkpt lat="42.31653" lon="3.2887">
        <ele>85.6</ele>
      </trkpt>
      <trkpt lat="42.31658" lon="3.28877">
        <ele>85.4</ele>
      </trkpt>
      <trkpt lat="42.31662" lon="3.28886">
        <ele>85.4</ele>
      </trkpt>
      <trkpt lat="42.31666" lon="3.28901">
        <ele>85.5</ele>
      </trkpt>
      <trkpt lat="42.31669" lon="3.28914">
        <ele>86</ele>
      </trkpt>
      <trkpt lat="42.31673" lon="3.28922">
        <ele>86.4</ele>
      </trkpt>
      <trkpt lat="42.31678" lon="3.2893">
        <ele>86.8</ele>
      </trkpt>
      <trkpt lat="42.31692" lon="3.28949">
        <ele>88</ele>
      </trkpt>
      <trkpt lat="42.31705" lon="3.28968">
        <ele>89.5</ele>
      </trkpt>
      <trkpt lat="42.31714" lon="3.28979">
        <ele>90.5</ele>
      </trkpt>
      <trkpt lat="42.31719" lon="3.28982">
        <ele>90.9</ele>
      </trkpt>
      <trkpt lat="42.31723" lon="3.28984">
        <ele>91.3</ele>
      </trkpt>
      <trkpt lat="42.31728" lon="3.28984">
        <ele>91.6</ele>
      </trkpt>
      <trkpt lat="42.31735" lon="3.28983">
        <ele>92</ele>
      </trkpt>
      <trkpt lat="42.31765" lon="3.28976">
        <ele>93.2</ele>
      </trkpt>
      <trkpt lat="42.31792" lon="3.28971">
        <ele>93.9</ele>
      </trkpt>
      <trkpt lat="42.31799" lon="3.28972">
        <ele>94.3</ele>
      </trkpt>
      <trkpt lat="42.31804" lon="3.28974">
        <ele>94.6</ele>
      </trkpt>
      <trkpt lat="42.3181" lon="3.28979">
        <ele>95.1</ele>
      </trkpt>
      <trkpt lat="42.31814" lon="3.28985">
        <ele>95.5</ele>
      </trkpt>
      <trkpt lat="42.31818" lon="3.28994">
        <ele>96.1</ele>
      </trkpt>
      <trkpt lat="42.31821" lon="3.29001">
        <ele>96.6</ele>
      </trkpt>
      <trkpt lat="42.31821" lon="3.29008">
        <ele>97.2</ele>
      </trkpt>
      <trkpt lat="42.31821" lon="3.29015">
        <ele>97.7</ele>
      </trkpt>
      <trkpt lat="42.3182" lon="3.29022">
        <ele>98.3</ele>
      </trkpt>
      <trkpt lat="42.31817" lon="3.29032">
        <ele>99</ele>
      </trkpt>
      <trkpt lat="42.3181" lon="3.29046">
        <ele>100.1</ele>
      </trkpt>
      <trkpt lat="42.31792" lon="3.29078">
        <ele>103</ele>
      </trkpt>
      <trkpt lat="42.31783" lon="3.29098">
        <ele>104</ele>
      </trkpt>
      <trkpt lat="42.3178" lon="3.29104">
        <ele>104.3</ele>
      </trkpt>
      <trkpt lat="42.31778" lon="3.29114">
        <ele>104.6</ele>
      </trkpt>
      <trkpt lat="42.31778" lon="3.29121">
        <ele>104.9</ele>
      </trkpt>
      <trkpt lat="42.31778" lon="3.29126">
        <ele>105</ele>
      </trkpt>
      <trkpt lat="42.31779" lon="3.29132">
        <ele>105.2</ele>
      </trkpt>
      <trkpt lat="42.31781" lon="3.2914">
        <ele>105.3</ele>
      </trkpt>
      <trkpt lat="42.31789" lon="3.2916">
        <ele>105.5</ele>
      </trkpt>
      <trkpt lat="42.31819" lon="3.29241">
        <ele>109.5</ele>
      </trkpt>
      <trkpt lat="42.31843" lon="3.29303">
        <ele>110.4</ele>
      </trkpt>
      <trkpt lat="42.31848" lon="3.29312">
        <ele>110.2</ele>
      </trkpt>
      <trkpt lat="42.31852" lon="3.29318">
        <ele>110</ele>
      </trkpt>
      <trkpt lat="42.31856" lon="3.29321">
        <ele>109.7</ele>
      </trkpt>
      <trkpt lat="42.3186" lon="3.29323">
        <ele>109.4</ele>
      </trkpt>
      <trkpt lat="42.31867" lon="3.29324">
        <ele>108.9</ele>
      </trkpt>
      <trkpt lat="42.31878" lon="3.29324">
        <ele>107.9</ele>
      </trkpt>
      <trkpt lat="42.31896" lon="3.29322">
        <ele>106.3</ele>
      </trkpt>
      <trkpt lat="42.3192" lon="3.29319">
        <ele>104.1</ele>
      </trkpt>
      <trkpt lat="42.3193" lon="3.29319">
        <ele>103.3</ele>
      </trkpt>
      <trkpt lat="42.31938" lon="3.29321">
        <ele>102.8</ele>
      </trkpt>
      <trkpt lat="42.31946" lon="3.29325">
        <ele>102.4</ele>
      </trkpt>
      <trkpt lat="42.3195" lon="3.29329">
        <ele>102.4</ele>
      </trkpt>
      <trkpt lat="42.31961" lon="3.29341">
        <ele>101.9</ele>
      </trkpt>
      <trkpt lat="42.31972" lon="3.29358">
        <ele>101.4</ele>
      </trkpt>
      <trkpt lat="42.31977" lon="3.29367">
        <ele>101.2</ele>
      </trkpt>
      <trkpt lat="42.31981" lon="3.29378">
        <ele>101.2</ele>
      </trkpt>
      <trkpt lat="42.31983" lon="3.29388">
        <ele>101.3</ele>
      </trkpt>
      <trkpt lat="42.31989" lon="3.29414">
        <ele>101.5</ele>
      </trkpt>
      <trkpt lat="42.31997" lon="3.29445">
        <ele>100.1</ele>
      </trkpt>
      <trkpt lat="42.32" lon="3.29453">
        <ele>99.7</ele>
      </trkpt>
      <trkpt lat="42.32002" lon="3.29459">
        <ele>99.5</ele>
      </trkpt>
      <trkpt lat="42.32007" lon="3.29467">
        <ele>99.2</ele>
      </trkpt>
      <trkpt lat="42.32013" lon="3.29474">
        <ele>98.9</ele>
      </trkpt>
      <trkpt lat="42.32019" lon="3.2948">
        <ele>98.6</ele>
      </trkpt>
      <trkpt lat="42.32035" lon="3.2949">
        <ele>98</ele>
      </trkpt>
      <trkpt lat="42.32048" lon="3.29499">
        <ele>97.5</ele>
      </trkpt>
      <trkpt lat="42.32063" lon="3.29505">
        <ele>97.2</ele>
      </trkpt>
      <trkpt lat="42.32069" lon="3.29507">
        <ele>97.1</ele>
      </trkpt>
      <trkpt lat="42.32074" lon="3.29507">
        <ele>97</ele>
      </trkpt>
      <trkpt lat="42.32085" lon="3.29505">
        <ele>96.7</ele>
      </trkpt>
      <trkpt lat="42.32103" lon="3.29498">
        <ele>95</ele>
      </trkpt>
      <trkpt lat="42.32118" lon="3.29492">
        <ele>93.9</ele>
      </trkpt>
      <trkpt lat="42.32127" lon="3.29489">
        <ele>93.1</ele>
      </trkpt>
      <trkpt lat="42.32132" lon="3.29489">
        <ele>92.6</ele>
      </trkpt>
      <trkpt lat="42.32136" lon="3.29491">
        <ele>92.1</ele>
      </trkpt>
      <trkpt lat="42.32141" lon="3.29493">
        <ele>91.4</ele>
      </trkpt>
      <trkpt lat="42.32147" lon="3.29497">
        <ele>90.4</ele>
      </trkpt>
      <trkpt lat="42.32156" lon="3.29507">
        <ele>88.5</ele>
      </trkpt>
      <trkpt lat="42.3216" lon="3.29515">
        <ele>87.2</ele>
      </trkpt>
      <trkpt lat="42.32162" lon="3.29523">
        <ele>86.1</ele>
      </trkpt>
      <trkpt lat="42.32163" lon="3.29531">
        <ele>85.2</ele>
      </trkpt>
      <trkpt lat="42.32164" lon="3.29545">
        <ele>83.6</ele>
      </trkpt>
      <trkpt lat="42.32165" lon="3.29583">
        <ele>79.4</ele>
      </trkpt>
      <trkpt lat="42.32166" lon="3.29599">
        <ele>77.3</ele>
      </trkpt>
      <trkpt lat="42.32166" lon="3.29604">
        <ele>76.7</ele>
      </trkpt>
      <trkpt lat="42.32165" lon="3.29608">
        <ele>76.4</ele>
      </trkpt>
      <trkpt lat="42.32163" lon="3.29617">
        <ele>75.9</ele>
      </trkpt>
      <trkpt lat="42.32155" lon="3.29642">
        <ele>75.2</ele>
      </trkpt>
      <trkpt lat="42.32147" lon="3.29668">
        <ele>75</ele>
      </trkpt>
      <trkpt lat="42.32141" lon="3.29689">
        <ele>75.1</ele>
      </trkpt>
      <trkpt lat="42.32138" lon="3.29709">
        <ele>74.2</ele>
      </trkpt>
      <trkpt lat="42.32134" lon="3.29732">
        <ele>73</ele>
      </trkpt>
      <trkpt lat="42.32132" lon="3.29739">
        <ele>72.7</ele>
      </trkpt>
      <trkpt lat="42.32131" lon="3.29745">
        <ele>72.3</ele>
      </trkpt>
      <trkpt lat="42.32125" lon="3.29759">
        <ele>72.4</ele>
      </trkpt>
      <trkpt lat="42.32116" lon="3.29775">
        <ele>72.7</ele>
      </trkpt>
      <trkpt lat="42.32104" lon="3.29793">
        <ele>72.8</ele>
      </trkpt>
      <trkpt lat="42.32082" lon="3.29821">
        <ele>71.8</ele>
      </trkpt>
      <trkpt lat="42.32055" lon="3.29855">
        <ele>71.5</ele>
      </trkpt>
      <trkpt lat="42.3204" lon="3.29875">
        <ele>70.7</ele>
      </trkpt>
      <trkpt lat="42.32036" lon="3.29881">
        <ele>70.3</ele>
      </trkpt>
      <trkpt lat="42.32034" lon="3.29884">
        <ele>70.1</ele>
      </trkpt>
      <trkpt lat="42.32032" lon="3.29887">
        <ele>69.9</ele>
      </trkpt>
      <trkpt lat="42.32031" lon="3.2989">
        <ele>69.5</ele>
      </trkpt>
      <trkpt lat="42.32027" lon="3.29898">
        <ele>68.8</ele>
      </trkpt>
      <trkpt lat="42.32019" lon="3.29923">
        <ele>66.2</ele>
      </trkpt>
      <trkpt lat="42.32007" lon="3.29964">
        <ele>64.5</ele>
      </trkpt>
      <trkpt lat="42.31996" lon="3.29998">
        <ele>63.7</ele>
      </trkpt>
      <trkpt lat="42.31973" lon="3.30058">
        <ele>61.8</ele>
      </trkpt>
      <trkpt lat="42.31965" lon="3.30078">
        <ele>60.6</ele>
      </trkpt>
      <trkpt lat="42.31948" lon="3.30111">
        <ele>61.8</ele>
      </trkpt>
      <trkpt lat="42.31931" lon="3.3014">
        <ele>62.4</ele>
      </trkpt>
      <trkpt lat="42.3191" lon="3.30175">
        <ele>62.3</ele>
      </trkpt>
      <trkpt lat="42.31902" lon="3.30191">
        <ele>62.8</ele>
      </trkpt>
      <trkpt lat="42.31897" lon="3.30202">
        <ele>63.1</ele>
      </trkpt>
      <trkpt lat="42.31894" lon="3.30211">
        <ele>63.3</ele>
      </trkpt>
      <trkpt lat="42.31892" lon="3.3022">
        <ele>63.5</ele>
      </trkpt>
      <trkpt lat="42.3189" lon="3.30238">
        <ele>64</ele>
      </trkpt>
      <trkpt lat="42.3189" lon="3.30264">
        <ele>65.2</ele>
      </trkpt>
      <trkpt lat="42.31892" lon="3.30289">
        <ele>66.8</ele>
      </trkpt>
      <trkpt lat="42.31898" lon="3.30322">
        <ele>68.9</ele>
      </trkpt>
      <trkpt lat="42.31907" lon="3.30374">
        <ele>69.6</ele>
      </trkpt>
      <trkpt lat="42.31916" lon="3.30425">
        <ele>69.2</ele>
      </trkpt>
      <trkpt lat="42.31933" lon="3.30516">
        <ele>69.5</ele>
      </trkpt>
      <trkpt lat="42.31945" lon="3.30584">
        <ele>66.6</ele>
      </trkpt>
      <trkpt lat="42.31958" lon="3.30656">
        <ele>62.1</ele>
      </trkpt>
      <trkpt lat="42.31969" lon="3.30716">
        <ele>59.5</ele>
      </trkpt>
      <trkpt lat="42.31979" lon="3.30763">
        <ele>57.5</ele>
      </trkpt>
      <trkpt lat="42.31986" lon="3.30807">
        <ele>54.1</ele>
      </trkpt>
      <trkpt lat="42.31987" lon="3.30816">
        <ele>53.4</ele>
      </trkpt>
      <trkpt lat="42.31986" lon="3.30824">
        <ele>52.7</ele>
      </trkpt>
      <trkpt lat="42.31986" lon="3.30832">
        <ele>52.1</ele>
      </trkpt>
      <trkpt lat="42.31984" lon="3.30843">
        <ele>50.6</ele>
      </trkpt>
      <trkpt lat="42.31982" lon="3.30852">
        <ele>49.4</ele>
      </trkpt>
      <trkpt lat="42.31978" lon="3.30867">
        <ele>47.5</ele>
      </trkpt>
      <trkpt lat="42.31972" lon="3.30882">
        <ele>45.8</ele>
      </trkpt>
      <trkpt lat="42.31965" lon="3.30895">
        <ele>44.6</ele>
      </trkpt>
      <trkpt lat="42.31955" lon="3.30909">
        <ele>43.6</ele>
      </trkpt>
      <trkpt lat="42.31949" lon="3.30916">
        <ele>43.4</ele>
      </trkpt>
      <trkpt lat="42.31943" lon="3.3092">
        <ele>43.4</ele>
      </trkpt>
      <trkpt lat="42.31922" lon="3.30931">
        <ele>44</ele>
      </trkpt>
      <trkpt lat="42.31892" lon="3.30944">
        <ele>40.9</ele>
      </trkpt>
      <trkpt lat="42.31884" lon="3.30949">
        <ele>39.7</ele>
      </trkpt>
      <trkpt lat="42.31881" lon="3.30951">
        <ele>39.2</ele>
      </trkpt>
      <trkpt lat="42.31877" lon="3.30956">
        <ele>38.4</ele>
      </trkpt>
      <trkpt lat="42.31874" lon="3.30961">
        <ele>37.7</ele>
      </trkpt>
      <trkpt lat="42.31872" lon="3.30965">
        <ele>37.1</ele>
      </trkpt>
      <trkpt lat="42.3187" lon="3.30973">
        <ele>36.2</ele>
      </trkpt>
      <trkpt lat="42.31868" lon="3.30979">
        <ele>35.5</ele>
      </trkpt>
      <trkpt lat="42.31868" lon="3.30984">
        <ele>35</ele>
      </trkpt>
      <trkpt lat="42.31869" lon="3.30991">
        <ele>34.4</ele>
      </trkpt>
      <trkpt lat="42.3187" lon="3.30997">
        <ele>33.9</ele>
      </trkpt>
      <trkpt lat="42.31872" lon="3.31001">
        <ele>33.7</ele>
      </trkpt>
      <trkpt lat="42.31875" lon="3.31005">
        <ele>33.7</ele>
      </trkpt>
      <trkpt lat="42.31879" lon="3.31008">
        <ele>33.8</ele>
      </trkpt>
      <trkpt lat="42.31885" lon="3.3101">
        <ele>34</ele>
      </trkpt>
      <trkpt lat="42.31894" lon="3.3101">
        <ele>34.7</ele>
      </trkpt>
      <trkpt lat="42.31904" lon="3.31009">
        <ele>35.5</ele>
      </trkpt>
      <trkpt lat="42.31912" lon="3.31007">
        <ele>36.2</ele>
      </trkpt>
      <trkpt lat="42.31919" lon="3.31007">
        <ele>36.2</ele>
      </trkpt>
      <trkpt lat="42.31927" lon="3.31009">
        <ele>35</ele>
      </trkpt>
      <trkpt lat="42.31934" lon="3.31014">
        <ele>33.7</ele>
      </trkpt>
      <trkpt lat="42.31937" lon="3.31016">
        <ele>33.2</ele>
      </trkpt>
      <trkpt lat="42.3194" lon="3.31021">
        <ele>32.3</ele>
      </trkpt>
      <trkpt lat="42.31944" lon="3.31028">
        <ele>31.2</ele>
      </trkpt>
      <trkpt lat="42.31946" lon="3.31035">
        <ele>30.2</ele>
      </trkpt>
      <trkpt lat="42.31947" lon="3.31042">
        <ele>29.4</ele>
      </trkpt>
      <trkpt lat="42.31947" lon="3.31057">
        <ele>28</ele>
      </trkpt>
      <trkpt lat="42.31944" lon="3.31082">
        <ele>26.2</ele>
      </trkpt>
      <trkpt lat="42.31941" lon="3.31108">
        <ele>24.5</ele>
      </trkpt>
      <trkpt lat="42.31935" lon="3.31168">
        <ele>20.1</ele>
      </trkpt>
      <trkpt lat="42.31928" lon="3.31231">
        <ele>24.7</ele>
      </trkpt>
      <trkpt lat="42.31923" lon="3.31277">
        <ele>30.4</ele>
      </trkpt>
      <trkpt lat="42.3192" lon="3.31302">
        <ele>34.7</ele>
      </trkpt>
      <trkpt lat="42.31917" lon="3.31317">
        <ele>37.1</ele>
      </trkpt>
      <trkpt lat="42.31916" lon="3.31321">
        <ele>37.7</ele>
      </trkpt>
      <trkpt lat="42.31915" lon="3.31324">
        <ele>38.1</ele>
      </trkpt>
      <trkpt lat="42.31913" lon="3.31327">
        <ele>38.4</ele>
      </trkpt>
      <trkpt lat="42.3191" lon="3.3133">
        <ele>38.6</ele>
      </trkpt>
      <trkpt lat="42.31908" lon="3.31332">
        <ele>38.7</ele>
      </trkpt>
      <trkpt lat="42.31906" lon="3.31333">
        <ele>38.7</ele>
      </trkpt>
      <trkpt lat="42.31902" lon="3.31335">
        <ele>38.6</ele>
      </trkpt>
      <trkpt lat="42.31899" lon="3.31336">
        <ele>38.4</ele>
      </trkpt>
      <trkpt lat="42.31895" lon="3.31336">
        <ele>37.9</ele>
      </trkpt>
      <trkpt lat="42.31887" lon="3.31338">
        <ele>37.4</ele>
      </trkpt>
      <trkpt lat="42.31869" lon="3.31341">
        <ele>35.7</ele>
      </trkpt>
      <trkpt lat="42.31862" lon="3.31344">
        <ele>35.3</ele>
      </trkpt>
      <trkpt lat="42.31854" lon="3.31349">
        <ele>35.2</ele>
      </trkpt>
      <trkpt lat="42.31851" lon="3.31352">
        <ele>35.3</ele>
      </trkpt>
      <trkpt lat="42.31849" lon="3.31355">
        <ele>35.5</ele>
      </trkpt>
      <trkpt lat="42.31847" lon="3.31359">
        <ele>35.9</ele>
      </trkpt>
      <trkpt lat="42.31846" lon="3.31363">
        <ele>36.4</ele>
      </trkpt>
      <trkpt lat="42.31846" lon="3.31368">
        <ele>37.2</ele>
      </trkpt>
      <trkpt lat="42.31846" lon="3.31374">
        <ele>38.2</ele>
      </trkpt>
      <trkpt lat="42.31848" lon="3.3138">
        <ele>39.5</ele>
      </trkpt>
      <trkpt lat="42.3185" lon="3.31384">
        <ele>40.5</ele>
      </trkpt>
      <trkpt lat="42.31852" lon="3.31386">
        <ele>41.2</ele>
      </trkpt>
      <trkpt lat="42.31853" lon="3.31388">
        <ele>41.7</ele>
      </trkpt>
      <trkpt lat="42.31856" lon="3.31389">
        <ele>42.3</ele>
      </trkpt>
      <trkpt lat="42.31859" lon="3.3139">
        <ele>43</ele>
      </trkpt>
      <trkpt lat="42.31863" lon="3.31391">
        <ele>43.8</ele>
      </trkpt>
      <trkpt lat="42.31867" lon="3.3139">
        <ele>44.3</ele>
      </trkpt>
      <trkpt lat="42.31875" lon="3.31386">
        <ele>44.8</ele>
      </trkpt>
      <trkpt lat="42.31883" lon="3.31381">
        <ele>45.1</ele>
      </trkpt>
      <trkpt lat="42.31896" lon="3.31372">
        <ele>45.3</ele>
      </trkpt>
      <trkpt lat="42.31903" lon="3.31369">
        <ele>45.7</ele>
      </trkpt>
      <trkpt lat="42.31909" lon="3.31367">
        <ele>46.2</ele>
      </trkpt>
      <trkpt lat="42.31916" lon="3.31366">
        <ele>47</ele>
      </trkpt>
      <trkpt lat="42.31923" lon="3.31367">
        <ele>47.7</ele>
      </trkpt>
      <trkpt lat="42.31931" lon="3.31369">
        <ele>48.5</ele>
      </trkpt>
      <trkpt lat="42.3194" lon="3.31374">
        <ele>49.9</ele>
      </trkpt>
      <trkpt lat="42.31945" lon="3.3138">
        <ele>51.2</ele>
      </trkpt>
      <trkpt lat="42.31958" lon="3.31396">
        <ele>54.3</ele>
      </trkpt>
      <trkpt lat="42.31976" lon="3.31419">
        <ele>57.5</ele>
      </trkpt>
      <trkpt lat="42.31988" lon="3.31436">
        <ele>58.8</ele>
      </trkpt>
      <trkpt lat="42.31992" lon="3.31444">
        <ele>59.4</ele>
      </trkpt>
      <trkpt lat="42.31994" lon="3.31451">
        <ele>60</ele>
      </trkpt>
      <trkpt lat="42.31995" lon="3.31458">
        <ele>60.6</ele>
      </trkpt>
      <trkpt lat="42.31995" lon="3.31465">
        <ele>61.2</ele>
      </trkpt>
      <trkpt lat="42.31995" lon="3.31471">
        <ele>61.7</ele>
      </trkpt>
      <trkpt lat="42.31995" lon="3.31475">
        <ele>62</ele>
      </trkpt>
      <trkpt lat="42.31994" lon="3.31478">
        <ele>62.3</ele>
      </trkpt>
      <trkpt lat="42.31993" lon="3.31481">
        <ele>62.6</ele>
      </trkpt>
      <trkpt lat="42.3199" lon="3.31486">
        <ele>63</ele>
      </trkpt>
      <trkpt lat="42.31986" lon="3.31489">
        <ele>63.4</ele>
      </trkpt>
      <trkpt lat="42.31982" lon="3.31493">
        <ele>63.8</ele>
      </trkpt>
      <trkpt lat="42.31979" lon="3.31495">
        <ele>64.1</ele>
      </trkpt>
      <trkpt lat="42.31974" lon="3.31496">
        <ele>64.3</ele>
      </trkpt>
      <trkpt lat="42.31969" lon="3.31497">
        <ele>64.5</ele>
      </trkpt>
      <trkpt lat="42.31963" lon="3.31497">
        <ele>64.6</ele>
      </trkpt>
      <trkpt lat="42.31954" lon="3.31494">
        <ele>64.6</ele>
      </trkpt>
      <trkpt lat="42.31948" lon="3.31493">
        <ele>64.6</ele>
      </trkpt>
      <trkpt lat="42.31943" lon="3.31493">
        <ele>64.7</ele>
      </trkpt>
      <trkpt lat="42.31936" lon="3.31495">
        <ele>65.1</ele>
      </trkpt>
      <trkpt lat="42.31932" lon="3.31498">
        <ele>65.4</ele>
      </trkpt>
      <trkpt lat="42.31929" lon="3.31502">
        <ele>65.8</ele>
      </trkpt>
      <trkpt lat="42.31925" lon="3.31509">
        <ele>66.3</ele>
      </trkpt>
      <trkpt lat="42.31923" lon="3.31517">
        <ele>66.9</ele>
      </trkpt>
      <trkpt lat="42.31923" lon="3.31524">
        <ele>67.3</ele>
      </trkpt>
      <trkpt lat="42.31925" lon="3.31537">
        <ele>68</ele>
      </trkpt>
      <trkpt lat="42.3193" lon="3.31556">
        <ele>68.9</ele>
      </trkpt>
      <trkpt lat="42.31933" lon="3.31572">
        <ele>69.8</ele>
      </trkpt>
      <trkpt lat="42.31933" lon="3.31585">
        <ele>70.3</ele>
      </trkpt>
      <trkpt lat="42.31932" lon="3.31591">
        <ele>70</ele>
      </trkpt>
      <trkpt lat="42.3193" lon="3.31598">
        <ele>69.6</ele>
      </trkpt>
      <trkpt lat="42.31926" lon="3.31603">
        <ele>69.5</ele>
      </trkpt>
      <trkpt lat="42.31922" lon="3.31607">
        <ele>69.4</ele>
      </trkpt>
      <trkpt lat="42.31916" lon="3.31611">
        <ele>69.1</ele>
      </trkpt>
      <trkpt lat="42.31911" lon="3.31613">
        <ele>67.5</ele>
      </trkpt>
      <trkpt lat="42.31901" lon="3.31616">
        <ele>64.3</ele>
      </trkpt>
    </trkseg>
  </trk>
</gpx>
